<?xml version="1.0" encoding="UTF-8" standalone="no" ?>
<gpx xmlns="http://www.topografix.com/GPX/1/1" xmlns:xsi="http://www.w3.org/2001/XMLSchema-instance" xsi:schemaLocation="http://www.topografix.com/GPX/1/1 http://www.topografix.com/GPX/1/1/gpx.xsd" version="1.1" creator="VisuGPX - https://www.visugpx.com">
  <metadata>
    <name>3 jours en Beaufortain 2018</name>
    <desc><![CDATA[3 jours en Beaufortain 2018 depuis le refuge de La Balme]]></desc>
  </metadata>
  <trk>
    <name><![CDATA[CERDOSSE]]></name>
    <trkseg>
      <trkpt lat="45.632" lon="6.669">
        <ele>2021.31</ele>
        <time>2018-02-06T11:17:44Z</time>
      </trkpt>
      <trkpt lat="45.632" lon="6.669">
        <ele>2021.31</ele>
        <time>2018-02-06T11:17:45Z</time>
      </trkpt>
      <trkpt lat="45.63209" lon="6.66907">
        <ele>2021.79</ele>
        <time>2018-02-06T11:18:04Z</time>
      </trkpt>
      <trkpt lat="45.63209" lon="6.66906">
        <ele>2020.83</ele>
        <time>2018-02-06T11:18:05Z</time>
      </trkpt>
      <trkpt lat="45.63208" lon="6.66894">
        <ele>2022.27</ele>
        <time>2018-02-06T11:18:21Z</time>
      </trkpt>
      <trkpt lat="45.63206" lon="6.66885">
        <ele>2022.27</ele>
        <time>2018-02-06T11:18:36Z</time>
      </trkpt>
      <trkpt lat="45.63203" lon="6.66877">
        <ele>2022.75</ele>
        <time>2018-02-06T11:18:47Z</time>
      </trkpt>
      <trkpt lat="45.63203" lon="6.66863">
        <ele>2024.19</ele>
        <time>2018-02-06T11:18:59Z</time>
      </trkpt>
      <trkpt lat="45.63203" lon="6.66858">
        <ele>2025.64</ele>
        <time>2018-02-06T11:19:04Z</time>
      </trkpt>
      <trkpt lat="45.63202" lon="6.66843">
        <ele>2026.6</ele>
        <time>2018-02-06T11:19:20Z</time>
      </trkpt>
      <trkpt lat="45.632" lon="6.6683">
        <ele>2027.08</ele>
        <time>2018-02-06T11:19:34Z</time>
      </trkpt>
      <trkpt lat="45.632" lon="6.66814">
        <ele>2028.04</ele>
        <time>2018-02-06T11:19:48Z</time>
      </trkpt>
      <trkpt lat="45.63199" lon="6.668">
        <ele>2028.52</ele>
        <time>2018-02-06T11:20:02Z</time>
      </trkpt>
      <trkpt lat="45.63198" lon="6.66783">
        <ele>2029</ele>
        <time>2018-02-06T11:20:18Z</time>
      </trkpt>
      <trkpt lat="45.63198" lon="6.66773">
        <ele>2029</ele>
        <time>2018-02-06T11:20:30Z</time>
      </trkpt>
      <trkpt lat="45.63198" lon="6.66758">
        <ele>2029.96</ele>
        <time>2018-02-06T11:20:43Z</time>
      </trkpt>
      <trkpt lat="45.63197" lon="6.66742">
        <ele>2030.44</ele>
        <time>2018-02-06T11:20:57Z</time>
      </trkpt>
      <trkpt lat="45.63196" lon="6.66728">
        <ele>2032.36</ele>
        <time>2018-02-06T11:21:12Z</time>
      </trkpt>
      <trkpt lat="45.63194" lon="6.66714">
        <ele>2035.73</ele>
        <time>2018-02-06T11:21:29Z</time>
      </trkpt>
      <trkpt lat="45.63186" lon="6.66705">
        <ele>2038.61</ele>
        <time>2018-02-06T11:21:44Z</time>
      </trkpt>
      <trkpt lat="45.63183" lon="6.66704">
        <ele>2041.98</ele>
        <time>2018-02-06T11:21:52Z</time>
      </trkpt>
      <trkpt lat="45.63183" lon="6.66704">
        <ele>2042.46</ele>
        <time>2018-02-06T11:21:53Z</time>
      </trkpt>
      <trkpt lat="45.63174" lon="6.66702">
        <ele>2042.46</ele>
        <time>2018-02-06T11:22:07Z</time>
      </trkpt>
      <trkpt lat="45.63162" lon="6.66698">
        <ele>2043.42</ele>
        <time>2018-02-06T11:22:24Z</time>
      </trkpt>
      <trkpt lat="45.63161" lon="6.66698">
        <ele>2042.94</ele>
        <time>2018-02-06T11:22:26Z</time>
      </trkpt>
      <trkpt lat="45.63153" lon="6.66697">
        <ele>2045.34</ele>
        <time>2018-02-06T11:22:35Z</time>
      </trkpt>
      <trkpt lat="45.63145" lon="6.66695">
        <ele>2046.78</ele>
        <time>2018-02-06T11:22:48Z</time>
      </trkpt>
      <trkpt lat="45.63142" lon="6.66695">
        <ele>2050.15</ele>
        <time>2018-02-06T11:22:54Z</time>
      </trkpt>
      <trkpt lat="45.63135" lon="6.66686">
        <ele>2049.19</ele>
        <time>2018-02-06T11:23:09Z</time>
      </trkpt>
      <trkpt lat="45.63132" lon="6.66679">
        <ele>2052.55</ele>
        <time>2018-02-06T11:23:22Z</time>
      </trkpt>
      <trkpt lat="45.6313" lon="6.66664">
        <ele>2053.99</ele>
        <time>2018-02-06T11:23:40Z</time>
      </trkpt>
      <trkpt lat="45.6313" lon="6.66648">
        <ele>2056.88</ele>
        <time>2018-02-06T11:23:56Z</time>
      </trkpt>
      <trkpt lat="45.6313" lon="6.6664">
        <ele>2059.28</ele>
        <time>2018-02-06T11:24:10Z</time>
      </trkpt>
      <trkpt lat="45.63129" lon="6.66632">
        <ele>2062.17</ele>
        <time>2018-02-06T11:24:26Z</time>
      </trkpt>
      <trkpt lat="45.63126" lon="6.66621">
        <ele>2064.57</ele>
        <time>2018-02-06T11:24:41Z</time>
      </trkpt>
      <trkpt lat="45.63125" lon="6.66613">
        <ele>2066.97</ele>
        <time>2018-02-06T11:24:53Z</time>
      </trkpt>
      <trkpt lat="45.63121" lon="6.66607">
        <ele>2068.89</ele>
        <time>2018-02-06T11:25:04Z</time>
      </trkpt>
      <trkpt lat="45.63118" lon="6.66607">
        <ele>2070.82</ele>
        <time>2018-02-06T11:25:11Z</time>
      </trkpt>
      <trkpt lat="45.63112" lon="6.66607">
        <ele>2072.74</ele>
        <time>2018-02-06T11:25:24Z</time>
      </trkpt>
      <trkpt lat="45.63102" lon="6.66603">
        <ele>2074.66</ele>
        <time>2018-02-06T11:25:38Z</time>
      </trkpt>
      <trkpt lat="45.63096" lon="6.66599">
        <ele>2077.07</ele>
        <time>2018-02-06T11:25:51Z</time>
      </trkpt>
      <trkpt lat="45.63091" lon="6.66593">
        <ele>2078.99</ele>
        <time>2018-02-06T11:26:06Z</time>
      </trkpt>
      <trkpt lat="45.6309" lon="6.66583">
        <ele>2080.91</ele>
        <time>2018-02-06T11:26:19Z</time>
      </trkpt>
      <trkpt lat="45.63085" lon="6.66569">
        <ele>2082.35</ele>
        <time>2018-02-06T11:26:35Z</time>
      </trkpt>
      <trkpt lat="45.63082" lon="6.66564">
        <ele>2081.87</ele>
        <time>2018-02-06T11:26:40Z</time>
      </trkpt>
      <trkpt lat="45.63074" lon="6.66553">
        <ele>2081.87</ele>
        <time>2018-02-06T11:26:53Z</time>
      </trkpt>
      <trkpt lat="45.63067" lon="6.66543">
        <ele>2082.35</ele>
        <time>2018-02-06T11:27:08Z</time>
      </trkpt>
      <trkpt lat="45.63067" lon="6.66542">
        <ele>2082.35</ele>
        <time>2018-02-06T11:27:09Z</time>
      </trkpt>
      <trkpt lat="45.63062" lon="6.66533">
        <ele>2085.72</ele>
        <time>2018-02-06T11:27:22Z</time>
      </trkpt>
      <trkpt lat="45.63057" lon="6.66525">
        <ele>2087.64</ele>
        <time>2018-02-06T11:27:32Z</time>
      </trkpt>
      <trkpt lat="45.6305" lon="6.6651">
        <ele>2089.56</ele>
        <time>2018-02-06T11:27:50Z</time>
      </trkpt>
      <trkpt lat="45.63047" lon="6.66504">
        <ele>2091</ele>
        <time>2018-02-06T11:27:58Z</time>
      </trkpt>
      <trkpt lat="45.63037" lon="6.66495">
        <ele>2092.93</ele>
        <time>2018-02-06T11:28:12Z</time>
      </trkpt>
      <trkpt lat="45.6303" lon="6.66495">
        <ele>2094.85</ele>
        <time>2018-02-06T11:28:25Z</time>
      </trkpt>
      <trkpt lat="45.63027" lon="6.66496">
        <ele>2094.85</ele>
        <time>2018-02-06T11:28:29Z</time>
      </trkpt>
      <trkpt lat="45.63018" lon="6.66496">
        <ele>2096.29</ele>
        <time>2018-02-06T11:28:44Z</time>
      </trkpt>
      <trkpt lat="45.63008" lon="6.66488">
        <ele>2099.18</ele>
        <time>2018-02-06T11:29:02Z</time>
      </trkpt>
      <trkpt lat="45.62999" lon="6.66476">
        <ele>2100.14</ele>
        <time>2018-02-06T11:29:19Z</time>
      </trkpt>
      <trkpt lat="45.62991" lon="6.66463">
        <ele>2102.06</ele>
        <time>2018-02-06T11:29:36Z</time>
      </trkpt>
      <trkpt lat="45.62986" lon="6.66454">
        <ele>2103.98</ele>
        <time>2018-02-06T11:29:50Z</time>
      </trkpt>
      <trkpt lat="45.62982" lon="6.66447">
        <ele>2106.39</ele>
        <time>2018-02-06T11:29:59Z</time>
      </trkpt>
      <trkpt lat="45.62976" lon="6.66435">
        <ele>2106.39</ele>
        <time>2018-02-06T11:30:15Z</time>
      </trkpt>
      <trkpt lat="45.62971" lon="6.66424">
        <ele>2108.31</ele>
        <time>2018-02-06T11:30:29Z</time>
      </trkpt>
      <trkpt lat="45.62966" lon="6.66413">
        <ele>2108.31</ele>
        <time>2018-02-06T11:30:42Z</time>
      </trkpt>
      <trkpt lat="45.62961" lon="6.66404">
        <ele>2108.79</ele>
        <time>2018-02-06T11:30:58Z</time>
      </trkpt>
      <trkpt lat="45.62958" lon="6.66397">
        <ele>2110.71</ele>
        <time>2018-02-06T11:31:12Z</time>
      </trkpt>
      <trkpt lat="45.62955" lon="6.6639">
        <ele>2112.63</ele>
        <time>2018-02-06T11:31:25Z</time>
      </trkpt>
      <trkpt lat="45.62953" lon="6.66383">
        <ele>2116</ele>
        <time>2018-02-06T11:31:38Z</time>
      </trkpt>
      <trkpt lat="45.6295" lon="6.66376">
        <ele>2117.92</ele>
        <time>2018-02-06T11:31:51Z</time>
      </trkpt>
      <trkpt lat="45.62943" lon="6.66374">
        <ele>2120.81</ele>
        <time>2018-02-06T11:32:05Z</time>
      </trkpt>
      <trkpt lat="45.62936" lon="6.66374">
        <ele>2122.73</ele>
        <time>2018-02-06T11:32:18Z</time>
      </trkpt>
      <trkpt lat="45.62931" lon="6.6637">
        <ele>2124.65</ele>
        <time>2018-02-06T11:32:32Z</time>
      </trkpt>
      <trkpt lat="45.62925" lon="6.6637">
        <ele>2127.05</ele>
        <time>2018-02-06T11:32:45Z</time>
      </trkpt>
      <trkpt lat="45.6292" lon="6.66368">
        <ele>2129.46</ele>
        <time>2018-02-06T11:32:57Z</time>
      </trkpt>
      <trkpt lat="45.62914" lon="6.66362">
        <ele>2131.38</ele>
        <time>2018-02-06T11:33:12Z</time>
      </trkpt>
      <trkpt lat="45.62908" lon="6.66358">
        <ele>2132.82</ele>
        <time>2018-02-06T11:33:25Z</time>
      </trkpt>
      <trkpt lat="45.62902" lon="6.66352">
        <ele>2135.23</ele>
        <time>2018-02-06T11:33:38Z</time>
      </trkpt>
      <trkpt lat="45.62896" lon="6.6635">
        <ele>2136.67</ele>
        <time>2018-02-06T11:33:50Z</time>
      </trkpt>
      <trkpt lat="45.62891" lon="6.66349">
        <ele>2139.55</ele>
        <time>2018-02-06T11:34:04Z</time>
      </trkpt>
      <trkpt lat="45.62886" lon="6.66344">
        <ele>2141.47</ele>
        <time>2018-02-06T11:34:16Z</time>
      </trkpt>
      <trkpt lat="45.62882" lon="6.66336">
        <ele>2143.88</ele>
        <time>2018-02-06T11:34:31Z</time>
      </trkpt>
      <trkpt lat="45.62879" lon="6.6633">
        <ele>2145.8</ele>
        <time>2018-02-06T11:34:45Z</time>
      </trkpt>
      <trkpt lat="45.62876" lon="6.6633">
        <ele>2146.76</ele>
        <time>2018-02-06T11:34:50Z</time>
      </trkpt>
      <trkpt lat="45.62868" lon="6.66329">
        <ele>2149.16</ele>
        <time>2018-02-06T11:35:04Z</time>
      </trkpt>
      <trkpt lat="45.62863" lon="6.66327">
        <ele>2150.13</ele>
        <time>2018-02-06T11:35:21Z</time>
      </trkpt>
      <trkpt lat="45.62862" lon="6.66327">
        <ele>2150.61</ele>
        <time>2018-02-06T11:35:42Z</time>
      </trkpt>
      <trkpt lat="45.62863" lon="6.66327">
        <ele>2150.61</ele>
        <time>2018-02-06T11:35:44Z</time>
      </trkpt>
      <trkpt lat="45.62864" lon="6.66327">
        <ele>2149.65</ele>
        <time>2018-02-06T11:35:54Z</time>
      </trkpt>
      <trkpt lat="45.62864" lon="6.66324">
        <ele>2149.65</ele>
        <time>2018-02-06T11:36:20Z</time>
      </trkpt>
      <trkpt lat="45.62864" lon="6.66324">
        <ele>2150.61</ele>
        <time>2018-02-06T11:36:49Z</time>
      </trkpt>
      <trkpt lat="45.62863" lon="6.66328">
        <ele>2151.09</ele>
        <time>2018-02-06T11:37:05Z</time>
      </trkpt>
      <trkpt lat="45.6286" lon="6.66325">
        <ele>2151.57</ele>
        <time>2018-02-06T11:37:30Z</time>
      </trkpt>
      <trkpt lat="45.62853" lon="6.66318">
        <ele>2154.93</ele>
        <time>2018-02-06T11:37:47Z</time>
      </trkpt>
      <trkpt lat="45.62844" lon="6.66307">
        <ele>2157.82</ele>
        <time>2018-02-06T11:38:05Z</time>
      </trkpt>
      <trkpt lat="45.62838" lon="6.66302">
        <ele>2159.74</ele>
        <time>2018-02-06T11:38:18Z</time>
      </trkpt>
      <trkpt lat="45.62836" lon="6.66298">
        <ele>2160.22</ele>
        <time>2018-02-06T11:38:29Z</time>
      </trkpt>
      <trkpt lat="45.62838" lon="6.66297">
        <ele>2160.7</ele>
        <time>2018-02-06T11:38:55Z</time>
      </trkpt>
      <trkpt lat="45.62835" lon="6.66297">
        <ele>2161.18</ele>
        <time>2018-02-06T11:39:22Z</time>
      </trkpt>
      <trkpt lat="45.62837" lon="6.663">
        <ele>2160.7</ele>
        <time>2018-02-06T11:39:46Z</time>
      </trkpt>
      <trkpt lat="45.62838" lon="6.66296">
        <ele>2160.7</ele>
        <time>2018-02-06T11:40:07Z</time>
      </trkpt>
      <trkpt lat="45.62837" lon="6.66295">
        <ele>2161.66</ele>
        <time>2018-02-06T11:40:22Z</time>
      </trkpt>
      <trkpt lat="45.62838" lon="6.66283">
        <ele>2161.18</ele>
        <time>2018-02-06T11:40:34Z</time>
      </trkpt>
      <trkpt lat="45.62841" lon="6.66274">
        <ele>2163.1</ele>
        <time>2018-02-06T11:40:46Z</time>
      </trkpt>
      <trkpt lat="45.62848" lon="6.66271">
        <ele>2164.06</ele>
        <time>2018-02-06T11:40:57Z</time>
      </trkpt>
      <trkpt lat="45.62858" lon="6.66271">
        <ele>2166.47</ele>
        <time>2018-02-06T11:41:13Z</time>
      </trkpt>
      <trkpt lat="45.62863" lon="6.66269">
        <ele>2167.91</ele>
        <time>2018-02-06T11:41:26Z</time>
      </trkpt>
      <trkpt lat="45.62864" lon="6.66266">
        <ele>2169.35</ele>
        <time>2018-02-06T11:41:40Z</time>
      </trkpt>
      <trkpt lat="45.62859" lon="6.66261">
        <ele>2170.79</ele>
        <time>2018-02-06T11:41:53Z</time>
      </trkpt>
      <trkpt lat="45.6286" lon="6.66258">
        <ele>2172.72</ele>
        <time>2018-02-06T11:42:07Z</time>
      </trkpt>
      <trkpt lat="45.62863" lon="6.66255">
        <ele>2173.2</ele>
        <time>2018-02-06T11:42:21Z</time>
      </trkpt>
      <trkpt lat="45.62857" lon="6.66254">
        <ele>2174.64</ele>
        <time>2018-02-06T11:42:32Z</time>
      </trkpt>
      <trkpt lat="45.62852" lon="6.66251">
        <ele>2176.56</ele>
        <time>2018-02-06T11:42:44Z</time>
      </trkpt>
      <trkpt lat="45.62849" lon="6.66247">
        <ele>2178</ele>
        <time>2018-02-06T11:42:58Z</time>
      </trkpt>
      <trkpt lat="45.62843" lon="6.66242">
        <ele>2179.93</ele>
        <time>2018-02-06T11:43:10Z</time>
      </trkpt>
      <trkpt lat="45.62838" lon="6.66237">
        <ele>2181.37</ele>
        <time>2018-02-06T11:43:24Z</time>
      </trkpt>
      <trkpt lat="45.6284" lon="6.6623">
        <ele>2183.77</ele>
        <time>2018-02-06T11:43:38Z</time>
      </trkpt>
      <trkpt lat="45.6284" lon="6.66223">
        <ele>2184.25</ele>
        <time>2018-02-06T11:43:48Z</time>
      </trkpt>
      <trkpt lat="45.62834" lon="6.66218">
        <ele>2186.66</ele>
        <time>2018-02-06T11:44:03Z</time>
      </trkpt>
      <trkpt lat="45.6283" lon="6.66212">
        <ele>2187.62</ele>
        <time>2018-02-06T11:44:16Z</time>
      </trkpt>
      <trkpt lat="45.62828" lon="6.66203">
        <ele>2189.06</ele>
        <time>2018-02-06T11:44:29Z</time>
      </trkpt>
      <trkpt lat="45.62834" lon="6.66199">
        <ele>2191.46</ele>
        <time>2018-02-06T11:44:42Z</time>
      </trkpt>
      <trkpt lat="45.6284" lon="6.66195">
        <ele>2192.9</ele>
        <time>2018-02-06T11:44:54Z</time>
      </trkpt>
      <trkpt lat="45.62842" lon="6.66192">
        <ele>2193.87</ele>
        <time>2018-02-06T11:45:08Z</time>
      </trkpt>
      <trkpt lat="45.62837" lon="6.66189">
        <ele>2195.31</ele>
        <time>2018-02-06T11:45:20Z</time>
      </trkpt>
      <trkpt lat="45.62833" lon="6.66185">
        <ele>2197.71</ele>
        <time>2018-02-06T11:45:33Z</time>
      </trkpt>
      <trkpt lat="45.62837" lon="6.66182">
        <ele>2198.67</ele>
        <time>2018-02-06T11:45:43Z</time>
      </trkpt>
      <trkpt lat="45.62842" lon="6.66178">
        <ele>2199.63</ele>
        <time>2018-02-06T11:45:56Z</time>
      </trkpt>
      <trkpt lat="45.62846" lon="6.66178">
        <ele>2200.59</ele>
        <time>2018-02-06T11:46:07Z</time>
      </trkpt>
      <trkpt lat="45.62846" lon="6.66178">
        <ele>2201.56</ele>
        <time>2018-02-06T11:46:21Z</time>
      </trkpt>
      <trkpt lat="45.62838" lon="6.66172">
        <ele>2203.96</ele>
        <time>2018-02-06T11:46:37Z</time>
      </trkpt>
      <trkpt lat="45.62833" lon="6.66168">
        <ele>2205.88</ele>
        <time>2018-02-06T11:46:50Z</time>
      </trkpt>
      <trkpt lat="45.62836" lon="6.66165">
        <ele>2206.84</ele>
        <time>2018-02-06T11:47:01Z</time>
      </trkpt>
      <trkpt lat="45.62842" lon="6.66163">
        <ele>2207.81</ele>
        <time>2018-02-06T11:47:14Z</time>
      </trkpt>
      <trkpt lat="45.62845" lon="6.66163">
        <ele>2208.77</ele>
        <time>2018-02-06T11:47:26Z</time>
      </trkpt>
      <trkpt lat="45.62847" lon="6.66161">
        <ele>2209.25</ele>
        <time>2018-02-06T11:47:52Z</time>
      </trkpt>
      <trkpt lat="45.62852" lon="6.66162">
        <ele>2210.21</ele>
        <time>2018-02-06T11:48:06Z</time>
      </trkpt>
      <trkpt lat="45.6285" lon="6.6616">
        <ele>2211.17</ele>
        <time>2018-02-06T11:48:17Z</time>
      </trkpt>
      <trkpt lat="45.62845" lon="6.66154">
        <ele>2212.61</ele>
        <time>2018-02-06T11:48:30Z</time>
      </trkpt>
      <trkpt lat="45.62842" lon="6.66152">
        <ele>2213.57</ele>
        <time>2018-02-06T11:48:44Z</time>
      </trkpt>
      <trkpt lat="45.62846" lon="6.66151">
        <ele>2215.01</ele>
        <time>2018-02-06T11:48:57Z</time>
      </trkpt>
      <trkpt lat="45.62852" lon="6.6615">
        <ele>2216.94</ele>
        <time>2018-02-06T11:49:10Z</time>
      </trkpt>
      <trkpt lat="45.62857" lon="6.66148">
        <ele>2217.9</ele>
        <time>2018-02-06T11:49:22Z</time>
      </trkpt>
      <trkpt lat="45.6286" lon="6.66147">
        <ele>2219.34</ele>
        <time>2018-02-06T11:49:37Z</time>
      </trkpt>
      <trkpt lat="45.62858" lon="6.66147">
        <ele>2219.82</ele>
        <time>2018-02-06T11:49:49Z</time>
      </trkpt>
      <trkpt lat="45.62852" lon="6.66142">
        <ele>2221.26</ele>
        <time>2018-02-06T11:50:02Z</time>
      </trkpt>
      <trkpt lat="45.62848" lon="6.66136">
        <ele>2223.67</ele>
        <time>2018-02-06T11:50:17Z</time>
      </trkpt>
      <trkpt lat="45.62845" lon="6.66134">
        <ele>2224.63</ele>
        <time>2018-02-06T11:50:29Z</time>
      </trkpt>
      <trkpt lat="45.62852" lon="6.66134">
        <ele>2226.07</ele>
        <time>2018-02-06T11:50:42Z</time>
      </trkpt>
      <trkpt lat="45.62858" lon="6.66133">
        <ele>2227.51</ele>
        <time>2018-02-06T11:50:55Z</time>
      </trkpt>
      <trkpt lat="45.6286" lon="6.6613">
        <ele>2228.95</ele>
        <time>2018-02-06T11:51:09Z</time>
      </trkpt>
      <trkpt lat="45.62855" lon="6.66126">
        <ele>2229.92</ele>
        <time>2018-02-06T11:51:20Z</time>
      </trkpt>
      <trkpt lat="45.62849" lon="6.66121">
        <ele>2231.84</ele>
        <time>2018-02-06T11:51:33Z</time>
      </trkpt>
      <trkpt lat="45.62849" lon="6.66119">
        <ele>2232.8</ele>
        <time>2018-02-06T11:51:45Z</time>
      </trkpt>
      <trkpt lat="45.62854" lon="6.66118">
        <ele>2234.24</ele>
        <time>2018-02-06T11:51:59Z</time>
      </trkpt>
      <trkpt lat="45.62861" lon="6.66118">
        <ele>2235.68</ele>
        <time>2018-02-06T11:52:12Z</time>
      </trkpt>
      <trkpt lat="45.62865" lon="6.66118">
        <ele>2237.13</ele>
        <time>2018-02-06T11:52:24Z</time>
      </trkpt>
      <trkpt lat="45.62868" lon="6.66119">
        <ele>2238.57</ele>
        <time>2018-02-06T11:52:38Z</time>
      </trkpt>
      <trkpt lat="45.62869" lon="6.66117">
        <ele>2239.05</ele>
        <time>2018-02-06T11:52:52Z</time>
      </trkpt>
      <trkpt lat="45.62867" lon="6.66112">
        <ele>2240.49</ele>
        <time>2018-02-06T11:53:03Z</time>
      </trkpt>
      <trkpt lat="45.62863" lon="6.66106">
        <ele>2241.93</ele>
        <time>2018-02-06T11:53:16Z</time>
      </trkpt>
      <trkpt lat="45.62858" lon="6.66103">
        <ele>2243.37</ele>
        <time>2018-02-06T11:53:28Z</time>
      </trkpt>
      <trkpt lat="45.62854" lon="6.66104">
        <ele>2243.85</ele>
        <time>2018-02-06T11:53:44Z</time>
      </trkpt>
      <trkpt lat="45.62855" lon="6.661">
        <ele>2244.82</ele>
        <time>2018-02-06T11:53:57Z</time>
      </trkpt>
      <trkpt lat="45.62862" lon="6.66097">
        <ele>2246.74</ele>
        <time>2018-02-06T11:54:08Z</time>
      </trkpt>
      <trkpt lat="45.62868" lon="6.66096">
        <ele>2247.7</ele>
        <time>2018-02-06T11:54:21Z</time>
      </trkpt>
      <trkpt lat="45.62868" lon="6.66094">
        <ele>2249.14</ele>
        <time>2018-02-06T11:54:35Z</time>
      </trkpt>
      <trkpt lat="45.62864" lon="6.66091">
        <ele>2250.1</ele>
        <time>2018-02-06T11:54:47Z</time>
      </trkpt>
      <trkpt lat="45.6286" lon="6.66088">
        <ele>2251.06</ele>
        <time>2018-02-06T11:54:59Z</time>
      </trkpt>
      <trkpt lat="45.6286" lon="6.66085">
        <ele>2251.54</ele>
        <time>2018-02-06T11:55:13Z</time>
      </trkpt>
      <trkpt lat="45.62865" lon="6.66084">
        <ele>2253.47</ele>
        <time>2018-02-06T11:55:24Z</time>
      </trkpt>
      <trkpt lat="45.62869" lon="6.66084">
        <ele>2255.39</ele>
        <time>2018-02-06T11:55:38Z</time>
      </trkpt>
      <trkpt lat="45.62875" lon="6.66085">
        <ele>2256.83</ele>
        <time>2018-02-06T11:55:51Z</time>
      </trkpt>
      <trkpt lat="45.62875" lon="6.66082">
        <ele>2257.79</ele>
        <time>2018-02-06T11:56:07Z</time>
      </trkpt>
      <trkpt lat="45.6287" lon="6.66078">
        <ele>2258.75</ele>
        <time>2018-02-06T11:56:19Z</time>
      </trkpt>
      <trkpt lat="45.62866" lon="6.66074">
        <ele>2259.72</ele>
        <time>2018-02-06T11:56:31Z</time>
      </trkpt>
      <trkpt lat="45.62865" lon="6.66069">
        <ele>2261.16</ele>
        <time>2018-02-06T11:56:43Z</time>
      </trkpt>
      <trkpt lat="45.62871" lon="6.6607">
        <ele>2262.12</ele>
        <time>2018-02-06T11:56:57Z</time>
      </trkpt>
      <trkpt lat="45.62876" lon="6.66068">
        <ele>2264.04</ele>
        <time>2018-02-06T11:57:09Z</time>
      </trkpt>
      <trkpt lat="45.62881" lon="6.66069">
        <ele>2265</ele>
        <time>2018-02-06T11:57:21Z</time>
      </trkpt>
      <trkpt lat="45.62878" lon="6.66067">
        <ele>2265.48</ele>
        <time>2018-02-06T11:57:34Z</time>
      </trkpt>
      <trkpt lat="45.62872" lon="6.66061">
        <ele>2267.41</ele>
        <time>2018-02-06T11:57:48Z</time>
      </trkpt>
      <trkpt lat="45.62868" lon="6.66057">
        <ele>2269.33</ele>
        <time>2018-02-06T11:58:00Z</time>
      </trkpt>
      <trkpt lat="45.62865" lon="6.66056">
        <ele>2271.25</ele>
        <time>2018-02-06T11:58:12Z</time>
      </trkpt>
      <trkpt lat="45.62863" lon="6.66051">
        <ele>2270.29</ele>
        <time>2018-02-06T11:58:28Z</time>
      </trkpt>
      <trkpt lat="45.62871" lon="6.66048">
        <ele>2273.17</ele>
        <time>2018-02-06T11:58:43Z</time>
      </trkpt>
      <trkpt lat="45.62877" lon="6.66045">
        <ele>2275.1</ele>
        <time>2018-02-06T11:58:56Z</time>
      </trkpt>
      <trkpt lat="45.62883" lon="6.66044">
        <ele>2277.02</ele>
        <time>2018-02-06T11:59:09Z</time>
      </trkpt>
      <trkpt lat="45.62881" lon="6.66043">
        <ele>2277.5</ele>
        <time>2018-02-06T11:59:22Z</time>
      </trkpt>
      <trkpt lat="45.62879" lon="6.66038">
        <ele>2278.94</ele>
        <time>2018-02-06T11:59:35Z</time>
      </trkpt>
      <trkpt lat="45.62875" lon="6.6603">
        <ele>2281.35</ele>
        <time>2018-02-06T11:59:49Z</time>
      </trkpt>
      <trkpt lat="45.62872" lon="6.66026">
        <ele>2282.79</ele>
        <time>2018-02-06T12:00:03Z</time>
      </trkpt>
      <trkpt lat="45.62876" lon="6.66024">
        <ele>2283.75</ele>
        <time>2018-02-06T12:00:16Z</time>
      </trkpt>
      <trkpt lat="45.62883" lon="6.66022">
        <ele>2286.15</ele>
        <time>2018-02-06T12:00:30Z</time>
      </trkpt>
      <trkpt lat="45.62887" lon="6.66017">
        <ele>2288.08</ele>
        <time>2018-02-06T12:00:43Z</time>
      </trkpt>
      <trkpt lat="45.62893" lon="6.66012">
        <ele>2289.52</ele>
        <time>2018-02-06T12:00:57Z</time>
      </trkpt>
      <trkpt lat="45.62899" lon="6.66007">
        <ele>2290.96</ele>
        <time>2018-02-06T12:01:10Z</time>
      </trkpt>
      <trkpt lat="45.62904" lon="6.66003">
        <ele>2292.4</ele>
        <time>2018-02-06T12:01:22Z</time>
      </trkpt>
      <trkpt lat="45.6291" lon="6.66002">
        <ele>2294.32</ele>
        <time>2018-02-06T12:01:35Z</time>
      </trkpt>
      <trkpt lat="45.62914" lon="6.65996">
        <ele>2295.77</ele>
        <time>2018-02-06T12:01:48Z</time>
      </trkpt>
      <trkpt lat="45.62915" lon="6.65988">
        <ele>2297.69</ele>
        <time>2018-02-06T12:02:01Z</time>
      </trkpt>
      <trkpt lat="45.62911" lon="6.65984">
        <ele>2298.65</ele>
        <time>2018-02-06T12:02:13Z</time>
      </trkpt>
      <trkpt lat="45.62906" lon="6.65978">
        <ele>2300.57</ele>
        <time>2018-02-06T12:02:26Z</time>
      </trkpt>
      <trkpt lat="45.62901" lon="6.65974">
        <ele>2302.01</ele>
        <time>2018-02-06T12:02:38Z</time>
      </trkpt>
      <trkpt lat="45.62895" lon="6.65972">
        <ele>2303.94</ele>
        <time>2018-02-06T12:02:51Z</time>
      </trkpt>
      <trkpt lat="45.62891" lon="6.65967">
        <ele>2305.38</ele>
        <time>2018-02-06T12:03:04Z</time>
      </trkpt>
      <trkpt lat="45.62891" lon="6.65959">
        <ele>2307.3</ele>
        <time>2018-02-06T12:03:17Z</time>
      </trkpt>
      <trkpt lat="45.62896" lon="6.65956">
        <ele>2309.22</ele>
        <time>2018-02-06T12:03:30Z</time>
      </trkpt>
      <trkpt lat="45.62901" lon="6.65949">
        <ele>2310.67</ele>
        <time>2018-02-06T12:03:42Z</time>
      </trkpt>
      <trkpt lat="45.62904" lon="6.65936">
        <ele>2313.07</ele>
        <time>2018-02-06T12:03:55Z</time>
      </trkpt>
      <trkpt lat="45.62905" lon="6.65939">
        <ele>2313.55</ele>
        <time>2018-02-06T12:04:08Z</time>
      </trkpt>
      <trkpt lat="45.62905" lon="6.65941">
        <ele>2312.59</ele>
        <time>2018-02-06T12:04:17Z</time>
      </trkpt>
      <trkpt lat="45.62902" lon="6.65935">
        <ele>2312.11</ele>
        <time>2018-02-06T12:04:48Z</time>
      </trkpt>
      <trkpt lat="45.62905" lon="6.65941">
        <ele>2312.59</ele>
        <time>2018-02-06T12:05:25Z</time>
      </trkpt>
      <trkpt lat="45.62906" lon="6.65939">
        <ele>2312.11</ele>
        <time>2018-02-06T12:06:14Z</time>
      </trkpt>
      <trkpt lat="45.62911" lon="6.65941">
        <ele>2311.63</ele>
        <time>2018-02-06T12:06:53Z</time>
      </trkpt>
      <trkpt lat="45.62905" lon="6.65937">
        <ele>2312.59</ele>
        <time>2018-02-06T12:07:07Z</time>
      </trkpt>
      <trkpt lat="45.62906" lon="6.65937">
        <ele>2313.07</ele>
        <time>2018-02-06T12:07:32Z</time>
      </trkpt>
      <trkpt lat="45.62906" lon="6.65931">
        <ele>2313.07</ele>
        <time>2018-02-06T12:07:48Z</time>
      </trkpt>
      <trkpt lat="45.62902" lon="6.65922">
        <ele>2314.51</ele>
        <time>2018-02-06T12:08:03Z</time>
      </trkpt>
      <trkpt lat="45.62903" lon="6.65907">
        <ele>2317.4</ele>
        <time>2018-02-06T12:08:22Z</time>
      </trkpt>
      <trkpt lat="45.62902" lon="6.65899">
        <ele>2319.32</ele>
        <time>2018-02-06T12:08:38Z</time>
      </trkpt>
      <trkpt lat="45.62898" lon="6.65891">
        <ele>2321.72</ele>
        <time>2018-02-06T12:08:53Z</time>
      </trkpt>
      <trkpt lat="45.62895" lon="6.65883">
        <ele>2323.64</ele>
        <time>2018-02-06T12:09:08Z</time>
      </trkpt>
      <trkpt lat="45.62895" lon="6.65876">
        <ele>2325.57</ele>
        <time>2018-02-06T12:09:21Z</time>
      </trkpt>
      <trkpt lat="45.62899" lon="6.6587">
        <ele>2326.53</ele>
        <time>2018-02-06T12:09:34Z</time>
      </trkpt>
      <trkpt lat="45.62907" lon="6.65864">
        <ele>2327.97</ele>
        <time>2018-02-06T12:09:50Z</time>
      </trkpt>
      <trkpt lat="45.62912" lon="6.65856">
        <ele>2329.89</ele>
        <time>2018-02-06T12:10:06Z</time>
      </trkpt>
      <trkpt lat="45.62919" lon="6.65849">
        <ele>2330.85</ele>
        <time>2018-02-06T12:10:19Z</time>
      </trkpt>
      <trkpt lat="45.62926" lon="6.65845">
        <ele>2332.3</ele>
        <time>2018-02-06T12:10:35Z</time>
      </trkpt>
      <trkpt lat="45.6293" lon="6.65839">
        <ele>2334.22</ele>
        <time>2018-02-06T12:10:49Z</time>
      </trkpt>
      <trkpt lat="45.6293" lon="6.6583">
        <ele>2335.66</ele>
        <time>2018-02-06T12:11:03Z</time>
      </trkpt>
      <trkpt lat="45.62931" lon="6.65822">
        <ele>2337.58</ele>
        <time>2018-02-06T12:11:17Z</time>
      </trkpt>
      <trkpt lat="45.6293" lon="6.65813">
        <ele>2339.99</ele>
        <time>2018-02-06T12:11:32Z</time>
      </trkpt>
      <trkpt lat="45.6293" lon="6.65804">
        <ele>2341.43</ele>
        <time>2018-02-06T12:11:46Z</time>
      </trkpt>
      <trkpt lat="45.62928" lon="6.65792">
        <ele>2342.87</ele>
        <time>2018-02-06T12:12:01Z</time>
      </trkpt>
      <trkpt lat="45.62925" lon="6.65779">
        <ele>2343.83</ele>
        <time>2018-02-06T12:12:17Z</time>
      </trkpt>
      <trkpt lat="45.62924" lon="6.65778">
        <ele>2343.83</ele>
        <time>2018-02-06T12:12:31Z</time>
      </trkpt>
      <trkpt lat="45.62923" lon="6.65774">
        <ele>2343.83</ele>
        <time>2018-02-06T12:13:05Z</time>
      </trkpt>
      <trkpt lat="45.62928" lon="6.65779">
        <ele>2344.31</ele>
        <time>2018-02-06T12:13:19Z</time>
      </trkpt>
      <trkpt lat="45.62925" lon="6.65777">
        <ele>2343.35</ele>
        <time>2018-02-06T12:13:39Z</time>
      </trkpt>
      <trkpt lat="45.62924" lon="6.6577">
        <ele>2343.83</ele>
        <time>2018-02-06T12:13:50Z</time>
      </trkpt>
      <trkpt lat="45.6292" lon="6.65763">
        <ele>2345.75</ele>
        <time>2018-02-06T12:14:07Z</time>
      </trkpt>
      <trkpt lat="45.62919" lon="6.65754">
        <ele>2348.16</ele>
        <time>2018-02-06T12:14:21Z</time>
      </trkpt>
      <trkpt lat="45.62912" lon="6.65752">
        <ele>2348.64</ele>
        <time>2018-02-06T12:14:34Z</time>
      </trkpt>
      <trkpt lat="45.62909" lon="6.65748">
        <ele>2350.56</ele>
        <time>2018-02-06T12:14:47Z</time>
      </trkpt>
      <trkpt lat="45.62912" lon="6.65739">
        <ele>2352.48</ele>
        <time>2018-02-06T12:15:01Z</time>
      </trkpt>
      <trkpt lat="45.62908" lon="6.65737">
        <ele>2353.44</ele>
        <time>2018-02-06T12:15:13Z</time>
      </trkpt>
      <trkpt lat="45.62901" lon="6.65735">
        <ele>2355.37</ele>
        <time>2018-02-06T12:15:28Z</time>
      </trkpt>
      <trkpt lat="45.62895" lon="6.65733">
        <ele>2357.29</ele>
        <time>2018-02-06T12:15:43Z</time>
      </trkpt>
      <trkpt lat="45.62895" lon="6.65724">
        <ele>2358.73</ele>
        <time>2018-02-06T12:15:54Z</time>
      </trkpt>
      <trkpt lat="45.62895" lon="6.6572">
        <ele>2360.17</ele>
        <time>2018-02-06T12:16:07Z</time>
      </trkpt>
      <trkpt lat="45.62886" lon="6.65722">
        <ele>2362.1</ele>
        <time>2018-02-06T12:16:25Z</time>
      </trkpt>
      <trkpt lat="45.6288" lon="6.65722">
        <ele>2363.54</ele>
        <time>2018-02-06T12:16:38Z</time>
      </trkpt>
      <trkpt lat="45.6288" lon="6.65713">
        <ele>2365.46</ele>
        <time>2018-02-06T12:16:51Z</time>
      </trkpt>
      <trkpt lat="45.62881" lon="6.65703">
        <ele>2367.38</ele>
        <time>2018-02-06T12:17:05Z</time>
      </trkpt>
      <trkpt lat="45.62875" lon="6.65704">
        <ele>2368.35</ele>
        <time>2018-02-06T12:17:17Z</time>
      </trkpt>
      <trkpt lat="45.62869" lon="6.65705">
        <ele>2370.27</ele>
        <time>2018-02-06T12:17:30Z</time>
      </trkpt>
      <trkpt lat="45.62865" lon="6.65699">
        <ele>2372.67</ele>
        <time>2018-02-06T12:17:45Z</time>
      </trkpt>
      <trkpt lat="45.62864" lon="6.65693">
        <ele>2373.63</ele>
        <time>2018-02-06T12:17:57Z</time>
      </trkpt>
      <trkpt lat="45.62859" lon="6.65694">
        <ele>2375.55</ele>
        <time>2018-02-06T12:18:09Z</time>
      </trkpt>
      <trkpt lat="45.62857" lon="6.65694">
        <ele>2375.55</ele>
        <time>2018-02-06T12:18:12Z</time>
      </trkpt>
      <trkpt lat="45.62851" lon="6.65696">
        <ele>2377</ele>
        <time>2018-02-06T12:18:26Z</time>
      </trkpt>
      <trkpt lat="45.62845" lon="6.65699">
        <ele>2378.92</ele>
        <time>2018-02-06T12:18:38Z</time>
      </trkpt>
      <trkpt lat="45.62844" lon="6.6569">
        <ele>2380.36</ele>
        <time>2018-02-06T12:18:49Z</time>
      </trkpt>
      <trkpt lat="45.62844" lon="6.65683">
        <ele>2382.28</ele>
        <time>2018-02-06T12:19:02Z</time>
      </trkpt>
      <trkpt lat="45.62844" lon="6.65675">
        <ele>2383.73</ele>
        <time>2018-02-06T12:19:15Z</time>
      </trkpt>
      <trkpt lat="45.6284" lon="6.65678">
        <ele>2384.69</ele>
        <time>2018-02-06T12:19:28Z</time>
      </trkpt>
      <trkpt lat="45.62835" lon="6.65683">
        <ele>2386.61</ele>
        <time>2018-02-06T12:19:41Z</time>
      </trkpt>
      <trkpt lat="45.62831" lon="6.65687">
        <ele>2388.05</ele>
        <time>2018-02-06T12:19:53Z</time>
      </trkpt>
      <trkpt lat="45.62827" lon="6.65692">
        <ele>2389.97</ele>
        <time>2018-02-06T12:20:06Z</time>
      </trkpt>
      <trkpt lat="45.62828" lon="6.65682">
        <ele>2389.49</ele>
        <time>2018-02-06T12:20:17Z</time>
      </trkpt>
      <trkpt lat="45.62826" lon="6.65673">
        <ele>2392.38</ele>
        <time>2018-02-06T12:20:32Z</time>
      </trkpt>
      <trkpt lat="45.62824" lon="6.65672">
        <ele>2393.34</ele>
        <time>2018-02-06T12:20:48Z</time>
      </trkpt>
      <trkpt lat="45.62818" lon="6.65678">
        <ele>2396.22</ele>
        <time>2018-02-06T12:21:05Z</time>
      </trkpt>
      <trkpt lat="45.62814" lon="6.65683">
        <ele>2397.67</ele>
        <time>2018-02-06T12:21:19Z</time>
      </trkpt>
      <trkpt lat="45.6281" lon="6.65676">
        <ele>2399.11</ele>
        <time>2018-02-06T12:21:34Z</time>
      </trkpt>
      <trkpt lat="45.62809" lon="6.65668">
        <ele>2401.03</ele>
        <time>2018-02-06T12:21:48Z</time>
      </trkpt>
      <trkpt lat="45.62809" lon="6.65665">
        <ele>2401.51</ele>
        <time>2018-02-06T12:22:02Z</time>
      </trkpt>
      <trkpt lat="45.62806" lon="6.65669">
        <ele>2402.47</ele>
        <time>2018-02-06T12:22:14Z</time>
      </trkpt>
      <trkpt lat="45.62801" lon="6.65675">
        <ele>2403.91</ele>
        <time>2018-02-06T12:22:26Z</time>
      </trkpt>
      <trkpt lat="45.62799" lon="6.65673">
        <ele>2404.88</ele>
        <time>2018-02-06T12:22:41Z</time>
      </trkpt>
      <trkpt lat="45.62798" lon="6.65664">
        <ele>2406.32</ele>
        <time>2018-02-06T12:22:54Z</time>
      </trkpt>
      <trkpt lat="45.62798" lon="6.65662">
        <ele>2408.24</ele>
        <time>2018-02-06T12:23:06Z</time>
      </trkpt>
      <trkpt lat="45.62793" lon="6.65668">
        <ele>2408.72</ele>
        <time>2018-02-06T12:23:16Z</time>
      </trkpt>
      <trkpt lat="45.62792" lon="6.65675">
        <ele>2410.64</ele>
        <time>2018-02-06T12:23:29Z</time>
      </trkpt>
      <trkpt lat="45.6279" lon="6.65677">
        <ele>2411.12</ele>
        <time>2018-02-06T12:23:38Z</time>
      </trkpt>
      <trkpt lat="45.62787" lon="6.65668">
        <ele>2412.57</ele>
        <time>2018-02-06T12:23:53Z</time>
      </trkpt>
      <trkpt lat="45.62786" lon="6.6566">
        <ele>2414.01</ele>
        <time>2018-02-06T12:24:05Z</time>
      </trkpt>
      <trkpt lat="45.62783" lon="6.65663">
        <ele>2414.97</ele>
        <time>2018-02-06T12:24:17Z</time>
      </trkpt>
      <trkpt lat="45.62781" lon="6.65669">
        <ele>2416.41</ele>
        <time>2018-02-06T12:24:29Z</time>
      </trkpt>
      <trkpt lat="45.62781" lon="6.65678">
        <ele>2416.89</ele>
        <time>2018-02-06T12:24:43Z</time>
      </trkpt>
      <trkpt lat="45.62777" lon="6.65672">
        <ele>2418.33</ele>
        <time>2018-02-06T12:24:54Z</time>
      </trkpt>
      <trkpt lat="45.62775" lon="6.65667">
        <ele>2419.78</ele>
        <time>2018-02-06T12:25:08Z</time>
      </trkpt>
      <trkpt lat="45.62773" lon="6.65674">
        <ele>2420.74</ele>
        <time>2018-02-06T12:25:21Z</time>
      </trkpt>
      <trkpt lat="45.62774" lon="6.65681">
        <ele>2421.7</ele>
        <time>2018-02-06T12:25:34Z</time>
      </trkpt>
      <trkpt lat="45.62776" lon="6.65689">
        <ele>2423.62</ele>
        <time>2018-02-06T12:25:46Z</time>
      </trkpt>
      <trkpt lat="45.62777" lon="6.65697">
        <ele>2424.58</ele>
        <time>2018-02-06T12:25:57Z</time>
      </trkpt>
      <trkpt lat="45.62769" lon="6.65698">
        <ele>2426.5</ele>
        <time>2018-02-06T12:26:15Z</time>
      </trkpt>
      <trkpt lat="45.62761" lon="6.65694">
        <ele>2428.43</ele>
        <time>2018-02-06T12:26:31Z</time>
      </trkpt>
      <trkpt lat="45.62755" lon="6.65687">
        <ele>2428.91</ele>
        <time>2018-02-06T12:26:44Z</time>
      </trkpt>
      <trkpt lat="45.62754" lon="6.65678">
        <ele>2428.91</ele>
        <time>2018-02-06T12:26:56Z</time>
      </trkpt>
      <trkpt lat="45.62752" lon="6.65669">
        <ele>2430.35</ele>
        <time>2018-02-06T12:27:09Z</time>
      </trkpt>
      <trkpt lat="45.62753" lon="6.65659">
        <ele>2431.79</ele>
        <time>2018-02-06T12:27:22Z</time>
      </trkpt>
      <trkpt lat="45.62753" lon="6.65651">
        <ele>2433.71</ele>
        <time>2018-02-06T12:27:34Z</time>
      </trkpt>
      <trkpt lat="45.62752" lon="6.65644">
        <ele>2434.68</ele>
        <time>2018-02-06T12:27:46Z</time>
      </trkpt>
      <trkpt lat="45.6275" lon="6.65643">
        <ele>2434.68</ele>
        <time>2018-02-06T12:27:57Z</time>
      </trkpt>
      <trkpt lat="45.62751" lon="6.65644">
        <ele>2434.2</ele>
        <time>2018-02-06T12:28:24Z</time>
      </trkpt>
      <trkpt lat="45.62747" lon="6.65642">
        <ele>2434.2</ele>
        <time>2018-02-06T12:28:55Z</time>
      </trkpt>
      <trkpt lat="45.62747" lon="6.65643">
        <ele>2434.2</ele>
        <time>2018-02-06T12:29:20Z</time>
      </trkpt>
      <trkpt lat="45.62748" lon="6.65642">
        <ele>2434.68</ele>
        <time>2018-02-06T12:29:46Z</time>
      </trkpt>
      <trkpt lat="45.62748" lon="6.65642">
        <ele>2434.2</ele>
        <time>2018-02-06T12:30:19Z</time>
      </trkpt>
      <trkpt lat="45.6275" lon="6.65643">
        <ele>2433.71</ele>
        <time>2018-02-06T12:30:42Z</time>
      </trkpt>
      <trkpt lat="45.62752" lon="6.65645">
        <ele>2433.71</ele>
        <time>2018-02-06T12:31:12Z</time>
      </trkpt>
      <trkpt lat="45.62751" lon="6.6564">
        <ele>2433.71</ele>
        <time>2018-02-06T12:31:25Z</time>
      </trkpt>
      <trkpt lat="45.62752" lon="6.65641">
        <ele>2433.71</ele>
        <time>2018-02-06T12:31:50Z</time>
      </trkpt>
      <trkpt lat="45.6275" lon="6.65641">
        <ele>2433.23</ele>
        <time>2018-02-06T12:32:03Z</time>
      </trkpt>
      <trkpt lat="45.6275" lon="6.65643">
        <ele>2433.71</ele>
        <time>2018-02-06T12:32:13Z</time>
      </trkpt>
      <trkpt lat="45.62753" lon="6.65645">
        <ele>2433.23</ele>
        <time>2018-02-06T12:32:35Z</time>
      </trkpt>
      <trkpt lat="45.62751" lon="6.65644">
        <ele>2433.71</ele>
        <time>2018-02-06T12:32:57Z</time>
      </trkpt>
      <trkpt lat="45.62748" lon="6.65643">
        <ele>2433.23</ele>
        <time>2018-02-06T12:33:23Z</time>
      </trkpt>
      <trkpt lat="45.6275" lon="6.65643">
        <ele>2432.75</ele>
        <time>2018-02-06T12:33:46Z</time>
      </trkpt>
      <trkpt lat="45.6275" lon="6.65644">
        <ele>2432.75</ele>
        <time>2018-02-06T12:34:11Z</time>
      </trkpt>
      <trkpt lat="45.62747" lon="6.65644">
        <ele>2433.23</ele>
        <time>2018-02-06T12:34:40Z</time>
      </trkpt>
      <trkpt lat="45.62748" lon="6.65643">
        <ele>2433.23</ele>
        <time>2018-02-06T12:35:09Z</time>
      </trkpt>
      <trkpt lat="45.62748" lon="6.65641">
        <ele>2433.23</ele>
        <time>2018-02-06T12:35:32Z</time>
      </trkpt>
      <trkpt lat="45.62746" lon="6.65645">
        <ele>2433.23</ele>
        <time>2018-02-06T12:36:01Z</time>
      </trkpt>
      <trkpt lat="45.62749" lon="6.65635">
        <ele>2432.75</ele>
        <time>2018-02-06T12:36:17Z</time>
      </trkpt>
      <trkpt lat="45.62749" lon="6.65634">
        <ele>2433.23</ele>
        <time>2018-02-06T12:36:18Z</time>
      </trkpt>
      <trkpt lat="45.62751" lon="6.65615">
        <ele>2433.23</ele>
        <time>2018-02-06T12:36:35Z</time>
      </trkpt>
      <trkpt lat="45.62752" lon="6.65605">
        <ele>2435.16</ele>
        <time>2018-02-06T12:36:49Z</time>
      </trkpt>
      <trkpt lat="45.62752" lon="6.6559">
        <ele>2436.6</ele>
        <time>2018-02-06T12:37:05Z</time>
      </trkpt>
      <trkpt lat="45.62752" lon="6.65574">
        <ele>2437.56</ele>
        <time>2018-02-06T12:37:25Z</time>
      </trkpt>
      <trkpt lat="45.62751" lon="6.65567">
        <ele>2438.52</ele>
        <time>2018-02-06T12:37:44Z</time>
      </trkpt>
      <trkpt lat="45.62753" lon="6.65565">
        <ele>2438.52</ele>
        <time>2018-02-06T12:38:04Z</time>
      </trkpt>
      <trkpt lat="45.62751" lon="6.65565">
        <ele>2438.52</ele>
        <time>2018-02-06T12:38:34Z</time>
      </trkpt>
      <trkpt lat="45.6275" lon="6.65565">
        <ele>2438.04</ele>
        <time>2018-02-06T12:38:57Z</time>
      </trkpt>
      <trkpt lat="45.62748" lon="6.65565">
        <ele>2438.04</ele>
        <time>2018-02-06T12:39:25Z</time>
      </trkpt>
      <trkpt lat="45.62746" lon="6.65564">
        <ele>2438.04</ele>
        <time>2018-02-06T12:39:40Z</time>
      </trkpt>
      <trkpt lat="45.6275" lon="6.65564">
        <ele>2438.04</ele>
        <time>2018-02-06T12:40:04Z</time>
      </trkpt>
      <trkpt lat="45.62748" lon="6.65557">
        <ele>2438.52</ele>
        <time>2018-02-06T12:40:19Z</time>
      </trkpt>
      <trkpt lat="45.62747" lon="6.65547">
        <ele>2439.48</ele>
        <time>2018-02-06T12:40:40Z</time>
      </trkpt>
      <trkpt lat="45.62746" lon="6.65534">
        <ele>2441.41</ele>
        <time>2018-02-06T12:40:59Z</time>
      </trkpt>
      <trkpt lat="45.62742" lon="6.65526">
        <ele>2442.85</ele>
        <time>2018-02-06T12:41:12Z</time>
      </trkpt>
      <trkpt lat="45.62736" lon="6.6552">
        <ele>2444.29</ele>
        <time>2018-02-06T12:41:28Z</time>
      </trkpt>
      <trkpt lat="45.62727" lon="6.65513">
        <ele>2444.29</ele>
        <time>2018-02-06T12:41:43Z</time>
      </trkpt>
      <trkpt lat="45.62721" lon="6.65503">
        <ele>2444.77</ele>
        <time>2018-02-06T12:42:03Z</time>
      </trkpt>
      <trkpt lat="45.6272" lon="6.65497">
        <ele>2445.73</ele>
        <time>2018-02-06T12:42:18Z</time>
      </trkpt>
      <trkpt lat="45.62717" lon="6.65487">
        <ele>2445.73</ele>
        <time>2018-02-06T12:42:38Z</time>
      </trkpt>
      <trkpt lat="45.62715" lon="6.65479">
        <ele>2446.69</ele>
        <time>2018-02-06T12:42:51Z</time>
      </trkpt>
      <trkpt lat="45.62709" lon="6.6547">
        <ele>2447.65</ele>
        <time>2018-02-06T12:43:07Z</time>
      </trkpt>
      <trkpt lat="45.62705" lon="6.65461">
        <ele>2449.1</ele>
        <time>2018-02-06T12:43:23Z</time>
      </trkpt>
      <trkpt lat="45.627" lon="6.65456">
        <ele>2450.06</ele>
        <time>2018-02-06T12:43:41Z</time>
      </trkpt>
      <trkpt lat="45.62699" lon="6.65455">
        <ele>2450.06</ele>
        <time>2018-02-06T12:44:12Z</time>
      </trkpt>
      <trkpt lat="45.62704" lon="6.65457">
        <ele>2451.02</ele>
        <time>2018-02-06T12:44:49Z</time>
      </trkpt>
      <trkpt lat="45.62694" lon="6.65448">
        <ele>2450.54</ele>
        <time>2018-02-06T12:45:06Z</time>
      </trkpt>
      <trkpt lat="45.62688" lon="6.65436">
        <ele>2451.02</ele>
        <time>2018-02-06T12:45:22Z</time>
      </trkpt>
      <trkpt lat="45.62683" lon="6.65427">
        <ele>2452.46</ele>
        <time>2018-02-06T12:45:39Z</time>
      </trkpt>
      <trkpt lat="45.62676" lon="6.65421">
        <ele>2453.42</ele>
        <time>2018-02-06T12:45:54Z</time>
      </trkpt>
      <trkpt lat="45.62671" lon="6.65413">
        <ele>2454.38</ele>
        <time>2018-02-06T12:46:10Z</time>
      </trkpt>
      <trkpt lat="45.62671" lon="6.65413">
        <ele>2454.38</ele>
        <time>2018-02-06T12:46:18Z</time>
      </trkpt>
      <trkpt lat="45.62674" lon="6.65415">
        <ele>2453.9</ele>
        <time>2018-02-06T12:46:29Z</time>
      </trkpt>
      <trkpt lat="45.62674" lon="6.65414">
        <ele>2453.9</ele>
        <time>2018-02-06T12:46:57Z</time>
      </trkpt>
      <trkpt lat="45.62673" lon="6.65415">
        <ele>2453.42</ele>
        <time>2018-02-06T12:47:31Z</time>
      </trkpt>
      <trkpt lat="45.62673" lon="6.65415">
        <ele>2453.42</ele>
        <time>2018-02-06T12:47:35Z</time>
      </trkpt>
      <trkpt lat="45.62672" lon="6.65415">
        <ele>2453.9</ele>
        <time>2018-02-06T12:47:49Z</time>
      </trkpt>
      <trkpt lat="45.62671" lon="6.65414">
        <ele>2454.38</ele>
        <time>2018-02-06T12:48:17Z</time>
      </trkpt>
      <trkpt lat="45.62663" lon="6.65406">
        <ele>2455.82</ele>
        <time>2018-02-06T12:48:33Z</time>
      </trkpt>
      <trkpt lat="45.62656" lon="6.65399">
        <ele>2456.31</ele>
        <time>2018-02-06T12:48:47Z</time>
      </trkpt>
      <trkpt lat="45.62648" lon="6.65394">
        <ele>2457.75</ele>
        <time>2018-02-06T12:49:06Z</time>
      </trkpt>
      <trkpt lat="45.62644" lon="6.65389">
        <ele>2458.71</ele>
        <time>2018-02-06T12:49:26Z</time>
      </trkpt>
      <trkpt lat="45.62637" lon="6.65387">
        <ele>2459.19</ele>
        <time>2018-02-06T12:49:40Z</time>
      </trkpt>
      <trkpt lat="45.62633" lon="6.65386">
        <ele>2459.19</ele>
        <time>2018-02-06T12:49:57Z</time>
      </trkpt>
      <trkpt lat="45.62624" lon="6.65383">
        <ele>2460.63</ele>
        <time>2018-02-06T12:50:14Z</time>
      </trkpt>
      <trkpt lat="45.62613" lon="6.65383">
        <ele>2460.63</ele>
        <time>2018-02-06T12:50:31Z</time>
      </trkpt>
      <trkpt lat="45.62604" lon="6.65385">
        <ele>2461.59</ele>
        <time>2018-02-06T12:50:45Z</time>
      </trkpt>
      <trkpt lat="45.6261" lon="6.65377">
        <ele>2463.04</ele>
        <time>2018-02-06T12:50:58Z</time>
      </trkpt>
      <trkpt lat="45.62613" lon="6.65372">
        <ele>2464.48</ele>
        <time>2018-02-06T12:51:13Z</time>
      </trkpt>
      <trkpt lat="45.62609" lon="6.65375">
        <ele>2464.48</ele>
        <time>2018-02-06T12:51:27Z</time>
      </trkpt>
      <trkpt lat="45.626" lon="6.65378">
        <ele>2466.88</ele>
        <time>2018-02-06T12:51:44Z</time>
      </trkpt>
      <trkpt lat="45.62602" lon="6.65371">
        <ele>2468.32</ele>
        <time>2018-02-06T12:51:58Z</time>
      </trkpt>
      <trkpt lat="45.62607" lon="6.65365">
        <ele>2469.76</ele>
        <time>2018-02-06T12:52:11Z</time>
      </trkpt>
      <trkpt lat="45.62607" lon="6.65365">
        <ele>2470.73</ele>
        <time>2018-02-06T12:52:26Z</time>
      </trkpt>
      <trkpt lat="45.62599" lon="6.65368">
        <ele>2472.65</ele>
        <time>2018-02-06T12:52:42Z</time>
      </trkpt>
      <trkpt lat="45.62593" lon="6.65371">
        <ele>2473.13</ele>
        <time>2018-02-06T12:53:00Z</time>
      </trkpt>
      <trkpt lat="45.62595" lon="6.65363">
        <ele>2474.09</ele>
        <time>2018-02-06T12:53:12Z</time>
      </trkpt>
      <trkpt lat="45.62599" lon="6.65358">
        <ele>2476.01</ele>
        <time>2018-02-06T12:53:24Z</time>
      </trkpt>
      <trkpt lat="45.62597" lon="6.65357">
        <ele>2476.01</ele>
        <time>2018-02-06T12:53:38Z</time>
      </trkpt>
      <trkpt lat="45.62589" lon="6.65362">
        <ele>2476.97</ele>
        <time>2018-02-06T12:53:53Z</time>
      </trkpt>
      <trkpt lat="45.62587" lon="6.65363">
        <ele>2478.9</ele>
        <time>2018-02-06T12:54:11Z</time>
      </trkpt>
      <trkpt lat="45.62591" lon="6.65351">
        <ele>2480.34</ele>
        <time>2018-02-06T12:54:25Z</time>
      </trkpt>
      <trkpt lat="45.62595" lon="6.65343">
        <ele>2482.26</ele>
        <time>2018-02-06T12:54:38Z</time>
      </trkpt>
      <trkpt lat="45.62592" lon="6.65346">
        <ele>2482.74</ele>
        <time>2018-02-06T12:54:55Z</time>
      </trkpt>
      <trkpt lat="45.62585" lon="6.65352">
        <ele>2484.66</ele>
        <time>2018-02-06T12:55:11Z</time>
      </trkpt>
      <trkpt lat="45.6258" lon="6.65357">
        <ele>2485.63</ele>
        <time>2018-02-06T12:55:25Z</time>
      </trkpt>
      <trkpt lat="45.62583" lon="6.65346">
        <ele>2487.07</ele>
        <time>2018-02-06T12:55:40Z</time>
      </trkpt>
      <trkpt lat="45.62587" lon="6.65337">
        <ele>2488.99</ele>
        <time>2018-02-06T12:55:56Z</time>
      </trkpt>
      <trkpt lat="45.62583" lon="6.6534">
        <ele>2489.47</ele>
        <time>2018-02-06T12:56:08Z</time>
      </trkpt>
      <trkpt lat="45.62578" lon="6.65341">
        <ele>2490.91</ele>
        <time>2018-02-06T12:56:21Z</time>
      </trkpt>
      <trkpt lat="45.62574" lon="6.65336">
        <ele>2492.36</ele>
        <time>2018-02-06T12:56:36Z</time>
      </trkpt>
      <trkpt lat="45.62578" lon="6.65333">
        <ele>2493.32</ele>
        <time>2018-02-06T12:56:55Z</time>
      </trkpt>
      <trkpt lat="45.62583" lon="6.65325">
        <ele>2494.76</ele>
        <time>2018-02-06T12:57:10Z</time>
      </trkpt>
      <trkpt lat="45.62587" lon="6.6532">
        <ele>2497.16</ele>
        <time>2018-02-06T12:57:24Z</time>
      </trkpt>
      <trkpt lat="45.62592" lon="6.65315">
        <ele>2498.6</ele>
        <time>2018-02-06T12:57:38Z</time>
      </trkpt>
      <trkpt lat="45.62593" lon="6.65312">
        <ele>2500.05</ele>
        <time>2018-02-06T12:57:51Z</time>
      </trkpt>
      <trkpt lat="45.62589" lon="6.65314">
        <ele>2500.53</ele>
        <time>2018-02-06T12:58:09Z</time>
      </trkpt>
      <trkpt lat="45.62583" lon="6.65316">
        <ele>2501.49</ele>
        <time>2018-02-06T12:58:22Z</time>
      </trkpt>
      <trkpt lat="45.62581" lon="6.65314">
        <ele>2502.45</ele>
        <time>2018-02-06T12:58:34Z</time>
      </trkpt>
      <trkpt lat="45.62582" lon="6.65313">
        <ele>2502.93</ele>
        <time>2018-02-06T12:58:52Z</time>
      </trkpt>
      <trkpt lat="45.62583" lon="6.65314">
        <ele>2502.93</ele>
        <time>2018-02-06T12:59:13Z</time>
      </trkpt>
      <trkpt lat="45.62588" lon="6.65308">
        <ele>2503.89</ele>
        <time>2018-02-06T12:59:30Z</time>
      </trkpt>
      <trkpt lat="45.62594" lon="6.65303">
        <ele>2505.81</ele>
        <time>2018-02-06T12:59:46Z</time>
      </trkpt>
      <trkpt lat="45.62595" lon="6.653">
        <ele>2506.29</ele>
        <time>2018-02-06T12:59:59Z</time>
      </trkpt>
      <trkpt lat="45.62593" lon="6.65305">
        <ele>2506.29</ele>
        <time>2018-02-06T13:00:24Z</time>
      </trkpt>
      <trkpt lat="45.62588" lon="6.65303">
        <ele>2507.74</ele>
        <time>2018-02-06T13:00:49Z</time>
      </trkpt>
      <trkpt lat="45.62582" lon="6.65304">
        <ele>2508.7</ele>
        <time>2018-02-06T13:01:03Z</time>
      </trkpt>
      <trkpt lat="45.62584" lon="6.653">
        <ele>2509.18</ele>
        <time>2018-02-06T13:01:17Z</time>
      </trkpt>
      <trkpt lat="45.62589" lon="6.65296">
        <ele>2510.62</ele>
        <time>2018-02-06T13:01:30Z</time>
      </trkpt>
      <trkpt lat="45.62591" lon="6.65294">
        <ele>2511.1</ele>
        <time>2018-02-06T13:01:46Z</time>
      </trkpt>
      <trkpt lat="45.62592" lon="6.65291">
        <ele>2511.1</ele>
        <time>2018-02-06T13:02:17Z</time>
      </trkpt>
      <trkpt lat="45.62599" lon="6.65289">
        <ele>2513.02</ele>
        <time>2018-02-06T13:02:36Z</time>
      </trkpt>
      <trkpt lat="45.62595" lon="6.65288">
        <ele>2513.5</ele>
        <time>2018-02-06T13:02:50Z</time>
      </trkpt>
      <trkpt lat="45.62588" lon="6.65289">
        <ele>2514.47</ele>
        <time>2018-02-06T13:03:03Z</time>
      </trkpt>
      <trkpt lat="45.62583" lon="6.65289">
        <ele>2516.39</ele>
        <time>2018-02-06T13:03:15Z</time>
      </trkpt>
      <trkpt lat="45.62581" lon="6.65288">
        <ele>2517.83</ele>
        <time>2018-02-06T13:03:29Z</time>
      </trkpt>
      <trkpt lat="45.62583" lon="6.65284">
        <ele>2517.83</ele>
        <time>2018-02-06T13:03:44Z</time>
      </trkpt>
      <trkpt lat="45.62589" lon="6.6528">
        <ele>2519.75</ele>
        <time>2018-02-06T13:03:57Z</time>
      </trkpt>
      <trkpt lat="45.62593" lon="6.65275">
        <ele>2521.19</ele>
        <time>2018-02-06T13:04:12Z</time>
      </trkpt>
      <trkpt lat="45.62593" lon="6.65275">
        <ele>2522.16</ele>
        <time>2018-02-06T13:04:29Z</time>
      </trkpt>
      <trkpt lat="45.62587" lon="6.65277">
        <ele>2523.12</ele>
        <time>2018-02-06T13:04:41Z</time>
      </trkpt>
      <trkpt lat="45.62582" lon="6.65277">
        <ele>2525.04</ele>
        <time>2018-02-06T13:04:54Z</time>
      </trkpt>
      <trkpt lat="45.62581" lon="6.65275">
        <ele>2525.04</ele>
        <time>2018-02-06T13:05:08Z</time>
      </trkpt>
      <trkpt lat="45.62583" lon="6.65271">
        <ele>2525.52</ele>
        <time>2018-02-06T13:05:25Z</time>
      </trkpt>
      <trkpt lat="45.62587" lon="6.65268">
        <ele>2526.96</ele>
        <time>2018-02-06T13:05:37Z</time>
      </trkpt>
      <trkpt lat="45.6259" lon="6.65262">
        <ele>2528.4</ele>
        <time>2018-02-06T13:05:50Z</time>
      </trkpt>
      <trkpt lat="45.62595" lon="6.65259">
        <ele>2529.85</ele>
        <time>2018-02-06T13:06:02Z</time>
      </trkpt>
      <trkpt lat="45.62594" lon="6.65258">
        <ele>2530.33</ele>
        <time>2018-02-06T13:06:16Z</time>
      </trkpt>
      <trkpt lat="45.62587" lon="6.65259">
        <ele>2531.77</ele>
        <time>2018-02-06T13:06:31Z</time>
      </trkpt>
      <trkpt lat="45.62582" lon="6.6526">
        <ele>2533.21</ele>
        <time>2018-02-06T13:06:45Z</time>
      </trkpt>
      <trkpt lat="45.62586" lon="6.65253">
        <ele>2534.17</ele>
        <time>2018-02-06T13:06:59Z</time>
      </trkpt>
      <trkpt lat="45.62591" lon="6.65244">
        <ele>2535.61</ele>
        <time>2018-02-06T13:07:10Z</time>
      </trkpt>
      <trkpt lat="45.62594" lon="6.65241">
        <ele>2537.06</ele>
        <time>2018-02-06T13:07:23Z</time>
      </trkpt>
      <trkpt lat="45.6259" lon="6.65243">
        <ele>2537.06</ele>
        <time>2018-02-06T13:07:36Z</time>
      </trkpt>
      <trkpt lat="45.62585" lon="6.65241">
        <ele>2538.98</ele>
        <time>2018-02-06T13:07:51Z</time>
      </trkpt>
      <trkpt lat="45.62588" lon="6.65235">
        <ele>2539.94</ele>
        <time>2018-02-06T13:08:04Z</time>
      </trkpt>
      <trkpt lat="45.62593" lon="6.6523">
        <ele>2540.9</ele>
        <time>2018-02-06T13:08:17Z</time>
      </trkpt>
      <trkpt lat="45.62599" lon="6.65232">
        <ele>2543.31</ele>
        <time>2018-02-06T13:08:30Z</time>
      </trkpt>
      <trkpt lat="45.62598" lon="6.65232">
        <ele>2543.31</ele>
        <time>2018-02-06T13:08:46Z</time>
      </trkpt>
      <trkpt lat="45.62595" lon="6.65226">
        <ele>2544.27</ele>
        <time>2018-02-06T13:08:57Z</time>
      </trkpt>
      <trkpt lat="45.62588" lon="6.65224">
        <ele>2545.71</ele>
        <time>2018-02-06T13:09:11Z</time>
      </trkpt>
      <trkpt lat="45.62584" lon="6.65222">
        <ele>2547.15</ele>
        <time>2018-02-06T13:09:24Z</time>
      </trkpt>
      <trkpt lat="45.62589" lon="6.65217">
        <ele>2548.59</ele>
        <time>2018-02-06T13:09:36Z</time>
      </trkpt>
      <trkpt lat="45.62596" lon="6.65216">
        <ele>2550.03</ele>
        <time>2018-02-06T13:09:50Z</time>
      </trkpt>
      <trkpt lat="45.62598" lon="6.65216">
        <ele>2550.51</ele>
        <time>2018-02-06T13:10:05Z</time>
      </trkpt>
      <trkpt lat="45.62594" lon="6.65211">
        <ele>2551.96</ele>
        <time>2018-02-06T13:10:20Z</time>
      </trkpt>
      <trkpt lat="45.62587" lon="6.65211">
        <ele>2553.4</ele>
        <time>2018-02-06T13:10:34Z</time>
      </trkpt>
      <trkpt lat="45.62583" lon="6.65211">
        <ele>2555.32</ele>
        <time>2018-02-06T13:10:44Z</time>
      </trkpt>
      <trkpt lat="45.62586" lon="6.65207">
        <ele>2555.32</ele>
        <time>2018-02-06T13:10:59Z</time>
      </trkpt>
      <trkpt lat="45.62592" lon="6.65201">
        <ele>2556.28</ele>
        <time>2018-02-06T13:11:13Z</time>
      </trkpt>
      <trkpt lat="45.62597" lon="6.65198">
        <ele>2557.24</ele>
        <time>2018-02-06T13:11:27Z</time>
      </trkpt>
      <trkpt lat="45.62599" lon="6.65197">
        <ele>2559.17</ele>
        <time>2018-02-06T13:11:41Z</time>
      </trkpt>
      <trkpt lat="45.62597" lon="6.65198">
        <ele>2559.17</ele>
        <time>2018-02-06T13:12:03Z</time>
      </trkpt>
      <trkpt lat="45.62591" lon="6.65192">
        <ele>2560.61</ele>
        <time>2018-02-06T13:12:17Z</time>
      </trkpt>
      <trkpt lat="45.62594" lon="6.6519">
        <ele>2561.57</ele>
        <time>2018-02-06T13:12:33Z</time>
      </trkpt>
      <trkpt lat="45.62598" lon="6.65187">
        <ele>2562.53</ele>
        <time>2018-02-06T13:12:51Z</time>
      </trkpt>
      <trkpt lat="45.62603" lon="6.65184">
        <ele>2563.97</ele>
        <time>2018-02-06T13:13:05Z</time>
      </trkpt>
      <trkpt lat="45.62606" lon="6.65181">
        <ele>2564.93</ele>
        <time>2018-02-06T13:13:20Z</time>
      </trkpt>
      <trkpt lat="45.62603" lon="6.6518">
        <ele>2565.9</ele>
        <time>2018-02-06T13:13:34Z</time>
      </trkpt>
      <trkpt lat="45.62601" lon="6.65184">
        <ele>2565.42</ele>
        <time>2018-02-06T13:14:13Z</time>
      </trkpt>
      <trkpt lat="45.62601" lon="6.65182">
        <ele>2565.9</ele>
        <time>2018-02-06T13:14:43Z</time>
      </trkpt>
      <trkpt lat="45.62602" lon="6.65182">
        <ele>2565.9</ele>
        <time>2018-02-06T13:15:06Z</time>
      </trkpt>
      <trkpt lat="45.62602" lon="6.65181">
        <ele>2565.42</ele>
        <time>2018-02-06T13:15:34Z</time>
      </trkpt>
      <trkpt lat="45.626" lon="6.65176">
        <ele>2566.38</ele>
        <time>2018-02-06T13:15:59Z</time>
      </trkpt>
      <trkpt lat="45.62595" lon="6.65173">
        <ele>2567.82</ele>
        <time>2018-02-06T13:16:13Z</time>
      </trkpt>
      <trkpt lat="45.62595" lon="6.65173">
        <ele>2567.34</ele>
        <time>2018-02-06T13:16:33Z</time>
      </trkpt>
      <trkpt lat="45.62593" lon="6.65175">
        <ele>2566.86</ele>
        <time>2018-02-06T13:17:08Z</time>
      </trkpt>
      <trkpt lat="45.62588" lon="6.65175">
        <ele>2568.3</ele>
        <time>2018-02-06T13:17:20Z</time>
      </trkpt>
      <trkpt lat="45.62589" lon="6.65171">
        <ele>2569.74</ele>
        <time>2018-02-06T13:17:37Z</time>
      </trkpt>
      <trkpt lat="45.62593" lon="6.65164">
        <ele>2572.14</ele>
        <time>2018-02-06T13:17:51Z</time>
      </trkpt>
      <trkpt lat="45.62595" lon="6.65155">
        <ele>2574.07</ele>
        <time>2018-02-06T13:18:07Z</time>
      </trkpt>
      <trkpt lat="45.62598" lon="6.6515">
        <ele>2575.51</ele>
        <time>2018-02-06T13:18:22Z</time>
      </trkpt>
      <trkpt lat="45.62598" lon="6.65151">
        <ele>2575.03</ele>
        <time>2018-02-06T13:18:36Z</time>
      </trkpt>
      <trkpt lat="45.62593" lon="6.65154">
        <ele>2575.51</ele>
        <time>2018-02-06T13:18:48Z</time>
      </trkpt>
      <trkpt lat="45.62587" lon="6.65154">
        <ele>2577.91</ele>
        <time>2018-02-06T13:19:02Z</time>
      </trkpt>
      <trkpt lat="45.62582" lon="6.65152">
        <ele>2578.39</ele>
        <time>2018-02-06T13:19:17Z</time>
      </trkpt>
      <trkpt lat="45.62585" lon="6.65149">
        <ele>2579.35</ele>
        <time>2018-02-06T13:19:33Z</time>
      </trkpt>
      <trkpt lat="45.62588" lon="6.65144">
        <ele>2580.8</ele>
        <time>2018-02-06T13:19:48Z</time>
      </trkpt>
      <trkpt lat="45.6259" lon="6.65139">
        <ele>2581.76</ele>
        <time>2018-02-06T13:20:00Z</time>
      </trkpt>
      <trkpt lat="45.62591" lon="6.65134">
        <ele>2583.2</ele>
        <time>2018-02-06T13:20:17Z</time>
      </trkpt>
      <trkpt lat="45.62592" lon="6.6513">
        <ele>2585.12</ele>
        <time>2018-02-06T13:20:33Z</time>
      </trkpt>
      <trkpt lat="45.62587" lon="6.65136">
        <ele>2584.64</ele>
        <time>2018-02-06T13:20:52Z</time>
      </trkpt>
      <trkpt lat="45.62582" lon="6.65136">
        <ele>2588.01</ele>
        <time>2018-02-06T13:21:03Z</time>
      </trkpt>
      <trkpt lat="45.62583" lon="6.65133">
        <ele>2588.49</ele>
        <time>2018-02-06T13:21:18Z</time>
      </trkpt>
      <trkpt lat="45.62585" lon="6.65127">
        <ele>2589.45</ele>
        <time>2018-02-06T13:21:30Z</time>
      </trkpt>
      <trkpt lat="45.62589" lon="6.6512">
        <ele>2590.89</ele>
        <time>2018-02-06T13:21:45Z</time>
      </trkpt>
      <trkpt lat="45.62587" lon="6.65122">
        <ele>2591.37</ele>
        <time>2018-02-06T13:21:58Z</time>
      </trkpt>
      <trkpt lat="45.62583" lon="6.65125">
        <ele>2591.85</ele>
        <time>2018-02-06T13:22:10Z</time>
      </trkpt>
      <trkpt lat="45.6258" lon="6.65123">
        <ele>2592.81</ele>
        <time>2018-02-06T13:22:24Z</time>
      </trkpt>
      <trkpt lat="45.62577" lon="6.65119">
        <ele>2594.25</ele>
        <time>2018-02-06T13:22:38Z</time>
      </trkpt>
      <trkpt lat="45.62578" lon="6.65117">
        <ele>2595.22</ele>
        <time>2018-02-06T13:22:53Z</time>
      </trkpt>
      <trkpt lat="45.62582" lon="6.65115">
        <ele>2597.14</ele>
        <time>2018-02-06T13:23:09Z</time>
      </trkpt>
      <trkpt lat="45.62585" lon="6.65107">
        <ele>2597.62</ele>
        <time>2018-02-06T13:23:22Z</time>
      </trkpt>
      <trkpt lat="45.62588" lon="6.65102">
        <ele>2600.02</ele>
        <time>2018-02-06T13:23:36Z</time>
      </trkpt>
      <trkpt lat="45.62587" lon="6.65096">
        <ele>2601.95</ele>
        <time>2018-02-06T13:23:50Z</time>
      </trkpt>
      <trkpt lat="45.62587" lon="6.65089">
        <ele>2602.91</ele>
        <time>2018-02-06T13:24:03Z</time>
      </trkpt>
      <trkpt lat="45.62583" lon="6.65092">
        <ele>2604.35</ele>
        <time>2018-02-06T13:24:15Z</time>
      </trkpt>
      <trkpt lat="45.62579" lon="6.65096">
        <ele>2604.83</ele>
        <time>2018-02-06T13:24:28Z</time>
      </trkpt>
      <trkpt lat="45.62578" lon="6.65097">
        <ele>2604.35</ele>
        <time>2018-02-06T13:24:50Z</time>
      </trkpt>
      <trkpt lat="45.62579" lon="6.65096">
        <ele>2605.79</ele>
        <time>2018-02-06T13:25:03Z</time>
      </trkpt>
      <trkpt lat="45.6258" lon="6.65096">
        <ele>2604.35</ele>
        <time>2018-02-06T13:25:10Z</time>
      </trkpt>
      <trkpt lat="45.62578" lon="6.65094">
        <ele>2604.35</ele>
        <time>2018-02-06T13:25:39Z</time>
      </trkpt>
      <trkpt lat="45.62578" lon="6.65097">
        <ele>2603.39</ele>
        <time>2018-02-06T13:26:14Z</time>
      </trkpt>
      <trkpt lat="45.62578" lon="6.65095">
        <ele>2603.87</ele>
        <time>2018-02-06T13:26:53Z</time>
      </trkpt>
      <trkpt lat="45.6258" lon="6.65093">
        <ele>2605.31</ele>
        <time>2018-02-06T13:27:18Z</time>
      </trkpt>
      <trkpt lat="45.62579" lon="6.6509">
        <ele>2604.83</ele>
        <time>2018-02-06T13:27:37Z</time>
      </trkpt>
      <trkpt lat="45.62578" lon="6.65092">
        <ele>2604.83</ele>
        <time>2018-02-06T13:27:59Z</time>
      </trkpt>
      <trkpt lat="45.62576" lon="6.65092">
        <ele>2604.35</ele>
        <time>2018-02-06T13:28:30Z</time>
      </trkpt>
      <trkpt lat="45.62573" lon="6.65091">
        <ele>2604.35</ele>
        <time>2018-02-06T13:28:59Z</time>
      </trkpt>
      <trkpt lat="45.62578" lon="6.65091">
        <ele>2603.87</ele>
        <time>2018-02-06T13:29:38Z</time>
      </trkpt>
      <trkpt lat="45.62578" lon="6.65092">
        <ele>2604.35</ele>
        <time>2018-02-06T13:30:14Z</time>
      </trkpt>
      <trkpt lat="45.62579" lon="6.65094">
        <ele>2603.87</ele>
        <time>2018-02-06T13:31:00Z</time>
      </trkpt>
      <trkpt lat="45.62579" lon="6.65094">
        <ele>2604.83</ele>
        <time>2018-02-06T13:31:38Z</time>
      </trkpt>
      <trkpt lat="45.62579" lon="6.65091">
        <ele>2604.35</ele>
        <time>2018-02-06T13:32:18Z</time>
      </trkpt>
      <trkpt lat="45.62579" lon="6.65093">
        <ele>2603.87</ele>
        <time>2018-02-06T13:32:53Z</time>
      </trkpt>
      <trkpt lat="45.62579" lon="6.65091">
        <ele>2603.39</ele>
        <time>2018-02-06T13:33:33Z</time>
      </trkpt>
      <trkpt lat="45.6258" lon="6.65093">
        <ele>2603.39</ele>
        <time>2018-02-06T13:34:10Z</time>
      </trkpt>
      <trkpt lat="45.6258" lon="6.65093">
        <ele>2604.35</ele>
        <time>2018-02-06T13:34:53Z</time>
      </trkpt>
      <trkpt lat="45.6258" lon="6.65093">
        <ele>2603.87</ele>
        <time>2018-02-06T13:35:27Z</time>
      </trkpt>
      <trkpt lat="45.6258" lon="6.65094">
        <ele>2603.87</ele>
        <time>2018-02-06T13:36:08Z</time>
      </trkpt>
      <trkpt lat="45.6258" lon="6.65094">
        <ele>2603.39</ele>
        <time>2018-02-06T13:36:48Z</time>
      </trkpt>
      <trkpt lat="45.62581" lon="6.65093">
        <ele>2603.39</ele>
        <time>2018-02-06T13:37:09Z</time>
      </trkpt>
      <trkpt lat="45.62579" lon="6.65096">
        <ele>2604.83</ele>
        <time>2018-02-06T13:37:22Z</time>
      </trkpt>
      <trkpt lat="45.62581" lon="6.65094">
        <ele>2604.35</ele>
        <time>2018-02-06T13:37:43Z</time>
      </trkpt>
      <trkpt lat="45.62581" lon="6.65095">
        <ele>2604.35</ele>
        <time>2018-02-06T13:38:04Z</time>
      </trkpt>
      <trkpt lat="45.6258" lon="6.65095">
        <ele>2604.83</ele>
        <time>2018-02-06T13:38:18Z</time>
      </trkpt>
      <trkpt lat="45.6258" lon="6.65096">
        <ele>2604.83</ele>
        <time>2018-02-06T13:38:42Z</time>
      </trkpt>
      <trkpt lat="45.62582" lon="6.65095">
        <ele>2604.35</ele>
        <time>2018-02-06T13:39:06Z</time>
      </trkpt>
      <trkpt lat="45.62581" lon="6.65095">
        <ele>2604.35</ele>
        <time>2018-02-06T13:39:36Z</time>
      </trkpt>
      <trkpt lat="45.62581" lon="6.65095">
        <ele>2604.35</ele>
        <time>2018-02-06T13:40:08Z</time>
      </trkpt>
      <trkpt lat="45.6258" lon="6.65096">
        <ele>2603.87</ele>
        <time>2018-02-06T13:40:28Z</time>
      </trkpt>
      <trkpt lat="45.6258" lon="6.65099">
        <ele>2603.39</ele>
        <time>2018-02-06T13:40:38Z</time>
      </trkpt>
      <trkpt lat="45.62584" lon="6.65101">
        <ele>2601.46</ele>
        <time>2018-02-06T13:40:43Z</time>
      </trkpt>
      <trkpt lat="45.62583" lon="6.65106">
        <ele>2600.5</ele>
        <time>2018-02-06T13:40:45Z</time>
      </trkpt>
      <trkpt lat="45.62583" lon="6.65107">
        <ele>2599.06</ele>
        <time>2018-02-06T13:40:47Z</time>
      </trkpt>
      <trkpt lat="45.62582" lon="6.6511">
        <ele>2597.62</ele>
        <time>2018-02-06T13:40:49Z</time>
      </trkpt>
      <trkpt lat="45.62585" lon="6.65113">
        <ele>2595.22</ele>
        <time>2018-02-06T13:40:54Z</time>
      </trkpt>
      <trkpt lat="45.62584" lon="6.65122">
        <ele>2592.33</ele>
        <time>2018-02-06T13:40:58Z</time>
      </trkpt>
      <trkpt lat="45.62584" lon="6.65125">
        <ele>2589.45</ele>
        <time>2018-02-06T13:41:03Z</time>
      </trkpt>
      <trkpt lat="45.62593" lon="6.65124">
        <ele>2586.56</ele>
        <time>2018-02-06T13:41:07Z</time>
      </trkpt>
      <trkpt lat="45.62604" lon="6.65116">
        <ele>2582.24</ele>
        <time>2018-02-06T13:41:14Z</time>
      </trkpt>
      <trkpt lat="45.62608" lon="6.65115">
        <ele>2580.32</ele>
        <time>2018-02-06T13:41:18Z</time>
      </trkpt>
      <trkpt lat="45.62607" lon="6.65134">
        <ele>2577.91</ele>
        <time>2018-02-06T13:41:23Z</time>
      </trkpt>
      <trkpt lat="45.62601" lon="6.65143">
        <ele>2576.95</ele>
        <time>2018-02-06T13:41:27Z</time>
      </trkpt>
      <trkpt lat="45.62598" lon="6.6515">
        <ele>2575.03</ele>
        <time>2018-02-06T13:41:31Z</time>
      </trkpt>
      <trkpt lat="45.626" lon="6.65166">
        <ele>2570.7</ele>
        <time>2018-02-06T13:41:37Z</time>
      </trkpt>
      <trkpt lat="45.62595" lon="6.65169">
        <ele>2567.82</ele>
        <time>2018-02-06T13:41:41Z</time>
      </trkpt>
      <trkpt lat="45.62595" lon="6.65169">
        <ele>2567.82</ele>
        <time>2018-02-06T13:41:42Z</time>
      </trkpt>
      <trkpt lat="45.62596" lon="6.65169">
        <ele>2568.78</ele>
        <time>2018-02-06T13:41:57Z</time>
      </trkpt>
      <trkpt lat="45.62596" lon="6.65168">
        <ele>2567.82</ele>
        <time>2018-02-06T13:42:19Z</time>
      </trkpt>
      <trkpt lat="45.62596" lon="6.65168">
        <ele>2568.3</ele>
        <time>2018-02-06T13:42:42Z</time>
      </trkpt>
      <trkpt lat="45.62595" lon="6.6517">
        <ele>2567.82</ele>
        <time>2018-02-06T13:43:05Z</time>
      </trkpt>
      <trkpt lat="45.62591" lon="6.65177">
        <ele>2566.38</ele>
        <time>2018-02-06T13:43:09Z</time>
      </trkpt>
      <trkpt lat="45.62598" lon="6.65183">
        <ele>2563.49</ele>
        <time>2018-02-06T13:43:13Z</time>
      </trkpt>
      <trkpt lat="45.62599" lon="6.65195">
        <ele>2559.17</ele>
        <time>2018-02-06T13:43:17Z</time>
      </trkpt>
      <trkpt lat="45.62588" lon="6.65198">
        <ele>2557.73</ele>
        <time>2018-02-06T13:43:20Z</time>
      </trkpt>
      <trkpt lat="45.62595" lon="6.65207">
        <ele>2554.36</ele>
        <time>2018-02-06T13:43:25Z</time>
      </trkpt>
      <trkpt lat="45.62589" lon="6.65217">
        <ele>2551</ele>
        <time>2018-02-06T13:43:28Z</time>
      </trkpt>
      <trkpt lat="45.62594" lon="6.65222">
        <ele>2547.63</ele>
        <time>2018-02-06T13:43:31Z</time>
      </trkpt>
      <trkpt lat="45.62591" lon="6.65228">
        <ele>2542.82</ele>
        <time>2018-02-06T13:43:35Z</time>
      </trkpt>
      <trkpt lat="45.62587" lon="6.65231">
        <ele>2542.34</ele>
        <time>2018-02-06T13:43:37Z</time>
      </trkpt>
      <trkpt lat="45.62593" lon="6.65238">
        <ele>2538.5</ele>
        <time>2018-02-06T13:43:40Z</time>
      </trkpt>
      <trkpt lat="45.62587" lon="6.65246">
        <ele>2534.17</ele>
        <time>2018-02-06T13:43:43Z</time>
      </trkpt>
      <trkpt lat="45.62585" lon="6.65248">
        <ele>2534.65</ele>
        <time>2018-02-06T13:43:44Z</time>
      </trkpt>
      <trkpt lat="45.62587" lon="6.65258">
        <ele>2530.33</ele>
        <time>2018-02-06T13:43:49Z</time>
      </trkpt>
      <trkpt lat="45.62589" lon="6.65256">
        <ele>2529.37</ele>
        <time>2018-02-06T13:43:51Z</time>
      </trkpt>
      <trkpt lat="45.62587" lon="6.65268">
        <ele>2525.04</ele>
        <time>2018-02-06T13:43:55Z</time>
      </trkpt>
      <trkpt lat="45.62582" lon="6.65271">
        <ele>2523.12</ele>
        <time>2018-02-06T13:43:58Z</time>
      </trkpt>
      <trkpt lat="45.62586" lon="6.65281">
        <ele>2518.31</ele>
        <time>2018-02-06T13:44:02Z</time>
      </trkpt>
      <trkpt lat="45.6259" lon="6.65279">
        <ele>2516.87</ele>
        <time>2018-02-06T13:44:04Z</time>
      </trkpt>
      <trkpt lat="45.62592" lon="6.6528">
        <ele>2516.39</ele>
        <time>2018-02-06T13:44:06Z</time>
      </trkpt>
      <trkpt lat="45.62587" lon="6.65297">
        <ele>2511.58</ele>
        <time>2018-02-06T13:44:10Z</time>
      </trkpt>
      <trkpt lat="45.62583" lon="6.653">
        <ele>2508.22</ele>
        <time>2018-02-06T13:44:11Z</time>
      </trkpt>
      <trkpt lat="45.62582" lon="6.65301">
        <ele>2505.81</ele>
        <time>2018-02-06T13:44:14Z</time>
      </trkpt>
      <trkpt lat="45.62583" lon="6.653">
        <ele>2505.81</ele>
        <time>2018-02-06T13:44:19Z</time>
      </trkpt>
      <trkpt lat="45.62574" lon="6.65311">
        <ele>2502.93</ele>
        <time>2018-02-06T13:44:25Z</time>
      </trkpt>
      <trkpt lat="45.62577" lon="6.65318">
        <ele>2499.08</ele>
        <time>2018-02-06T13:44:28Z</time>
      </trkpt>
      <trkpt lat="45.62575" lon="6.65328">
        <ele>2494.28</ele>
        <time>2018-02-06T13:44:31Z</time>
      </trkpt>
      <trkpt lat="45.62574" lon="6.65339">
        <ele>2488.99</ele>
        <time>2018-02-06T13:44:35Z</time>
      </trkpt>
      <trkpt lat="45.62574" lon="6.65334">
        <ele>2488.03</ele>
        <time>2018-02-06T13:44:46Z</time>
      </trkpt>
      <trkpt lat="45.62575" lon="6.65334">
        <ele>2488.99</ele>
        <time>2018-02-06T13:45:04Z</time>
      </trkpt>
      <trkpt lat="45.62577" lon="6.65335">
        <ele>2488.51</ele>
        <time>2018-02-06T13:45:20Z</time>
      </trkpt>
      <trkpt lat="45.62579" lon="6.65337">
        <ele>2487.55</ele>
        <time>2018-02-06T13:45:40Z</time>
      </trkpt>
      <trkpt lat="45.62578" lon="6.65336">
        <ele>2487.07</ele>
        <time>2018-02-06T13:45:56Z</time>
      </trkpt>
      <trkpt lat="45.62579" lon="6.65336">
        <ele>2487.07</ele>
        <time>2018-02-06T13:46:19Z</time>
      </trkpt>
      <trkpt lat="45.62579" lon="6.65337">
        <ele>2487.55</ele>
        <time>2018-02-06T13:46:27Z</time>
      </trkpt>
      <trkpt lat="45.62588" lon="6.65338">
        <ele>2485.15</ele>
        <time>2018-02-06T13:46:33Z</time>
      </trkpt>
      <trkpt lat="45.62591" lon="6.65337">
        <ele>2483.7</ele>
        <time>2018-02-06T13:46:37Z</time>
      </trkpt>
      <trkpt lat="45.62596" lon="6.6534">
        <ele>2482.74</ele>
        <time>2018-02-06T13:46:41Z</time>
      </trkpt>
      <trkpt lat="45.62596" lon="6.65351">
        <ele>2478.9</ele>
        <time>2018-02-06T13:46:44Z</time>
      </trkpt>
      <trkpt lat="45.62601" lon="6.6536">
        <ele>2474.09</ele>
        <time>2018-02-06T13:46:47Z</time>
      </trkpt>
      <trkpt lat="45.62607" lon="6.6537">
        <ele>2465.92</ele>
        <time>2018-02-06T13:46:51Z</time>
      </trkpt>
      <trkpt lat="45.62613" lon="6.65371">
        <ele>2464.48</ele>
        <time>2018-02-06T13:46:53Z</time>
      </trkpt>
      <trkpt lat="45.6262" lon="6.65372">
        <ele>2462.07</ele>
        <time>2018-02-06T13:46:57Z</time>
      </trkpt>
      <trkpt lat="45.62623" lon="6.65386">
        <ele>2458.23</ele>
        <time>2018-02-06T13:47:01Z</time>
      </trkpt>
      <trkpt lat="45.62623" lon="6.65397">
        <ele>2452.94</ele>
        <time>2018-02-06T13:47:03Z</time>
      </trkpt>
      <trkpt lat="45.62625" lon="6.65401">
        <ele>2453.9</ele>
        <time>2018-02-06T13:47:04Z</time>
      </trkpt>
      <trkpt lat="45.62625" lon="6.65407">
        <ele>2450.54</ele>
        <time>2018-02-06T13:47:05Z</time>
      </trkpt>
      <trkpt lat="45.62618" lon="6.65416">
        <ele>2443.33</ele>
        <time>2018-02-06T13:47:07Z</time>
      </trkpt>
      <trkpt lat="45.62608" lon="6.65423">
        <ele>2439.96</ele>
        <time>2018-02-06T13:47:10Z</time>
      </trkpt>
      <trkpt lat="45.62608" lon="6.65426">
        <ele>2440.44</ele>
        <time>2018-02-06T13:47:11Z</time>
      </trkpt>
      <trkpt lat="45.62619" lon="6.65429">
        <ele>2437.08</ele>
        <time>2018-02-06T13:47:15Z</time>
      </trkpt>
      <trkpt lat="45.62619" lon="6.65439">
        <ele>2433.71</ele>
        <time>2018-02-06T13:47:17Z</time>
      </trkpt>
      <trkpt lat="45.62616" lon="6.65446">
        <ele>2430.83</ele>
        <time>2018-02-06T13:47:18Z</time>
      </trkpt>
      <trkpt lat="45.62609" lon="6.65456">
        <ele>2427.47</ele>
        <time>2018-02-06T13:47:23Z</time>
      </trkpt>
      <trkpt lat="45.62607" lon="6.65455">
        <ele>2427.47</ele>
        <time>2018-02-06T13:47:36Z</time>
      </trkpt>
      <trkpt lat="45.62589" lon="6.65465">
        <ele>2423.62</ele>
        <time>2018-02-06T13:47:44Z</time>
      </trkpt>
      <trkpt lat="45.62587" lon="6.65484">
        <ele>2419.3</ele>
        <time>2018-02-06T13:47:47Z</time>
      </trkpt>
      <trkpt lat="45.62587" lon="6.65498">
        <ele>2417.37</ele>
        <time>2018-02-06T13:47:49Z</time>
      </trkpt>
      <trkpt lat="45.62587" lon="6.65515">
        <ele>2414.01</ele>
        <time>2018-02-06T13:47:52Z</time>
      </trkpt>
      <trkpt lat="45.62586" lon="6.65527">
        <ele>2412.57</ele>
        <time>2018-02-06T13:47:54Z</time>
      </trkpt>
      <trkpt lat="45.62586" lon="6.65549">
        <ele>2410.16</ele>
        <time>2018-02-06T13:47:57Z</time>
      </trkpt>
      <trkpt lat="45.62581" lon="6.65556">
        <ele>2405.36</ele>
        <time>2018-02-06T13:48:00Z</time>
      </trkpt>
      <trkpt lat="45.62581" lon="6.65555">
        <ele>2403.91</ele>
        <time>2018-02-06T13:48:14Z</time>
      </trkpt>
      <trkpt lat="45.62582" lon="6.65553">
        <ele>2405.36</ele>
        <time>2018-02-06T13:48:33Z</time>
      </trkpt>
      <trkpt lat="45.62581" lon="6.65555">
        <ele>2405.84</ele>
        <time>2018-02-06T13:48:40Z</time>
      </trkpt>
      <trkpt lat="45.62578" lon="6.65565">
        <ele>2403.91</ele>
        <time>2018-02-06T13:48:43Z</time>
      </trkpt>
      <trkpt lat="45.62581" lon="6.65574">
        <ele>2402.95</ele>
        <time>2018-02-06T13:48:45Z</time>
      </trkpt>
      <trkpt lat="45.62571" lon="6.65579">
        <ele>2397.18</ele>
        <time>2018-02-06T13:48:48Z</time>
      </trkpt>
      <trkpt lat="45.6257" lon="6.65589">
        <ele>2395.26</ele>
        <time>2018-02-06T13:48:52Z</time>
      </trkpt>
      <trkpt lat="45.62576" lon="6.65598">
        <ele>2392.38</ele>
        <time>2018-02-06T13:48:55Z</time>
      </trkpt>
      <trkpt lat="45.62569" lon="6.65606">
        <ele>2387.57</ele>
        <time>2018-02-06T13:48:57Z</time>
      </trkpt>
      <trkpt lat="45.62562" lon="6.65608">
        <ele>2383.73</ele>
        <time>2018-02-06T13:48:59Z</time>
      </trkpt>
      <trkpt lat="45.62559" lon="6.65608">
        <ele>2384.21</ele>
        <time>2018-02-06T13:49:00Z</time>
      </trkpt>
      <trkpt lat="45.62557" lon="6.65609">
        <ele>2383.25</ele>
        <time>2018-02-06T13:49:01Z</time>
      </trkpt>
      <trkpt lat="45.62546" lon="6.65614">
        <ele>2380.84</ele>
        <time>2018-02-06T13:49:05Z</time>
      </trkpt>
      <trkpt lat="45.62548" lon="6.65629">
        <ele>2376.04</ele>
        <time>2018-02-06T13:49:08Z</time>
      </trkpt>
      <trkpt lat="45.62545" lon="6.65644">
        <ele>2372.67</ele>
        <time>2018-02-06T13:49:10Z</time>
      </trkpt>
      <trkpt lat="45.62542" lon="6.65644">
        <ele>2369.79</ele>
        <time>2018-02-06T13:49:11Z</time>
      </trkpt>
      <trkpt lat="45.62537" lon="6.65653">
        <ele>2364.5</ele>
        <time>2018-02-06T13:49:15Z</time>
      </trkpt>
      <trkpt lat="45.6254" lon="6.65656">
        <ele>2362.58</ele>
        <time>2018-02-06T13:49:16Z</time>
      </trkpt>
      <trkpt lat="45.62535" lon="6.65666">
        <ele>2356.81</ele>
        <time>2018-02-06T13:49:19Z</time>
      </trkpt>
      <trkpt lat="45.62531" lon="6.65665">
        <ele>2356.33</ele>
        <time>2018-02-06T13:49:20Z</time>
      </trkpt>
      <trkpt lat="45.62527" lon="6.65678">
        <ele>2351.04</ele>
        <time>2018-02-06T13:49:23Z</time>
      </trkpt>
      <trkpt lat="45.62533" lon="6.65691">
        <ele>2345.75</ele>
        <time>2018-02-06T13:49:25Z</time>
      </trkpt>
      <trkpt lat="45.62532" lon="6.65698">
        <ele>2341.91</ele>
        <time>2018-02-06T13:49:27Z</time>
      </trkpt>
      <trkpt lat="45.62522" lon="6.65711">
        <ele>2335.18</ele>
        <time>2018-02-06T13:49:30Z</time>
      </trkpt>
      <trkpt lat="45.62522" lon="6.65735">
        <ele>2332.3</ele>
        <time>2018-02-06T13:49:33Z</time>
      </trkpt>
      <trkpt lat="45.62523" lon="6.65742">
        <ele>2331.33</ele>
        <time>2018-02-06T13:49:40Z</time>
      </trkpt>
      <trkpt lat="45.62521" lon="6.65743">
        <ele>2330.85</ele>
        <time>2018-02-06T13:49:43Z</time>
      </trkpt>
      <trkpt lat="45.62512" lon="6.6575">
        <ele>2330.37</ele>
        <time>2018-02-06T13:49:49Z</time>
      </trkpt>
      <trkpt lat="45.62513" lon="6.6575">
        <ele>2329.41</ele>
        <time>2018-02-06T13:50:03Z</time>
      </trkpt>
      <trkpt lat="45.62514" lon="6.65751">
        <ele>2330.37</ele>
        <time>2018-02-06T13:50:05Z</time>
      </trkpt>
      <trkpt lat="45.62513" lon="6.65751">
        <ele>2329.41</ele>
        <time>2018-02-06T13:50:27Z</time>
      </trkpt>
      <trkpt lat="45.62513" lon="6.6575">
        <ele>2329.41</ele>
        <time>2018-02-06T13:50:51Z</time>
      </trkpt>
      <trkpt lat="45.62513" lon="6.6575">
        <ele>2330.37</ele>
        <time>2018-02-06T13:51:18Z</time>
      </trkpt>
      <trkpt lat="45.62515" lon="6.65751">
        <ele>2331.33</ele>
        <time>2018-02-06T13:51:45Z</time>
      </trkpt>
      <trkpt lat="45.62515" lon="6.65751">
        <ele>2330.37</ele>
        <time>2018-02-06T13:52:10Z</time>
      </trkpt>
      <trkpt lat="45.62516" lon="6.65752">
        <ele>2329.89</ele>
        <time>2018-02-06T13:52:40Z</time>
      </trkpt>
      <trkpt lat="45.62515" lon="6.65751">
        <ele>2330.85</ele>
        <time>2018-02-06T13:53:10Z</time>
      </trkpt>
      <trkpt lat="45.62514" lon="6.65751">
        <ele>2328.93</ele>
        <time>2018-02-06T13:53:29Z</time>
      </trkpt>
      <trkpt lat="45.62514" lon="6.6575">
        <ele>2329.41</ele>
        <time>2018-02-06T13:53:48Z</time>
      </trkpt>
      <trkpt lat="45.62515" lon="6.65748">
        <ele>2327.97</ele>
        <time>2018-02-06T13:54:13Z</time>
      </trkpt>
      <trkpt lat="45.62516" lon="6.65745">
        <ele>2327.97</ele>
        <time>2018-02-06T13:54:49Z</time>
      </trkpt>
      <trkpt lat="45.62517" lon="6.65745">
        <ele>2327.97</ele>
        <time>2018-02-06T13:55:24Z</time>
      </trkpt>
      <trkpt lat="45.62517" lon="6.65748">
        <ele>2327.97</ele>
        <time>2018-02-06T13:55:51Z</time>
      </trkpt>
      <trkpt lat="45.62517" lon="6.65748">
        <ele>2327.49</ele>
        <time>2018-02-06T13:56:23Z</time>
      </trkpt>
      <trkpt lat="45.62516" lon="6.65749">
        <ele>2327.97</ele>
        <time>2018-02-06T13:57:05Z</time>
      </trkpt>
      <trkpt lat="45.62516" lon="6.65748">
        <ele>2327.49</ele>
        <time>2018-02-06T13:57:40Z</time>
      </trkpt>
      <trkpt lat="45.62512" lon="6.65748">
        <ele>2327.49</ele>
        <time>2018-02-06T13:58:19Z</time>
      </trkpt>
      <trkpt lat="45.62513" lon="6.65752">
        <ele>2327.97</ele>
        <time>2018-02-06T13:59:04Z</time>
      </trkpt>
      <trkpt lat="45.62516" lon="6.65752">
        <ele>2328.45</ele>
        <time>2018-02-06T13:59:54Z</time>
      </trkpt>
      <trkpt lat="45.62515" lon="6.65751">
        <ele>2327.97</ele>
        <time>2018-02-06T14:00:23Z</time>
      </trkpt>
      <trkpt lat="45.62513" lon="6.65748">
        <ele>2327.49</ele>
        <time>2018-02-06T14:01:04Z</time>
      </trkpt>
      <trkpt lat="45.62515" lon="6.65749">
        <ele>2327.01</ele>
        <time>2018-02-06T14:01:37Z</time>
      </trkpt>
      <trkpt lat="45.62517" lon="6.65746">
        <ele>2327.97</ele>
        <time>2018-02-06T14:02:09Z</time>
      </trkpt>
      <trkpt lat="45.62516" lon="6.65746">
        <ele>2327.49</ele>
        <time>2018-02-06T14:02:44Z</time>
      </trkpt>
      <trkpt lat="45.62515" lon="6.65746">
        <ele>2328.45</ele>
        <time>2018-02-06T14:03:12Z</time>
      </trkpt>
      <trkpt lat="45.62514" lon="6.65747">
        <ele>2329.41</ele>
        <time>2018-02-06T14:03:24Z</time>
      </trkpt>
      <trkpt lat="45.62514" lon="6.65745">
        <ele>2328.45</ele>
        <time>2018-02-06T14:03:47Z</time>
      </trkpt>
      <trkpt lat="45.62521" lon="6.6574">
        <ele>2331.33</ele>
        <time>2018-02-06T14:03:59Z</time>
      </trkpt>
      <trkpt lat="45.62527" lon="6.65732">
        <ele>2332.3</ele>
        <time>2018-02-06T14:04:17Z</time>
      </trkpt>
      <trkpt lat="45.62531" lon="6.65726">
        <ele>2334.22</ele>
        <time>2018-02-06T14:04:29Z</time>
      </trkpt>
      <trkpt lat="45.62534" lon="6.65722">
        <ele>2333.74</ele>
        <time>2018-02-06T14:04:51Z</time>
      </trkpt>
      <trkpt lat="45.62538" lon="6.65726">
        <ele>2335.66</ele>
        <time>2018-02-06T14:05:06Z</time>
      </trkpt>
      <trkpt lat="45.62541" lon="6.65736">
        <ele>2337.58</ele>
        <time>2018-02-06T14:05:18Z</time>
      </trkpt>
      <trkpt lat="45.62543" lon="6.65727">
        <ele>2339.51</ele>
        <time>2018-02-06T14:05:30Z</time>
      </trkpt>
      <trkpt lat="45.62548" lon="6.65726">
        <ele>2341.43</ele>
        <time>2018-02-06T14:05:41Z</time>
      </trkpt>
      <trkpt lat="45.62553" lon="6.65731">
        <ele>2343.83</ele>
        <time>2018-02-06T14:05:54Z</time>
      </trkpt>
      <trkpt lat="45.62558" lon="6.65736">
        <ele>2345.27</ele>
        <time>2018-02-06T14:06:07Z</time>
      </trkpt>
      <trkpt lat="45.62562" lon="6.65731">
        <ele>2347.2</ele>
        <time>2018-02-06T14:06:19Z</time>
      </trkpt>
      <trkpt lat="45.62564" lon="6.6572">
        <ele>2349.12</ele>
        <time>2018-02-06T14:06:35Z</time>
      </trkpt>
      <trkpt lat="45.62568" lon="6.65711">
        <ele>2350.56</ele>
        <time>2018-02-06T14:06:49Z</time>
      </trkpt>
      <trkpt lat="45.62576" lon="6.65707">
        <ele>2352.48</ele>
        <time>2018-02-06T14:07:03Z</time>
      </trkpt>
      <trkpt lat="45.62585" lon="6.65706">
        <ele>2354.41</ele>
        <time>2018-02-06T14:07:18Z</time>
      </trkpt>
      <trkpt lat="45.62591" lon="6.65704">
        <ele>2355.37</ele>
        <time>2018-02-06T14:07:31Z</time>
      </trkpt>
      <trkpt lat="45.62593" lon="6.65695">
        <ele>2357.29</ele>
        <time>2018-02-06T14:07:46Z</time>
      </trkpt>
      <trkpt lat="45.62594" lon="6.65684">
        <ele>2357.77</ele>
        <time>2018-02-06T14:08:00Z</time>
      </trkpt>
      <trkpt lat="45.62596" lon="6.65674">
        <ele>2360.17</ele>
        <time>2018-02-06T14:08:13Z</time>
      </trkpt>
      <trkpt lat="45.62604" lon="6.65671">
        <ele>2361.62</ele>
        <time>2018-02-06T14:08:27Z</time>
      </trkpt>
      <trkpt lat="45.6261" lon="6.65673">
        <ele>2363.06</ele>
        <time>2018-02-06T14:08:40Z</time>
      </trkpt>
      <trkpt lat="45.62617" lon="6.65675">
        <ele>2364.98</ele>
        <time>2018-02-06T14:08:53Z</time>
      </trkpt>
      <trkpt lat="45.62621" lon="6.65672">
        <ele>2365.94</ele>
        <time>2018-02-06T14:09:07Z</time>
      </trkpt>
      <trkpt lat="45.62619" lon="6.65662">
        <ele>2368.35</ele>
        <time>2018-02-06T14:09:20Z</time>
      </trkpt>
      <trkpt lat="45.62621" lon="6.65655">
        <ele>2371.23</ele>
        <time>2018-02-06T14:09:34Z</time>
      </trkpt>
      <trkpt lat="45.62627" lon="6.65658">
        <ele>2373.15</ele>
        <time>2018-02-06T14:09:46Z</time>
      </trkpt>
      <trkpt lat="45.62634" lon="6.65659">
        <ele>2374.11</ele>
        <time>2018-02-06T14:09:59Z</time>
      </trkpt>
      <trkpt lat="45.62634" lon="6.65653">
        <ele>2376.52</ele>
        <time>2018-02-06T14:10:11Z</time>
      </trkpt>
      <trkpt lat="45.62631" lon="6.65645">
        <ele>2377.48</ele>
        <time>2018-02-06T14:10:23Z</time>
      </trkpt>
      <trkpt lat="45.62633" lon="6.65641">
        <ele>2378.44</ele>
        <time>2018-02-06T14:10:35Z</time>
      </trkpt>
      <trkpt lat="45.62642" lon="6.65644">
        <ele>2380.36</ele>
        <time>2018-02-06T14:10:50Z</time>
      </trkpt>
      <trkpt lat="45.62642" lon="6.65639">
        <ele>2381.8</ele>
        <time>2018-02-06T14:11:02Z</time>
      </trkpt>
      <trkpt lat="45.62639" lon="6.65631">
        <ele>2383.73</ele>
        <time>2018-02-06T14:11:16Z</time>
      </trkpt>
      <trkpt lat="45.62637" lon="6.65623">
        <ele>2385.65</ele>
        <time>2018-02-06T14:11:31Z</time>
      </trkpt>
      <trkpt lat="45.62638" lon="6.65618">
        <ele>2387.09</ele>
        <time>2018-02-06T14:11:42Z</time>
      </trkpt>
      <trkpt lat="45.62645" lon="6.65617">
        <ele>2389.01</ele>
        <time>2018-02-06T14:11:56Z</time>
      </trkpt>
      <trkpt lat="45.62653" lon="6.6562">
        <ele>2390.46</ele>
        <time>2018-02-06T14:12:10Z</time>
      </trkpt>
      <trkpt lat="45.62659" lon="6.65624">
        <ele>2391.9</ele>
        <time>2018-02-06T14:12:22Z</time>
      </trkpt>
      <trkpt lat="45.62666" lon="6.6563">
        <ele>2394.3</ele>
        <time>2018-02-06T14:12:40Z</time>
      </trkpt>
      <trkpt lat="45.62671" lon="6.65636">
        <ele>2396.22</ele>
        <time>2018-02-06T14:12:55Z</time>
      </trkpt>
      <trkpt lat="45.62677" lon="6.6564">
        <ele>2398.15</ele>
        <time>2018-02-06T14:13:09Z</time>
      </trkpt>
      <trkpt lat="45.62682" lon="6.6564">
        <ele>2399.11</ele>
        <time>2018-02-06T14:13:22Z</time>
      </trkpt>
      <trkpt lat="45.62681" lon="6.65634">
        <ele>2401.03</ele>
        <time>2018-02-06T14:13:33Z</time>
      </trkpt>
      <trkpt lat="45.62683" lon="6.65628">
        <ele>2402.95</ele>
        <time>2018-02-06T14:13:46Z</time>
      </trkpt>
      <trkpt lat="45.62687" lon="6.65623">
        <ele>2404.88</ele>
        <time>2018-02-06T14:13:59Z</time>
      </trkpt>
      <trkpt lat="45.6269" lon="6.65618">
        <ele>2406.8</ele>
        <time>2018-02-06T14:14:11Z</time>
      </trkpt>
      <trkpt lat="45.62694" lon="6.65614">
        <ele>2408.24</ele>
        <time>2018-02-06T14:14:24Z</time>
      </trkpt>
      <trkpt lat="45.62697" lon="6.6561">
        <ele>2409.68</ele>
        <time>2018-02-06T14:14:36Z</time>
      </trkpt>
      <trkpt lat="45.62702" lon="6.65607">
        <ele>2411.12</ele>
        <time>2018-02-06T14:14:48Z</time>
      </trkpt>
      <trkpt lat="45.62708" lon="6.65605">
        <ele>2412.57</ele>
        <time>2018-02-06T14:15:00Z</time>
      </trkpt>
      <trkpt lat="45.62714" lon="6.65603">
        <ele>2414.01</ele>
        <time>2018-02-06T14:15:13Z</time>
      </trkpt>
      <trkpt lat="45.6272" lon="6.65597">
        <ele>2415.45</ele>
        <time>2018-02-06T14:15:28Z</time>
      </trkpt>
      <trkpt lat="45.62724" lon="6.65593">
        <ele>2417.37</ele>
        <time>2018-02-06T14:15:41Z</time>
      </trkpt>
      <trkpt lat="45.62725" lon="6.65604">
        <ele>2419.78</ele>
        <time>2018-02-06T14:15:57Z</time>
      </trkpt>
      <trkpt lat="45.62729" lon="6.65612">
        <ele>2421.22</ele>
        <time>2018-02-06T14:16:11Z</time>
      </trkpt>
      <trkpt lat="45.62733" lon="6.65622">
        <ele>2423.14</ele>
        <time>2018-02-06T14:16:26Z</time>
      </trkpt>
      <trkpt lat="45.62735" lon="6.65632">
        <ele>2423.62</ele>
        <time>2018-02-06T14:16:37Z</time>
      </trkpt>
      <trkpt lat="45.62737" lon="6.65644">
        <ele>2424.58</ele>
        <time>2018-02-06T14:16:52Z</time>
      </trkpt>
      <trkpt lat="45.62739" lon="6.6565">
        <ele>2424.58</ele>
        <time>2018-02-06T14:17:00Z</time>
      </trkpt>
      <trkpt lat="45.6274" lon="6.65659">
        <ele>2423.62</ele>
        <time>2018-02-06T14:17:05Z</time>
      </trkpt>
      <trkpt lat="45.62741" lon="6.65669">
        <ele>2422.66</ele>
        <time>2018-02-06T14:17:09Z</time>
      </trkpt>
      <trkpt lat="45.62741" lon="6.65689">
        <ele>2420.74</ele>
        <time>2018-02-06T14:17:22Z</time>
      </trkpt>
      <trkpt lat="45.62741" lon="6.65708">
        <ele>2421.7</ele>
        <time>2018-02-06T14:17:39Z</time>
      </trkpt>
      <trkpt lat="45.6274" lon="6.65722">
        <ele>2422.66</ele>
        <time>2018-02-06T14:17:54Z</time>
      </trkpt>
      <trkpt lat="45.62738" lon="6.65734">
        <ele>2424.1</ele>
        <time>2018-02-06T14:18:10Z</time>
      </trkpt>
      <trkpt lat="45.62735" lon="6.6575">
        <ele>2426.99</ele>
        <time>2018-02-06T14:18:29Z</time>
      </trkpt>
      <trkpt lat="45.62732" lon="6.65764">
        <ele>2427.47</ele>
        <time>2018-02-06T14:18:44Z</time>
      </trkpt>
      <trkpt lat="45.62728" lon="6.6578">
        <ele>2428.91</ele>
        <time>2018-02-06T14:19:02Z</time>
      </trkpt>
      <trkpt lat="45.62726" lon="6.65788">
        <ele>2429.39</ele>
        <time>2018-02-06T14:19:11Z</time>
      </trkpt>
      <trkpt lat="45.62726" lon="6.6579">
        <ele>2427.95</ele>
        <time>2018-02-06T14:19:13Z</time>
      </trkpt>
      <trkpt lat="45.62727" lon="6.65794">
        <ele>2431.79</ele>
        <time>2018-02-06T14:19:18Z</time>
      </trkpt>
      <trkpt lat="45.62727" lon="6.65795">
        <ele>2431.79</ele>
        <time>2018-02-06T14:19:19Z</time>
      </trkpt>
      <trkpt lat="45.6273" lon="6.65797">
        <ele>2428.43</ele>
        <time>2018-02-06T14:19:36Z</time>
      </trkpt>
      <trkpt lat="45.6273" lon="6.65795">
        <ele>2429.87</ele>
        <time>2018-02-06T14:19:54Z</time>
      </trkpt>
      <trkpt lat="45.6273" lon="6.65795">
        <ele>2427.95</ele>
        <time>2018-02-06T14:19:56Z</time>
      </trkpt>
      <trkpt lat="45.62731" lon="6.65796">
        <ele>2431.79</ele>
        <time>2018-02-06T14:19:58Z</time>
      </trkpt>
      <trkpt lat="45.6273" lon="6.65796">
        <ele>2431.79</ele>
        <time>2018-02-06T14:19:59Z</time>
      </trkpt>
      <trkpt lat="45.6273" lon="6.65798">
        <ele>2428.43</ele>
        <time>2018-02-06T14:20:03Z</time>
      </trkpt>
      <trkpt lat="45.62728" lon="6.65799">
        <ele>2431.31</ele>
        <time>2018-02-06T14:20:07Z</time>
      </trkpt>
      <trkpt lat="45.62728" lon="6.65799">
        <ele>2431.31</ele>
        <time>2018-02-06T14:20:08Z</time>
      </trkpt>
      <trkpt lat="45.62725" lon="6.65798">
        <ele>2431.79</ele>
        <time>2018-02-06T14:20:12Z</time>
      </trkpt>
      <trkpt lat="45.62723" lon="6.65798">
        <ele>2432.75</ele>
        <time>2018-02-06T14:20:19Z</time>
      </trkpt>
      <trkpt lat="45.62715" lon="6.658">
        <ele>2430.35</ele>
        <time>2018-02-06T14:20:30Z</time>
      </trkpt>
      <trkpt lat="45.62714" lon="6.658">
        <ele>2430.83</ele>
        <time>2018-02-06T14:20:32Z</time>
      </trkpt>
      <trkpt lat="45.62705" lon="6.658">
        <ele>2430.83</ele>
        <time>2018-02-06T14:20:47Z</time>
      </trkpt>
      <trkpt lat="45.62697" lon="6.65801">
        <ele>2432.75</ele>
        <time>2018-02-06T14:21:00Z</time>
      </trkpt>
      <trkpt lat="45.62698" lon="6.65808">
        <ele>2434.2</ele>
        <time>2018-02-06T14:21:11Z</time>
      </trkpt>
      <trkpt lat="45.62699" lon="6.65817">
        <ele>2436.12</ele>
        <time>2018-02-06T14:21:25Z</time>
      </trkpt>
      <trkpt lat="45.62698" lon="6.65817">
        <ele>2434.68</ele>
        <time>2018-02-06T14:21:46Z</time>
      </trkpt>
      <trkpt lat="45.62696" lon="6.65832">
        <ele>2435.16</ele>
        <time>2018-02-06T14:22:02Z</time>
      </trkpt>
      <trkpt lat="45.62698" lon="6.65845">
        <ele>2435.16</ele>
        <time>2018-02-06T14:22:16Z</time>
      </trkpt>
      <trkpt lat="45.62699" lon="6.65848">
        <ele>2433.23</ele>
        <time>2018-02-06T14:22:31Z</time>
      </trkpt>
      <trkpt lat="45.62699" lon="6.65847">
        <ele>2436.12</ele>
        <time>2018-02-06T14:22:41Z</time>
      </trkpt>
      <trkpt lat="45.62702" lon="6.65842">
        <ele>2437.08</ele>
        <time>2018-02-06T14:22:59Z</time>
      </trkpt>
      <trkpt lat="45.62704" lon="6.65842">
        <ele>2435.16</ele>
        <time>2018-02-06T14:23:11Z</time>
      </trkpt>
      <trkpt lat="45.62705" lon="6.6584">
        <ele>2434.68</ele>
        <time>2018-02-06T14:23:37Z</time>
      </trkpt>
      <trkpt lat="45.62707" lon="6.65838">
        <ele>2434.68</ele>
        <time>2018-02-06T14:23:52Z</time>
      </trkpt>
      <trkpt lat="45.62707" lon="6.65835">
        <ele>2434.68</ele>
        <time>2018-02-06T14:24:08Z</time>
      </trkpt>
      <trkpt lat="45.62704" lon="6.65827">
        <ele>2434.68</ele>
        <time>2018-02-06T14:24:25Z</time>
      </trkpt>
      <trkpt lat="45.62703" lon="6.65826">
        <ele>2434.68</ele>
        <time>2018-02-06T14:24:46Z</time>
      </trkpt>
      <trkpt lat="45.62703" lon="6.65826">
        <ele>2434.68</ele>
        <time>2018-02-06T14:25:09Z</time>
      </trkpt>
      <trkpt lat="45.62703" lon="6.65829">
        <ele>2434.2</ele>
        <time>2018-02-06T14:25:26Z</time>
      </trkpt>
      <trkpt lat="45.62704" lon="6.6583">
        <ele>2433.71</ele>
        <time>2018-02-06T14:25:51Z</time>
      </trkpt>
      <trkpt lat="45.62705" lon="6.65832">
        <ele>2433.23</ele>
        <time>2018-02-06T14:26:14Z</time>
      </trkpt>
      <trkpt lat="45.62705" lon="6.6583">
        <ele>2433.23</ele>
        <time>2018-02-06T14:26:52Z</time>
      </trkpt>
      <trkpt lat="45.62702" lon="6.65829">
        <ele>2434.2</ele>
        <time>2018-02-06T14:27:22Z</time>
      </trkpt>
      <trkpt lat="45.62701" lon="6.65828">
        <ele>2433.71</ele>
        <time>2018-02-06T14:27:52Z</time>
      </trkpt>
      <trkpt lat="45.62702" lon="6.65831">
        <ele>2433.71</ele>
        <time>2018-02-06T14:28:32Z</time>
      </trkpt>
      <trkpt lat="45.627" lon="6.65831">
        <ele>2433.71</ele>
        <time>2018-02-06T14:29:04Z</time>
      </trkpt>
      <trkpt lat="45.62702" lon="6.65833">
        <ele>2433.23</ele>
        <time>2018-02-06T14:29:31Z</time>
      </trkpt>
      <trkpt lat="45.62699" lon="6.65833">
        <ele>2433.23</ele>
        <time>2018-02-06T14:29:52Z</time>
      </trkpt>
      <trkpt lat="45.62699" lon="6.65829">
        <ele>2433.23</ele>
        <time>2018-02-06T14:30:20Z</time>
      </trkpt>
      <trkpt lat="45.627" lon="6.65829">
        <ele>2433.23</ele>
        <time>2018-02-06T14:30:47Z</time>
      </trkpt>
      <trkpt lat="45.62701" lon="6.65831">
        <ele>2433.71</ele>
        <time>2018-02-06T14:31:10Z</time>
      </trkpt>
      <trkpt lat="45.62703" lon="6.65832">
        <ele>2433.71</ele>
        <time>2018-02-06T14:31:30Z</time>
      </trkpt>
      <trkpt lat="45.62701" lon="6.6583">
        <ele>2433.71</ele>
        <time>2018-02-06T14:31:54Z</time>
      </trkpt>
      <trkpt lat="45.62697" lon="6.6583">
        <ele>2434.2</ele>
        <time>2018-02-06T14:32:16Z</time>
      </trkpt>
      <trkpt lat="45.627" lon="6.65828">
        <ele>2433.71</ele>
        <time>2018-02-06T14:32:34Z</time>
      </trkpt>
      <trkpt lat="45.62703" lon="6.65828">
        <ele>2435.16</ele>
        <time>2018-02-06T14:32:48Z</time>
      </trkpt>
      <trkpt lat="45.62703" lon="6.65828">
        <ele>2435.16</ele>
        <time>2018-02-06T14:33:03Z</time>
      </trkpt>
      <trkpt lat="45.62704" lon="6.65829">
        <ele>2435.16</ele>
        <time>2018-02-06T14:33:28Z</time>
      </trkpt>
      <trkpt lat="45.62703" lon="6.65829">
        <ele>2436.12</ele>
        <time>2018-02-06T14:33:48Z</time>
      </trkpt>
      <trkpt lat="45.62703" lon="6.65828">
        <ele>2435.64</ele>
        <time>2018-02-06T14:34:06Z</time>
      </trkpt>
      <trkpt lat="45.62703" lon="6.65827">
        <ele>2435.64</ele>
        <time>2018-02-06T14:34:17Z</time>
      </trkpt>
      <trkpt lat="45.62705" lon="6.65812">
        <ele>2432.75</ele>
        <time>2018-02-06T14:34:24Z</time>
      </trkpt>
      <trkpt lat="45.62717" lon="6.65808">
        <ele>2428.43</ele>
        <time>2018-02-06T14:34:32Z</time>
      </trkpt>
      <trkpt lat="45.6272" lon="6.6583">
        <ele>2426.02</ele>
        <time>2018-02-06T14:34:46Z</time>
      </trkpt>
      <trkpt lat="45.62722" lon="6.65838">
        <ele>2425.54</ele>
        <time>2018-02-06T14:35:02Z</time>
      </trkpt>
      <trkpt lat="45.62723" lon="6.6584">
        <ele>2425.06</ele>
        <time>2018-02-06T14:35:20Z</time>
      </trkpt>
      <trkpt lat="45.62724" lon="6.65848">
        <ele>2424.1</ele>
        <time>2018-02-06T14:35:25Z</time>
      </trkpt>
      <trkpt lat="45.62729" lon="6.65847">
        <ele>2421.7</ele>
        <time>2018-02-06T14:35:29Z</time>
      </trkpt>
      <trkpt lat="45.62733" lon="6.65842">
        <ele>2420.26</ele>
        <time>2018-02-06T14:35:38Z</time>
      </trkpt>
      <trkpt lat="45.62734" lon="6.65841">
        <ele>2419.78</ele>
        <time>2018-02-06T14:36:03Z</time>
      </trkpt>
      <trkpt lat="45.62733" lon="6.65842">
        <ele>2419.78</ele>
        <time>2018-02-06T14:36:19Z</time>
      </trkpt>
      <trkpt lat="45.62733" lon="6.6585">
        <ele>2418.81</ele>
        <time>2018-02-06T14:36:23Z</time>
      </trkpt>
      <trkpt lat="45.62733" lon="6.65851">
        <ele>2418.33</ele>
        <time>2018-02-06T14:36:27Z</time>
      </trkpt>
      <trkpt lat="45.62741" lon="6.65849">
        <ele>2416.89</ele>
        <time>2018-02-06T14:36:31Z</time>
      </trkpt>
      <trkpt lat="45.62742" lon="6.65849">
        <ele>2416.89</ele>
        <time>2018-02-06T14:36:32Z</time>
      </trkpt>
      <trkpt lat="45.62743" lon="6.6585">
        <ele>2415.45</ele>
        <time>2018-02-06T14:36:45Z</time>
      </trkpt>
      <trkpt lat="45.62745" lon="6.65852">
        <ele>2414.01</ele>
        <time>2018-02-06T14:36:59Z</time>
      </trkpt>
      <trkpt lat="45.62745" lon="6.65853">
        <ele>2413.53</ele>
        <time>2018-02-06T14:37:20Z</time>
      </trkpt>
      <trkpt lat="45.62744" lon="6.65852">
        <ele>2414.01</ele>
        <time>2018-02-06T14:37:40Z</time>
      </trkpt>
      <trkpt lat="45.62743" lon="6.6585">
        <ele>2414.01</ele>
        <time>2018-02-06T14:38:00Z</time>
      </trkpt>
      <trkpt lat="45.62744" lon="6.65852">
        <ele>2414.01</ele>
        <time>2018-02-06T14:38:19Z</time>
      </trkpt>
      <trkpt lat="45.62745" lon="6.65851">
        <ele>2414.97</ele>
        <time>2018-02-06T14:38:44Z</time>
      </trkpt>
      <trkpt lat="45.62744" lon="6.65852">
        <ele>2416.89</ele>
        <time>2018-02-06T14:39:02Z</time>
      </trkpt>
      <trkpt lat="45.62744" lon="6.65851">
        <ele>2415.45</ele>
        <time>2018-02-06T14:39:05Z</time>
      </trkpt>
      <trkpt lat="45.62743" lon="6.6585">
        <ele>2416.41</ele>
        <time>2018-02-06T14:39:21Z</time>
      </trkpt>
      <trkpt lat="45.62742" lon="6.65852">
        <ele>2415.93</ele>
        <time>2018-02-06T14:39:35Z</time>
      </trkpt>
      <trkpt lat="45.62741" lon="6.65852">
        <ele>2417.85</ele>
        <time>2018-02-06T14:39:47Z</time>
      </trkpt>
      <trkpt lat="45.6274" lon="6.65852">
        <ele>2417.37</ele>
        <time>2018-02-06T14:40:03Z</time>
      </trkpt>
      <trkpt lat="45.62739" lon="6.6585">
        <ele>2418.81</ele>
        <time>2018-02-06T14:40:21Z</time>
      </trkpt>
      <trkpt lat="45.62738" lon="6.65849">
        <ele>2418.81</ele>
        <time>2018-02-06T14:40:35Z</time>
      </trkpt>
      <trkpt lat="45.62735" lon="6.65849">
        <ele>2420.26</ele>
        <time>2018-02-06T14:40:50Z</time>
      </trkpt>
      <trkpt lat="45.62734" lon="6.65847">
        <ele>2420.26</ele>
        <time>2018-02-06T14:41:04Z</time>
      </trkpt>
      <trkpt lat="45.62733" lon="6.65846">
        <ele>2420.26</ele>
        <time>2018-02-06T14:41:18Z</time>
      </trkpt>
      <trkpt lat="45.62733" lon="6.65845">
        <ele>2420.74</ele>
        <time>2018-02-06T14:41:31Z</time>
      </trkpt>
      <trkpt lat="45.62733" lon="6.65843">
        <ele>2421.22</ele>
        <time>2018-02-06T14:41:44Z</time>
      </trkpt>
      <trkpt lat="45.62732" lon="6.65841">
        <ele>2422.18</ele>
        <time>2018-02-06T14:41:56Z</time>
      </trkpt>
      <trkpt lat="45.62732" lon="6.6584">
        <ele>2421.22</ele>
        <time>2018-02-06T14:42:10Z</time>
      </trkpt>
      <trkpt lat="45.62732" lon="6.65839">
        <ele>2420.74</ele>
        <time>2018-02-06T14:42:23Z</time>
      </trkpt>
      <trkpt lat="45.62733" lon="6.65838">
        <ele>2421.7</ele>
        <time>2018-02-06T14:42:38Z</time>
      </trkpt>
      <trkpt lat="45.62731" lon="6.65836">
        <ele>2422.66</ele>
        <time>2018-02-06T14:42:48Z</time>
      </trkpt>
      <trkpt lat="45.6273" lon="6.65835">
        <ele>2422.66</ele>
        <time>2018-02-06T14:42:58Z</time>
      </trkpt>
      <trkpt lat="45.6273" lon="6.65834">
        <ele>2423.62</ele>
        <time>2018-02-06T14:43:08Z</time>
      </trkpt>
      <trkpt lat="45.62729" lon="6.65831">
        <ele>2422.66</ele>
        <time>2018-02-06T14:43:21Z</time>
      </trkpt>
      <trkpt lat="45.6273" lon="6.6583">
        <ele>2423.14</ele>
        <time>2018-02-06T14:43:31Z</time>
      </trkpt>
      <trkpt lat="45.62729" lon="6.65829">
        <ele>2424.1</ele>
        <time>2018-02-06T14:43:42Z</time>
      </trkpt>
      <trkpt lat="45.62726" lon="6.65828">
        <ele>2424.58</ele>
        <time>2018-02-06T14:43:56Z</time>
      </trkpt>
      <trkpt lat="45.62726" lon="6.65827">
        <ele>2425.54</ele>
        <time>2018-02-06T14:44:10Z</time>
      </trkpt>
      <trkpt lat="45.62725" lon="6.65825">
        <ele>2425.54</ele>
        <time>2018-02-06T14:44:24Z</time>
      </trkpt>
      <trkpt lat="45.62724" lon="6.65824">
        <ele>2426.02</ele>
        <time>2018-02-06T14:44:37Z</time>
      </trkpt>
      <trkpt lat="45.62724" lon="6.65822">
        <ele>2426.5</ele>
        <time>2018-02-06T14:44:48Z</time>
      </trkpt>
      <trkpt lat="45.62725" lon="6.6582">
        <ele>2426.99</ele>
        <time>2018-02-06T14:44:58Z</time>
      </trkpt>
      <trkpt lat="45.62724" lon="6.65818">
        <ele>2426.99</ele>
        <time>2018-02-06T14:45:09Z</time>
      </trkpt>
      <trkpt lat="45.62723" lon="6.65816">
        <ele>2426.99</ele>
        <time>2018-02-06T14:45:18Z</time>
      </trkpt>
      <trkpt lat="45.62725" lon="6.65813">
        <ele>2427.95</ele>
        <time>2018-02-06T14:45:31Z</time>
      </trkpt>
      <trkpt lat="45.62724" lon="6.65811">
        <ele>2427.47</ele>
        <time>2018-02-06T14:45:42Z</time>
      </trkpt>
      <trkpt lat="45.62723" lon="6.65809">
        <ele>2427.95</ele>
        <time>2018-02-06T14:45:54Z</time>
      </trkpt>
      <trkpt lat="45.62721" lon="6.65806">
        <ele>2428.43</ele>
        <time>2018-02-06T14:46:05Z</time>
      </trkpt>
      <trkpt lat="45.62721" lon="6.65805">
        <ele>2428.91</ele>
        <time>2018-02-06T14:46:14Z</time>
      </trkpt>
      <trkpt lat="45.6272" lon="6.65804">
        <ele>2429.39</ele>
        <time>2018-02-06T14:46:30Z</time>
      </trkpt>
      <trkpt lat="45.62719" lon="6.65802">
        <ele>2429.87</ele>
        <time>2018-02-06T14:46:40Z</time>
      </trkpt>
      <trkpt lat="45.6272" lon="6.65799">
        <ele>2430.83</ele>
        <time>2018-02-06T14:46:50Z</time>
      </trkpt>
      <trkpt lat="45.62722" lon="6.65799">
        <ele>2430.35</ele>
        <time>2018-02-06T14:47:02Z</time>
      </trkpt>
      <trkpt lat="45.62723" lon="6.65798">
        <ele>2429.87</ele>
        <time>2018-02-06T14:47:26Z</time>
      </trkpt>
      <trkpt lat="45.62725" lon="6.65794">
        <ele>2429.87</ele>
        <time>2018-02-06T14:47:39Z</time>
      </trkpt>
      <trkpt lat="45.62726" lon="6.65789">
        <ele>2430.35</ele>
        <time>2018-02-06T14:47:50Z</time>
      </trkpt>
      <trkpt lat="45.62725" lon="6.65789">
        <ele>2430.35</ele>
        <time>2018-02-06T14:48:03Z</time>
      </trkpt>
      <trkpt lat="45.62727" lon="6.65788">
        <ele>2430.35</ele>
        <time>2018-02-06T14:48:23Z</time>
      </trkpt>
      <trkpt lat="45.62726" lon="6.65788">
        <ele>2430.83</ele>
        <time>2018-02-06T14:48:46Z</time>
      </trkpt>
      <trkpt lat="45.62727" lon="6.65786">
        <ele>2430.35</ele>
        <time>2018-02-06T14:49:11Z</time>
      </trkpt>
      <trkpt lat="45.62727" lon="6.65786">
        <ele>2430.35</ele>
        <time>2018-02-06T14:49:45Z</time>
      </trkpt>
      <trkpt lat="45.62726" lon="6.65786">
        <ele>2429.87</ele>
        <time>2018-02-06T14:50:04Z</time>
      </trkpt>
      <trkpt lat="45.62727" lon="6.65785">
        <ele>2430.35</ele>
        <time>2018-02-06T14:50:33Z</time>
      </trkpt>
      <trkpt lat="45.62726" lon="6.65785">
        <ele>2429.87</ele>
        <time>2018-02-06T14:51:03Z</time>
      </trkpt>
      <trkpt lat="45.62726" lon="6.65786">
        <ele>2429.87</ele>
        <time>2018-02-06T14:51:24Z</time>
      </trkpt>
      <trkpt lat="45.62727" lon="6.65785">
        <ele>2429.39</ele>
        <time>2018-02-06T14:51:49Z</time>
      </trkpt>
      <trkpt lat="45.62727" lon="6.65784">
        <ele>2430.35</ele>
        <time>2018-02-06T14:52:06Z</time>
      </trkpt>
      <trkpt lat="45.62727" lon="6.65786">
        <ele>2430.35</ele>
        <time>2018-02-06T14:52:47Z</time>
      </trkpt>
      <trkpt lat="45.62729" lon="6.65787">
        <ele>2430.35</ele>
        <time>2018-02-06T14:53:15Z</time>
      </trkpt>
      <trkpt lat="45.62729" lon="6.65787">
        <ele>2430.35</ele>
        <time>2018-02-06T14:53:56Z</time>
      </trkpt>
      <trkpt lat="45.62729" lon="6.65786">
        <ele>2429.87</ele>
        <time>2018-02-06T14:54:25Z</time>
      </trkpt>
      <trkpt lat="45.62729" lon="6.65784">
        <ele>2429.87</ele>
        <time>2018-02-06T14:54:47Z</time>
      </trkpt>
      <trkpt lat="45.6273" lon="6.65777">
        <ele>2430.35</ele>
        <time>2018-02-06T14:54:51Z</time>
      </trkpt>
      <trkpt lat="45.62739" lon="6.65735">
        <ele>2426.5</ele>
        <time>2018-02-06T14:55:06Z</time>
      </trkpt>
      <trkpt lat="45.62746" lon="6.65704">
        <ele>2423.62</ele>
        <time>2018-02-06T14:55:10Z</time>
      </trkpt>
      <trkpt lat="45.62748" lon="6.65693">
        <ele>2421.7</ele>
        <time>2018-02-06T14:55:12Z</time>
      </trkpt>
      <trkpt lat="45.62756" lon="6.65678">
        <ele>2421.22</ele>
        <time>2018-02-06T14:55:20Z</time>
      </trkpt>
      <trkpt lat="45.62765" lon="6.65679">
        <ele>2419.78</ele>
        <time>2018-02-06T14:55:23Z</time>
      </trkpt>
      <trkpt lat="45.62766" lon="6.65673">
        <ele>2418.33</ele>
        <time>2018-02-06T14:55:25Z</time>
      </trkpt>
      <trkpt lat="45.62773" lon="6.65669">
        <ele>2414.49</ele>
        <time>2018-02-06T14:55:29Z</time>
      </trkpt>
      <trkpt lat="45.62774" lon="6.65674">
        <ele>2414.01</ele>
        <time>2018-02-06T14:55:30Z</time>
      </trkpt>
      <trkpt lat="45.62779" lon="6.65673">
        <ele>2412.09</ele>
        <time>2018-02-06T14:55:33Z</time>
      </trkpt>
      <trkpt lat="45.6278" lon="6.6567">
        <ele>2409.2</ele>
        <time>2018-02-06T14:55:36Z</time>
      </trkpt>
      <trkpt lat="45.62781" lon="6.65666">
        <ele>2408.72</ele>
        <time>2018-02-06T14:55:38Z</time>
      </trkpt>
      <trkpt lat="45.62791" lon="6.65669">
        <ele>2403.91</ele>
        <time>2018-02-06T14:55:42Z</time>
      </trkpt>
      <trkpt lat="45.62791" lon="6.65663">
        <ele>2402.47</ele>
        <time>2018-02-06T14:55:49Z</time>
      </trkpt>
      <trkpt lat="45.62799" lon="6.65667">
        <ele>2398.15</ele>
        <time>2018-02-06T14:55:52Z</time>
      </trkpt>
      <trkpt lat="45.62799" lon="6.65672">
        <ele>2398.15</ele>
        <time>2018-02-06T14:55:53Z</time>
      </trkpt>
      <trkpt lat="45.62801" lon="6.65676">
        <ele>2397.67</ele>
        <time>2018-02-06T14:55:56Z</time>
      </trkpt>
      <trkpt lat="45.6281" lon="6.65673">
        <ele>2393.82</ele>
        <time>2018-02-06T14:55:59Z</time>
      </trkpt>
      <trkpt lat="45.62813" lon="6.65668">
        <ele>2392.38</ele>
        <time>2018-02-06T14:56:01Z</time>
      </trkpt>
      <trkpt lat="45.62812" lon="6.65667">
        <ele>2392.86</ele>
        <time>2018-02-06T14:56:13Z</time>
      </trkpt>
      <trkpt lat="45.62814" lon="6.65667">
        <ele>2391.9</ele>
        <time>2018-02-06T14:56:16Z</time>
      </trkpt>
      <trkpt lat="45.62819" lon="6.65684">
        <ele>2388.53</ele>
        <time>2018-02-06T14:56:23Z</time>
      </trkpt>
      <trkpt lat="45.62827" lon="6.65676">
        <ele>2386.13</ele>
        <time>2018-02-06T14:56:28Z</time>
      </trkpt>
      <trkpt lat="45.6283" lon="6.65672">
        <ele>2384.21</ele>
        <time>2018-02-06T14:56:31Z</time>
      </trkpt>
      <trkpt lat="45.6283" lon="6.65672">
        <ele>2383.73</ele>
        <time>2018-02-06T14:56:32Z</time>
      </trkpt>
      <trkpt lat="45.62836" lon="6.6568">
        <ele>2379.88</ele>
        <time>2018-02-06T14:56:36Z</time>
      </trkpt>
      <trkpt lat="45.62836" lon="6.65682">
        <ele>2379.4</ele>
        <time>2018-02-06T14:56:37Z</time>
      </trkpt>
      <trkpt lat="45.62836" lon="6.65686">
        <ele>2378.92</ele>
        <time>2018-02-06T14:56:38Z</time>
      </trkpt>
      <trkpt lat="45.62841" lon="6.65684">
        <ele>2376.04</ele>
        <time>2018-02-06T14:56:42Z</time>
      </trkpt>
      <trkpt lat="45.62842" lon="6.65683">
        <ele>2375.55</ele>
        <time>2018-02-06T14:56:44Z</time>
      </trkpt>
      <trkpt lat="45.62849" lon="6.65695">
        <ele>2372.19</ele>
        <time>2018-02-06T14:56:49Z</time>
      </trkpt>
      <trkpt lat="45.62849" lon="6.65698">
        <ele>2372.19</ele>
        <time>2018-02-06T14:56:50Z</time>
      </trkpt>
      <trkpt lat="45.62855" lon="6.65697">
        <ele>2369.31</ele>
        <time>2018-02-06T14:56:55Z</time>
      </trkpt>
      <trkpt lat="45.62856" lon="6.65695">
        <ele>2368.83</ele>
        <time>2018-02-06T14:56:57Z</time>
      </trkpt>
      <trkpt lat="45.62867" lon="6.65706">
        <ele>2365.46</ele>
        <time>2018-02-06T14:57:02Z</time>
      </trkpt>
      <trkpt lat="45.62871" lon="6.65715">
        <ele>2363.54</ele>
        <time>2018-02-06T14:57:04Z</time>
      </trkpt>
      <trkpt lat="45.62879" lon="6.6571">
        <ele>2360.17</ele>
        <time>2018-02-06T14:57:07Z</time>
      </trkpt>
      <trkpt lat="45.62881" lon="6.65707">
        <ele>2359.69</ele>
        <time>2018-02-06T14:57:09Z</time>
      </trkpt>
      <trkpt lat="45.62881" lon="6.65706">
        <ele>2359.69</ele>
        <time>2018-02-06T14:57:20Z</time>
      </trkpt>
      <trkpt lat="45.6288" lon="6.65721">
        <ele>2357.77</ele>
        <time>2018-02-06T14:57:25Z</time>
      </trkpt>
      <trkpt lat="45.62898" lon="6.65725">
        <ele>2354.41</ele>
        <time>2018-02-06T14:57:30Z</time>
      </trkpt>
      <trkpt lat="45.62902" lon="6.65723">
        <ele>2352</ele>
        <time>2018-02-06T14:57:33Z</time>
      </trkpt>
      <trkpt lat="45.62903" lon="6.65723">
        <ele>2351.52</ele>
        <time>2018-02-06T14:57:36Z</time>
      </trkpt>
      <trkpt lat="45.62908" lon="6.65733">
        <ele>2349.12</ele>
        <time>2018-02-06T14:57:41Z</time>
      </trkpt>
      <trkpt lat="45.62906" lon="6.65744">
        <ele>2346.23</ele>
        <time>2018-02-06T14:57:44Z</time>
      </trkpt>
      <trkpt lat="45.62914" lon="6.65746">
        <ele>2344.31</ele>
        <time>2018-02-06T14:57:51Z</time>
      </trkpt>
      <trkpt lat="45.62918" lon="6.65749">
        <ele>2344.31</ele>
        <time>2018-02-06T14:57:53Z</time>
      </trkpt>
      <trkpt lat="45.62919" lon="6.65765">
        <ele>2338.54</ele>
        <time>2018-02-06T14:57:56Z</time>
      </trkpt>
      <trkpt lat="45.62922" lon="6.65773">
        <ele>2336.62</ele>
        <time>2018-02-06T14:57:58Z</time>
      </trkpt>
      <trkpt lat="45.62929" lon="6.65783">
        <ele>2334.22</ele>
        <time>2018-02-06T14:58:08Z</time>
      </trkpt>
      <trkpt lat="45.6293" lon="6.65783">
        <ele>2334.22</ele>
        <time>2018-02-06T14:58:29Z</time>
      </trkpt>
      <trkpt lat="45.62931" lon="6.65797">
        <ele>2334.22</ele>
        <time>2018-02-06T14:58:44Z</time>
      </trkpt>
      <trkpt lat="45.62932" lon="6.65824">
        <ele>2330.85</ele>
        <time>2018-02-06T14:58:54Z</time>
      </trkpt>
      <trkpt lat="45.6293" lon="6.65828">
        <ele>2329.89</ele>
        <time>2018-02-06T14:58:55Z</time>
      </trkpt>
      <trkpt lat="45.62923" lon="6.65845">
        <ele>2326.05</ele>
        <time>2018-02-06T14:59:03Z</time>
      </trkpt>
      <trkpt lat="45.62917" lon="6.65851">
        <ele>2321.24</ele>
        <time>2018-02-06T14:59:06Z</time>
      </trkpt>
      <trkpt lat="45.62915" lon="6.65853">
        <ele>2320.28</ele>
        <time>2018-02-06T14:59:07Z</time>
      </trkpt>
      <trkpt lat="45.62898" lon="6.65874">
        <ele>2316.91</ele>
        <time>2018-02-06T14:59:16Z</time>
      </trkpt>
      <trkpt lat="45.62894" lon="6.65879">
        <ele>2317.4</ele>
        <time>2018-02-06T14:59:18Z</time>
      </trkpt>
      <trkpt lat="45.62897" lon="6.65893">
        <ele>2313.55</ele>
        <time>2018-02-06T14:59:22Z</time>
      </trkpt>
      <trkpt lat="45.62896" lon="6.65895">
        <ele>2313.07</ele>
        <time>2018-02-06T14:59:23Z</time>
      </trkpt>
      <trkpt lat="45.629" lon="6.6591">
        <ele>2307.3</ele>
        <time>2018-02-06T14:59:29Z</time>
      </trkpt>
      <trkpt lat="45.62904" lon="6.65933">
        <ele>2303.94</ele>
        <time>2018-02-06T14:59:34Z</time>
      </trkpt>
      <trkpt lat="45.62904" lon="6.65936">
        <ele>2304.42</ele>
        <time>2018-02-06T14:59:35Z</time>
      </trkpt>
      <trkpt lat="45.62905" lon="6.65942">
        <ele>2305.38</ele>
        <time>2018-02-06T14:59:37Z</time>
      </trkpt>
      <trkpt lat="45.62905" lon="6.65942">
        <ele>2304.9</ele>
        <time>2018-02-06T14:59:39Z</time>
      </trkpt>
      <trkpt lat="45.62906" lon="6.65942">
        <ele>2302.98</ele>
        <time>2018-02-06T14:59:46Z</time>
      </trkpt>
      <trkpt lat="45.62905" lon="6.6594">
        <ele>2304.42</ele>
        <time>2018-02-06T14:59:50Z</time>
      </trkpt>
      <trkpt lat="45.62902" lon="6.6594">
        <ele>2303.94</ele>
        <time>2018-02-06T15:00:13Z</time>
      </trkpt>
      <trkpt lat="45.62905" lon="6.65943">
        <ele>2303.94</ele>
        <time>2018-02-06T15:00:16Z</time>
      </trkpt>
      <trkpt lat="45.62904" lon="6.65949">
        <ele>2302.49</ele>
        <time>2018-02-06T15:00:18Z</time>
      </trkpt>
      <trkpt lat="45.629" lon="6.65954">
        <ele>2301.05</ele>
        <time>2018-02-06T15:00:20Z</time>
      </trkpt>
      <trkpt lat="45.62908" lon="6.65964">
        <ele>2299.61</ele>
        <time>2018-02-06T15:00:26Z</time>
      </trkpt>
      <trkpt lat="45.62912" lon="6.65973">
        <ele>2296.25</ele>
        <time>2018-02-06T15:00:28Z</time>
      </trkpt>
      <trkpt lat="45.62908" lon="6.65978">
        <ele>2291.92</ele>
        <time>2018-02-06T15:00:29Z</time>
      </trkpt>
      <trkpt lat="45.62902" lon="6.6598">
        <ele>2290.48</ele>
        <time>2018-02-06T15:00:31Z</time>
      </trkpt>
      <trkpt lat="45.62889" lon="6.65987">
        <ele>2289.52</ele>
        <time>2018-02-06T15:00:39Z</time>
      </trkpt>
      <trkpt lat="45.62897" lon="6.66004">
        <ele>2285.19</ele>
        <time>2018-02-06T15:00:44Z</time>
      </trkpt>
      <trkpt lat="45.62893" lon="6.66015">
        <ele>2279.9</ele>
        <time>2018-02-06T15:00:47Z</time>
      </trkpt>
      <trkpt lat="45.62887" lon="6.66017">
        <ele>2277.98</ele>
        <time>2018-02-06T15:00:49Z</time>
      </trkpt>
      <trkpt lat="45.62875" lon="6.6602">
        <ele>2277.02</ele>
        <time>2018-02-06T15:00:56Z</time>
      </trkpt>
      <trkpt lat="45.6288" lon="6.66031">
        <ele>2276.06</ele>
        <time>2018-02-06T15:01:03Z</time>
      </trkpt>
      <trkpt lat="45.62882" lon="6.66034">
        <ele>2275.1</ele>
        <time>2018-02-06T15:01:09Z</time>
      </trkpt>
      <trkpt lat="45.62875" lon="6.66043">
        <ele>2270.29</ele>
        <time>2018-02-06T15:01:12Z</time>
      </trkpt>
      <trkpt lat="45.6287" lon="6.66041">
        <ele>2267.89</ele>
        <time>2018-02-06T15:01:14Z</time>
      </trkpt>
      <trkpt lat="45.62878" lon="6.66052">
        <ele>2265.96</ele>
        <time>2018-02-06T15:01:20Z</time>
      </trkpt>
      <trkpt lat="45.62879" lon="6.6605">
        <ele>2265.48</ele>
        <time>2018-02-06T15:01:24Z</time>
      </trkpt>
      <trkpt lat="45.62887" lon="6.66063">
        <ele>2262.6</ele>
        <time>2018-02-06T15:01:29Z</time>
      </trkpt>
      <trkpt lat="45.6289" lon="6.66066">
        <ele>2261.64</ele>
        <time>2018-02-06T15:01:32Z</time>
      </trkpt>
      <trkpt lat="45.62892" lon="6.66067">
        <ele>2261.64</ele>
        <time>2018-02-06T15:01:37Z</time>
      </trkpt>
      <trkpt lat="45.62895" lon="6.66071">
        <ele>2259.72</ele>
        <time>2018-02-06T15:01:40Z</time>
      </trkpt>
      <trkpt lat="45.62896" lon="6.66076">
        <ele>2259.24</ele>
        <time>2018-02-06T15:01:42Z</time>
      </trkpt>
      <trkpt lat="45.62893" lon="6.66076">
        <ele>2256.83</ele>
        <time>2018-02-06T15:01:45Z</time>
      </trkpt>
      <trkpt lat="45.6289" lon="6.66076">
        <ele>2256.83</ele>
        <time>2018-02-06T15:01:54Z</time>
      </trkpt>
      <trkpt lat="45.62884" lon="6.66079">
        <ele>2254.43</ele>
        <time>2018-02-06T15:01:56Z</time>
      </trkpt>
      <trkpt lat="45.62881" lon="6.66076">
        <ele>2252.99</ele>
        <time>2018-02-06T15:01:58Z</time>
      </trkpt>
      <trkpt lat="45.62881" lon="6.66077">
        <ele>2252.51</ele>
        <time>2018-02-06T15:02:02Z</time>
      </trkpt>
      <trkpt lat="45.62874" lon="6.66078">
        <ele>2250.1</ele>
        <time>2018-02-06T15:02:08Z</time>
      </trkpt>
      <trkpt lat="45.62876" lon="6.66084">
        <ele>2248.18</ele>
        <time>2018-02-06T15:02:11Z</time>
      </trkpt>
      <trkpt lat="45.6287" lon="6.66088">
        <ele>2243.37</ele>
        <time>2018-02-06T15:02:15Z</time>
      </trkpt>
      <trkpt lat="45.62868" lon="6.66087">
        <ele>2242.89</ele>
        <time>2018-02-06T15:02:17Z</time>
      </trkpt>
      <trkpt lat="45.62866" lon="6.66087">
        <ele>2243.37</ele>
        <time>2018-02-06T15:02:25Z</time>
      </trkpt>
      <trkpt lat="45.62862" lon="6.66089">
        <ele>2241.93</ele>
        <time>2018-02-06T15:02:28Z</time>
      </trkpt>
      <trkpt lat="45.62862" lon="6.6609">
        <ele>2241.45</ele>
        <time>2018-02-06T15:02:30Z</time>
      </trkpt>
      <trkpt lat="45.62865" lon="6.66097">
        <ele>2238.09</ele>
        <time>2018-02-06T15:02:34Z</time>
      </trkpt>
      <trkpt lat="45.62866" lon="6.66098">
        <ele>2238.09</ele>
        <time>2018-02-06T15:02:42Z</time>
      </trkpt>
      <trkpt lat="45.62869" lon="6.66102">
        <ele>2237.13</ele>
        <time>2018-02-06T15:02:45Z</time>
      </trkpt>
      <trkpt lat="45.6286" lon="6.66105">
        <ele>2233.76</ele>
        <time>2018-02-06T15:02:49Z</time>
      </trkpt>
      <trkpt lat="45.62858" lon="6.66106">
        <ele>2232.8</ele>
        <time>2018-02-06T15:02:51Z</time>
      </trkpt>
      <trkpt lat="45.62858" lon="6.66106">
        <ele>2232.8</ele>
        <time>2018-02-06T15:02:53Z</time>
      </trkpt>
      <trkpt lat="45.62855" lon="6.66112">
        <ele>2231.36</ele>
        <time>2018-02-06T15:02:57Z</time>
      </trkpt>
      <trkpt lat="45.62861" lon="6.66116">
        <ele>2227.51</ele>
        <time>2018-02-06T15:02:59Z</time>
      </trkpt>
      <trkpt lat="45.62862" lon="6.66116">
        <ele>2227.03</ele>
        <time>2018-02-06T15:03:00Z</time>
      </trkpt>
      <trkpt lat="45.62861" lon="6.66117">
        <ele>2226.55</ele>
        <time>2018-02-06T15:03:07Z</time>
      </trkpt>
      <trkpt lat="45.62851" lon="6.66127">
        <ele>2221.26</ele>
        <time>2018-02-06T15:03:10Z</time>
      </trkpt>
      <trkpt lat="45.62847" lon="6.66125">
        <ele>2219.82</ele>
        <time>2018-02-06T15:03:12Z</time>
      </trkpt>
      <trkpt lat="45.62846" lon="6.66126">
        <ele>2219.82</ele>
        <time>2018-02-06T15:03:16Z</time>
      </trkpt>
      <trkpt lat="45.62848" lon="6.6613">
        <ele>2218.38</ele>
        <time>2018-02-06T15:03:19Z</time>
      </trkpt>
      <trkpt lat="45.62848" lon="6.66128">
        <ele>2217.9</ele>
        <time>2018-02-06T15:03:32Z</time>
      </trkpt>
      <trkpt lat="45.62855" lon="6.66133">
        <ele>2216.46</ele>
        <time>2018-02-06T15:03:36Z</time>
      </trkpt>
      <trkpt lat="45.62858" lon="6.66136">
        <ele>2215.5</ele>
        <time>2018-02-06T15:03:39Z</time>
      </trkpt>
      <trkpt lat="45.62854" lon="6.66142">
        <ele>2212.13</ele>
        <time>2018-02-06T15:03:43Z</time>
      </trkpt>
      <trkpt lat="45.62847" lon="6.66145">
        <ele>2210.69</ele>
        <time>2018-02-06T15:03:47Z</time>
      </trkpt>
      <trkpt lat="45.62843" lon="6.66145">
        <ele>2210.21</ele>
        <time>2018-02-06T15:03:48Z</time>
      </trkpt>
      <trkpt lat="45.62842" lon="6.66145">
        <ele>2208.77</ele>
        <time>2018-02-06T15:03:50Z</time>
      </trkpt>
      <trkpt lat="45.62839" lon="6.66148">
        <ele>2207.81</ele>
        <time>2018-02-06T15:03:59Z</time>
      </trkpt>
      <trkpt lat="45.62833" lon="6.6615">
        <ele>2206.36</ele>
        <time>2018-02-06T15:04:02Z</time>
      </trkpt>
      <trkpt lat="45.62831" lon="6.66152">
        <ele>2205.88</ele>
        <time>2018-02-06T15:04:05Z</time>
      </trkpt>
      <trkpt lat="45.62838" lon="6.66158">
        <ele>2203</ele>
        <time>2018-02-06T15:04:10Z</time>
      </trkpt>
      <trkpt lat="45.62848" lon="6.66166">
        <ele>2200.59</ele>
        <time>2018-02-06T15:04:17Z</time>
      </trkpt>
      <trkpt lat="45.6284" lon="6.66175">
        <ele>2195.79</ele>
        <time>2018-02-06T15:04:20Z</time>
      </trkpt>
      <trkpt lat="45.62835" lon="6.66179">
        <ele>2194.35</ele>
        <time>2018-02-06T15:04:26Z</time>
      </trkpt>
      <trkpt lat="45.62834" lon="6.66179">
        <ele>2194.35</ele>
        <time>2018-02-06T15:04:28Z</time>
      </trkpt>
      <trkpt lat="45.62828" lon="6.66185">
        <ele>2191.46</ele>
        <time>2018-02-06T15:04:33Z</time>
      </trkpt>
      <trkpt lat="45.62835" lon="6.6619">
        <ele>2188.58</ele>
        <time>2018-02-06T15:04:36Z</time>
      </trkpt>
      <trkpt lat="45.62844" lon="6.66195">
        <ele>2187.14</ele>
        <time>2018-02-06T15:04:42Z</time>
      </trkpt>
      <trkpt lat="45.6284" lon="6.66209">
        <ele>2183.29</ele>
        <time>2018-02-06T15:04:45Z</time>
      </trkpt>
      <trkpt lat="45.62829" lon="6.66214">
        <ele>2179.45</ele>
        <time>2018-02-06T15:04:48Z</time>
      </trkpt>
      <trkpt lat="45.62828" lon="6.66214">
        <ele>2180.41</ele>
        <time>2018-02-06T15:04:49Z</time>
      </trkpt>
      <trkpt lat="45.62827" lon="6.66219">
        <ele>2180.41</ele>
        <time>2018-02-06T15:04:56Z</time>
      </trkpt>
      <trkpt lat="45.62833" lon="6.66224">
        <ele>2178.97</ele>
        <time>2018-02-06T15:05:02Z</time>
      </trkpt>
      <trkpt lat="45.62842" lon="6.6623">
        <ele>2178</ele>
        <time>2018-02-06T15:05:07Z</time>
      </trkpt>
      <trkpt lat="45.62837" lon="6.6624">
        <ele>2174.16</ele>
        <time>2018-02-06T15:05:11Z</time>
      </trkpt>
      <trkpt lat="45.62836" lon="6.6624">
        <ele>2173.68</ele>
        <time>2018-02-06T15:05:12Z</time>
      </trkpt>
      <trkpt lat="45.62827" lon="6.66244">
        <ele>2172.24</ele>
        <time>2018-02-06T15:05:18Z</time>
      </trkpt>
      <trkpt lat="45.62826" lon="6.66249">
        <ele>2171.76</ele>
        <time>2018-02-06T15:05:20Z</time>
      </trkpt>
      <trkpt lat="45.6283" lon="6.6625">
        <ele>2170.31</ele>
        <time>2018-02-06T15:05:21Z</time>
      </trkpt>
      <trkpt lat="45.62832" lon="6.6625">
        <ele>2169.83</ele>
        <time>2018-02-06T15:05:27Z</time>
      </trkpt>
      <trkpt lat="45.62834" lon="6.66252">
        <ele>2169.35</ele>
        <time>2018-02-06T15:05:29Z</time>
      </trkpt>
      <trkpt lat="45.62828" lon="6.66261">
        <ele>2164.55</ele>
        <time>2018-02-06T15:05:32Z</time>
      </trkpt>
      <trkpt lat="45.62824" lon="6.66262">
        <ele>2163.1</ele>
        <time>2018-02-06T15:05:33Z</time>
      </trkpt>
      <trkpt lat="45.62824" lon="6.66266">
        <ele>2162.62</ele>
        <time>2018-02-06T15:05:39Z</time>
      </trkpt>
      <trkpt lat="45.62827" lon="6.66268">
        <ele>2161.18</ele>
        <time>2018-02-06T15:05:48Z</time>
      </trkpt>
      <trkpt lat="45.6283" lon="6.66273">
        <ele>2160.7</ele>
        <time>2018-02-06T15:05:52Z</time>
      </trkpt>
      <trkpt lat="45.6284" lon="6.66279">
        <ele>2159.74</ele>
        <time>2018-02-06T15:05:59Z</time>
      </trkpt>
      <trkpt lat="45.6284" lon="6.66292">
        <ele>2155.41</ele>
        <time>2018-02-06T15:06:02Z</time>
      </trkpt>
      <trkpt lat="45.62841" lon="6.66305">
        <ele>2154.93</ele>
        <time>2018-02-06T15:06:06Z</time>
      </trkpt>
      <trkpt lat="45.62844" lon="6.66306">
        <ele>2154.45</ele>
        <time>2018-02-06T15:06:07Z</time>
      </trkpt>
      <trkpt lat="45.62847" lon="6.66309">
        <ele>2152.53</ele>
        <time>2018-02-06T15:06:08Z</time>
      </trkpt>
      <trkpt lat="45.6285" lon="6.66313">
        <ele>2151.57</ele>
        <time>2018-02-06T15:06:09Z</time>
      </trkpt>
      <trkpt lat="45.62851" lon="6.66315">
        <ele>2150.61</ele>
        <time>2018-02-06T15:06:10Z</time>
      </trkpt>
      <trkpt lat="45.62852" lon="6.66323">
        <ele>2150.13</ele>
        <time>2018-02-06T15:06:11Z</time>
      </trkpt>
      <trkpt lat="45.6286" lon="6.6634">
        <ele>2148.2</ele>
        <time>2018-02-06T15:06:16Z</time>
      </trkpt>
      <trkpt lat="45.62863" lon="6.66339">
        <ele>2148.68</ele>
        <time>2018-02-06T15:06:17Z</time>
      </trkpt>
      <trkpt lat="45.62859" lon="6.66324">
        <ele>2146.76</ele>
        <time>2018-02-06T15:06:20Z</time>
      </trkpt>
      <trkpt lat="45.62859" lon="6.66313">
        <ele>2147.24</ele>
        <time>2018-02-06T15:06:36Z</time>
      </trkpt>
      <trkpt lat="45.62863" lon="6.66324">
        <ele>2144.84</ele>
        <time>2018-02-06T15:06:40Z</time>
      </trkpt>
      <trkpt lat="45.62862" lon="6.66332">
        <ele>2146.28</ele>
        <time>2018-02-06T15:06:54Z</time>
      </trkpt>
      <trkpt lat="45.62863" lon="6.66331">
        <ele>2145.8</ele>
        <time>2018-02-06T15:06:58Z</time>
      </trkpt>
      <trkpt lat="45.62867" lon="6.66329">
        <ele>2144.84</ele>
        <time>2018-02-06T15:07:07Z</time>
      </trkpt>
      <trkpt lat="45.62869" lon="6.66329">
        <ele>2145.32</ele>
        <time>2018-02-06T15:07:22Z</time>
      </trkpt>
      <trkpt lat="45.62875" lon="6.66327">
        <ele>2144.84</ele>
        <time>2018-02-06T15:07:26Z</time>
      </trkpt>
      <trkpt lat="45.62877" lon="6.66331">
        <ele>2142.92</ele>
        <time>2018-02-06T15:07:27Z</time>
      </trkpt>
      <trkpt lat="45.62878" lon="6.66342">
        <ele>2140.99</ele>
        <time>2018-02-06T15:07:29Z</time>
      </trkpt>
      <trkpt lat="45.62879" lon="6.66344">
        <ele>2140.99</ele>
        <time>2018-02-06T15:07:32Z</time>
      </trkpt>
      <trkpt lat="45.62881" lon="6.66344">
        <ele>2141.47</ele>
        <time>2018-02-06T15:07:33Z</time>
      </trkpt>
      <trkpt lat="45.62884" lon="6.66338">
        <ele>2139.55</ele>
        <time>2018-02-06T15:07:35Z</time>
      </trkpt>
      <trkpt lat="45.62895" lon="6.66342">
        <ele>2136.67</ele>
        <time>2018-02-06T15:07:39Z</time>
      </trkpt>
      <trkpt lat="45.62896" lon="6.66349">
        <ele>2133.78</ele>
        <time>2018-02-06T15:07:40Z</time>
      </trkpt>
      <trkpt lat="45.62899" lon="6.66353">
        <ele>2133.78</ele>
        <time>2018-02-06T15:07:41Z</time>
      </trkpt>
      <trkpt lat="45.62903" lon="6.66354">
        <ele>2133.78</ele>
        <time>2018-02-06T15:07:42Z</time>
      </trkpt>
      <trkpt lat="45.62906" lon="6.66352">
        <ele>2130.42</ele>
        <time>2018-02-06T15:07:43Z</time>
      </trkpt>
      <trkpt lat="45.62908" lon="6.66349">
        <ele>2130.9</ele>
        <time>2018-02-06T15:07:50Z</time>
      </trkpt>
      <trkpt lat="45.62908" lon="6.66349">
        <ele>2130.9</ele>
        <time>2018-02-06T15:07:52Z</time>
      </trkpt>
      <trkpt lat="45.62923" lon="6.66359">
        <ele>2127.05</ele>
        <time>2018-02-06T15:07:58Z</time>
      </trkpt>
      <trkpt lat="45.62929" lon="6.66366">
        <ele>2123.21</ele>
        <time>2018-02-06T15:08:00Z</time>
      </trkpt>
      <trkpt lat="45.62932" lon="6.66364">
        <ele>2122.25</ele>
        <time>2018-02-06T15:08:02Z</time>
      </trkpt>
      <trkpt lat="45.62935" lon="6.6637">
        <ele>2120.81</ele>
        <time>2018-02-06T15:08:05Z</time>
      </trkpt>
      <trkpt lat="45.62936" lon="6.66379">
        <ele>2118.88</ele>
        <time>2018-02-06T15:08:07Z</time>
      </trkpt>
      <trkpt lat="45.62936" lon="6.66384">
        <ele>2118.88</ele>
        <time>2018-02-06T15:08:15Z</time>
      </trkpt>
      <trkpt lat="45.62938" lon="6.66382">
        <ele>2118.88</ele>
        <time>2018-02-06T15:08:27Z</time>
      </trkpt>
      <trkpt lat="45.62945" lon="6.66374">
        <ele>2116.48</ele>
        <time>2018-02-06T15:08:31Z</time>
      </trkpt>
      <trkpt lat="45.62948" lon="6.66382">
        <ele>2113.6</ele>
        <time>2018-02-06T15:08:34Z</time>
      </trkpt>
      <trkpt lat="45.62947" lon="6.66382">
        <ele>2113.6</ele>
        <time>2018-02-06T15:08:35Z</time>
      </trkpt>
      <trkpt lat="45.62949" lon="6.66381">
        <ele>2114.56</ele>
        <time>2018-02-06T15:08:57Z</time>
      </trkpt>
      <trkpt lat="45.6296" lon="6.66394">
        <ele>2109.27</ele>
        <time>2018-02-06T15:09:03Z</time>
      </trkpt>
      <trkpt lat="45.62967" lon="6.66405">
        <ele>2105.42</ele>
        <time>2018-02-06T15:09:06Z</time>
      </trkpt>
      <trkpt lat="45.62977" lon="6.66413">
        <ele>2102.06</ele>
        <time>2018-02-06T15:09:09Z</time>
      </trkpt>
      <trkpt lat="45.62984" lon="6.6642">
        <ele>2101.1</ele>
        <time>2018-02-06T15:09:11Z</time>
      </trkpt>
      <trkpt lat="45.62993" lon="6.66424">
        <ele>2098.21</ele>
        <time>2018-02-06T15:09:13Z</time>
      </trkpt>
      <trkpt lat="45.6301" lon="6.66451">
        <ele>2092.93</ele>
        <time>2018-02-06T15:09:19Z</time>
      </trkpt>
      <trkpt lat="45.63012" lon="6.66468">
        <ele>2091</ele>
        <time>2018-02-06T15:09:23Z</time>
      </trkpt>
      <trkpt lat="45.6302" lon="6.66485">
        <ele>2090.04</ele>
        <time>2018-02-06T15:09:37Z</time>
      </trkpt>
      <trkpt lat="45.63024" lon="6.66489">
        <ele>2089.56</ele>
        <time>2018-02-06T15:09:50Z</time>
      </trkpt>
      <trkpt lat="45.63028" lon="6.66489">
        <ele>2090.04</ele>
        <time>2018-02-06T15:09:55Z</time>
      </trkpt>
      <trkpt lat="45.63037" lon="6.6649">
        <ele>2089.08</ele>
        <time>2018-02-06T15:10:07Z</time>
      </trkpt>
      <trkpt lat="45.63041" lon="6.66495">
        <ele>2089.08</ele>
        <time>2018-02-06T15:10:10Z</time>
      </trkpt>
      <trkpt lat="45.63054" lon="6.66508">
        <ele>2086.2</ele>
        <time>2018-02-06T15:10:18Z</time>
      </trkpt>
      <trkpt lat="45.63055" lon="6.66513">
        <ele>2085.72</ele>
        <time>2018-02-06T15:10:27Z</time>
      </trkpt>
      <trkpt lat="45.63059" lon="6.66524">
        <ele>2086.68</ele>
        <time>2018-02-06T15:10:32Z</time>
      </trkpt>
      <trkpt lat="45.63061" lon="6.66527">
        <ele>2085.24</ele>
        <time>2018-02-06T15:10:33Z</time>
      </trkpt>
      <trkpt lat="45.63063" lon="6.66531">
        <ele>2084.76</ele>
        <time>2018-02-06T15:10:34Z</time>
      </trkpt>
      <trkpt lat="45.63066" lon="6.66534">
        <ele>2084.28</ele>
        <time>2018-02-06T15:10:35Z</time>
      </trkpt>
      <trkpt lat="45.63069" lon="6.66537">
        <ele>2083.79</ele>
        <time>2018-02-06T15:10:36Z</time>
      </trkpt>
      <trkpt lat="45.63076" lon="6.66545">
        <ele>2083.31</ele>
        <time>2018-02-06T15:10:38Z</time>
      </trkpt>
      <trkpt lat="45.63079" lon="6.66551">
        <ele>2081.87</ele>
        <time>2018-02-06T15:10:39Z</time>
      </trkpt>
      <trkpt lat="45.63081" lon="6.66557">
        <ele>2079.47</ele>
        <time>2018-02-06T15:10:40Z</time>
      </trkpt>
      <trkpt lat="45.63083" lon="6.6656">
        <ele>2078.51</ele>
        <time>2018-02-06T15:10:42Z</time>
      </trkpt>
      <trkpt lat="45.63084" lon="6.66559">
        <ele>2080.43</ele>
        <time>2018-02-06T15:10:49Z</time>
      </trkpt>
      <trkpt lat="45.63086" lon="6.66565">
        <ele>2080.43</ele>
        <time>2018-02-06T15:11:03Z</time>
      </trkpt>
      <trkpt lat="45.63087" lon="6.66573">
        <ele>2078.51</ele>
        <time>2018-02-06T15:11:05Z</time>
      </trkpt>
      <trkpt lat="45.63087" lon="6.66579">
        <ele>2077.07</ele>
        <time>2018-02-06T15:11:06Z</time>
      </trkpt>
      <trkpt lat="45.63088" lon="6.66584">
        <ele>2075.62</ele>
        <time>2018-02-06T15:11:07Z</time>
      </trkpt>
      <trkpt lat="45.6309" lon="6.66588">
        <ele>2076.1</ele>
        <time>2018-02-06T15:11:08Z</time>
      </trkpt>
      <trkpt lat="45.63091" lon="6.66592">
        <ele>2075.62</ele>
        <time>2018-02-06T15:11:09Z</time>
      </trkpt>
      <trkpt lat="45.63091" lon="6.66596">
        <ele>2073.22</ele>
        <time>2018-02-06T15:11:10Z</time>
      </trkpt>
      <trkpt lat="45.63091" lon="6.666">
        <ele>2072.74</ele>
        <time>2018-02-06T15:11:11Z</time>
      </trkpt>
      <trkpt lat="45.63091" lon="6.66605">
        <ele>2072.74</ele>
        <time>2018-02-06T15:11:12Z</time>
      </trkpt>
      <trkpt lat="45.63093" lon="6.66608">
        <ele>2072.26</ele>
        <time>2018-02-06T15:11:13Z</time>
      </trkpt>
      <trkpt lat="45.63096" lon="6.66609">
        <ele>2073.22</ele>
        <time>2018-02-06T15:11:14Z</time>
      </trkpt>
      <trkpt lat="45.63104" lon="6.66607">
        <ele>2069.86</ele>
        <time>2018-02-06T15:11:17Z</time>
      </trkpt>
      <trkpt lat="45.63105" lon="6.66611">
        <ele>2067.93</ele>
        <time>2018-02-06T15:11:18Z</time>
      </trkpt>
      <trkpt lat="45.63105" lon="6.66612">
        <ele>2068.41</ele>
        <time>2018-02-06T15:11:19Z</time>
      </trkpt>
      <trkpt lat="45.63106" lon="6.66612">
        <ele>2068.41</ele>
        <time>2018-02-06T15:11:34Z</time>
      </trkpt>
      <trkpt lat="45.63106" lon="6.66613">
        <ele>2068.41</ele>
        <time>2018-02-06T15:11:43Z</time>
      </trkpt>
      <trkpt lat="45.63106" lon="6.66616">
        <ele>2067.93</ele>
        <time>2018-02-06T15:11:44Z</time>
      </trkpt>
      <trkpt lat="45.63106" lon="6.66619">
        <ele>2067.45</ele>
        <time>2018-02-06T15:11:45Z</time>
      </trkpt>
      <trkpt lat="45.63108" lon="6.66621">
        <ele>2067.45</ele>
        <time>2018-02-06T15:11:46Z</time>
      </trkpt>
      <trkpt lat="45.63111" lon="6.6662">
        <ele>2066.01</ele>
        <time>2018-02-06T15:11:47Z</time>
      </trkpt>
      <trkpt lat="45.63116" lon="6.66616">
        <ele>2064.57</ele>
        <time>2018-02-06T15:11:49Z</time>
      </trkpt>
      <trkpt lat="45.6312" lon="6.66616">
        <ele>2063.61</ele>
        <time>2018-02-06T15:11:50Z</time>
      </trkpt>
      <trkpt lat="45.63123" lon="6.66621">
        <ele>2061.68</ele>
        <time>2018-02-06T15:11:51Z</time>
      </trkpt>
      <trkpt lat="45.63123" lon="6.66626">
        <ele>2060.24</ele>
        <time>2018-02-06T15:11:52Z</time>
      </trkpt>
      <trkpt lat="45.6312" lon="6.66635">
        <ele>2059.76</ele>
        <time>2018-02-06T15:11:54Z</time>
      </trkpt>
      <trkpt lat="45.6312" lon="6.66639">
        <ele>2058.8</ele>
        <time>2018-02-06T15:11:55Z</time>
      </trkpt>
      <trkpt lat="45.63121" lon="6.66643">
        <ele>2058.8</ele>
        <time>2018-02-06T15:11:56Z</time>
      </trkpt>
      <trkpt lat="45.63123" lon="6.66644">
        <ele>2058.8</ele>
        <time>2018-02-06T15:11:57Z</time>
      </trkpt>
      <trkpt lat="45.63125" lon="6.66643">
        <ele>2058.32</ele>
        <time>2018-02-06T15:11:58Z</time>
      </trkpt>
      <trkpt lat="45.63128" lon="6.66642">
        <ele>2056.4</ele>
        <time>2018-02-06T15:11:59Z</time>
      </trkpt>
      <trkpt lat="45.63131" lon="6.66645">
        <ele>2055.92</ele>
        <time>2018-02-06T15:12:00Z</time>
      </trkpt>
      <trkpt lat="45.63133" lon="6.6665">
        <ele>2054.47</ele>
        <time>2018-02-06T15:12:01Z</time>
      </trkpt>
      <trkpt lat="45.63132" lon="6.66655">
        <ele>2052.55</ele>
        <time>2018-02-06T15:12:02Z</time>
      </trkpt>
      <trkpt lat="45.63131" lon="6.66659">
        <ele>2051.59</ele>
        <time>2018-02-06T15:12:03Z</time>
      </trkpt>
      <trkpt lat="45.63132" lon="6.66662">
        <ele>2051.59</ele>
        <time>2018-02-06T15:12:04Z</time>
      </trkpt>
      <trkpt lat="45.63134" lon="6.66663">
        <ele>2050.63</ele>
        <time>2018-02-06T15:12:05Z</time>
      </trkpt>
      <trkpt lat="45.63136" lon="6.66662">
        <ele>2049.67</ele>
        <time>2018-02-06T15:12:06Z</time>
      </trkpt>
      <trkpt lat="45.63139" lon="6.66663">
        <ele>2048.71</ele>
        <time>2018-02-06T15:12:07Z</time>
      </trkpt>
      <trkpt lat="45.63141" lon="6.66673">
        <ele>2046.78</ele>
        <time>2018-02-06T15:12:09Z</time>
      </trkpt>
      <trkpt lat="45.6314" lon="6.66677">
        <ele>2046.78</ele>
        <time>2018-02-06T15:12:15Z</time>
      </trkpt>
      <trkpt lat="45.63144" lon="6.66689">
        <ele>2043.9</ele>
        <time>2018-02-06T15:12:21Z</time>
      </trkpt>
      <trkpt lat="45.63147" lon="6.66689">
        <ele>2043.9</ele>
        <time>2018-02-06T15:12:22Z</time>
      </trkpt>
      <trkpt lat="45.63159" lon="6.66706">
        <ele>2039.57</ele>
        <time>2018-02-06T15:12:26Z</time>
      </trkpt>
      <trkpt lat="45.63163" lon="6.66706">
        <ele>2039.09</ele>
        <time>2018-02-06T15:12:27Z</time>
      </trkpt>
      <trkpt lat="45.63168" lon="6.66703">
        <ele>2037.65</ele>
        <time>2018-02-06T15:12:29Z</time>
      </trkpt>
      <trkpt lat="45.63179" lon="6.66711">
        <ele>2037.17</ele>
        <time>2018-02-06T15:12:35Z</time>
      </trkpt>
      <trkpt lat="45.63182" lon="6.66708">
        <ele>2035.25</ele>
        <time>2018-02-06T15:12:36Z</time>
      </trkpt>
      <trkpt lat="45.63184" lon="6.66704">
        <ele>2034.29</ele>
        <time>2018-02-06T15:12:37Z</time>
      </trkpt>
      <trkpt lat="45.6319" lon="6.66703">
        <ele>2033.81</ele>
        <time>2018-02-06T15:12:44Z</time>
      </trkpt>
      <trkpt lat="45.6319" lon="6.66704">
        <ele>2034.29</ele>
        <time>2018-02-06T15:12:46Z</time>
      </trkpt>
      <trkpt lat="45.63197" lon="6.66712">
        <ele>2033.33</ele>
        <time>2018-02-06T15:12:51Z</time>
      </trkpt>
      <trkpt lat="45.63203" lon="6.66717">
        <ele>2032.84</ele>
        <time>2018-02-06T15:12:55Z</time>
      </trkpt>
      <trkpt lat="45.63205" lon="6.66714">
        <ele>2033.33</ele>
        <time>2018-02-06T15:13:09Z</time>
      </trkpt>
      <trkpt lat="45.63207" lon="6.66717">
        <ele>2033.33</ele>
        <time>2018-02-06T15:13:28Z</time>
      </trkpt>
      <trkpt lat="45.63208" lon="6.66715">
        <ele>2033.33</ele>
        <time>2018-02-06T15:13:55Z</time>
      </trkpt>
      <trkpt lat="45.63208" lon="6.66714">
        <ele>2034.77</ele>
        <time>2018-02-06T15:14:11Z</time>
      </trkpt>
      <trkpt lat="45.63208" lon="6.66716">
        <ele>2035.73</ele>
        <time>2018-02-06T15:14:23Z</time>
      </trkpt>
      <trkpt lat="45.63203" lon="6.66752">
        <ele>2032.36</ele>
        <time>2018-02-06T15:14:32Z</time>
      </trkpt>
      <trkpt lat="45.63203" lon="6.66756">
        <ele>2032.36</ele>
        <time>2018-02-06T15:14:33Z</time>
      </trkpt>
      <trkpt lat="45.63202" lon="6.66761">
        <ele>2026.12</ele>
        <time>2018-02-06T15:14:35Z</time>
      </trkpt>
      <trkpt lat="45.63202" lon="6.66764">
        <ele>2027.56</ele>
        <time>2018-02-06T15:14:36Z</time>
      </trkpt>
      <trkpt lat="45.63204" lon="6.66806">
        <ele>2025.15</ele>
        <time>2018-02-06T15:14:51Z</time>
      </trkpt>
      <trkpt lat="45.63204" lon="6.6686">
        <ele>2021.31</ele>
        <time>2018-02-06T15:15:04Z</time>
      </trkpt>
      <trkpt lat="45.63205" lon="6.66876">
        <ele>2020.35</ele>
        <time>2018-02-06T15:15:07Z</time>
      </trkpt>
      <trkpt lat="45.63205" lon="6.66881">
        <ele>2020.35</ele>
        <time>2018-02-06T15:15:08Z</time>
      </trkpt>
      <trkpt lat="45.63207" lon="6.66902">
        <ele>2017.94</ele>
        <time>2018-02-06T15:15:13Z</time>
      </trkpt>
      <trkpt lat="45.63209" lon="6.66921">
        <ele>2017.46</ele>
        <time>2018-02-06T15:15:20Z</time>
      </trkpt>
      <trkpt lat="45.63211" lon="6.66921">
        <ele>2016.02</ele>
        <time>2018-02-06T15:15:29Z</time>
      </trkpt>
      <trkpt lat="45.63213" lon="6.66921">
        <ele>2015.06</ele>
        <time>2018-02-06T15:15:43Z</time>
      </trkpt>
      <trkpt lat="45.63214" lon="6.66921">
        <ele>2015.06</ele>
        <time>2018-02-06T15:15:44Z</time>
      </trkpt>
      <trkpt lat="45.63214" lon="6.66921">
        <ele>2012.66</ele>
        <time>2018-02-06T15:15:47Z</time>
      </trkpt>
      <trkpt lat="45.63214" lon="6.66918">
        <ele>2014.1</ele>
        <time>2018-02-06T15:16:06Z</time>
      </trkpt>
      <trkpt lat="45.63214" lon="6.66922">
        <ele>2014.1</ele>
        <time>2018-02-06T15:16:22Z</time>
      </trkpt>
      <trkpt lat="45.63215" lon="6.66921">
        <ele>2013.14</ele>
        <time>2018-02-06T15:16:45Z</time>
      </trkpt>
      <trkpt lat="45.63214" lon="6.66917">
        <ele>2013.62</ele>
        <time>2018-02-06T15:17:08Z</time>
      </trkpt>
    </trkseg>
  </trk>
  <trk>
    <name><![CDATA[PAROZAN]]></name>
    <trkseg>
      <trkpt lat="45.63208" lon="6.66907">
        <ele>2018.43</ele>
        <time>2018-02-07T07:56:29Z</time>
      </trkpt>
      <trkpt lat="45.63208" lon="6.66907">
        <ele>2018.43</ele>
        <time>2018-02-07T07:56:30Z</time>
      </trkpt>
      <trkpt lat="45.63207" lon="6.66907">
        <ele>2022.27</ele>
        <time>2018-02-07T07:56:33Z</time>
      </trkpt>
      <trkpt lat="45.63207" lon="6.66907">
        <ele>2022.27</ele>
        <time>2018-02-07T07:56:34Z</time>
      </trkpt>
      <trkpt lat="45.63209" lon="6.6691">
        <ele>2021.79</ele>
        <time>2018-02-07T07:56:53Z</time>
      </trkpt>
      <trkpt lat="45.63209" lon="6.66897">
        <ele>2023.71</ele>
        <time>2018-02-07T07:57:06Z</time>
      </trkpt>
      <trkpt lat="45.6321" lon="6.66883">
        <ele>2024.19</ele>
        <time>2018-02-07T07:57:20Z</time>
      </trkpt>
      <trkpt lat="45.63213" lon="6.6687">
        <ele>2026.12</ele>
        <time>2018-02-07T07:57:35Z</time>
      </trkpt>
      <trkpt lat="45.63215" lon="6.66856">
        <ele>2027.08</ele>
        <time>2018-02-07T07:57:50Z</time>
      </trkpt>
      <trkpt lat="45.63216" lon="6.66852">
        <ele>2028.52</ele>
        <time>2018-02-07T07:58:05Z</time>
      </trkpt>
      <trkpt lat="45.63217" lon="6.66841">
        <ele>2029.48</ele>
        <time>2018-02-07T07:58:18Z</time>
      </trkpt>
      <trkpt lat="45.6322" lon="6.66824">
        <ele>2029.96</ele>
        <time>2018-02-07T07:58:35Z</time>
      </trkpt>
      <trkpt lat="45.63222" lon="6.66807">
        <ele>2031.4</ele>
        <time>2018-02-07T07:58:53Z</time>
      </trkpt>
      <trkpt lat="45.63223" lon="6.66791">
        <ele>2033.33</ele>
        <time>2018-02-07T07:59:10Z</time>
      </trkpt>
      <trkpt lat="45.63225" lon="6.66775">
        <ele>2034.77</ele>
        <time>2018-02-07T07:59:26Z</time>
      </trkpt>
      <trkpt lat="45.63227" lon="6.66759">
        <ele>2035.73</ele>
        <time>2018-02-07T07:59:42Z</time>
      </trkpt>
      <trkpt lat="45.63231" lon="6.66743">
        <ele>2036.69</ele>
        <time>2018-02-07T07:59:59Z</time>
      </trkpt>
      <trkpt lat="45.63233" lon="6.66727">
        <ele>2037.17</ele>
        <time>2018-02-07T08:00:15Z</time>
      </trkpt>
      <trkpt lat="45.63236" lon="6.66716">
        <ele>2039.09</ele>
        <time>2018-02-07T08:00:28Z</time>
      </trkpt>
      <trkpt lat="45.63242" lon="6.66701">
        <ele>2040.05</ele>
        <time>2018-02-07T08:00:45Z</time>
      </trkpt>
      <trkpt lat="45.63244" lon="6.66689">
        <ele>2041.5</ele>
        <time>2018-02-07T08:00:59Z</time>
      </trkpt>
      <trkpt lat="45.6324" lon="6.66675">
        <ele>2042.46</ele>
        <time>2018-02-07T08:01:17Z</time>
      </trkpt>
      <trkpt lat="45.63242" lon="6.66662">
        <ele>2044.86</ele>
        <time>2018-02-07T08:01:31Z</time>
      </trkpt>
      <trkpt lat="45.63243" lon="6.66651">
        <ele>2046.78</ele>
        <time>2018-02-07T08:01:44Z</time>
      </trkpt>
      <trkpt lat="45.63244" lon="6.66637">
        <ele>2048.23</ele>
        <time>2018-02-07T08:01:59Z</time>
      </trkpt>
      <trkpt lat="45.63245" lon="6.66636">
        <ele>2048.23</ele>
        <time>2018-02-07T08:02:00Z</time>
      </trkpt>
      <trkpt lat="45.63248" lon="6.66617">
        <ele>2048.23</ele>
        <time>2018-02-07T08:02:16Z</time>
      </trkpt>
      <trkpt lat="45.6325" lon="6.66601">
        <ele>2049.19</ele>
        <time>2018-02-07T08:02:31Z</time>
      </trkpt>
      <trkpt lat="45.63253" lon="6.66586">
        <ele>2050.15</ele>
        <time>2018-02-07T08:02:46Z</time>
      </trkpt>
      <trkpt lat="45.63255" lon="6.66573">
        <ele>2051.59</ele>
        <time>2018-02-07T08:03:01Z</time>
      </trkpt>
      <trkpt lat="45.63258" lon="6.66561">
        <ele>2053.51</ele>
        <time>2018-02-07T08:03:15Z</time>
      </trkpt>
      <trkpt lat="45.63258" lon="6.66551">
        <ele>2055.92</ele>
        <time>2018-02-07T08:03:31Z</time>
      </trkpt>
      <trkpt lat="45.63259" lon="6.66534">
        <ele>2059.28</ele>
        <time>2018-02-07T08:03:52Z</time>
      </trkpt>
      <trkpt lat="45.63257" lon="6.66521">
        <ele>2062.17</ele>
        <time>2018-02-07T08:04:12Z</time>
      </trkpt>
      <trkpt lat="45.63257" lon="6.66504">
        <ele>2064.57</ele>
        <time>2018-02-07T08:04:31Z</time>
      </trkpt>
      <trkpt lat="45.63256" lon="6.66485">
        <ele>2066.97</ele>
        <time>2018-02-07T08:04:51Z</time>
      </trkpt>
      <trkpt lat="45.63255" lon="6.66473">
        <ele>2069.38</ele>
        <time>2018-02-07T08:05:05Z</time>
      </trkpt>
      <trkpt lat="45.63253" lon="6.66467">
        <ele>2069.86</ele>
        <time>2018-02-07T08:05:12Z</time>
      </trkpt>
      <trkpt lat="45.63252" lon="6.66453">
        <ele>2071.78</ele>
        <time>2018-02-07T08:05:28Z</time>
      </trkpt>
      <trkpt lat="45.63251" lon="6.66443">
        <ele>2074.18</ele>
        <time>2018-02-07T08:05:43Z</time>
      </trkpt>
      <trkpt lat="45.63251" lon="6.66431">
        <ele>2077.07</ele>
        <time>2018-02-07T08:05:59Z</time>
      </trkpt>
      <trkpt lat="45.63253" lon="6.66422">
        <ele>2078.99</ele>
        <time>2018-02-07T08:06:11Z</time>
      </trkpt>
      <trkpt lat="45.63261" lon="6.66417">
        <ele>2080.43</ele>
        <time>2018-02-07T08:06:27Z</time>
      </trkpt>
      <trkpt lat="45.6327" lon="6.66412">
        <ele>2082.35</ele>
        <time>2018-02-07T08:06:40Z</time>
      </trkpt>
      <trkpt lat="45.63275" lon="6.66409">
        <ele>2083.79</ele>
        <time>2018-02-07T08:06:53Z</time>
      </trkpt>
      <trkpt lat="45.63282" lon="6.66406">
        <ele>2087.16</ele>
        <time>2018-02-07T08:07:08Z</time>
      </trkpt>
      <trkpt lat="45.63291" lon="6.66399">
        <ele>2088.12</ele>
        <time>2018-02-07T08:07:25Z</time>
      </trkpt>
      <trkpt lat="45.63297" lon="6.66397">
        <ele>2090.04</ele>
        <time>2018-02-07T08:07:37Z</time>
      </trkpt>
      <trkpt lat="45.63306" lon="6.66392">
        <ele>2092.93</ele>
        <time>2018-02-07T08:07:53Z</time>
      </trkpt>
      <trkpt lat="45.63314" lon="6.66387">
        <ele>2094.37</ele>
        <time>2018-02-07T08:08:07Z</time>
      </trkpt>
      <trkpt lat="45.63323" lon="6.66376">
        <ele>2096.29</ele>
        <time>2018-02-07T08:08:23Z</time>
      </trkpt>
      <trkpt lat="45.63329" lon="6.66368">
        <ele>2097.25</ele>
        <time>2018-02-07T08:08:38Z</time>
      </trkpt>
      <trkpt lat="45.63337" lon="6.66356">
        <ele>2099.66</ele>
        <time>2018-02-07T08:08:55Z</time>
      </trkpt>
      <trkpt lat="45.63344" lon="6.66345">
        <ele>2102.06</ele>
        <time>2018-02-07T08:09:11Z</time>
      </trkpt>
      <trkpt lat="45.63349" lon="6.66334">
        <ele>2104.94</ele>
        <time>2018-02-07T08:09:26Z</time>
      </trkpt>
      <trkpt lat="45.63355" lon="6.66324">
        <ele>2106.39</ele>
        <time>2018-02-07T08:09:41Z</time>
      </trkpt>
      <trkpt lat="45.6336" lon="6.66319">
        <ele>2107.35</ele>
        <time>2018-02-07T08:09:50Z</time>
      </trkpt>
      <trkpt lat="45.63367" lon="6.66308">
        <ele>2109.27</ele>
        <time>2018-02-07T08:10:07Z</time>
      </trkpt>
      <trkpt lat="45.63373" lon="6.66297">
        <ele>2111.19</ele>
        <time>2018-02-07T08:10:23Z</time>
      </trkpt>
      <trkpt lat="45.63378" lon="6.66291">
        <ele>2113.6</ele>
        <time>2018-02-07T08:10:33Z</time>
      </trkpt>
      <trkpt lat="45.63381" lon="6.66281">
        <ele>2115.04</ele>
        <time>2018-02-07T08:10:47Z</time>
      </trkpt>
      <trkpt lat="45.63384" lon="6.66276">
        <ele>2116.48</ele>
        <time>2018-02-07T08:11:00Z</time>
      </trkpt>
      <trkpt lat="45.6339" lon="6.66269">
        <ele>2119.36</ele>
        <time>2018-02-07T08:11:15Z</time>
      </trkpt>
      <trkpt lat="45.63394" lon="6.66262">
        <ele>2121.77</ele>
        <time>2018-02-07T08:11:27Z</time>
      </trkpt>
      <trkpt lat="45.634" lon="6.66257">
        <ele>2122.73</ele>
        <time>2018-02-07T08:11:40Z</time>
      </trkpt>
      <trkpt lat="45.63407" lon="6.66253">
        <ele>2125.13</ele>
        <time>2018-02-07T08:11:56Z</time>
      </trkpt>
      <trkpt lat="45.63412" lon="6.66249">
        <ele>2126.57</ele>
        <time>2018-02-07T08:12:09Z</time>
      </trkpt>
      <trkpt lat="45.63419" lon="6.66245">
        <ele>2128.98</ele>
        <time>2018-02-07T08:12:21Z</time>
      </trkpt>
      <trkpt lat="45.63424" lon="6.66249">
        <ele>2130.42</ele>
        <time>2018-02-07T08:12:35Z</time>
      </trkpt>
      <trkpt lat="45.63436" lon="6.66253">
        <ele>2131.86</ele>
        <time>2018-02-07T08:12:53Z</time>
      </trkpt>
      <trkpt lat="45.63447" lon="6.66256">
        <ele>2133.78</ele>
        <time>2018-02-07T08:13:10Z</time>
      </trkpt>
      <trkpt lat="45.63456" lon="6.66259">
        <ele>2134.74</ele>
        <time>2018-02-07T08:13:25Z</time>
      </trkpt>
      <trkpt lat="45.63463" lon="6.66262">
        <ele>2136.67</ele>
        <time>2018-02-07T08:13:40Z</time>
      </trkpt>
      <trkpt lat="45.63474" lon="6.66263">
        <ele>2139.07</ele>
        <time>2018-02-07T08:13:55Z</time>
      </trkpt>
      <trkpt lat="45.63482" lon="6.66257">
        <ele>2140.99</ele>
        <time>2018-02-07T08:14:11Z</time>
      </trkpt>
      <trkpt lat="45.63491" lon="6.66254">
        <ele>2142.92</ele>
        <time>2018-02-07T08:14:27Z</time>
      </trkpt>
      <trkpt lat="45.63498" lon="6.66248">
        <ele>2144.84</ele>
        <time>2018-02-07T08:14:40Z</time>
      </trkpt>
      <trkpt lat="45.63505" lon="6.66243">
        <ele>2145.8</ele>
        <time>2018-02-07T08:14:53Z</time>
      </trkpt>
      <trkpt lat="45.63509" lon="6.66236">
        <ele>2147.72</ele>
        <time>2018-02-07T08:15:07Z</time>
      </trkpt>
      <trkpt lat="45.63515" lon="6.6623">
        <ele>2149.65</ele>
        <time>2018-02-07T08:15:23Z</time>
      </trkpt>
      <trkpt lat="45.6352" lon="6.66222">
        <ele>2152.05</ele>
        <time>2018-02-07T08:15:39Z</time>
      </trkpt>
      <trkpt lat="45.63526" lon="6.66219">
        <ele>2153.97</ele>
        <time>2018-02-07T08:15:53Z</time>
      </trkpt>
      <trkpt lat="45.63533" lon="6.6621">
        <ele>2156.86</ele>
        <time>2018-02-07T08:16:08Z</time>
      </trkpt>
      <trkpt lat="45.63538" lon="6.66203">
        <ele>2159.26</ele>
        <time>2018-02-07T08:16:23Z</time>
      </trkpt>
      <trkpt lat="45.63544" lon="6.66201">
        <ele>2161.66</ele>
        <time>2018-02-07T08:16:38Z</time>
      </trkpt>
      <trkpt lat="45.63545" lon="6.66202">
        <ele>2161.18</ele>
        <time>2018-02-07T08:16:58Z</time>
      </trkpt>
      <trkpt lat="45.63548" lon="6.66204">
        <ele>2162.62</ele>
        <time>2018-02-07T08:17:18Z</time>
      </trkpt>
      <trkpt lat="45.63557" lon="6.66201">
        <ele>2163.58</ele>
        <time>2018-02-07T08:17:33Z</time>
      </trkpt>
      <trkpt lat="45.63568" lon="6.66197">
        <ele>2164.55</ele>
        <time>2018-02-07T08:17:49Z</time>
      </trkpt>
      <trkpt lat="45.63578" lon="6.66193">
        <ele>2165.03</ele>
        <time>2018-02-07T08:18:05Z</time>
      </trkpt>
      <trkpt lat="45.63587" lon="6.66194">
        <ele>2166.47</ele>
        <time>2018-02-07T08:18:22Z</time>
      </trkpt>
      <trkpt lat="45.636" lon="6.66195">
        <ele>2166.95</ele>
        <time>2018-02-07T08:18:39Z</time>
      </trkpt>
      <trkpt lat="45.63611" lon="6.66192">
        <ele>2166.47</ele>
        <time>2018-02-07T08:18:58Z</time>
      </trkpt>
      <trkpt lat="45.6362" lon="6.66189">
        <ele>2167.91</ele>
        <time>2018-02-07T08:19:12Z</time>
      </trkpt>
      <trkpt lat="45.63625" lon="6.66188">
        <ele>2168.87</ele>
        <time>2018-02-07T08:19:24Z</time>
      </trkpt>
      <trkpt lat="45.63632" lon="6.66185">
        <ele>2170.31</ele>
        <time>2018-02-07T08:19:40Z</time>
      </trkpt>
      <trkpt lat="45.63639" lon="6.66184">
        <ele>2171.76</ele>
        <time>2018-02-07T08:19:57Z</time>
      </trkpt>
      <trkpt lat="45.63648" lon="6.66184">
        <ele>2173.68</ele>
        <time>2018-02-07T08:20:12Z</time>
      </trkpt>
      <trkpt lat="45.63655" lon="6.66183">
        <ele>2175.12</ele>
        <time>2018-02-07T08:20:27Z</time>
      </trkpt>
      <trkpt lat="45.63664" lon="6.66186">
        <ele>2177.04</ele>
        <time>2018-02-07T08:20:46Z</time>
      </trkpt>
      <trkpt lat="45.6367" lon="6.66187">
        <ele>2178.48</ele>
        <time>2018-02-07T08:20:58Z</time>
      </trkpt>
      <trkpt lat="45.63678" lon="6.66191">
        <ele>2179.45</ele>
        <time>2018-02-07T08:21:14Z</time>
      </trkpt>
      <trkpt lat="45.63686" lon="6.66194">
        <ele>2181.85</ele>
        <time>2018-02-07T08:21:30Z</time>
      </trkpt>
      <trkpt lat="45.63696" lon="6.66201">
        <ele>2183.77</ele>
        <time>2018-02-07T08:21:48Z</time>
      </trkpt>
      <trkpt lat="45.63704" lon="6.66206">
        <ele>2184.73</ele>
        <time>2018-02-07T08:22:05Z</time>
      </trkpt>
      <trkpt lat="45.6371" lon="6.66209">
        <ele>2186.66</ele>
        <time>2018-02-07T08:22:20Z</time>
      </trkpt>
      <trkpt lat="45.63717" lon="6.66214">
        <ele>2188.58</ele>
        <time>2018-02-07T08:22:33Z</time>
      </trkpt>
      <trkpt lat="45.63724" lon="6.66219">
        <ele>2189.54</ele>
        <time>2018-02-07T08:22:44Z</time>
      </trkpt>
      <trkpt lat="45.63732" lon="6.66224">
        <ele>2191.46</ele>
        <time>2018-02-07T08:23:01Z</time>
      </trkpt>
      <trkpt lat="45.63737" lon="6.66227">
        <ele>2192.9</ele>
        <time>2018-02-07T08:23:16Z</time>
      </trkpt>
      <trkpt lat="45.63743" lon="6.6623">
        <ele>2195.31</ele>
        <time>2018-02-07T08:23:27Z</time>
      </trkpt>
      <trkpt lat="45.6375" lon="6.66234">
        <ele>2197.23</ele>
        <time>2018-02-07T08:23:43Z</time>
      </trkpt>
      <trkpt lat="45.63758" lon="6.66238">
        <ele>2198.19</ele>
        <time>2018-02-07T08:23:58Z</time>
      </trkpt>
      <trkpt lat="45.63765" lon="6.66241">
        <ele>2200.59</ele>
        <time>2018-02-07T08:24:13Z</time>
      </trkpt>
      <trkpt lat="45.63772" lon="6.66246">
        <ele>2202.52</ele>
        <time>2018-02-07T08:24:27Z</time>
      </trkpt>
      <trkpt lat="45.63779" lon="6.66248">
        <ele>2203.48</ele>
        <time>2018-02-07T08:24:41Z</time>
      </trkpt>
      <trkpt lat="45.63788" lon="6.66251">
        <ele>2205.88</ele>
        <time>2018-02-07T08:24:58Z</time>
      </trkpt>
      <trkpt lat="45.63795" lon="6.66253">
        <ele>2207.32</ele>
        <time>2018-02-07T08:25:14Z</time>
      </trkpt>
      <trkpt lat="45.63803" lon="6.66253">
        <ele>2208.77</ele>
        <time>2018-02-07T08:25:27Z</time>
      </trkpt>
      <trkpt lat="45.63813" lon="6.66256">
        <ele>2211.65</ele>
        <time>2018-02-07T08:25:46Z</time>
      </trkpt>
      <trkpt lat="45.63821" lon="6.66256">
        <ele>2214.05</ele>
        <time>2018-02-07T08:26:02Z</time>
      </trkpt>
      <trkpt lat="45.63829" lon="6.66255">
        <ele>2215.98</ele>
        <time>2018-02-07T08:26:16Z</time>
      </trkpt>
      <trkpt lat="45.63838" lon="6.66256">
        <ele>2217.42</ele>
        <time>2018-02-07T08:26:32Z</time>
      </trkpt>
      <trkpt lat="45.63845" lon="6.66257">
        <ele>2219.34</ele>
        <time>2018-02-07T08:26:48Z</time>
      </trkpt>
      <trkpt lat="45.63854" lon="6.66259">
        <ele>2220.78</ele>
        <time>2018-02-07T08:27:02Z</time>
      </trkpt>
      <trkpt lat="45.63863" lon="6.66259">
        <ele>2222.22</ele>
        <time>2018-02-07T08:27:16Z</time>
      </trkpt>
      <trkpt lat="45.63872" lon="6.66263">
        <ele>2224.63</ele>
        <time>2018-02-07T08:27:34Z</time>
      </trkpt>
      <trkpt lat="45.63881" lon="6.66265">
        <ele>2225.11</ele>
        <time>2018-02-07T08:27:47Z</time>
      </trkpt>
      <trkpt lat="45.63888" lon="6.66266">
        <ele>2226.07</ele>
        <time>2018-02-07T08:28:00Z</time>
      </trkpt>
      <trkpt lat="45.63898" lon="6.66267">
        <ele>2227.99</ele>
        <time>2018-02-07T08:28:17Z</time>
      </trkpt>
      <trkpt lat="45.63906" lon="6.66268">
        <ele>2228.95</ele>
        <time>2018-02-07T08:28:31Z</time>
      </trkpt>
      <trkpt lat="45.63916" lon="6.66268">
        <ele>2230.88</ele>
        <time>2018-02-07T08:28:49Z</time>
      </trkpt>
      <trkpt lat="45.63925" lon="6.6627">
        <ele>2232.8</ele>
        <time>2018-02-07T08:29:09Z</time>
      </trkpt>
      <trkpt lat="45.63935" lon="6.66272">
        <ele>2234.24</ele>
        <time>2018-02-07T08:29:26Z</time>
      </trkpt>
      <trkpt lat="45.63943" lon="6.66273">
        <ele>2236.16</ele>
        <time>2018-02-07T08:29:43Z</time>
      </trkpt>
      <trkpt lat="45.6395" lon="6.66276">
        <ele>2238.57</ele>
        <time>2018-02-07T08:29:58Z</time>
      </trkpt>
      <trkpt lat="45.63957" lon="6.66277">
        <ele>2240.01</ele>
        <time>2018-02-07T08:30:13Z</time>
      </trkpt>
      <trkpt lat="45.63965" lon="6.66276">
        <ele>2241.93</ele>
        <time>2018-02-07T08:30:29Z</time>
      </trkpt>
      <trkpt lat="45.63973" lon="6.66279">
        <ele>2243.85</ele>
        <time>2018-02-07T08:30:45Z</time>
      </trkpt>
      <trkpt lat="45.6398" lon="6.6628">
        <ele>2246.74</ele>
        <time>2018-02-07T08:31:00Z</time>
      </trkpt>
      <trkpt lat="45.63987" lon="6.66281">
        <ele>2247.7</ele>
        <time>2018-02-07T08:31:15Z</time>
      </trkpt>
      <trkpt lat="45.63993" lon="6.66283">
        <ele>2250.1</ele>
        <time>2018-02-07T08:31:29Z</time>
      </trkpt>
      <trkpt lat="45.64" lon="6.66283">
        <ele>2251.54</ele>
        <time>2018-02-07T08:31:45Z</time>
      </trkpt>
      <trkpt lat="45.64008" lon="6.66284">
        <ele>2253.47</ele>
        <time>2018-02-07T08:32:00Z</time>
      </trkpt>
      <trkpt lat="45.64016" lon="6.66285">
        <ele>2255.39</ele>
        <time>2018-02-07T08:32:15Z</time>
      </trkpt>
      <trkpt lat="45.64023" lon="6.66285">
        <ele>2257.31</ele>
        <time>2018-02-07T08:32:32Z</time>
      </trkpt>
      <trkpt lat="45.64032" lon="6.66286">
        <ele>2259.72</ele>
        <time>2018-02-07T08:32:47Z</time>
      </trkpt>
      <trkpt lat="45.6404" lon="6.66289">
        <ele>2261.64</ele>
        <time>2018-02-07T08:33:04Z</time>
      </trkpt>
      <trkpt lat="45.64047" lon="6.66292">
        <ele>2263.56</ele>
        <time>2018-02-07T08:33:18Z</time>
      </trkpt>
      <trkpt lat="45.64054" lon="6.66295">
        <ele>2265</ele>
        <time>2018-02-07T08:33:33Z</time>
      </trkpt>
      <trkpt lat="45.64062" lon="6.66296">
        <ele>2266.93</ele>
        <time>2018-02-07T08:33:48Z</time>
      </trkpt>
      <trkpt lat="45.6407" lon="6.66296">
        <ele>2268.85</ele>
        <time>2018-02-07T08:34:04Z</time>
      </trkpt>
      <trkpt lat="45.64077" lon="6.66295">
        <ele>2271.25</ele>
        <time>2018-02-07T08:34:18Z</time>
      </trkpt>
      <trkpt lat="45.64084" lon="6.66295">
        <ele>2273.17</ele>
        <time>2018-02-07T08:34:34Z</time>
      </trkpt>
      <trkpt lat="45.64091" lon="6.66294">
        <ele>2275.1</ele>
        <time>2018-02-07T08:34:49Z</time>
      </trkpt>
      <trkpt lat="45.64098" lon="6.66293">
        <ele>2276.54</ele>
        <time>2018-02-07T08:35:04Z</time>
      </trkpt>
      <trkpt lat="45.64105" lon="6.66293">
        <ele>2278.94</ele>
        <time>2018-02-07T08:35:20Z</time>
      </trkpt>
      <trkpt lat="45.64112" lon="6.66292">
        <ele>2280.38</ele>
        <time>2018-02-07T08:35:34Z</time>
      </trkpt>
      <trkpt lat="45.64118" lon="6.66292">
        <ele>2282.79</ele>
        <time>2018-02-07T08:35:49Z</time>
      </trkpt>
      <trkpt lat="45.64126" lon="6.66291">
        <ele>2284.23</ele>
        <time>2018-02-07T08:36:02Z</time>
      </trkpt>
      <trkpt lat="45.64127" lon="6.66284">
        <ele>2286.15</ele>
        <time>2018-02-07T08:36:17Z</time>
      </trkpt>
      <trkpt lat="45.64125" lon="6.66273">
        <ele>2288.08</ele>
        <time>2018-02-07T08:36:32Z</time>
      </trkpt>
      <trkpt lat="45.64124" lon="6.66264">
        <ele>2290</ele>
        <time>2018-02-07T08:36:46Z</time>
      </trkpt>
      <trkpt lat="45.64127" lon="6.66257">
        <ele>2291.44</ele>
        <time>2018-02-07T08:36:59Z</time>
      </trkpt>
      <trkpt lat="45.64134" lon="6.66263">
        <ele>2293.36</ele>
        <time>2018-02-07T08:37:14Z</time>
      </trkpt>
      <trkpt lat="45.64141" lon="6.66264">
        <ele>2294.8</ele>
        <time>2018-02-07T08:37:30Z</time>
      </trkpt>
      <trkpt lat="45.64149" lon="6.66268">
        <ele>2296.25</ele>
        <time>2018-02-07T08:37:47Z</time>
      </trkpt>
      <trkpt lat="45.64157" lon="6.6627">
        <ele>2297.69</ele>
        <time>2018-02-07T08:38:03Z</time>
      </trkpt>
      <trkpt lat="45.64164" lon="6.66272">
        <ele>2299.61</ele>
        <time>2018-02-07T08:38:18Z</time>
      </trkpt>
      <trkpt lat="45.64171" lon="6.66274">
        <ele>2302.01</ele>
        <time>2018-02-07T08:38:33Z</time>
      </trkpt>
      <trkpt lat="45.64178" lon="6.66276">
        <ele>2302.98</ele>
        <time>2018-02-07T08:38:47Z</time>
      </trkpt>
      <trkpt lat="45.64185" lon="6.66281">
        <ele>2304.9</ele>
        <time>2018-02-07T08:39:04Z</time>
      </trkpt>
      <trkpt lat="45.64191" lon="6.66285">
        <ele>2306.82</ele>
        <time>2018-02-07T08:39:19Z</time>
      </trkpt>
      <trkpt lat="45.64198" lon="6.66288">
        <ele>2308.26</ele>
        <time>2018-02-07T08:39:34Z</time>
      </trkpt>
      <trkpt lat="45.64205" lon="6.6629">
        <ele>2311.15</ele>
        <time>2018-02-07T08:39:49Z</time>
      </trkpt>
      <trkpt lat="45.64209" lon="6.66292">
        <ele>2312.59</ele>
        <time>2018-02-07T08:40:03Z</time>
      </trkpt>
      <trkpt lat="45.64215" lon="6.66294">
        <ele>2314.99</ele>
        <time>2018-02-07T08:40:16Z</time>
      </trkpt>
      <trkpt lat="45.64219" lon="6.66297">
        <ele>2316.43</ele>
        <time>2018-02-07T08:40:29Z</time>
      </trkpt>
      <trkpt lat="45.64225" lon="6.663">
        <ele>2318.84</ele>
        <time>2018-02-07T08:40:43Z</time>
      </trkpt>
      <trkpt lat="45.6423" lon="6.66302">
        <ele>2320.28</ele>
        <time>2018-02-07T08:40:56Z</time>
      </trkpt>
      <trkpt lat="45.64235" lon="6.66304">
        <ele>2322.68</ele>
        <time>2018-02-07T08:41:10Z</time>
      </trkpt>
      <trkpt lat="45.64241" lon="6.66308">
        <ele>2324.61</ele>
        <time>2018-02-07T08:41:25Z</time>
      </trkpt>
      <trkpt lat="45.64247" lon="6.66309">
        <ele>2327.01</ele>
        <time>2018-02-07T08:41:39Z</time>
      </trkpt>
      <trkpt lat="45.64253" lon="6.66309">
        <ele>2328.45</ele>
        <time>2018-02-07T08:41:53Z</time>
      </trkpt>
      <trkpt lat="45.6426" lon="6.66306">
        <ele>2330.85</ele>
        <time>2018-02-07T08:42:07Z</time>
      </trkpt>
      <trkpt lat="45.64265" lon="6.66301">
        <ele>2332.78</ele>
        <time>2018-02-07T08:42:21Z</time>
      </trkpt>
      <trkpt lat="45.64271" lon="6.66302">
        <ele>2334.22</ele>
        <time>2018-02-07T08:42:37Z</time>
      </trkpt>
      <trkpt lat="45.64279" lon="6.66303">
        <ele>2336.14</ele>
        <time>2018-02-07T08:42:52Z</time>
      </trkpt>
      <trkpt lat="45.64285" lon="6.66302">
        <ele>2338.06</ele>
        <time>2018-02-07T08:43:06Z</time>
      </trkpt>
      <trkpt lat="45.64292" lon="6.66301">
        <ele>2339.99</ele>
        <time>2018-02-07T08:43:21Z</time>
      </trkpt>
      <trkpt lat="45.64299" lon="6.66298">
        <ele>2341.43</ele>
        <time>2018-02-07T08:43:37Z</time>
      </trkpt>
      <trkpt lat="45.64307" lon="6.66294">
        <ele>2342.87</ele>
        <time>2018-02-07T08:43:50Z</time>
      </trkpt>
      <trkpt lat="45.64315" lon="6.6629">
        <ele>2344.79</ele>
        <time>2018-02-07T08:44:04Z</time>
      </trkpt>
      <trkpt lat="45.64323" lon="6.66286">
        <ele>2346.23</ele>
        <time>2018-02-07T08:44:23Z</time>
      </trkpt>
      <trkpt lat="45.6433" lon="6.6629">
        <ele>2347.68</ele>
        <time>2018-02-07T08:44:39Z</time>
      </trkpt>
      <trkpt lat="45.6434" lon="6.66292">
        <ele>2349.12</ele>
        <time>2018-02-07T08:44:57Z</time>
      </trkpt>
      <trkpt lat="45.64352" lon="6.66287">
        <ele>2350.56</ele>
        <time>2018-02-07T08:45:18Z</time>
      </trkpt>
      <trkpt lat="45.64361" lon="6.6628">
        <ele>2352</ele>
        <time>2018-02-07T08:45:33Z</time>
      </trkpt>
      <trkpt lat="45.64369" lon="6.66276">
        <ele>2352.96</ele>
        <time>2018-02-07T08:45:48Z</time>
      </trkpt>
      <trkpt lat="45.64376" lon="6.66274">
        <ele>2354.41</ele>
        <time>2018-02-07T08:46:03Z</time>
      </trkpt>
      <trkpt lat="45.64386" lon="6.66272">
        <ele>2355.85</ele>
        <time>2018-02-07T08:46:19Z</time>
      </trkpt>
      <trkpt lat="45.64398" lon="6.66272">
        <ele>2357.29</ele>
        <time>2018-02-07T08:46:38Z</time>
      </trkpt>
      <trkpt lat="45.64407" lon="6.6627">
        <ele>2358.25</ele>
        <time>2018-02-07T08:46:52Z</time>
      </trkpt>
      <trkpt lat="45.64417" lon="6.66269">
        <ele>2360.17</ele>
        <time>2018-02-07T08:47:12Z</time>
      </trkpt>
      <trkpt lat="45.64425" lon="6.66268">
        <ele>2361.62</ele>
        <time>2018-02-07T08:47:29Z</time>
      </trkpt>
      <trkpt lat="45.64434" lon="6.66271">
        <ele>2363.54</ele>
        <time>2018-02-07T08:47:43Z</time>
      </trkpt>
      <trkpt lat="45.64441" lon="6.66268">
        <ele>2364.5</ele>
        <time>2018-02-07T08:47:58Z</time>
      </trkpt>
      <trkpt lat="45.64449" lon="6.66271">
        <ele>2366.42</ele>
        <time>2018-02-07T08:48:14Z</time>
      </trkpt>
      <trkpt lat="45.64455" lon="6.66275">
        <ele>2367.86</ele>
        <time>2018-02-07T08:48:28Z</time>
      </trkpt>
      <trkpt lat="45.64461" lon="6.66278">
        <ele>2370.27</ele>
        <time>2018-02-07T08:48:43Z</time>
      </trkpt>
      <trkpt lat="45.64467" lon="6.66281">
        <ele>2372.67</ele>
        <time>2018-02-07T08:48:57Z</time>
      </trkpt>
      <trkpt lat="45.64472" lon="6.66283">
        <ele>2374.11</ele>
        <time>2018-02-07T08:49:11Z</time>
      </trkpt>
      <trkpt lat="45.64478" lon="6.66289">
        <ele>2376.52</ele>
        <time>2018-02-07T08:49:26Z</time>
      </trkpt>
      <trkpt lat="45.64483" lon="6.66288">
        <ele>2377.96</ele>
        <time>2018-02-07T08:49:41Z</time>
      </trkpt>
      <trkpt lat="45.64489" lon="6.66291">
        <ele>2380.36</ele>
        <time>2018-02-07T08:49:56Z</time>
      </trkpt>
      <trkpt lat="45.64495" lon="6.66291">
        <ele>2382.28</ele>
        <time>2018-02-07T08:50:12Z</time>
      </trkpt>
      <trkpt lat="45.64506" lon="6.66291">
        <ele>2383.73</ele>
        <time>2018-02-07T08:50:28Z</time>
      </trkpt>
      <trkpt lat="45.64511" lon="6.66295">
        <ele>2385.17</ele>
        <time>2018-02-07T08:50:44Z</time>
      </trkpt>
      <trkpt lat="45.64521" lon="6.66295">
        <ele>2387.57</ele>
        <time>2018-02-07T08:50:58Z</time>
      </trkpt>
      <trkpt lat="45.6452" lon="6.66298">
        <ele>2387.57</ele>
        <time>2018-02-07T08:51:12Z</time>
      </trkpt>
      <trkpt lat="45.64523" lon="6.66297">
        <ele>2387.57</ele>
        <time>2018-02-07T08:51:27Z</time>
      </trkpt>
      <trkpt lat="45.64523" lon="6.66296">
        <ele>2388.05</ele>
        <time>2018-02-07T08:51:42Z</time>
      </trkpt>
      <trkpt lat="45.64524" lon="6.66292">
        <ele>2388.05</ele>
        <time>2018-02-07T08:51:48Z</time>
      </trkpt>
      <trkpt lat="45.64522" lon="6.6629">
        <ele>2387.09</ele>
        <time>2018-02-07T08:51:59Z</time>
      </trkpt>
      <trkpt lat="45.64521" lon="6.66294">
        <ele>2387.09</ele>
        <time>2018-02-07T08:52:20Z</time>
      </trkpt>
      <trkpt lat="45.64516" lon="6.66305">
        <ele>2388.05</ele>
        <time>2018-02-07T08:52:46Z</time>
      </trkpt>
      <trkpt lat="45.6452" lon="6.66298">
        <ele>2388.53</ele>
        <time>2018-02-07T08:53:06Z</time>
      </trkpt>
      <trkpt lat="45.64523" lon="6.66294">
        <ele>2388.53</ele>
        <time>2018-02-07T08:53:25Z</time>
      </trkpt>
      <trkpt lat="45.64523" lon="6.66295">
        <ele>2388.05</ele>
        <time>2018-02-07T08:53:51Z</time>
      </trkpt>
      <trkpt lat="45.64521" lon="6.66301">
        <ele>2389.01</ele>
        <time>2018-02-07T08:54:03Z</time>
      </trkpt>
      <trkpt lat="45.64518" lon="6.66311">
        <ele>2391.42</ele>
        <time>2018-02-07T08:54:18Z</time>
      </trkpt>
      <trkpt lat="45.64525" lon="6.66316">
        <ele>2394.3</ele>
        <time>2018-02-07T08:54:34Z</time>
      </trkpt>
      <trkpt lat="45.6453" lon="6.66319">
        <ele>2395.74</ele>
        <time>2018-02-07T08:54:48Z</time>
      </trkpt>
      <trkpt lat="45.64537" lon="6.66323">
        <ele>2398.63</ele>
        <time>2018-02-07T08:55:03Z</time>
      </trkpt>
      <trkpt lat="45.64543" lon="6.66326">
        <ele>2401.03</ele>
        <time>2018-02-07T08:55:17Z</time>
      </trkpt>
      <trkpt lat="45.64549" lon="6.66328">
        <ele>2402.95</ele>
        <time>2018-02-07T08:55:31Z</time>
      </trkpt>
      <trkpt lat="45.64558" lon="6.66327">
        <ele>2403.91</ele>
        <time>2018-02-07T08:55:46Z</time>
      </trkpt>
      <trkpt lat="45.64565" lon="6.66326">
        <ele>2405.36</ele>
        <time>2018-02-07T08:55:59Z</time>
      </trkpt>
      <trkpt lat="45.64572" lon="6.66328">
        <ele>2406.8</ele>
        <time>2018-02-07T08:56:12Z</time>
      </trkpt>
      <trkpt lat="45.64582" lon="6.6633">
        <ele>2409.68</ele>
        <time>2018-02-07T08:56:30Z</time>
      </trkpt>
      <trkpt lat="45.6459" lon="6.66334">
        <ele>2411.12</ele>
        <time>2018-02-07T08:56:47Z</time>
      </trkpt>
      <trkpt lat="45.64596" lon="6.66341">
        <ele>2413.53</ele>
        <time>2018-02-07T08:57:05Z</time>
      </trkpt>
      <trkpt lat="45.64596" lon="6.66341">
        <ele>2413.05</ele>
        <time>2018-02-07T08:57:23Z</time>
      </trkpt>
      <trkpt lat="45.64598" lon="6.66342">
        <ele>2414.01</ele>
        <time>2018-02-07T08:57:45Z</time>
      </trkpt>
      <trkpt lat="45.64599" lon="6.66342">
        <ele>2413.53</ele>
        <time>2018-02-07T08:58:21Z</time>
      </trkpt>
      <trkpt lat="45.64597" lon="6.66341">
        <ele>2413.53</ele>
        <time>2018-02-07T08:58:49Z</time>
      </trkpt>
      <trkpt lat="45.64598" lon="6.66342">
        <ele>2414.01</ele>
        <time>2018-02-07T08:59:17Z</time>
      </trkpt>
      <trkpt lat="45.646" lon="6.66344">
        <ele>2414.01</ele>
        <time>2018-02-07T08:59:47Z</time>
      </trkpt>
      <trkpt lat="45.64598" lon="6.66341">
        <ele>2414.01</ele>
        <time>2018-02-07T09:00:12Z</time>
      </trkpt>
      <trkpt lat="45.64598" lon="6.6634">
        <ele>2414.01</ele>
        <time>2018-02-07T09:00:44Z</time>
      </trkpt>
      <trkpt lat="45.646" lon="6.66343">
        <ele>2414.01</ele>
        <time>2018-02-07T09:01:09Z</time>
      </trkpt>
      <trkpt lat="45.64599" lon="6.66339">
        <ele>2414.49</ele>
        <time>2018-02-07T09:01:37Z</time>
      </trkpt>
      <trkpt lat="45.64603" lon="6.66344">
        <ele>2414.49</ele>
        <time>2018-02-07T09:01:53Z</time>
      </trkpt>
      <trkpt lat="45.64608" lon="6.6635">
        <ele>2416.41</ele>
        <time>2018-02-07T09:02:06Z</time>
      </trkpt>
      <trkpt lat="45.64615" lon="6.66353">
        <ele>2418.33</ele>
        <time>2018-02-07T09:02:20Z</time>
      </trkpt>
      <trkpt lat="45.64622" lon="6.66353">
        <ele>2420.26</ele>
        <time>2018-02-07T09:02:35Z</time>
      </trkpt>
      <trkpt lat="45.64628" lon="6.66355">
        <ele>2421.7</ele>
        <time>2018-02-07T09:02:49Z</time>
      </trkpt>
      <trkpt lat="45.64635" lon="6.66354">
        <ele>2423.14</ele>
        <time>2018-02-07T09:03:04Z</time>
      </trkpt>
      <trkpt lat="45.64637" lon="6.66354">
        <ele>2424.1</ele>
        <time>2018-02-07T09:03:11Z</time>
      </trkpt>
      <trkpt lat="45.64636" lon="6.66362">
        <ele>2424.1</ele>
        <time>2018-02-07T09:03:23Z</time>
      </trkpt>
      <trkpt lat="45.64631" lon="6.66369">
        <ele>2425.54</ele>
        <time>2018-02-07T09:03:36Z</time>
      </trkpt>
      <trkpt lat="45.64636" lon="6.66368">
        <ele>2426.5</ele>
        <time>2018-02-07T09:03:49Z</time>
      </trkpt>
      <trkpt lat="45.64643" lon="6.66365">
        <ele>2428.43</ele>
        <time>2018-02-07T09:04:05Z</time>
      </trkpt>
      <trkpt lat="45.64649" lon="6.66367">
        <ele>2429.39</ele>
        <time>2018-02-07T09:04:20Z</time>
      </trkpt>
      <trkpt lat="45.64646" lon="6.66373">
        <ele>2430.83</ele>
        <time>2018-02-07T09:04:32Z</time>
      </trkpt>
      <trkpt lat="45.64646" lon="6.66375">
        <ele>2431.31</ele>
        <time>2018-02-07T09:04:45Z</time>
      </trkpt>
      <trkpt lat="45.6465" lon="6.66377">
        <ele>2433.23</ele>
        <time>2018-02-07T09:05:01Z</time>
      </trkpt>
      <trkpt lat="45.64656" lon="6.66374">
        <ele>2434.2</ele>
        <time>2018-02-07T09:05:19Z</time>
      </trkpt>
      <trkpt lat="45.64659" lon="6.66365">
        <ele>2434.68</ele>
        <time>2018-02-07T09:05:35Z</time>
      </trkpt>
      <trkpt lat="45.64663" lon="6.66372">
        <ele>2435.16</ele>
        <time>2018-02-07T09:05:48Z</time>
      </trkpt>
      <trkpt lat="45.64657" lon="6.66381">
        <ele>2436.12</ele>
        <time>2018-02-07T09:06:03Z</time>
      </trkpt>
      <trkpt lat="45.64654" lon="6.66386">
        <ele>2436.6</ele>
        <time>2018-02-07T09:06:19Z</time>
      </trkpt>
      <trkpt lat="45.64659" lon="6.66381">
        <ele>2438.52</ele>
        <time>2018-02-07T09:06:32Z</time>
      </trkpt>
      <trkpt lat="45.64666" lon="6.66374">
        <ele>2439.48</ele>
        <time>2018-02-07T09:06:46Z</time>
      </trkpt>
      <trkpt lat="45.64668" lon="6.6638">
        <ele>2439</ele>
        <time>2018-02-07T09:06:59Z</time>
      </trkpt>
      <trkpt lat="45.64665" lon="6.66385">
        <ele>2440.44</ele>
        <time>2018-02-07T09:07:14Z</time>
      </trkpt>
      <trkpt lat="45.64659" lon="6.66391">
        <ele>2441.41</ele>
        <time>2018-02-07T09:07:29Z</time>
      </trkpt>
      <trkpt lat="45.64664" lon="6.66389">
        <ele>2442.85</ele>
        <time>2018-02-07T09:07:42Z</time>
      </trkpt>
      <trkpt lat="45.64672" lon="6.66387">
        <ele>2443.33</ele>
        <time>2018-02-07T09:08:02Z</time>
      </trkpt>
      <trkpt lat="45.64673" lon="6.6639">
        <ele>2444.29</ele>
        <time>2018-02-07T09:08:17Z</time>
      </trkpt>
      <trkpt lat="45.64668" lon="6.66397">
        <ele>2445.73</ele>
        <time>2018-02-07T09:08:31Z</time>
      </trkpt>
      <trkpt lat="45.64666" lon="6.664">
        <ele>2446.21</ele>
        <time>2018-02-07T09:08:47Z</time>
      </trkpt>
      <trkpt lat="45.64673" lon="6.66397">
        <ele>2447.65</ele>
        <time>2018-02-07T09:09:03Z</time>
      </trkpt>
      <trkpt lat="45.64679" lon="6.66393">
        <ele>2448.62</ele>
        <time>2018-02-07T09:09:18Z</time>
      </trkpt>
      <trkpt lat="45.64678" lon="6.66401">
        <ele>2449.1</ele>
        <time>2018-02-07T09:09:31Z</time>
      </trkpt>
      <trkpt lat="45.64673" lon="6.66405">
        <ele>2450.54</ele>
        <time>2018-02-07T09:09:42Z</time>
      </trkpt>
      <trkpt lat="45.64676" lon="6.66406">
        <ele>2451.02</ele>
        <time>2018-02-07T09:09:55Z</time>
      </trkpt>
      <trkpt lat="45.64684" lon="6.66403">
        <ele>2452.46</ele>
        <time>2018-02-07T09:10:09Z</time>
      </trkpt>
      <trkpt lat="45.64687" lon="6.66402">
        <ele>2453.42</ele>
        <time>2018-02-07T09:10:24Z</time>
      </trkpt>
      <trkpt lat="45.6469" lon="6.66409">
        <ele>2454.86</ele>
        <time>2018-02-07T09:10:35Z</time>
      </trkpt>
      <trkpt lat="45.64693" lon="6.66408">
        <ele>2457.27</ele>
        <time>2018-02-07T09:10:49Z</time>
      </trkpt>
      <trkpt lat="45.64693" lon="6.66418">
        <ele>2458.23</ele>
        <time>2018-02-07T09:11:03Z</time>
      </trkpt>
      <trkpt lat="45.64696" lon="6.6642">
        <ele>2460.15</ele>
        <time>2018-02-07T09:11:18Z</time>
      </trkpt>
      <trkpt lat="45.64704" lon="6.6641">
        <ele>2462.07</ele>
        <time>2018-02-07T09:11:35Z</time>
      </trkpt>
      <trkpt lat="45.64707" lon="6.66403">
        <ele>2463.52</ele>
        <time>2018-02-07T09:11:47Z</time>
      </trkpt>
      <trkpt lat="45.64711" lon="6.66399">
        <ele>2464.96</ele>
        <time>2018-02-07T09:12:02Z</time>
      </trkpt>
      <trkpt lat="45.64711" lon="6.66401">
        <ele>2465.44</ele>
        <time>2018-02-07T09:12:16Z</time>
      </trkpt>
      <trkpt lat="45.64715" lon="6.66409">
        <ele>2465.92</ele>
        <time>2018-02-07T09:12:28Z</time>
      </trkpt>
      <trkpt lat="45.6472" lon="6.66415">
        <ele>2467.36</ele>
        <time>2018-02-07T09:12:43Z</time>
      </trkpt>
      <trkpt lat="45.64725" lon="6.66425">
        <ele>2469.28</ele>
        <time>2018-02-07T09:12:57Z</time>
      </trkpt>
      <trkpt lat="45.64723" lon="6.66438">
        <ele>2470.24</ele>
        <time>2018-02-07T09:13:12Z</time>
      </trkpt>
      <trkpt lat="45.64718" lon="6.66444">
        <ele>2471.21</ele>
        <time>2018-02-07T09:13:25Z</time>
      </trkpt>
      <trkpt lat="45.64715" lon="6.66454">
        <ele>2472.65</ele>
        <time>2018-02-07T09:13:38Z</time>
      </trkpt>
      <trkpt lat="45.64717" lon="6.66465">
        <ele>2474.09</ele>
        <time>2018-02-07T09:13:55Z</time>
      </trkpt>
      <trkpt lat="45.64718" lon="6.66475">
        <ele>2475.53</ele>
        <time>2018-02-07T09:14:09Z</time>
      </trkpt>
      <trkpt lat="45.6472" lon="6.66482">
        <ele>2477.45</ele>
        <time>2018-02-07T09:14:21Z</time>
      </trkpt>
      <trkpt lat="45.64724" lon="6.66488">
        <ele>2479.38</ele>
        <time>2018-02-07T09:14:37Z</time>
      </trkpt>
      <trkpt lat="45.64729" lon="6.66497">
        <ele>2481.3</ele>
        <time>2018-02-07T09:14:52Z</time>
      </trkpt>
      <trkpt lat="45.6473" lon="6.66506">
        <ele>2482.74</ele>
        <time>2018-02-07T09:15:07Z</time>
      </trkpt>
      <trkpt lat="45.64736" lon="6.66512">
        <ele>2484.18</ele>
        <time>2018-02-07T09:15:22Z</time>
      </trkpt>
      <trkpt lat="45.6474" lon="6.66519">
        <ele>2486.11</ele>
        <time>2018-02-07T09:15:37Z</time>
      </trkpt>
      <trkpt lat="45.64743" lon="6.66527">
        <ele>2488.03</ele>
        <time>2018-02-07T09:15:52Z</time>
      </trkpt>
      <trkpt lat="45.64748" lon="6.66535">
        <ele>2489.47</ele>
        <time>2018-02-07T09:16:07Z</time>
      </trkpt>
      <trkpt lat="45.64749" lon="6.66536">
        <ele>2489.47</ele>
        <time>2018-02-07T09:16:28Z</time>
      </trkpt>
      <trkpt lat="45.64755" lon="6.66545">
        <ele>2491.87</ele>
        <time>2018-02-07T09:16:43Z</time>
      </trkpt>
      <trkpt lat="45.64761" lon="6.66553">
        <ele>2493.8</ele>
        <time>2018-02-07T09:17:02Z</time>
      </trkpt>
      <trkpt lat="45.64768" lon="6.6656">
        <ele>2495.72</ele>
        <time>2018-02-07T09:17:19Z</time>
      </trkpt>
      <trkpt lat="45.64774" lon="6.66566">
        <ele>2496.68</ele>
        <time>2018-02-07T09:17:34Z</time>
      </trkpt>
      <trkpt lat="45.64782" lon="6.66573">
        <ele>2498.12</ele>
        <time>2018-02-07T09:17:51Z</time>
      </trkpt>
      <trkpt lat="45.64788" lon="6.66579">
        <ele>2499.57</ele>
        <time>2018-02-07T09:18:09Z</time>
      </trkpt>
      <trkpt lat="45.64797" lon="6.66586">
        <ele>2501.49</ele>
        <time>2018-02-07T09:18:26Z</time>
      </trkpt>
      <trkpt lat="45.64804" lon="6.66592">
        <ele>2503.41</ele>
        <time>2018-02-07T09:18:42Z</time>
      </trkpt>
      <trkpt lat="45.6481" lon="6.66595">
        <ele>2504.85</ele>
        <time>2018-02-07T09:18:55Z</time>
      </trkpt>
      <trkpt lat="45.64818" lon="6.66602">
        <ele>2507.26</ele>
        <time>2018-02-07T09:19:12Z</time>
      </trkpt>
      <trkpt lat="45.64824" lon="6.6661">
        <ele>2509.66</ele>
        <time>2018-02-07T09:19:29Z</time>
      </trkpt>
      <trkpt lat="45.64827" lon="6.66617">
        <ele>2510.14</ele>
        <time>2018-02-07T09:19:41Z</time>
      </trkpt>
      <trkpt lat="45.64833" lon="6.66626">
        <ele>2512.06</ele>
        <time>2018-02-07T09:19:57Z</time>
      </trkpt>
      <trkpt lat="45.64839" lon="6.66634">
        <ele>2513.98</ele>
        <time>2018-02-07T09:20:13Z</time>
      </trkpt>
      <trkpt lat="45.64849" lon="6.66642">
        <ele>2515.91</ele>
        <time>2018-02-07T09:20:33Z</time>
      </trkpt>
      <trkpt lat="45.64858" lon="6.66643">
        <ele>2516.87</ele>
        <time>2018-02-07T09:20:47Z</time>
      </trkpt>
      <trkpt lat="45.64868" lon="6.66645">
        <ele>2518.31</ele>
        <time>2018-02-07T09:21:03Z</time>
      </trkpt>
      <trkpt lat="45.64876" lon="6.66644">
        <ele>2520.23</ele>
        <time>2018-02-07T09:21:18Z</time>
      </trkpt>
      <trkpt lat="45.64885" lon="6.66643">
        <ele>2523.12</ele>
        <time>2018-02-07T09:21:39Z</time>
      </trkpt>
      <trkpt lat="45.64893" lon="6.66644">
        <ele>2525.04</ele>
        <time>2018-02-07T09:21:52Z</time>
      </trkpt>
      <trkpt lat="45.64901" lon="6.66642">
        <ele>2526</ele>
        <time>2018-02-07T09:22:04Z</time>
      </trkpt>
      <trkpt lat="45.64908" lon="6.6664">
        <ele>2527.44</ele>
        <time>2018-02-07T09:22:16Z</time>
      </trkpt>
      <trkpt lat="45.64916" lon="6.66639">
        <ele>2529.85</ele>
        <time>2018-02-07T09:22:33Z</time>
      </trkpt>
      <trkpt lat="45.64922" lon="6.66634">
        <ele>2531.77</ele>
        <time>2018-02-07T09:22:47Z</time>
      </trkpt>
      <trkpt lat="45.6493" lon="6.66629">
        <ele>2534.17</ele>
        <time>2018-02-07T09:23:05Z</time>
      </trkpt>
      <trkpt lat="45.64935" lon="6.66628">
        <ele>2535.61</ele>
        <time>2018-02-07T09:23:19Z</time>
      </trkpt>
      <trkpt lat="45.64936" lon="6.66629">
        <ele>2535.13</ele>
        <time>2018-02-07T09:23:40Z</time>
      </trkpt>
      <trkpt lat="45.64936" lon="6.66628">
        <ele>2535.61</ele>
        <time>2018-02-07T09:24:02Z</time>
      </trkpt>
      <trkpt lat="45.64935" lon="6.66628">
        <ele>2535.61</ele>
        <time>2018-02-07T09:24:18Z</time>
      </trkpt>
      <trkpt lat="45.64936" lon="6.66629">
        <ele>2535.61</ele>
        <time>2018-02-07T09:24:32Z</time>
      </trkpt>
      <trkpt lat="45.64935" lon="6.66629">
        <ele>2535.13</ele>
        <time>2018-02-07T09:24:38Z</time>
      </trkpt>
      <trkpt lat="45.64934" lon="6.66628">
        <ele>2534.65</ele>
        <time>2018-02-07T09:24:50Z</time>
      </trkpt>
      <trkpt lat="45.64934" lon="6.66626">
        <ele>2534.17</ele>
        <time>2018-02-07T09:25:24Z</time>
      </trkpt>
      <trkpt lat="45.64934" lon="6.66622">
        <ele>2534.17</ele>
        <time>2018-02-07T09:25:52Z</time>
      </trkpt>
      <trkpt lat="45.64931" lon="6.66626">
        <ele>2534.17</ele>
        <time>2018-02-07T09:26:15Z</time>
      </trkpt>
      <trkpt lat="45.6493" lon="6.66629">
        <ele>2534.17</ele>
        <time>2018-02-07T09:26:48Z</time>
      </trkpt>
      <trkpt lat="45.64929" lon="6.6663">
        <ele>2534.17</ele>
        <time>2018-02-07T09:27:14Z</time>
      </trkpt>
      <trkpt lat="45.64931" lon="6.66622">
        <ele>2533.69</ele>
        <time>2018-02-07T09:27:43Z</time>
      </trkpt>
      <trkpt lat="45.6493" lon="6.6662">
        <ele>2533.69</ele>
        <time>2018-02-07T09:28:05Z</time>
      </trkpt>
      <trkpt lat="45.64929" lon="6.66622">
        <ele>2533.69</ele>
        <time>2018-02-07T09:28:33Z</time>
      </trkpt>
      <trkpt lat="45.64928" lon="6.66619">
        <ele>2534.17</ele>
        <time>2018-02-07T09:29:08Z</time>
      </trkpt>
      <trkpt lat="45.64933" lon="6.6662">
        <ele>2534.17</ele>
        <time>2018-02-07T09:29:36Z</time>
      </trkpt>
      <trkpt lat="45.6493" lon="6.6662">
        <ele>2534.17</ele>
        <time>2018-02-07T09:30:00Z</time>
      </trkpt>
      <trkpt lat="45.64932" lon="6.66622">
        <ele>2534.17</ele>
        <time>2018-02-07T09:30:23Z</time>
      </trkpt>
      <trkpt lat="45.64932" lon="6.66625">
        <ele>2534.17</ele>
        <time>2018-02-07T09:30:45Z</time>
      </trkpt>
      <trkpt lat="45.64935" lon="6.66627">
        <ele>2535.61</ele>
        <time>2018-02-07T09:31:04Z</time>
      </trkpt>
      <trkpt lat="45.64935" lon="6.66631">
        <ele>2535.61</ele>
        <time>2018-02-07T09:31:24Z</time>
      </trkpt>
      <trkpt lat="45.64936" lon="6.66633">
        <ele>2535.61</ele>
        <time>2018-02-07T09:31:48Z</time>
      </trkpt>
      <trkpt lat="45.64935" lon="6.66633">
        <ele>2535.61</ele>
        <time>2018-02-07T09:32:15Z</time>
      </trkpt>
      <trkpt lat="45.64934" lon="6.66632">
        <ele>2535.61</ele>
        <time>2018-02-07T09:32:35Z</time>
      </trkpt>
      <trkpt lat="45.64935" lon="6.66634">
        <ele>2535.61</ele>
        <time>2018-02-07T09:32:56Z</time>
      </trkpt>
      <trkpt lat="45.64934" lon="6.66633">
        <ele>2535.13</ele>
        <time>2018-02-07T09:33:25Z</time>
      </trkpt>
      <trkpt lat="45.64936" lon="6.66631">
        <ele>2535.13</ele>
        <time>2018-02-07T09:33:43Z</time>
      </trkpt>
      <trkpt lat="45.64939" lon="6.6663">
        <ele>2535.61</ele>
        <time>2018-02-07T09:34:06Z</time>
      </trkpt>
      <trkpt lat="45.64944" lon="6.6663">
        <ele>2536.58</ele>
        <time>2018-02-07T09:34:18Z</time>
      </trkpt>
      <trkpt lat="45.64951" lon="6.66635">
        <ele>2537.06</ele>
        <time>2018-02-07T09:34:29Z</time>
      </trkpt>
      <trkpt lat="45.6496" lon="6.66638">
        <ele>2538.98</ele>
        <time>2018-02-07T09:34:43Z</time>
      </trkpt>
      <trkpt lat="45.64968" lon="6.66644">
        <ele>2540.9</ele>
        <time>2018-02-07T09:35:01Z</time>
      </trkpt>
      <trkpt lat="45.64979" lon="6.66645">
        <ele>2542.82</ele>
        <time>2018-02-07T09:35:18Z</time>
      </trkpt>
      <trkpt lat="45.6499" lon="6.66644">
        <ele>2543.79</ele>
        <time>2018-02-07T09:35:33Z</time>
      </trkpt>
      <trkpt lat="45.65001" lon="6.66645">
        <ele>2545.71</ele>
        <time>2018-02-07T09:35:51Z</time>
      </trkpt>
      <trkpt lat="45.65012" lon="6.66642">
        <ele>2546.67</ele>
        <time>2018-02-07T09:36:05Z</time>
      </trkpt>
      <trkpt lat="45.65023" lon="6.66638">
        <ele>2547.63</ele>
        <time>2018-02-07T09:36:22Z</time>
      </trkpt>
      <trkpt lat="45.65034" lon="6.66634">
        <ele>2548.59</ele>
        <time>2018-02-07T09:36:39Z</time>
      </trkpt>
      <trkpt lat="45.65044" lon="6.66629">
        <ele>2551</ele>
        <time>2018-02-07T09:36:56Z</time>
      </trkpt>
      <trkpt lat="45.6505" lon="6.66627">
        <ele>2552.44</ele>
        <time>2018-02-07T09:37:08Z</time>
      </trkpt>
      <trkpt lat="45.6506" lon="6.66628">
        <ele>2553.88</ele>
        <time>2018-02-07T09:37:24Z</time>
      </trkpt>
      <trkpt lat="45.65066" lon="6.66622">
        <ele>2556.28</ele>
        <time>2018-02-07T09:37:39Z</time>
      </trkpt>
      <trkpt lat="45.65072" lon="6.66622">
        <ele>2558.21</ele>
        <time>2018-02-07T09:37:54Z</time>
      </trkpt>
      <trkpt lat="45.65077" lon="6.66631">
        <ele>2559.65</ele>
        <time>2018-02-07T09:38:09Z</time>
      </trkpt>
      <trkpt lat="45.6508" lon="6.66638">
        <ele>2561.57</ele>
        <time>2018-02-07T09:38:24Z</time>
      </trkpt>
      <trkpt lat="45.65082" lon="6.66641">
        <ele>2563.01</ele>
        <time>2018-02-07T09:38:30Z</time>
      </trkpt>
      <trkpt lat="45.65087" lon="6.66643">
        <ele>2564.45</ele>
        <time>2018-02-07T09:38:43Z</time>
      </trkpt>
      <trkpt lat="45.65093" lon="6.66637">
        <ele>2566.38</ele>
        <time>2018-02-07T09:38:57Z</time>
      </trkpt>
      <trkpt lat="45.65099" lon="6.66631">
        <ele>2568.78</ele>
        <time>2018-02-07T09:39:13Z</time>
      </trkpt>
      <trkpt lat="45.65103" lon="6.66624">
        <ele>2570.22</ele>
        <time>2018-02-07T09:39:28Z</time>
      </trkpt>
      <trkpt lat="45.65108" lon="6.66631">
        <ele>2571.66</ele>
        <time>2018-02-07T09:39:41Z</time>
      </trkpt>
      <trkpt lat="45.65112" lon="6.6664">
        <ele>2573.11</ele>
        <time>2018-02-07T09:39:54Z</time>
      </trkpt>
      <trkpt lat="45.65115" lon="6.66647">
        <ele>2574.55</ele>
        <time>2018-02-07T09:40:08Z</time>
      </trkpt>
      <trkpt lat="45.65119" lon="6.66654">
        <ele>2576.47</ele>
        <time>2018-02-07T09:40:22Z</time>
      </trkpt>
      <trkpt lat="45.65123" lon="6.66658">
        <ele>2577.91</ele>
        <time>2018-02-07T09:40:36Z</time>
      </trkpt>
      <trkpt lat="45.65129" lon="6.66657">
        <ele>2579.84</ele>
        <time>2018-02-07T09:40:49Z</time>
      </trkpt>
      <trkpt lat="45.65135" lon="6.66657">
        <ele>2581.28</ele>
        <time>2018-02-07T09:41:02Z</time>
      </trkpt>
      <trkpt lat="45.65141" lon="6.66657">
        <ele>2583.2</ele>
        <time>2018-02-07T09:41:17Z</time>
      </trkpt>
      <trkpt lat="45.65149" lon="6.66655">
        <ele>2585.12</ele>
        <time>2018-02-07T09:41:34Z</time>
      </trkpt>
      <trkpt lat="45.65157" lon="6.66654">
        <ele>2587.04</ele>
        <time>2018-02-07T09:41:49Z</time>
      </trkpt>
      <trkpt lat="45.65166" lon="6.66654">
        <ele>2588.97</ele>
        <time>2018-02-07T09:42:07Z</time>
      </trkpt>
      <trkpt lat="45.65174" lon="6.66654">
        <ele>2590.41</ele>
        <time>2018-02-07T09:42:24Z</time>
      </trkpt>
      <trkpt lat="45.65181" lon="6.66656">
        <ele>2592.33</ele>
        <time>2018-02-07T09:42:40Z</time>
      </trkpt>
      <trkpt lat="45.6519" lon="6.66657">
        <ele>2594.74</ele>
        <time>2018-02-07T09:42:56Z</time>
      </trkpt>
      <trkpt lat="45.65195" lon="6.66657">
        <ele>2595.7</ele>
        <time>2018-02-07T09:43:10Z</time>
      </trkpt>
      <trkpt lat="45.65202" lon="6.66657">
        <ele>2597.62</ele>
        <time>2018-02-07T09:43:25Z</time>
      </trkpt>
      <trkpt lat="45.65208" lon="6.66656">
        <ele>2599.54</ele>
        <time>2018-02-07T09:43:40Z</time>
      </trkpt>
      <trkpt lat="45.65214" lon="6.66659">
        <ele>2601.46</ele>
        <time>2018-02-07T09:43:55Z</time>
      </trkpt>
      <trkpt lat="45.65219" lon="6.66659">
        <ele>2602.91</ele>
        <time>2018-02-07T09:44:08Z</time>
      </trkpt>
      <trkpt lat="45.65225" lon="6.6666">
        <ele>2604.35</ele>
        <time>2018-02-07T09:44:22Z</time>
      </trkpt>
      <trkpt lat="45.65231" lon="6.66663">
        <ele>2605.79</ele>
        <time>2018-02-07T09:44:37Z</time>
      </trkpt>
      <trkpt lat="45.65237" lon="6.66664">
        <ele>2607.71</ele>
        <time>2018-02-07T09:44:51Z</time>
      </trkpt>
      <trkpt lat="45.65244" lon="6.66663">
        <ele>2609.16</ele>
        <time>2018-02-07T09:45:05Z</time>
      </trkpt>
      <trkpt lat="45.65249" lon="6.66665">
        <ele>2610.6</ele>
        <time>2018-02-07T09:45:18Z</time>
      </trkpt>
      <trkpt lat="45.65255" lon="6.66667">
        <ele>2612.52</ele>
        <time>2018-02-07T09:45:33Z</time>
      </trkpt>
      <trkpt lat="45.65262" lon="6.66668">
        <ele>2613.48</ele>
        <time>2018-02-07T09:45:47Z</time>
      </trkpt>
      <trkpt lat="45.65269" lon="6.66669">
        <ele>2615.4</ele>
        <time>2018-02-07T09:46:03Z</time>
      </trkpt>
      <trkpt lat="45.65274" lon="6.66672">
        <ele>2616.85</ele>
        <time>2018-02-07T09:46:17Z</time>
      </trkpt>
      <trkpt lat="45.65281" lon="6.66674">
        <ele>2618.77</ele>
        <time>2018-02-07T09:46:31Z</time>
      </trkpt>
      <trkpt lat="45.65289" lon="6.66676">
        <ele>2620.69</ele>
        <time>2018-02-07T09:46:48Z</time>
      </trkpt>
      <trkpt lat="45.65296" lon="6.66677">
        <ele>2622.13</ele>
        <time>2018-02-07T09:47:04Z</time>
      </trkpt>
      <trkpt lat="45.65294" lon="6.66685">
        <ele>2623.09</ele>
        <time>2018-02-07T09:47:17Z</time>
      </trkpt>
      <trkpt lat="45.6529" lon="6.66695">
        <ele>2625.5</ele>
        <time>2018-02-07T09:47:33Z</time>
      </trkpt>
      <trkpt lat="45.6529" lon="6.66697">
        <ele>2626.46</ele>
        <time>2018-02-07T09:47:46Z</time>
      </trkpt>
      <trkpt lat="45.65296" lon="6.66697">
        <ele>2627.9</ele>
        <time>2018-02-07T09:47:59Z</time>
      </trkpt>
      <trkpt lat="45.65302" lon="6.66697">
        <ele>2628.86</ele>
        <time>2018-02-07T09:48:13Z</time>
      </trkpt>
      <trkpt lat="45.65308" lon="6.66697">
        <ele>2630.3</ele>
        <time>2018-02-07T09:48:27Z</time>
      </trkpt>
      <trkpt lat="45.65312" lon="6.66698">
        <ele>2632.23</ele>
        <time>2018-02-07T09:48:39Z</time>
      </trkpt>
      <trkpt lat="45.65317" lon="6.66696">
        <ele>2633.67</ele>
        <time>2018-02-07T09:48:52Z</time>
      </trkpt>
      <trkpt lat="45.65322" lon="6.66695">
        <ele>2635.59</ele>
        <time>2018-02-07T09:49:06Z</time>
      </trkpt>
      <trkpt lat="45.65327" lon="6.66694">
        <ele>2636.55</ele>
        <time>2018-02-07T09:49:19Z</time>
      </trkpt>
      <trkpt lat="45.65329" lon="6.66698">
        <ele>2638.48</ele>
        <time>2018-02-07T09:49:33Z</time>
      </trkpt>
      <trkpt lat="45.65326" lon="6.66705">
        <ele>2640.4</ele>
        <time>2018-02-07T09:49:48Z</time>
      </trkpt>
      <trkpt lat="45.65325" lon="6.66714">
        <ele>2642.32</ele>
        <time>2018-02-07T09:50:03Z</time>
      </trkpt>
      <trkpt lat="45.65323" lon="6.6672">
        <ele>2644.24</ele>
        <time>2018-02-07T09:50:17Z</time>
      </trkpt>
      <trkpt lat="45.65322" lon="6.66723">
        <ele>2645.21</ele>
        <time>2018-02-07T09:50:33Z</time>
      </trkpt>
      <trkpt lat="45.65327" lon="6.6672">
        <ele>2646.65</ele>
        <time>2018-02-07T09:50:47Z</time>
      </trkpt>
      <trkpt lat="45.65334" lon="6.66717">
        <ele>2648.09</ele>
        <time>2018-02-07T09:51:01Z</time>
      </trkpt>
      <trkpt lat="45.65339" lon="6.66716">
        <ele>2649.53</ele>
        <time>2018-02-07T09:51:15Z</time>
      </trkpt>
      <trkpt lat="45.65344" lon="6.66714">
        <ele>2651.45</ele>
        <time>2018-02-07T09:51:28Z</time>
      </trkpt>
      <trkpt lat="45.65349" lon="6.6671">
        <ele>2652.9</ele>
        <time>2018-02-07T09:51:43Z</time>
      </trkpt>
      <trkpt lat="45.65353" lon="6.66708">
        <ele>2654.34</ele>
        <time>2018-02-07T09:51:57Z</time>
      </trkpt>
      <trkpt lat="45.65359" lon="6.66705">
        <ele>2655.78</ele>
        <time>2018-02-07T09:52:12Z</time>
      </trkpt>
      <trkpt lat="45.65364" lon="6.66703">
        <ele>2657.7</ele>
        <time>2018-02-07T09:52:29Z</time>
      </trkpt>
      <trkpt lat="45.65368" lon="6.66701">
        <ele>2659.14</ele>
        <time>2018-02-07T09:52:42Z</time>
      </trkpt>
      <trkpt lat="45.65368" lon="6.66704">
        <ele>2660.11</ele>
        <time>2018-02-07T09:52:55Z</time>
      </trkpt>
      <trkpt lat="45.65367" lon="6.66712">
        <ele>2661.07</ele>
        <time>2018-02-07T09:53:10Z</time>
      </trkpt>
      <trkpt lat="45.65366" lon="6.6672">
        <ele>2662.51</ele>
        <time>2018-02-07T09:53:26Z</time>
      </trkpt>
      <trkpt lat="45.65364" lon="6.66726">
        <ele>2664.43</ele>
        <time>2018-02-07T09:53:40Z</time>
      </trkpt>
      <trkpt lat="45.65361" lon="6.66734">
        <ele>2666.35</ele>
        <time>2018-02-07T09:53:54Z</time>
      </trkpt>
      <trkpt lat="45.65361" lon="6.66735">
        <ele>2667.31</ele>
        <time>2018-02-07T09:54:08Z</time>
      </trkpt>
      <trkpt lat="45.65365" lon="6.66731">
        <ele>2667.31</ele>
        <time>2018-02-07T09:54:26Z</time>
      </trkpt>
      <trkpt lat="45.65369" lon="6.66729">
        <ele>2669.24</ele>
        <time>2018-02-07T09:54:41Z</time>
      </trkpt>
      <trkpt lat="45.65374" lon="6.66726">
        <ele>2671.64</ele>
        <time>2018-02-07T09:54:54Z</time>
      </trkpt>
      <trkpt lat="45.65378" lon="6.66723">
        <ele>2673.08</ele>
        <time>2018-02-07T09:55:07Z</time>
      </trkpt>
      <trkpt lat="45.65382" lon="6.66721">
        <ele>2674.04</ele>
        <time>2018-02-07T09:55:19Z</time>
      </trkpt>
      <trkpt lat="45.65385" lon="6.66718">
        <ele>2675.49</ele>
        <time>2018-02-07T09:55:30Z</time>
      </trkpt>
      <trkpt lat="45.65388" lon="6.66717">
        <ele>2676.93</ele>
        <time>2018-02-07T09:55:41Z</time>
      </trkpt>
      <trkpt lat="45.65392" lon="6.66714">
        <ele>2678.37</ele>
        <time>2018-02-07T09:55:57Z</time>
      </trkpt>
      <trkpt lat="45.65397" lon="6.66711">
        <ele>2679.81</ele>
        <time>2018-02-07T09:56:12Z</time>
      </trkpt>
      <trkpt lat="45.654" lon="6.66708">
        <ele>2680.29</ele>
        <time>2018-02-07T09:56:23Z</time>
      </trkpt>
      <trkpt lat="45.65404" lon="6.66703">
        <ele>2681.25</ele>
        <time>2018-02-07T09:56:37Z</time>
      </trkpt>
      <trkpt lat="45.65407" lon="6.66697">
        <ele>2682.7</ele>
        <time>2018-02-07T09:56:52Z</time>
      </trkpt>
      <trkpt lat="45.65411" lon="6.66695">
        <ele>2684.14</ele>
        <time>2018-02-07T09:57:06Z</time>
      </trkpt>
      <trkpt lat="45.6541" lon="6.66703">
        <ele>2684.62</ele>
        <time>2018-02-07T09:57:25Z</time>
      </trkpt>
      <trkpt lat="45.65411" lon="6.66711">
        <ele>2686.54</ele>
        <time>2018-02-07T09:57:41Z</time>
      </trkpt>
      <trkpt lat="45.65411" lon="6.66712">
        <ele>2687.02</ele>
        <time>2018-02-07T09:57:55Z</time>
      </trkpt>
      <trkpt lat="45.65414" lon="6.66705">
        <ele>2687.98</ele>
        <time>2018-02-07T09:58:18Z</time>
      </trkpt>
      <trkpt lat="45.65419" lon="6.667">
        <ele>2689.43</ele>
        <time>2018-02-07T09:58:31Z</time>
      </trkpt>
      <trkpt lat="45.65423" lon="6.66707">
        <ele>2691.35</ele>
        <time>2018-02-07T09:58:44Z</time>
      </trkpt>
      <trkpt lat="45.65425" lon="6.66711">
        <ele>2692.31</ele>
        <time>2018-02-07T09:58:55Z</time>
      </trkpt>
      <trkpt lat="45.65425" lon="6.66712">
        <ele>2692.79</ele>
        <time>2018-02-07T09:59:11Z</time>
      </trkpt>
      <trkpt lat="45.6542" lon="6.66721">
        <ele>2693.27</ele>
        <time>2018-02-07T09:59:24Z</time>
      </trkpt>
      <trkpt lat="45.65422" lon="6.66721">
        <ele>2693.75</ele>
        <time>2018-02-07T09:59:36Z</time>
      </trkpt>
      <trkpt lat="45.65418" lon="6.66723">
        <ele>2693.27</ele>
        <time>2018-02-07T09:59:53Z</time>
      </trkpt>
      <trkpt lat="45.65418" lon="6.66723">
        <ele>2693.27</ele>
        <time>2018-02-07T10:00:12Z</time>
      </trkpt>
      <trkpt lat="45.65417" lon="6.66722">
        <ele>2693.27</ele>
        <time>2018-02-07T10:00:28Z</time>
      </trkpt>
      <trkpt lat="45.65416" lon="6.66723">
        <ele>2692.79</ele>
        <time>2018-02-07T10:00:42Z</time>
      </trkpt>
      <trkpt lat="45.65419" lon="6.66722">
        <ele>2692.31</ele>
        <time>2018-02-07T10:01:02Z</time>
      </trkpt>
      <trkpt lat="45.6542" lon="6.6672">
        <ele>2692.31</ele>
        <time>2018-02-07T10:01:15Z</time>
      </trkpt>
      <trkpt lat="45.65422" lon="6.66724">
        <ele>2691.83</ele>
        <time>2018-02-07T10:01:31Z</time>
      </trkpt>
      <trkpt lat="45.65421" lon="6.66727">
        <ele>2691.83</ele>
        <time>2018-02-07T10:01:43Z</time>
      </trkpt>
      <trkpt lat="45.65422" lon="6.66726">
        <ele>2691.83</ele>
        <time>2018-02-07T10:01:54Z</time>
      </trkpt>
      <trkpt lat="45.65422" lon="6.66726">
        <ele>2691.83</ele>
        <time>2018-02-07T10:02:09Z</time>
      </trkpt>
      <trkpt lat="45.65424" lon="6.66728">
        <ele>2692.31</ele>
        <time>2018-02-07T10:02:28Z</time>
      </trkpt>
      <trkpt lat="45.6542" lon="6.66722">
        <ele>2691.83</ele>
        <time>2018-02-07T10:02:40Z</time>
      </trkpt>
      <trkpt lat="45.65419" lon="6.6672">
        <ele>2691.83</ele>
        <time>2018-02-07T10:02:54Z</time>
      </trkpt>
      <trkpt lat="45.6542" lon="6.66723">
        <ele>2692.31</ele>
        <time>2018-02-07T10:03:14Z</time>
      </trkpt>
      <trkpt lat="45.65419" lon="6.66723">
        <ele>2691.83</ele>
        <time>2018-02-07T10:03:32Z</time>
      </trkpt>
      <trkpt lat="45.65417" lon="6.66721">
        <ele>2690.39</ele>
        <time>2018-02-07T10:03:47Z</time>
      </trkpt>
      <trkpt lat="45.65415" lon="6.66721">
        <ele>2690.39</ele>
        <time>2018-02-07T10:04:21Z</time>
      </trkpt>
      <trkpt lat="45.65416" lon="6.66718">
        <ele>2689.91</ele>
        <time>2018-02-07T10:04:54Z</time>
      </trkpt>
      <trkpt lat="45.65415" lon="6.66719">
        <ele>2689.91</ele>
        <time>2018-02-07T10:05:25Z</time>
      </trkpt>
      <trkpt lat="45.65414" lon="6.66719">
        <ele>2689.43</ele>
        <time>2018-02-07T10:05:56Z</time>
      </trkpt>
      <trkpt lat="45.65414" lon="6.66718">
        <ele>2689.91</ele>
        <time>2018-02-07T10:06:37Z</time>
      </trkpt>
      <trkpt lat="45.65417" lon="6.66715">
        <ele>2689.91</ele>
        <time>2018-02-07T10:07:14Z</time>
      </trkpt>
      <trkpt lat="45.65414" lon="6.66714">
        <ele>2689.43</ele>
        <time>2018-02-07T10:07:43Z</time>
      </trkpt>
      <trkpt lat="45.65413" lon="6.66714">
        <ele>2689.43</ele>
        <time>2018-02-07T10:08:17Z</time>
      </trkpt>
      <trkpt lat="45.65414" lon="6.66716">
        <ele>2689.43</ele>
        <time>2018-02-07T10:08:52Z</time>
      </trkpt>
      <trkpt lat="45.65414" lon="6.66718">
        <ele>2689.43</ele>
        <time>2018-02-07T10:09:27Z</time>
      </trkpt>
      <trkpt lat="45.65416" lon="6.66717">
        <ele>2688.94</ele>
        <time>2018-02-07T10:10:03Z</time>
      </trkpt>
      <trkpt lat="45.65415" lon="6.66716">
        <ele>2689.43</ele>
        <time>2018-02-07T10:10:39Z</time>
      </trkpt>
      <trkpt lat="45.65416" lon="6.66719">
        <ele>2689.43</ele>
        <time>2018-02-07T10:11:11Z</time>
      </trkpt>
      <trkpt lat="45.65417" lon="6.66719">
        <ele>2689.43</ele>
        <time>2018-02-07T10:11:36Z</time>
      </trkpt>
      <trkpt lat="45.65417" lon="6.6672">
        <ele>2688.46</ele>
        <time>2018-02-07T10:12:06Z</time>
      </trkpt>
      <trkpt lat="45.65413" lon="6.6672">
        <ele>2688.46</ele>
        <time>2018-02-07T10:12:39Z</time>
      </trkpt>
      <trkpt lat="45.65411" lon="6.6672">
        <ele>2688.46</ele>
        <time>2018-02-07T10:13:01Z</time>
      </trkpt>
      <trkpt lat="45.65416" lon="6.66722">
        <ele>2688.46</ele>
        <time>2018-02-07T10:13:24Z</time>
      </trkpt>
      <trkpt lat="45.65419" lon="6.66725">
        <ele>2688.94</ele>
        <time>2018-02-07T10:14:02Z</time>
      </trkpt>
      <trkpt lat="45.65421" lon="6.66722">
        <ele>2688.94</ele>
        <time>2018-02-07T10:14:37Z</time>
      </trkpt>
      <trkpt lat="45.65418" lon="6.66722">
        <ele>2689.43</ele>
        <time>2018-02-07T10:14:55Z</time>
      </trkpt>
      <trkpt lat="45.65417" lon="6.66719">
        <ele>2688.94</ele>
        <time>2018-02-07T10:15:17Z</time>
      </trkpt>
      <trkpt lat="45.65416" lon="6.6672">
        <ele>2689.43</ele>
        <time>2018-02-07T10:15:40Z</time>
      </trkpt>
      <trkpt lat="45.65417" lon="6.6672">
        <ele>2688.46</ele>
        <time>2018-02-07T10:16:09Z</time>
      </trkpt>
      <trkpt lat="45.65416" lon="6.66721">
        <ele>2688.94</ele>
        <time>2018-02-07T10:16:35Z</time>
      </trkpt>
      <trkpt lat="45.65418" lon="6.66719">
        <ele>2688.94</ele>
        <time>2018-02-07T10:17:01Z</time>
      </trkpt>
      <trkpt lat="45.65418" lon="6.66718">
        <ele>2688.46</ele>
        <time>2018-02-07T10:17:25Z</time>
      </trkpt>
      <trkpt lat="45.65417" lon="6.6672">
        <ele>2688.94</ele>
        <time>2018-02-07T10:17:43Z</time>
      </trkpt>
      <trkpt lat="45.6542" lon="6.66725">
        <ele>2688.94</ele>
        <time>2018-02-07T10:17:51Z</time>
      </trkpt>
      <trkpt lat="45.65421" lon="6.66733">
        <ele>2686.54</ele>
        <time>2018-02-07T10:17:55Z</time>
      </trkpt>
      <trkpt lat="45.6543" lon="6.66725">
        <ele>2683.18</ele>
        <time>2018-02-07T10:17:58Z</time>
      </trkpt>
      <trkpt lat="45.65432" lon="6.6672">
        <ele>2682.7</ele>
        <time>2018-02-07T10:17:59Z</time>
      </trkpt>
      <trkpt lat="45.65433" lon="6.66714">
        <ele>2682.22</ele>
        <time>2018-02-07T10:18:01Z</time>
      </trkpt>
      <trkpt lat="45.65436" lon="6.66705">
        <ele>2680.77</ele>
        <time>2018-02-07T10:18:05Z</time>
      </trkpt>
      <trkpt lat="45.65447" lon="6.66701">
        <ele>2676.93</ele>
        <time>2018-02-07T10:18:08Z</time>
      </trkpt>
      <trkpt lat="45.65453" lon="6.6671">
        <ele>2673.56</ele>
        <time>2018-02-07T10:18:10Z</time>
      </trkpt>
      <trkpt lat="45.65463" lon="6.66702">
        <ele>2668.28</ele>
        <time>2018-02-07T10:18:12Z</time>
      </trkpt>
      <trkpt lat="45.65467" lon="6.66698">
        <ele>2668.28</ele>
        <time>2018-02-07T10:18:13Z</time>
      </trkpt>
      <trkpt lat="45.65475" lon="6.66706">
        <ele>2663.95</ele>
        <time>2018-02-07T10:18:16Z</time>
      </trkpt>
      <trkpt lat="45.65483" lon="6.6672">
        <ele>2656.74</ele>
        <time>2018-02-07T10:18:20Z</time>
      </trkpt>
      <trkpt lat="45.65492" lon="6.66714">
        <ele>2653.38</ele>
        <time>2018-02-07T10:18:22Z</time>
      </trkpt>
      <trkpt lat="45.65498" lon="6.66721">
        <ele>2650.01</ele>
        <time>2018-02-07T10:18:24Z</time>
      </trkpt>
      <trkpt lat="45.65497" lon="6.66728">
        <ele>2648.57</ele>
        <time>2018-02-07T10:18:25Z</time>
      </trkpt>
      <trkpt lat="45.65495" lon="6.6674">
        <ele>2648.09</ele>
        <time>2018-02-07T10:18:27Z</time>
      </trkpt>
      <trkpt lat="45.65496" lon="6.66749">
        <ele>2648.09</ele>
        <time>2018-02-07T10:18:30Z</time>
      </trkpt>
      <trkpt lat="45.65505" lon="6.66746">
        <ele>2644.72</ele>
        <time>2018-02-07T10:18:33Z</time>
      </trkpt>
      <trkpt lat="45.65513" lon="6.66734">
        <ele>2641.36</ele>
        <time>2018-02-07T10:18:35Z</time>
      </trkpt>
      <trkpt lat="45.65531" lon="6.66733">
        <ele>2639.92</ele>
        <time>2018-02-07T10:18:40Z</time>
      </trkpt>
      <trkpt lat="45.65554" lon="6.6674">
        <ele>2636.07</ele>
        <time>2018-02-07T10:18:45Z</time>
      </trkpt>
      <trkpt lat="45.65558" lon="6.66742">
        <ele>2635.59</ele>
        <time>2018-02-07T10:18:46Z</time>
      </trkpt>
      <trkpt lat="45.65554" lon="6.66756">
        <ele>2630.79</ele>
        <time>2018-02-07T10:18:49Z</time>
      </trkpt>
      <trkpt lat="45.65548" lon="6.66759">
        <ele>2630.3</ele>
        <time>2018-02-07T10:18:50Z</time>
      </trkpt>
      <trkpt lat="45.65538" lon="6.66775">
        <ele>2626.94</ele>
        <time>2018-02-07T10:18:54Z</time>
      </trkpt>
      <trkpt lat="45.65543" lon="6.66776">
        <ele>2624.06</ele>
        <time>2018-02-07T10:18:55Z</time>
      </trkpt>
      <trkpt lat="45.65545" lon="6.668">
        <ele>2619.25</ele>
        <time>2018-02-07T10:18:58Z</time>
      </trkpt>
      <trkpt lat="45.65536" lon="6.6681">
        <ele>2614.44</ele>
        <time>2018-02-07T10:19:00Z</time>
      </trkpt>
      <trkpt lat="45.65533" lon="6.66813">
        <ele>2614.44</ele>
        <time>2018-02-07T10:19:01Z</time>
      </trkpt>
      <trkpt lat="45.65528" lon="6.66821">
        <ele>2613.48</ele>
        <time>2018-02-07T10:19:05Z</time>
      </trkpt>
      <trkpt lat="45.6552" lon="6.66848">
        <ele>2610.12</ele>
        <time>2018-02-07T10:19:12Z</time>
      </trkpt>
      <trkpt lat="45.65518" lon="6.66853">
        <ele>2608.67</ele>
        <time>2018-02-07T10:19:14Z</time>
      </trkpt>
      <trkpt lat="45.65523" lon="6.66862">
        <ele>2605.31</ele>
        <time>2018-02-07T10:19:17Z</time>
      </trkpt>
      <trkpt lat="45.6553" lon="6.66857">
        <ele>2600.5</ele>
        <time>2018-02-07T10:19:19Z</time>
      </trkpt>
      <trkpt lat="45.65536" lon="6.66852">
        <ele>2600.02</ele>
        <time>2018-02-07T10:19:22Z</time>
      </trkpt>
      <trkpt lat="45.65547" lon="6.66859">
        <ele>2595.7</ele>
        <time>2018-02-07T10:19:25Z</time>
      </trkpt>
      <trkpt lat="45.65546" lon="6.66873">
        <ele>2592.81</ele>
        <time>2018-02-07T10:19:27Z</time>
      </trkpt>
      <trkpt lat="45.6555" lon="6.66879">
        <ele>2590.41</ele>
        <time>2018-02-07T10:19:28Z</time>
      </trkpt>
      <trkpt lat="45.65558" lon="6.66884">
        <ele>2587.53</ele>
        <time>2018-02-07T10:19:29Z</time>
      </trkpt>
      <trkpt lat="45.65564" lon="6.66886">
        <ele>2584.64</ele>
        <time>2018-02-07T10:19:30Z</time>
      </trkpt>
      <trkpt lat="45.65576" lon="6.66883">
        <ele>2581.28</ele>
        <time>2018-02-07T10:19:32Z</time>
      </trkpt>
      <trkpt lat="45.65579" lon="6.66879">
        <ele>2580.32</ele>
        <time>2018-02-07T10:19:37Z</time>
      </trkpt>
      <trkpt lat="45.65578" lon="6.66878">
        <ele>2581.28</ele>
        <time>2018-02-07T10:20:01Z</time>
      </trkpt>
      <trkpt lat="45.65578" lon="6.66881">
        <ele>2580.8</ele>
        <time>2018-02-07T10:20:22Z</time>
      </trkpt>
      <trkpt lat="45.6558" lon="6.66877">
        <ele>2580.32</ele>
        <time>2018-02-07T10:20:52Z</time>
      </trkpt>
      <trkpt lat="45.65581" lon="6.66877">
        <ele>2580.32</ele>
        <time>2018-02-07T10:21:25Z</time>
      </trkpt>
      <trkpt lat="45.65581" lon="6.66876">
        <ele>2580.8</ele>
        <time>2018-02-07T10:21:48Z</time>
      </trkpt>
      <trkpt lat="45.65577" lon="6.66876">
        <ele>2580.8</ele>
        <time>2018-02-07T10:22:10Z</time>
      </trkpt>
      <trkpt lat="45.65577" lon="6.66875">
        <ele>2580.8</ele>
        <time>2018-02-07T10:22:26Z</time>
      </trkpt>
      <trkpt lat="45.65576" lon="6.66876">
        <ele>2580.32</ele>
        <time>2018-02-07T10:22:49Z</time>
      </trkpt>
      <trkpt lat="45.65577" lon="6.66879">
        <ele>2580.32</ele>
        <time>2018-02-07T10:23:11Z</time>
      </trkpt>
      <trkpt lat="45.65577" lon="6.66879">
        <ele>2580.32</ele>
        <time>2018-02-07T10:23:35Z</time>
      </trkpt>
      <trkpt lat="45.65578" lon="6.66879">
        <ele>2580.32</ele>
        <time>2018-02-07T10:24:09Z</time>
      </trkpt>
      <trkpt lat="45.65579" lon="6.6688">
        <ele>2579.84</ele>
        <time>2018-02-07T10:24:20Z</time>
      </trkpt>
      <trkpt lat="45.65579" lon="6.66891">
        <ele>2579.35</ele>
        <time>2018-02-07T10:24:23Z</time>
      </trkpt>
      <trkpt lat="45.65583" lon="6.66915">
        <ele>2573.59</ele>
        <time>2018-02-07T10:24:26Z</time>
      </trkpt>
      <trkpt lat="45.65587" lon="6.66934">
        <ele>2570.22</ele>
        <time>2018-02-07T10:24:28Z</time>
      </trkpt>
      <trkpt lat="45.65589" lon="6.66968">
        <ele>2563.97</ele>
        <time>2018-02-07T10:24:32Z</time>
      </trkpt>
      <trkpt lat="45.65599" lon="6.67007">
        <ele>2561.57</ele>
        <time>2018-02-07T10:24:44Z</time>
      </trkpt>
      <trkpt lat="45.656" lon="6.67007">
        <ele>2561.57</ele>
        <time>2018-02-07T10:25:06Z</time>
      </trkpt>
      <trkpt lat="45.656" lon="6.67006">
        <ele>2561.57</ele>
        <time>2018-02-07T10:25:31Z</time>
      </trkpt>
      <trkpt lat="45.65599" lon="6.67023">
        <ele>2559.65</ele>
        <time>2018-02-07T10:25:35Z</time>
      </trkpt>
      <trkpt lat="45.65607" lon="6.67052">
        <ele>2556.28</ele>
        <time>2018-02-07T10:25:39Z</time>
      </trkpt>
      <trkpt lat="45.65615" lon="6.67076">
        <ele>2553.88</ele>
        <time>2018-02-07T10:25:42Z</time>
      </trkpt>
      <trkpt lat="45.65604" lon="6.67092">
        <ele>2551</ele>
        <time>2018-02-07T10:25:46Z</time>
      </trkpt>
      <trkpt lat="45.65595" lon="6.67108">
        <ele>2545.71</ele>
        <time>2018-02-07T10:25:49Z</time>
      </trkpt>
      <trkpt lat="45.65598" lon="6.67127">
        <ele>2541.86</ele>
        <time>2018-02-07T10:25:51Z</time>
      </trkpt>
      <trkpt lat="45.656" lon="6.67159">
        <ele>2537.06</ele>
        <time>2018-02-07T10:25:54Z</time>
      </trkpt>
      <trkpt lat="45.65603" lon="6.67188">
        <ele>2534.65</ele>
        <time>2018-02-07T10:25:57Z</time>
      </trkpt>
      <trkpt lat="45.65614" lon="6.67224">
        <ele>2532.73</ele>
        <time>2018-02-07T10:26:06Z</time>
      </trkpt>
      <trkpt lat="45.65619" lon="6.67236">
        <ele>2531.77</ele>
        <time>2018-02-07T10:26:19Z</time>
      </trkpt>
      <trkpt lat="45.65623" lon="6.67245">
        <ele>2531.77</ele>
        <time>2018-02-07T10:26:32Z</time>
      </trkpt>
      <trkpt lat="45.65629" lon="6.67281">
        <ele>2527.92</ele>
        <time>2018-02-07T10:26:47Z</time>
      </trkpt>
      <trkpt lat="45.6563" lon="6.67293">
        <ele>2526.96</ele>
        <time>2018-02-07T10:26:49Z</time>
      </trkpt>
      <trkpt lat="45.65631" lon="6.67313">
        <ele>2524.08</ele>
        <time>2018-02-07T10:26:52Z</time>
      </trkpt>
      <trkpt lat="45.65633" lon="6.6734">
        <ele>2520.71</ele>
        <time>2018-02-07T10:26:57Z</time>
      </trkpt>
      <trkpt lat="45.65637" lon="6.67359">
        <ele>2518.79</ele>
        <time>2018-02-07T10:27:01Z</time>
      </trkpt>
      <trkpt lat="45.65638" lon="6.67376">
        <ele>2516.39</ele>
        <time>2018-02-07T10:27:04Z</time>
      </trkpt>
      <trkpt lat="45.65647" lon="6.67379">
        <ele>2511.1</ele>
        <time>2018-02-07T10:27:07Z</time>
      </trkpt>
      <trkpt lat="45.65653" lon="6.67381">
        <ele>2509.18</ele>
        <time>2018-02-07T10:27:09Z</time>
      </trkpt>
      <trkpt lat="45.65666" lon="6.67393">
        <ele>2501.49</ele>
        <time>2018-02-07T10:27:13Z</time>
      </trkpt>
      <trkpt lat="45.65662" lon="6.67413">
        <ele>2497.16</ele>
        <time>2018-02-07T10:27:17Z</time>
      </trkpt>
      <trkpt lat="45.65658" lon="6.67435">
        <ele>2493.8</ele>
        <time>2018-02-07T10:27:20Z</time>
      </trkpt>
      <trkpt lat="45.65663" lon="6.6746">
        <ele>2487.07</ele>
        <time>2018-02-07T10:27:25Z</time>
      </trkpt>
      <trkpt lat="45.65667" lon="6.67455">
        <ele>2483.7</ele>
        <time>2018-02-07T10:27:26Z</time>
      </trkpt>
      <trkpt lat="45.65682" lon="6.67456">
        <ele>2477.45</ele>
        <time>2018-02-07T10:27:31Z</time>
      </trkpt>
      <trkpt lat="45.65682" lon="6.67476">
        <ele>2474.57</ele>
        <time>2018-02-07T10:27:34Z</time>
      </trkpt>
      <trkpt lat="45.65683" lon="6.67502">
        <ele>2471.69</ele>
        <time>2018-02-07T10:27:38Z</time>
      </trkpt>
      <trkpt lat="45.65682" lon="6.67518">
        <ele>2468.8</ele>
        <time>2018-02-07T10:27:41Z</time>
      </trkpt>
      <trkpt lat="45.65688" lon="6.67524">
        <ele>2463.04</ele>
        <time>2018-02-07T10:27:44Z</time>
      </trkpt>
      <trkpt lat="45.65694" lon="6.67529">
        <ele>2459.67</ele>
        <time>2018-02-07T10:27:46Z</time>
      </trkpt>
      <trkpt lat="45.65704" lon="6.6753">
        <ele>2451.98</ele>
        <time>2018-02-07T10:27:50Z</time>
      </trkpt>
      <trkpt lat="45.65707" lon="6.67527">
        <ele>2451.02</ele>
        <time>2018-02-07T10:27:52Z</time>
      </trkpt>
      <trkpt lat="45.6571" lon="6.6754">
        <ele>2446.69</ele>
        <time>2018-02-07T10:27:55Z</time>
      </trkpt>
      <trkpt lat="45.65709" lon="6.67547">
        <ele>2444.77</ele>
        <time>2018-02-07T10:27:56Z</time>
      </trkpt>
      <trkpt lat="45.65701" lon="6.67574">
        <ele>2439.96</ele>
        <time>2018-02-07T10:28:00Z</time>
      </trkpt>
      <trkpt lat="45.657" lon="6.67582">
        <ele>2439</ele>
        <time>2018-02-07T10:28:02Z</time>
      </trkpt>
      <trkpt lat="45.65704" lon="6.6761">
        <ele>2435.16</ele>
        <time>2018-02-07T10:28:08Z</time>
      </trkpt>
      <trkpt lat="45.65714" lon="6.67627">
        <ele>2431.31</ele>
        <time>2018-02-07T10:28:11Z</time>
      </trkpt>
      <trkpt lat="45.65734" lon="6.6763">
        <ele>2428.43</ele>
        <time>2018-02-07T10:28:17Z</time>
      </trkpt>
      <trkpt lat="45.65737" lon="6.67629">
        <ele>2428.43</ele>
        <time>2018-02-07T10:28:18Z</time>
      </trkpt>
      <trkpt lat="45.6574" lon="6.67626">
        <ele>2427.47</ele>
        <time>2018-02-07T10:28:19Z</time>
      </trkpt>
      <trkpt lat="45.65751" lon="6.67612">
        <ele>2425.54</ele>
        <time>2018-02-07T10:28:29Z</time>
      </trkpt>
      <trkpt lat="45.65758" lon="6.67606">
        <ele>2426.02</ele>
        <time>2018-02-07T10:28:42Z</time>
      </trkpt>
      <trkpt lat="45.65765" lon="6.67604">
        <ele>2426.5</ele>
        <time>2018-02-07T10:28:56Z</time>
      </trkpt>
      <trkpt lat="45.65773" lon="6.67599">
        <ele>2426.99</ele>
        <time>2018-02-07T10:29:13Z</time>
      </trkpt>
      <trkpt lat="45.65781" lon="6.67593">
        <ele>2426.5</ele>
        <time>2018-02-07T10:29:25Z</time>
      </trkpt>
      <trkpt lat="45.65786" lon="6.67589">
        <ele>2426.5</ele>
        <time>2018-02-07T10:29:38Z</time>
      </trkpt>
      <trkpt lat="45.65792" lon="6.67583">
        <ele>2426.99</ele>
        <time>2018-02-07T10:29:53Z</time>
      </trkpt>
      <trkpt lat="45.65796" lon="6.67577">
        <ele>2426.99</ele>
        <time>2018-02-07T10:30:06Z</time>
      </trkpt>
      <trkpt lat="45.658" lon="6.67573">
        <ele>2426.99</ele>
        <time>2018-02-07T10:30:18Z</time>
      </trkpt>
      <trkpt lat="45.65802" lon="6.67568">
        <ele>2427.95</ele>
        <time>2018-02-07T10:30:31Z</time>
      </trkpt>
      <trkpt lat="45.65806" lon="6.67565">
        <ele>2428.91</ele>
        <time>2018-02-07T10:30:43Z</time>
      </trkpt>
      <trkpt lat="45.65812" lon="6.67565">
        <ele>2428.91</ele>
        <time>2018-02-07T10:30:54Z</time>
      </trkpt>
      <trkpt lat="45.65818" lon="6.67562">
        <ele>2429.39</ele>
        <time>2018-02-07T10:31:10Z</time>
      </trkpt>
      <trkpt lat="45.65818" lon="6.67562">
        <ele>2428.91</ele>
        <time>2018-02-07T10:31:29Z</time>
      </trkpt>
      <trkpt lat="45.65817" lon="6.67563">
        <ele>2428.91</ele>
        <time>2018-02-07T10:31:48Z</time>
      </trkpt>
      <trkpt lat="45.65817" lon="6.67566">
        <ele>2427.95</ele>
        <time>2018-02-07T10:31:58Z</time>
      </trkpt>
      <trkpt lat="45.65818" lon="6.67562">
        <ele>2428.43</ele>
        <time>2018-02-07T10:32:21Z</time>
      </trkpt>
      <trkpt lat="45.65819" lon="6.67563">
        <ele>2428.43</ele>
        <time>2018-02-07T10:32:42Z</time>
      </trkpt>
      <trkpt lat="45.65815" lon="6.67564">
        <ele>2428.43</ele>
        <time>2018-02-07T10:33:07Z</time>
      </trkpt>
      <trkpt lat="45.65814" lon="6.67563">
        <ele>2428.91</ele>
        <time>2018-02-07T10:33:32Z</time>
      </trkpt>
      <trkpt lat="45.65812" lon="6.67564">
        <ele>2428.91</ele>
        <time>2018-02-07T10:33:56Z</time>
      </trkpt>
      <trkpt lat="45.65817" lon="6.67563">
        <ele>2428.91</ele>
        <time>2018-02-07T10:34:27Z</time>
      </trkpt>
      <trkpt lat="45.65817" lon="6.67566">
        <ele>2429.39</ele>
        <time>2018-02-07T10:34:45Z</time>
      </trkpt>
      <trkpt lat="45.65819" lon="6.67558">
        <ele>2430.35</ele>
        <time>2018-02-07T10:35:13Z</time>
      </trkpt>
      <trkpt lat="45.65819" lon="6.67556">
        <ele>2430.35</ele>
        <time>2018-02-07T10:35:37Z</time>
      </trkpt>
      <trkpt lat="45.65818" lon="6.67561">
        <ele>2430.83</ele>
        <time>2018-02-07T10:35:54Z</time>
      </trkpt>
      <trkpt lat="45.65818" lon="6.67561">
        <ele>2430.35</ele>
        <time>2018-02-07T10:36:17Z</time>
      </trkpt>
      <trkpt lat="45.65819" lon="6.67559">
        <ele>2430.83</ele>
        <time>2018-02-07T10:36:45Z</time>
      </trkpt>
      <trkpt lat="45.65815" lon="6.67561">
        <ele>2430.83</ele>
        <time>2018-02-07T10:37:15Z</time>
      </trkpt>
      <trkpt lat="45.65817" lon="6.67558">
        <ele>2430.83</ele>
        <time>2018-02-07T10:37:41Z</time>
      </trkpt>
      <trkpt lat="45.65819" lon="6.67556">
        <ele>2431.31</ele>
        <time>2018-02-07T10:38:03Z</time>
      </trkpt>
      <trkpt lat="45.65818" lon="6.6756">
        <ele>2431.31</ele>
        <time>2018-02-07T10:38:32Z</time>
      </trkpt>
      <trkpt lat="45.65819" lon="6.6756">
        <ele>2430.35</ele>
        <time>2018-02-07T10:38:52Z</time>
      </trkpt>
      <trkpt lat="45.65811" lon="6.67563">
        <ele>2430.35</ele>
        <time>2018-02-07T10:39:13Z</time>
      </trkpt>
      <trkpt lat="45.65809" lon="6.67571">
        <ele>2430.83</ele>
        <time>2018-02-07T10:39:34Z</time>
      </trkpt>
      <trkpt lat="45.65808" lon="6.67571">
        <ele>2430.83</ele>
        <time>2018-02-07T10:39:58Z</time>
      </trkpt>
      <trkpt lat="45.6581" lon="6.67568">
        <ele>2430.35</ele>
        <time>2018-02-07T10:40:26Z</time>
      </trkpt>
      <trkpt lat="45.6581" lon="6.67568">
        <ele>2430.83</ele>
        <time>2018-02-07T10:40:48Z</time>
      </trkpt>
      <trkpt lat="45.6581" lon="6.6757">
        <ele>2431.31</ele>
        <time>2018-02-07T10:41:09Z</time>
      </trkpt>
      <trkpt lat="45.65815" lon="6.67571">
        <ele>2431.31</ele>
        <time>2018-02-07T10:41:33Z</time>
      </trkpt>
      <trkpt lat="45.65816" lon="6.67571">
        <ele>2431.79</ele>
        <time>2018-02-07T10:41:52Z</time>
      </trkpt>
      <trkpt lat="45.65818" lon="6.67571">
        <ele>2431.79</ele>
        <time>2018-02-07T10:42:17Z</time>
      </trkpt>
      <trkpt lat="45.65821" lon="6.67569">
        <ele>2432.27</ele>
        <time>2018-02-07T10:42:34Z</time>
      </trkpt>
      <trkpt lat="45.65827" lon="6.67566">
        <ele>2432.27</ele>
        <time>2018-02-07T10:43:09Z</time>
      </trkpt>
      <trkpt lat="45.65823" lon="6.67566">
        <ele>2432.27</ele>
        <time>2018-02-07T10:43:31Z</time>
      </trkpt>
      <trkpt lat="45.65818" lon="6.67564">
        <ele>2432.75</ele>
        <time>2018-02-07T10:43:51Z</time>
      </trkpt>
      <trkpt lat="45.65821" lon="6.67562">
        <ele>2432.75</ele>
        <time>2018-02-07T10:44:11Z</time>
      </trkpt>
      <trkpt lat="45.65817" lon="6.67561">
        <ele>2432.27</ele>
        <time>2018-02-07T10:44:33Z</time>
      </trkpt>
      <trkpt lat="45.65824" lon="6.67558">
        <ele>2432.75</ele>
        <time>2018-02-07T10:44:53Z</time>
      </trkpt>
      <trkpt lat="45.65821" lon="6.67564">
        <ele>2432.75</ele>
        <time>2018-02-07T10:45:16Z</time>
      </trkpt>
      <trkpt lat="45.65822" lon="6.67563">
        <ele>2432.75</ele>
        <time>2018-02-07T10:45:37Z</time>
      </trkpt>
      <trkpt lat="45.6582" lon="6.67563">
        <ele>2432.75</ele>
        <time>2018-02-07T10:46:00Z</time>
      </trkpt>
      <trkpt lat="45.65825" lon="6.67562">
        <ele>2432.75</ele>
        <time>2018-02-07T10:46:21Z</time>
      </trkpt>
      <trkpt lat="45.65829" lon="6.67557">
        <ele>2433.23</ele>
        <time>2018-02-07T10:46:44Z</time>
      </trkpt>
      <trkpt lat="45.65828" lon="6.67561">
        <ele>2433.23</ele>
        <time>2018-02-07T10:47:11Z</time>
      </trkpt>
      <trkpt lat="45.65824" lon="6.67563">
        <ele>2433.71</ele>
        <time>2018-02-07T10:47:34Z</time>
      </trkpt>
      <trkpt lat="45.65823" lon="6.67564">
        <ele>2434.68</ele>
        <time>2018-02-07T10:47:46Z</time>
      </trkpt>
      <trkpt lat="45.65826" lon="6.67562">
        <ele>2434.68</ele>
        <time>2018-02-07T10:48:03Z</time>
      </trkpt>
      <trkpt lat="45.65818" lon="6.67564">
        <ele>2434.68</ele>
        <time>2018-02-07T10:48:18Z</time>
      </trkpt>
      <trkpt lat="45.6582" lon="6.67563">
        <ele>2435.16</ele>
        <time>2018-02-07T10:48:33Z</time>
      </trkpt>
      <trkpt lat="45.6582" lon="6.67564">
        <ele>2434.68</ele>
        <time>2018-02-07T10:48:47Z</time>
      </trkpt>
      <trkpt lat="45.65819" lon="6.67561">
        <ele>2435.16</ele>
        <time>2018-02-07T10:49:01Z</time>
      </trkpt>
      <trkpt lat="45.6582" lon="6.67566">
        <ele>2433.71</ele>
        <time>2018-02-07T10:49:13Z</time>
      </trkpt>
      <trkpt lat="45.65832" lon="6.67567">
        <ele>2434.2</ele>
        <time>2018-02-07T10:49:37Z</time>
      </trkpt>
      <trkpt lat="45.65826" lon="6.67569">
        <ele>2433.71</ele>
        <time>2018-02-07T10:50:06Z</time>
      </trkpt>
      <trkpt lat="45.65823" lon="6.67564">
        <ele>2434.2</ele>
        <time>2018-02-07T10:50:26Z</time>
      </trkpt>
      <trkpt lat="45.65817" lon="6.67563">
        <ele>2433.71</ele>
        <time>2018-02-07T10:50:32Z</time>
      </trkpt>
      <trkpt lat="45.65817" lon="6.67562">
        <ele>2435.16</ele>
        <time>2018-02-07T10:50:36Z</time>
      </trkpt>
      <trkpt lat="45.65821" lon="6.67566">
        <ele>2435.16</ele>
        <time>2018-02-07T10:50:49Z</time>
      </trkpt>
      <trkpt lat="45.65824" lon="6.67566">
        <ele>2435.16</ele>
        <time>2018-02-07T10:51:06Z</time>
      </trkpt>
      <trkpt lat="45.65828" lon="6.67567">
        <ele>2434.68</ele>
        <time>2018-02-07T10:51:34Z</time>
      </trkpt>
      <trkpt lat="45.65825" lon="6.67563">
        <ele>2434.68</ele>
        <time>2018-02-07T10:51:48Z</time>
      </trkpt>
      <trkpt lat="45.65826" lon="6.67562">
        <ele>2435.16</ele>
        <time>2018-02-07T10:51:49Z</time>
      </trkpt>
      <trkpt lat="45.6583" lon="6.67551">
        <ele>2434.68</ele>
        <time>2018-02-07T10:51:59Z</time>
      </trkpt>
      <trkpt lat="45.6583" lon="6.67548">
        <ele>2435.16</ele>
        <time>2018-02-07T10:52:01Z</time>
      </trkpt>
      <trkpt lat="45.65838" lon="6.67545">
        <ele>2435.16</ele>
        <time>2018-02-07T10:52:17Z</time>
      </trkpt>
      <trkpt lat="45.65831" lon="6.67544">
        <ele>2435.16</ele>
        <time>2018-02-07T10:52:33Z</time>
      </trkpt>
      <trkpt lat="45.6583" lon="6.6754">
        <ele>2434.68</ele>
        <time>2018-02-07T10:52:35Z</time>
      </trkpt>
      <trkpt lat="45.65835" lon="6.6752">
        <ele>2435.64</ele>
        <time>2018-02-07T10:52:49Z</time>
      </trkpt>
      <trkpt lat="45.6583" lon="6.67511">
        <ele>2434.68</ele>
        <time>2018-02-07T10:53:03Z</time>
      </trkpt>
      <trkpt lat="45.65833" lon="6.67505">
        <ele>2435.64</ele>
        <time>2018-02-07T10:53:15Z</time>
      </trkpt>
      <trkpt lat="45.65835" lon="6.67502">
        <ele>2436.12</ele>
        <time>2018-02-07T10:53:18Z</time>
      </trkpt>
      <trkpt lat="45.65836" lon="6.67498">
        <ele>2436.6</ele>
        <time>2018-02-07T10:53:21Z</time>
      </trkpt>
      <trkpt lat="45.65835" lon="6.67488">
        <ele>2437.56</ele>
        <time>2018-02-07T10:53:33Z</time>
      </trkpt>
      <trkpt lat="45.65834" lon="6.67476">
        <ele>2439.48</ele>
        <time>2018-02-07T10:53:47Z</time>
      </trkpt>
      <trkpt lat="45.65839" lon="6.67468">
        <ele>2440.92</ele>
        <time>2018-02-07T10:54:00Z</time>
      </trkpt>
      <trkpt lat="45.6584" lon="6.67466">
        <ele>2442.37</ele>
        <time>2018-02-07T10:54:02Z</time>
      </trkpt>
      <trkpt lat="45.65843" lon="6.67455">
        <ele>2443.33</ele>
        <time>2018-02-07T10:54:13Z</time>
      </trkpt>
      <trkpt lat="45.65842" lon="6.67448">
        <ele>2444.77</ele>
        <time>2018-02-07T10:54:27Z</time>
      </trkpt>
      <trkpt lat="45.65844" lon="6.67431">
        <ele>2446.69</ele>
        <time>2018-02-07T10:54:45Z</time>
      </trkpt>
      <trkpt lat="45.65848" lon="6.67414">
        <ele>2449.1</ele>
        <time>2018-02-07T10:55:06Z</time>
      </trkpt>
      <trkpt lat="45.65849" lon="6.67402">
        <ele>2450.54</ele>
        <time>2018-02-07T10:55:20Z</time>
      </trkpt>
      <trkpt lat="45.65852" lon="6.67391">
        <ele>2452.46</ele>
        <time>2018-02-07T10:55:35Z</time>
      </trkpt>
      <trkpt lat="45.65854" lon="6.6738">
        <ele>2454.86</ele>
        <time>2018-02-07T10:55:50Z</time>
      </trkpt>
      <trkpt lat="45.65856" lon="6.67369">
        <ele>2456.31</ele>
        <time>2018-02-07T10:56:05Z</time>
      </trkpt>
      <trkpt lat="45.65857" lon="6.67352">
        <ele>2458.23</ele>
        <time>2018-02-07T10:56:23Z</time>
      </trkpt>
      <trkpt lat="45.65856" lon="6.67342">
        <ele>2460.63</ele>
        <time>2018-02-07T10:56:38Z</time>
      </trkpt>
      <trkpt lat="45.65857" lon="6.67333">
        <ele>2462.07</ele>
        <time>2018-02-07T10:56:52Z</time>
      </trkpt>
      <trkpt lat="45.65858" lon="6.67318">
        <ele>2463.52</ele>
        <time>2018-02-07T10:57:09Z</time>
      </trkpt>
      <trkpt lat="45.6586" lon="6.67309">
        <ele>2464.96</ele>
        <time>2018-02-07T10:57:21Z</time>
      </trkpt>
      <trkpt lat="45.6586" lon="6.67299">
        <ele>2467.36</ele>
        <time>2018-02-07T10:57:34Z</time>
      </trkpt>
      <trkpt lat="45.65861" lon="6.67291">
        <ele>2469.28</ele>
        <time>2018-02-07T10:57:47Z</time>
      </trkpt>
      <trkpt lat="45.65863" lon="6.67283">
        <ele>2470.73</ele>
        <time>2018-02-07T10:58:01Z</time>
      </trkpt>
      <trkpt lat="45.65865" lon="6.67273">
        <ele>2472.65</ele>
        <time>2018-02-07T10:58:16Z</time>
      </trkpt>
      <trkpt lat="45.65866" lon="6.67261">
        <ele>2474.57</ele>
        <time>2018-02-07T10:58:31Z</time>
      </trkpt>
      <trkpt lat="45.65867" lon="6.67253">
        <ele>2476.49</ele>
        <time>2018-02-07T10:58:45Z</time>
      </trkpt>
      <trkpt lat="45.65867" lon="6.67244">
        <ele>2478.42</ele>
        <time>2018-02-07T10:58:59Z</time>
      </trkpt>
      <trkpt lat="45.65866" lon="6.67236">
        <ele>2479.38</ele>
        <time>2018-02-07T10:59:11Z</time>
      </trkpt>
      <trkpt lat="45.65865" lon="6.67227">
        <ele>2481.78</ele>
        <time>2018-02-07T10:59:25Z</time>
      </trkpt>
      <trkpt lat="45.65865" lon="6.67217">
        <ele>2483.7</ele>
        <time>2018-02-07T10:59:38Z</time>
      </trkpt>
      <trkpt lat="45.65865" lon="6.67209">
        <ele>2485.15</ele>
        <time>2018-02-07T10:59:52Z</time>
      </trkpt>
      <trkpt lat="45.65863" lon="6.67198">
        <ele>2487.07</ele>
        <time>2018-02-07T11:00:05Z</time>
      </trkpt>
      <trkpt lat="45.65862" lon="6.67189">
        <ele>2488.51</ele>
        <time>2018-02-07T11:00:19Z</time>
      </trkpt>
      <trkpt lat="45.65861" lon="6.6718">
        <ele>2490.43</ele>
        <time>2018-02-07T11:00:32Z</time>
      </trkpt>
      <trkpt lat="45.6586" lon="6.67171">
        <ele>2492.36</ele>
        <time>2018-02-07T11:00:45Z</time>
      </trkpt>
      <trkpt lat="45.65864" lon="6.67163">
        <ele>2494.28</ele>
        <time>2018-02-07T11:01:00Z</time>
      </trkpt>
      <trkpt lat="45.65867" lon="6.67152">
        <ele>2496.2</ele>
        <time>2018-02-07T11:01:15Z</time>
      </trkpt>
      <trkpt lat="45.6587" lon="6.67143">
        <ele>2497.64</ele>
        <time>2018-02-07T11:01:30Z</time>
      </trkpt>
      <trkpt lat="45.65873" lon="6.67139">
        <ele>2499.08</ele>
        <time>2018-02-07T11:01:39Z</time>
      </trkpt>
      <trkpt lat="45.65878" lon="6.67134">
        <ele>2500.53</ele>
        <time>2018-02-07T11:01:52Z</time>
      </trkpt>
      <trkpt lat="45.65881" lon="6.67128">
        <ele>2502.45</ele>
        <time>2018-02-07T11:02:04Z</time>
      </trkpt>
      <trkpt lat="45.65881" lon="6.6712">
        <ele>2504.37</ele>
        <time>2018-02-07T11:02:17Z</time>
      </trkpt>
      <trkpt lat="45.65883" lon="6.67112">
        <ele>2506.77</ele>
        <time>2018-02-07T11:02:31Z</time>
      </trkpt>
      <trkpt lat="45.65879" lon="6.67109">
        <ele>2508.7</ele>
        <time>2018-02-07T11:02:46Z</time>
      </trkpt>
      <trkpt lat="45.65874" lon="6.6711">
        <ele>2509.66</ele>
        <time>2018-02-07T11:02:58Z</time>
      </trkpt>
      <trkpt lat="45.65868" lon="6.67107">
        <ele>2511.58</ele>
        <time>2018-02-07T11:03:11Z</time>
      </trkpt>
      <trkpt lat="45.65862" lon="6.67103">
        <ele>2513.5</ele>
        <time>2018-02-07T11:03:25Z</time>
      </trkpt>
      <trkpt lat="45.65856" lon="6.67101">
        <ele>2514.95</ele>
        <time>2018-02-07T11:03:38Z</time>
      </trkpt>
      <trkpt lat="45.6586" lon="6.67094">
        <ele>2515.43</ele>
        <time>2018-02-07T11:03:48Z</time>
      </trkpt>
      <trkpt lat="45.65861" lon="6.67084">
        <ele>2518.31</ele>
        <time>2018-02-07T11:04:03Z</time>
      </trkpt>
      <trkpt lat="45.65863" lon="6.67076">
        <ele>2519.27</ele>
        <time>2018-02-07T11:04:15Z</time>
      </trkpt>
      <trkpt lat="45.65868" lon="6.6707">
        <ele>2520.23</ele>
        <time>2018-02-07T11:04:28Z</time>
      </trkpt>
      <trkpt lat="45.65872" lon="6.67066">
        <ele>2522.16</ele>
        <time>2018-02-07T11:04:39Z</time>
      </trkpt>
      <trkpt lat="45.6587" lon="6.67064">
        <ele>2523.6</ele>
        <time>2018-02-07T11:04:51Z</time>
      </trkpt>
      <trkpt lat="45.65864" lon="6.67058">
        <ele>2524.56</ele>
        <time>2018-02-07T11:05:05Z</time>
      </trkpt>
      <trkpt lat="45.65858" lon="6.67054">
        <ele>2526.48</ele>
        <time>2018-02-07T11:05:19Z</time>
      </trkpt>
      <trkpt lat="45.65854" lon="6.6705">
        <ele>2528.4</ele>
        <time>2018-02-07T11:05:32Z</time>
      </trkpt>
      <trkpt lat="45.65847" lon="6.67048">
        <ele>2530.33</ele>
        <time>2018-02-07T11:05:47Z</time>
      </trkpt>
      <trkpt lat="45.65843" lon="6.67045">
        <ele>2530.81</ele>
        <time>2018-02-07T11:05:59Z</time>
      </trkpt>
      <trkpt lat="45.65838" lon="6.6704">
        <ele>2532.73</ele>
        <time>2018-02-07T11:06:13Z</time>
      </trkpt>
      <trkpt lat="45.65837" lon="6.6703">
        <ele>2534.65</ele>
        <time>2018-02-07T11:06:23Z</time>
      </trkpt>
      <trkpt lat="45.65839" lon="6.67025">
        <ele>2535.13</ele>
        <time>2018-02-07T11:06:29Z</time>
      </trkpt>
      <trkpt lat="45.65844" lon="6.67017">
        <ele>2536.58</ele>
        <time>2018-02-07T11:06:40Z</time>
      </trkpt>
      <trkpt lat="45.65848" lon="6.67012">
        <ele>2537.54</ele>
        <time>2018-02-07T11:06:49Z</time>
      </trkpt>
      <trkpt lat="45.65855" lon="6.67002">
        <ele>2538.98</ele>
        <time>2018-02-07T11:07:04Z</time>
      </trkpt>
      <trkpt lat="45.65861" lon="6.66995">
        <ele>2539.94</ele>
        <time>2018-02-07T11:07:18Z</time>
      </trkpt>
      <trkpt lat="45.65868" lon="6.66983">
        <ele>2540.42</ele>
        <time>2018-02-07T11:07:34Z</time>
      </trkpt>
      <trkpt lat="45.65874" lon="6.66968">
        <ele>2541.38</ele>
        <time>2018-02-07T11:07:51Z</time>
      </trkpt>
      <trkpt lat="45.65878" lon="6.66954">
        <ele>2541.86</ele>
        <time>2018-02-07T11:08:05Z</time>
      </trkpt>
      <trkpt lat="45.65879" lon="6.6694">
        <ele>2544.27</ele>
        <time>2018-02-07T11:08:20Z</time>
      </trkpt>
      <trkpt lat="45.65879" lon="6.66926">
        <ele>2546.67</ele>
        <time>2018-02-07T11:08:41Z</time>
      </trkpt>
      <trkpt lat="45.65881" lon="6.66912">
        <ele>2548.11</ele>
        <time>2018-02-07T11:08:54Z</time>
      </trkpt>
      <trkpt lat="45.65881" lon="6.66912">
        <ele>2548.59</ele>
        <time>2018-02-07T11:09:03Z</time>
      </trkpt>
      <trkpt lat="45.65886" lon="6.66911">
        <ele>2548.59</ele>
        <time>2018-02-07T11:09:18Z</time>
      </trkpt>
      <trkpt lat="45.6588" lon="6.66908">
        <ele>2548.59</ele>
        <time>2018-02-07T11:09:40Z</time>
      </trkpt>
      <trkpt lat="45.65879" lon="6.66908">
        <ele>2548.59</ele>
        <time>2018-02-07T11:10:00Z</time>
      </trkpt>
      <trkpt lat="45.65881" lon="6.66904">
        <ele>2549.07</ele>
        <time>2018-02-07T11:10:24Z</time>
      </trkpt>
      <trkpt lat="45.65884" lon="6.66905">
        <ele>2549.55</ele>
        <time>2018-02-07T11:10:42Z</time>
      </trkpt>
      <trkpt lat="45.65882" lon="6.66904">
        <ele>2548.59</ele>
        <time>2018-02-07T11:10:57Z</time>
      </trkpt>
      <trkpt lat="45.65883" lon="6.66903">
        <ele>2549.07</ele>
        <time>2018-02-07T11:11:16Z</time>
      </trkpt>
      <trkpt lat="45.65882" lon="6.669">
        <ele>2549.55</ele>
        <time>2018-02-07T11:11:34Z</time>
      </trkpt>
      <trkpt lat="45.65884" lon="6.66904">
        <ele>2549.55</ele>
        <time>2018-02-07T11:11:59Z</time>
      </trkpt>
      <trkpt lat="45.65885" lon="6.66903">
        <ele>2549.07</ele>
        <time>2018-02-07T11:12:13Z</time>
      </trkpt>
      <trkpt lat="45.65885" lon="6.66894">
        <ele>2550.51</ele>
        <time>2018-02-07T11:12:31Z</time>
      </trkpt>
      <trkpt lat="45.65886" lon="6.66885">
        <ele>2552.44</ele>
        <time>2018-02-07T11:12:44Z</time>
      </trkpt>
      <trkpt lat="45.65886" lon="6.66883">
        <ele>2554.36</ele>
        <time>2018-02-07T11:12:56Z</time>
      </trkpt>
      <trkpt lat="45.6588" lon="6.66881">
        <ele>2555.8</ele>
        <time>2018-02-07T11:13:10Z</time>
      </trkpt>
      <trkpt lat="45.65876" lon="6.66878">
        <ele>2557.24</ele>
        <time>2018-02-07T11:13:24Z</time>
      </trkpt>
      <trkpt lat="45.65872" lon="6.66875">
        <ele>2558.69</ele>
        <time>2018-02-07T11:13:36Z</time>
      </trkpt>
      <trkpt lat="45.65874" lon="6.66872">
        <ele>2559.17</ele>
        <time>2018-02-07T11:13:51Z</time>
      </trkpt>
      <trkpt lat="45.65876" lon="6.66869">
        <ele>2559.65</ele>
        <time>2018-02-07T11:14:06Z</time>
      </trkpt>
      <trkpt lat="45.65878" lon="6.66865">
        <ele>2560.13</ele>
        <time>2018-02-07T11:14:22Z</time>
      </trkpt>
      <trkpt lat="45.6588" lon="6.66859">
        <ele>2562.05</ele>
        <time>2018-02-07T11:14:34Z</time>
      </trkpt>
      <trkpt lat="45.65881" lon="6.66854">
        <ele>2563.01</ele>
        <time>2018-02-07T11:14:46Z</time>
      </trkpt>
      <trkpt lat="45.65883" lon="6.66852">
        <ele>2563.97</ele>
        <time>2018-02-07T11:14:56Z</time>
      </trkpt>
      <trkpt lat="45.65877" lon="6.66856">
        <ele>2564.93</ele>
        <time>2018-02-07T11:15:10Z</time>
      </trkpt>
      <trkpt lat="45.65871" lon="6.66855">
        <ele>2566.86</ele>
        <time>2018-02-07T11:15:24Z</time>
      </trkpt>
      <trkpt lat="45.65871" lon="6.66851">
        <ele>2567.34</ele>
        <time>2018-02-07T11:15:37Z</time>
      </trkpt>
      <trkpt lat="45.65873" lon="6.66847">
        <ele>2567.82</ele>
        <time>2018-02-07T11:15:54Z</time>
      </trkpt>
      <trkpt lat="45.65878" lon="6.66842">
        <ele>2569.26</ele>
        <time>2018-02-07T11:16:06Z</time>
      </trkpt>
      <trkpt lat="45.65882" lon="6.66837">
        <ele>2570.7</ele>
        <time>2018-02-07T11:16:19Z</time>
      </trkpt>
      <trkpt lat="45.65885" lon="6.66834">
        <ele>2571.18</ele>
        <time>2018-02-07T11:16:39Z</time>
      </trkpt>
      <trkpt lat="45.65886" lon="6.66831">
        <ele>2571.18</ele>
        <time>2018-02-07T11:16:56Z</time>
      </trkpt>
      <trkpt lat="45.65886" lon="6.66832">
        <ele>2571.18</ele>
        <time>2018-02-07T11:17:11Z</time>
      </trkpt>
      <trkpt lat="45.65885" lon="6.66834">
        <ele>2571.66</ele>
        <time>2018-02-07T11:17:28Z</time>
      </trkpt>
      <trkpt lat="45.65876" lon="6.66834">
        <ele>2573.59</ele>
        <time>2018-02-07T11:17:43Z</time>
      </trkpt>
      <trkpt lat="45.65871" lon="6.66832">
        <ele>2575.03</ele>
        <time>2018-02-07T11:17:59Z</time>
      </trkpt>
      <trkpt lat="45.65874" lon="6.66827">
        <ele>2576.47</ele>
        <time>2018-02-07T11:18:16Z</time>
      </trkpt>
      <trkpt lat="45.65878" lon="6.66822">
        <ele>2577.91</ele>
        <time>2018-02-07T11:18:28Z</time>
      </trkpt>
      <trkpt lat="45.65878" lon="6.66819">
        <ele>2578.87</ele>
        <time>2018-02-07T11:18:41Z</time>
      </trkpt>
      <trkpt lat="45.65874" lon="6.6682">
        <ele>2579.35</ele>
        <time>2018-02-07T11:18:55Z</time>
      </trkpt>
      <trkpt lat="45.65869" lon="6.6682">
        <ele>2580.32</ele>
        <time>2018-02-07T11:19:08Z</time>
      </trkpt>
      <trkpt lat="45.65864" lon="6.66822">
        <ele>2581.76</ele>
        <time>2018-02-07T11:19:20Z</time>
      </trkpt>
      <trkpt lat="45.65866" lon="6.66818">
        <ele>2581.76</ele>
        <time>2018-02-07T11:19:37Z</time>
      </trkpt>
      <trkpt lat="45.65868" lon="6.66813">
        <ele>2583.68</ele>
        <time>2018-02-07T11:19:50Z</time>
      </trkpt>
      <trkpt lat="45.65868" lon="6.66813">
        <ele>2583.2</ele>
        <time>2018-02-07T11:19:51Z</time>
      </trkpt>
      <trkpt lat="45.65872" lon="6.66807">
        <ele>2585.12</ele>
        <time>2018-02-07T11:20:04Z</time>
      </trkpt>
      <trkpt lat="45.65869" lon="6.66809">
        <ele>2585.6</ele>
        <time>2018-02-07T11:20:23Z</time>
      </trkpt>
      <trkpt lat="45.65866" lon="6.66809">
        <ele>2586.56</ele>
        <time>2018-02-07T11:20:41Z</time>
      </trkpt>
      <trkpt lat="45.65861" lon="6.66808">
        <ele>2588.01</ele>
        <time>2018-02-07T11:20:57Z</time>
      </trkpt>
      <trkpt lat="45.65863" lon="6.66801">
        <ele>2588.97</ele>
        <time>2018-02-07T11:21:13Z</time>
      </trkpt>
      <trkpt lat="45.65866" lon="6.66799">
        <ele>2590.41</ele>
        <time>2018-02-07T11:21:28Z</time>
      </trkpt>
      <trkpt lat="45.65861" lon="6.66803">
        <ele>2590.89</ele>
        <time>2018-02-07T11:21:47Z</time>
      </trkpt>
      <trkpt lat="45.65853" lon="6.66803">
        <ele>2592.81</ele>
        <time>2018-02-07T11:22:01Z</time>
      </trkpt>
      <trkpt lat="45.65854" lon="6.66797">
        <ele>2593.77</ele>
        <time>2018-02-07T11:22:16Z</time>
      </trkpt>
      <trkpt lat="45.65858" lon="6.66794">
        <ele>2593.77</ele>
        <time>2018-02-07T11:22:30Z</time>
      </trkpt>
      <trkpt lat="45.6586" lon="6.66789">
        <ele>2595.22</ele>
        <time>2018-02-07T11:22:41Z</time>
      </trkpt>
      <trkpt lat="45.65861" lon="6.66789">
        <ele>2595.7</ele>
        <time>2018-02-07T11:22:53Z</time>
      </trkpt>
      <trkpt lat="45.65858" lon="6.66791">
        <ele>2596.66</ele>
        <time>2018-02-07T11:23:12Z</time>
      </trkpt>
      <trkpt lat="45.65852" lon="6.66791">
        <ele>2598.1</ele>
        <time>2018-02-07T11:23:26Z</time>
      </trkpt>
      <trkpt lat="45.65852" lon="6.66786">
        <ele>2599.06</ele>
        <time>2018-02-07T11:23:41Z</time>
      </trkpt>
      <trkpt lat="45.65857" lon="6.66783">
        <ele>2600.02</ele>
        <time>2018-02-07T11:23:55Z</time>
      </trkpt>
      <trkpt lat="45.6586" lon="6.66777">
        <ele>2600.98</ele>
        <time>2018-02-07T11:24:09Z</time>
      </trkpt>
      <trkpt lat="45.65866" lon="6.66777">
        <ele>2602.43</ele>
        <time>2018-02-07T11:24:22Z</time>
      </trkpt>
      <trkpt lat="45.65869" lon="6.66773">
        <ele>2604.35</ele>
        <time>2018-02-07T11:24:34Z</time>
      </trkpt>
      <trkpt lat="45.65867" lon="6.66773">
        <ele>2604.35</ele>
        <time>2018-02-07T11:24:47Z</time>
      </trkpt>
      <trkpt lat="45.65866" lon="6.66773">
        <ele>2604.83</ele>
        <time>2018-02-07T11:25:03Z</time>
      </trkpt>
      <trkpt lat="45.65862" lon="6.66772">
        <ele>2605.79</ele>
        <time>2018-02-07T11:25:16Z</time>
      </trkpt>
      <trkpt lat="45.65858" lon="6.66771">
        <ele>2606.75</ele>
        <time>2018-02-07T11:25:34Z</time>
      </trkpt>
      <trkpt lat="45.65861" lon="6.66766">
        <ele>2607.71</ele>
        <time>2018-02-07T11:25:51Z</time>
      </trkpt>
      <trkpt lat="45.65867" lon="6.66765">
        <ele>2608.67</ele>
        <time>2018-02-07T11:26:04Z</time>
      </trkpt>
      <trkpt lat="45.65869" lon="6.66761">
        <ele>2609.64</ele>
        <time>2018-02-07T11:26:23Z</time>
      </trkpt>
      <trkpt lat="45.65874" lon="6.66759">
        <ele>2611.08</ele>
        <time>2018-02-07T11:26:35Z</time>
      </trkpt>
      <trkpt lat="45.65874" lon="6.66759">
        <ele>2612.04</ele>
        <time>2018-02-07T11:26:50Z</time>
      </trkpt>
      <trkpt lat="45.6587" lon="6.66759">
        <ele>2612.04</ele>
        <time>2018-02-07T11:27:12Z</time>
      </trkpt>
      <trkpt lat="45.65867" lon="6.66755">
        <ele>2613</ele>
        <time>2018-02-07T11:27:25Z</time>
      </trkpt>
      <trkpt lat="45.65871" lon="6.66757">
        <ele>2613.48</ele>
        <time>2018-02-07T11:27:45Z</time>
      </trkpt>
      <trkpt lat="45.65873" lon="6.66751">
        <ele>2614.92</ele>
        <time>2018-02-07T11:27:59Z</time>
      </trkpt>
      <trkpt lat="45.65876" lon="6.66748">
        <ele>2615.88</ele>
        <time>2018-02-07T11:28:21Z</time>
      </trkpt>
      <trkpt lat="45.65878" lon="6.66744">
        <ele>2617.33</ele>
        <time>2018-02-07T11:28:32Z</time>
      </trkpt>
      <trkpt lat="45.65878" lon="6.66741">
        <ele>2618.29</ele>
        <time>2018-02-07T11:28:47Z</time>
      </trkpt>
      <trkpt lat="45.65875" lon="6.66744">
        <ele>2619.25</ele>
        <time>2018-02-07T11:29:06Z</time>
      </trkpt>
      <trkpt lat="45.65874" lon="6.66741">
        <ele>2620.21</ele>
        <time>2018-02-07T11:29:20Z</time>
      </trkpt>
      <trkpt lat="45.65876" lon="6.66737">
        <ele>2620.69</ele>
        <time>2018-02-07T11:29:37Z</time>
      </trkpt>
      <trkpt lat="45.6588" lon="6.66735">
        <ele>2622.13</ele>
        <time>2018-02-07T11:29:49Z</time>
      </trkpt>
      <trkpt lat="45.65884" lon="6.66732">
        <ele>2623.58</ele>
        <time>2018-02-07T11:30:03Z</time>
      </trkpt>
      <trkpt lat="45.65881" lon="6.66732">
        <ele>2624.06</ele>
        <time>2018-02-07T11:30:24Z</time>
      </trkpt>
      <trkpt lat="45.65877" lon="6.66732">
        <ele>2625.5</ele>
        <time>2018-02-07T11:30:35Z</time>
      </trkpt>
      <trkpt lat="45.65872" lon="6.66734">
        <ele>2626.46</ele>
        <time>2018-02-07T11:30:48Z</time>
      </trkpt>
      <trkpt lat="45.65867" lon="6.66734">
        <ele>2628.38</ele>
        <time>2018-02-07T11:31:00Z</time>
      </trkpt>
      <trkpt lat="45.65867" lon="6.6673">
        <ele>2628.86</ele>
        <time>2018-02-07T11:31:17Z</time>
      </trkpt>
      <trkpt lat="45.65869" lon="6.66723">
        <ele>2629.82</ele>
        <time>2018-02-07T11:31:34Z</time>
      </trkpt>
      <trkpt lat="45.65873" lon="6.66722">
        <ele>2630.79</ele>
        <time>2018-02-07T11:31:48Z</time>
      </trkpt>
      <trkpt lat="45.65873" lon="6.66721">
        <ele>2631.27</ele>
        <time>2018-02-07T11:32:01Z</time>
      </trkpt>
      <trkpt lat="45.6587" lon="6.66724">
        <ele>2631.75</ele>
        <time>2018-02-07T11:32:19Z</time>
      </trkpt>
      <trkpt lat="45.65863" lon="6.66725">
        <ele>2633.67</ele>
        <time>2018-02-07T11:32:32Z</time>
      </trkpt>
      <trkpt lat="45.65855" lon="6.66724">
        <ele>2635.59</ele>
        <time>2018-02-07T11:32:48Z</time>
      </trkpt>
      <trkpt lat="45.65857" lon="6.6672">
        <ele>2636.07</ele>
        <time>2018-02-07T11:33:03Z</time>
      </trkpt>
      <trkpt lat="45.65858" lon="6.66719">
        <ele>2635.59</ele>
        <time>2018-02-07T11:33:34Z</time>
      </trkpt>
      <trkpt lat="45.6586" lon="6.66718">
        <ele>2636.07</ele>
        <time>2018-02-07T11:34:03Z</time>
      </trkpt>
      <trkpt lat="45.65858" lon="6.66716">
        <ele>2636.55</ele>
        <time>2018-02-07T11:34:25Z</time>
      </trkpt>
      <trkpt lat="45.65857" lon="6.66715">
        <ele>2636.07</ele>
        <time>2018-02-07T11:34:49Z</time>
      </trkpt>
      <trkpt lat="45.65857" lon="6.66718">
        <ele>2636.55</ele>
        <time>2018-02-07T11:35:13Z</time>
      </trkpt>
      <trkpt lat="45.65857" lon="6.66717">
        <ele>2636.07</ele>
        <time>2018-02-07T11:35:37Z</time>
      </trkpt>
      <trkpt lat="45.65857" lon="6.66717">
        <ele>2637.03</ele>
        <time>2018-02-07T11:36:03Z</time>
      </trkpt>
      <trkpt lat="45.65858" lon="6.66717">
        <ele>2636.55</ele>
        <time>2018-02-07T11:36:40Z</time>
      </trkpt>
      <trkpt lat="45.65861" lon="6.66711">
        <ele>2637.99</ele>
        <time>2018-02-07T11:36:54Z</time>
      </trkpt>
      <trkpt lat="45.65863" lon="6.66709">
        <ele>2638.48</ele>
        <time>2018-02-07T11:37:09Z</time>
      </trkpt>
      <trkpt lat="45.65865" lon="6.66708">
        <ele>2638.96</ele>
        <time>2018-02-07T11:37:31Z</time>
      </trkpt>
      <trkpt lat="45.65863" lon="6.6671">
        <ele>2639.44</ele>
        <time>2018-02-07T11:37:48Z</time>
      </trkpt>
      <trkpt lat="45.65862" lon="6.66712">
        <ele>2639.92</ele>
        <time>2018-02-07T11:38:04Z</time>
      </trkpt>
      <trkpt lat="45.65859" lon="6.66713">
        <ele>2640.4</ele>
        <time>2018-02-07T11:38:24Z</time>
      </trkpt>
      <trkpt lat="45.65854" lon="6.66712">
        <ele>2641.36</ele>
        <time>2018-02-07T11:38:48Z</time>
      </trkpt>
      <trkpt lat="45.65848" lon="6.6671">
        <ele>2643.28</ele>
        <time>2018-02-07T11:39:02Z</time>
      </trkpt>
      <trkpt lat="45.65849" lon="6.66708">
        <ele>2643.76</ele>
        <time>2018-02-07T11:39:18Z</time>
      </trkpt>
      <trkpt lat="45.65851" lon="6.66706">
        <ele>2643.76</ele>
        <time>2018-02-07T11:39:50Z</time>
      </trkpt>
      <trkpt lat="45.65854" lon="6.66704">
        <ele>2645.69</ele>
        <time>2018-02-07T11:40:06Z</time>
      </trkpt>
      <trkpt lat="45.65855" lon="6.66703">
        <ele>2645.69</ele>
        <time>2018-02-07T11:40:32Z</time>
      </trkpt>
      <trkpt lat="45.65856" lon="6.66702">
        <ele>2646.65</ele>
        <time>2018-02-07T11:40:47Z</time>
      </trkpt>
      <trkpt lat="45.65855" lon="6.66698">
        <ele>2647.13</ele>
        <time>2018-02-07T11:41:00Z</time>
      </trkpt>
      <trkpt lat="45.65854" lon="6.66701">
        <ele>2647.61</ele>
        <time>2018-02-07T11:41:20Z</time>
      </trkpt>
      <trkpt lat="45.65849" lon="6.66699">
        <ele>2648.09</ele>
        <time>2018-02-07T11:41:33Z</time>
      </trkpt>
      <trkpt lat="45.65847" lon="6.66699">
        <ele>2649.05</ele>
        <time>2018-02-07T11:41:52Z</time>
      </trkpt>
      <trkpt lat="45.65844" lon="6.66696">
        <ele>2650.01</ele>
        <time>2018-02-07T11:42:06Z</time>
      </trkpt>
      <trkpt lat="45.65848" lon="6.66694">
        <ele>2650.97</ele>
        <time>2018-02-07T11:42:29Z</time>
      </trkpt>
      <trkpt lat="45.65848" lon="6.66691">
        <ele>2652.42</ele>
        <time>2018-02-07T11:42:43Z</time>
      </trkpt>
      <trkpt lat="45.65853" lon="6.66691">
        <ele>2652.9</ele>
        <time>2018-02-07T11:43:03Z</time>
      </trkpt>
      <trkpt lat="45.65854" lon="6.66687">
        <ele>2653.38</ele>
        <time>2018-02-07T11:43:17Z</time>
      </trkpt>
      <trkpt lat="45.65852" lon="6.66688">
        <ele>2653.86</ele>
        <time>2018-02-07T11:43:32Z</time>
      </trkpt>
      <trkpt lat="45.65845" lon="6.66688">
        <ele>2655.78</ele>
        <time>2018-02-07T11:43:46Z</time>
      </trkpt>
      <trkpt lat="45.65843" lon="6.66683">
        <ele>2656.74</ele>
        <time>2018-02-07T11:44:04Z</time>
      </trkpt>
      <trkpt lat="45.65845" lon="6.66685">
        <ele>2656.74</ele>
        <time>2018-02-07T11:44:30Z</time>
      </trkpt>
      <trkpt lat="45.65849" lon="6.6668">
        <ele>2658.66</ele>
        <time>2018-02-07T11:44:45Z</time>
      </trkpt>
      <trkpt lat="45.65849" lon="6.66678">
        <ele>2659.14</ele>
        <time>2018-02-07T11:44:58Z</time>
      </trkpt>
      <trkpt lat="45.65844" lon="6.6668">
        <ele>2659.62</ele>
        <time>2018-02-07T11:45:18Z</time>
      </trkpt>
      <trkpt lat="45.6584" lon="6.6668">
        <ele>2661.07</ele>
        <time>2018-02-07T11:45:35Z</time>
      </trkpt>
      <trkpt lat="45.6584" lon="6.66677">
        <ele>2661.55</ele>
        <time>2018-02-07T11:45:47Z</time>
      </trkpt>
      <trkpt lat="45.65843" lon="6.66675">
        <ele>2662.99</ele>
        <time>2018-02-07T11:46:13Z</time>
      </trkpt>
      <trkpt lat="45.65849" lon="6.66669">
        <ele>2664.43</ele>
        <time>2018-02-07T11:46:28Z</time>
      </trkpt>
      <trkpt lat="45.65853" lon="6.66669">
        <ele>2664.91</ele>
        <time>2018-02-07T11:46:46Z</time>
      </trkpt>
      <trkpt lat="45.65856" lon="6.66662">
        <ele>2666.83</ele>
        <time>2018-02-07T11:47:04Z</time>
      </trkpt>
      <trkpt lat="45.65861" lon="6.66657">
        <ele>2668.76</ele>
        <time>2018-02-07T11:47:17Z</time>
      </trkpt>
      <trkpt lat="45.65864" lon="6.66651">
        <ele>2670.2</ele>
        <time>2018-02-07T11:47:37Z</time>
      </trkpt>
      <trkpt lat="45.65868" lon="6.6665">
        <ele>2671.64</ele>
        <time>2018-02-07T11:47:52Z</time>
      </trkpt>
      <trkpt lat="45.65873" lon="6.66645">
        <ele>2673.56</ele>
        <time>2018-02-07T11:48:07Z</time>
      </trkpt>
      <trkpt lat="45.65878" lon="6.66641">
        <ele>2674.52</ele>
        <time>2018-02-07T11:48:21Z</time>
      </trkpt>
      <trkpt lat="45.6588" lon="6.66637">
        <ele>2675.01</ele>
        <time>2018-02-07T11:48:38Z</time>
      </trkpt>
      <trkpt lat="45.6589" lon="6.66627">
        <ele>2677.41</ele>
        <time>2018-02-07T11:48:59Z</time>
      </trkpt>
      <trkpt lat="45.65892" lon="6.66629">
        <ele>2677.89</ele>
        <time>2018-02-07T11:49:16Z</time>
      </trkpt>
      <trkpt lat="45.65901" lon="6.66624">
        <ele>2678.37</ele>
        <time>2018-02-07T11:49:32Z</time>
      </trkpt>
      <trkpt lat="45.65906" lon="6.66623">
        <ele>2679.33</ele>
        <time>2018-02-07T11:49:47Z</time>
      </trkpt>
      <trkpt lat="45.65906" lon="6.66623">
        <ele>2678.85</ele>
        <time>2018-02-07T11:50:03Z</time>
      </trkpt>
      <trkpt lat="45.65907" lon="6.66626">
        <ele>2678.85</ele>
        <time>2018-02-07T11:50:22Z</time>
      </trkpt>
      <trkpt lat="45.65906" lon="6.66623">
        <ele>2679.33</ele>
        <time>2018-02-07T11:50:44Z</time>
      </trkpt>
      <trkpt lat="45.65907" lon="6.66623">
        <ele>2678.85</ele>
        <time>2018-02-07T11:51:07Z</time>
      </trkpt>
      <trkpt lat="45.65907" lon="6.66625">
        <ele>2678.85</ele>
        <time>2018-02-07T11:51:34Z</time>
      </trkpt>
      <trkpt lat="45.65908" lon="6.6662">
        <ele>2680.77</ele>
        <time>2018-02-07T11:51:46Z</time>
      </trkpt>
      <trkpt lat="45.65912" lon="6.66621">
        <ele>2683.18</ele>
        <time>2018-02-07T11:52:00Z</time>
      </trkpt>
      <trkpt lat="45.65915" lon="6.66618">
        <ele>2685.1</ele>
        <time>2018-02-07T11:52:21Z</time>
      </trkpt>
      <trkpt lat="45.65919" lon="6.66613">
        <ele>2686.06</ele>
        <time>2018-02-07T11:52:40Z</time>
      </trkpt>
      <trkpt lat="45.65925" lon="6.66613">
        <ele>2686.54</ele>
        <time>2018-02-07T11:52:52Z</time>
      </trkpt>
      <trkpt lat="45.65931" lon="6.66616">
        <ele>2684.62</ele>
        <time>2018-02-07T11:53:09Z</time>
      </trkpt>
      <trkpt lat="45.65936" lon="6.66618">
        <ele>2683.66</ele>
        <time>2018-02-07T11:53:23Z</time>
      </trkpt>
      <trkpt lat="45.65938" lon="6.6662">
        <ele>2683.66</ele>
        <time>2018-02-07T11:53:39Z</time>
      </trkpt>
      <trkpt lat="45.65941" lon="6.66619">
        <ele>2683.66</ele>
        <time>2018-02-07T11:53:54Z</time>
      </trkpt>
      <trkpt lat="45.65945" lon="6.66617">
        <ele>2684.62</ele>
        <time>2018-02-07T11:54:12Z</time>
      </trkpt>
      <trkpt lat="45.6595" lon="6.66616">
        <ele>2684.62</ele>
        <time>2018-02-07T11:54:31Z</time>
      </trkpt>
      <trkpt lat="45.6595" lon="6.66616">
        <ele>2684.62</ele>
        <time>2018-02-07T11:54:55Z</time>
      </trkpt>
      <trkpt lat="45.65952" lon="6.66616">
        <ele>2684.14</ele>
        <time>2018-02-07T11:55:16Z</time>
      </trkpt>
      <trkpt lat="45.65955" lon="6.66618">
        <ele>2684.62</ele>
        <time>2018-02-07T11:55:37Z</time>
      </trkpt>
      <trkpt lat="45.65953" lon="6.66619">
        <ele>2684.62</ele>
        <time>2018-02-07T11:55:57Z</time>
      </trkpt>
      <trkpt lat="45.65952" lon="6.66618">
        <ele>2684.14</ele>
        <time>2018-02-07T11:56:16Z</time>
      </trkpt>
      <trkpt lat="45.65955" lon="6.66618">
        <ele>2685.1</ele>
        <time>2018-02-07T11:56:26Z</time>
      </trkpt>
      <trkpt lat="45.65962" lon="6.6662">
        <ele>2686.06</ele>
        <time>2018-02-07T11:56:40Z</time>
      </trkpt>
      <trkpt lat="45.6597" lon="6.66623">
        <ele>2685.58</ele>
        <time>2018-02-07T11:56:53Z</time>
      </trkpt>
      <trkpt lat="45.65979" lon="6.66626">
        <ele>2685.58</ele>
        <time>2018-02-07T11:57:05Z</time>
      </trkpt>
      <trkpt lat="45.65986" lon="6.66629">
        <ele>2686.06</ele>
        <time>2018-02-07T11:57:17Z</time>
      </trkpt>
      <trkpt lat="45.65995" lon="6.66628">
        <ele>2685.1</ele>
        <time>2018-02-07T11:57:34Z</time>
      </trkpt>
      <trkpt lat="45.66003" lon="6.66627">
        <ele>2683.66</ele>
        <time>2018-02-07T11:57:45Z</time>
      </trkpt>
      <trkpt lat="45.6601" lon="6.6663">
        <ele>2681.25</ele>
        <time>2018-02-07T11:57:52Z</time>
      </trkpt>
      <trkpt lat="45.66015" lon="6.6663">
        <ele>2680.77</ele>
        <time>2018-02-07T11:58:02Z</time>
      </trkpt>
      <trkpt lat="45.66023" lon="6.66633">
        <ele>2678.37</ele>
        <time>2018-02-07T11:58:14Z</time>
      </trkpt>
      <trkpt lat="45.66033" lon="6.66637">
        <ele>2677.89</ele>
        <time>2018-02-07T11:58:27Z</time>
      </trkpt>
      <trkpt lat="45.66038" lon="6.66635">
        <ele>2677.89</ele>
        <time>2018-02-07T11:58:33Z</time>
      </trkpt>
      <trkpt lat="45.66045" lon="6.66631">
        <ele>2676.45</ele>
        <time>2018-02-07T11:58:50Z</time>
      </trkpt>
      <trkpt lat="45.66046" lon="6.66629">
        <ele>2675.97</ele>
        <time>2018-02-07T11:59:10Z</time>
      </trkpt>
      <trkpt lat="45.66047" lon="6.66632">
        <ele>2675.01</ele>
        <time>2018-02-07T11:59:26Z</time>
      </trkpt>
      <trkpt lat="45.66047" lon="6.66629">
        <ele>2675.01</ele>
        <time>2018-02-07T11:59:44Z</time>
      </trkpt>
      <trkpt lat="45.66047" lon="6.66627">
        <ele>2674.52</ele>
        <time>2018-02-07T12:00:08Z</time>
      </trkpt>
      <trkpt lat="45.6605" lon="6.66625">
        <ele>2675.01</ele>
        <time>2018-02-07T12:00:53Z</time>
      </trkpt>
      <trkpt lat="45.66046" lon="6.66636">
        <ele>2675.49</ele>
        <time>2018-02-07T12:01:16Z</time>
      </trkpt>
      <trkpt lat="45.66043" lon="6.66639">
        <ele>2675.01</ele>
        <time>2018-02-07T12:01:47Z</time>
      </trkpt>
      <trkpt lat="45.66044" lon="6.66634">
        <ele>2674.52</ele>
        <time>2018-02-07T12:02:21Z</time>
      </trkpt>
      <trkpt lat="45.66048" lon="6.6663">
        <ele>2675.01</ele>
        <time>2018-02-07T12:02:51Z</time>
      </trkpt>
      <trkpt lat="45.6605" lon="6.66629">
        <ele>2675.01</ele>
        <time>2018-02-07T12:03:11Z</time>
      </trkpt>
      <trkpt lat="45.6605" lon="6.66634">
        <ele>2675.49</ele>
        <time>2018-02-07T12:03:37Z</time>
      </trkpt>
      <trkpt lat="45.66047" lon="6.66633">
        <ele>2675.01</ele>
        <time>2018-02-07T12:04:06Z</time>
      </trkpt>
      <trkpt lat="45.66047" lon="6.66638">
        <ele>2675.49</ele>
        <time>2018-02-07T12:04:28Z</time>
      </trkpt>
      <trkpt lat="45.66045" lon="6.66635">
        <ele>2675.01</ele>
        <time>2018-02-07T12:04:45Z</time>
      </trkpt>
      <trkpt lat="45.66042" lon="6.66634">
        <ele>2675.49</ele>
        <time>2018-02-07T12:05:10Z</time>
      </trkpt>
      <trkpt lat="45.66043" lon="6.66633">
        <ele>2675.97</ele>
        <time>2018-02-07T12:05:40Z</time>
      </trkpt>
      <trkpt lat="45.66047" lon="6.66629">
        <ele>2675.49</ele>
        <time>2018-02-07T12:05:59Z</time>
      </trkpt>
      <trkpt lat="45.66048" lon="6.66632">
        <ele>2675.49</ele>
        <time>2018-02-07T12:06:24Z</time>
      </trkpt>
      <trkpt lat="45.66049" lon="6.66633">
        <ele>2675.49</ele>
        <time>2018-02-07T12:06:41Z</time>
      </trkpt>
      <trkpt lat="45.66047" lon="6.66636">
        <ele>2675.49</ele>
        <time>2018-02-07T12:07:03Z</time>
      </trkpt>
      <trkpt lat="45.66046" lon="6.66638">
        <ele>2675.49</ele>
        <time>2018-02-07T12:07:34Z</time>
      </trkpt>
      <trkpt lat="45.66048" lon="6.66641">
        <ele>2675.97</ele>
        <time>2018-02-07T12:08:06Z</time>
      </trkpt>
      <trkpt lat="45.66046" lon="6.66643">
        <ele>2675.97</ele>
        <time>2018-02-07T12:08:29Z</time>
      </trkpt>
      <trkpt lat="45.66046" lon="6.6664">
        <ele>2675.97</ele>
        <time>2018-02-07T12:08:58Z</time>
      </trkpt>
      <trkpt lat="45.6605" lon="6.66634">
        <ele>2675.97</ele>
        <time>2018-02-07T12:09:23Z</time>
      </trkpt>
      <trkpt lat="45.66049" lon="6.66635">
        <ele>2675.97</ele>
        <time>2018-02-07T12:09:47Z</time>
      </trkpt>
      <trkpt lat="45.66047" lon="6.66637">
        <ele>2675.97</ele>
        <time>2018-02-07T12:10:09Z</time>
      </trkpt>
      <trkpt lat="45.66047" lon="6.66635">
        <ele>2675.97</ele>
        <time>2018-02-07T12:10:31Z</time>
      </trkpt>
      <trkpt lat="45.66043" lon="6.66637">
        <ele>2675.97</ele>
        <time>2018-02-07T12:11:00Z</time>
      </trkpt>
      <trkpt lat="45.66042" lon="6.66641">
        <ele>2675.97</ele>
        <time>2018-02-07T12:11:29Z</time>
      </trkpt>
      <trkpt lat="45.6604" lon="6.6664">
        <ele>2676.45</ele>
        <time>2018-02-07T12:11:58Z</time>
      </trkpt>
      <trkpt lat="45.66041" lon="6.66639">
        <ele>2675.97</ele>
        <time>2018-02-07T12:12:26Z</time>
      </trkpt>
      <trkpt lat="45.66043" lon="6.66637">
        <ele>2676.45</ele>
        <time>2018-02-07T12:12:50Z</time>
      </trkpt>
      <trkpt lat="45.66049" lon="6.66633">
        <ele>2676.45</ele>
        <time>2018-02-07T12:13:24Z</time>
      </trkpt>
      <trkpt lat="45.6605" lon="6.66633">
        <ele>2676.45</ele>
        <time>2018-02-07T12:13:51Z</time>
      </trkpt>
      <trkpt lat="45.66051" lon="6.66638">
        <ele>2676.93</ele>
        <time>2018-02-07T12:14:26Z</time>
      </trkpt>
      <trkpt lat="45.66048" lon="6.6664">
        <ele>2676.93</ele>
        <time>2018-02-07T12:14:54Z</time>
      </trkpt>
      <trkpt lat="45.6605" lon="6.66637">
        <ele>2676.93</ele>
        <time>2018-02-07T12:15:17Z</time>
      </trkpt>
      <trkpt lat="45.66049" lon="6.66637">
        <ele>2677.41</ele>
        <time>2018-02-07T12:15:45Z</time>
      </trkpt>
      <trkpt lat="45.66047" lon="6.66634">
        <ele>2676.93</ele>
        <time>2018-02-07T12:16:19Z</time>
      </trkpt>
      <trkpt lat="45.66048" lon="6.66637">
        <ele>2677.41</ele>
        <time>2018-02-07T12:16:47Z</time>
      </trkpt>
      <trkpt lat="45.66048" lon="6.66642">
        <ele>2677.41</ele>
        <time>2018-02-07T12:17:12Z</time>
      </trkpt>
      <trkpt lat="45.66045" lon="6.66636">
        <ele>2677.89</ele>
        <time>2018-02-07T12:17:40Z</time>
      </trkpt>
      <trkpt lat="45.66049" lon="6.6663">
        <ele>2678.37</ele>
        <time>2018-02-07T12:18:09Z</time>
      </trkpt>
      <trkpt lat="45.66048" lon="6.66632">
        <ele>2678.37</ele>
        <time>2018-02-07T12:18:32Z</time>
      </trkpt>
      <trkpt lat="45.66047" lon="6.66633">
        <ele>2678.37</ele>
        <time>2018-02-07T12:19:00Z</time>
      </trkpt>
      <trkpt lat="45.6605" lon="6.6663">
        <ele>2679.33</ele>
        <time>2018-02-07T12:19:26Z</time>
      </trkpt>
      <trkpt lat="45.6605" lon="6.66634">
        <ele>2679.81</ele>
        <time>2018-02-07T12:19:57Z</time>
      </trkpt>
      <trkpt lat="45.66049" lon="6.66636">
        <ele>2680.29</ele>
        <time>2018-02-07T12:20:16Z</time>
      </trkpt>
      <trkpt lat="45.66048" lon="6.66634">
        <ele>2680.77</ele>
        <time>2018-02-07T12:20:34Z</time>
      </trkpt>
      <trkpt lat="45.66053" lon="6.66637">
        <ele>2680.77</ele>
        <time>2018-02-07T12:21:14Z</time>
      </trkpt>
      <trkpt lat="45.66054" lon="6.66635">
        <ele>2681.25</ele>
        <time>2018-02-07T12:21:40Z</time>
      </trkpt>
      <trkpt lat="45.6605" lon="6.66636">
        <ele>2681.25</ele>
        <time>2018-02-07T12:22:02Z</time>
      </trkpt>
      <trkpt lat="45.66052" lon="6.6663">
        <ele>2682.22</ele>
        <time>2018-02-07T12:22:27Z</time>
      </trkpt>
      <trkpt lat="45.66054" lon="6.66628">
        <ele>2681.73</ele>
        <time>2018-02-07T12:22:50Z</time>
      </trkpt>
      <trkpt lat="45.66054" lon="6.66626">
        <ele>2682.22</ele>
        <time>2018-02-07T12:23:16Z</time>
      </trkpt>
      <trkpt lat="45.6605" lon="6.66627">
        <ele>2682.7</ele>
        <time>2018-02-07T12:23:42Z</time>
      </trkpt>
      <trkpt lat="45.66054" lon="6.66626">
        <ele>2682.7</ele>
        <time>2018-02-07T12:24:17Z</time>
      </trkpt>
      <trkpt lat="45.66051" lon="6.66632">
        <ele>2683.18</ele>
        <time>2018-02-07T12:24:44Z</time>
      </trkpt>
      <trkpt lat="45.66051" lon="6.66635">
        <ele>2683.66</ele>
        <time>2018-02-07T12:25:09Z</time>
      </trkpt>
      <trkpt lat="45.66051" lon="6.66636">
        <ele>2684.62</ele>
        <time>2018-02-07T12:25:39Z</time>
      </trkpt>
      <trkpt lat="45.66056" lon="6.66638">
        <ele>2684.62</ele>
        <time>2018-02-07T12:26:18Z</time>
      </trkpt>
      <trkpt lat="45.66056" lon="6.6664">
        <ele>2684.62</ele>
        <time>2018-02-07T12:26:47Z</time>
      </trkpt>
      <trkpt lat="45.66053" lon="6.6664">
        <ele>2685.58</ele>
        <time>2018-02-07T12:27:13Z</time>
      </trkpt>
      <trkpt lat="45.66053" lon="6.66635">
        <ele>2685.58</ele>
        <time>2018-02-07T12:27:36Z</time>
      </trkpt>
      <trkpt lat="45.66054" lon="6.66632">
        <ele>2685.58</ele>
        <time>2018-02-07T12:28:00Z</time>
      </trkpt>
      <trkpt lat="45.66046" lon="6.66634">
        <ele>2686.06</ele>
        <time>2018-02-07T12:28:29Z</time>
      </trkpt>
      <trkpt lat="45.66043" lon="6.66636">
        <ele>2686.06</ele>
        <time>2018-02-07T12:28:59Z</time>
      </trkpt>
      <trkpt lat="45.66046" lon="6.66634">
        <ele>2686.06</ele>
        <time>2018-02-07T12:29:21Z</time>
      </trkpt>
      <trkpt lat="45.66048" lon="6.66635">
        <ele>2686.54</ele>
        <time>2018-02-07T12:29:51Z</time>
      </trkpt>
      <trkpt lat="45.66047" lon="6.66634">
        <ele>2686.06</ele>
        <time>2018-02-07T12:30:09Z</time>
      </trkpt>
      <trkpt lat="45.66047" lon="6.66634">
        <ele>2687.02</ele>
        <time>2018-02-07T12:30:31Z</time>
      </trkpt>
      <trkpt lat="45.66051" lon="6.66636">
        <ele>2686.54</ele>
        <time>2018-02-07T12:31:05Z</time>
      </trkpt>
      <trkpt lat="45.66048" lon="6.66638">
        <ele>2686.06</ele>
        <time>2018-02-07T12:31:30Z</time>
      </trkpt>
      <trkpt lat="45.66049" lon="6.66628">
        <ele>2686.06</ele>
        <time>2018-02-07T12:31:54Z</time>
      </trkpt>
      <trkpt lat="45.66049" lon="6.66629">
        <ele>2686.06</ele>
        <time>2018-02-07T12:32:29Z</time>
      </trkpt>
      <trkpt lat="45.66045" lon="6.6663">
        <ele>2685.58</ele>
        <time>2018-02-07T12:32:55Z</time>
      </trkpt>
      <trkpt lat="45.66049" lon="6.66625">
        <ele>2685.58</ele>
        <time>2018-02-07T12:33:27Z</time>
      </trkpt>
      <trkpt lat="45.66049" lon="6.66625">
        <ele>2685.1</ele>
        <time>2018-02-07T12:33:47Z</time>
      </trkpt>
      <trkpt lat="45.66048" lon="6.66626">
        <ele>2684.62</ele>
        <time>2018-02-07T12:34:23Z</time>
      </trkpt>
      <trkpt lat="45.66048" lon="6.6663">
        <ele>2684.14</ele>
        <time>2018-02-07T12:34:55Z</time>
      </trkpt>
      <trkpt lat="45.66048" lon="6.66629">
        <ele>2684.14</ele>
        <time>2018-02-07T12:35:28Z</time>
      </trkpt>
      <trkpt lat="45.66046" lon="6.66628">
        <ele>2684.14</ele>
        <time>2018-02-07T12:36:03Z</time>
      </trkpt>
      <trkpt lat="45.66047" lon="6.66629">
        <ele>2683.66</ele>
        <time>2018-02-07T12:36:33Z</time>
      </trkpt>
      <trkpt lat="45.66047" lon="6.6663">
        <ele>2683.18</ele>
        <time>2018-02-07T12:37:11Z</time>
      </trkpt>
      <trkpt lat="45.66045" lon="6.66631">
        <ele>2683.66</ele>
        <time>2018-02-07T12:37:27Z</time>
      </trkpt>
      <trkpt lat="45.66046" lon="6.66628">
        <ele>2683.18</ele>
        <time>2018-02-07T12:38:06Z</time>
      </trkpt>
      <trkpt lat="45.66045" lon="6.66629">
        <ele>2682.22</ele>
        <time>2018-02-07T12:38:35Z</time>
      </trkpt>
      <trkpt lat="45.66046" lon="6.66632">
        <ele>2682.22</ele>
        <time>2018-02-07T12:39:10Z</time>
      </trkpt>
      <trkpt lat="45.66045" lon="6.66631">
        <ele>2681.73</ele>
        <time>2018-02-07T12:39:52Z</time>
      </trkpt>
      <trkpt lat="45.66048" lon="6.66627">
        <ele>2682.7</ele>
        <time>2018-02-07T12:40:17Z</time>
      </trkpt>
      <trkpt lat="45.66047" lon="6.66629">
        <ele>2682.22</ele>
        <time>2018-02-07T12:40:37Z</time>
      </trkpt>
      <trkpt lat="45.66048" lon="6.66625">
        <ele>2682.22</ele>
        <time>2018-02-07T12:40:56Z</time>
      </trkpt>
      <trkpt lat="45.66049" lon="6.66625">
        <ele>2681.73</ele>
        <time>2018-02-07T12:41:17Z</time>
      </trkpt>
      <trkpt lat="45.66059" lon="6.66616">
        <ele>2679.33</ele>
        <time>2018-02-07T12:41:35Z</time>
      </trkpt>
      <trkpt lat="45.66066" lon="6.66612">
        <ele>2677.89</ele>
        <time>2018-02-07T12:41:53Z</time>
      </trkpt>
      <trkpt lat="45.66071" lon="6.66605">
        <ele>2676.45</ele>
        <time>2018-02-07T12:42:03Z</time>
      </trkpt>
      <trkpt lat="45.66075" lon="6.66597">
        <ele>2674.04</ele>
        <time>2018-02-07T12:42:16Z</time>
      </trkpt>
      <trkpt lat="45.66078" lon="6.66591">
        <ele>2671.16</ele>
        <time>2018-02-07T12:42:23Z</time>
      </trkpt>
      <trkpt lat="45.66075" lon="6.66592">
        <ele>2668.76</ele>
        <time>2018-02-07T12:42:25Z</time>
      </trkpt>
      <trkpt lat="45.66068" lon="6.6659">
        <ele>2666.35</ele>
        <time>2018-02-07T12:42:33Z</time>
      </trkpt>
      <trkpt lat="45.66072" lon="6.66579">
        <ele>2662.51</ele>
        <time>2018-02-07T12:42:37Z</time>
      </trkpt>
      <trkpt lat="45.66072" lon="6.66578">
        <ele>2662.99</ele>
        <time>2018-02-07T12:42:38Z</time>
      </trkpt>
      <trkpt lat="45.6607" lon="6.66576">
        <ele>2663.47</ele>
        <time>2018-02-07T12:42:50Z</time>
      </trkpt>
      <trkpt lat="45.66065" lon="6.66573">
        <ele>2658.66</ele>
        <time>2018-02-07T12:42:54Z</time>
      </trkpt>
      <trkpt lat="45.66064" lon="6.66573">
        <ele>2658.66</ele>
        <time>2018-02-07T12:42:55Z</time>
      </trkpt>
      <trkpt lat="45.66066" lon="6.66562">
        <ele>2653.86</ele>
        <time>2018-02-07T12:42:59Z</time>
      </trkpt>
      <trkpt lat="45.66057" lon="6.66561">
        <ele>2650.01</ele>
        <time>2018-02-07T12:43:03Z</time>
      </trkpt>
      <trkpt lat="45.66055" lon="6.66561">
        <ele>2649.05</ele>
        <time>2018-02-07T12:43:16Z</time>
      </trkpt>
      <trkpt lat="45.66046" lon="6.66559">
        <ele>2646.17</ele>
        <time>2018-02-07T12:43:25Z</time>
      </trkpt>
      <trkpt lat="45.66038" lon="6.66553">
        <ele>2643.28</ele>
        <time>2018-02-07T12:43:38Z</time>
      </trkpt>
      <trkpt lat="45.66038" lon="6.66554">
        <ele>2642.32</ele>
        <time>2018-02-07T12:43:40Z</time>
      </trkpt>
      <trkpt lat="45.66038" lon="6.66554">
        <ele>2642.32</ele>
        <time>2018-02-07T12:43:44Z</time>
      </trkpt>
      <trkpt lat="45.6603" lon="6.66548">
        <ele>2638.96</ele>
        <time>2018-02-07T12:43:49Z</time>
      </trkpt>
      <trkpt lat="45.66033" lon="6.66542">
        <ele>2634.63</ele>
        <time>2018-02-07T12:43:52Z</time>
      </trkpt>
      <trkpt lat="45.66028" lon="6.66532">
        <ele>2629.34</ele>
        <time>2018-02-07T12:43:56Z</time>
      </trkpt>
      <trkpt lat="45.66026" lon="6.66532">
        <ele>2629.34</ele>
        <time>2018-02-07T12:43:57Z</time>
      </trkpt>
      <trkpt lat="45.66024" lon="6.66521">
        <ele>2625.02</ele>
        <time>2018-02-07T12:44:00Z</time>
      </trkpt>
      <trkpt lat="45.66025" lon="6.66516">
        <ele>2621.17</ele>
        <time>2018-02-07T12:44:02Z</time>
      </trkpt>
      <trkpt lat="45.66019" lon="6.66514">
        <ele>2617.81</ele>
        <time>2018-02-07T12:44:04Z</time>
      </trkpt>
      <trkpt lat="45.66016" lon="6.66516">
        <ele>2617.33</ele>
        <time>2018-02-07T12:44:13Z</time>
      </trkpt>
      <trkpt lat="45.66008" lon="6.66511">
        <ele>2614.44</ele>
        <time>2018-02-07T12:44:23Z</time>
      </trkpt>
      <trkpt lat="45.66001" lon="6.66507">
        <ele>2611.56</ele>
        <time>2018-02-07T12:44:29Z</time>
      </trkpt>
      <trkpt lat="45.66005" lon="6.66497">
        <ele>2607.71</ele>
        <time>2018-02-07T12:44:32Z</time>
      </trkpt>
      <trkpt lat="45.66005" lon="6.66495">
        <ele>2606.27</ele>
        <time>2018-02-07T12:44:33Z</time>
      </trkpt>
      <trkpt lat="45.65997" lon="6.66493">
        <ele>2602.43</ele>
        <time>2018-02-07T12:44:37Z</time>
      </trkpt>
      <trkpt lat="45.65997" lon="6.66493">
        <ele>2602.91</ele>
        <time>2018-02-07T12:44:45Z</time>
      </trkpt>
      <trkpt lat="45.65994" lon="6.6649">
        <ele>2601.46</ele>
        <time>2018-02-07T12:44:48Z</time>
      </trkpt>
      <trkpt lat="45.65996" lon="6.6648">
        <ele>2597.14</ele>
        <time>2018-02-07T12:44:51Z</time>
      </trkpt>
      <trkpt lat="45.65998" lon="6.66478">
        <ele>2595.7</ele>
        <time>2018-02-07T12:44:52Z</time>
      </trkpt>
      <trkpt lat="45.65996" lon="6.6647">
        <ele>2591.85</ele>
        <time>2018-02-07T12:44:55Z</time>
      </trkpt>
      <trkpt lat="45.65997" lon="6.66471">
        <ele>2589.93</ele>
        <time>2018-02-07T12:44:57Z</time>
      </trkpt>
      <trkpt lat="45.65991" lon="6.66468">
        <ele>2588.97</ele>
        <time>2018-02-07T12:45:12Z</time>
      </trkpt>
      <trkpt lat="45.65983" lon="6.66461">
        <ele>2585.12</ele>
        <time>2018-02-07T12:45:16Z</time>
      </trkpt>
      <trkpt lat="45.65982" lon="6.66459">
        <ele>2584.64</ele>
        <time>2018-02-07T12:45:17Z</time>
      </trkpt>
      <trkpt lat="45.65987" lon="6.66448">
        <ele>2579.35</ele>
        <time>2018-02-07T12:45:20Z</time>
      </trkpt>
      <trkpt lat="45.65989" lon="6.66442">
        <ele>2576.47</ele>
        <time>2018-02-07T12:45:22Z</time>
      </trkpt>
      <trkpt lat="45.65987" lon="6.66439">
        <ele>2575.99</ele>
        <time>2018-02-07T12:45:23Z</time>
      </trkpt>
      <trkpt lat="45.65977" lon="6.66433">
        <ele>2570.7</ele>
        <time>2018-02-07T12:45:29Z</time>
      </trkpt>
      <trkpt lat="45.65968" lon="6.66425">
        <ele>2568.3</ele>
        <time>2018-02-07T12:45:35Z</time>
      </trkpt>
      <trkpt lat="45.65973" lon="6.66413">
        <ele>2563.49</ele>
        <time>2018-02-07T12:45:38Z</time>
      </trkpt>
      <trkpt lat="45.65976" lon="6.66411">
        <ele>2562.05</ele>
        <time>2018-02-07T12:45:39Z</time>
      </trkpt>
      <trkpt lat="45.65978" lon="6.66417">
        <ele>2561.09</ele>
        <time>2018-02-07T12:45:49Z</time>
      </trkpt>
      <trkpt lat="45.65978" lon="6.66416">
        <ele>2561.57</ele>
        <time>2018-02-07T12:45:55Z</time>
      </trkpt>
      <trkpt lat="45.65984" lon="6.66413">
        <ele>2559.65</ele>
        <time>2018-02-07T12:45:58Z</time>
      </trkpt>
      <trkpt lat="45.65982" lon="6.66405">
        <ele>2555.32</ele>
        <time>2018-02-07T12:46:01Z</time>
      </trkpt>
      <trkpt lat="45.65972" lon="6.66397">
        <ele>2551.48</ele>
        <time>2018-02-07T12:46:05Z</time>
      </trkpt>
      <trkpt lat="45.65971" lon="6.66396">
        <ele>2551.48</ele>
        <time>2018-02-07T12:46:06Z</time>
      </trkpt>
      <trkpt lat="45.6597" lon="6.66394">
        <ele>2551</ele>
        <time>2018-02-07T12:46:07Z</time>
      </trkpt>
      <trkpt lat="45.65972" lon="6.66385">
        <ele>2546.67</ele>
        <time>2018-02-07T12:46:10Z</time>
      </trkpt>
      <trkpt lat="45.65974" lon="6.66379">
        <ele>2542.34</ele>
        <time>2018-02-07T12:46:14Z</time>
      </trkpt>
      <trkpt lat="45.65969" lon="6.66376">
        <ele>2541.38</ele>
        <time>2018-02-07T12:46:25Z</time>
      </trkpt>
      <trkpt lat="45.65961" lon="6.66365">
        <ele>2537.54</ele>
        <time>2018-02-07T12:46:29Z</time>
      </trkpt>
      <trkpt lat="45.6596" lon="6.66364">
        <ele>2537.54</ele>
        <time>2018-02-07T12:46:30Z</time>
      </trkpt>
      <trkpt lat="45.65959" lon="6.66362">
        <ele>2537.06</ele>
        <time>2018-02-07T12:46:31Z</time>
      </trkpt>
      <trkpt lat="45.65963" lon="6.66354">
        <ele>2533.21</ele>
        <time>2018-02-07T12:46:34Z</time>
      </trkpt>
      <trkpt lat="45.65968" lon="6.66346">
        <ele>2529.37</ele>
        <time>2018-02-07T12:46:37Z</time>
      </trkpt>
      <trkpt lat="45.65964" lon="6.66336">
        <ele>2526.96</ele>
        <time>2018-02-07T12:46:39Z</time>
      </trkpt>
      <trkpt lat="45.6597" lon="6.6633">
        <ele>2522.64</ele>
        <time>2018-02-07T12:46:41Z</time>
      </trkpt>
      <trkpt lat="45.6597" lon="6.66323">
        <ele>2520.71</ele>
        <time>2018-02-07T12:46:42Z</time>
      </trkpt>
      <trkpt lat="45.65969" lon="6.66317">
        <ele>2518.31</ele>
        <time>2018-02-07T12:46:43Z</time>
      </trkpt>
      <trkpt lat="45.65967" lon="6.66314">
        <ele>2517.35</ele>
        <time>2018-02-07T12:46:44Z</time>
      </trkpt>
      <trkpt lat="45.65966" lon="6.6632">
        <ele>2517.35</ele>
        <time>2018-02-07T12:46:54Z</time>
      </trkpt>
      <trkpt lat="45.65967" lon="6.66323">
        <ele>2517.35</ele>
        <time>2018-02-07T12:47:03Z</time>
      </trkpt>
      <trkpt lat="45.65979" lon="6.66314">
        <ele>2513.02</ele>
        <time>2018-02-07T12:47:09Z</time>
      </trkpt>
      <trkpt lat="45.65976" lon="6.66307">
        <ele>2509.18</ele>
        <time>2018-02-07T12:47:11Z</time>
      </trkpt>
      <trkpt lat="45.65981" lon="6.66299">
        <ele>2504.85</ele>
        <time>2018-02-07T12:47:14Z</time>
      </trkpt>
      <trkpt lat="45.65985" lon="6.66297">
        <ele>2503.89</ele>
        <time>2018-02-07T12:47:16Z</time>
      </trkpt>
      <trkpt lat="45.65983" lon="6.66285">
        <ele>2499.08</ele>
        <time>2018-02-07T12:47:18Z</time>
      </trkpt>
      <trkpt lat="45.65979" lon="6.66274">
        <ele>2496.68</ele>
        <time>2018-02-07T12:47:20Z</time>
      </trkpt>
      <trkpt lat="45.65972" lon="6.66259">
        <ele>2492.84</ele>
        <time>2018-02-07T12:47:22Z</time>
      </trkpt>
      <trkpt lat="45.65979" lon="6.66254">
        <ele>2487.55</ele>
        <time>2018-02-07T12:47:24Z</time>
      </trkpt>
      <trkpt lat="45.65991" lon="6.66253">
        <ele>2483.22</ele>
        <time>2018-02-07T12:47:29Z</time>
      </trkpt>
      <trkpt lat="45.65987" lon="6.66247">
        <ele>2479.86</ele>
        <time>2018-02-07T12:47:31Z</time>
      </trkpt>
      <trkpt lat="45.65982" lon="6.66239">
        <ele>2478.9</ele>
        <time>2018-02-07T12:47:34Z</time>
      </trkpt>
      <trkpt lat="45.6599" lon="6.66227">
        <ele>2472.17</ele>
        <time>2018-02-07T12:47:38Z</time>
      </trkpt>
      <trkpt lat="45.66003" lon="6.6622">
        <ele>2468.8</ele>
        <time>2018-02-07T12:47:42Z</time>
      </trkpt>
      <trkpt lat="45.66002" lon="6.66214">
        <ele>2465.44</ele>
        <time>2018-02-07T12:47:43Z</time>
      </trkpt>
      <trkpt lat="45.65994" lon="6.662">
        <ele>2462.07</ele>
        <time>2018-02-07T12:47:46Z</time>
      </trkpt>
      <trkpt lat="45.66002" lon="6.66194">
        <ele>2457.27</ele>
        <time>2018-02-07T12:47:48Z</time>
      </trkpt>
      <trkpt lat="45.66007" lon="6.66198">
        <ele>2456.31</ele>
        <time>2018-02-07T12:47:50Z</time>
      </trkpt>
      <trkpt lat="45.66007" lon="6.66204">
        <ele>2456.79</ele>
        <time>2018-02-07T12:48:04Z</time>
      </trkpt>
      <trkpt lat="45.66009" lon="6.66205">
        <ele>2456.31</ele>
        <time>2018-02-07T12:48:25Z</time>
      </trkpt>
      <trkpt lat="45.66012" lon="6.6619">
        <ele>2451.02</ele>
        <time>2018-02-07T12:48:30Z</time>
      </trkpt>
      <trkpt lat="45.66017" lon="6.66181">
        <ele>2445.25</ele>
        <time>2018-02-07T12:48:33Z</time>
      </trkpt>
      <trkpt lat="45.66019" lon="6.66185">
        <ele>2444.77</ele>
        <time>2018-02-07T12:48:43Z</time>
      </trkpt>
      <trkpt lat="45.6602" lon="6.66187">
        <ele>2445.25</ele>
        <time>2018-02-07T12:49:05Z</time>
      </trkpt>
      <trkpt lat="45.6602" lon="6.66188">
        <ele>2444.29</ele>
        <time>2018-02-07T12:49:32Z</time>
      </trkpt>
      <trkpt lat="45.6602" lon="6.66189">
        <ele>2444.29</ele>
        <time>2018-02-07T12:50:02Z</time>
      </trkpt>
      <trkpt lat="45.6602" lon="6.66189">
        <ele>2444.29</ele>
        <time>2018-02-07T12:50:34Z</time>
      </trkpt>
      <trkpt lat="45.66021" lon="6.66189">
        <ele>2444.29</ele>
        <time>2018-02-07T12:50:55Z</time>
      </trkpt>
      <trkpt lat="45.66022" lon="6.66188">
        <ele>2443.81</ele>
        <time>2018-02-07T12:51:22Z</time>
      </trkpt>
      <trkpt lat="45.66031" lon="6.66188">
        <ele>2441.89</ele>
        <time>2018-02-07T12:51:27Z</time>
      </trkpt>
      <trkpt lat="45.66033" lon="6.66176">
        <ele>2440.44</ele>
        <time>2018-02-07T12:51:29Z</time>
      </trkpt>
      <trkpt lat="45.66029" lon="6.66169">
        <ele>2437.08</ele>
        <time>2018-02-07T12:51:30Z</time>
      </trkpt>
      <trkpt lat="45.66025" lon="6.66165">
        <ele>2434.68</ele>
        <time>2018-02-07T12:51:31Z</time>
      </trkpt>
      <trkpt lat="45.66019" lon="6.66161">
        <ele>2434.2</ele>
        <time>2018-02-07T12:51:33Z</time>
      </trkpt>
      <trkpt lat="45.66014" lon="6.66152">
        <ele>2432.75</ele>
        <time>2018-02-07T12:51:36Z</time>
      </trkpt>
      <trkpt lat="45.66023" lon="6.66143">
        <ele>2427.95</ele>
        <time>2018-02-07T12:51:39Z</time>
      </trkpt>
      <trkpt lat="45.6603" lon="6.66144">
        <ele>2426.5</ele>
        <time>2018-02-07T12:51:41Z</time>
      </trkpt>
      <trkpt lat="45.66033" lon="6.66135">
        <ele>2423.14</ele>
        <time>2018-02-07T12:51:43Z</time>
      </trkpt>
      <trkpt lat="45.66028" lon="6.66125">
        <ele>2419.78</ele>
        <time>2018-02-07T12:51:45Z</time>
      </trkpt>
      <trkpt lat="45.66025" lon="6.6611">
        <ele>2416.41</ele>
        <time>2018-02-07T12:51:48Z</time>
      </trkpt>
      <trkpt lat="45.66034" lon="6.66107">
        <ele>2413.53</ele>
        <time>2018-02-07T12:51:50Z</time>
      </trkpt>
      <trkpt lat="45.66039" lon="6.66095">
        <ele>2408.24</ele>
        <time>2018-02-07T12:51:52Z</time>
      </trkpt>
      <trkpt lat="45.66037" lon="6.66088">
        <ele>2405.36</ele>
        <time>2018-02-07T12:51:53Z</time>
      </trkpt>
      <trkpt lat="45.66029" lon="6.66082">
        <ele>2403.91</ele>
        <time>2018-02-07T12:51:55Z</time>
      </trkpt>
      <trkpt lat="45.66025" lon="6.66081">
        <ele>2404.88</ele>
        <time>2018-02-07T12:52:03Z</time>
      </trkpt>
      <trkpt lat="45.66024" lon="6.66078">
        <ele>2404.39</ele>
        <time>2018-02-07T12:52:08Z</time>
      </trkpt>
      <trkpt lat="45.66013" lon="6.66063">
        <ele>2401.03</ele>
        <time>2018-02-07T12:52:14Z</time>
      </trkpt>
      <trkpt lat="45.66001" lon="6.66048">
        <ele>2398.63</ele>
        <time>2018-02-07T12:52:19Z</time>
      </trkpt>
      <trkpt lat="45.65992" lon="6.6603">
        <ele>2395.74</ele>
        <time>2018-02-07T12:52:23Z</time>
      </trkpt>
      <trkpt lat="45.66002" lon="6.66021">
        <ele>2392.38</ele>
        <time>2018-02-07T12:52:27Z</time>
      </trkpt>
      <trkpt lat="45.66009" lon="6.66027">
        <ele>2390.94</ele>
        <time>2018-02-07T12:52:29Z</time>
      </trkpt>
      <trkpt lat="45.66015" lon="6.66018">
        <ele>2386.13</ele>
        <time>2018-02-07T12:52:34Z</time>
      </trkpt>
      <trkpt lat="45.66021" lon="6.65999">
        <ele>2381.32</ele>
        <time>2018-02-07T12:52:38Z</time>
      </trkpt>
      <trkpt lat="45.66029" lon="6.66004">
        <ele>2379.88</ele>
        <time>2018-02-07T12:52:40Z</time>
      </trkpt>
      <trkpt lat="45.66031" lon="6.66008">
        <ele>2379.4</ele>
        <time>2018-02-07T12:52:48Z</time>
      </trkpt>
      <trkpt lat="45.66034" lon="6.66007">
        <ele>2378.92</ele>
        <time>2018-02-07T12:53:00Z</time>
      </trkpt>
      <trkpt lat="45.66056" lon="6.66013">
        <ele>2376.04</ele>
        <time>2018-02-07T12:53:10Z</time>
      </trkpt>
      <trkpt lat="45.66058" lon="6.66012">
        <ele>2375.07</ele>
        <time>2018-02-07T12:53:11Z</time>
      </trkpt>
      <trkpt lat="45.66059" lon="6.66001">
        <ele>2371.23</ele>
        <time>2018-02-07T12:53:14Z</time>
      </trkpt>
      <trkpt lat="45.66057" lon="6.65997">
        <ele>2370.75</ele>
        <time>2018-02-07T12:53:15Z</time>
      </trkpt>
      <trkpt lat="45.66058" lon="6.65977">
        <ele>2366.9</ele>
        <time>2018-02-07T12:53:19Z</time>
      </trkpt>
      <trkpt lat="45.66061" lon="6.65964">
        <ele>2363.54</ele>
        <time>2018-02-07T12:53:21Z</time>
      </trkpt>
      <trkpt lat="45.66056" lon="6.65951">
        <ele>2359.21</ele>
        <time>2018-02-07T12:53:23Z</time>
      </trkpt>
      <trkpt lat="45.66065" lon="6.65934">
        <ele>2354.89</ele>
        <time>2018-02-07T12:53:26Z</time>
      </trkpt>
      <trkpt lat="45.66067" lon="6.65921">
        <ele>2350.08</ele>
        <time>2018-02-07T12:53:28Z</time>
      </trkpt>
      <trkpt lat="45.66061" lon="6.65902">
        <ele>2346.72</ele>
        <time>2018-02-07T12:53:31Z</time>
      </trkpt>
      <trkpt lat="45.66071" lon="6.65894">
        <ele>2342.39</ele>
        <time>2018-02-07T12:53:33Z</time>
      </trkpt>
      <trkpt lat="45.66092" lon="6.65891">
        <ele>2339.99</ele>
        <time>2018-02-07T12:53:37Z</time>
      </trkpt>
      <trkpt lat="45.66106" lon="6.65881">
        <ele>2336.62</ele>
        <time>2018-02-07T12:53:41Z</time>
      </trkpt>
      <trkpt lat="45.66098" lon="6.65864">
        <ele>2332.78</ele>
        <time>2018-02-07T12:53:44Z</time>
      </trkpt>
      <trkpt lat="45.66082" lon="6.65835">
        <ele>2327.49</ele>
        <time>2018-02-07T12:53:48Z</time>
      </trkpt>
      <trkpt lat="45.66078" lon="6.65828">
        <ele>2325.57</ele>
        <time>2018-02-07T12:53:49Z</time>
      </trkpt>
      <trkpt lat="45.66049" lon="6.6579">
        <ele>2323.16</ele>
        <time>2018-02-07T12:53:58Z</time>
      </trkpt>
      <trkpt lat="45.66056" lon="6.65769">
        <ele>2317.88</ele>
        <time>2018-02-07T12:54:02Z</time>
      </trkpt>
      <trkpt lat="45.66061" lon="6.65768">
        <ele>2317.4</ele>
        <time>2018-02-07T12:54:03Z</time>
      </trkpt>
      <trkpt lat="45.66077" lon="6.65763">
        <ele>2315.47</ele>
        <time>2018-02-07T12:54:06Z</time>
      </trkpt>
      <trkpt lat="45.66099" lon="6.65747">
        <ele>2313.07</ele>
        <time>2018-02-07T12:54:12Z</time>
      </trkpt>
      <trkpt lat="45.66111" lon="6.65736">
        <ele>2311.15</ele>
        <time>2018-02-07T12:54:15Z</time>
      </trkpt>
      <trkpt lat="45.66117" lon="6.65713">
        <ele>2307.3</ele>
        <time>2018-02-07T12:54:19Z</time>
      </trkpt>
      <trkpt lat="45.66106" lon="6.65704">
        <ele>2305.38</ele>
        <time>2018-02-07T12:54:22Z</time>
      </trkpt>
      <trkpt lat="45.66089" lon="6.65702">
        <ele>2302.98</ele>
        <time>2018-02-07T12:54:27Z</time>
      </trkpt>
      <trkpt lat="45.66077" lon="6.65695">
        <ele>2301.05</ele>
        <time>2018-02-07T12:54:33Z</time>
      </trkpt>
      <trkpt lat="45.66081" lon="6.65665">
        <ele>2296.73</ele>
        <time>2018-02-07T12:54:37Z</time>
      </trkpt>
      <trkpt lat="45.6609" lon="6.65642">
        <ele>2294.32</ele>
        <time>2018-02-07T12:54:43Z</time>
      </trkpt>
      <trkpt lat="45.66089" lon="6.65643">
        <ele>2294.32</ele>
        <time>2018-02-07T12:54:45Z</time>
      </trkpt>
      <trkpt lat="45.6608" lon="6.65633">
        <ele>2292.88</ele>
        <time>2018-02-07T12:54:49Z</time>
      </trkpt>
      <trkpt lat="45.66074" lon="6.65606">
        <ele>2290</ele>
        <time>2018-02-07T12:54:55Z</time>
      </trkpt>
      <trkpt lat="45.66075" lon="6.65597">
        <ele>2289.04</ele>
        <time>2018-02-07T12:54:59Z</time>
      </trkpt>
      <trkpt lat="45.66068" lon="6.6561">
        <ele>2287.11</ele>
        <time>2018-02-07T12:55:05Z</time>
      </trkpt>
      <trkpt lat="45.66067" lon="6.65613">
        <ele>2287.11</ele>
        <time>2018-02-07T12:55:07Z</time>
      </trkpt>
      <trkpt lat="45.66066" lon="6.65612">
        <ele>2287.11</ele>
        <time>2018-02-07T12:55:18Z</time>
      </trkpt>
      <trkpt lat="45.66065" lon="6.65612">
        <ele>2287.11</ele>
        <time>2018-02-07T12:55:34Z</time>
      </trkpt>
      <trkpt lat="45.66065" lon="6.65612">
        <ele>2287.11</ele>
        <time>2018-02-07T12:55:52Z</time>
      </trkpt>
      <trkpt lat="45.66066" lon="6.65613">
        <ele>2286.63</ele>
        <time>2018-02-07T12:56:14Z</time>
      </trkpt>
      <trkpt lat="45.66066" lon="6.65613">
        <ele>2287.11</ele>
        <time>2018-02-07T12:56:29Z</time>
      </trkpt>
      <trkpt lat="45.66066" lon="6.65613">
        <ele>2286.63</ele>
        <time>2018-02-07T12:56:52Z</time>
      </trkpt>
      <trkpt lat="45.66066" lon="6.65613">
        <ele>2286.63</ele>
        <time>2018-02-07T12:56:53Z</time>
      </trkpt>
      <trkpt lat="45.66066" lon="6.65614">
        <ele>2285.19</ele>
        <time>2018-02-07T12:57:07Z</time>
      </trkpt>
      <trkpt lat="45.66066" lon="6.65613">
        <ele>2285.19</ele>
        <time>2018-02-07T12:57:34Z</time>
      </trkpt>
      <trkpt lat="45.66066" lon="6.6561">
        <ele>2285.67</ele>
        <time>2018-02-07T12:58:06Z</time>
      </trkpt>
      <trkpt lat="45.66064" lon="6.65611">
        <ele>2285.19</ele>
        <time>2018-02-07T12:58:35Z</time>
      </trkpt>
      <trkpt lat="45.66064" lon="6.65619">
        <ele>2285.19</ele>
        <time>2018-02-07T12:59:15Z</time>
      </trkpt>
      <trkpt lat="45.66062" lon="6.65622">
        <ele>2285.67</ele>
        <time>2018-02-07T12:59:53Z</time>
      </trkpt>
      <trkpt lat="45.66058" lon="6.65621">
        <ele>2285.67</ele>
        <time>2018-02-07T13:00:19Z</time>
      </trkpt>
      <trkpt lat="45.6606" lon="6.65621">
        <ele>2285.67</ele>
        <time>2018-02-07T13:00:54Z</time>
      </trkpt>
      <trkpt lat="45.66059" lon="6.6562">
        <ele>2285.67</ele>
        <time>2018-02-07T13:01:24Z</time>
      </trkpt>
      <trkpt lat="45.6606" lon="6.65621">
        <ele>2286.15</ele>
        <time>2018-02-07T13:01:54Z</time>
      </trkpt>
      <trkpt lat="45.66063" lon="6.65621">
        <ele>2286.15</ele>
        <time>2018-02-07T13:02:21Z</time>
      </trkpt>
      <trkpt lat="45.66062" lon="6.65617">
        <ele>2286.63</ele>
        <time>2018-02-07T13:02:53Z</time>
      </trkpt>
      <trkpt lat="45.6606" lon="6.65613">
        <ele>2286.63</ele>
        <time>2018-02-07T13:03:28Z</time>
      </trkpt>
      <trkpt lat="45.6606" lon="6.65614">
        <ele>2287.11</ele>
        <time>2018-02-07T13:04:03Z</time>
      </trkpt>
      <trkpt lat="45.66058" lon="6.65615">
        <ele>2287.11</ele>
        <time>2018-02-07T13:04:38Z</time>
      </trkpt>
      <trkpt lat="45.66058" lon="6.65616">
        <ele>2287.11</ele>
        <time>2018-02-07T13:05:19Z</time>
      </trkpt>
      <trkpt lat="45.66059" lon="6.65613">
        <ele>2287.59</ele>
        <time>2018-02-07T13:05:41Z</time>
      </trkpt>
      <trkpt lat="45.66059" lon="6.65613">
        <ele>2287.11</ele>
        <time>2018-02-07T13:06:17Z</time>
      </trkpt>
      <trkpt lat="45.66055" lon="6.65603">
        <ele>2288.08</ele>
        <time>2018-02-07T13:06:51Z</time>
      </trkpt>
      <trkpt lat="45.66053" lon="6.65612">
        <ele>2287.59</ele>
        <time>2018-02-07T13:07:21Z</time>
      </trkpt>
      <trkpt lat="45.66059" lon="6.65617">
        <ele>2288.08</ele>
        <time>2018-02-07T13:07:45Z</time>
      </trkpt>
      <trkpt lat="45.66059" lon="6.65613">
        <ele>2287.59</ele>
        <time>2018-02-07T13:08:08Z</time>
      </trkpt>
      <trkpt lat="45.66064" lon="6.6561">
        <ele>2287.59</ele>
        <time>2018-02-07T13:08:46Z</time>
      </trkpt>
      <trkpt lat="45.66063" lon="6.65607">
        <ele>2287.11</ele>
        <time>2018-02-07T13:09:06Z</time>
      </trkpt>
      <trkpt lat="45.66066" lon="6.65613">
        <ele>2287.11</ele>
        <time>2018-02-07T13:09:22Z</time>
      </trkpt>
      <trkpt lat="45.66064" lon="6.65617">
        <ele>2286.63</ele>
        <time>2018-02-07T13:09:55Z</time>
      </trkpt>
      <trkpt lat="45.66058" lon="6.65617">
        <ele>2286.63</ele>
        <time>2018-02-07T13:10:24Z</time>
      </trkpt>
      <trkpt lat="45.66058" lon="6.65615">
        <ele>2286.15</ele>
        <time>2018-02-07T13:10:50Z</time>
      </trkpt>
      <trkpt lat="45.66063" lon="6.65615">
        <ele>2286.63</ele>
        <time>2018-02-07T13:11:23Z</time>
      </trkpt>
      <trkpt lat="45.66065" lon="6.65614">
        <ele>2287.11</ele>
        <time>2018-02-07T13:11:53Z</time>
      </trkpt>
      <trkpt lat="45.66067" lon="6.65615">
        <ele>2287.11</ele>
        <time>2018-02-07T13:12:25Z</time>
      </trkpt>
      <trkpt lat="45.66066" lon="6.65616">
        <ele>2287.11</ele>
        <time>2018-02-07T13:12:50Z</time>
      </trkpt>
      <trkpt lat="45.66065" lon="6.65613">
        <ele>2288.08</ele>
        <time>2018-02-07T13:13:03Z</time>
      </trkpt>
      <trkpt lat="45.66064" lon="6.65611">
        <ele>2288.08</ele>
        <time>2018-02-07T13:13:27Z</time>
      </trkpt>
      <trkpt lat="45.66064" lon="6.65611">
        <ele>2288.08</ele>
        <time>2018-02-07T13:13:54Z</time>
      </trkpt>
      <trkpt lat="45.66063" lon="6.65612">
        <ele>2288.08</ele>
        <time>2018-02-07T13:14:13Z</time>
      </trkpt>
      <trkpt lat="45.66064" lon="6.65611">
        <ele>2288.08</ele>
        <time>2018-02-07T13:14:34Z</time>
      </trkpt>
      <trkpt lat="45.66064" lon="6.6561">
        <ele>2288.08</ele>
        <time>2018-02-07T13:14:56Z</time>
      </trkpt>
      <trkpt lat="45.66065" lon="6.65612">
        <ele>2288.08</ele>
        <time>2018-02-07T13:15:18Z</time>
      </trkpt>
      <trkpt lat="45.66065" lon="6.65611">
        <ele>2288.08</ele>
        <time>2018-02-07T13:15:41Z</time>
      </trkpt>
      <trkpt lat="45.66066" lon="6.65608">
        <ele>2288.56</ele>
        <time>2018-02-07T13:15:56Z</time>
      </trkpt>
      <trkpt lat="45.66068" lon="6.65609">
        <ele>2288.56</ele>
        <time>2018-02-07T13:16:22Z</time>
      </trkpt>
      <trkpt lat="45.66067" lon="6.65612">
        <ele>2288.56</ele>
        <time>2018-02-07T13:16:44Z</time>
      </trkpt>
      <trkpt lat="45.66065" lon="6.65612">
        <ele>2288.56</ele>
        <time>2018-02-07T13:16:59Z</time>
      </trkpt>
      <trkpt lat="45.66067" lon="6.65613">
        <ele>2288.08</ele>
        <time>2018-02-07T13:17:15Z</time>
      </trkpt>
      <trkpt lat="45.66067" lon="6.65614">
        <ele>2288.08</ele>
        <time>2018-02-07T13:17:33Z</time>
      </trkpt>
      <trkpt lat="45.66065" lon="6.65609">
        <ele>2288.08</ele>
        <time>2018-02-07T13:17:56Z</time>
      </trkpt>
      <trkpt lat="45.66067" lon="6.65612">
        <ele>2288.08</ele>
        <time>2018-02-07T13:18:13Z</time>
      </trkpt>
      <trkpt lat="45.66067" lon="6.65613">
        <ele>2288.56</ele>
        <time>2018-02-07T13:18:30Z</time>
      </trkpt>
      <trkpt lat="45.66068" lon="6.65614">
        <ele>2288.56</ele>
        <time>2018-02-07T13:18:48Z</time>
      </trkpt>
      <trkpt lat="45.66067" lon="6.65615">
        <ele>2288.56</ele>
        <time>2018-02-07T13:19:09Z</time>
      </trkpt>
      <trkpt lat="45.66069" lon="6.65613">
        <ele>2289.04</ele>
        <time>2018-02-07T13:19:28Z</time>
      </trkpt>
      <trkpt lat="45.66066" lon="6.65614">
        <ele>2289.04</ele>
        <time>2018-02-07T13:19:51Z</time>
      </trkpt>
      <trkpt lat="45.66068" lon="6.65617">
        <ele>2289.52</ele>
        <time>2018-02-07T13:20:08Z</time>
      </trkpt>
      <trkpt lat="45.6607" lon="6.65617">
        <ele>2289.52</ele>
        <time>2018-02-07T13:20:22Z</time>
      </trkpt>
      <trkpt lat="45.66071" lon="6.65622">
        <ele>2290</ele>
        <time>2018-02-07T13:20:42Z</time>
      </trkpt>
      <trkpt lat="45.66073" lon="6.65625">
        <ele>2290</ele>
        <time>2018-02-07T13:20:57Z</time>
      </trkpt>
      <trkpt lat="45.66077" lon="6.65631">
        <ele>2291.44</ele>
        <time>2018-02-07T13:21:12Z</time>
      </trkpt>
      <trkpt lat="45.66079" lon="6.65636">
        <ele>2292.4</ele>
        <time>2018-02-07T13:21:24Z</time>
      </trkpt>
      <trkpt lat="45.66082" lon="6.65647">
        <ele>2293.36</ele>
        <time>2018-02-07T13:21:38Z</time>
      </trkpt>
      <trkpt lat="45.66083" lon="6.65661">
        <ele>2295.28</ele>
        <time>2018-02-07T13:21:53Z</time>
      </trkpt>
      <trkpt lat="45.66075" lon="6.65673">
        <ele>2296.73</ele>
        <time>2018-02-07T13:22:11Z</time>
      </trkpt>
      <trkpt lat="45.66067" lon="6.65682">
        <ele>2298.17</ele>
        <time>2018-02-07T13:22:29Z</time>
      </trkpt>
      <trkpt lat="45.66064" lon="6.65688">
        <ele>2299.13</ele>
        <time>2018-02-07T13:22:44Z</time>
      </trkpt>
      <trkpt lat="45.66069" lon="6.6569">
        <ele>2301.53</ele>
        <time>2018-02-07T13:23:00Z</time>
      </trkpt>
      <trkpt lat="45.66076" lon="6.65697">
        <ele>2303.46</ele>
        <time>2018-02-07T13:23:17Z</time>
      </trkpt>
      <trkpt lat="45.66082" lon="6.65702">
        <ele>2304.9</ele>
        <time>2018-02-07T13:23:29Z</time>
      </trkpt>
      <trkpt lat="45.66086" lon="6.65711">
        <ele>2306.82</ele>
        <time>2018-02-07T13:23:43Z</time>
      </trkpt>
      <trkpt lat="45.66088" lon="6.65719">
        <ele>2308.26</ele>
        <time>2018-02-07T13:23:55Z</time>
      </trkpt>
      <trkpt lat="45.66092" lon="6.65726">
        <ele>2310.67</ele>
        <time>2018-02-07T13:24:08Z</time>
      </trkpt>
      <trkpt lat="45.66094" lon="6.65733">
        <ele>2312.11</ele>
        <time>2018-02-07T13:24:21Z</time>
      </trkpt>
      <trkpt lat="45.66096" lon="6.65742">
        <ele>2314.03</ele>
        <time>2018-02-07T13:24:34Z</time>
      </trkpt>
      <trkpt lat="45.66093" lon="6.65751">
        <ele>2315.95</ele>
        <time>2018-02-07T13:24:49Z</time>
      </trkpt>
      <trkpt lat="45.6609" lon="6.65761">
        <ele>2317.88</ele>
        <time>2018-02-07T13:25:04Z</time>
      </trkpt>
      <trkpt lat="45.66092" lon="6.65774">
        <ele>2319.32</ele>
        <time>2018-02-07T13:25:20Z</time>
      </trkpt>
      <trkpt lat="45.66095" lon="6.65785">
        <ele>2321.24</ele>
        <time>2018-02-07T13:25:35Z</time>
      </trkpt>
      <trkpt lat="45.66097" lon="6.65796">
        <ele>2323.16</ele>
        <time>2018-02-07T13:25:51Z</time>
      </trkpt>
      <trkpt lat="45.66099" lon="6.65806">
        <ele>2324.61</ele>
        <time>2018-02-07T13:26:03Z</time>
      </trkpt>
      <trkpt lat="45.661" lon="6.65816">
        <ele>2326.05</ele>
        <time>2018-02-07T13:26:18Z</time>
      </trkpt>
      <trkpt lat="45.66103" lon="6.65825">
        <ele>2327.97</ele>
        <time>2018-02-07T13:26:32Z</time>
      </trkpt>
      <trkpt lat="45.66102" lon="6.65833">
        <ele>2329.41</ele>
        <time>2018-02-07T13:26:46Z</time>
      </trkpt>
      <trkpt lat="45.66105" lon="6.65845">
        <ele>2331.33</ele>
        <time>2018-02-07T13:27:01Z</time>
      </trkpt>
      <trkpt lat="45.66108" lon="6.65856">
        <ele>2332.78</ele>
        <time>2018-02-07T13:27:14Z</time>
      </trkpt>
      <trkpt lat="45.66106" lon="6.65867">
        <ele>2334.22</ele>
        <time>2018-02-07T13:27:27Z</time>
      </trkpt>
      <trkpt lat="45.66104" lon="6.65865">
        <ele>2334.7</ele>
        <time>2018-02-07T13:27:31Z</time>
      </trkpt>
      <trkpt lat="45.66097" lon="6.65869">
        <ele>2336.62</ele>
        <time>2018-02-07T13:27:45Z</time>
      </trkpt>
      <trkpt lat="45.66088" lon="6.65869">
        <ele>2337.58</ele>
        <time>2018-02-07T13:27:58Z</time>
      </trkpt>
      <trkpt lat="45.66079" lon="6.65871">
        <ele>2339.51</ele>
        <time>2018-02-07T13:28:14Z</time>
      </trkpt>
      <trkpt lat="45.6607" lon="6.65877">
        <ele>2341.43</ele>
        <time>2018-02-07T13:28:32Z</time>
      </trkpt>
      <trkpt lat="45.66069" lon="6.65884">
        <ele>2342.87</ele>
        <time>2018-02-07T13:28:45Z</time>
      </trkpt>
      <trkpt lat="45.66064" lon="6.65891">
        <ele>2345.27</ele>
        <time>2018-02-07T13:29:01Z</time>
      </trkpt>
      <trkpt lat="45.66055" lon="6.65891">
        <ele>2346.72</ele>
        <time>2018-02-07T13:29:17Z</time>
      </trkpt>
      <trkpt lat="45.66046" lon="6.65893">
        <ele>2349.12</ele>
        <time>2018-02-07T13:29:34Z</time>
      </trkpt>
      <trkpt lat="45.66043" lon="6.65894">
        <ele>2350.56</ele>
        <time>2018-02-07T13:29:47Z</time>
      </trkpt>
      <trkpt lat="45.66037" lon="6.65895">
        <ele>2352</ele>
        <time>2018-02-07T13:30:00Z</time>
      </trkpt>
      <trkpt lat="45.6603" lon="6.65895">
        <ele>2353.44</ele>
        <time>2018-02-07T13:30:12Z</time>
      </trkpt>
      <trkpt lat="45.66029" lon="6.65901">
        <ele>2355.37</ele>
        <time>2018-02-07T13:30:22Z</time>
      </trkpt>
      <trkpt lat="45.66026" lon="6.65898">
        <ele>2355.37</ele>
        <time>2018-02-07T13:30:41Z</time>
      </trkpt>
      <trkpt lat="45.66026" lon="6.65898">
        <ele>2353.93</ele>
        <time>2018-02-07T13:30:42Z</time>
      </trkpt>
      <trkpt lat="45.66028" lon="6.65894">
        <ele>2354.41</ele>
        <time>2018-02-07T13:31:05Z</time>
      </trkpt>
      <trkpt lat="45.66026" lon="6.65898">
        <ele>2353.93</ele>
        <time>2018-02-07T13:31:28Z</time>
      </trkpt>
      <trkpt lat="45.66018" lon="6.659">
        <ele>2354.41</ele>
        <time>2018-02-07T13:31:46Z</time>
      </trkpt>
      <trkpt lat="45.6602" lon="6.659">
        <ele>2355.85</ele>
        <time>2018-02-07T13:31:55Z</time>
      </trkpt>
      <trkpt lat="45.66027" lon="6.65898">
        <ele>2355.37</ele>
        <time>2018-02-07T13:32:15Z</time>
      </trkpt>
      <trkpt lat="45.66032" lon="6.65901">
        <ele>2355.85</ele>
        <time>2018-02-07T13:32:34Z</time>
      </trkpt>
      <trkpt lat="45.66036" lon="6.65918">
        <ele>2358.25</ele>
        <time>2018-02-07T13:32:50Z</time>
      </trkpt>
      <trkpt lat="45.6604" lon="6.65927">
        <ele>2360.65</ele>
        <time>2018-02-07T13:33:06Z</time>
      </trkpt>
      <trkpt lat="45.66043" lon="6.65934">
        <ele>2362.1</ele>
        <time>2018-02-07T13:33:19Z</time>
      </trkpt>
      <trkpt lat="45.66043" lon="6.65943">
        <ele>2363.54</ele>
        <time>2018-02-07T13:33:32Z</time>
      </trkpt>
      <trkpt lat="45.66044" lon="6.65948">
        <ele>2364.98</ele>
        <time>2018-02-07T13:33:43Z</time>
      </trkpt>
      <trkpt lat="45.66046" lon="6.65957">
        <ele>2366.42</ele>
        <time>2018-02-07T13:33:55Z</time>
      </trkpt>
      <trkpt lat="45.66049" lon="6.65964">
        <ele>2368.35</ele>
        <time>2018-02-07T13:34:08Z</time>
      </trkpt>
      <trkpt lat="45.66045" lon="6.65968">
        <ele>2370.27</ele>
        <time>2018-02-07T13:34:20Z</time>
      </trkpt>
      <trkpt lat="45.66038" lon="6.65968">
        <ele>2371.71</ele>
        <time>2018-02-07T13:34:33Z</time>
      </trkpt>
      <trkpt lat="45.66031" lon="6.65971">
        <ele>2372.67</ele>
        <time>2018-02-07T13:34:47Z</time>
      </trkpt>
      <trkpt lat="45.66028" lon="6.65973">
        <ele>2374.11</ele>
        <time>2018-02-07T13:35:00Z</time>
      </trkpt>
      <trkpt lat="45.66024" lon="6.65974">
        <ele>2376.04</ele>
        <time>2018-02-07T13:35:13Z</time>
      </trkpt>
      <trkpt lat="45.66017" lon="6.65972">
        <ele>2377.48</ele>
        <time>2018-02-07T13:35:26Z</time>
      </trkpt>
      <trkpt lat="45.66013" lon="6.65972">
        <ele>2378.44</ele>
        <time>2018-02-07T13:35:38Z</time>
      </trkpt>
      <trkpt lat="45.66006" lon="6.65973">
        <ele>2380.36</ele>
        <time>2018-02-07T13:35:51Z</time>
      </trkpt>
      <trkpt lat="45.66001" lon="6.65975">
        <ele>2382.76</ele>
        <time>2018-02-07T13:36:06Z</time>
      </trkpt>
      <trkpt lat="45.66003" lon="6.65981">
        <ele>2384.21</ele>
        <time>2018-02-07T13:36:17Z</time>
      </trkpt>
      <trkpt lat="45.66006" lon="6.65985">
        <ele>2386.13</ele>
        <time>2018-02-07T13:36:33Z</time>
      </trkpt>
      <trkpt lat="45.66006" lon="6.65996">
        <ele>2388.53</ele>
        <time>2018-02-07T13:36:49Z</time>
      </trkpt>
      <trkpt lat="45.66008" lon="6.66005">
        <ele>2389.97</ele>
        <time>2018-02-07T13:37:02Z</time>
      </trkpt>
      <trkpt lat="45.66009" lon="6.66015">
        <ele>2392.38</ele>
        <time>2018-02-07T13:37:17Z</time>
      </trkpt>
      <trkpt lat="45.66012" lon="6.66024">
        <ele>2393.82</ele>
        <time>2018-02-07T13:37:31Z</time>
      </trkpt>
      <trkpt lat="45.66016" lon="6.66032">
        <ele>2395.74</ele>
        <time>2018-02-07T13:37:44Z</time>
      </trkpt>
      <trkpt lat="45.66017" lon="6.6604">
        <ele>2397.67</ele>
        <time>2018-02-07T13:37:57Z</time>
      </trkpt>
      <trkpt lat="45.66021" lon="6.66045">
        <ele>2399.11</ele>
        <time>2018-02-07T13:38:11Z</time>
      </trkpt>
      <trkpt lat="45.66024" lon="6.6605">
        <ele>2401.03</ele>
        <time>2018-02-07T13:38:24Z</time>
      </trkpt>
      <trkpt lat="45.66028" lon="6.66057">
        <ele>2402.47</ele>
        <time>2018-02-07T13:38:36Z</time>
      </trkpt>
      <trkpt lat="45.66031" lon="6.66065">
        <ele>2404.39</ele>
        <time>2018-02-07T13:38:50Z</time>
      </trkpt>
      <trkpt lat="45.6603" lon="6.66073">
        <ele>2405.84</ele>
        <time>2018-02-07T13:39:04Z</time>
      </trkpt>
      <trkpt lat="45.66024" lon="6.66073">
        <ele>2407.28</ele>
        <time>2018-02-07T13:39:16Z</time>
      </trkpt>
      <trkpt lat="45.66017" lon="6.66072">
        <ele>2408.72</ele>
        <time>2018-02-07T13:39:31Z</time>
      </trkpt>
      <trkpt lat="45.6601" lon="6.66075">
        <ele>2410.64</ele>
        <time>2018-02-07T13:39:45Z</time>
      </trkpt>
      <trkpt lat="45.66005" lon="6.66077">
        <ele>2411.6</ele>
        <time>2018-02-07T13:39:57Z</time>
      </trkpt>
      <trkpt lat="45.66002" lon="6.6608">
        <ele>2413.05</ele>
        <time>2018-02-07T13:40:11Z</time>
      </trkpt>
      <trkpt lat="45.65997" lon="6.66077">
        <ele>2414.49</ele>
        <time>2018-02-07T13:40:20Z</time>
      </trkpt>
      <trkpt lat="45.65991" lon="6.66075">
        <ele>2416.41</ele>
        <time>2018-02-07T13:40:32Z</time>
      </trkpt>
      <trkpt lat="45.65985" lon="6.66073">
        <ele>2418.81</ele>
        <time>2018-02-07T13:40:47Z</time>
      </trkpt>
      <trkpt lat="45.65978" lon="6.66074">
        <ele>2419.78</ele>
        <time>2018-02-07T13:40:58Z</time>
      </trkpt>
      <trkpt lat="45.65972" lon="6.66074">
        <ele>2421.22</ele>
        <time>2018-02-07T13:41:11Z</time>
      </trkpt>
      <trkpt lat="45.65968" lon="6.66074">
        <ele>2422.66</ele>
        <time>2018-02-07T13:41:25Z</time>
      </trkpt>
      <trkpt lat="45.65962" lon="6.66074">
        <ele>2424.58</ele>
        <time>2018-02-07T13:41:39Z</time>
      </trkpt>
      <trkpt lat="45.6596" lon="6.66074">
        <ele>2425.54</ele>
        <time>2018-02-07T13:41:50Z</time>
      </trkpt>
      <trkpt lat="45.65963" lon="6.6608">
        <ele>2426.99</ele>
        <time>2018-02-07T13:42:06Z</time>
      </trkpt>
      <trkpt lat="45.65965" lon="6.66089">
        <ele>2429.39</ele>
        <time>2018-02-07T13:42:20Z</time>
      </trkpt>
      <trkpt lat="45.6597" lon="6.66096">
        <ele>2430.83</ele>
        <time>2018-02-07T13:42:35Z</time>
      </trkpt>
      <trkpt lat="45.65973" lon="6.66104">
        <ele>2431.79</ele>
        <time>2018-02-07T13:42:49Z</time>
      </trkpt>
      <trkpt lat="45.65976" lon="6.6611">
        <ele>2434.2</ele>
        <time>2018-02-07T13:43:02Z</time>
      </trkpt>
      <trkpt lat="45.65979" lon="6.66118">
        <ele>2435.64</ele>
        <time>2018-02-07T13:43:16Z</time>
      </trkpt>
      <trkpt lat="45.65982" lon="6.66125">
        <ele>2437.56</ele>
        <time>2018-02-07T13:43:32Z</time>
      </trkpt>
      <trkpt lat="45.65984" lon="6.66131">
        <ele>2439.48</ele>
        <time>2018-02-07T13:43:45Z</time>
      </trkpt>
      <trkpt lat="45.65986" lon="6.6614">
        <ele>2440.92</ele>
        <time>2018-02-07T13:43:58Z</time>
      </trkpt>
      <trkpt lat="45.65989" lon="6.66147">
        <ele>2442.37</ele>
        <time>2018-02-07T13:44:12Z</time>
      </trkpt>
      <trkpt lat="45.65992" lon="6.66154">
        <ele>2444.29</ele>
        <time>2018-02-07T13:44:27Z</time>
      </trkpt>
      <trkpt lat="45.65993" lon="6.6616">
        <ele>2446.21</ele>
        <time>2018-02-07T13:44:41Z</time>
      </trkpt>
      <trkpt lat="45.65995" lon="6.66165">
        <ele>2448.13</ele>
        <time>2018-02-07T13:44:55Z</time>
      </trkpt>
      <trkpt lat="45.65999" lon="6.6617">
        <ele>2449.1</ele>
        <time>2018-02-07T13:45:08Z</time>
      </trkpt>
      <trkpt lat="45.66001" lon="6.66176">
        <ele>2451.02</ele>
        <time>2018-02-07T13:45:21Z</time>
      </trkpt>
      <trkpt lat="45.66005" lon="6.66183">
        <ele>2452.46</ele>
        <time>2018-02-07T13:45:36Z</time>
      </trkpt>
      <trkpt lat="45.66009" lon="6.66189">
        <ele>2454.38</ele>
        <time>2018-02-07T13:45:51Z</time>
      </trkpt>
      <trkpt lat="45.66011" lon="6.66194">
        <ele>2455.82</ele>
        <time>2018-02-07T13:46:04Z</time>
      </trkpt>
      <trkpt lat="45.66015" lon="6.66202">
        <ele>2458.23</ele>
        <time>2018-02-07T13:46:19Z</time>
      </trkpt>
      <trkpt lat="45.66019" lon="6.66207">
        <ele>2460.15</ele>
        <time>2018-02-07T13:46:34Z</time>
      </trkpt>
      <trkpt lat="45.66019" lon="6.66212">
        <ele>2460.63</ele>
        <time>2018-02-07T13:46:48Z</time>
      </trkpt>
      <trkpt lat="45.66011" lon="6.66211">
        <ele>2462.55</ele>
        <time>2018-02-07T13:47:03Z</time>
      </trkpt>
      <trkpt lat="45.66007" lon="6.66211">
        <ele>2464</ele>
        <time>2018-02-07T13:47:16Z</time>
      </trkpt>
      <trkpt lat="45.66004" lon="6.66212">
        <ele>2464.96</ele>
        <time>2018-02-07T13:47:34Z</time>
      </trkpt>
      <trkpt lat="45.65997" lon="6.66212">
        <ele>2466.4</ele>
        <time>2018-02-07T13:47:47Z</time>
      </trkpt>
      <trkpt lat="45.65993" lon="6.66213">
        <ele>2468.32</ele>
        <time>2018-02-07T13:48:01Z</time>
      </trkpt>
      <trkpt lat="45.65992" lon="6.66215">
        <ele>2469.28</ele>
        <time>2018-02-07T13:48:17Z</time>
      </trkpt>
      <trkpt lat="45.65996" lon="6.66221">
        <ele>2470.73</ele>
        <time>2018-02-07T13:48:31Z</time>
      </trkpt>
      <trkpt lat="45.65997" lon="6.66227">
        <ele>2472.65</ele>
        <time>2018-02-07T13:48:44Z</time>
      </trkpt>
      <trkpt lat="45.66" lon="6.66233">
        <ele>2474.09</ele>
        <time>2018-02-07T13:48:57Z</time>
      </trkpt>
      <trkpt lat="45.66003" lon="6.6624">
        <ele>2476.01</ele>
        <time>2018-02-07T13:49:10Z</time>
      </trkpt>
      <trkpt lat="45.65993" lon="6.66245">
        <ele>2476.97</ele>
        <time>2018-02-07T13:49:30Z</time>
      </trkpt>
      <trkpt lat="45.65992" lon="6.66244">
        <ele>2478.42</ele>
        <time>2018-02-07T13:49:43Z</time>
      </trkpt>
      <trkpt lat="45.65991" lon="6.66243">
        <ele>2480.34</ele>
        <time>2018-02-07T13:49:57Z</time>
      </trkpt>
      <trkpt lat="45.65986" lon="6.66243">
        <ele>2481.78</ele>
        <time>2018-02-07T13:50:11Z</time>
      </trkpt>
      <trkpt lat="45.65984" lon="6.66243">
        <ele>2481.78</ele>
        <time>2018-02-07T13:50:25Z</time>
      </trkpt>
      <trkpt lat="45.6598" lon="6.66243">
        <ele>2484.18</ele>
        <time>2018-02-07T13:50:38Z</time>
      </trkpt>
      <trkpt lat="45.65983" lon="6.66242">
        <ele>2484.18</ele>
        <time>2018-02-07T13:50:58Z</time>
      </trkpt>
      <trkpt lat="45.6598" lon="6.66241">
        <ele>2485.15</ele>
        <time>2018-02-07T13:51:14Z</time>
      </trkpt>
      <trkpt lat="45.65978" lon="6.66241">
        <ele>2485.63</ele>
        <time>2018-02-07T13:51:28Z</time>
      </trkpt>
      <trkpt lat="45.65981" lon="6.66243">
        <ele>2486.11</ele>
        <time>2018-02-07T13:51:44Z</time>
      </trkpt>
      <trkpt lat="45.65982" lon="6.66251">
        <ele>2488.03</ele>
        <time>2018-02-07T13:51:57Z</time>
      </trkpt>
      <trkpt lat="45.65985" lon="6.66256">
        <ele>2489.47</ele>
        <time>2018-02-07T13:52:08Z</time>
      </trkpt>
      <trkpt lat="45.65985" lon="6.66261">
        <ele>2490.43</ele>
        <time>2018-02-07T13:52:21Z</time>
      </trkpt>
      <trkpt lat="45.65986" lon="6.66263">
        <ele>2491.87</ele>
        <time>2018-02-07T13:52:42Z</time>
      </trkpt>
      <trkpt lat="45.65984" lon="6.66265">
        <ele>2491.87</ele>
        <time>2018-02-07T13:52:56Z</time>
      </trkpt>
      <trkpt lat="45.65977" lon="6.66265">
        <ele>2493.32</ele>
        <time>2018-02-07T13:53:09Z</time>
      </trkpt>
      <trkpt lat="45.65975" lon="6.66266">
        <ele>2495.24</ele>
        <time>2018-02-07T13:53:22Z</time>
      </trkpt>
      <trkpt lat="45.65973" lon="6.66267">
        <ele>2495.72</ele>
        <time>2018-02-07T13:53:42Z</time>
      </trkpt>
      <trkpt lat="45.65975" lon="6.66267">
        <ele>2496.68</ele>
        <time>2018-02-07T13:53:54Z</time>
      </trkpt>
      <trkpt lat="45.65976" lon="6.66273">
        <ele>2498.12</ele>
        <time>2018-02-07T13:54:06Z</time>
      </trkpt>
      <trkpt lat="45.65978" lon="6.66279">
        <ele>2500.53</ele>
        <time>2018-02-07T13:54:20Z</time>
      </trkpt>
      <trkpt lat="45.65981" lon="6.66284">
        <ele>2501.49</ele>
        <time>2018-02-07T13:54:36Z</time>
      </trkpt>
      <trkpt lat="45.65983" lon="6.66289">
        <ele>2502.93</ele>
        <time>2018-02-07T13:54:48Z</time>
      </trkpt>
      <trkpt lat="45.65985" lon="6.66296">
        <ele>2504.85</ele>
        <time>2018-02-07T13:55:01Z</time>
      </trkpt>
      <trkpt lat="45.6599" lon="6.663">
        <ele>2505.81</ele>
        <time>2018-02-07T13:55:15Z</time>
      </trkpt>
      <trkpt lat="45.65989" lon="6.66301">
        <ele>2506.29</ele>
        <time>2018-02-07T13:55:36Z</time>
      </trkpt>
      <trkpt lat="45.65992" lon="6.66302">
        <ele>2506.77</ele>
        <time>2018-02-07T13:55:50Z</time>
      </trkpt>
      <trkpt lat="45.6599" lon="6.66304">
        <ele>2507.74</ele>
        <time>2018-02-07T13:56:02Z</time>
      </trkpt>
      <trkpt lat="45.65985" lon="6.66303">
        <ele>2508.7</ele>
        <time>2018-02-07T13:56:14Z</time>
      </trkpt>
      <trkpt lat="45.65979" lon="6.66302">
        <ele>2510.14</ele>
        <time>2018-02-07T13:56:25Z</time>
      </trkpt>
      <trkpt lat="45.65974" lon="6.66301">
        <ele>2511.1</ele>
        <time>2018-02-07T13:56:37Z</time>
      </trkpt>
      <trkpt lat="45.65975" lon="6.66305">
        <ele>2511.58</ele>
        <time>2018-02-07T13:56:56Z</time>
      </trkpt>
      <trkpt lat="45.65981" lon="6.66311">
        <ele>2513.02</ele>
        <time>2018-02-07T13:57:09Z</time>
      </trkpt>
      <trkpt lat="45.65987" lon="6.66318">
        <ele>2514.47</ele>
        <time>2018-02-07T13:57:25Z</time>
      </trkpt>
      <trkpt lat="45.65988" lon="6.66321">
        <ele>2515.43</ele>
        <time>2018-02-07T13:57:38Z</time>
      </trkpt>
      <trkpt lat="45.65984" lon="6.66322">
        <ele>2516.87</ele>
        <time>2018-02-07T13:57:52Z</time>
      </trkpt>
      <trkpt lat="45.65977" lon="6.66321">
        <ele>2517.83</ele>
        <time>2018-02-07T13:58:06Z</time>
      </trkpt>
      <trkpt lat="45.65973" lon="6.6632">
        <ele>2519.75</ele>
        <time>2018-02-07T13:58:20Z</time>
      </trkpt>
      <trkpt lat="45.65972" lon="6.66319">
        <ele>2520.23</ele>
        <time>2018-02-07T13:58:36Z</time>
      </trkpt>
      <trkpt lat="45.65977" lon="6.66327">
        <ele>2521.19</ele>
        <time>2018-02-07T13:58:51Z</time>
      </trkpt>
      <trkpt lat="45.65981" lon="6.66332">
        <ele>2522.64</ele>
        <time>2018-02-07T13:59:04Z</time>
      </trkpt>
      <trkpt lat="45.65985" lon="6.66335">
        <ele>2524.56</ele>
        <time>2018-02-07T13:59:17Z</time>
      </trkpt>
      <trkpt lat="45.6599" lon="6.6634">
        <ele>2526</ele>
        <time>2018-02-07T13:59:30Z</time>
      </trkpt>
      <trkpt lat="45.65994" lon="6.66343">
        <ele>2527.44</ele>
        <time>2018-02-07T13:59:42Z</time>
      </trkpt>
      <trkpt lat="45.65996" lon="6.66346">
        <ele>2528.4</ele>
        <time>2018-02-07T13:59:52Z</time>
      </trkpt>
      <trkpt lat="45.65997" lon="6.66348">
        <ele>2528.89</ele>
        <time>2018-02-07T14:00:17Z</time>
      </trkpt>
      <trkpt lat="45.66" lon="6.66352">
        <ele>2529.85</ele>
        <time>2018-02-07T14:00:30Z</time>
      </trkpt>
      <trkpt lat="45.65994" lon="6.66354">
        <ele>2530.81</ele>
        <time>2018-02-07T14:00:45Z</time>
      </trkpt>
      <trkpt lat="45.65988" lon="6.66356">
        <ele>2531.77</ele>
        <time>2018-02-07T14:00:59Z</time>
      </trkpt>
      <trkpt lat="45.65982" lon="6.66357">
        <ele>2533.69</ele>
        <time>2018-02-07T14:01:14Z</time>
      </trkpt>
      <trkpt lat="45.6598" lon="6.66357">
        <ele>2534.65</ele>
        <time>2018-02-07T14:01:27Z</time>
      </trkpt>
      <trkpt lat="45.65984" lon="6.66358">
        <ele>2535.13</ele>
        <time>2018-02-07T14:01:43Z</time>
      </trkpt>
      <trkpt lat="45.65989" lon="6.66364">
        <ele>2536.58</ele>
        <time>2018-02-07T14:01:56Z</time>
      </trkpt>
      <trkpt lat="45.65994" lon="6.66367">
        <ele>2537.54</ele>
        <time>2018-02-07T14:02:09Z</time>
      </trkpt>
      <trkpt lat="45.66" lon="6.66372">
        <ele>2538.98</ele>
        <time>2018-02-07T14:02:25Z</time>
      </trkpt>
      <trkpt lat="45.65999" lon="6.66377">
        <ele>2540.42</ele>
        <time>2018-02-07T14:02:38Z</time>
      </trkpt>
      <trkpt lat="45.6599" lon="6.66376">
        <ele>2541.86</ele>
        <time>2018-02-07T14:02:54Z</time>
      </trkpt>
      <trkpt lat="45.65985" lon="6.66376">
        <ele>2542.82</ele>
        <time>2018-02-07T14:03:07Z</time>
      </trkpt>
      <trkpt lat="45.65981" lon="6.66377">
        <ele>2543.79</ele>
        <time>2018-02-07T14:03:24Z</time>
      </trkpt>
      <trkpt lat="45.65986" lon="6.66381">
        <ele>2544.75</ele>
        <time>2018-02-07T14:03:37Z</time>
      </trkpt>
      <trkpt lat="45.65992" lon="6.66384">
        <ele>2546.19</ele>
        <time>2018-02-07T14:03:49Z</time>
      </trkpt>
      <trkpt lat="45.65996" lon="6.66388">
        <ele>2547.15</ele>
        <time>2018-02-07T14:04:02Z</time>
      </trkpt>
      <trkpt lat="45.66" lon="6.66392">
        <ele>2548.59</ele>
        <time>2018-02-07T14:04:13Z</time>
      </trkpt>
      <trkpt lat="45.66005" lon="6.66396">
        <ele>2550.03</ele>
        <time>2018-02-07T14:04:25Z</time>
      </trkpt>
      <trkpt lat="45.66002" lon="6.66396">
        <ele>2550.03</ele>
        <time>2018-02-07T14:04:42Z</time>
      </trkpt>
      <trkpt lat="45.66" lon="6.66399">
        <ele>2550.03</ele>
        <time>2018-02-07T14:05:06Z</time>
      </trkpt>
      <trkpt lat="45.65996" lon="6.66398">
        <ele>2550.03</ele>
        <time>2018-02-07T14:05:20Z</time>
      </trkpt>
      <trkpt lat="45.6599" lon="6.66398">
        <ele>2551</ele>
        <time>2018-02-07T14:05:33Z</time>
      </trkpt>
      <trkpt lat="45.65983" lon="6.66397">
        <ele>2552.92</ele>
        <time>2018-02-07T14:05:47Z</time>
      </trkpt>
      <trkpt lat="45.65977" lon="6.66398">
        <ele>2554.36</ele>
        <time>2018-02-07T14:06:01Z</time>
      </trkpt>
      <trkpt lat="45.65982" lon="6.66398">
        <ele>2554.84</ele>
        <time>2018-02-07T14:06:20Z</time>
      </trkpt>
      <trkpt lat="45.65988" lon="6.66403">
        <ele>2556.28</ele>
        <time>2018-02-07T14:06:34Z</time>
      </trkpt>
      <trkpt lat="45.65992" lon="6.66406">
        <ele>2557.24</ele>
        <time>2018-02-07T14:06:45Z</time>
      </trkpt>
      <trkpt lat="45.65996" lon="6.66411">
        <ele>2558.69</ele>
        <time>2018-02-07T14:06:58Z</time>
      </trkpt>
      <trkpt lat="45.66002" lon="6.66414">
        <ele>2560.13</ele>
        <time>2018-02-07T14:07:11Z</time>
      </trkpt>
      <trkpt lat="45.66002" lon="6.66413">
        <ele>2560.61</ele>
        <time>2018-02-07T14:07:29Z</time>
      </trkpt>
      <trkpt lat="45.66" lon="6.66418">
        <ele>2561.57</ele>
        <time>2018-02-07T14:07:42Z</time>
      </trkpt>
      <trkpt lat="45.65992" lon="6.6642">
        <ele>2562.53</ele>
        <time>2018-02-07T14:07:59Z</time>
      </trkpt>
      <trkpt lat="45.65989" lon="6.66421">
        <ele>2562.53</ele>
        <time>2018-02-07T14:08:15Z</time>
      </trkpt>
      <trkpt lat="45.65982" lon="6.66421">
        <ele>2563.97</ele>
        <time>2018-02-07T14:08:30Z</time>
      </trkpt>
      <trkpt lat="45.65983" lon="6.6642">
        <ele>2565.42</ele>
        <time>2018-02-07T14:08:43Z</time>
      </trkpt>
      <trkpt lat="45.65989" lon="6.66425">
        <ele>2566.38</ele>
        <time>2018-02-07T14:08:53Z</time>
      </trkpt>
      <trkpt lat="45.65996" lon="6.66427">
        <ele>2567.34</ele>
        <time>2018-02-07T14:09:06Z</time>
      </trkpt>
      <trkpt lat="45.66001" lon="6.66431">
        <ele>2569.26</ele>
        <time>2018-02-07T14:09:18Z</time>
      </trkpt>
      <trkpt lat="45.66004" lon="6.66433">
        <ele>2570.22</ele>
        <time>2018-02-07T14:09:30Z</time>
      </trkpt>
      <trkpt lat="45.66008" lon="6.66435">
        <ele>2571.18</ele>
        <time>2018-02-07T14:09:43Z</time>
      </trkpt>
      <trkpt lat="45.66006" lon="6.66441">
        <ele>2572.14</ele>
        <time>2018-02-07T14:09:56Z</time>
      </trkpt>
      <trkpt lat="45.65999" lon="6.66443">
        <ele>2572.63</ele>
        <time>2018-02-07T14:10:08Z</time>
      </trkpt>
      <trkpt lat="45.65992" lon="6.66444">
        <ele>2574.07</ele>
        <time>2018-02-07T14:10:22Z</time>
      </trkpt>
      <trkpt lat="45.65986" lon="6.66443">
        <ele>2575.03</ele>
        <time>2018-02-07T14:10:34Z</time>
      </trkpt>
      <trkpt lat="45.65983" lon="6.66442">
        <ele>2575.99</ele>
        <time>2018-02-07T14:10:46Z</time>
      </trkpt>
      <trkpt lat="45.65987" lon="6.66441">
        <ele>2576.47</ele>
        <time>2018-02-07T14:11:02Z</time>
      </trkpt>
      <trkpt lat="45.65992" lon="6.66446">
        <ele>2577.91</ele>
        <time>2018-02-07T14:11:15Z</time>
      </trkpt>
      <trkpt lat="45.65997" lon="6.66451">
        <ele>2579.84</ele>
        <time>2018-02-07T14:11:27Z</time>
      </trkpt>
      <trkpt lat="45.66" lon="6.66454">
        <ele>2581.28</ele>
        <time>2018-02-07T14:11:40Z</time>
      </trkpt>
      <trkpt lat="45.66001" lon="6.66456">
        <ele>2581.76</ele>
        <time>2018-02-07T14:11:51Z</time>
      </trkpt>
      <trkpt lat="45.65994" lon="6.66459">
        <ele>2582.72</ele>
        <time>2018-02-07T14:12:05Z</time>
      </trkpt>
      <trkpt lat="45.65986" lon="6.66458">
        <ele>2584.16</ele>
        <time>2018-02-07T14:12:19Z</time>
      </trkpt>
      <trkpt lat="45.65979" lon="6.66458">
        <ele>2585.6</ele>
        <time>2018-02-07T14:12:33Z</time>
      </trkpt>
      <trkpt lat="45.65983" lon="6.66459">
        <ele>2586.08</ele>
        <time>2018-02-07T14:12:48Z</time>
      </trkpt>
      <trkpt lat="45.65988" lon="6.66462">
        <ele>2587.04</ele>
        <time>2018-02-07T14:12:59Z</time>
      </trkpt>
      <trkpt lat="45.65993" lon="6.66465">
        <ele>2588.49</ele>
        <time>2018-02-07T14:13:10Z</time>
      </trkpt>
      <trkpt lat="45.65998" lon="6.66469">
        <ele>2589.93</ele>
        <time>2018-02-07T14:13:22Z</time>
      </trkpt>
      <trkpt lat="45.66002" lon="6.6647">
        <ele>2590.89</ele>
        <time>2018-02-07T14:13:33Z</time>
      </trkpt>
      <trkpt lat="45.66008" lon="6.66471">
        <ele>2592.33</ele>
        <time>2018-02-07T14:13:46Z</time>
      </trkpt>
      <trkpt lat="45.66013" lon="6.66472">
        <ele>2593.77</ele>
        <time>2018-02-07T14:13:57Z</time>
      </trkpt>
      <trkpt lat="45.66012" lon="6.66475">
        <ele>2594.25</ele>
        <time>2018-02-07T14:14:07Z</time>
      </trkpt>
      <trkpt lat="45.66001" lon="6.66479">
        <ele>2594.74</ele>
        <time>2018-02-07T14:14:23Z</time>
      </trkpt>
      <trkpt lat="45.65994" lon="6.66481">
        <ele>2595.7</ele>
        <time>2018-02-07T14:14:36Z</time>
      </trkpt>
      <trkpt lat="45.65988" lon="6.66483">
        <ele>2597.62</ele>
        <time>2018-02-07T14:14:49Z</time>
      </trkpt>
      <trkpt lat="45.65983" lon="6.66484">
        <ele>2599.06</ele>
        <time>2018-02-07T14:15:01Z</time>
      </trkpt>
      <trkpt lat="45.65983" lon="6.66485">
        <ele>2599.54</ele>
        <time>2018-02-07T14:15:13Z</time>
      </trkpt>
      <trkpt lat="45.65987" lon="6.66487">
        <ele>2600.5</ele>
        <time>2018-02-07T14:15:34Z</time>
      </trkpt>
      <trkpt lat="45.65991" lon="6.6649">
        <ele>2601.95</ele>
        <time>2018-02-07T14:15:47Z</time>
      </trkpt>
      <trkpt lat="45.65995" lon="6.66494">
        <ele>2603.39</ele>
        <time>2018-02-07T14:15:59Z</time>
      </trkpt>
      <trkpt lat="45.65999" lon="6.66495">
        <ele>2603.87</ele>
        <time>2018-02-07T14:16:10Z</time>
      </trkpt>
      <trkpt lat="45.66004" lon="6.66498">
        <ele>2606.27</ele>
        <time>2018-02-07T14:16:22Z</time>
      </trkpt>
      <trkpt lat="45.66008" lon="6.66501">
        <ele>2607.23</ele>
        <time>2018-02-07T14:16:34Z</time>
      </trkpt>
      <trkpt lat="45.66013" lon="6.66505">
        <ele>2608.19</ele>
        <time>2018-02-07T14:16:46Z</time>
      </trkpt>
      <trkpt lat="45.66018" lon="6.66502">
        <ele>2609.64</ele>
        <time>2018-02-07T14:17:00Z</time>
      </trkpt>
      <trkpt lat="45.66023" lon="6.66502">
        <ele>2611.08</ele>
        <time>2018-02-07T14:17:12Z</time>
      </trkpt>
      <trkpt lat="45.66025" lon="6.66496">
        <ele>2611.56</ele>
        <time>2018-02-07T14:17:33Z</time>
      </trkpt>
      <trkpt lat="45.6603" lon="6.66499">
        <ele>2613</ele>
        <time>2018-02-07T14:17:47Z</time>
      </trkpt>
      <trkpt lat="45.66031" lon="6.66503">
        <ele>2613.48</ele>
        <time>2018-02-07T14:18:03Z</time>
      </trkpt>
      <trkpt lat="45.66022" lon="6.66507">
        <ele>2614.44</ele>
        <time>2018-02-07T14:18:18Z</time>
      </trkpt>
      <trkpt lat="45.66019" lon="6.6651">
        <ele>2615.4</ele>
        <time>2018-02-07T14:18:30Z</time>
      </trkpt>
      <trkpt lat="45.66015" lon="6.66513">
        <ele>2616.37</ele>
        <time>2018-02-07T14:18:47Z</time>
      </trkpt>
      <trkpt lat="45.66023" lon="6.66513">
        <ele>2616.85</ele>
        <time>2018-02-07T14:19:01Z</time>
      </trkpt>
      <trkpt lat="45.66028" lon="6.66514">
        <ele>2617.81</ele>
        <time>2018-02-07T14:19:16Z</time>
      </trkpt>
      <trkpt lat="45.66027" lon="6.66516">
        <ele>2618.77</ele>
        <time>2018-02-07T14:19:30Z</time>
      </trkpt>
      <trkpt lat="45.66023" lon="6.66518">
        <ele>2619.25</ele>
        <time>2018-02-07T14:19:44Z</time>
      </trkpt>
      <trkpt lat="45.66019" lon="6.66522">
        <ele>2620.69</ele>
        <time>2018-02-07T14:20:06Z</time>
      </trkpt>
      <trkpt lat="45.66016" lon="6.66526">
        <ele>2622.13</ele>
        <time>2018-02-07T14:20:29Z</time>
      </trkpt>
      <trkpt lat="45.66021" lon="6.66522">
        <ele>2622.13</ele>
        <time>2018-02-07T14:20:45Z</time>
      </trkpt>
      <trkpt lat="45.66026" lon="6.66523">
        <ele>2623.09</ele>
        <time>2018-02-07T14:20:57Z</time>
      </trkpt>
      <trkpt lat="45.66034" lon="6.66522">
        <ele>2625.02</ele>
        <time>2018-02-07T14:21:10Z</time>
      </trkpt>
      <trkpt lat="45.66034" lon="6.66525">
        <ele>2625.02</ele>
        <time>2018-02-07T14:21:23Z</time>
      </trkpt>
      <trkpt lat="45.66032" lon="6.66529">
        <ele>2625.5</ele>
        <time>2018-02-07T14:21:39Z</time>
      </trkpt>
      <trkpt lat="45.66025" lon="6.6653">
        <ele>2626.94</ele>
        <time>2018-02-07T14:21:52Z</time>
      </trkpt>
      <trkpt lat="45.66028" lon="6.66531">
        <ele>2626.94</ele>
        <time>2018-02-07T14:22:05Z</time>
      </trkpt>
      <trkpt lat="45.66035" lon="6.66534">
        <ele>2628.86</ele>
        <time>2018-02-07T14:22:18Z</time>
      </trkpt>
      <trkpt lat="45.66041" lon="6.66536">
        <ele>2630.3</ele>
        <time>2018-02-07T14:22:30Z</time>
      </trkpt>
      <trkpt lat="45.66045" lon="6.66538">
        <ele>2631.27</ele>
        <time>2018-02-07T14:22:45Z</time>
      </trkpt>
      <trkpt lat="45.66048" lon="6.66539">
        <ele>2631.75</ele>
        <time>2018-02-07T14:23:03Z</time>
      </trkpt>
      <trkpt lat="45.66049" lon="6.66541">
        <ele>2632.71</ele>
        <time>2018-02-07T14:23:17Z</time>
      </trkpt>
      <trkpt lat="45.66043" lon="6.66545">
        <ele>2634.15</ele>
        <time>2018-02-07T14:23:31Z</time>
      </trkpt>
      <trkpt lat="45.6604" lon="6.66544">
        <ele>2635.11</ele>
        <time>2018-02-07T14:23:49Z</time>
      </trkpt>
      <trkpt lat="45.66038" lon="6.66547">
        <ele>2635.59</ele>
        <time>2018-02-07T14:24:07Z</time>
      </trkpt>
      <trkpt lat="45.66039" lon="6.66547">
        <ele>2636.55</ele>
        <time>2018-02-07T14:24:22Z</time>
      </trkpt>
      <trkpt lat="45.66044" lon="6.6655">
        <ele>2637.51</ele>
        <time>2018-02-07T14:24:34Z</time>
      </trkpt>
      <trkpt lat="45.66049" lon="6.66551">
        <ele>2638.96</ele>
        <time>2018-02-07T14:24:45Z</time>
      </trkpt>
      <trkpt lat="45.66054" lon="6.66553">
        <ele>2640.88</ele>
        <time>2018-02-07T14:24:58Z</time>
      </trkpt>
      <trkpt lat="45.66056" lon="6.66555">
        <ele>2641.36</ele>
        <time>2018-02-07T14:25:11Z</time>
      </trkpt>
      <trkpt lat="45.66059" lon="6.66554">
        <ele>2642.32</ele>
        <time>2018-02-07T14:25:23Z</time>
      </trkpt>
      <trkpt lat="45.66066" lon="6.66556">
        <ele>2644.72</ele>
        <time>2018-02-07T14:25:38Z</time>
      </trkpt>
      <trkpt lat="45.66069" lon="6.66555">
        <ele>2645.21</ele>
        <time>2018-02-07T14:25:51Z</time>
      </trkpt>
      <trkpt lat="45.66071" lon="6.66556">
        <ele>2645.21</ele>
        <time>2018-02-07T14:26:13Z</time>
      </trkpt>
      <trkpt lat="45.66071" lon="6.66556">
        <ele>2646.65</ele>
        <time>2018-02-07T14:26:26Z</time>
      </trkpt>
      <trkpt lat="45.66072" lon="6.66559">
        <ele>2646.65</ele>
        <time>2018-02-07T14:26:40Z</time>
      </trkpt>
      <trkpt lat="45.6607" lon="6.66564">
        <ele>2648.09</ele>
        <time>2018-02-07T14:26:54Z</time>
      </trkpt>
      <trkpt lat="45.66071" lon="6.6656">
        <ele>2648.09</ele>
        <time>2018-02-07T14:27:08Z</time>
      </trkpt>
      <trkpt lat="45.66076" lon="6.66559">
        <ele>2650.01</ele>
        <time>2018-02-07T14:27:22Z</time>
      </trkpt>
      <trkpt lat="45.66077" lon="6.66561">
        <ele>2650.97</ele>
        <time>2018-02-07T14:27:35Z</time>
      </trkpt>
      <trkpt lat="45.66077" lon="6.66563">
        <ele>2650.97</ele>
        <time>2018-02-07T14:27:51Z</time>
      </trkpt>
      <trkpt lat="45.66073" lon="6.6657">
        <ele>2652.42</ele>
        <time>2018-02-07T14:28:05Z</time>
      </trkpt>
      <trkpt lat="45.6607" lon="6.66576">
        <ele>2653.38</ele>
        <time>2018-02-07T14:28:19Z</time>
      </trkpt>
      <trkpt lat="45.66066" lon="6.66579">
        <ele>2654.34</ele>
        <time>2018-02-07T14:28:35Z</time>
      </trkpt>
      <trkpt lat="45.66069" lon="6.66577">
        <ele>2654.82</ele>
        <time>2018-02-07T14:28:47Z</time>
      </trkpt>
      <trkpt lat="45.66072" lon="6.66575">
        <ele>2655.78</ele>
        <time>2018-02-07T14:29:01Z</time>
      </trkpt>
      <trkpt lat="45.66074" lon="6.66575">
        <ele>2657.22</ele>
        <time>2018-02-07T14:29:12Z</time>
      </trkpt>
      <trkpt lat="45.66078" lon="6.66574">
        <ele>2658.66</ele>
        <time>2018-02-07T14:29:25Z</time>
      </trkpt>
      <trkpt lat="45.66083" lon="6.66573">
        <ele>2660.11</ele>
        <time>2018-02-07T14:29:38Z</time>
      </trkpt>
      <trkpt lat="45.66087" lon="6.66572">
        <ele>2660.59</ele>
        <time>2018-02-07T14:29:55Z</time>
      </trkpt>
      <trkpt lat="45.66089" lon="6.66575">
        <ele>2661.55</ele>
        <time>2018-02-07T14:30:08Z</time>
      </trkpt>
      <trkpt lat="45.66085" lon="6.66579">
        <ele>2662.03</ele>
        <time>2018-02-07T14:30:28Z</time>
      </trkpt>
      <trkpt lat="45.66082" lon="6.66587">
        <ele>2663.95</ele>
        <time>2018-02-07T14:30:41Z</time>
      </trkpt>
      <trkpt lat="45.6608" lon="6.66594">
        <ele>2664.91</ele>
        <time>2018-02-07T14:30:59Z</time>
      </trkpt>
      <trkpt lat="45.66078" lon="6.66598">
        <ele>2666.35</ele>
        <time>2018-02-07T14:31:15Z</time>
      </trkpt>
      <trkpt lat="45.66077" lon="6.66595">
        <ele>2666.83</ele>
        <time>2018-02-07T14:31:31Z</time>
      </trkpt>
      <trkpt lat="45.6608" lon="6.66593">
        <ele>2668.28</ele>
        <time>2018-02-07T14:31:43Z</time>
      </trkpt>
      <trkpt lat="45.66082" lon="6.66591">
        <ele>2669.24</ele>
        <time>2018-02-07T14:31:58Z</time>
      </trkpt>
      <trkpt lat="45.66085" lon="6.66594">
        <ele>2669.72</ele>
        <time>2018-02-07T14:32:10Z</time>
      </trkpt>
      <trkpt lat="45.66083" lon="6.66597">
        <ele>2669.72</ele>
        <time>2018-02-07T14:32:25Z</time>
      </trkpt>
      <trkpt lat="45.66084" lon="6.666">
        <ele>2670.68</ele>
        <time>2018-02-07T14:32:37Z</time>
      </trkpt>
      <trkpt lat="45.66084" lon="6.66602">
        <ele>2671.16</ele>
        <time>2018-02-07T14:32:58Z</time>
      </trkpt>
      <trkpt lat="45.66083" lon="6.66606">
        <ele>2672.12</ele>
        <time>2018-02-07T14:33:11Z</time>
      </trkpt>
      <trkpt lat="45.66077" lon="6.66603">
        <ele>2671.64</ele>
        <time>2018-02-07T14:33:24Z</time>
      </trkpt>
      <trkpt lat="45.66076" lon="6.66604">
        <ele>2671.64</ele>
        <time>2018-02-07T14:33:43Z</time>
      </trkpt>
      <trkpt lat="45.66077" lon="6.66605">
        <ele>2671.64</ele>
        <time>2018-02-07T14:34:01Z</time>
      </trkpt>
      <trkpt lat="45.66078" lon="6.66607">
        <ele>2671.16</ele>
        <time>2018-02-07T14:34:17Z</time>
      </trkpt>
      <trkpt lat="45.6608" lon="6.66607">
        <ele>2671.64</ele>
        <time>2018-02-07T14:34:38Z</time>
      </trkpt>
      <trkpt lat="45.66079" lon="6.66609">
        <ele>2671.16</ele>
        <time>2018-02-07T14:35:00Z</time>
      </trkpt>
      <trkpt lat="45.66079" lon="6.66613">
        <ele>2672.12</ele>
        <time>2018-02-07T14:35:14Z</time>
      </trkpt>
      <trkpt lat="45.66076" lon="6.66615">
        <ele>2673.56</ele>
        <time>2018-02-07T14:35:28Z</time>
      </trkpt>
      <trkpt lat="45.66073" lon="6.66619">
        <ele>2674.52</ele>
        <time>2018-02-07T14:35:40Z</time>
      </trkpt>
      <trkpt lat="45.6607" lon="6.66625">
        <ele>2675.97</ele>
        <time>2018-02-07T14:35:53Z</time>
      </trkpt>
      <trkpt lat="45.66062" lon="6.66624">
        <ele>2676.93</ele>
        <time>2018-02-07T14:36:08Z</time>
      </trkpt>
      <trkpt lat="45.66056" lon="6.66627">
        <ele>2677.89</ele>
        <time>2018-02-07T14:36:22Z</time>
      </trkpt>
      <trkpt lat="45.6605" lon="6.66634">
        <ele>2679.33</ele>
        <time>2018-02-07T14:36:35Z</time>
      </trkpt>
      <trkpt lat="45.66043" lon="6.66637">
        <ele>2679.81</ele>
        <time>2018-02-07T14:36:47Z</time>
      </trkpt>
      <trkpt lat="45.66041" lon="6.66634">
        <ele>2680.77</ele>
        <time>2018-02-07T14:36:58Z</time>
      </trkpt>
      <trkpt lat="45.66042" lon="6.66634">
        <ele>2680.77</ele>
        <time>2018-02-07T14:37:17Z</time>
      </trkpt>
      <trkpt lat="45.66039" lon="6.66634">
        <ele>2680.29</ele>
        <time>2018-02-07T14:37:38Z</time>
      </trkpt>
      <trkpt lat="45.66044" lon="6.66637">
        <ele>2679.33</ele>
        <time>2018-02-07T14:37:53Z</time>
      </trkpt>
      <trkpt lat="45.66044" lon="6.66633">
        <ele>2678.85</ele>
        <time>2018-02-07T14:38:20Z</time>
      </trkpt>
      <trkpt lat="45.66045" lon="6.66631">
        <ele>2678.85</ele>
        <time>2018-02-07T14:38:48Z</time>
      </trkpt>
      <trkpt lat="45.66038" lon="6.66635">
        <ele>2679.33</ele>
        <time>2018-02-07T14:39:28Z</time>
      </trkpt>
      <trkpt lat="45.66042" lon="6.66634">
        <ele>2678.85</ele>
        <time>2018-02-07T14:39:46Z</time>
      </trkpt>
      <trkpt lat="45.66044" lon="6.66634">
        <ele>2678.85</ele>
        <time>2018-02-07T14:40:17Z</time>
      </trkpt>
      <trkpt lat="45.66041" lon="6.66634">
        <ele>2678.85</ele>
        <time>2018-02-07T14:40:49Z</time>
      </trkpt>
      <trkpt lat="45.66041" lon="6.66635">
        <ele>2678.85</ele>
        <time>2018-02-07T14:41:16Z</time>
      </trkpt>
      <trkpt lat="45.66041" lon="6.66634">
        <ele>2678.85</ele>
        <time>2018-02-07T14:41:47Z</time>
      </trkpt>
      <trkpt lat="45.66042" lon="6.66634">
        <ele>2678.37</ele>
        <time>2018-02-07T14:42:17Z</time>
      </trkpt>
      <trkpt lat="45.66042" lon="6.66634">
        <ele>2678.37</ele>
        <time>2018-02-07T14:42:46Z</time>
      </trkpt>
      <trkpt lat="45.66044" lon="6.66635">
        <ele>2678.85</ele>
        <time>2018-02-07T14:43:11Z</time>
      </trkpt>
      <trkpt lat="45.66046" lon="6.66634">
        <ele>2678.85</ele>
        <time>2018-02-07T14:43:45Z</time>
      </trkpt>
      <trkpt lat="45.66047" lon="6.66633">
        <ele>2678.37</ele>
        <time>2018-02-07T14:44:28Z</time>
      </trkpt>
      <trkpt lat="45.66045" lon="6.66637">
        <ele>2678.37</ele>
        <time>2018-02-07T14:45:16Z</time>
      </trkpt>
      <trkpt lat="45.66047" lon="6.66637">
        <ele>2678.37</ele>
        <time>2018-02-07T14:45:50Z</time>
      </trkpt>
      <trkpt lat="45.66044" lon="6.66635">
        <ele>2679.33</ele>
        <time>2018-02-07T14:46:09Z</time>
      </trkpt>
      <trkpt lat="45.66044" lon="6.66634">
        <ele>2679.33</ele>
        <time>2018-02-07T14:46:32Z</time>
      </trkpt>
      <trkpt lat="45.66043" lon="6.66635">
        <ele>2679.33</ele>
        <time>2018-02-07T14:46:58Z</time>
      </trkpt>
      <trkpt lat="45.66042" lon="6.66636">
        <ele>2678.85</ele>
        <time>2018-02-07T14:47:28Z</time>
      </trkpt>
      <trkpt lat="45.66043" lon="6.66635">
        <ele>2678.85</ele>
        <time>2018-02-07T14:47:55Z</time>
      </trkpt>
      <trkpt lat="45.66042" lon="6.66636">
        <ele>2678.85</ele>
        <time>2018-02-07T14:48:19Z</time>
      </trkpt>
      <trkpt lat="45.66041" lon="6.66635">
        <ele>2678.85</ele>
        <time>2018-02-07T14:48:48Z</time>
      </trkpt>
      <trkpt lat="45.66041" lon="6.66636">
        <ele>2679.81</ele>
        <time>2018-02-07T14:49:13Z</time>
      </trkpt>
      <trkpt lat="45.66043" lon="6.66636">
        <ele>2679.33</ele>
        <time>2018-02-07T14:49:47Z</time>
      </trkpt>
      <trkpt lat="45.66042" lon="6.66635">
        <ele>2678.85</ele>
        <time>2018-02-07T14:50:16Z</time>
      </trkpt>
      <trkpt lat="45.66042" lon="6.66636">
        <ele>2678.85</ele>
        <time>2018-02-07T14:50:59Z</time>
      </trkpt>
      <trkpt lat="45.66041" lon="6.66635">
        <ele>2678.37</ele>
        <time>2018-02-07T14:51:28Z</time>
      </trkpt>
      <trkpt lat="45.66042" lon="6.66634">
        <ele>2678.85</ele>
        <time>2018-02-07T14:52:01Z</time>
      </trkpt>
      <trkpt lat="45.66045" lon="6.66633">
        <ele>2678.37</ele>
        <time>2018-02-07T14:52:20Z</time>
      </trkpt>
      <trkpt lat="45.66042" lon="6.66634">
        <ele>2678.37</ele>
        <time>2018-02-07T14:52:46Z</time>
      </trkpt>
      <trkpt lat="45.66042" lon="6.66635">
        <ele>2678.37</ele>
        <time>2018-02-07T14:53:06Z</time>
      </trkpt>
      <trkpt lat="45.66043" lon="6.66633">
        <ele>2678.37</ele>
        <time>2018-02-07T14:53:31Z</time>
      </trkpt>
      <trkpt lat="45.66043" lon="6.66634">
        <ele>2678.37</ele>
        <time>2018-02-07T14:53:57Z</time>
      </trkpt>
      <trkpt lat="45.66043" lon="6.66634">
        <ele>2677.89</ele>
        <time>2018-02-07T14:54:37Z</time>
      </trkpt>
      <trkpt lat="45.66045" lon="6.66632">
        <ele>2678.37</ele>
        <time>2018-02-07T14:55:11Z</time>
      </trkpt>
      <trkpt lat="45.66046" lon="6.66635">
        <ele>2677.89</ele>
        <time>2018-02-07T14:55:31Z</time>
      </trkpt>
      <trkpt lat="45.66044" lon="6.66634">
        <ele>2677.89</ele>
        <time>2018-02-07T14:55:53Z</time>
      </trkpt>
      <trkpt lat="45.66044" lon="6.66639">
        <ele>2677.89</ele>
        <time>2018-02-07T14:56:19Z</time>
      </trkpt>
      <trkpt lat="45.66045" lon="6.66641">
        <ele>2677.89</ele>
        <time>2018-02-07T14:56:33Z</time>
      </trkpt>
      <trkpt lat="45.66043" lon="6.66636">
        <ele>2677.89</ele>
        <time>2018-02-07T14:56:52Z</time>
      </trkpt>
      <trkpt lat="45.66042" lon="6.66633">
        <ele>2678.37</ele>
        <time>2018-02-07T14:57:05Z</time>
      </trkpt>
      <trkpt lat="45.66039" lon="6.66633">
        <ele>2678.37</ele>
        <time>2018-02-07T14:57:33Z</time>
      </trkpt>
      <trkpt lat="45.66027" lon="6.6663">
        <ele>2678.37</ele>
        <time>2018-02-07T14:57:48Z</time>
      </trkpt>
      <trkpt lat="45.66017" lon="6.66627">
        <ele>2679.33</ele>
        <time>2018-02-07T14:58:01Z</time>
      </trkpt>
      <trkpt lat="45.66012" lon="6.66626">
        <ele>2680.29</ele>
        <time>2018-02-07T14:58:16Z</time>
      </trkpt>
      <trkpt lat="45.66006" lon="6.66628">
        <ele>2681.25</ele>
        <time>2018-02-07T14:58:27Z</time>
      </trkpt>
      <trkpt lat="45.66002" lon="6.66626">
        <ele>2682.7</ele>
        <time>2018-02-07T14:58:41Z</time>
      </trkpt>
      <trkpt lat="45.65995" lon="6.66628">
        <ele>2684.14</ele>
        <time>2018-02-07T14:58:56Z</time>
      </trkpt>
      <trkpt lat="45.65981" lon="6.66625">
        <ele>2683.66</ele>
        <time>2018-02-07T14:59:13Z</time>
      </trkpt>
      <trkpt lat="45.65974" lon="6.66622">
        <ele>2684.62</ele>
        <time>2018-02-07T14:59:26Z</time>
      </trkpt>
      <trkpt lat="45.65964" lon="6.66619">
        <ele>2684.62</ele>
        <time>2018-02-07T14:59:38Z</time>
      </trkpt>
      <trkpt lat="45.65959" lon="6.66619">
        <ele>2684.62</ele>
        <time>2018-02-07T14:59:48Z</time>
      </trkpt>
      <trkpt lat="45.65954" lon="6.66617">
        <ele>2684.62</ele>
        <time>2018-02-07T15:00:02Z</time>
      </trkpt>
      <trkpt lat="45.65943" lon="6.66615">
        <ele>2684.14</ele>
        <time>2018-02-07T15:00:16Z</time>
      </trkpt>
      <trkpt lat="45.65937" lon="6.66612">
        <ele>2685.1</ele>
        <time>2018-02-07T15:00:28Z</time>
      </trkpt>
      <trkpt lat="45.65928" lon="6.66606">
        <ele>2686.54</ele>
        <time>2018-02-07T15:00:44Z</time>
      </trkpt>
      <trkpt lat="45.65925" lon="6.66606">
        <ele>2687.02</ele>
        <time>2018-02-07T15:00:57Z</time>
      </trkpt>
      <trkpt lat="45.65925" lon="6.66604">
        <ele>2686.54</ele>
        <time>2018-02-07T15:01:22Z</time>
      </trkpt>
      <trkpt lat="45.65923" lon="6.66603">
        <ele>2687.02</ele>
        <time>2018-02-07T15:01:40Z</time>
      </trkpt>
      <trkpt lat="45.65924" lon="6.66605">
        <ele>2686.54</ele>
        <time>2018-02-07T15:02:00Z</time>
      </trkpt>
      <trkpt lat="45.65924" lon="6.66604">
        <ele>2687.02</ele>
        <time>2018-02-07T15:02:18Z</time>
      </trkpt>
      <trkpt lat="45.65925" lon="6.66605">
        <ele>2687.98</ele>
        <time>2018-02-07T15:02:37Z</time>
      </trkpt>
      <trkpt lat="45.65925" lon="6.66603">
        <ele>2687.02</ele>
        <time>2018-02-07T15:02:57Z</time>
      </trkpt>
      <trkpt lat="45.65921" lon="6.66602">
        <ele>2687.5</ele>
        <time>2018-02-07T15:03:15Z</time>
      </trkpt>
      <trkpt lat="45.65914" lon="6.66603">
        <ele>2689.43</ele>
        <time>2018-02-07T15:03:32Z</time>
      </trkpt>
      <trkpt lat="45.65908" lon="6.66604">
        <ele>2690.39</ele>
        <time>2018-02-07T15:03:48Z</time>
      </trkpt>
      <trkpt lat="45.65902" lon="6.66604">
        <ele>2690.87</ele>
        <time>2018-02-07T15:04:00Z</time>
      </trkpt>
      <trkpt lat="45.65897" lon="6.66603">
        <ele>2690.87</ele>
        <time>2018-02-07T15:04:15Z</time>
      </trkpt>
      <trkpt lat="45.65892" lon="6.66601">
        <ele>2692.31</ele>
        <time>2018-02-07T15:04:29Z</time>
      </trkpt>
      <trkpt lat="45.65888" lon="6.66601">
        <ele>2692.31</ele>
        <time>2018-02-07T15:04:42Z</time>
      </trkpt>
      <trkpt lat="45.65885" lon="6.66601">
        <ele>2691.83</ele>
        <time>2018-02-07T15:04:54Z</time>
      </trkpt>
      <trkpt lat="45.65882" lon="6.66601">
        <ele>2691.35</ele>
        <time>2018-02-07T15:05:08Z</time>
      </trkpt>
      <trkpt lat="45.65878" lon="6.66602">
        <ele>2690.39</ele>
        <time>2018-02-07T15:05:28Z</time>
      </trkpt>
      <trkpt lat="45.65875" lon="6.66604">
        <ele>2689.91</ele>
        <time>2018-02-07T15:05:41Z</time>
      </trkpt>
      <trkpt lat="45.65873" lon="6.66606">
        <ele>2689.43</ele>
        <time>2018-02-07T15:05:55Z</time>
      </trkpt>
      <trkpt lat="45.65871" lon="6.66611">
        <ele>2688.46</ele>
        <time>2018-02-07T15:06:08Z</time>
      </trkpt>
      <trkpt lat="45.65867" lon="6.66615">
        <ele>2687.5</ele>
        <time>2018-02-07T15:06:20Z</time>
      </trkpt>
      <trkpt lat="45.65859" lon="6.66619">
        <ele>2687.98</ele>
        <time>2018-02-07T15:06:34Z</time>
      </trkpt>
      <trkpt lat="45.65853" lon="6.66619">
        <ele>2689.43</ele>
        <time>2018-02-07T15:06:49Z</time>
      </trkpt>
      <trkpt lat="45.65844" lon="6.6662">
        <ele>2690.87</ele>
        <time>2018-02-07T15:07:04Z</time>
      </trkpt>
      <trkpt lat="45.65837" lon="6.66624">
        <ele>2692.31</ele>
        <time>2018-02-07T15:07:20Z</time>
      </trkpt>
      <trkpt lat="45.65831" lon="6.66623">
        <ele>2693.27</ele>
        <time>2018-02-07T15:07:32Z</time>
      </trkpt>
      <trkpt lat="45.65826" lon="6.66629">
        <ele>2694.23</ele>
        <time>2018-02-07T15:07:46Z</time>
      </trkpt>
      <trkpt lat="45.65821" lon="6.66632">
        <ele>2694.23</ele>
        <time>2018-02-07T15:08:00Z</time>
      </trkpt>
      <trkpt lat="45.65816" lon="6.66634">
        <ele>2694.71</ele>
        <time>2018-02-07T15:08:10Z</time>
      </trkpt>
      <trkpt lat="45.65807" lon="6.66634">
        <ele>2697.12</ele>
        <time>2018-02-07T15:08:28Z</time>
      </trkpt>
      <trkpt lat="45.65801" lon="6.66637">
        <ele>2697.6</ele>
        <time>2018-02-07T15:08:37Z</time>
      </trkpt>
      <trkpt lat="45.65795" lon="6.6664">
        <ele>2698.08</ele>
        <time>2018-02-07T15:08:51Z</time>
      </trkpt>
      <trkpt lat="45.65786" lon="6.66642">
        <ele>2699.04</ele>
        <time>2018-02-07T15:09:10Z</time>
      </trkpt>
      <trkpt lat="45.65778" lon="6.66645">
        <ele>2699.04</ele>
        <time>2018-02-07T15:09:20Z</time>
      </trkpt>
      <trkpt lat="45.6577" lon="6.66648">
        <ele>2699.52</ele>
        <time>2018-02-07T15:09:39Z</time>
      </trkpt>
      <trkpt lat="45.65763" lon="6.6665">
        <ele>2700.48</ele>
        <time>2018-02-07T15:09:53Z</time>
      </trkpt>
      <trkpt lat="45.65758" lon="6.66652">
        <ele>2700.48</ele>
        <time>2018-02-07T15:10:04Z</time>
      </trkpt>
      <trkpt lat="45.6575" lon="6.66656">
        <ele>2701.44</ele>
        <time>2018-02-07T15:10:19Z</time>
      </trkpt>
      <trkpt lat="45.65743" lon="6.66658">
        <ele>2701.92</ele>
        <time>2018-02-07T15:10:33Z</time>
      </trkpt>
      <trkpt lat="45.65736" lon="6.66659">
        <ele>2702.4</ele>
        <time>2018-02-07T15:10:50Z</time>
      </trkpt>
      <trkpt lat="45.65729" lon="6.66661">
        <ele>2702.88</ele>
        <time>2018-02-07T15:11:02Z</time>
      </trkpt>
      <trkpt lat="45.65721" lon="6.66663">
        <ele>2703.36</ele>
        <time>2018-02-07T15:11:19Z</time>
      </trkpt>
      <trkpt lat="45.65715" lon="6.66662">
        <ele>2703.85</ele>
        <time>2018-02-07T15:11:37Z</time>
      </trkpt>
      <trkpt lat="45.65712" lon="6.66662">
        <ele>2703.85</ele>
        <time>2018-02-07T15:12:04Z</time>
      </trkpt>
      <trkpt lat="45.65706" lon="6.66662">
        <ele>2703.85</ele>
        <time>2018-02-07T15:12:18Z</time>
      </trkpt>
      <trkpt lat="45.65699" lon="6.66661">
        <ele>2703.85</ele>
        <time>2018-02-07T15:12:31Z</time>
      </trkpt>
      <trkpt lat="45.6569" lon="6.66658">
        <ele>2702.88</ele>
        <time>2018-02-07T15:12:45Z</time>
      </trkpt>
      <trkpt lat="45.65683" lon="6.66656">
        <ele>2702.4</ele>
        <time>2018-02-07T15:13:00Z</time>
      </trkpt>
      <trkpt lat="45.65675" lon="6.66654">
        <ele>2702.4</ele>
        <time>2018-02-07T15:13:13Z</time>
      </trkpt>
      <trkpt lat="45.65667" lon="6.6665">
        <ele>2702.88</ele>
        <time>2018-02-07T15:13:29Z</time>
      </trkpt>
      <trkpt lat="45.65658" lon="6.66647">
        <ele>2702.88</ele>
        <time>2018-02-07T15:13:46Z</time>
      </trkpt>
      <trkpt lat="45.6565" lon="6.66643">
        <ele>2702.4</ele>
        <time>2018-02-07T15:13:58Z</time>
      </trkpt>
      <trkpt lat="45.65641" lon="6.66639">
        <ele>2701.92</ele>
        <time>2018-02-07T15:14:12Z</time>
      </trkpt>
      <trkpt lat="45.6563" lon="6.66636">
        <ele>2701.44</ele>
        <time>2018-02-07T15:14:28Z</time>
      </trkpt>
      <trkpt lat="45.65623" lon="6.66633">
        <ele>2701.92</ele>
        <time>2018-02-07T15:14:42Z</time>
      </trkpt>
      <trkpt lat="45.65616" lon="6.66632">
        <ele>2701.92</ele>
        <time>2018-02-07T15:14:57Z</time>
      </trkpt>
      <trkpt lat="45.65611" lon="6.66628">
        <ele>2701.92</ele>
        <time>2018-02-07T15:15:10Z</time>
      </trkpt>
      <trkpt lat="45.65603" lon="6.66625">
        <ele>2702.88</ele>
        <time>2018-02-07T15:15:26Z</time>
      </trkpt>
      <trkpt lat="45.65594" lon="6.66621">
        <ele>2702.88</ele>
        <time>2018-02-07T15:15:43Z</time>
      </trkpt>
      <trkpt lat="45.65587" lon="6.66619">
        <ele>2702.4</ele>
        <time>2018-02-07T15:15:56Z</time>
      </trkpt>
      <trkpt lat="45.65578" lon="6.66617">
        <ele>2702.88</ele>
        <time>2018-02-07T15:16:11Z</time>
      </trkpt>
      <trkpt lat="45.65568" lon="6.66614">
        <ele>2701.92</ele>
        <time>2018-02-07T15:16:26Z</time>
      </trkpt>
      <trkpt lat="45.65558" lon="6.66609">
        <ele>2701.44</ele>
        <time>2018-02-07T15:16:43Z</time>
      </trkpt>
      <trkpt lat="45.6555" lon="6.66608">
        <ele>2700.48</ele>
        <time>2018-02-07T15:16:57Z</time>
      </trkpt>
      <trkpt lat="45.6554" lon="6.66608">
        <ele>2700</ele>
        <time>2018-02-07T15:17:14Z</time>
      </trkpt>
      <trkpt lat="45.65532" lon="6.66608">
        <ele>2699.52</ele>
        <time>2018-02-07T15:17:27Z</time>
      </trkpt>
      <trkpt lat="45.65522" lon="6.6661">
        <ele>2698.08</ele>
        <time>2018-02-07T15:17:42Z</time>
      </trkpt>
      <trkpt lat="45.65513" lon="6.66613">
        <ele>2698.08</ele>
        <time>2018-02-07T15:17:56Z</time>
      </trkpt>
      <trkpt lat="45.65504" lon="6.66614">
        <ele>2697.6</ele>
        <time>2018-02-07T15:18:11Z</time>
      </trkpt>
      <trkpt lat="45.65494" lon="6.66616">
        <ele>2696.64</ele>
        <time>2018-02-07T15:18:25Z</time>
      </trkpt>
      <trkpt lat="45.65488" lon="6.66618">
        <ele>2696.64</ele>
        <time>2018-02-07T15:18:36Z</time>
      </trkpt>
      <trkpt lat="45.65482" lon="6.66621">
        <ele>2696.64</ele>
        <time>2018-02-07T15:18:48Z</time>
      </trkpt>
      <trkpt lat="45.65475" lon="6.66625">
        <ele>2695.19</ele>
        <time>2018-02-07T15:19:01Z</time>
      </trkpt>
      <trkpt lat="45.65468" lon="6.66627">
        <ele>2694.23</ele>
        <time>2018-02-07T15:19:12Z</time>
      </trkpt>
      <trkpt lat="45.65467" lon="6.66627">
        <ele>2693.75</ele>
        <time>2018-02-07T15:19:13Z</time>
      </trkpt>
      <trkpt lat="45.65456" lon="6.66635">
        <ele>2689.91</ele>
        <time>2018-02-07T15:19:20Z</time>
      </trkpt>
      <trkpt lat="45.65449" lon="6.66642">
        <ele>2687.98</ele>
        <time>2018-02-07T15:19:31Z</time>
      </trkpt>
      <trkpt lat="45.65442" lon="6.66654">
        <ele>2687.02</ele>
        <time>2018-02-07T15:19:45Z</time>
      </trkpt>
      <trkpt lat="45.65436" lon="6.66666">
        <ele>2687.5</ele>
        <time>2018-02-07T15:20:01Z</time>
      </trkpt>
      <trkpt lat="45.65433" lon="6.66674">
        <ele>2687.5</ele>
        <time>2018-02-07T15:20:14Z</time>
      </trkpt>
      <trkpt lat="45.65433" lon="6.66678">
        <ele>2687.02</ele>
        <time>2018-02-07T15:20:28Z</time>
      </trkpt>
      <trkpt lat="45.65431" lon="6.66685">
        <ele>2686.06</ele>
        <time>2018-02-07T15:20:38Z</time>
      </trkpt>
      <trkpt lat="45.65429" lon="6.66699">
        <ele>2684.62</ele>
        <time>2018-02-07T15:20:54Z</time>
      </trkpt>
      <trkpt lat="45.65425" lon="6.6671">
        <ele>2685.1</ele>
        <time>2018-02-07T15:21:07Z</time>
      </trkpt>
      <trkpt lat="45.65424" lon="6.66716">
        <ele>2686.06</ele>
        <time>2018-02-07T15:21:20Z</time>
      </trkpt>
      <trkpt lat="45.65422" lon="6.66719">
        <ele>2687.02</ele>
        <time>2018-02-07T15:21:35Z</time>
      </trkpt>
      <trkpt lat="45.6542" lon="6.66722">
        <ele>2687.02</ele>
        <time>2018-02-07T15:21:51Z</time>
      </trkpt>
      <trkpt lat="45.6542" lon="6.66723">
        <ele>2686.54</ele>
        <time>2018-02-07T15:22:07Z</time>
      </trkpt>
      <trkpt lat="45.65419" lon="6.66726">
        <ele>2687.02</ele>
        <time>2018-02-07T15:22:30Z</time>
      </trkpt>
      <trkpt lat="45.65421" lon="6.66721">
        <ele>2687.5</ele>
        <time>2018-02-07T15:22:46Z</time>
      </trkpt>
      <trkpt lat="45.6542" lon="6.66721">
        <ele>2687.5</ele>
        <time>2018-02-07T15:22:59Z</time>
      </trkpt>
      <trkpt lat="45.65419" lon="6.66724">
        <ele>2687.5</ele>
        <time>2018-02-07T15:23:13Z</time>
      </trkpt>
      <trkpt lat="45.65419" lon="6.66724">
        <ele>2687.5</ele>
        <time>2018-02-07T15:23:27Z</time>
      </trkpt>
      <trkpt lat="45.65418" lon="6.66723">
        <ele>2687.98</ele>
        <time>2018-02-07T15:23:43Z</time>
      </trkpt>
      <trkpt lat="45.65415" lon="6.66721">
        <ele>2688.94</ele>
        <time>2018-02-07T15:23:58Z</time>
      </trkpt>
      <trkpt lat="45.65416" lon="6.66715">
        <ele>2688.94</ele>
        <time>2018-02-07T15:24:13Z</time>
      </trkpt>
      <trkpt lat="45.65418" lon="6.6672">
        <ele>2688.94</ele>
        <time>2018-02-07T15:24:27Z</time>
      </trkpt>
      <trkpt lat="45.65417" lon="6.66721">
        <ele>2689.43</ele>
        <time>2018-02-07T15:24:45Z</time>
      </trkpt>
      <trkpt lat="45.65415" lon="6.66719">
        <ele>2689.43</ele>
        <time>2018-02-07T15:25:00Z</time>
      </trkpt>
      <trkpt lat="45.65415" lon="6.66718">
        <ele>2688.94</ele>
        <time>2018-02-07T15:25:13Z</time>
      </trkpt>
      <trkpt lat="45.65416" lon="6.66719">
        <ele>2688.94</ele>
        <time>2018-02-07T15:25:31Z</time>
      </trkpt>
      <trkpt lat="45.65418" lon="6.66717">
        <ele>2688.46</ele>
        <time>2018-02-07T15:25:47Z</time>
      </trkpt>
      <trkpt lat="45.65417" lon="6.66719">
        <ele>2687.5</ele>
        <time>2018-02-07T15:26:00Z</time>
      </trkpt>
      <trkpt lat="45.65418" lon="6.66718">
        <ele>2687.5</ele>
        <time>2018-02-07T15:26:22Z</time>
      </trkpt>
      <trkpt lat="45.65419" lon="6.66722">
        <ele>2687.5</ele>
        <time>2018-02-07T15:26:52Z</time>
      </trkpt>
      <trkpt lat="45.65419" lon="6.66725">
        <ele>2687.5</ele>
        <time>2018-02-07T15:27:18Z</time>
      </trkpt>
      <trkpt lat="45.65418" lon="6.66721">
        <ele>2687.5</ele>
        <time>2018-02-07T15:27:49Z</time>
      </trkpt>
      <trkpt lat="45.65415" lon="6.66728">
        <ele>2688.46</ele>
        <time>2018-02-07T15:28:26Z</time>
      </trkpt>
      <trkpt lat="45.6541" lon="6.66731">
        <ele>2688.94</ele>
        <time>2018-02-07T15:29:01Z</time>
      </trkpt>
      <trkpt lat="45.65414" lon="6.66728">
        <ele>2689.91</ele>
        <time>2018-02-07T15:29:35Z</time>
      </trkpt>
      <trkpt lat="45.65419" lon="6.66721">
        <ele>2690.39</ele>
        <time>2018-02-07T15:30:05Z</time>
      </trkpt>
      <trkpt lat="45.65416" lon="6.66718">
        <ele>2690.87</ele>
        <time>2018-02-07T15:30:39Z</time>
      </trkpt>
      <trkpt lat="45.65416" lon="6.6672">
        <ele>2691.83</ele>
        <time>2018-02-07T15:31:06Z</time>
      </trkpt>
      <trkpt lat="45.65412" lon="6.66717">
        <ele>2691.35</ele>
        <time>2018-02-07T15:31:34Z</time>
      </trkpt>
      <trkpt lat="45.65413" lon="6.6672">
        <ele>2691.83</ele>
        <time>2018-02-07T15:32:05Z</time>
      </trkpt>
      <trkpt lat="45.65416" lon="6.66715">
        <ele>2691.83</ele>
        <time>2018-02-07T15:32:32Z</time>
      </trkpt>
      <trkpt lat="45.65412" lon="6.66714">
        <ele>2692.31</ele>
        <time>2018-02-07T15:33:05Z</time>
      </trkpt>
      <trkpt lat="45.65412" lon="6.6672">
        <ele>2692.79</ele>
        <time>2018-02-07T15:33:38Z</time>
      </trkpt>
      <trkpt lat="45.65408" lon="6.66723">
        <ele>2693.27</ele>
        <time>2018-02-07T15:34:09Z</time>
      </trkpt>
      <trkpt lat="45.65412" lon="6.66727">
        <ele>2694.23</ele>
        <time>2018-02-07T15:34:51Z</time>
      </trkpt>
      <trkpt lat="45.65417" lon="6.66735">
        <ele>2695.67</ele>
        <time>2018-02-07T15:35:29Z</time>
      </trkpt>
      <trkpt lat="45.65416" lon="6.66726">
        <ele>2696.15</ele>
        <time>2018-02-07T15:36:08Z</time>
      </trkpt>
      <trkpt lat="45.6542" lon="6.66727">
        <ele>2696.64</ele>
        <time>2018-02-07T15:36:37Z</time>
      </trkpt>
      <trkpt lat="45.6542" lon="6.66725">
        <ele>2696.64</ele>
        <time>2018-02-07T15:36:59Z</time>
      </trkpt>
      <trkpt lat="45.65424" lon="6.66728">
        <ele>2697.12</ele>
        <time>2018-02-07T15:37:41Z</time>
      </trkpt>
      <trkpt lat="45.65415" lon="6.66727">
        <ele>2697.6</ele>
        <time>2018-02-07T15:38:13Z</time>
      </trkpt>
      <trkpt lat="45.65409" lon="6.66734">
        <ele>2698.56</ele>
        <time>2018-02-07T15:38:43Z</time>
      </trkpt>
      <trkpt lat="45.65402" lon="6.66743">
        <ele>2699.04</ele>
        <time>2018-02-07T15:39:12Z</time>
      </trkpt>
      <trkpt lat="45.65406" lon="6.66734">
        <ele>2699.52</ele>
        <time>2018-02-07T15:39:51Z</time>
      </trkpt>
      <trkpt lat="45.65409" lon="6.66731">
        <ele>2701.92</ele>
        <time>2018-02-07T15:40:16Z</time>
      </trkpt>
      <trkpt lat="45.6541" lon="6.66723">
        <ele>2701.44</ele>
        <time>2018-02-07T15:40:33Z</time>
      </trkpt>
      <trkpt lat="45.65413" lon="6.66717">
        <ele>2700.96</ele>
        <time>2018-02-07T15:41:00Z</time>
      </trkpt>
      <trkpt lat="45.65416" lon="6.66715">
        <ele>2701.44</ele>
        <time>2018-02-07T15:41:19Z</time>
      </trkpt>
      <trkpt lat="45.65416" lon="6.66714">
        <ele>2701.44</ele>
        <time>2018-02-07T15:41:22Z</time>
      </trkpt>
      <trkpt lat="45.65412" lon="6.66702">
        <ele>2697.6</ele>
        <time>2018-02-07T15:41:28Z</time>
      </trkpt>
      <trkpt lat="45.65404" lon="6.66709">
        <ele>2694.23</ele>
        <time>2018-02-07T15:41:32Z</time>
      </trkpt>
      <trkpt lat="45.65402" lon="6.66705">
        <ele>2692.79</ele>
        <time>2018-02-07T15:41:33Z</time>
      </trkpt>
      <trkpt lat="45.65403" lon="6.667">
        <ele>2692.31</ele>
        <time>2018-02-07T15:41:34Z</time>
      </trkpt>
      <trkpt lat="45.65404" lon="6.66697">
        <ele>2688.46</ele>
        <time>2018-02-07T15:41:36Z</time>
      </trkpt>
      <trkpt lat="45.65404" lon="6.66696">
        <ele>2688.46</ele>
        <time>2018-02-07T15:41:37Z</time>
      </trkpt>
      <trkpt lat="45.65404" lon="6.66694">
        <ele>2688.94</ele>
        <time>2018-02-07T15:41:41Z</time>
      </trkpt>
      <trkpt lat="45.65404" lon="6.66689">
        <ele>2688.94</ele>
        <time>2018-02-07T15:41:43Z</time>
      </trkpt>
      <trkpt lat="45.65396" lon="6.66691">
        <ele>2684.62</ele>
        <time>2018-02-07T15:41:47Z</time>
      </trkpt>
      <trkpt lat="45.65386" lon="6.66706">
        <ele>2681.25</ele>
        <time>2018-02-07T15:41:51Z</time>
      </trkpt>
      <trkpt lat="45.65384" lon="6.66703">
        <ele>2680.77</ele>
        <time>2018-02-07T15:41:52Z</time>
      </trkpt>
      <trkpt lat="45.65384" lon="6.66698">
        <ele>2678.37</ele>
        <time>2018-02-07T15:41:53Z</time>
      </trkpt>
      <trkpt lat="45.65384" lon="6.66693">
        <ele>2677.89</ele>
        <time>2018-02-07T15:41:54Z</time>
      </trkpt>
      <trkpt lat="45.65383" lon="6.66686">
        <ele>2675.97</ele>
        <time>2018-02-07T15:41:56Z</time>
      </trkpt>
      <trkpt lat="45.6538" lon="6.66685">
        <ele>2674.04</ele>
        <time>2018-02-07T15:41:57Z</time>
      </trkpt>
      <trkpt lat="45.65375" lon="6.66688">
        <ele>2673.56</ele>
        <time>2018-02-07T15:41:58Z</time>
      </trkpt>
      <trkpt lat="45.65371" lon="6.66693">
        <ele>2670.2</ele>
        <time>2018-02-07T15:41:59Z</time>
      </trkpt>
      <trkpt lat="45.65363" lon="6.66704">
        <ele>2666.83</ele>
        <time>2018-02-07T15:42:01Z</time>
      </trkpt>
      <trkpt lat="45.65358" lon="6.66712">
        <ele>2665.87</ele>
        <time>2018-02-07T15:42:03Z</time>
      </trkpt>
      <trkpt lat="45.65353" lon="6.6671">
        <ele>2665.87</ele>
        <time>2018-02-07T15:42:05Z</time>
      </trkpt>
      <trkpt lat="45.65353" lon="6.66702">
        <ele>2664.43</ele>
        <time>2018-02-07T15:42:06Z</time>
      </trkpt>
      <trkpt lat="45.65355" lon="6.66696">
        <ele>2662.03</ele>
        <time>2018-02-07T15:42:07Z</time>
      </trkpt>
      <trkpt lat="45.6536" lon="6.66684">
        <ele>2661.55</ele>
        <time>2018-02-07T15:42:09Z</time>
      </trkpt>
      <trkpt lat="45.65363" lon="6.66675">
        <ele>2660.59</ele>
        <time>2018-02-07T15:42:11Z</time>
      </trkpt>
      <trkpt lat="45.65362" lon="6.66669">
        <ele>2659.14</ele>
        <time>2018-02-07T15:42:13Z</time>
      </trkpt>
      <trkpt lat="45.65357" lon="6.66667">
        <ele>2658.18</ele>
        <time>2018-02-07T15:42:14Z</time>
      </trkpt>
      <trkpt lat="45.65351" lon="6.66669">
        <ele>2654.34</ele>
        <time>2018-02-07T15:42:15Z</time>
      </trkpt>
      <trkpt lat="45.65343" lon="6.6668">
        <ele>2650.97</ele>
        <time>2018-02-07T15:42:17Z</time>
      </trkpt>
      <trkpt lat="45.65338" lon="6.66689">
        <ele>2650.01</ele>
        <time>2018-02-07T15:42:19Z</time>
      </trkpt>
      <trkpt lat="45.65335" lon="6.6669">
        <ele>2649.05</ele>
        <time>2018-02-07T15:42:22Z</time>
      </trkpt>
      <trkpt lat="45.65334" lon="6.66686">
        <ele>2648.57</ele>
        <time>2018-02-07T15:42:23Z</time>
      </trkpt>
      <trkpt lat="45.65337" lon="6.66678">
        <ele>2646.17</ele>
        <time>2018-02-07T15:42:25Z</time>
      </trkpt>
      <trkpt lat="45.65338" lon="6.66669">
        <ele>2645.21</ele>
        <time>2018-02-07T15:42:27Z</time>
      </trkpt>
      <trkpt lat="45.65336" lon="6.66665">
        <ele>2644.72</ele>
        <time>2018-02-07T15:42:28Z</time>
      </trkpt>
      <trkpt lat="45.65331" lon="6.66665">
        <ele>2642.8</ele>
        <time>2018-02-07T15:42:29Z</time>
      </trkpt>
      <trkpt lat="45.65326" lon="6.66668">
        <ele>2639.92</ele>
        <time>2018-02-07T15:42:30Z</time>
      </trkpt>
      <trkpt lat="45.65321" lon="6.66673">
        <ele>2638.48</ele>
        <time>2018-02-07T15:42:31Z</time>
      </trkpt>
      <trkpt lat="45.65312" lon="6.66681">
        <ele>2635.11</ele>
        <time>2018-02-07T15:42:33Z</time>
      </trkpt>
      <trkpt lat="45.65299" lon="6.66691">
        <ele>2633.67</ele>
        <time>2018-02-07T15:42:36Z</time>
      </trkpt>
      <trkpt lat="45.65297" lon="6.66694">
        <ele>2634.15</ele>
        <time>2018-02-07T15:42:39Z</time>
      </trkpt>
      <trkpt lat="45.65296" lon="6.6668">
        <ele>2630.3</ele>
        <time>2018-02-07T15:42:43Z</time>
      </trkpt>
      <trkpt lat="45.65296" lon="6.66677">
        <ele>2630.3</ele>
        <time>2018-02-07T15:42:44Z</time>
      </trkpt>
      <trkpt lat="45.65291" lon="6.66673">
        <ele>2626.94</ele>
        <time>2018-02-07T15:42:47Z</time>
      </trkpt>
      <trkpt lat="45.65289" lon="6.66674">
        <ele>2626.46</ele>
        <time>2018-02-07T15:42:48Z</time>
      </trkpt>
      <trkpt lat="45.65289" lon="6.66673">
        <ele>2625.98</ele>
        <time>2018-02-07T15:43:03Z</time>
      </trkpt>
      <trkpt lat="45.65289" lon="6.66672">
        <ele>2625.98</ele>
        <time>2018-02-07T15:43:26Z</time>
      </trkpt>
      <trkpt lat="45.65289" lon="6.66672">
        <ele>2625.98</ele>
        <time>2018-02-07T15:43:47Z</time>
      </trkpt>
      <trkpt lat="45.6529" lon="6.66671">
        <ele>2625.5</ele>
        <time>2018-02-07T15:44:19Z</time>
      </trkpt>
      <trkpt lat="45.65288" lon="6.66672">
        <ele>2625.5</ele>
        <time>2018-02-07T15:44:38Z</time>
      </trkpt>
      <trkpt lat="45.65277" lon="6.66671">
        <ele>2623.09</ele>
        <time>2018-02-07T15:44:42Z</time>
      </trkpt>
      <trkpt lat="45.65261" lon="6.66667">
        <ele>2620.21</ele>
        <time>2018-02-07T15:44:45Z</time>
      </trkpt>
      <trkpt lat="45.65239" lon="6.66675">
        <ele>2616.37</ele>
        <time>2018-02-07T15:44:49Z</time>
      </trkpt>
      <trkpt lat="45.65221" lon="6.6667">
        <ele>2611.08</ele>
        <time>2018-02-07T15:44:53Z</time>
      </trkpt>
      <trkpt lat="45.65207" lon="6.66669">
        <ele>2607.23</ele>
        <time>2018-02-07T15:44:56Z</time>
      </trkpt>
      <trkpt lat="45.65191" lon="6.66664">
        <ele>2603.39</ele>
        <time>2018-02-07T15:44:59Z</time>
      </trkpt>
      <trkpt lat="45.65178" lon="6.66665">
        <ele>2599.54</ele>
        <time>2018-02-07T15:45:01Z</time>
      </trkpt>
      <trkpt lat="45.65167" lon="6.66664">
        <ele>2596.18</ele>
        <time>2018-02-07T15:45:03Z</time>
      </trkpt>
      <trkpt lat="45.65157" lon="6.66663">
        <ele>2593.77</ele>
        <time>2018-02-07T15:45:05Z</time>
      </trkpt>
      <trkpt lat="45.65137" lon="6.66657">
        <ele>2587.04</ele>
        <time>2018-02-07T15:45:11Z</time>
      </trkpt>
      <trkpt lat="45.65139" lon="6.66658">
        <ele>2586.08</ele>
        <time>2018-02-07T15:45:18Z</time>
      </trkpt>
      <trkpt lat="45.6514" lon="6.66658">
        <ele>2586.08</ele>
        <time>2018-02-07T15:45:36Z</time>
      </trkpt>
      <trkpt lat="45.6514" lon="6.66657">
        <ele>2585.6</ele>
        <time>2018-02-07T15:45:53Z</time>
      </trkpt>
      <trkpt lat="45.65139" lon="6.66657">
        <ele>2585.6</ele>
        <time>2018-02-07T15:46:13Z</time>
      </trkpt>
      <trkpt lat="45.6513" lon="6.66662">
        <ele>2584.64</ele>
        <time>2018-02-07T15:46:22Z</time>
      </trkpt>
      <trkpt lat="45.65117" lon="6.66658">
        <ele>2580.8</ele>
        <time>2018-02-07T15:46:25Z</time>
      </trkpt>
      <trkpt lat="45.65112" lon="6.66665">
        <ele>2578.39</ele>
        <time>2018-02-07T15:46:28Z</time>
      </trkpt>
      <trkpt lat="45.65101" lon="6.66656">
        <ele>2575.03</ele>
        <time>2018-02-07T15:46:33Z</time>
      </trkpt>
      <trkpt lat="45.651" lon="6.66642">
        <ele>2573.11</ele>
        <time>2018-02-07T15:46:35Z</time>
      </trkpt>
      <trkpt lat="45.65098" lon="6.66637">
        <ele>2571.66</ele>
        <time>2018-02-07T15:46:36Z</time>
      </trkpt>
      <trkpt lat="45.65095" lon="6.66636">
        <ele>2571.66</ele>
        <time>2018-02-07T15:46:37Z</time>
      </trkpt>
      <trkpt lat="45.65093" lon="6.66638">
        <ele>2569.74</ele>
        <time>2018-02-07T15:46:38Z</time>
      </trkpt>
      <trkpt lat="45.65091" lon="6.66642">
        <ele>2569.26</ele>
        <time>2018-02-07T15:46:39Z</time>
      </trkpt>
      <trkpt lat="45.65085" lon="6.6665">
        <ele>2566.86</ele>
        <time>2018-02-07T15:46:41Z</time>
      </trkpt>
      <trkpt lat="45.65077" lon="6.66632">
        <ele>2563.49</ele>
        <time>2018-02-07T15:46:45Z</time>
      </trkpt>
      <trkpt lat="45.65075" lon="6.66627">
        <ele>2562.53</ele>
        <time>2018-02-07T15:46:46Z</time>
      </trkpt>
      <trkpt lat="45.65072" lon="6.66627">
        <ele>2561.09</ele>
        <time>2018-02-07T15:46:47Z</time>
      </trkpt>
      <trkpt lat="45.65069" lon="6.66631">
        <ele>2560.61</ele>
        <time>2018-02-07T15:46:48Z</time>
      </trkpt>
      <trkpt lat="45.65057" lon="6.66645">
        <ele>2556.76</ele>
        <time>2018-02-07T15:46:52Z</time>
      </trkpt>
      <trkpt lat="45.65055" lon="6.66639">
        <ele>2554.84</ele>
        <time>2018-02-07T15:46:53Z</time>
      </trkpt>
      <trkpt lat="45.65042" lon="6.66625">
        <ele>2553.4</ele>
        <time>2018-02-07T15:47:00Z</time>
      </trkpt>
      <trkpt lat="45.65039" lon="6.66628">
        <ele>2552.44</ele>
        <time>2018-02-07T15:47:01Z</time>
      </trkpt>
      <trkpt lat="45.65036" lon="6.66633">
        <ele>2551.48</ele>
        <time>2018-02-07T15:47:02Z</time>
      </trkpt>
      <trkpt lat="45.65032" lon="6.66634">
        <ele>2550.03</ele>
        <time>2018-02-07T15:47:03Z</time>
      </trkpt>
      <trkpt lat="45.65029" lon="6.66632">
        <ele>2550.03</ele>
        <time>2018-02-07T15:47:04Z</time>
      </trkpt>
      <trkpt lat="45.65025" lon="6.66631">
        <ele>2549.55</ele>
        <time>2018-02-07T15:47:05Z</time>
      </trkpt>
      <trkpt lat="45.65022" lon="6.66632">
        <ele>2548.11</ele>
        <time>2018-02-07T15:47:06Z</time>
      </trkpt>
      <trkpt lat="45.65021" lon="6.66635">
        <ele>2548.11</ele>
        <time>2018-02-07T15:47:13Z</time>
      </trkpt>
      <trkpt lat="45.65019" lon="6.66636">
        <ele>2548.11</ele>
        <time>2018-02-07T15:47:18Z</time>
      </trkpt>
      <trkpt lat="45.65018" lon="6.66636">
        <ele>2547.63</ele>
        <time>2018-02-07T15:47:19Z</time>
      </trkpt>
      <trkpt lat="45.65016" lon="6.66636">
        <ele>2547.15</ele>
        <time>2018-02-07T15:47:23Z</time>
      </trkpt>
      <trkpt lat="45.65013" lon="6.66636">
        <ele>2547.63</ele>
        <time>2018-02-07T15:47:24Z</time>
      </trkpt>
      <trkpt lat="45.65011" lon="6.66636">
        <ele>2547.15</ele>
        <time>2018-02-07T15:47:25Z</time>
      </trkpt>
      <trkpt lat="45.65009" lon="6.66637">
        <ele>2546.67</ele>
        <time>2018-02-07T15:47:26Z</time>
      </trkpt>
      <trkpt lat="45.65008" lon="6.66637">
        <ele>2546.67</ele>
        <time>2018-02-07T15:47:27Z</time>
      </trkpt>
      <trkpt lat="45.65007" lon="6.66636">
        <ele>2546.19</ele>
        <time>2018-02-07T15:47:28Z</time>
      </trkpt>
      <trkpt lat="45.64976" lon="6.66642">
        <ele>2542.34</ele>
        <time>2018-02-07T15:47:41Z</time>
      </trkpt>
      <trkpt lat="45.64958" lon="6.66642">
        <ele>2539.46</ele>
        <time>2018-02-07T15:47:51Z</time>
      </trkpt>
      <trkpt lat="45.64954" lon="6.66643">
        <ele>2539.46</ele>
        <time>2018-02-07T15:48:02Z</time>
      </trkpt>
      <trkpt lat="45.64952" lon="6.66642">
        <ele>2538.98</ele>
        <time>2018-02-07T15:48:18Z</time>
      </trkpt>
      <trkpt lat="45.6495" lon="6.6664">
        <ele>2538.5</ele>
        <time>2018-02-07T15:48:19Z</time>
      </trkpt>
      <trkpt lat="45.64947" lon="6.66637">
        <ele>2538.5</ele>
        <time>2018-02-07T15:48:20Z</time>
      </trkpt>
      <trkpt lat="45.6494" lon="6.66629">
        <ele>2536.58</ele>
        <time>2018-02-07T15:48:22Z</time>
      </trkpt>
      <trkpt lat="45.64931" lon="6.66634">
        <ele>2534.65</ele>
        <time>2018-02-07T15:48:25Z</time>
      </trkpt>
      <trkpt lat="45.64913" lon="6.66635">
        <ele>2531.29</ele>
        <time>2018-02-07T15:48:30Z</time>
      </trkpt>
      <trkpt lat="45.64904" lon="6.66646">
        <ele>2527.44</ele>
        <time>2018-02-07T15:48:33Z</time>
      </trkpt>
      <trkpt lat="45.64896" lon="6.66646">
        <ele>2526.48</ele>
        <time>2018-02-07T15:48:35Z</time>
      </trkpt>
      <trkpt lat="45.64879" lon="6.6665">
        <ele>2523.12</ele>
        <time>2018-02-07T15:48:39Z</time>
      </trkpt>
      <trkpt lat="45.64878" lon="6.6665">
        <ele>2521.68</ele>
        <time>2018-02-07T15:48:41Z</time>
      </trkpt>
      <trkpt lat="45.64878" lon="6.6665">
        <ele>2521.68</ele>
        <time>2018-02-07T15:48:49Z</time>
      </trkpt>
      <trkpt lat="45.64876" lon="6.66644">
        <ele>2521.19</ele>
        <time>2018-02-07T15:48:51Z</time>
      </trkpt>
      <trkpt lat="45.64872" lon="6.66642">
        <ele>2518.79</ele>
        <time>2018-02-07T15:48:54Z</time>
      </trkpt>
      <trkpt lat="45.64853" lon="6.66644">
        <ele>2515.43</ele>
        <time>2018-02-07T15:49:03Z</time>
      </trkpt>
      <trkpt lat="45.64848" lon="6.66643">
        <ele>2515.43</ele>
        <time>2018-02-07T15:49:05Z</time>
      </trkpt>
      <trkpt lat="45.64839" lon="6.66635">
        <ele>2513.5</ele>
        <time>2018-02-07T15:49:09Z</time>
      </trkpt>
      <trkpt lat="45.64832" lon="6.66631">
        <ele>2512.54</ele>
        <time>2018-02-07T15:49:11Z</time>
      </trkpt>
      <trkpt lat="45.64825" lon="6.66611">
        <ele>2508.7</ele>
        <time>2018-02-07T15:49:18Z</time>
      </trkpt>
      <trkpt lat="45.64821" lon="6.66614">
        <ele>2507.74</ele>
        <time>2018-02-07T15:49:20Z</time>
      </trkpt>
      <trkpt lat="45.64817" lon="6.66608">
        <ele>2506.29</ele>
        <time>2018-02-07T15:49:23Z</time>
      </trkpt>
      <trkpt lat="45.64815" lon="6.66601">
        <ele>2505.33</ele>
        <time>2018-02-07T15:49:26Z</time>
      </trkpt>
      <trkpt lat="45.64814" lon="6.66602">
        <ele>2503.89</ele>
        <time>2018-02-07T15:49:29Z</time>
      </trkpt>
      <trkpt lat="45.64814" lon="6.66601">
        <ele>2505.33</ele>
        <time>2018-02-07T15:49:41Z</time>
      </trkpt>
      <trkpt lat="45.64804" lon="6.66592">
        <ele>2502.45</ele>
        <time>2018-02-07T15:49:46Z</time>
      </trkpt>
      <trkpt lat="45.6479" lon="6.6658">
        <ele>2498.6</ele>
        <time>2018-02-07T15:49:51Z</time>
      </trkpt>
      <trkpt lat="45.64779" lon="6.66565">
        <ele>2496.68</ele>
        <time>2018-02-07T15:49:56Z</time>
      </trkpt>
      <trkpt lat="45.64766" lon="6.66548">
        <ele>2494.28</ele>
        <time>2018-02-07T15:50:02Z</time>
      </trkpt>
      <trkpt lat="45.64765" lon="6.66545">
        <ele>2493.8</ele>
        <time>2018-02-07T15:50:11Z</time>
      </trkpt>
      <trkpt lat="45.64765" lon="6.66544">
        <ele>2493.32</ele>
        <time>2018-02-07T15:50:12Z</time>
      </trkpt>
      <trkpt lat="45.64761" lon="6.6655">
        <ele>2491.87</ele>
        <time>2018-02-07T15:50:21Z</time>
      </trkpt>
      <trkpt lat="45.64761" lon="6.66552">
        <ele>2491.39</ele>
        <time>2018-02-07T15:50:24Z</time>
      </trkpt>
      <trkpt lat="45.64749" lon="6.66548">
        <ele>2489.47</ele>
        <time>2018-02-07T15:50:30Z</time>
      </trkpt>
      <trkpt lat="45.64748" lon="6.66536">
        <ele>2488.03</ele>
        <time>2018-02-07T15:50:33Z</time>
      </trkpt>
      <trkpt lat="45.64748" lon="6.66533">
        <ele>2487.07</ele>
        <time>2018-02-07T15:50:44Z</time>
      </trkpt>
      <trkpt lat="45.64748" lon="6.66533">
        <ele>2487.07</ele>
        <time>2018-02-07T15:51:06Z</time>
      </trkpt>
      <trkpt lat="45.64748" lon="6.66532">
        <ele>2487.07</ele>
        <time>2018-02-07T15:51:10Z</time>
      </trkpt>
      <trkpt lat="45.64743" lon="6.66526">
        <ele>2486.11</ele>
        <time>2018-02-07T15:51:13Z</time>
      </trkpt>
      <trkpt lat="45.64738" lon="6.66508">
        <ele>2481.78</ele>
        <time>2018-02-07T15:51:17Z</time>
      </trkpt>
      <trkpt lat="45.64737" lon="6.66505">
        <ele>2482.26</ele>
        <time>2018-02-07T15:51:18Z</time>
      </trkpt>
      <trkpt lat="45.64731" lon="6.66483">
        <ele>2478.9</ele>
        <time>2018-02-07T15:51:23Z</time>
      </trkpt>
      <trkpt lat="45.64731" lon="6.6646">
        <ele>2476.49</ele>
        <time>2018-02-07T15:51:34Z</time>
      </trkpt>
      <trkpt lat="45.64731" lon="6.66456">
        <ele>2476.01</ele>
        <time>2018-02-07T15:51:37Z</time>
      </trkpt>
      <trkpt lat="45.64723" lon="6.66459">
        <ele>2472.17</ele>
        <time>2018-02-07T15:51:41Z</time>
      </trkpt>
      <trkpt lat="45.64723" lon="6.6646">
        <ele>2472.17</ele>
        <time>2018-02-07T15:51:42Z</time>
      </trkpt>
      <trkpt lat="45.64716" lon="6.6647">
        <ele>2471.69</ele>
        <time>2018-02-07T15:51:52Z</time>
      </trkpt>
      <trkpt lat="45.64713" lon="6.66454">
        <ele>2469.28</ele>
        <time>2018-02-07T15:51:57Z</time>
      </trkpt>
      <trkpt lat="45.64715" lon="6.6645">
        <ele>2468.8</ele>
        <time>2018-02-07T15:51:58Z</time>
      </trkpt>
      <trkpt lat="45.6472" lon="6.66434">
        <ele>2466.4</ele>
        <time>2018-02-07T15:52:07Z</time>
      </trkpt>
      <trkpt lat="45.6472" lon="6.66435">
        <ele>2465.92</ele>
        <time>2018-02-07T15:52:27Z</time>
      </trkpt>
      <trkpt lat="45.6472" lon="6.66433">
        <ele>2465.92</ele>
        <time>2018-02-07T15:52:32Z</time>
      </trkpt>
      <trkpt lat="45.64716" lon="6.66424">
        <ele>2463.04</ele>
        <time>2018-02-07T15:52:39Z</time>
      </trkpt>
      <trkpt lat="45.64708" lon="6.66414">
        <ele>2459.19</ele>
        <time>2018-02-07T15:52:44Z</time>
      </trkpt>
      <trkpt lat="45.64708" lon="6.66411">
        <ele>2459.19</ele>
        <time>2018-02-07T15:52:45Z</time>
      </trkpt>
      <trkpt lat="45.64702" lon="6.66411">
        <ele>2456.31</ele>
        <time>2018-02-07T15:52:49Z</time>
      </trkpt>
      <trkpt lat="45.64696" lon="6.66406">
        <ele>2453.9</ele>
        <time>2018-02-07T15:52:55Z</time>
      </trkpt>
      <trkpt lat="45.64696" lon="6.66406">
        <ele>2453.42</ele>
        <time>2018-02-07T15:52:56Z</time>
      </trkpt>
      <trkpt lat="45.64685" lon="6.66409">
        <ele>2449.58</ele>
        <time>2018-02-07T15:53:00Z</time>
      </trkpt>
      <trkpt lat="45.64684" lon="6.6641">
        <ele>2450.06</ele>
        <time>2018-02-07T15:53:01Z</time>
      </trkpt>
      <trkpt lat="45.64683" lon="6.6641">
        <ele>2450.54</ele>
        <time>2018-02-07T15:53:03Z</time>
      </trkpt>
      <trkpt lat="45.64675" lon="6.66409">
        <ele>2448.62</ele>
        <time>2018-02-07T15:53:08Z</time>
      </trkpt>
      <trkpt lat="45.64678" lon="6.66398">
        <ele>2444.77</ele>
        <time>2018-02-07T15:53:11Z</time>
      </trkpt>
      <trkpt lat="45.6468" lon="6.66396">
        <ele>2444.77</ele>
        <time>2018-02-07T15:53:12Z</time>
      </trkpt>
      <trkpt lat="45.64673" lon="6.66397">
        <ele>2442.37</ele>
        <time>2018-02-07T15:53:16Z</time>
      </trkpt>
      <trkpt lat="45.6467" lon="6.66398">
        <ele>2441.89</ele>
        <time>2018-02-07T15:53:18Z</time>
      </trkpt>
      <trkpt lat="45.64663" lon="6.66396">
        <ele>2440.44</ele>
        <time>2018-02-07T15:53:24Z</time>
      </trkpt>
      <trkpt lat="45.64668" lon="6.66383">
        <ele>2436.6</ele>
        <time>2018-02-07T15:53:28Z</time>
      </trkpt>
      <trkpt lat="45.64669" lon="6.66382">
        <ele>2436.6</ele>
        <time>2018-02-07T15:53:29Z</time>
      </trkpt>
      <trkpt lat="45.6467" lon="6.66384">
        <ele>2436.6</ele>
        <time>2018-02-07T15:53:36Z</time>
      </trkpt>
      <trkpt lat="45.6467" lon="6.66376">
        <ele>2435.16</ele>
        <time>2018-02-07T15:53:40Z</time>
      </trkpt>
      <trkpt lat="45.64662" lon="6.66378">
        <ele>2431.31</ele>
        <time>2018-02-07T15:53:44Z</time>
      </trkpt>
      <trkpt lat="45.64659" lon="6.6638">
        <ele>2431.31</ele>
        <time>2018-02-07T15:53:53Z</time>
      </trkpt>
      <trkpt lat="45.64656" lon="6.66371">
        <ele>2427.47</ele>
        <time>2018-02-07T15:53:59Z</time>
      </trkpt>
      <trkpt lat="45.64658" lon="6.66366">
        <ele>2426.99</ele>
        <time>2018-02-07T15:54:01Z</time>
      </trkpt>
      <trkpt lat="45.64653" lon="6.66364">
        <ele>2423.14</ele>
        <time>2018-02-07T15:54:04Z</time>
      </trkpt>
      <trkpt lat="45.64652" lon="6.66366">
        <ele>2423.14</ele>
        <time>2018-02-07T15:54:05Z</time>
      </trkpt>
      <trkpt lat="45.64646" lon="6.66367">
        <ele>2422.18</ele>
        <time>2018-02-07T15:54:09Z</time>
      </trkpt>
      <trkpt lat="45.64637" lon="6.66369">
        <ele>2420.26</ele>
        <time>2018-02-07T15:54:13Z</time>
      </trkpt>
      <trkpt lat="45.64633" lon="6.66368">
        <ele>2419.78</ele>
        <time>2018-02-07T15:54:15Z</time>
      </trkpt>
      <trkpt lat="45.64637" lon="6.66353">
        <ele>2415.93</ele>
        <time>2018-02-07T15:54:19Z</time>
      </trkpt>
      <trkpt lat="45.6464" lon="6.66349">
        <ele>2415.93</ele>
        <time>2018-02-07T15:54:30Z</time>
      </trkpt>
      <trkpt lat="45.64631" lon="6.66344">
        <ele>2412.57</ele>
        <time>2018-02-07T15:54:34Z</time>
      </trkpt>
      <trkpt lat="45.64618" lon="6.66347">
        <ele>2409.2</ele>
        <time>2018-02-07T15:54:37Z</time>
      </trkpt>
      <trkpt lat="45.64615" lon="6.66349">
        <ele>2409.2</ele>
        <time>2018-02-07T15:54:38Z</time>
      </trkpt>
      <trkpt lat="45.64609" lon="6.6635">
        <ele>2409.2</ele>
        <time>2018-02-07T15:54:40Z</time>
      </trkpt>
      <trkpt lat="45.64599" lon="6.66351">
        <ele>2407.76</ele>
        <time>2018-02-07T15:54:43Z</time>
      </trkpt>
      <trkpt lat="45.64593" lon="6.6635">
        <ele>2406.8</ele>
        <time>2018-02-07T15:54:45Z</time>
      </trkpt>
      <trkpt lat="45.6459" lon="6.66334">
        <ele>2403.91</ele>
        <time>2018-02-07T15:54:49Z</time>
      </trkpt>
      <trkpt lat="45.64583" lon="6.6633">
        <ele>2400.55</ele>
        <time>2018-02-07T15:54:52Z</time>
      </trkpt>
      <trkpt lat="45.64582" lon="6.66333">
        <ele>2400.07</ele>
        <time>2018-02-07T15:55:01Z</time>
      </trkpt>
      <trkpt lat="45.64582" lon="6.66333">
        <ele>2400.07</ele>
        <time>2018-02-07T15:55:24Z</time>
      </trkpt>
      <trkpt lat="45.64581" lon="6.66333">
        <ele>2400.07</ele>
        <time>2018-02-07T15:55:25Z</time>
      </trkpt>
      <trkpt lat="45.6456" lon="6.66333">
        <ele>2397.18</ele>
        <time>2018-02-07T15:55:32Z</time>
      </trkpt>
      <trkpt lat="45.64556" lon="6.66334">
        <ele>2396.22</ele>
        <time>2018-02-07T15:55:33Z</time>
      </trkpt>
      <trkpt lat="45.64541" lon="6.66327">
        <ele>2392.38</ele>
        <time>2018-02-07T15:55:37Z</time>
      </trkpt>
      <trkpt lat="45.6453" lon="6.6632">
        <ele>2388.53</ele>
        <time>2018-02-07T15:55:40Z</time>
      </trkpt>
      <trkpt lat="45.64523" lon="6.66315">
        <ele>2385.17</ele>
        <time>2018-02-07T15:55:43Z</time>
      </trkpt>
      <trkpt lat="45.64524" lon="6.66309">
        <ele>2382.76</ele>
        <time>2018-02-07T15:55:48Z</time>
      </trkpt>
      <trkpt lat="45.64524" lon="6.66307">
        <ele>2383.25</ele>
        <time>2018-02-07T15:56:02Z</time>
      </trkpt>
      <trkpt lat="45.64522" lon="6.66306">
        <ele>2383.25</ele>
        <time>2018-02-07T15:56:16Z</time>
      </trkpt>
      <trkpt lat="45.64513" lon="6.66298">
        <ele>2379.88</ele>
        <time>2018-02-07T15:56:20Z</time>
      </trkpt>
      <trkpt lat="45.64507" lon="6.66291">
        <ele>2375.55</ele>
        <time>2018-02-07T15:56:23Z</time>
      </trkpt>
      <trkpt lat="45.64507" lon="6.66291">
        <ele>2375.55</ele>
        <time>2018-02-07T15:56:24Z</time>
      </trkpt>
      <trkpt lat="45.64506" lon="6.66291">
        <ele>2375.07</ele>
        <time>2018-02-07T15:56:25Z</time>
      </trkpt>
      <trkpt lat="45.64495" lon="6.66291">
        <ele>2372.19</ele>
        <time>2018-02-07T15:56:30Z</time>
      </trkpt>
      <trkpt lat="45.64493" lon="6.6629">
        <ele>2372.19</ele>
        <time>2018-02-07T15:56:31Z</time>
      </trkpt>
      <trkpt lat="45.64479" lon="6.66285">
        <ele>2366.9</ele>
        <time>2018-02-07T15:56:37Z</time>
      </trkpt>
      <trkpt lat="45.64476" lon="6.66287">
        <ele>2365.94</ele>
        <time>2018-02-07T15:56:39Z</time>
      </trkpt>
      <trkpt lat="45.64476" lon="6.66282">
        <ele>2365.46</ele>
        <time>2018-02-07T15:56:46Z</time>
      </trkpt>
      <trkpt lat="45.64474" lon="6.66282">
        <ele>2364.98</ele>
        <time>2018-02-07T15:57:07Z</time>
      </trkpt>
      <trkpt lat="45.6446" lon="6.66272">
        <ele>2360.65</ele>
        <time>2018-02-07T15:57:12Z</time>
      </trkpt>
      <trkpt lat="45.6445" lon="6.66268">
        <ele>2357.29</ele>
        <time>2018-02-07T15:57:15Z</time>
      </trkpt>
      <trkpt lat="45.64436" lon="6.66264">
        <ele>2353.44</ele>
        <time>2018-02-07T15:57:19Z</time>
      </trkpt>
      <trkpt lat="45.64419" lon="6.66266">
        <ele>2350.08</ele>
        <time>2018-02-07T15:57:23Z</time>
      </trkpt>
      <trkpt lat="45.64405" lon="6.66269">
        <ele>2347.2</ele>
        <time>2018-02-07T15:57:27Z</time>
      </trkpt>
      <trkpt lat="45.64402" lon="6.66268">
        <ele>2346.23</ele>
        <time>2018-02-07T15:57:28Z</time>
      </trkpt>
      <trkpt lat="45.64372" lon="6.66272">
        <ele>2342.87</ele>
        <time>2018-02-07T15:57:35Z</time>
      </trkpt>
      <trkpt lat="45.64355" lon="6.66281">
        <ele>2340.47</ele>
        <time>2018-02-07T15:57:39Z</time>
      </trkpt>
      <trkpt lat="45.64347" lon="6.66286">
        <ele>2339.02</ele>
        <time>2018-02-07T15:57:41Z</time>
      </trkpt>
      <trkpt lat="45.64325" lon="6.66285">
        <ele>2335.18</ele>
        <time>2018-02-07T15:57:47Z</time>
      </trkpt>
      <trkpt lat="45.64322" lon="6.66283">
        <ele>2334.7</ele>
        <time>2018-02-07T15:57:48Z</time>
      </trkpt>
      <trkpt lat="45.64306" lon="6.66291">
        <ele>2331.81</ele>
        <time>2018-02-07T15:57:53Z</time>
      </trkpt>
      <trkpt lat="45.64299" lon="6.66294">
        <ele>2330.37</ele>
        <time>2018-02-07T15:57:55Z</time>
      </trkpt>
      <trkpt lat="45.64292" lon="6.66298">
        <ele>2328.45</ele>
        <time>2018-02-07T15:57:57Z</time>
      </trkpt>
      <trkpt lat="45.64293" lon="6.66301">
        <ele>2328.45</ele>
        <time>2018-02-07T15:58:08Z</time>
      </trkpt>
      <trkpt lat="45.64293" lon="6.66302">
        <ele>2327.97</ele>
        <time>2018-02-07T15:58:11Z</time>
      </trkpt>
      <trkpt lat="45.6429" lon="6.66302">
        <ele>2327.49</ele>
        <time>2018-02-07T15:58:23Z</time>
      </trkpt>
      <trkpt lat="45.6429" lon="6.66301">
        <ele>2327.49</ele>
        <time>2018-02-07T15:58:48Z</time>
      </trkpt>
      <trkpt lat="45.64288" lon="6.66301">
        <ele>2327.97</ele>
        <time>2018-02-07T15:59:08Z</time>
      </trkpt>
      <trkpt lat="45.64282" lon="6.66298">
        <ele>2327.49</ele>
        <time>2018-02-07T15:59:12Z</time>
      </trkpt>
      <trkpt lat="45.64268" lon="6.66307">
        <ele>2323.16</ele>
        <time>2018-02-07T15:59:17Z</time>
      </trkpt>
      <trkpt lat="45.6426" lon="6.66308">
        <ele>2321.24</ele>
        <time>2018-02-07T15:59:19Z</time>
      </trkpt>
      <trkpt lat="45.64244" lon="6.66311">
        <ele>2314.99</ele>
        <time>2018-02-07T15:59:24Z</time>
      </trkpt>
      <trkpt lat="45.64243" lon="6.66309">
        <ele>2314.99</ele>
        <time>2018-02-07T15:59:25Z</time>
      </trkpt>
      <trkpt lat="45.64235" lon="6.66302">
        <ele>2312.11</ele>
        <time>2018-02-07T15:59:30Z</time>
      </trkpt>
      <trkpt lat="45.64235" lon="6.66302">
        <ele>2312.11</ele>
        <time>2018-02-07T15:59:31Z</time>
      </trkpt>
      <trkpt lat="45.64229" lon="6.66307">
        <ele>2309.22</ele>
        <time>2018-02-07T15:59:38Z</time>
      </trkpt>
      <trkpt lat="45.6422" lon="6.663">
        <ele>2305.86</ele>
        <time>2018-02-07T15:59:43Z</time>
      </trkpt>
      <trkpt lat="45.64221" lon="6.66298">
        <ele>2306.34</ele>
        <time>2018-02-07T15:59:52Z</time>
      </trkpt>
      <trkpt lat="45.64211" lon="6.66292">
        <ele>2304.42</ele>
        <time>2018-02-07T15:59:56Z</time>
      </trkpt>
      <trkpt lat="45.64206" lon="6.66286">
        <ele>2302.01</ele>
        <time>2018-02-07T15:59:58Z</time>
      </trkpt>
      <trkpt lat="45.64204" lon="6.66285">
        <ele>2301.53</ele>
        <time>2018-02-07T15:59:59Z</time>
      </trkpt>
      <trkpt lat="45.64202" lon="6.66282">
        <ele>2301.53</ele>
        <time>2018-02-07T16:00:00Z</time>
      </trkpt>
      <trkpt lat="45.642" lon="6.6628">
        <ele>2300.57</ele>
        <time>2018-02-07T16:00:01Z</time>
      </trkpt>
      <trkpt lat="45.64199" lon="6.66279">
        <ele>2300.09</ele>
        <time>2018-02-07T16:00:02Z</time>
      </trkpt>
      <trkpt lat="45.64196" lon="6.66277">
        <ele>2299.61</ele>
        <time>2018-02-07T16:00:03Z</time>
      </trkpt>
      <trkpt lat="45.64185" lon="6.6627">
        <ele>2297.69</ele>
        <time>2018-02-07T16:00:09Z</time>
      </trkpt>
      <trkpt lat="45.64183" lon="6.66273">
        <ele>2296.73</ele>
        <time>2018-02-07T16:00:10Z</time>
      </trkpt>
      <trkpt lat="45.64185" lon="6.66283">
        <ele>2293.84</ele>
        <time>2018-02-07T16:00:13Z</time>
      </trkpt>
      <trkpt lat="45.64182" lon="6.66287">
        <ele>2294.32</ele>
        <time>2018-02-07T16:00:15Z</time>
      </trkpt>
      <trkpt lat="45.64179" lon="6.66286">
        <ele>2293.36</ele>
        <time>2018-02-07T16:00:16Z</time>
      </trkpt>
      <trkpt lat="45.64177" lon="6.66284">
        <ele>2291.92</ele>
        <time>2018-02-07T16:00:17Z</time>
      </trkpt>
      <trkpt lat="45.64158" lon="6.66271">
        <ele>2289.52</ele>
        <time>2018-02-07T16:00:24Z</time>
      </trkpt>
      <trkpt lat="45.64155" lon="6.66268">
        <ele>2288.56</ele>
        <time>2018-02-07T16:00:25Z</time>
      </trkpt>
      <trkpt lat="45.64153" lon="6.66265">
        <ele>2287.59</ele>
        <time>2018-02-07T16:00:26Z</time>
      </trkpt>
      <trkpt lat="45.64151" lon="6.66263">
        <ele>2287.59</ele>
        <time>2018-02-07T16:00:27Z</time>
      </trkpt>
      <trkpt lat="45.64149" lon="6.66262">
        <ele>2287.59</ele>
        <time>2018-02-07T16:00:28Z</time>
      </trkpt>
      <trkpt lat="45.64147" lon="6.66262">
        <ele>2287.11</ele>
        <time>2018-02-07T16:00:29Z</time>
      </trkpt>
      <trkpt lat="45.64145" lon="6.66263">
        <ele>2286.15</ele>
        <time>2018-02-07T16:00:30Z</time>
      </trkpt>
      <trkpt lat="45.64144" lon="6.66267">
        <ele>2285.67</ele>
        <time>2018-02-07T16:00:31Z</time>
      </trkpt>
      <trkpt lat="45.6414" lon="6.66269">
        <ele>2283.75</ele>
        <time>2018-02-07T16:00:32Z</time>
      </trkpt>
      <trkpt lat="45.64137" lon="6.66266">
        <ele>2282.79</ele>
        <time>2018-02-07T16:00:33Z</time>
      </trkpt>
      <trkpt lat="45.64135" lon="6.66263">
        <ele>2282.79</ele>
        <time>2018-02-07T16:00:34Z</time>
      </trkpt>
      <trkpt lat="45.6413" lon="6.66259">
        <ele>2282.31</ele>
        <time>2018-02-07T16:00:37Z</time>
      </trkpt>
      <trkpt lat="45.64128" lon="6.66269">
        <ele>2278.94</ele>
        <time>2018-02-07T16:00:41Z</time>
      </trkpt>
      <trkpt lat="45.64133" lon="6.66269">
        <ele>2279.42</ele>
        <time>2018-02-07T16:00:50Z</time>
      </trkpt>
      <trkpt lat="45.64129" lon="6.66271">
        <ele>2277.98</ele>
        <time>2018-02-07T16:00:53Z</time>
      </trkpt>
      <trkpt lat="45.64128" lon="6.66269">
        <ele>2277.98</ele>
        <time>2018-02-07T16:00:58Z</time>
      </trkpt>
      <trkpt lat="45.64124" lon="6.6628">
        <ele>2275.1</ele>
        <time>2018-02-07T16:01:04Z</time>
      </trkpt>
      <trkpt lat="45.64118" lon="6.66282">
        <ele>2273.17</ele>
        <time>2018-02-07T16:01:06Z</time>
      </trkpt>
      <trkpt lat="45.64115" lon="6.6628">
        <ele>2272.21</ele>
        <time>2018-02-07T16:01:07Z</time>
      </trkpt>
      <trkpt lat="45.64112" lon="6.66278">
        <ele>2271.73</ele>
        <time>2018-02-07T16:01:08Z</time>
      </trkpt>
      <trkpt lat="45.64109" lon="6.66277">
        <ele>2271.25</ele>
        <time>2018-02-07T16:01:09Z</time>
      </trkpt>
      <trkpt lat="45.64107" lon="6.66279">
        <ele>2270.29</ele>
        <time>2018-02-07T16:01:10Z</time>
      </trkpt>
      <trkpt lat="45.64109" lon="6.66298">
        <ele>2268.37</ele>
        <time>2018-02-07T16:01:15Z</time>
      </trkpt>
      <trkpt lat="45.6411" lon="6.66303">
        <ele>2267.41</ele>
        <time>2018-02-07T16:01:16Z</time>
      </trkpt>
      <trkpt lat="45.6411" lon="6.66318">
        <ele>2264.52</ele>
        <time>2018-02-07T16:01:20Z</time>
      </trkpt>
      <trkpt lat="45.6411" lon="6.66323">
        <ele>2263.56</ele>
        <time>2018-02-07T16:01:28Z</time>
      </trkpt>
      <trkpt lat="45.64086" lon="6.66304">
        <ele>2260.2</ele>
        <time>2018-02-07T16:01:38Z</time>
      </trkpt>
      <trkpt lat="45.64083" lon="6.66302">
        <ele>2259.24</ele>
        <time>2018-02-07T16:01:39Z</time>
      </trkpt>
      <trkpt lat="45.64068" lon="6.66295">
        <ele>2257.31</ele>
        <time>2018-02-07T16:01:43Z</time>
      </trkpt>
      <trkpt lat="45.64065" lon="6.66293">
        <ele>2256.35</ele>
        <time>2018-02-07T16:01:44Z</time>
      </trkpt>
      <trkpt lat="45.64062" lon="6.6629">
        <ele>2255.87</ele>
        <time>2018-02-07T16:01:45Z</time>
      </trkpt>
      <trkpt lat="45.64059" lon="6.66288">
        <ele>2255.87</ele>
        <time>2018-02-07T16:01:46Z</time>
      </trkpt>
      <trkpt lat="45.64046" lon="6.66279">
        <ele>2253.47</ele>
        <time>2018-02-07T16:01:50Z</time>
      </trkpt>
      <trkpt lat="45.64043" lon="6.66281">
        <ele>2252.51</ele>
        <time>2018-02-07T16:01:51Z</time>
      </trkpt>
      <trkpt lat="45.64041" lon="6.66286">
        <ele>2251.06</ele>
        <time>2018-02-07T16:01:52Z</time>
      </trkpt>
      <trkpt lat="45.64039" lon="6.66287">
        <ele>2250.1</ele>
        <time>2018-02-07T16:01:53Z</time>
      </trkpt>
      <trkpt lat="45.64036" lon="6.66285">
        <ele>2248.66</ele>
        <time>2018-02-07T16:01:54Z</time>
      </trkpt>
      <trkpt lat="45.64033" lon="6.66286">
        <ele>2248.66</ele>
        <time>2018-02-07T16:01:55Z</time>
      </trkpt>
      <trkpt lat="45.64029" lon="6.66289">
        <ele>2248.18</ele>
        <time>2018-02-07T16:01:56Z</time>
      </trkpt>
      <trkpt lat="45.64025" lon="6.6629">
        <ele>2246.74</ele>
        <time>2018-02-07T16:01:57Z</time>
      </trkpt>
      <trkpt lat="45.64022" lon="6.66286">
        <ele>2244.33</ele>
        <time>2018-02-07T16:01:58Z</time>
      </trkpt>
      <trkpt lat="45.64019" lon="6.66283">
        <ele>2244.82</ele>
        <time>2018-02-07T16:01:59Z</time>
      </trkpt>
      <trkpt lat="45.64017" lon="6.66279">
        <ele>2244.33</ele>
        <time>2018-02-07T16:02:05Z</time>
      </trkpt>
      <trkpt lat="45.64015" lon="6.6628">
        <ele>2244.33</ele>
        <time>2018-02-07T16:02:07Z</time>
      </trkpt>
      <trkpt lat="45.64012" lon="6.66281">
        <ele>2243.85</ele>
        <time>2018-02-07T16:02:08Z</time>
      </trkpt>
      <trkpt lat="45.64008" lon="6.6628">
        <ele>2243.37</ele>
        <time>2018-02-07T16:02:09Z</time>
      </trkpt>
      <trkpt lat="45.64005" lon="6.66278">
        <ele>2241.93</ele>
        <time>2018-02-07T16:02:10Z</time>
      </trkpt>
      <trkpt lat="45.64001" lon="6.66277">
        <ele>2240.97</ele>
        <time>2018-02-07T16:02:11Z</time>
      </trkpt>
      <trkpt lat="45.63997" lon="6.66278">
        <ele>2240.49</ele>
        <time>2018-02-07T16:02:12Z</time>
      </trkpt>
      <trkpt lat="45.63993" lon="6.66277">
        <ele>2239.05</ele>
        <time>2018-02-07T16:02:13Z</time>
      </trkpt>
      <trkpt lat="45.63991" lon="6.66274">
        <ele>2237.61</ele>
        <time>2018-02-07T16:02:14Z</time>
      </trkpt>
      <trkpt lat="45.63989" lon="6.66273">
        <ele>2238.09</ele>
        <time>2018-02-07T16:02:15Z</time>
      </trkpt>
      <trkpt lat="45.63978" lon="6.66269">
        <ele>2236.16</ele>
        <time>2018-02-07T16:02:18Z</time>
      </trkpt>
      <trkpt lat="45.63974" lon="6.66262">
        <ele>2233.76</ele>
        <time>2018-02-07T16:02:21Z</time>
      </trkpt>
      <trkpt lat="45.63974" lon="6.66263">
        <ele>2233.76</ele>
        <time>2018-02-07T16:02:35Z</time>
      </trkpt>
      <trkpt lat="45.63972" lon="6.66266">
        <ele>2233.76</ele>
        <time>2018-02-07T16:02:37Z</time>
      </trkpt>
      <trkpt lat="45.63969" lon="6.6627">
        <ele>2232.8</ele>
        <time>2018-02-07T16:02:38Z</time>
      </trkpt>
      <trkpt lat="45.63967" lon="6.6627">
        <ele>2230.88</ele>
        <time>2018-02-07T16:02:39Z</time>
      </trkpt>
      <trkpt lat="45.63965" lon="6.6627">
        <ele>2230.88</ele>
        <time>2018-02-07T16:02:40Z</time>
      </trkpt>
      <trkpt lat="45.63961" lon="6.6627">
        <ele>2229.92</ele>
        <time>2018-02-07T16:02:41Z</time>
      </trkpt>
      <trkpt lat="45.63956" lon="6.66271">
        <ele>2228.95</ele>
        <time>2018-02-07T16:02:42Z</time>
      </trkpt>
      <trkpt lat="45.63951" lon="6.66272">
        <ele>2228.47</ele>
        <time>2018-02-07T16:02:43Z</time>
      </trkpt>
      <trkpt lat="45.63947" lon="6.66271">
        <ele>2226.55</ele>
        <time>2018-02-07T16:02:44Z</time>
      </trkpt>
      <trkpt lat="45.63944" lon="6.6627">
        <ele>2224.63</ele>
        <time>2018-02-07T16:02:45Z</time>
      </trkpt>
      <trkpt lat="45.63941" lon="6.6627">
        <ele>2225.11</ele>
        <time>2018-02-07T16:02:46Z</time>
      </trkpt>
      <trkpt lat="45.63937" lon="6.66269">
        <ele>2223.67</ele>
        <time>2018-02-07T16:02:47Z</time>
      </trkpt>
      <trkpt lat="45.63935" lon="6.66267">
        <ele>2222.71</ele>
        <time>2018-02-07T16:02:48Z</time>
      </trkpt>
      <trkpt lat="45.63933" lon="6.66266">
        <ele>2222.22</ele>
        <time>2018-02-07T16:02:49Z</time>
      </trkpt>
      <trkpt lat="45.6393" lon="6.66267">
        <ele>2222.22</ele>
        <time>2018-02-07T16:02:50Z</time>
      </trkpt>
      <trkpt lat="45.63926" lon="6.66267">
        <ele>2221.74</ele>
        <time>2018-02-07T16:02:51Z</time>
      </trkpt>
      <trkpt lat="45.63923" lon="6.66265">
        <ele>2220.3</ele>
        <time>2018-02-07T16:02:52Z</time>
      </trkpt>
      <trkpt lat="45.63919" lon="6.66264">
        <ele>2219.82</ele>
        <time>2018-02-07T16:02:53Z</time>
      </trkpt>
      <trkpt lat="45.63915" lon="6.66261">
        <ele>2218.86</ele>
        <time>2018-02-07T16:02:55Z</time>
      </trkpt>
      <trkpt lat="45.63906" lon="6.66269">
        <ele>2216.94</ele>
        <time>2018-02-07T16:02:58Z</time>
      </trkpt>
      <trkpt lat="45.63894" lon="6.6627">
        <ele>2213.57</ele>
        <time>2018-02-07T16:03:01Z</time>
      </trkpt>
      <trkpt lat="45.63884" lon="6.66271">
        <ele>2211.17</ele>
        <time>2018-02-07T16:03:03Z</time>
      </trkpt>
      <trkpt lat="45.63866" lon="6.66265">
        <ele>2209.25</ele>
        <time>2018-02-07T16:03:07Z</time>
      </trkpt>
      <trkpt lat="45.63853" lon="6.6626">
        <ele>2206.84</ele>
        <time>2018-02-07T16:03:10Z</time>
      </trkpt>
      <trkpt lat="45.63845" lon="6.66259">
        <ele>2205.88</ele>
        <time>2018-02-07T16:03:12Z</time>
      </trkpt>
      <trkpt lat="45.63842" lon="6.66256">
        <ele>2204.44</ele>
        <time>2018-02-07T16:03:15Z</time>
      </trkpt>
      <trkpt lat="45.63842" lon="6.66256">
        <ele>2204.92</ele>
        <time>2018-02-07T16:03:22Z</time>
      </trkpt>
      <trkpt lat="45.63831" lon="6.66257">
        <ele>2203.48</ele>
        <time>2018-02-07T16:03:28Z</time>
      </trkpt>
      <trkpt lat="45.63821" lon="6.66257">
        <ele>2201.08</ele>
        <time>2018-02-07T16:03:31Z</time>
      </trkpt>
      <trkpt lat="45.63818" lon="6.66257">
        <ele>2200.11</ele>
        <time>2018-02-07T16:03:32Z</time>
      </trkpt>
      <trkpt lat="45.63809" lon="6.66256">
        <ele>2198.19</ele>
        <time>2018-02-07T16:03:34Z</time>
      </trkpt>
      <trkpt lat="45.63796" lon="6.66252">
        <ele>2196.27</ele>
        <time>2018-02-07T16:03:37Z</time>
      </trkpt>
      <trkpt lat="45.6379" lon="6.66245">
        <ele>2192.42</ele>
        <time>2018-02-07T16:03:39Z</time>
      </trkpt>
      <trkpt lat="45.63789" lon="6.66242">
        <ele>2191.94</ele>
        <time>2018-02-07T16:03:40Z</time>
      </trkpt>
      <trkpt lat="45.63771" lon="6.6624">
        <ele>2189.54</ele>
        <time>2018-02-07T16:03:47Z</time>
      </trkpt>
      <trkpt lat="45.63766" lon="6.66241">
        <ele>2188.1</ele>
        <time>2018-02-07T16:03:48Z</time>
      </trkpt>
      <trkpt lat="45.63761" lon="6.66241">
        <ele>2185.69</ele>
        <time>2018-02-07T16:03:49Z</time>
      </trkpt>
      <trkpt lat="45.6376" lon="6.66245">
        <ele>2184.73</ele>
        <time>2018-02-07T16:03:56Z</time>
      </trkpt>
      <trkpt lat="45.63759" lon="6.66244">
        <ele>2184.73</ele>
        <time>2018-02-07T16:04:09Z</time>
      </trkpt>
      <trkpt lat="45.63758" lon="6.66247">
        <ele>2184.73</ele>
        <time>2018-02-07T16:04:23Z</time>
      </trkpt>
      <trkpt lat="45.63755" lon="6.66247">
        <ele>2184.73</ele>
        <time>2018-02-07T16:04:26Z</time>
      </trkpt>
      <trkpt lat="45.63753" lon="6.66246">
        <ele>2184.25</ele>
        <time>2018-02-07T16:04:28Z</time>
      </trkpt>
      <trkpt lat="45.63752" lon="6.66241">
        <ele>2182.81</ele>
        <time>2018-02-07T16:04:31Z</time>
      </trkpt>
      <trkpt lat="45.63751" lon="6.6624">
        <ele>2182.81</ele>
        <time>2018-02-07T16:04:54Z</time>
      </trkpt>
      <trkpt lat="45.6375" lon="6.66241">
        <ele>2182.33</ele>
        <time>2018-02-07T16:05:07Z</time>
      </trkpt>
      <trkpt lat="45.63745" lon="6.6624">
        <ele>2181.85</ele>
        <time>2018-02-07T16:05:10Z</time>
      </trkpt>
      <trkpt lat="45.63742" lon="6.66236">
        <ele>2180.41</ele>
        <time>2018-02-07T16:05:11Z</time>
      </trkpt>
      <trkpt lat="45.63735" lon="6.66229">
        <ele>2178</ele>
        <time>2018-02-07T16:05:13Z</time>
      </trkpt>
      <trkpt lat="45.63728" lon="6.66222">
        <ele>2176.56</ele>
        <time>2018-02-07T16:05:15Z</time>
      </trkpt>
      <trkpt lat="45.63724" lon="6.66219">
        <ele>2176.08</ele>
        <time>2018-02-07T16:05:16Z</time>
      </trkpt>
      <trkpt lat="45.63722" lon="6.66216">
        <ele>2175.6</ele>
        <time>2018-02-07T16:05:17Z</time>
      </trkpt>
      <trkpt lat="45.63719" lon="6.66213">
        <ele>2174.16</ele>
        <time>2018-02-07T16:05:18Z</time>
      </trkpt>
      <trkpt lat="45.63715" lon="6.66211">
        <ele>2174.16</ele>
        <time>2018-02-07T16:05:19Z</time>
      </trkpt>
      <trkpt lat="45.63713" lon="6.66208">
        <ele>2174.16</ele>
        <time>2018-02-07T16:05:20Z</time>
      </trkpt>
      <trkpt lat="45.63711" lon="6.66206">
        <ele>2172.24</ele>
        <time>2018-02-07T16:05:21Z</time>
      </trkpt>
      <trkpt lat="45.6371" lon="6.66205">
        <ele>2171.76</ele>
        <time>2018-02-07T16:05:22Z</time>
      </trkpt>
      <trkpt lat="45.63707" lon="6.66204">
        <ele>2171.76</ele>
        <time>2018-02-07T16:05:23Z</time>
      </trkpt>
      <trkpt lat="45.63705" lon="6.66204">
        <ele>2171.76</ele>
        <time>2018-02-07T16:05:24Z</time>
      </trkpt>
      <trkpt lat="45.63696" lon="6.66207">
        <ele>2169.83</ele>
        <time>2018-02-07T16:05:33Z</time>
      </trkpt>
      <trkpt lat="45.63682" lon="6.66192">
        <ele>2166.95</ele>
        <time>2018-02-07T16:05:41Z</time>
      </trkpt>
      <trkpt lat="45.63679" lon="6.66189">
        <ele>2165.99</ele>
        <time>2018-02-07T16:05:42Z</time>
      </trkpt>
      <trkpt lat="45.63676" lon="6.66186">
        <ele>2164.55</ele>
        <time>2018-02-07T16:05:43Z</time>
      </trkpt>
      <trkpt lat="45.63674" lon="6.66186">
        <ele>2165.99</ele>
        <time>2018-02-07T16:05:44Z</time>
      </trkpt>
      <trkpt lat="45.63671" lon="6.66185">
        <ele>2165.03</ele>
        <time>2018-02-07T16:05:45Z</time>
      </trkpt>
      <trkpt lat="45.63669" lon="6.66183">
        <ele>2164.55</ele>
        <time>2018-02-07T16:05:46Z</time>
      </trkpt>
      <trkpt lat="45.63667" lon="6.66181">
        <ele>2163.58</ele>
        <time>2018-02-07T16:05:47Z</time>
      </trkpt>
      <trkpt lat="45.63663" lon="6.66176">
        <ele>2162.14</ele>
        <time>2018-02-07T16:05:49Z</time>
      </trkpt>
      <trkpt lat="45.6366" lon="6.66165">
        <ele>2160.22</ele>
        <time>2018-02-07T16:05:52Z</time>
      </trkpt>
      <trkpt lat="45.63656" lon="6.66151">
        <ele>2158.78</ele>
        <time>2018-02-07T16:06:04Z</time>
      </trkpt>
      <trkpt lat="45.63645" lon="6.66161">
        <ele>2155.89</ele>
        <time>2018-02-07T16:06:11Z</time>
      </trkpt>
      <trkpt lat="45.63639" lon="6.66168">
        <ele>2154.93</ele>
        <time>2018-02-07T16:06:25Z</time>
      </trkpt>
      <trkpt lat="45.63639" lon="6.66169">
        <ele>2154.93</ele>
        <time>2018-02-07T16:06:26Z</time>
      </trkpt>
      <trkpt lat="45.63628" lon="6.66176">
        <ele>2153.49</ele>
        <time>2018-02-07T16:06:32Z</time>
      </trkpt>
      <trkpt lat="45.63617" lon="6.66184">
        <ele>2152.53</ele>
        <time>2018-02-07T16:06:45Z</time>
      </trkpt>
      <trkpt lat="45.63599" lon="6.66195">
        <ele>2150.61</ele>
        <time>2018-02-07T16:06:58Z</time>
      </trkpt>
      <trkpt lat="45.6359" lon="6.66195">
        <ele>2150.61</ele>
        <time>2018-02-07T16:07:10Z</time>
      </trkpt>
      <trkpt lat="45.63587" lon="6.66194">
        <ele>2151.09</ele>
        <time>2018-02-07T16:07:14Z</time>
      </trkpt>
      <trkpt lat="45.63561" lon="6.66198">
        <ele>2148.68</ele>
        <time>2018-02-07T16:07:28Z</time>
      </trkpt>
      <trkpt lat="45.63537" lon="6.66208">
        <ele>2146.28</ele>
        <time>2018-02-07T16:07:37Z</time>
      </trkpt>
      <trkpt lat="45.63533" lon="6.66212">
        <ele>2145.8</ele>
        <time>2018-02-07T16:07:38Z</time>
      </trkpt>
      <trkpt lat="45.63526" lon="6.66227">
        <ele>2142.92</ele>
        <time>2018-02-07T16:07:42Z</time>
      </trkpt>
      <trkpt lat="45.63517" lon="6.6624">
        <ele>2140.03</ele>
        <time>2018-02-07T16:07:47Z</time>
      </trkpt>
      <trkpt lat="45.63515" lon="6.6624">
        <ele>2140.03</ele>
        <time>2018-02-07T16:07:48Z</time>
      </trkpt>
      <trkpt lat="45.63511" lon="6.6623">
        <ele>2136.67</ele>
        <time>2018-02-07T16:07:52Z</time>
      </trkpt>
      <trkpt lat="45.6351" lon="6.66232">
        <ele>2135.23</ele>
        <time>2018-02-07T16:07:53Z</time>
      </trkpt>
      <trkpt lat="45.63509" lon="6.66234">
        <ele>2134.74</ele>
        <time>2018-02-07T16:07:54Z</time>
      </trkpt>
      <trkpt lat="45.63508" lon="6.66235">
        <ele>2134.26</ele>
        <time>2018-02-07T16:07:55Z</time>
      </trkpt>
      <trkpt lat="45.63506" lon="6.66238">
        <ele>2134.26</ele>
        <time>2018-02-07T16:07:56Z</time>
      </trkpt>
      <trkpt lat="45.63504" lon="6.66243">
        <ele>2132.82</ele>
        <time>2018-02-07T16:07:59Z</time>
      </trkpt>
      <trkpt lat="45.63496" lon="6.66253">
        <ele>2130.9</ele>
        <time>2018-02-07T16:08:04Z</time>
      </trkpt>
      <trkpt lat="45.63485" lon="6.66262">
        <ele>2128.02</ele>
        <time>2018-02-07T16:08:07Z</time>
      </trkpt>
      <trkpt lat="45.63467" lon="6.66275">
        <ele>2124.65</ele>
        <time>2018-02-07T16:08:13Z</time>
      </trkpt>
      <trkpt lat="45.63448" lon="6.66287">
        <ele>2120.81</ele>
        <time>2018-02-07T16:08:21Z</time>
      </trkpt>
      <trkpt lat="45.63445" lon="6.6629">
        <ele>2120.32</ele>
        <time>2018-02-07T16:08:30Z</time>
      </trkpt>
      <trkpt lat="45.63433" lon="6.66274">
        <ele>2116.96</ele>
        <time>2018-02-07T16:08:35Z</time>
      </trkpt>
      <trkpt lat="45.63422" lon="6.66257">
        <ele>2114.56</ele>
        <time>2018-02-07T16:08:38Z</time>
      </trkpt>
      <trkpt lat="45.63415" lon="6.66243">
        <ele>2113.6</ele>
        <time>2018-02-07T16:08:41Z</time>
      </trkpt>
      <trkpt lat="45.63409" lon="6.66244">
        <ele>2110.71</ele>
        <time>2018-02-07T16:08:45Z</time>
      </trkpt>
      <trkpt lat="45.63413" lon="6.66245">
        <ele>2111.19</ele>
        <time>2018-02-07T16:08:59Z</time>
      </trkpt>
      <trkpt lat="45.63411" lon="6.66247">
        <ele>2111.19</ele>
        <time>2018-02-07T16:09:18Z</time>
      </trkpt>
      <trkpt lat="45.63395" lon="6.66256">
        <ele>2106.39</ele>
        <time>2018-02-07T16:09:23Z</time>
      </trkpt>
      <trkpt lat="45.63395" lon="6.66257">
        <ele>2105.91</ele>
        <time>2018-02-07T16:09:24Z</time>
      </trkpt>
      <trkpt lat="45.63394" lon="6.66258">
        <ele>2106.39</ele>
        <time>2018-02-07T16:09:25Z</time>
      </trkpt>
      <trkpt lat="45.63389" lon="6.66264">
        <ele>2104.94</ele>
        <time>2018-02-07T16:09:28Z</time>
      </trkpt>
      <trkpt lat="45.63385" lon="6.66272">
        <ele>2102.54</ele>
        <time>2018-02-07T16:09:30Z</time>
      </trkpt>
      <trkpt lat="45.63377" lon="6.66295">
        <ele>2100.14</ele>
        <time>2018-02-07T16:09:36Z</time>
      </trkpt>
      <trkpt lat="45.63376" lon="6.66305">
        <ele>2098.7</ele>
        <time>2018-02-07T16:09:40Z</time>
      </trkpt>
      <trkpt lat="45.63366" lon="6.66325">
        <ele>2095.81</ele>
        <time>2018-02-07T16:09:49Z</time>
      </trkpt>
      <trkpt lat="45.63363" lon="6.66333">
        <ele>2095.33</ele>
        <time>2018-02-07T16:09:52Z</time>
      </trkpt>
      <trkpt lat="45.63361" lon="6.66339">
        <ele>2094.37</ele>
        <time>2018-02-07T16:09:56Z</time>
      </trkpt>
      <trkpt lat="45.63356" lon="6.66355">
        <ele>2092.45</ele>
        <time>2018-02-07T16:10:04Z</time>
      </trkpt>
      <trkpt lat="45.63355" lon="6.66365">
        <ele>2091.49</ele>
        <time>2018-02-07T16:10:08Z</time>
      </trkpt>
      <trkpt lat="45.63355" lon="6.66368">
        <ele>2091</ele>
        <time>2018-02-07T16:10:09Z</time>
      </trkpt>
      <trkpt lat="45.63354" lon="6.6637">
        <ele>2090.52</ele>
        <time>2018-02-07T16:10:10Z</time>
      </trkpt>
      <trkpt lat="45.63354" lon="6.66373">
        <ele>2090.52</ele>
        <time>2018-02-07T16:10:11Z</time>
      </trkpt>
      <trkpt lat="45.63349" lon="6.66402">
        <ele>2087.16</ele>
        <time>2018-02-07T16:10:18Z</time>
      </trkpt>
      <trkpt lat="45.63346" lon="6.66429">
        <ele>2084.28</ele>
        <time>2018-02-07T16:10:26Z</time>
      </trkpt>
      <trkpt lat="45.63346" lon="6.66436">
        <ele>2083.31</ele>
        <time>2018-02-07T16:10:28Z</time>
      </trkpt>
      <trkpt lat="45.63344" lon="6.66436">
        <ele>2083.79</ele>
        <time>2018-02-07T16:10:35Z</time>
      </trkpt>
      <trkpt lat="45.63343" lon="6.66436">
        <ele>2083.31</ele>
        <time>2018-02-07T16:10:41Z</time>
      </trkpt>
      <trkpt lat="45.63339" lon="6.66423">
        <ele>2081.39</ele>
        <time>2018-02-07T16:10:51Z</time>
      </trkpt>
      <trkpt lat="45.63325" lon="6.66403">
        <ele>2079.47</ele>
        <time>2018-02-07T16:10:58Z</time>
      </trkpt>
      <trkpt lat="45.63303" lon="6.66395">
        <ele>2077.55</ele>
        <time>2018-02-07T16:11:05Z</time>
      </trkpt>
      <trkpt lat="45.63291" lon="6.66399">
        <ele>2073.7</ele>
        <time>2018-02-07T16:11:09Z</time>
      </trkpt>
      <trkpt lat="45.63292" lon="6.66403">
        <ele>2072.74</ele>
        <time>2018-02-07T16:11:13Z</time>
      </trkpt>
      <trkpt lat="45.63275" lon="6.6641">
        <ele>2069.86</ele>
        <time>2018-02-07T16:11:21Z</time>
      </trkpt>
      <trkpt lat="45.63276" lon="6.66416">
        <ele>2068.41</ele>
        <time>2018-02-07T16:11:24Z</time>
      </trkpt>
      <trkpt lat="45.63284" lon="6.66436">
        <ele>2066.49</ele>
        <time>2018-02-07T16:11:35Z</time>
      </trkpt>
      <trkpt lat="45.63294" lon="6.6646">
        <ele>2064.09</ele>
        <time>2018-02-07T16:11:41Z</time>
      </trkpt>
      <trkpt lat="45.63297" lon="6.66471">
        <ele>2063.13</ele>
        <time>2018-02-07T16:11:43Z</time>
      </trkpt>
      <trkpt lat="45.63299" lon="6.66485">
        <ele>2060.72</ele>
        <time>2018-02-07T16:11:45Z</time>
      </trkpt>
      <trkpt lat="45.633" lon="6.6649">
        <ele>2060.72</ele>
        <time>2018-02-07T16:11:46Z</time>
      </trkpt>
      <trkpt lat="45.63303" lon="6.66502">
        <ele>2060.72</ele>
        <time>2018-02-07T16:11:52Z</time>
      </trkpt>
      <trkpt lat="45.63297" lon="6.66502">
        <ele>2059.28</ele>
        <time>2018-02-07T16:11:56Z</time>
      </trkpt>
      <trkpt lat="45.63293" lon="6.66496">
        <ele>2058.32</ele>
        <time>2018-02-07T16:11:59Z</time>
      </trkpt>
      <trkpt lat="45.6329" lon="6.66496">
        <ele>2058.8</ele>
        <time>2018-02-07T16:12:01Z</time>
      </trkpt>
      <trkpt lat="45.63289" lon="6.66498">
        <ele>2057.84</ele>
        <time>2018-02-07T16:12:02Z</time>
      </trkpt>
      <trkpt lat="45.63291" lon="6.6652">
        <ele>2054.96</ele>
        <time>2018-02-07T16:12:09Z</time>
      </trkpt>
      <trkpt lat="45.63291" lon="6.66527">
        <ele>2053.03</ele>
        <time>2018-02-07T16:12:10Z</time>
      </trkpt>
      <trkpt lat="45.63288" lon="6.66553">
        <ele>2049.67</ele>
        <time>2018-02-07T16:12:14Z</time>
      </trkpt>
      <trkpt lat="45.63288" lon="6.66554">
        <ele>2050.15</ele>
        <time>2018-02-07T16:12:16Z</time>
      </trkpt>
      <trkpt lat="45.63284" lon="6.66569">
        <ele>2047.26</ele>
        <time>2018-02-07T16:12:22Z</time>
      </trkpt>
      <trkpt lat="45.63278" lon="6.666">
        <ele>2043.9</ele>
        <time>2018-02-07T16:12:32Z</time>
      </trkpt>
      <trkpt lat="45.63277" lon="6.6662">
        <ele>2041.98</ele>
        <time>2018-02-07T16:12:37Z</time>
      </trkpt>
      <trkpt lat="45.63277" lon="6.66625">
        <ele>2041.98</ele>
        <time>2018-02-07T16:12:50Z</time>
      </trkpt>
      <trkpt lat="45.63277" lon="6.66626">
        <ele>2041.98</ele>
        <time>2018-02-07T16:13:08Z</time>
      </trkpt>
      <trkpt lat="45.63269" lon="6.66629">
        <ele>2040.54</ele>
        <time>2018-02-07T16:13:15Z</time>
      </trkpt>
      <trkpt lat="45.63268" lon="6.66634">
        <ele>2039.57</ele>
        <time>2018-02-07T16:13:17Z</time>
      </trkpt>
      <trkpt lat="45.63265" lon="6.66635">
        <ele>2039.09</ele>
        <time>2018-02-07T16:13:19Z</time>
      </trkpt>
      <trkpt lat="45.63263" lon="6.66634">
        <ele>2038.61</ele>
        <time>2018-02-07T16:13:22Z</time>
      </trkpt>
      <trkpt lat="45.63261" lon="6.66642">
        <ele>2036.21</ele>
        <time>2018-02-07T16:13:32Z</time>
      </trkpt>
      <trkpt lat="45.63261" lon="6.66646">
        <ele>2035.73</ele>
        <time>2018-02-07T16:13:33Z</time>
      </trkpt>
      <trkpt lat="45.63268" lon="6.66655">
        <ele>2032.36</ele>
        <time>2018-02-07T16:13:37Z</time>
      </trkpt>
      <trkpt lat="45.63267" lon="6.66657">
        <ele>2032.36</ele>
        <time>2018-02-07T16:13:41Z</time>
      </trkpt>
      <trkpt lat="45.63256" lon="6.66664">
        <ele>2031.4</ele>
        <time>2018-02-07T16:13:46Z</time>
      </trkpt>
      <trkpt lat="45.63247" lon="6.66667">
        <ele>2029.48</ele>
        <time>2018-02-07T16:13:50Z</time>
      </trkpt>
      <trkpt lat="45.63243" lon="6.66686">
        <ele>2026.6</ele>
        <time>2018-02-07T16:13:55Z</time>
      </trkpt>
      <trkpt lat="45.63243" lon="6.66691">
        <ele>2026.6</ele>
        <time>2018-02-07T16:13:56Z</time>
      </trkpt>
      <trkpt lat="45.63242" lon="6.66696">
        <ele>2026.12</ele>
        <time>2018-02-07T16:13:57Z</time>
      </trkpt>
      <trkpt lat="45.6324" lon="6.66705">
        <ele>2025.15</ele>
        <time>2018-02-07T16:13:59Z</time>
      </trkpt>
      <trkpt lat="45.63232" lon="6.66739">
        <ele>2022.27</ele>
        <time>2018-02-07T16:14:05Z</time>
      </trkpt>
      <trkpt lat="45.63228" lon="6.66756">
        <ele>2020.35</ele>
        <time>2018-02-07T16:14:08Z</time>
      </trkpt>
      <trkpt lat="45.63225" lon="6.66767">
        <ele>2019.39</ele>
        <time>2018-02-07T16:14:10Z</time>
      </trkpt>
      <trkpt lat="45.63223" lon="6.66772">
        <ele>2018.91</ele>
        <time>2018-02-07T16:14:11Z</time>
      </trkpt>
      <trkpt lat="45.63222" lon="6.66777">
        <ele>2018.43</ele>
        <time>2018-02-07T16:14:12Z</time>
      </trkpt>
      <trkpt lat="45.63219" lon="6.66804">
        <ele>2015.54</ele>
        <time>2018-02-07T16:14:17Z</time>
      </trkpt>
      <trkpt lat="45.63214" lon="6.66833">
        <ele>2013.14</ele>
        <time>2018-02-07T16:14:22Z</time>
      </trkpt>
      <trkpt lat="45.63213" lon="6.66838">
        <ele>2012.66</ele>
        <time>2018-02-07T16:14:23Z</time>
      </trkpt>
      <trkpt lat="45.6321" lon="6.66863">
        <ele>2010.25</ele>
        <time>2018-02-07T16:14:27Z</time>
      </trkpt>
      <trkpt lat="45.63209" lon="6.6687">
        <ele>2009.77</ele>
        <time>2018-02-07T16:14:28Z</time>
      </trkpt>
      <trkpt lat="45.63208" lon="6.66878">
        <ele>2008.33</ele>
        <time>2018-02-07T16:14:29Z</time>
      </trkpt>
      <trkpt lat="45.63207" lon="6.66886">
        <ele>2008.33</ele>
        <time>2018-02-07T16:14:30Z</time>
      </trkpt>
      <trkpt lat="45.63206" lon="6.66894">
        <ele>2007.37</ele>
        <time>2018-02-07T16:14:31Z</time>
      </trkpt>
      <trkpt lat="45.63204" lon="6.669">
        <ele>2006.89</ele>
        <time>2018-02-07T16:14:32Z</time>
      </trkpt>
      <trkpt lat="45.63204" lon="6.66906">
        <ele>2006.41</ele>
        <time>2018-02-07T16:14:33Z</time>
      </trkpt>
      <trkpt lat="45.63205" lon="6.66911">
        <ele>2005.93</ele>
        <time>2018-02-07T16:14:34Z</time>
      </trkpt>
      <trkpt lat="45.63208" lon="6.66913">
        <ele>2005.93</ele>
        <time>2018-02-07T16:14:41Z</time>
      </trkpt>
      <trkpt lat="45.63207" lon="6.66916">
        <ele>2005.45</ele>
        <time>2018-02-07T16:14:43Z</time>
      </trkpt>
      <trkpt lat="45.63207" lon="6.66919">
        <ele>2005.45</ele>
        <time>2018-02-07T16:14:44Z</time>
      </trkpt>
      <trkpt lat="45.63208" lon="6.66921">
        <ele>2004.97</ele>
        <time>2018-02-07T16:14:45Z</time>
      </trkpt>
      <trkpt lat="45.6321" lon="6.66922">
        <ele>2003.52</ele>
        <time>2018-02-07T16:14:55Z</time>
      </trkpt>
      <trkpt lat="45.6321" lon="6.66921">
        <ele>2003.04</ele>
        <time>2018-02-07T16:15:15Z</time>
      </trkpt>
      <trkpt lat="45.6321" lon="6.66921">
        <ele>2003.04</ele>
        <time>2018-02-07T16:15:31Z</time>
      </trkpt>
      <trkpt lat="45.63211" lon="6.66921">
        <ele>2003.04</ele>
        <time>2018-02-07T16:15:50Z</time>
      </trkpt>
      <trkpt lat="45.63213" lon="6.66918">
        <ele>2003.04</ele>
        <time>2018-02-07T16:16:10Z</time>
      </trkpt>
      <trkpt lat="45.63214" lon="6.66913">
        <ele>2003.52</ele>
        <time>2018-02-07T16:16:23Z</time>
      </trkpt>
      <trkpt lat="45.63215" lon="6.66919">
        <ele>2002.56</ele>
        <time>2018-02-07T16:16:44Z</time>
      </trkpt>
      <trkpt lat="45.63218" lon="6.66921">
        <ele>2003.04</ele>
        <time>2018-02-07T16:17:12Z</time>
      </trkpt>
      <trkpt lat="45.63217" lon="6.66914">
        <ele>2003.04</ele>
        <time>2018-02-07T16:17:28Z</time>
      </trkpt>
    </trkseg>
  </trk>
  <trk>
    <name><![CDATA[PIERRA MENTA TOUR]]></name>
    <trkseg>
      <trkpt lat="45.63208" lon="6.66908">
        <ele>2018.91</ele>
        <time>2018-02-08T07:51:24Z</time>
      </trkpt>
      <trkpt lat="45.6321" lon="6.66911">
        <ele>2018.91</ele>
        <time>2018-02-08T07:51:37Z</time>
      </trkpt>
      <trkpt lat="45.63208" lon="6.66911">
        <ele>2019.87</ele>
        <time>2018-02-08T07:52:03Z</time>
      </trkpt>
      <trkpt lat="45.63208" lon="6.66912">
        <ele>2019.39</ele>
        <time>2018-02-08T07:52:28Z</time>
      </trkpt>
      <trkpt lat="45.63208" lon="6.66912">
        <ele>2018.91</ele>
        <time>2018-02-08T07:52:51Z</time>
      </trkpt>
      <trkpt lat="45.63207" lon="6.66911">
        <ele>2019.39</ele>
        <time>2018-02-08T07:53:12Z</time>
      </trkpt>
      <trkpt lat="45.63209" lon="6.66914">
        <ele>2019.87</ele>
        <time>2018-02-08T07:53:34Z</time>
      </trkpt>
      <trkpt lat="45.63208" lon="6.6691">
        <ele>2019.87</ele>
        <time>2018-02-08T07:54:03Z</time>
      </trkpt>
      <trkpt lat="45.63208" lon="6.669">
        <ele>2020.35</ele>
        <time>2018-02-08T07:54:15Z</time>
      </trkpt>
      <trkpt lat="45.63206" lon="6.66886">
        <ele>2021.79</ele>
        <time>2018-02-08T07:54:30Z</time>
      </trkpt>
      <trkpt lat="45.63205" lon="6.66872">
        <ele>2022.27</ele>
        <time>2018-02-08T07:54:45Z</time>
      </trkpt>
      <trkpt lat="45.63203" lon="6.66864">
        <ele>2023.23</ele>
        <time>2018-02-08T07:54:56Z</time>
      </trkpt>
      <trkpt lat="45.63202" lon="6.66851">
        <ele>2023.71</ele>
        <time>2018-02-08T07:55:09Z</time>
      </trkpt>
      <trkpt lat="45.63202" lon="6.66839">
        <ele>2025.15</ele>
        <time>2018-02-08T07:55:22Z</time>
      </trkpt>
      <trkpt lat="45.63201" lon="6.66823">
        <ele>2026.12</ele>
        <time>2018-02-08T07:55:38Z</time>
      </trkpt>
      <trkpt lat="45.632" lon="6.66808">
        <ele>2027.56</ele>
        <time>2018-02-08T07:55:52Z</time>
      </trkpt>
      <trkpt lat="45.63199" lon="6.66797">
        <ele>2027.56</ele>
        <time>2018-02-08T07:56:05Z</time>
      </trkpt>
      <trkpt lat="45.63198" lon="6.66781">
        <ele>2029</ele>
        <time>2018-02-08T07:56:19Z</time>
      </trkpt>
      <trkpt lat="45.63198" lon="6.66774">
        <ele>2029.48</ele>
        <time>2018-02-08T07:56:25Z</time>
      </trkpt>
      <trkpt lat="45.63197" lon="6.66755">
        <ele>2029.96</ele>
        <time>2018-02-08T07:56:42Z</time>
      </trkpt>
      <trkpt lat="45.63197" lon="6.66742">
        <ele>2031.4</ele>
        <time>2018-02-08T07:56:57Z</time>
      </trkpt>
      <trkpt lat="45.63195" lon="6.66727">
        <ele>2032.84</ele>
        <time>2018-02-08T07:57:13Z</time>
      </trkpt>
      <trkpt lat="45.63194" lon="6.66716">
        <ele>2034.77</ele>
        <time>2018-02-08T07:57:27Z</time>
      </trkpt>
      <trkpt lat="45.63189" lon="6.66707">
        <ele>2037.17</ele>
        <time>2018-02-08T07:57:43Z</time>
      </trkpt>
      <trkpt lat="45.63181" lon="6.66703">
        <ele>2039.09</ele>
        <time>2018-02-08T07:57:59Z</time>
      </trkpt>
      <trkpt lat="45.63172" lon="6.66703">
        <ele>2041.5</ele>
        <time>2018-02-08T07:58:11Z</time>
      </trkpt>
      <trkpt lat="45.63162" lon="6.66703">
        <ele>2042.94</ele>
        <time>2018-02-08T07:58:27Z</time>
      </trkpt>
      <trkpt lat="45.63153" lon="6.66699">
        <ele>2043.42</ele>
        <time>2018-02-08T07:58:41Z</time>
      </trkpt>
      <trkpt lat="45.63145" lon="6.66695">
        <ele>2045.34</ele>
        <time>2018-02-08T07:58:54Z</time>
      </trkpt>
      <trkpt lat="45.63138" lon="6.66695">
        <ele>2047.26</ele>
        <time>2018-02-08T07:59:10Z</time>
      </trkpt>
      <trkpt lat="45.63131" lon="6.66692">
        <ele>2048.23</ele>
        <time>2018-02-08T07:59:24Z</time>
      </trkpt>
      <trkpt lat="45.63124" lon="6.66685">
        <ele>2048.23</ele>
        <time>2018-02-08T07:59:38Z</time>
      </trkpt>
      <trkpt lat="45.63119" lon="6.66679">
        <ele>2050.15</ele>
        <time>2018-02-08T07:59:54Z</time>
      </trkpt>
      <trkpt lat="45.63117" lon="6.66676">
        <ele>2051.11</ele>
        <time>2018-02-08T08:00:13Z</time>
      </trkpt>
      <trkpt lat="45.63108" lon="6.6668">
        <ele>2053.51</ele>
        <time>2018-02-08T08:00:28Z</time>
      </trkpt>
      <trkpt lat="45.63103" lon="6.66693">
        <ele>2054.96</ele>
        <time>2018-02-08T08:00:43Z</time>
      </trkpt>
      <trkpt lat="45.63099" lon="6.66704">
        <ele>2055.92</ele>
        <time>2018-02-08T08:00:57Z</time>
      </trkpt>
      <trkpt lat="45.63095" lon="6.66717">
        <ele>2055.44</ele>
        <time>2018-02-08T08:01:11Z</time>
      </trkpt>
      <trkpt lat="45.63093" lon="6.6673">
        <ele>2054.47</ele>
        <time>2018-02-08T08:01:24Z</time>
      </trkpt>
      <trkpt lat="45.63091" lon="6.66744">
        <ele>2053.51</ele>
        <time>2018-02-08T08:01:38Z</time>
      </trkpt>
      <trkpt lat="45.63087" lon="6.66756">
        <ele>2053.51</ele>
        <time>2018-02-08T08:01:52Z</time>
      </trkpt>
      <trkpt lat="45.63081" lon="6.6677">
        <ele>2054.96</ele>
        <time>2018-02-08T08:02:12Z</time>
      </trkpt>
      <trkpt lat="45.63075" lon="6.66784">
        <ele>2057.36</ele>
        <time>2018-02-08T08:02:29Z</time>
      </trkpt>
      <trkpt lat="45.6307" lon="6.66794">
        <ele>2058.8</ele>
        <time>2018-02-08T08:02:43Z</time>
      </trkpt>
      <trkpt lat="45.63067" lon="6.66806">
        <ele>2060.72</ele>
        <time>2018-02-08T08:02:57Z</time>
      </trkpt>
      <trkpt lat="45.63063" lon="6.6682">
        <ele>2061.68</ele>
        <time>2018-02-08T08:03:13Z</time>
      </trkpt>
      <trkpt lat="45.6306" lon="6.66833">
        <ele>2063.13</ele>
        <time>2018-02-08T08:03:27Z</time>
      </trkpt>
      <trkpt lat="45.63057" lon="6.66846">
        <ele>2064.57</ele>
        <time>2018-02-08T08:03:42Z</time>
      </trkpt>
      <trkpt lat="45.63054" lon="6.66861">
        <ele>2065.05</ele>
        <time>2018-02-08T08:05:17Z</time>
      </trkpt>
      <trkpt lat="45.63054" lon="6.66859">
        <ele>2065.05</ele>
        <time>2018-02-08T08:05:49Z</time>
      </trkpt>
      <trkpt lat="45.63054" lon="6.66856">
        <ele>2065.05</ele>
        <time>2018-02-08T08:06:09Z</time>
      </trkpt>
      <trkpt lat="45.63056" lon="6.66847">
        <ele>2065.53</ele>
        <time>2018-02-08T08:06:21Z</time>
      </trkpt>
      <trkpt lat="45.63061" lon="6.66834">
        <ele>2065.05</ele>
        <time>2018-02-08T08:06:34Z</time>
      </trkpt>
      <trkpt lat="45.63064" lon="6.66826">
        <ele>2062.65</ele>
        <time>2018-02-08T08:06:40Z</time>
      </trkpt>
      <trkpt lat="45.63066" lon="6.66817">
        <ele>2061.68</ele>
        <time>2018-02-08T08:06:53Z</time>
      </trkpt>
      <trkpt lat="45.63069" lon="6.66805">
        <ele>2060.72</ele>
        <time>2018-02-08T08:07:05Z</time>
      </trkpt>
      <trkpt lat="45.63075" lon="6.66787">
        <ele>2057.84</ele>
        <time>2018-02-08T08:07:19Z</time>
      </trkpt>
      <trkpt lat="45.63074" lon="6.66785">
        <ele>2056.88</ele>
        <time>2018-02-08T08:07:31Z</time>
      </trkpt>
      <trkpt lat="45.63079" lon="6.66775">
        <ele>2056.4</ele>
        <time>2018-02-08T08:07:44Z</time>
      </trkpt>
      <trkpt lat="45.63084" lon="6.66762">
        <ele>2055.44</ele>
        <time>2018-02-08T08:07:59Z</time>
      </trkpt>
      <trkpt lat="45.63092" lon="6.66746">
        <ele>2053.03</ele>
        <time>2018-02-08T08:08:15Z</time>
      </trkpt>
      <trkpt lat="45.63094" lon="6.66731">
        <ele>2054.47</ele>
        <time>2018-02-08T08:08:31Z</time>
      </trkpt>
      <trkpt lat="45.63094" lon="6.66723">
        <ele>2054.96</ele>
        <time>2018-02-08T08:08:42Z</time>
      </trkpt>
      <trkpt lat="45.63098" lon="6.66709">
        <ele>2055.92</ele>
        <time>2018-02-08T08:08:56Z</time>
      </trkpt>
      <trkpt lat="45.63099" lon="6.66702">
        <ele>2056.88</ele>
        <time>2018-02-08T08:09:09Z</time>
      </trkpt>
      <trkpt lat="45.631" lon="6.667">
        <ele>2056.88</ele>
        <time>2018-02-08T08:09:25Z</time>
      </trkpt>
      <trkpt lat="45.63102" lon="6.6669">
        <ele>2056.88</ele>
        <time>2018-02-08T08:09:38Z</time>
      </trkpt>
      <trkpt lat="45.63104" lon="6.66684">
        <ele>2055.92</ele>
        <time>2018-02-08T08:09:44Z</time>
      </trkpt>
      <trkpt lat="45.63114" lon="6.66667">
        <ele>2053.03</ele>
        <time>2018-02-08T08:09:54Z</time>
      </trkpt>
      <trkpt lat="45.63123" lon="6.66665">
        <ele>2055.44</ele>
        <time>2018-02-08T08:10:07Z</time>
      </trkpt>
      <trkpt lat="45.63129" lon="6.66658">
        <ele>2057.36</ele>
        <time>2018-02-08T08:10:21Z</time>
      </trkpt>
      <trkpt lat="45.6313" lon="6.66655">
        <ele>2057.36</ele>
        <time>2018-02-08T08:10:34Z</time>
      </trkpt>
      <trkpt lat="45.63129" lon="6.66657">
        <ele>2057.84</ele>
        <time>2018-02-08T08:10:57Z</time>
      </trkpt>
      <trkpt lat="45.63133" lon="6.66645">
        <ele>2058.8</ele>
        <time>2018-02-08T08:11:10Z</time>
      </trkpt>
      <trkpt lat="45.63134" lon="6.66631">
        <ele>2060.72</ele>
        <time>2018-02-08T08:11:26Z</time>
      </trkpt>
      <trkpt lat="45.63135" lon="6.66618">
        <ele>2061.68</ele>
        <time>2018-02-08T08:11:39Z</time>
      </trkpt>
      <trkpt lat="45.63136" lon="6.66603">
        <ele>2064.09</ele>
        <time>2018-02-08T08:11:56Z</time>
      </trkpt>
      <trkpt lat="45.63136" lon="6.66587">
        <ele>2066.01</ele>
        <time>2018-02-08T08:12:15Z</time>
      </trkpt>
      <trkpt lat="45.63136" lon="6.66569">
        <ele>2067.45</ele>
        <time>2018-02-08T08:12:32Z</time>
      </trkpt>
      <trkpt lat="45.63135" lon="6.66558">
        <ele>2067.93</ele>
        <time>2018-02-08T08:12:44Z</time>
      </trkpt>
      <trkpt lat="45.63137" lon="6.66547">
        <ele>2068.89</ele>
        <time>2018-02-08T08:12:58Z</time>
      </trkpt>
      <trkpt lat="45.6314" lon="6.66536">
        <ele>2070.82</ele>
        <time>2018-02-08T08:13:12Z</time>
      </trkpt>
      <trkpt lat="45.63143" lon="6.66521">
        <ele>2072.74</ele>
        <time>2018-02-08T08:13:29Z</time>
      </trkpt>
      <trkpt lat="45.63143" lon="6.66521">
        <ele>2072.26</ele>
        <time>2018-02-08T08:13:43Z</time>
      </trkpt>
      <trkpt lat="45.63144" lon="6.66517">
        <ele>2072.74</ele>
        <time>2018-02-08T08:13:57Z</time>
      </trkpt>
      <trkpt lat="45.63142" lon="6.6652">
        <ele>2073.22</ele>
        <time>2018-02-08T08:14:14Z</time>
      </trkpt>
      <trkpt lat="45.63143" lon="6.66514">
        <ele>2073.7</ele>
        <time>2018-02-08T08:14:23Z</time>
      </trkpt>
      <trkpt lat="45.63143" lon="6.66495">
        <ele>2074.66</ele>
        <time>2018-02-08T08:14:38Z</time>
      </trkpt>
      <trkpt lat="45.63145" lon="6.66481">
        <ele>2076.1</ele>
        <time>2018-02-08T08:14:53Z</time>
      </trkpt>
      <trkpt lat="45.63149" lon="6.66467">
        <ele>2077.07</ele>
        <time>2018-02-08T08:15:07Z</time>
      </trkpt>
      <trkpt lat="45.63155" lon="6.6645">
        <ele>2078.03</ele>
        <time>2018-02-08T08:15:22Z</time>
      </trkpt>
      <trkpt lat="45.63161" lon="6.66437">
        <ele>2079.95</ele>
        <time>2018-02-08T08:15:38Z</time>
      </trkpt>
      <trkpt lat="45.63161" lon="6.66428">
        <ele>2081.39</ele>
        <time>2018-02-08T08:15:53Z</time>
      </trkpt>
      <trkpt lat="45.6316" lon="6.66414">
        <ele>2083.31</ele>
        <time>2018-02-08T08:16:09Z</time>
      </trkpt>
      <trkpt lat="45.63167" lon="6.66396">
        <ele>2084.28</ele>
        <time>2018-02-08T08:16:28Z</time>
      </trkpt>
      <trkpt lat="45.63171" lon="6.66385">
        <ele>2086.68</ele>
        <time>2018-02-08T08:16:44Z</time>
      </trkpt>
      <trkpt lat="45.63179" lon="6.66375">
        <ele>2088.6</ele>
        <time>2018-02-08T08:17:00Z</time>
      </trkpt>
      <trkpt lat="45.63183" lon="6.66363">
        <ele>2090.52</ele>
        <time>2018-02-08T08:17:14Z</time>
      </trkpt>
      <trkpt lat="45.63185" lon="6.66358">
        <ele>2092.45</ele>
        <time>2018-02-08T08:17:31Z</time>
      </trkpt>
      <trkpt lat="45.63192" lon="6.66345">
        <ele>2093.89</ele>
        <time>2018-02-08T08:17:47Z</time>
      </trkpt>
      <trkpt lat="45.63194" lon="6.66338">
        <ele>2095.33</ele>
        <time>2018-02-08T08:18:02Z</time>
      </trkpt>
      <trkpt lat="45.63199" lon="6.66331">
        <ele>2097.25</ele>
        <time>2018-02-08T08:18:17Z</time>
      </trkpt>
      <trkpt lat="45.63202" lon="6.66323">
        <ele>2099.18</ele>
        <time>2018-02-08T08:18:30Z</time>
      </trkpt>
      <trkpt lat="45.63207" lon="6.66314">
        <ele>2100.14</ele>
        <time>2018-02-08T08:18:44Z</time>
      </trkpt>
      <trkpt lat="45.63211" lon="6.66303">
        <ele>2102.06</ele>
        <time>2018-02-08T08:18:59Z</time>
      </trkpt>
      <trkpt lat="45.63213" lon="6.66297">
        <ele>2103.98</ele>
        <time>2018-02-08T08:19:15Z</time>
      </trkpt>
      <trkpt lat="45.63216" lon="6.66288">
        <ele>2105.42</ele>
        <time>2018-02-08T08:19:28Z</time>
      </trkpt>
      <trkpt lat="45.63221" lon="6.66279">
        <ele>2106.87</ele>
        <time>2018-02-08T08:19:41Z</time>
      </trkpt>
      <trkpt lat="45.63226" lon="6.66267">
        <ele>2108.79</ele>
        <time>2018-02-08T08:19:55Z</time>
      </trkpt>
      <trkpt lat="45.63229" lon="6.66257">
        <ele>2110.23</ele>
        <time>2018-02-08T08:20:09Z</time>
      </trkpt>
      <trkpt lat="45.63234" lon="6.66249">
        <ele>2111.67</ele>
        <time>2018-02-08T08:20:25Z</time>
      </trkpt>
      <trkpt lat="45.63237" lon="6.66235">
        <ele>2113.6</ele>
        <time>2018-02-08T08:20:41Z</time>
      </trkpt>
      <trkpt lat="45.63241" lon="6.66224">
        <ele>2115.04</ele>
        <time>2018-02-08T08:20:58Z</time>
      </trkpt>
      <trkpt lat="45.63244" lon="6.66214">
        <ele>2116.96</ele>
        <time>2018-02-08T08:21:13Z</time>
      </trkpt>
      <trkpt lat="45.63248" lon="6.66206">
        <ele>2118.4</ele>
        <time>2018-02-08T08:21:25Z</time>
      </trkpt>
      <trkpt lat="45.63253" lon="6.66193">
        <ele>2120.32</ele>
        <time>2018-02-08T08:21:43Z</time>
      </trkpt>
      <trkpt lat="45.63255" lon="6.6618">
        <ele>2122.25</ele>
        <time>2018-02-08T08:21:57Z</time>
      </trkpt>
      <trkpt lat="45.63258" lon="6.66172">
        <ele>2124.17</ele>
        <time>2018-02-08T08:22:11Z</time>
      </trkpt>
      <trkpt lat="45.63259" lon="6.6616">
        <ele>2126.57</ele>
        <time>2018-02-08T08:22:28Z</time>
      </trkpt>
      <trkpt lat="45.6326" lon="6.6615">
        <ele>2128.02</ele>
        <time>2018-02-08T08:22:42Z</time>
      </trkpt>
      <trkpt lat="45.6326" lon="6.66136">
        <ele>2129.94</ele>
        <time>2018-02-08T08:22:58Z</time>
      </trkpt>
      <trkpt lat="45.6326" lon="6.66118">
        <ele>2131.86</ele>
        <time>2018-02-08T08:23:17Z</time>
      </trkpt>
      <trkpt lat="45.63261" lon="6.66107">
        <ele>2133.3</ele>
        <time>2018-02-08T08:23:32Z</time>
      </trkpt>
      <trkpt lat="45.63261" lon="6.66095">
        <ele>2134.74</ele>
        <time>2018-02-08T08:23:46Z</time>
      </trkpt>
      <trkpt lat="45.63263" lon="6.66082">
        <ele>2136.67</ele>
        <time>2018-02-08T08:24:02Z</time>
      </trkpt>
      <trkpt lat="45.63263" lon="6.66072">
        <ele>2138.59</ele>
        <time>2018-02-08T08:24:17Z</time>
      </trkpt>
      <trkpt lat="45.63265" lon="6.66061">
        <ele>2140.03</ele>
        <time>2018-02-08T08:24:31Z</time>
      </trkpt>
      <trkpt lat="45.63268" lon="6.66048">
        <ele>2141.95</ele>
        <time>2018-02-08T08:24:47Z</time>
      </trkpt>
      <trkpt lat="45.63268" lon="6.66044">
        <ele>2142.92</ele>
        <time>2018-02-08T08:25:03Z</time>
      </trkpt>
      <trkpt lat="45.63266" lon="6.66043">
        <ele>2142.44</ele>
        <time>2018-02-08T08:25:20Z</time>
      </trkpt>
      <trkpt lat="45.63267" lon="6.6604">
        <ele>2141.95</ele>
        <time>2018-02-08T08:25:51Z</time>
      </trkpt>
      <trkpt lat="45.63271" lon="6.66041">
        <ele>2141.47</ele>
        <time>2018-02-08T08:26:25Z</time>
      </trkpt>
      <trkpt lat="45.63272" lon="6.6604">
        <ele>2141.47</ele>
        <time>2018-02-08T08:26:54Z</time>
      </trkpt>
      <trkpt lat="45.63267" lon="6.66042">
        <ele>2141.47</ele>
        <time>2018-02-08T08:27:24Z</time>
      </trkpt>
      <trkpt lat="45.63265" lon="6.66035">
        <ele>2140.99</ele>
        <time>2018-02-08T08:27:57Z</time>
      </trkpt>
      <trkpt lat="45.63267" lon="6.66043">
        <ele>2140.99</ele>
        <time>2018-02-08T08:28:25Z</time>
      </trkpt>
      <trkpt lat="45.63267" lon="6.6604">
        <ele>2141.47</ele>
        <time>2018-02-08T08:28:38Z</time>
      </trkpt>
      <trkpt lat="45.63266" lon="6.66037">
        <ele>2141.47</ele>
        <time>2018-02-08T08:28:56Z</time>
      </trkpt>
      <trkpt lat="45.63267" lon="6.66034">
        <ele>2142.44</ele>
        <time>2018-02-08T08:29:13Z</time>
      </trkpt>
      <trkpt lat="45.63268" lon="6.66031">
        <ele>2142.92</ele>
        <time>2018-02-08T08:29:26Z</time>
      </trkpt>
      <trkpt lat="45.63267" lon="6.66014">
        <ele>2144.36</ele>
        <time>2018-02-08T08:29:43Z</time>
      </trkpt>
      <trkpt lat="45.63267" lon="6.66007">
        <ele>2144.36</ele>
        <time>2018-02-08T08:29:50Z</time>
      </trkpt>
      <trkpt lat="45.63261" lon="6.65991">
        <ele>2144.84</ele>
        <time>2018-02-08T08:30:06Z</time>
      </trkpt>
      <trkpt lat="45.6326" lon="6.65978">
        <ele>2146.76</ele>
        <time>2018-02-08T08:30:25Z</time>
      </trkpt>
      <trkpt lat="45.63259" lon="6.65967">
        <ele>2147.72</ele>
        <time>2018-02-08T08:30:40Z</time>
      </trkpt>
      <trkpt lat="45.63258" lon="6.65954">
        <ele>2149.65</ele>
        <time>2018-02-08T08:30:58Z</time>
      </trkpt>
      <trkpt lat="45.63258" lon="6.65943">
        <ele>2151.09</ele>
        <time>2018-02-08T08:31:12Z</time>
      </trkpt>
      <trkpt lat="45.63256" lon="6.6593">
        <ele>2153.01</ele>
        <time>2018-02-08T08:31:29Z</time>
      </trkpt>
      <trkpt lat="45.63254" lon="6.65919">
        <ele>2154.45</ele>
        <time>2018-02-08T08:31:47Z</time>
      </trkpt>
      <trkpt lat="45.63251" lon="6.65909">
        <ele>2156.37</ele>
        <time>2018-02-08T08:31:59Z</time>
      </trkpt>
      <trkpt lat="45.6325" lon="6.65898">
        <ele>2157.82</ele>
        <time>2018-02-08T08:32:14Z</time>
      </trkpt>
      <trkpt lat="45.63249" lon="6.65889">
        <ele>2159.26</ele>
        <time>2018-02-08T08:32:28Z</time>
      </trkpt>
      <trkpt lat="45.63245" lon="6.65878">
        <ele>2161.18</ele>
        <time>2018-02-08T08:32:43Z</time>
      </trkpt>
      <trkpt lat="45.63241" lon="6.65861">
        <ele>2163.1</ele>
        <time>2018-02-08T08:33:04Z</time>
      </trkpt>
      <trkpt lat="45.63236" lon="6.65847">
        <ele>2165.51</ele>
        <time>2018-02-08T08:33:19Z</time>
      </trkpt>
      <trkpt lat="45.63232" lon="6.65837">
        <ele>2165.99</ele>
        <time>2018-02-08T08:33:35Z</time>
      </trkpt>
      <trkpt lat="45.63229" lon="6.65827">
        <ele>2167.91</ele>
        <time>2018-02-08T08:33:53Z</time>
      </trkpt>
      <trkpt lat="45.63225" lon="6.65813">
        <ele>2169.35</ele>
        <time>2018-02-08T08:34:07Z</time>
      </trkpt>
      <trkpt lat="45.6322" lon="6.65801">
        <ele>2170.79</ele>
        <time>2018-02-08T08:34:22Z</time>
      </trkpt>
      <trkpt lat="45.63216" lon="6.65792">
        <ele>2173.2</ele>
        <time>2018-02-08T08:34:37Z</time>
      </trkpt>
      <trkpt lat="45.63214" lon="6.65785">
        <ele>2175.12</ele>
        <time>2018-02-08T08:34:51Z</time>
      </trkpt>
      <trkpt lat="45.63209" lon="6.65775">
        <ele>2176.56</ele>
        <time>2018-02-08T08:35:05Z</time>
      </trkpt>
      <trkpt lat="45.63205" lon="6.65769">
        <ele>2177.52</ele>
        <time>2018-02-08T08:35:19Z</time>
      </trkpt>
      <trkpt lat="45.63201" lon="6.65764">
        <ele>2179.45</ele>
        <time>2018-02-08T08:35:31Z</time>
      </trkpt>
      <trkpt lat="45.63196" lon="6.65757">
        <ele>2181.37</ele>
        <time>2018-02-08T08:35:46Z</time>
      </trkpt>
      <trkpt lat="45.63192" lon="6.6575">
        <ele>2182.81</ele>
        <time>2018-02-08T08:35:59Z</time>
      </trkpt>
      <trkpt lat="45.63188" lon="6.65744">
        <ele>2183.77</ele>
        <time>2018-02-08T08:36:14Z</time>
      </trkpt>
      <trkpt lat="45.63187" lon="6.6574">
        <ele>2184.73</ele>
        <time>2018-02-08T08:36:33Z</time>
      </trkpt>
      <trkpt lat="45.6318" lon="6.65737">
        <ele>2187.14</ele>
        <time>2018-02-08T08:36:48Z</time>
      </trkpt>
      <trkpt lat="45.63178" lon="6.6573">
        <ele>2189.06</ele>
        <time>2018-02-08T08:37:00Z</time>
      </trkpt>
      <trkpt lat="45.63178" lon="6.65718">
        <ele>2190.5</ele>
        <time>2018-02-08T08:37:16Z</time>
      </trkpt>
      <trkpt lat="45.6318" lon="6.6571">
        <ele>2192.9</ele>
        <time>2018-02-08T08:37:30Z</time>
      </trkpt>
      <trkpt lat="45.63182" lon="6.65701">
        <ele>2194.35</ele>
        <time>2018-02-08T08:37:45Z</time>
      </trkpt>
      <trkpt lat="45.63183" lon="6.65694">
        <ele>2195.79</ele>
        <time>2018-02-08T08:37:58Z</time>
      </trkpt>
      <trkpt lat="45.63183" lon="6.65693">
        <ele>2196.75</ele>
        <time>2018-02-08T08:38:12Z</time>
      </trkpt>
      <trkpt lat="45.63177" lon="6.65696">
        <ele>2198.19</ele>
        <time>2018-02-08T08:38:27Z</time>
      </trkpt>
      <trkpt lat="45.63173" lon="6.65696">
        <ele>2200.59</ele>
        <time>2018-02-08T08:38:41Z</time>
      </trkpt>
      <trkpt lat="45.63167" lon="6.65697">
        <ele>2202.04</ele>
        <time>2018-02-08T08:38:54Z</time>
      </trkpt>
      <trkpt lat="45.63162" lon="6.65699">
        <ele>2203.96</ele>
        <time>2018-02-08T08:39:07Z</time>
      </trkpt>
      <trkpt lat="45.63161" lon="6.65694">
        <ele>2204.92</ele>
        <time>2018-02-08T08:39:19Z</time>
      </trkpt>
      <trkpt lat="45.63164" lon="6.65689">
        <ele>2206.36</ele>
        <time>2018-02-08T08:39:30Z</time>
      </trkpt>
      <trkpt lat="45.63166" lon="6.65682">
        <ele>2208.29</ele>
        <time>2018-02-08T08:39:42Z</time>
      </trkpt>
      <trkpt lat="45.63169" lon="6.65674">
        <ele>2210.21</ele>
        <time>2018-02-08T08:39:56Z</time>
      </trkpt>
      <trkpt lat="45.63173" lon="6.65667">
        <ele>2211.17</ele>
        <time>2018-02-08T08:40:09Z</time>
      </trkpt>
      <trkpt lat="45.63177" lon="6.65659">
        <ele>2212.61</ele>
        <time>2018-02-08T08:40:22Z</time>
      </trkpt>
      <trkpt lat="45.63178" lon="6.6565">
        <ele>2214.53</ele>
        <time>2018-02-08T08:40:37Z</time>
      </trkpt>
      <trkpt lat="45.63176" lon="6.65644">
        <ele>2217.42</ele>
        <time>2018-02-08T08:40:50Z</time>
      </trkpt>
      <trkpt lat="45.63174" lon="6.6564">
        <ele>2219.34</ele>
        <time>2018-02-08T08:41:03Z</time>
      </trkpt>
      <trkpt lat="45.63177" lon="6.6563">
        <ele>2221.26</ele>
        <time>2018-02-08T08:41:18Z</time>
      </trkpt>
      <trkpt lat="45.63177" lon="6.65625">
        <ele>2223.19</ele>
        <time>2018-02-08T08:41:32Z</time>
      </trkpt>
      <trkpt lat="45.63177" lon="6.65615">
        <ele>2225.59</ele>
        <time>2018-02-08T08:41:47Z</time>
      </trkpt>
      <trkpt lat="45.63177" lon="6.65603">
        <ele>2227.51</ele>
        <time>2018-02-08T08:42:00Z</time>
      </trkpt>
      <trkpt lat="45.63177" lon="6.65604">
        <ele>2227.99</ele>
        <time>2018-02-08T08:42:20Z</time>
      </trkpt>
      <trkpt lat="45.63178" lon="6.65605">
        <ele>2227.99</ele>
        <time>2018-02-08T08:42:42Z</time>
      </trkpt>
      <trkpt lat="45.63174" lon="6.65604">
        <ele>2227.99</ele>
        <time>2018-02-08T08:43:11Z</time>
      </trkpt>
      <trkpt lat="45.63176" lon="6.65603">
        <ele>2227.99</ele>
        <time>2018-02-08T08:43:41Z</time>
      </trkpt>
      <trkpt lat="45.63176" lon="6.65603">
        <ele>2227.99</ele>
        <time>2018-02-08T08:44:01Z</time>
      </trkpt>
      <trkpt lat="45.63176" lon="6.65604">
        <ele>2227.99</ele>
        <time>2018-02-08T08:44:23Z</time>
      </trkpt>
      <trkpt lat="45.63174" lon="6.656">
        <ele>2227.99</ele>
        <time>2018-02-08T08:44:46Z</time>
      </trkpt>
      <trkpt lat="45.63177" lon="6.65599">
        <ele>2227.99</ele>
        <time>2018-02-08T08:45:11Z</time>
      </trkpt>
      <trkpt lat="45.63175" lon="6.65603">
        <ele>2227.99</ele>
        <time>2018-02-08T08:45:40Z</time>
      </trkpt>
      <trkpt lat="45.63172" lon="6.65596">
        <ele>2228.95</ele>
        <time>2018-02-08T08:45:55Z</time>
      </trkpt>
      <trkpt lat="45.63168" lon="6.65588">
        <ele>2229.92</ele>
        <time>2018-02-08T08:46:08Z</time>
      </trkpt>
      <trkpt lat="45.63165" lon="6.65583">
        <ele>2231.84</ele>
        <time>2018-02-08T08:46:21Z</time>
      </trkpt>
      <trkpt lat="45.63157" lon="6.65579">
        <ele>2233.76</ele>
        <time>2018-02-08T08:46:36Z</time>
      </trkpt>
      <trkpt lat="45.63152" lon="6.65587">
        <ele>2236.16</ele>
        <time>2018-02-08T08:46:49Z</time>
      </trkpt>
      <trkpt lat="45.6315" lon="6.65592">
        <ele>2237.61</ele>
        <time>2018-02-08T08:47:02Z</time>
      </trkpt>
      <trkpt lat="45.6315" lon="6.65593">
        <ele>2237.61</ele>
        <time>2018-02-08T08:47:27Z</time>
      </trkpt>
      <trkpt lat="45.63149" lon="6.65592">
        <ele>2238.09</ele>
        <time>2018-02-08T08:47:49Z</time>
      </trkpt>
      <trkpt lat="45.6315" lon="6.65592">
        <ele>2237.61</ele>
        <time>2018-02-08T08:48:16Z</time>
      </trkpt>
      <trkpt lat="45.6315" lon="6.65595">
        <ele>2237.61</ele>
        <time>2018-02-08T08:48:41Z</time>
      </trkpt>
      <trkpt lat="45.63149" lon="6.65597">
        <ele>2238.09</ele>
        <time>2018-02-08T08:49:09Z</time>
      </trkpt>
      <trkpt lat="45.63149" lon="6.65592">
        <ele>2237.61</ele>
        <time>2018-02-08T08:49:35Z</time>
      </trkpt>
      <trkpt lat="45.63147" lon="6.65593">
        <ele>2237.61</ele>
        <time>2018-02-08T08:50:00Z</time>
      </trkpt>
      <trkpt lat="45.63144" lon="6.65588">
        <ele>2238.57</ele>
        <time>2018-02-08T08:50:19Z</time>
      </trkpt>
      <trkpt lat="45.63139" lon="6.65581">
        <ele>2240.97</ele>
        <time>2018-02-08T08:50:33Z</time>
      </trkpt>
      <trkpt lat="45.63133" lon="6.65574">
        <ele>2243.37</ele>
        <time>2018-02-08T08:50:47Z</time>
      </trkpt>
      <trkpt lat="45.63127" lon="6.6557">
        <ele>2245.3</ele>
        <time>2018-02-08T08:51:03Z</time>
      </trkpt>
      <trkpt lat="45.63122" lon="6.6556">
        <ele>2247.7</ele>
        <time>2018-02-08T08:51:18Z</time>
      </trkpt>
      <trkpt lat="45.63117" lon="6.65553">
        <ele>2249.62</ele>
        <time>2018-02-08T08:51:32Z</time>
      </trkpt>
      <trkpt lat="45.63114" lon="6.65544">
        <ele>2251.54</ele>
        <time>2018-02-08T08:51:46Z</time>
      </trkpt>
      <trkpt lat="45.63108" lon="6.65535">
        <ele>2252.51</ele>
        <time>2018-02-08T08:51:59Z</time>
      </trkpt>
      <trkpt lat="45.63104" lon="6.65527">
        <ele>2254.91</ele>
        <time>2018-02-08T08:52:16Z</time>
      </trkpt>
      <trkpt lat="45.63099" lon="6.65523">
        <ele>2256.83</ele>
        <time>2018-02-08T08:52:31Z</time>
      </trkpt>
      <trkpt lat="45.631" lon="6.65532">
        <ele>2258.75</ele>
        <time>2018-02-08T08:52:42Z</time>
      </trkpt>
      <trkpt lat="45.631" lon="6.65532">
        <ele>2258.75</ele>
        <time>2018-02-08T08:52:43Z</time>
      </trkpt>
      <trkpt lat="45.63098" lon="6.65546">
        <ele>2261.16</ele>
        <time>2018-02-08T08:53:00Z</time>
      </trkpt>
      <trkpt lat="45.63096" lon="6.65554">
        <ele>2262.12</ele>
        <time>2018-02-08T08:53:14Z</time>
      </trkpt>
      <trkpt lat="45.63093" lon="6.65545">
        <ele>2264.04</ele>
        <time>2018-02-08T08:53:26Z</time>
      </trkpt>
      <trkpt lat="45.63088" lon="6.65532">
        <ele>2265.48</ele>
        <time>2018-02-08T08:53:43Z</time>
      </trkpt>
      <trkpt lat="45.63085" lon="6.65521">
        <ele>2267.89</ele>
        <time>2018-02-08T08:53:57Z</time>
      </trkpt>
      <trkpt lat="45.63078" lon="6.65513">
        <ele>2269.33</ele>
        <time>2018-02-08T08:54:13Z</time>
      </trkpt>
      <trkpt lat="45.63074" lon="6.655">
        <ele>2271.25</ele>
        <time>2018-02-08T08:54:31Z</time>
      </trkpt>
      <trkpt lat="45.63072" lon="6.6549">
        <ele>2273.66</ele>
        <time>2018-02-08T08:54:44Z</time>
      </trkpt>
      <trkpt lat="45.6307" lon="6.65481">
        <ele>2275.1</ele>
        <time>2018-02-08T08:54:56Z</time>
      </trkpt>
      <trkpt lat="45.63068" lon="6.65472">
        <ele>2277.5</ele>
        <time>2018-02-08T08:55:11Z</time>
      </trkpt>
      <trkpt lat="45.63068" lon="6.65462">
        <ele>2279.9</ele>
        <time>2018-02-08T08:55:24Z</time>
      </trkpt>
      <trkpt lat="45.63064" lon="6.65454">
        <ele>2282.31</ele>
        <time>2018-02-08T08:55:38Z</time>
      </trkpt>
      <trkpt lat="45.63062" lon="6.65448">
        <ele>2284.23</ele>
        <time>2018-02-08T08:55:51Z</time>
      </trkpt>
      <trkpt lat="45.6306" lon="6.6544">
        <ele>2286.15</ele>
        <time>2018-02-08T08:56:04Z</time>
      </trkpt>
      <trkpt lat="45.63057" lon="6.65432">
        <ele>2288.08</ele>
        <time>2018-02-08T08:56:20Z</time>
      </trkpt>
      <trkpt lat="45.63053" lon="6.65422">
        <ele>2289.52</ele>
        <time>2018-02-08T08:56:33Z</time>
      </trkpt>
      <trkpt lat="45.63048" lon="6.65414">
        <ele>2292.4</ele>
        <time>2018-02-08T08:56:49Z</time>
      </trkpt>
      <trkpt lat="45.63044" lon="6.65405">
        <ele>2295.28</ele>
        <time>2018-02-08T08:57:04Z</time>
      </trkpt>
      <trkpt lat="45.63043" lon="6.65398">
        <ele>2297.21</ele>
        <time>2018-02-08T08:57:18Z</time>
      </trkpt>
      <trkpt lat="45.6304" lon="6.65391">
        <ele>2299.13</ele>
        <time>2018-02-08T08:57:30Z</time>
      </trkpt>
      <trkpt lat="45.63038" lon="6.65383">
        <ele>2301.53</ele>
        <time>2018-02-08T08:57:43Z</time>
      </trkpt>
      <trkpt lat="45.63036" lon="6.65377">
        <ele>2303.46</ele>
        <time>2018-02-08T08:57:55Z</time>
      </trkpt>
      <trkpt lat="45.63032" lon="6.65371">
        <ele>2304.9</ele>
        <time>2018-02-08T08:58:07Z</time>
      </trkpt>
      <trkpt lat="45.63025" lon="6.65373">
        <ele>2306.82</ele>
        <time>2018-02-08T08:58:20Z</time>
      </trkpt>
      <trkpt lat="45.6302" lon="6.65375">
        <ele>2308.74</ele>
        <time>2018-02-08T08:58:33Z</time>
      </trkpt>
      <trkpt lat="45.63014" lon="6.65368">
        <ele>2310.67</ele>
        <time>2018-02-08T08:58:47Z</time>
      </trkpt>
      <trkpt lat="45.63012" lon="6.65358">
        <ele>2312.59</ele>
        <time>2018-02-08T08:59:03Z</time>
      </trkpt>
      <trkpt lat="45.6301" lon="6.65345">
        <ele>2314.03</ele>
        <time>2018-02-08T08:59:17Z</time>
      </trkpt>
      <trkpt lat="45.63009" lon="6.65335">
        <ele>2315.95</ele>
        <time>2018-02-08T08:59:32Z</time>
      </trkpt>
      <trkpt lat="45.63004" lon="6.6533">
        <ele>2317.88</ele>
        <time>2018-02-08T08:59:46Z</time>
      </trkpt>
      <trkpt lat="45.62997" lon="6.65331">
        <ele>2320.28</ele>
        <time>2018-02-08T09:00:01Z</time>
      </trkpt>
      <trkpt lat="45.62988" lon="6.65335">
        <ele>2321.24</ele>
        <time>2018-02-08T09:00:15Z</time>
      </trkpt>
      <trkpt lat="45.6298" lon="6.6534">
        <ele>2323.16</ele>
        <time>2018-02-08T09:00:31Z</time>
      </trkpt>
      <trkpt lat="45.62976" lon="6.65331">
        <ele>2325.09</ele>
        <time>2018-02-08T09:00:43Z</time>
      </trkpt>
      <trkpt lat="45.62973" lon="6.6532">
        <ele>2327.01</ele>
        <time>2018-02-08T09:00:58Z</time>
      </trkpt>
      <trkpt lat="45.62967" lon="6.65309">
        <ele>2327.97</ele>
        <time>2018-02-08T09:01:12Z</time>
      </trkpt>
      <trkpt lat="45.62962" lon="6.65299">
        <ele>2329.89</ele>
        <time>2018-02-08T09:01:28Z</time>
      </trkpt>
      <trkpt lat="45.62959" lon="6.65291">
        <ele>2331.33</ele>
        <time>2018-02-08T09:01:40Z</time>
      </trkpt>
      <trkpt lat="45.62956" lon="6.65284">
        <ele>2333.74</ele>
        <time>2018-02-08T09:01:53Z</time>
      </trkpt>
      <trkpt lat="45.62951" lon="6.65271">
        <ele>2335.66</ele>
        <time>2018-02-08T09:02:08Z</time>
      </trkpt>
      <trkpt lat="45.62948" lon="6.65262">
        <ele>2337.1</ele>
        <time>2018-02-08T09:02:21Z</time>
      </trkpt>
      <trkpt lat="45.62944" lon="6.65254">
        <ele>2339.02</ele>
        <time>2018-02-08T09:02:35Z</time>
      </trkpt>
      <trkpt lat="45.62941" lon="6.65248">
        <ele>2340.95</ele>
        <time>2018-02-08T09:02:48Z</time>
      </trkpt>
      <trkpt lat="45.62939" lon="6.6524">
        <ele>2343.35</ele>
        <time>2018-02-08T09:03:01Z</time>
      </trkpt>
      <trkpt lat="45.62935" lon="6.65237">
        <ele>2345.27</ele>
        <time>2018-02-08T09:03:14Z</time>
      </trkpt>
      <trkpt lat="45.6293" lon="6.65238">
        <ele>2347.2</ele>
        <time>2018-02-08T09:03:26Z</time>
      </trkpt>
      <trkpt lat="45.62925" lon="6.65235">
        <ele>2348.64</ele>
        <time>2018-02-08T09:03:39Z</time>
      </trkpt>
      <trkpt lat="45.62924" lon="6.65225">
        <ele>2350.08</ele>
        <time>2018-02-08T09:03:53Z</time>
      </trkpt>
      <trkpt lat="45.62925" lon="6.65215">
        <ele>2351.52</ele>
        <time>2018-02-08T09:04:07Z</time>
      </trkpt>
      <trkpt lat="45.62926" lon="6.65204">
        <ele>2352.96</ele>
        <time>2018-02-08T09:04:22Z</time>
      </trkpt>
      <trkpt lat="45.62928" lon="6.65195">
        <ele>2354.89</ele>
        <time>2018-02-08T09:04:36Z</time>
      </trkpt>
      <trkpt lat="45.62928" lon="6.65188">
        <ele>2356.33</ele>
        <time>2018-02-08T09:04:50Z</time>
      </trkpt>
      <trkpt lat="45.62921" lon="6.65187">
        <ele>2358.25</ele>
        <time>2018-02-08T09:05:05Z</time>
      </trkpt>
      <trkpt lat="45.62916" lon="6.65186">
        <ele>2360.17</ele>
        <time>2018-02-08T09:05:18Z</time>
      </trkpt>
      <trkpt lat="45.6291" lon="6.65186">
        <ele>2362.1</ele>
        <time>2018-02-08T09:05:33Z</time>
      </trkpt>
      <trkpt lat="45.62904" lon="6.65186">
        <ele>2364.02</ele>
        <time>2018-02-08T09:05:46Z</time>
      </trkpt>
      <trkpt lat="45.62899" lon="6.65188">
        <ele>2365.46</ele>
        <time>2018-02-08T09:06:00Z</time>
      </trkpt>
      <trkpt lat="45.62893" lon="6.65185">
        <ele>2366.9</ele>
        <time>2018-02-08T09:06:15Z</time>
      </trkpt>
      <trkpt lat="45.62892" lon="6.65181">
        <ele>2368.83</ele>
        <time>2018-02-08T09:06:26Z</time>
      </trkpt>
      <trkpt lat="45.62894" lon="6.65173">
        <ele>2370.27</ele>
        <time>2018-02-08T09:06:40Z</time>
      </trkpt>
      <trkpt lat="45.62896" lon="6.65165">
        <ele>2372.19</ele>
        <time>2018-02-08T09:06:54Z</time>
      </trkpt>
      <trkpt lat="45.62897" lon="6.65158">
        <ele>2373.63</ele>
        <time>2018-02-08T09:07:07Z</time>
      </trkpt>
      <trkpt lat="45.62899" lon="6.65148">
        <ele>2375.55</ele>
        <time>2018-02-08T09:07:22Z</time>
      </trkpt>
      <trkpt lat="45.62901" lon="6.65142">
        <ele>2376.52</ele>
        <time>2018-02-08T09:07:35Z</time>
      </trkpt>
      <trkpt lat="45.62904" lon="6.65135">
        <ele>2378.44</ele>
        <time>2018-02-08T09:07:48Z</time>
      </trkpt>
      <trkpt lat="45.62906" lon="6.65128">
        <ele>2379.88</ele>
        <time>2018-02-08T09:08:00Z</time>
      </trkpt>
      <trkpt lat="45.62909" lon="6.65124">
        <ele>2381.8</ele>
        <time>2018-02-08T09:08:13Z</time>
      </trkpt>
      <trkpt lat="45.6291" lon="6.6512">
        <ele>2382.28</ele>
        <time>2018-02-08T09:08:29Z</time>
      </trkpt>
      <trkpt lat="45.62913" lon="6.65117">
        <ele>2383.73</ele>
        <time>2018-02-08T09:08:43Z</time>
      </trkpt>
      <trkpt lat="45.62909" lon="6.65116">
        <ele>2385.17</ele>
        <time>2018-02-08T09:08:58Z</time>
      </trkpt>
      <trkpt lat="45.62902" lon="6.65113">
        <ele>2386.61</ele>
        <time>2018-02-08T09:09:11Z</time>
      </trkpt>
      <trkpt lat="45.62896" lon="6.65111">
        <ele>2389.01</ele>
        <time>2018-02-08T09:09:26Z</time>
      </trkpt>
      <trkpt lat="45.62894" lon="6.65111">
        <ele>2389.97</ele>
        <time>2018-02-08T09:09:39Z</time>
      </trkpt>
      <trkpt lat="45.62896" lon="6.65105">
        <ele>2391.42</ele>
        <time>2018-02-08T09:09:54Z</time>
      </trkpt>
      <trkpt lat="45.62899" lon="6.65095">
        <ele>2392.86</ele>
        <time>2018-02-08T09:10:08Z</time>
      </trkpt>
      <trkpt lat="45.62902" lon="6.65088">
        <ele>2394.78</ele>
        <time>2018-02-08T09:10:23Z</time>
      </trkpt>
      <trkpt lat="45.62904" lon="6.65084">
        <ele>2395.74</ele>
        <time>2018-02-08T09:10:35Z</time>
      </trkpt>
      <trkpt lat="45.62899" lon="6.65084">
        <ele>2397.18</ele>
        <time>2018-02-08T09:10:49Z</time>
      </trkpt>
      <trkpt lat="45.62894" lon="6.65083">
        <ele>2399.11</ele>
        <time>2018-02-08T09:11:03Z</time>
      </trkpt>
      <trkpt lat="45.62888" lon="6.65085">
        <ele>2401.51</ele>
        <time>2018-02-08T09:11:17Z</time>
      </trkpt>
      <trkpt lat="45.62882" lon="6.65086">
        <ele>2402.47</ele>
        <time>2018-02-08T09:11:32Z</time>
      </trkpt>
      <trkpt lat="45.62877" lon="6.65086">
        <ele>2403.91</ele>
        <time>2018-02-08T09:11:42Z</time>
      </trkpt>
      <trkpt lat="45.6287" lon="6.65086">
        <ele>2405.84</ele>
        <time>2018-02-08T09:11:55Z</time>
      </trkpt>
      <trkpt lat="45.62864" lon="6.65085">
        <ele>2406.8</ele>
        <time>2018-02-08T09:12:07Z</time>
      </trkpt>
      <trkpt lat="45.62863" lon="6.65079">
        <ele>2408.72</ele>
        <time>2018-02-08T09:12:17Z</time>
      </trkpt>
      <trkpt lat="45.62866" lon="6.65071">
        <ele>2410.16</ele>
        <time>2018-02-08T09:12:31Z</time>
      </trkpt>
      <trkpt lat="45.62868" lon="6.65064">
        <ele>2411.6</ele>
        <time>2018-02-08T09:12:45Z</time>
      </trkpt>
      <trkpt lat="45.6287" lon="6.65054">
        <ele>2413.05</ele>
        <time>2018-02-08T09:12:59Z</time>
      </trkpt>
      <trkpt lat="45.6287" lon="6.65047">
        <ele>2414.97</ele>
        <time>2018-02-08T09:13:14Z</time>
      </trkpt>
      <trkpt lat="45.62865" lon="6.65048">
        <ele>2416.89</ele>
        <time>2018-02-08T09:13:27Z</time>
      </trkpt>
      <trkpt lat="45.62858" lon="6.65047">
        <ele>2417.85</ele>
        <time>2018-02-08T09:13:39Z</time>
      </trkpt>
      <trkpt lat="45.62852" lon="6.65042">
        <ele>2419.78</ele>
        <time>2018-02-08T09:13:55Z</time>
      </trkpt>
      <trkpt lat="45.62848" lon="6.65036">
        <ele>2421.7</ele>
        <time>2018-02-08T09:14:09Z</time>
      </trkpt>
      <trkpt lat="45.62843" lon="6.65028">
        <ele>2423.14</ele>
        <time>2018-02-08T09:14:23Z</time>
      </trkpt>
      <trkpt lat="45.6284" lon="6.65022">
        <ele>2425.06</ele>
        <time>2018-02-08T09:14:35Z</time>
      </trkpt>
      <trkpt lat="45.62837" lon="6.65015">
        <ele>2426.99</ele>
        <time>2018-02-08T09:14:47Z</time>
      </trkpt>
      <trkpt lat="45.62832" lon="6.65009">
        <ele>2428.91</ele>
        <time>2018-02-08T09:15:01Z</time>
      </trkpt>
      <trkpt lat="45.62827" lon="6.65003">
        <ele>2430.83</ele>
        <time>2018-02-08T09:15:15Z</time>
      </trkpt>
      <trkpt lat="45.62823" lon="6.64996">
        <ele>2432.75</ele>
        <time>2018-02-08T09:15:29Z</time>
      </trkpt>
      <trkpt lat="45.62821" lon="6.64989">
        <ele>2434.68</ele>
        <time>2018-02-08T09:15:41Z</time>
      </trkpt>
      <trkpt lat="45.6282" lon="6.64981">
        <ele>2436.12</ele>
        <time>2018-02-08T09:15:55Z</time>
      </trkpt>
      <trkpt lat="45.62819" lon="6.64975">
        <ele>2437.56</ele>
        <time>2018-02-08T09:16:08Z</time>
      </trkpt>
      <trkpt lat="45.62818" lon="6.64967">
        <ele>2439.48</ele>
        <time>2018-02-08T09:16:22Z</time>
      </trkpt>
      <trkpt lat="45.62813" lon="6.64965">
        <ele>2441.89</ele>
        <time>2018-02-08T09:16:34Z</time>
      </trkpt>
      <trkpt lat="45.62808" lon="6.64962">
        <ele>2442.85</ele>
        <time>2018-02-08T09:16:47Z</time>
      </trkpt>
      <trkpt lat="45.62804" lon="6.64959">
        <ele>2444.29</ele>
        <time>2018-02-08T09:16:59Z</time>
      </trkpt>
      <trkpt lat="45.62799" lon="6.64955">
        <ele>2445.73</ele>
        <time>2018-02-08T09:17:13Z</time>
      </trkpt>
      <trkpt lat="45.62795" lon="6.64947">
        <ele>2447.17</ele>
        <time>2018-02-08T09:17:27Z</time>
      </trkpt>
      <trkpt lat="45.62796" lon="6.64941">
        <ele>2447.65</ele>
        <time>2018-02-08T09:17:39Z</time>
      </trkpt>
      <trkpt lat="45.62798" lon="6.64939">
        <ele>2447.65</ele>
        <time>2018-02-08T09:17:56Z</time>
      </trkpt>
      <trkpt lat="45.62797" lon="6.64941">
        <ele>2448.13</ele>
        <time>2018-02-08T09:18:11Z</time>
      </trkpt>
      <trkpt lat="45.62798" lon="6.64944">
        <ele>2446.69</ele>
        <time>2018-02-08T09:18:24Z</time>
      </trkpt>
      <trkpt lat="45.62798" lon="6.64943">
        <ele>2447.17</ele>
        <time>2018-02-08T09:18:48Z</time>
      </trkpt>
      <trkpt lat="45.62797" lon="6.6494">
        <ele>2447.17</ele>
        <time>2018-02-08T09:19:08Z</time>
      </trkpt>
      <trkpt lat="45.62807" lon="6.64933">
        <ele>2445.73</ele>
        <time>2018-02-08T09:20:37Z</time>
      </trkpt>
      <trkpt lat="45.62796" lon="6.64936">
        <ele>2445.73</ele>
        <time>2018-02-08T09:21:00Z</time>
      </trkpt>
      <trkpt lat="45.628" lon="6.6494">
        <ele>2445.25</ele>
        <time>2018-02-08T09:21:20Z</time>
      </trkpt>
      <trkpt lat="45.62799" lon="6.64946">
        <ele>2445.25</ele>
        <time>2018-02-08T09:21:43Z</time>
      </trkpt>
      <trkpt lat="45.62797" lon="6.64947">
        <ele>2445.25</ele>
        <time>2018-02-08T09:22:20Z</time>
      </trkpt>
      <trkpt lat="45.62801" lon="6.64945">
        <ele>2445.25</ele>
        <time>2018-02-08T09:22:44Z</time>
      </trkpt>
      <trkpt lat="45.62808" lon="6.64941">
        <ele>2444.29</ele>
        <time>2018-02-08T09:23:11Z</time>
      </trkpt>
      <trkpt lat="45.62801" lon="6.64941">
        <ele>2445.73</ele>
        <time>2018-02-08T09:23:29Z</time>
      </trkpt>
      <trkpt lat="45.62798" lon="6.64939">
        <ele>2445.25</ele>
        <time>2018-02-08T09:23:48Z</time>
      </trkpt>
      <trkpt lat="45.62794" lon="6.64936">
        <ele>2445.73</ele>
        <time>2018-02-08T09:24:13Z</time>
      </trkpt>
      <trkpt lat="45.62794" lon="6.64924">
        <ele>2447.17</ele>
        <time>2018-02-08T09:24:28Z</time>
      </trkpt>
      <trkpt lat="45.62791" lon="6.64915">
        <ele>2449.58</ele>
        <time>2018-02-08T09:24:45Z</time>
      </trkpt>
      <trkpt lat="45.62789" lon="6.64907">
        <ele>2450.06</ele>
        <time>2018-02-08T09:24:59Z</time>
      </trkpt>
      <trkpt lat="45.62789" lon="6.64902">
        <ele>2451.02</ele>
        <time>2018-02-08T09:25:15Z</time>
      </trkpt>
      <trkpt lat="45.62797" lon="6.649">
        <ele>2453.42</ele>
        <time>2018-02-08T09:25:33Z</time>
      </trkpt>
      <trkpt lat="45.62802" lon="6.64896">
        <ele>2453.9</ele>
        <time>2018-02-08T09:25:45Z</time>
      </trkpt>
      <trkpt lat="45.62796" lon="6.6489">
        <ele>2456.79</ele>
        <time>2018-02-08T09:25:59Z</time>
      </trkpt>
      <trkpt lat="45.62791" lon="6.64882">
        <ele>2457.27</ele>
        <time>2018-02-08T09:26:14Z</time>
      </trkpt>
      <trkpt lat="45.62788" lon="6.64876">
        <ele>2458.71</ele>
        <time>2018-02-08T09:26:27Z</time>
      </trkpt>
      <trkpt lat="45.62787" lon="6.64873">
        <ele>2460.15</ele>
        <time>2018-02-08T09:26:42Z</time>
      </trkpt>
      <trkpt lat="45.62796" lon="6.64877">
        <ele>2462.07</ele>
        <time>2018-02-08T09:26:57Z</time>
      </trkpt>
      <trkpt lat="45.62799" lon="6.64875">
        <ele>2462.55</ele>
        <time>2018-02-08T09:27:11Z</time>
      </trkpt>
      <trkpt lat="45.62799" lon="6.64876">
        <ele>2463.04</ele>
        <time>2018-02-08T09:27:36Z</time>
      </trkpt>
      <trkpt lat="45.62802" lon="6.64877">
        <ele>2462.55</ele>
        <time>2018-02-08T09:27:56Z</time>
      </trkpt>
      <trkpt lat="45.62796" lon="6.64869">
        <ele>2464</ele>
        <time>2018-02-08T09:28:08Z</time>
      </trkpt>
      <trkpt lat="45.62791" lon="6.64859">
        <ele>2465.44</ele>
        <time>2018-02-08T09:28:25Z</time>
      </trkpt>
      <trkpt lat="45.62799" lon="6.64863">
        <ele>2467.84</ele>
        <time>2018-02-08T09:28:40Z</time>
      </trkpt>
      <trkpt lat="45.62808" lon="6.64863">
        <ele>2469.28</ele>
        <time>2018-02-08T09:28:55Z</time>
      </trkpt>
      <trkpt lat="45.62807" lon="6.64859">
        <ele>2469.76</ele>
        <time>2018-02-08T09:29:10Z</time>
      </trkpt>
      <trkpt lat="45.62802" lon="6.64851">
        <ele>2471.21</ele>
        <time>2018-02-08T09:29:24Z</time>
      </trkpt>
      <trkpt lat="45.62797" lon="6.64846">
        <ele>2472.65</ele>
        <time>2018-02-08T09:29:39Z</time>
      </trkpt>
      <trkpt lat="45.62796" lon="6.64843">
        <ele>2473.61</ele>
        <time>2018-02-08T09:29:52Z</time>
      </trkpt>
      <trkpt lat="45.62804" lon="6.64846">
        <ele>2474.57</ele>
        <time>2018-02-08T09:30:10Z</time>
      </trkpt>
      <trkpt lat="45.6281" lon="6.64846">
        <ele>2475.53</ele>
        <time>2018-02-08T09:30:24Z</time>
      </trkpt>
      <trkpt lat="45.62807" lon="6.64843">
        <ele>2476.49</ele>
        <time>2018-02-08T09:30:35Z</time>
      </trkpt>
      <trkpt lat="45.62802" lon="6.64835">
        <ele>2477.94</ele>
        <time>2018-02-08T09:30:49Z</time>
      </trkpt>
      <trkpt lat="45.62805" lon="6.64839">
        <ele>2478.42</ele>
        <time>2018-02-08T09:31:03Z</time>
      </trkpt>
      <trkpt lat="45.62809" lon="6.64838">
        <ele>2478.9</ele>
        <time>2018-02-08T09:31:18Z</time>
      </trkpt>
      <trkpt lat="45.62808" lon="6.64838">
        <ele>2478.9</ele>
        <time>2018-02-08T09:31:44Z</time>
      </trkpt>
      <trkpt lat="45.62812" lon="6.64837">
        <ele>2479.86</ele>
        <time>2018-02-08T09:31:59Z</time>
      </trkpt>
      <trkpt lat="45.62811" lon="6.64835">
        <ele>2479.86</ele>
        <time>2018-02-08T09:32:15Z</time>
      </trkpt>
      <trkpt lat="45.62808" lon="6.64832">
        <ele>2480.82</ele>
        <time>2018-02-08T09:32:28Z</time>
      </trkpt>
      <trkpt lat="45.62805" lon="6.6483">
        <ele>2481.3</ele>
        <time>2018-02-08T09:32:44Z</time>
      </trkpt>
      <trkpt lat="45.62804" lon="6.64827">
        <ele>2482.26</ele>
        <time>2018-02-08T09:33:06Z</time>
      </trkpt>
      <trkpt lat="45.62812" lon="6.64828">
        <ele>2484.18</ele>
        <time>2018-02-08T09:33:20Z</time>
      </trkpt>
      <trkpt lat="45.62818" lon="6.64829">
        <ele>2485.63</ele>
        <time>2018-02-08T09:33:36Z</time>
      </trkpt>
      <trkpt lat="45.6282" lon="6.64828">
        <ele>2485.63</ele>
        <time>2018-02-08T09:33:58Z</time>
      </trkpt>
      <trkpt lat="45.62822" lon="6.64825">
        <ele>2486.11</ele>
        <time>2018-02-08T09:34:10Z</time>
      </trkpt>
      <trkpt lat="45.62817" lon="6.6482">
        <ele>2487.55</ele>
        <time>2018-02-08T09:34:24Z</time>
      </trkpt>
      <trkpt lat="45.62812" lon="6.64814">
        <ele>2488.99</ele>
        <time>2018-02-08T09:34:37Z</time>
      </trkpt>
      <trkpt lat="45.62812" lon="6.64814">
        <ele>2489.47</ele>
        <time>2018-02-08T09:34:48Z</time>
      </trkpt>
      <trkpt lat="45.62821" lon="6.64815">
        <ele>2490.91</ele>
        <time>2018-02-08T09:35:02Z</time>
      </trkpt>
      <trkpt lat="45.6282" lon="6.64813">
        <ele>2491.87</ele>
        <time>2018-02-08T09:35:16Z</time>
      </trkpt>
      <trkpt lat="45.62814" lon="6.64806">
        <ele>2493.8</ele>
        <time>2018-02-08T09:35:31Z</time>
      </trkpt>
      <trkpt lat="45.62812" lon="6.648">
        <ele>2494.76</ele>
        <time>2018-02-08T09:35:48Z</time>
      </trkpt>
      <trkpt lat="45.62811" lon="6.648">
        <ele>2495.24</ele>
        <time>2018-02-08T09:35:59Z</time>
      </trkpt>
      <trkpt lat="45.62812" lon="6.648">
        <ele>2494.76</ele>
        <time>2018-02-08T09:36:19Z</time>
      </trkpt>
      <trkpt lat="45.62813" lon="6.648">
        <ele>2495.24</ele>
        <time>2018-02-08T09:36:27Z</time>
      </trkpt>
      <trkpt lat="45.62821" lon="6.64796">
        <ele>2497.16</ele>
        <time>2018-02-08T09:36:40Z</time>
      </trkpt>
      <trkpt lat="45.62827" lon="6.64795">
        <ele>2498.12</ele>
        <time>2018-02-08T09:36:53Z</time>
      </trkpt>
      <trkpt lat="45.62823" lon="6.64796">
        <ele>2498.6</ele>
        <time>2018-02-08T09:37:08Z</time>
      </trkpt>
      <trkpt lat="45.62821" lon="6.64795">
        <ele>2498.6</ele>
        <time>2018-02-08T09:37:11Z</time>
      </trkpt>
      <trkpt lat="45.62818" lon="6.6479">
        <ele>2500.05</ele>
        <time>2018-02-08T09:37:23Z</time>
      </trkpt>
      <trkpt lat="45.6282" lon="6.64781">
        <ele>2500.05</ele>
        <time>2018-02-08T09:37:45Z</time>
      </trkpt>
      <trkpt lat="45.62818" lon="6.64782">
        <ele>2500.05</ele>
        <time>2018-02-08T09:38:12Z</time>
      </trkpt>
      <trkpt lat="45.62814" lon="6.64784">
        <ele>2501.01</ele>
        <time>2018-02-08T09:38:30Z</time>
      </trkpt>
      <trkpt lat="45.62821" lon="6.6478">
        <ele>2501.97</ele>
        <time>2018-02-08T09:38:45Z</time>
      </trkpt>
      <trkpt lat="45.62827" lon="6.64781">
        <ele>2503.89</ele>
        <time>2018-02-08T09:38:58Z</time>
      </trkpt>
      <trkpt lat="45.62829" lon="6.64783">
        <ele>2504.85</ele>
        <time>2018-02-08T09:39:12Z</time>
      </trkpt>
      <trkpt lat="45.62823" lon="6.64778">
        <ele>2505.33</ele>
        <time>2018-02-08T09:39:27Z</time>
      </trkpt>
      <trkpt lat="45.62819" lon="6.64775">
        <ele>2506.77</ele>
        <time>2018-02-08T09:39:35Z</time>
      </trkpt>
      <trkpt lat="45.62817" lon="6.6477">
        <ele>2507.26</ele>
        <time>2018-02-08T09:39:50Z</time>
      </trkpt>
      <trkpt lat="45.62818" lon="6.64773">
        <ele>2508.22</ele>
        <time>2018-02-08T09:40:02Z</time>
      </trkpt>
      <trkpt lat="45.62824" lon="6.64773">
        <ele>2509.18</ele>
        <time>2018-02-08T09:40:18Z</time>
      </trkpt>
      <trkpt lat="45.62832" lon="6.64774">
        <ele>2511.58</ele>
        <time>2018-02-08T09:40:35Z</time>
      </trkpt>
      <trkpt lat="45.62835" lon="6.64773">
        <ele>2511.58</ele>
        <time>2018-02-08T09:40:50Z</time>
      </trkpt>
      <trkpt lat="45.62837" lon="6.64773">
        <ele>2512.54</ele>
        <time>2018-02-08T09:41:07Z</time>
      </trkpt>
      <trkpt lat="45.62832" lon="6.64771">
        <ele>2513.02</ele>
        <time>2018-02-08T09:41:29Z</time>
      </trkpt>
      <trkpt lat="45.62823" lon="6.64761">
        <ele>2515.43</ele>
        <time>2018-02-08T09:41:47Z</time>
      </trkpt>
      <trkpt lat="45.6282" lon="6.64761">
        <ele>2516.39</ele>
        <time>2018-02-08T09:41:56Z</time>
      </trkpt>
      <trkpt lat="45.6282" lon="6.6476">
        <ele>2516.87</ele>
        <time>2018-02-08T09:42:10Z</time>
      </trkpt>
      <trkpt lat="45.62828" lon="6.64758">
        <ele>2517.83</ele>
        <time>2018-02-08T09:42:22Z</time>
      </trkpt>
      <trkpt lat="45.62835" lon="6.64756">
        <ele>2519.27</ele>
        <time>2018-02-08T09:42:35Z</time>
      </trkpt>
      <trkpt lat="45.62842" lon="6.64755">
        <ele>2521.19</ele>
        <time>2018-02-08T09:42:49Z</time>
      </trkpt>
      <trkpt lat="45.6284" lon="6.6476">
        <ele>2521.19</ele>
        <time>2018-02-08T09:43:07Z</time>
      </trkpt>
      <trkpt lat="45.62845" lon="6.64757">
        <ele>2521.19</ele>
        <time>2018-02-08T09:43:21Z</time>
      </trkpt>
      <trkpt lat="45.62845" lon="6.64757">
        <ele>2521.68</ele>
        <time>2018-02-08T09:43:44Z</time>
      </trkpt>
      <trkpt lat="45.62845" lon="6.64755">
        <ele>2521.68</ele>
        <time>2018-02-08T09:44:02Z</time>
      </trkpt>
      <trkpt lat="45.62846" lon="6.6475">
        <ele>2521.68</ele>
        <time>2018-02-08T09:44:24Z</time>
      </trkpt>
      <trkpt lat="45.62847" lon="6.64752">
        <ele>2521.68</ele>
        <time>2018-02-08T09:44:47Z</time>
      </trkpt>
      <trkpt lat="45.6285" lon="6.64747">
        <ele>2522.16</ele>
        <time>2018-02-08T09:45:05Z</time>
      </trkpt>
      <trkpt lat="45.6285" lon="6.64747">
        <ele>2522.16</ele>
        <time>2018-02-08T09:45:25Z</time>
      </trkpt>
      <trkpt lat="45.62847" lon="6.64752">
        <ele>2522.64</ele>
        <time>2018-02-08T09:45:37Z</time>
      </trkpt>
      <trkpt lat="45.62841" lon="6.64752">
        <ele>2524.08</ele>
        <time>2018-02-08T09:45:48Z</time>
      </trkpt>
      <trkpt lat="45.62836" lon="6.6475">
        <ele>2524.56</ele>
        <time>2018-02-08T09:46:00Z</time>
      </trkpt>
      <trkpt lat="45.62831" lon="6.64747">
        <ele>2526.48</ele>
        <time>2018-02-08T09:46:12Z</time>
      </trkpt>
      <trkpt lat="45.62822" lon="6.64751">
        <ele>2526.96</ele>
        <time>2018-02-08T09:46:31Z</time>
      </trkpt>
      <trkpt lat="45.62834" lon="6.64744">
        <ele>2527.92</ele>
        <time>2018-02-08T09:46:45Z</time>
      </trkpt>
      <trkpt lat="45.62839" lon="6.64743">
        <ele>2528.89</ele>
        <time>2018-02-08T09:46:58Z</time>
      </trkpt>
      <trkpt lat="45.62842" lon="6.64741">
        <ele>2529.37</ele>
        <time>2018-02-08T09:47:16Z</time>
      </trkpt>
      <trkpt lat="45.6284" lon="6.64738">
        <ele>2529.85</ele>
        <time>2018-02-08T09:47:29Z</time>
      </trkpt>
      <trkpt lat="45.62835" lon="6.64737">
        <ele>2531.29</ele>
        <time>2018-02-08T09:47:41Z</time>
      </trkpt>
      <trkpt lat="45.62831" lon="6.64741">
        <ele>2531.29</ele>
        <time>2018-02-08T09:47:56Z</time>
      </trkpt>
      <trkpt lat="45.62832" lon="6.64737">
        <ele>2530.81</ele>
        <time>2018-02-08T09:48:06Z</time>
      </trkpt>
      <trkpt lat="45.62833" lon="6.64734">
        <ele>2531.29</ele>
        <time>2018-02-08T09:48:21Z</time>
      </trkpt>
      <trkpt lat="45.62837" lon="6.64737">
        <ele>2532.25</ele>
        <time>2018-02-08T09:48:37Z</time>
      </trkpt>
      <trkpt lat="45.62843" lon="6.64737">
        <ele>2533.69</ele>
        <time>2018-02-08T09:48:50Z</time>
      </trkpt>
      <trkpt lat="45.62846" lon="6.64738">
        <ele>2534.17</ele>
        <time>2018-02-08T09:49:08Z</time>
      </trkpt>
      <trkpt lat="45.62853" lon="6.64735">
        <ele>2536.58</ele>
        <time>2018-02-08T09:49:21Z</time>
      </trkpt>
      <trkpt lat="45.62857" lon="6.64735">
        <ele>2538.5</ele>
        <time>2018-02-08T09:49:34Z</time>
      </trkpt>
      <trkpt lat="45.62861" lon="6.64734">
        <ele>2538.98</ele>
        <time>2018-02-08T09:49:47Z</time>
      </trkpt>
      <trkpt lat="45.62867" lon="6.64734">
        <ele>2540.9</ele>
        <time>2018-02-08T09:50:01Z</time>
      </trkpt>
      <trkpt lat="45.62867" lon="6.64732">
        <ele>2541.38</ele>
        <time>2018-02-08T09:50:21Z</time>
      </trkpt>
      <trkpt lat="45.62862" lon="6.64729">
        <ele>2542.34</ele>
        <time>2018-02-08T09:50:37Z</time>
      </trkpt>
      <trkpt lat="45.62857" lon="6.64724">
        <ele>2544.75</ele>
        <time>2018-02-08T09:50:51Z</time>
      </trkpt>
      <trkpt lat="45.62859" lon="6.64726">
        <ele>2544.75</ele>
        <time>2018-02-08T09:51:05Z</time>
      </trkpt>
      <trkpt lat="45.62858" lon="6.64726">
        <ele>2545.23</ele>
        <time>2018-02-08T09:51:22Z</time>
      </trkpt>
      <trkpt lat="45.62852" lon="6.64726">
        <ele>2545.23</ele>
        <time>2018-02-08T09:51:34Z</time>
      </trkpt>
      <trkpt lat="45.62851" lon="6.64721">
        <ele>2546.19</ele>
        <time>2018-02-08T09:51:44Z</time>
      </trkpt>
      <trkpt lat="45.62856" lon="6.64718">
        <ele>2546.67</ele>
        <time>2018-02-08T09:52:00Z</time>
      </trkpt>
      <trkpt lat="45.62862" lon="6.64719">
        <ele>2548.11</ele>
        <time>2018-02-08T09:52:17Z</time>
      </trkpt>
      <trkpt lat="45.62861" lon="6.64713">
        <ele>2548.11</ele>
        <time>2018-02-08T09:52:38Z</time>
      </trkpt>
      <trkpt lat="45.62862" lon="6.64722">
        <ele>2548.59</ele>
        <time>2018-02-08T09:52:53Z</time>
      </trkpt>
      <trkpt lat="45.62862" lon="6.6472">
        <ele>2548.59</ele>
        <time>2018-02-08T09:53:15Z</time>
      </trkpt>
      <trkpt lat="45.62859" lon="6.64713">
        <ele>2548.11</ele>
        <time>2018-02-08T09:53:42Z</time>
      </trkpt>
      <trkpt lat="45.6286" lon="6.64719">
        <ele>2548.11</ele>
        <time>2018-02-08T09:54:04Z</time>
      </trkpt>
      <trkpt lat="45.62861" lon="6.64718">
        <ele>2548.59</ele>
        <time>2018-02-08T09:54:38Z</time>
      </trkpt>
      <trkpt lat="45.62866" lon="6.64718">
        <ele>2549.55</ele>
        <time>2018-02-08T09:54:54Z</time>
      </trkpt>
      <trkpt lat="45.62869" lon="6.64716">
        <ele>2551</ele>
        <time>2018-02-08T09:55:10Z</time>
      </trkpt>
      <trkpt lat="45.62868" lon="6.64715">
        <ele>2551</ele>
        <time>2018-02-08T09:55:30Z</time>
      </trkpt>
      <trkpt lat="45.62866" lon="6.64713">
        <ele>2551.48</ele>
        <time>2018-02-08T09:55:56Z</time>
      </trkpt>
      <trkpt lat="45.62863" lon="6.6471">
        <ele>2553.4</ele>
        <time>2018-02-08T09:56:07Z</time>
      </trkpt>
      <trkpt lat="45.62859" lon="6.64705">
        <ele>2554.84</ele>
        <time>2018-02-08T09:56:20Z</time>
      </trkpt>
      <trkpt lat="45.6286" lon="6.64704">
        <ele>2554.84</ele>
        <time>2018-02-08T09:56:39Z</time>
      </trkpt>
      <trkpt lat="45.62861" lon="6.64705">
        <ele>2554.84</ele>
        <time>2018-02-08T09:57:01Z</time>
      </trkpt>
      <trkpt lat="45.62866" lon="6.64705">
        <ele>2555.8</ele>
        <time>2018-02-08T09:57:20Z</time>
      </trkpt>
      <trkpt lat="45.62869" lon="6.64704">
        <ele>2556.76</ele>
        <time>2018-02-08T09:57:33Z</time>
      </trkpt>
      <trkpt lat="45.62867" lon="6.64705">
        <ele>2556.76</ele>
        <time>2018-02-08T09:57:50Z</time>
      </trkpt>
      <trkpt lat="45.62865" lon="6.64702">
        <ele>2557.24</ele>
        <time>2018-02-08T09:58:14Z</time>
      </trkpt>
      <trkpt lat="45.62862" lon="6.64699">
        <ele>2558.69</ele>
        <time>2018-02-08T09:58:31Z</time>
      </trkpt>
      <trkpt lat="45.62864" lon="6.64699">
        <ele>2559.17</ele>
        <time>2018-02-08T09:58:47Z</time>
      </trkpt>
      <trkpt lat="45.62866" lon="6.64698">
        <ele>2560.13</ele>
        <time>2018-02-08T09:59:04Z</time>
      </trkpt>
      <trkpt lat="45.62872" lon="6.647">
        <ele>2562.05</ele>
        <time>2018-02-08T09:59:18Z</time>
      </trkpt>
      <trkpt lat="45.62871" lon="6.64695">
        <ele>2562.53</ele>
        <time>2018-02-08T09:59:33Z</time>
      </trkpt>
      <trkpt lat="45.62868" lon="6.64693">
        <ele>2563.01</ele>
        <time>2018-02-08T09:59:50Z</time>
      </trkpt>
      <trkpt lat="45.62864" lon="6.6469">
        <ele>2563.97</ele>
        <time>2018-02-08T10:00:05Z</time>
      </trkpt>
      <trkpt lat="45.62859" lon="6.64688">
        <ele>2565.9</ele>
        <time>2018-02-08T10:00:19Z</time>
      </trkpt>
      <trkpt lat="45.62854" lon="6.64685">
        <ele>2567.34</ele>
        <time>2018-02-08T10:00:32Z</time>
      </trkpt>
      <trkpt lat="45.62851" lon="6.64683">
        <ele>2568.3</ele>
        <time>2018-02-08T10:00:46Z</time>
      </trkpt>
      <trkpt lat="45.62848" lon="6.64681">
        <ele>2568.78</ele>
        <time>2018-02-08T10:01:04Z</time>
      </trkpt>
      <trkpt lat="45.62849" lon="6.64678">
        <ele>2569.26</ele>
        <time>2018-02-08T10:01:20Z</time>
      </trkpt>
      <trkpt lat="45.62855" lon="6.64681">
        <ele>2570.22</ele>
        <time>2018-02-08T10:01:36Z</time>
      </trkpt>
      <trkpt lat="45.6286" lon="6.64679">
        <ele>2572.14</ele>
        <time>2018-02-08T10:01:49Z</time>
      </trkpt>
      <trkpt lat="45.62859" lon="6.64677">
        <ele>2572.63</ele>
        <time>2018-02-08T10:02:03Z</time>
      </trkpt>
      <trkpt lat="45.62856" lon="6.64675">
        <ele>2574.07</ele>
        <time>2018-02-08T10:02:18Z</time>
      </trkpt>
      <trkpt lat="45.62851" lon="6.64673">
        <ele>2574.55</ele>
        <time>2018-02-08T10:02:32Z</time>
      </trkpt>
      <trkpt lat="45.62851" lon="6.6467">
        <ele>2575.03</ele>
        <time>2018-02-08T10:02:50Z</time>
      </trkpt>
      <trkpt lat="45.62856" lon="6.64671">
        <ele>2575.99</ele>
        <time>2018-02-08T10:03:09Z</time>
      </trkpt>
      <trkpt lat="45.62859" lon="6.6467">
        <ele>2577.43</ele>
        <time>2018-02-08T10:03:21Z</time>
      </trkpt>
      <trkpt lat="45.62861" lon="6.64669">
        <ele>2577.91</ele>
        <time>2018-02-08T10:03:38Z</time>
      </trkpt>
      <trkpt lat="45.62861" lon="6.64667">
        <ele>2579.35</ele>
        <time>2018-02-08T10:03:53Z</time>
      </trkpt>
      <trkpt lat="45.62858" lon="6.64665">
        <ele>2579.35</ele>
        <time>2018-02-08T10:04:05Z</time>
      </trkpt>
      <trkpt lat="45.62852" lon="6.64662">
        <ele>2581.28</ele>
        <time>2018-02-08T10:04:19Z</time>
      </trkpt>
      <trkpt lat="45.6285" lon="6.64659">
        <ele>2582.24</ele>
        <time>2018-02-08T10:04:41Z</time>
      </trkpt>
      <trkpt lat="45.62852" lon="6.64658">
        <ele>2582.72</ele>
        <time>2018-02-08T10:05:00Z</time>
      </trkpt>
      <trkpt lat="45.62856" lon="6.64659">
        <ele>2582.72</ele>
        <time>2018-02-08T10:05:13Z</time>
      </trkpt>
      <trkpt lat="45.62859" lon="6.64657">
        <ele>2583.68</ele>
        <time>2018-02-08T10:05:28Z</time>
      </trkpt>
      <trkpt lat="45.62861" lon="6.64655">
        <ele>2585.6</ele>
        <time>2018-02-08T10:05:40Z</time>
      </trkpt>
      <trkpt lat="45.62863" lon="6.64653">
        <ele>2585.6</ele>
        <time>2018-02-08T10:05:55Z</time>
      </trkpt>
      <trkpt lat="45.62862" lon="6.64651">
        <ele>2586.56</ele>
        <time>2018-02-08T10:06:10Z</time>
      </trkpt>
      <trkpt lat="45.62858" lon="6.6465">
        <ele>2586.56</ele>
        <time>2018-02-08T10:06:29Z</time>
      </trkpt>
      <trkpt lat="45.62854" lon="6.64649">
        <ele>2588.01</ele>
        <time>2018-02-08T10:06:40Z</time>
      </trkpt>
      <trkpt lat="45.62853" lon="6.64647">
        <ele>2588.49</ele>
        <time>2018-02-08T10:06:56Z</time>
      </trkpt>
      <trkpt lat="45.6286" lon="6.64645">
        <ele>2589.93</ele>
        <time>2018-02-08T10:07:11Z</time>
      </trkpt>
      <trkpt lat="45.62865" lon="6.64643">
        <ele>2591.37</ele>
        <time>2018-02-08T10:07:24Z</time>
      </trkpt>
      <trkpt lat="45.62866" lon="6.64644">
        <ele>2591.37</ele>
        <time>2018-02-08T10:07:39Z</time>
      </trkpt>
      <trkpt lat="45.62869" lon="6.64642">
        <ele>2592.33</ele>
        <time>2018-02-08T10:07:51Z</time>
      </trkpt>
      <trkpt lat="45.62867" lon="6.64641">
        <ele>2592.81</ele>
        <time>2018-02-08T10:08:06Z</time>
      </trkpt>
      <trkpt lat="45.62862" lon="6.64639">
        <ele>2594.25</ele>
        <time>2018-02-08T10:08:19Z</time>
      </trkpt>
      <trkpt lat="45.62858" lon="6.64636">
        <ele>2595.22</ele>
        <time>2018-02-08T10:08:30Z</time>
      </trkpt>
      <trkpt lat="45.62858" lon="6.64632">
        <ele>2596.66</ele>
        <time>2018-02-08T10:08:44Z</time>
      </trkpt>
      <trkpt lat="45.62861" lon="6.64631">
        <ele>2597.14</ele>
        <time>2018-02-08T10:08:59Z</time>
      </trkpt>
      <trkpt lat="45.62864" lon="6.64635">
        <ele>2595.7</ele>
        <time>2018-02-08T10:09:11Z</time>
      </trkpt>
      <trkpt lat="45.62864" lon="6.64632">
        <ele>2595.7</ele>
        <time>2018-02-08T10:09:32Z</time>
      </trkpt>
      <trkpt lat="45.62863" lon="6.64631">
        <ele>2595.7</ele>
        <time>2018-02-08T10:10:02Z</time>
      </trkpt>
      <trkpt lat="45.62862" lon="6.6463">
        <ele>2595.22</ele>
        <time>2018-02-08T10:10:33Z</time>
      </trkpt>
      <trkpt lat="45.62865" lon="6.64634">
        <ele>2595.22</ele>
        <time>2018-02-08T10:10:58Z</time>
      </trkpt>
      <trkpt lat="45.62867" lon="6.64634">
        <ele>2595.22</ele>
        <time>2018-02-08T10:11:25Z</time>
      </trkpt>
      <trkpt lat="45.62862" lon="6.64634">
        <ele>2596.18</ele>
        <time>2018-02-08T10:11:45Z</time>
      </trkpt>
      <trkpt lat="45.62861" lon="6.64632">
        <ele>2595.7</ele>
        <time>2018-02-08T10:12:02Z</time>
      </trkpt>
      <trkpt lat="45.62864" lon="6.64635">
        <ele>2596.18</ele>
        <time>2018-02-08T10:12:28Z</time>
      </trkpt>
      <trkpt lat="45.62867" lon="6.64631">
        <ele>2597.62</ele>
        <time>2018-02-08T10:12:40Z</time>
      </trkpt>
      <trkpt lat="45.62869" lon="6.6463">
        <ele>2598.1</ele>
        <time>2018-02-08T10:12:54Z</time>
      </trkpt>
      <trkpt lat="45.62873" lon="6.64629">
        <ele>2599.54</ele>
        <time>2018-02-08T10:13:05Z</time>
      </trkpt>
      <trkpt lat="45.62878" lon="6.64628">
        <ele>2600.98</ele>
        <time>2018-02-08T10:13:18Z</time>
      </trkpt>
      <trkpt lat="45.62882" lon="6.64627">
        <ele>2601.46</ele>
        <time>2018-02-08T10:13:31Z</time>
      </trkpt>
      <trkpt lat="45.6288" lon="6.64625">
        <ele>2602.43</ele>
        <time>2018-02-08T10:13:45Z</time>
      </trkpt>
      <trkpt lat="45.62879" lon="6.64626">
        <ele>2602.43</ele>
        <time>2018-02-08T10:13:48Z</time>
      </trkpt>
      <trkpt lat="45.62881" lon="6.64626">
        <ele>2600.98</ele>
        <time>2018-02-08T10:14:02Z</time>
      </trkpt>
      <trkpt lat="45.6288" lon="6.64626">
        <ele>2600.98</ele>
        <time>2018-02-08T10:14:32Z</time>
      </trkpt>
      <trkpt lat="45.62876" lon="6.64624">
        <ele>2600.98</ele>
        <time>2018-02-08T10:15:00Z</time>
      </trkpt>
      <trkpt lat="45.62877" lon="6.64625">
        <ele>2601.95</ele>
        <time>2018-02-08T10:15:23Z</time>
      </trkpt>
      <trkpt lat="45.62879" lon="6.64626">
        <ele>2602.43</ele>
        <time>2018-02-08T10:15:38Z</time>
      </trkpt>
      <trkpt lat="45.62873" lon="6.64624">
        <ele>2602.91</ele>
        <time>2018-02-08T10:15:50Z</time>
      </trkpt>
      <trkpt lat="45.6287" lon="6.64618">
        <ele>2603.87</ele>
        <time>2018-02-08T10:16:02Z</time>
      </trkpt>
      <trkpt lat="45.62875" lon="6.64618">
        <ele>2605.31</ele>
        <time>2018-02-08T10:16:17Z</time>
      </trkpt>
      <trkpt lat="45.62881" lon="6.64617">
        <ele>2607.23</ele>
        <time>2018-02-08T10:16:31Z</time>
      </trkpt>
      <trkpt lat="45.62884" lon="6.64618">
        <ele>2608.19</ele>
        <time>2018-02-08T10:16:43Z</time>
      </trkpt>
      <trkpt lat="45.62885" lon="6.64617">
        <ele>2608.19</ele>
        <time>2018-02-08T10:16:57Z</time>
      </trkpt>
      <trkpt lat="45.62882" lon="6.64614">
        <ele>2609.16</ele>
        <time>2018-02-08T10:17:11Z</time>
      </trkpt>
      <trkpt lat="45.62876" lon="6.64611">
        <ele>2610.6</ele>
        <time>2018-02-08T10:17:25Z</time>
      </trkpt>
      <trkpt lat="45.62873" lon="6.64609">
        <ele>2611.56</ele>
        <time>2018-02-08T10:17:41Z</time>
      </trkpt>
      <trkpt lat="45.62872" lon="6.64607">
        <ele>2611.56</ele>
        <time>2018-02-08T10:17:56Z</time>
      </trkpt>
      <trkpt lat="45.62868" lon="6.64604">
        <ele>2612.52</ele>
        <time>2018-02-08T10:18:06Z</time>
      </trkpt>
      <trkpt lat="45.62874" lon="6.64601">
        <ele>2614.44</ele>
        <time>2018-02-08T10:18:23Z</time>
      </trkpt>
      <trkpt lat="45.62875" lon="6.64602">
        <ele>2614.44</ele>
        <time>2018-02-08T10:18:40Z</time>
      </trkpt>
      <trkpt lat="45.62879" lon="6.64604">
        <ele>2614.44</ele>
        <time>2018-02-08T10:19:03Z</time>
      </trkpt>
      <trkpt lat="45.62881" lon="6.64607">
        <ele>2614.44</ele>
        <time>2018-02-08T10:19:31Z</time>
      </trkpt>
      <trkpt lat="45.62876" lon="6.64602">
        <ele>2614.44</ele>
        <time>2018-02-08T10:19:56Z</time>
      </trkpt>
      <trkpt lat="45.62878" lon="6.64601">
        <ele>2613.96</ele>
        <time>2018-02-08T10:20:27Z</time>
      </trkpt>
      <trkpt lat="45.6288" lon="6.64604">
        <ele>2613.96</ele>
        <time>2018-02-08T10:21:01Z</time>
      </trkpt>
      <trkpt lat="45.62878" lon="6.64604">
        <ele>2614.44</ele>
        <time>2018-02-08T10:21:24Z</time>
      </trkpt>
      <trkpt lat="45.62875" lon="6.64602">
        <ele>2613.96</ele>
        <time>2018-02-08T10:21:46Z</time>
      </trkpt>
      <trkpt lat="45.62874" lon="6.64603">
        <ele>2613.96</ele>
        <time>2018-02-08T10:22:09Z</time>
      </trkpt>
      <trkpt lat="45.62875" lon="6.64602">
        <ele>2613.96</ele>
        <time>2018-02-08T10:22:29Z</time>
      </trkpt>
      <trkpt lat="45.62875" lon="6.646">
        <ele>2613.48</ele>
        <time>2018-02-08T10:22:57Z</time>
      </trkpt>
      <trkpt lat="45.6288" lon="6.64604">
        <ele>2613.96</ele>
        <time>2018-02-08T10:23:23Z</time>
      </trkpt>
      <trkpt lat="45.62877" lon="6.64602">
        <ele>2613.96</ele>
        <time>2018-02-08T10:23:54Z</time>
      </trkpt>
      <trkpt lat="45.62878" lon="6.64601">
        <ele>2615.4</ele>
        <time>2018-02-08T10:24:06Z</time>
      </trkpt>
      <trkpt lat="45.62876" lon="6.64602">
        <ele>2614.92</ele>
        <time>2018-02-08T10:24:27Z</time>
      </trkpt>
      <trkpt lat="45.62876" lon="6.646">
        <ele>2614.92</ele>
        <time>2018-02-08T10:24:53Z</time>
      </trkpt>
      <trkpt lat="45.62881" lon="6.64602">
        <ele>2615.88</ele>
        <time>2018-02-08T10:25:09Z</time>
      </trkpt>
      <trkpt lat="45.62881" lon="6.64598">
        <ele>2615.88</ele>
        <time>2018-02-08T10:25:30Z</time>
      </trkpt>
      <trkpt lat="45.62879" lon="6.646">
        <ele>2616.37</ele>
        <time>2018-02-08T10:25:51Z</time>
      </trkpt>
      <trkpt lat="45.62883" lon="6.646">
        <ele>2615.88</ele>
        <time>2018-02-08T10:26:14Z</time>
      </trkpt>
      <trkpt lat="45.62885" lon="6.646">
        <ele>2616.37</ele>
        <time>2018-02-08T10:26:26Z</time>
      </trkpt>
      <trkpt lat="45.62885" lon="6.64603">
        <ele>2616.85</ele>
        <time>2018-02-08T10:26:55Z</time>
      </trkpt>
      <trkpt lat="45.62882" lon="6.64598">
        <ele>2616.37</ele>
        <time>2018-02-08T10:27:22Z</time>
      </trkpt>
      <trkpt lat="45.62888" lon="6.64602">
        <ele>2616.37</ele>
        <time>2018-02-08T10:27:40Z</time>
      </trkpt>
      <trkpt lat="45.62886" lon="6.64601">
        <ele>2616.85</ele>
        <time>2018-02-08T10:28:01Z</time>
      </trkpt>
      <trkpt lat="45.62889" lon="6.64602">
        <ele>2616.85</ele>
        <time>2018-02-08T10:28:25Z</time>
      </trkpt>
      <trkpt lat="45.62892" lon="6.64601">
        <ele>2617.81</ele>
        <time>2018-02-08T10:28:36Z</time>
      </trkpt>
      <trkpt lat="45.62897" lon="6.64601">
        <ele>2619.73</ele>
        <time>2018-02-08T10:28:49Z</time>
      </trkpt>
      <trkpt lat="45.62895" lon="6.64601">
        <ele>2619.73</ele>
        <time>2018-02-08T10:29:03Z</time>
      </trkpt>
      <trkpt lat="45.62893" lon="6.64598">
        <ele>2620.69</ele>
        <time>2018-02-08T10:29:20Z</time>
      </trkpt>
      <trkpt lat="45.62891" lon="6.64596">
        <ele>2621.65</ele>
        <time>2018-02-08T10:29:33Z</time>
      </trkpt>
      <trkpt lat="45.62893" lon="6.64595">
        <ele>2622.13</ele>
        <time>2018-02-08T10:29:47Z</time>
      </trkpt>
      <trkpt lat="45.62892" lon="6.64597">
        <ele>2621.65</ele>
        <time>2018-02-08T10:30:05Z</time>
      </trkpt>
      <trkpt lat="45.62894" lon="6.64597">
        <ele>2622.13</ele>
        <time>2018-02-08T10:30:32Z</time>
      </trkpt>
      <trkpt lat="45.62892" lon="6.64596">
        <ele>2622.13</ele>
        <time>2018-02-08T10:30:50Z</time>
      </trkpt>
      <trkpt lat="45.62893" lon="6.64598">
        <ele>2622.13</ele>
        <time>2018-02-08T10:31:15Z</time>
      </trkpt>
      <trkpt lat="45.62896" lon="6.64596">
        <ele>2622.61</ele>
        <time>2018-02-08T10:31:38Z</time>
      </trkpt>
      <trkpt lat="45.62901" lon="6.64595">
        <ele>2624.54</ele>
        <time>2018-02-08T10:31:52Z</time>
      </trkpt>
      <trkpt lat="45.62899" lon="6.64594">
        <ele>2624.54</ele>
        <time>2018-02-08T10:32:08Z</time>
      </trkpt>
      <trkpt lat="45.62896" lon="6.6459">
        <ele>2625.02</ele>
        <time>2018-02-08T10:32:23Z</time>
      </trkpt>
      <trkpt lat="45.62893" lon="6.6459">
        <ele>2626.46</ele>
        <time>2018-02-08T10:32:37Z</time>
      </trkpt>
      <trkpt lat="45.62894" lon="6.64589">
        <ele>2626.46</ele>
        <time>2018-02-08T10:32:56Z</time>
      </trkpt>
      <trkpt lat="45.62895" lon="6.64587">
        <ele>2625.98</ele>
        <time>2018-02-08T10:33:17Z</time>
      </trkpt>
      <trkpt lat="45.62894" lon="6.64588">
        <ele>2626.94</ele>
        <time>2018-02-08T10:33:30Z</time>
      </trkpt>
      <trkpt lat="45.62898" lon="6.64587">
        <ele>2627.42</ele>
        <time>2018-02-08T10:33:46Z</time>
      </trkpt>
      <trkpt lat="45.629" lon="6.6459">
        <ele>2627.42</ele>
        <time>2018-02-08T10:34:12Z</time>
      </trkpt>
      <trkpt lat="45.629" lon="6.64589">
        <ele>2626.94</ele>
        <time>2018-02-08T10:34:29Z</time>
      </trkpt>
      <trkpt lat="45.62903" lon="6.64589">
        <ele>2627.9</ele>
        <time>2018-02-08T10:34:38Z</time>
      </trkpt>
      <trkpt lat="45.62904" lon="6.64588">
        <ele>2628.86</ele>
        <time>2018-02-08T10:34:52Z</time>
      </trkpt>
      <trkpt lat="45.62899" lon="6.64584">
        <ele>2629.82</ele>
        <time>2018-02-08T10:35:11Z</time>
      </trkpt>
      <trkpt lat="45.62896" lon="6.64581">
        <ele>2630.79</ele>
        <time>2018-02-08T10:35:23Z</time>
      </trkpt>
      <trkpt lat="45.62898" lon="6.6458">
        <ele>2631.75</ele>
        <time>2018-02-08T10:35:38Z</time>
      </trkpt>
      <trkpt lat="45.629" lon="6.64581">
        <ele>2631.75</ele>
        <time>2018-02-08T10:35:59Z</time>
      </trkpt>
      <trkpt lat="45.62901" lon="6.64579">
        <ele>2632.71</ele>
        <time>2018-02-08T10:36:12Z</time>
      </trkpt>
      <trkpt lat="45.62904" lon="6.64582">
        <ele>2633.19</ele>
        <time>2018-02-08T10:36:30Z</time>
      </trkpt>
      <trkpt lat="45.62906" lon="6.64582">
        <ele>2634.63</ele>
        <time>2018-02-08T10:36:46Z</time>
      </trkpt>
      <trkpt lat="45.62901" lon="6.64579">
        <ele>2634.63</ele>
        <time>2018-02-08T10:37:03Z</time>
      </trkpt>
      <trkpt lat="45.62898" lon="6.64574">
        <ele>2635.59</ele>
        <time>2018-02-08T10:37:16Z</time>
      </trkpt>
      <trkpt lat="45.629" lon="6.64573">
        <ele>2636.55</ele>
        <time>2018-02-08T10:37:29Z</time>
      </trkpt>
      <trkpt lat="45.62902" lon="6.64573">
        <ele>2637.51</ele>
        <time>2018-02-08T10:37:49Z</time>
      </trkpt>
      <trkpt lat="45.62905" lon="6.64572">
        <ele>2638.48</ele>
        <time>2018-02-08T10:38:02Z</time>
      </trkpt>
      <trkpt lat="45.62901" lon="6.64571">
        <ele>2639.44</ele>
        <time>2018-02-08T10:38:20Z</time>
      </trkpt>
      <trkpt lat="45.629" lon="6.64568">
        <ele>2639.92</ele>
        <time>2018-02-08T10:38:36Z</time>
      </trkpt>
      <trkpt lat="45.62903" lon="6.64569">
        <ele>2640.4</ele>
        <time>2018-02-08T10:38:58Z</time>
      </trkpt>
      <trkpt lat="45.62907" lon="6.64571">
        <ele>2640.88</ele>
        <time>2018-02-08T10:39:09Z</time>
      </trkpt>
      <trkpt lat="45.62908" lon="6.64568">
        <ele>2642.32</ele>
        <time>2018-02-08T10:39:24Z</time>
      </trkpt>
      <trkpt lat="45.62905" lon="6.64568">
        <ele>2642.32</ele>
        <time>2018-02-08T10:39:45Z</time>
      </trkpt>
      <trkpt lat="45.62901" lon="6.64564">
        <ele>2643.76</ele>
        <time>2018-02-08T10:39:59Z</time>
      </trkpt>
      <trkpt lat="45.62903" lon="6.64563">
        <ele>2644.24</ele>
        <time>2018-02-08T10:40:14Z</time>
      </trkpt>
      <trkpt lat="45.62905" lon="6.64561">
        <ele>2645.21</ele>
        <time>2018-02-08T10:40:32Z</time>
      </trkpt>
      <trkpt lat="45.62906" lon="6.64559">
        <ele>2645.69</ele>
        <time>2018-02-08T10:40:46Z</time>
      </trkpt>
      <trkpt lat="45.62904" lon="6.64561">
        <ele>2646.65</ele>
        <time>2018-02-08T10:41:04Z</time>
      </trkpt>
      <trkpt lat="45.62901" lon="6.64558">
        <ele>2647.61</ele>
        <time>2018-02-08T10:41:19Z</time>
      </trkpt>
      <trkpt lat="45.62902" lon="6.64556">
        <ele>2647.61</ele>
        <time>2018-02-08T10:41:35Z</time>
      </trkpt>
      <trkpt lat="45.62906" lon="6.64555">
        <ele>2648.57</ele>
        <time>2018-02-08T10:41:50Z</time>
      </trkpt>
      <trkpt lat="45.6291" lon="6.64556">
        <ele>2649.53</ele>
        <time>2018-02-08T10:42:04Z</time>
      </trkpt>
      <trkpt lat="45.62906" lon="6.64554">
        <ele>2650.01</ele>
        <time>2018-02-08T10:42:21Z</time>
      </trkpt>
      <trkpt lat="45.62904" lon="6.64551">
        <ele>2651.45</ele>
        <time>2018-02-08T10:42:36Z</time>
      </trkpt>
      <trkpt lat="45.62905" lon="6.6455">
        <ele>2651.45</ele>
        <time>2018-02-08T10:42:59Z</time>
      </trkpt>
      <trkpt lat="45.62908" lon="6.64551">
        <ele>2651.93</ele>
        <time>2018-02-08T10:43:18Z</time>
      </trkpt>
      <trkpt lat="45.62904" lon="6.64551">
        <ele>2652.9</ele>
        <time>2018-02-08T10:43:34Z</time>
      </trkpt>
      <trkpt lat="45.62904" lon="6.64549">
        <ele>2653.38</ele>
        <time>2018-02-08T10:43:49Z</time>
      </trkpt>
      <trkpt lat="45.62905" lon="6.64548">
        <ele>2653.86</ele>
        <time>2018-02-08T10:44:04Z</time>
      </trkpt>
      <trkpt lat="45.62909" lon="6.64547">
        <ele>2655.78</ele>
        <time>2018-02-08T10:44:18Z</time>
      </trkpt>
      <trkpt lat="45.62909" lon="6.64545">
        <ele>2655.78</ele>
        <time>2018-02-08T10:44:34Z</time>
      </trkpt>
      <trkpt lat="45.62905" lon="6.64545">
        <ele>2657.22</ele>
        <time>2018-02-08T10:44:50Z</time>
      </trkpt>
      <trkpt lat="45.62907" lon="6.64548">
        <ele>2656.74</ele>
        <time>2018-02-08T10:45:09Z</time>
      </trkpt>
      <trkpt lat="45.62905" lon="6.64547">
        <ele>2657.22</ele>
        <time>2018-02-08T10:45:31Z</time>
      </trkpt>
      <trkpt lat="45.62901" lon="6.64546">
        <ele>2658.66</ele>
        <time>2018-02-08T10:45:44Z</time>
      </trkpt>
      <trkpt lat="45.62902" lon="6.64542">
        <ele>2659.14</ele>
        <time>2018-02-08T10:46:00Z</time>
      </trkpt>
      <trkpt lat="45.62908" lon="6.6454">
        <ele>2659.62</ele>
        <time>2018-02-08T10:46:13Z</time>
      </trkpt>
      <trkpt lat="45.62911" lon="6.64539">
        <ele>2661.55</ele>
        <time>2018-02-08T10:46:26Z</time>
      </trkpt>
      <trkpt lat="45.62907" lon="6.64535">
        <ele>2661.55</ele>
        <time>2018-02-08T10:46:46Z</time>
      </trkpt>
      <trkpt lat="45.62905" lon="6.64535">
        <ele>2661.07</ele>
        <time>2018-02-08T10:47:02Z</time>
      </trkpt>
      <trkpt lat="45.62905" lon="6.64538">
        <ele>2662.03</ele>
        <time>2018-02-08T10:47:19Z</time>
      </trkpt>
      <trkpt lat="45.62908" lon="6.64535">
        <ele>2662.99</ele>
        <time>2018-02-08T10:47:35Z</time>
      </trkpt>
      <trkpt lat="45.62911" lon="6.64532">
        <ele>2663.47</ele>
        <time>2018-02-08T10:47:51Z</time>
      </trkpt>
      <trkpt lat="45.62915" lon="6.64534">
        <ele>2665.87</ele>
        <time>2018-02-08T10:48:05Z</time>
      </trkpt>
      <trkpt lat="45.62916" lon="6.64535">
        <ele>2665.87</ele>
        <time>2018-02-08T10:48:16Z</time>
      </trkpt>
      <trkpt lat="45.62912" lon="6.64532">
        <ele>2665.87</ele>
        <time>2018-02-08T10:48:32Z</time>
      </trkpt>
      <trkpt lat="45.62911" lon="6.64529">
        <ele>2666.83</ele>
        <time>2018-02-08T10:48:45Z</time>
      </trkpt>
      <trkpt lat="45.62909" lon="6.64526">
        <ele>2667.8</ele>
        <time>2018-02-08T10:49:00Z</time>
      </trkpt>
      <trkpt lat="45.62912" lon="6.64527">
        <ele>2669.24</ele>
        <time>2018-02-08T10:49:14Z</time>
      </trkpt>
      <trkpt lat="45.62918" lon="6.64529">
        <ele>2669.72</ele>
        <time>2018-02-08T10:49:30Z</time>
      </trkpt>
      <trkpt lat="45.62919" lon="6.64528">
        <ele>2671.16</ele>
        <time>2018-02-08T10:49:45Z</time>
      </trkpt>
      <trkpt lat="45.62921" lon="6.6453">
        <ele>2671.16</ele>
        <time>2018-02-08T10:50:09Z</time>
      </trkpt>
      <trkpt lat="45.62916" lon="6.64524">
        <ele>2671.64</ele>
        <time>2018-02-08T10:50:28Z</time>
      </trkpt>
      <trkpt lat="45.62915" lon="6.64518">
        <ele>2673.08</ele>
        <time>2018-02-08T10:50:45Z</time>
      </trkpt>
      <trkpt lat="45.62917" lon="6.64519">
        <ele>2673.56</ele>
        <time>2018-02-08T10:51:06Z</time>
      </trkpt>
      <trkpt lat="45.62921" lon="6.6452">
        <ele>2674.52</ele>
        <time>2018-02-08T10:51:20Z</time>
      </trkpt>
      <trkpt lat="45.62921" lon="6.64521">
        <ele>2676.45</ele>
        <time>2018-02-08T10:51:35Z</time>
      </trkpt>
      <trkpt lat="45.62917" lon="6.64517">
        <ele>2676.93</ele>
        <time>2018-02-08T10:51:54Z</time>
      </trkpt>
      <trkpt lat="45.62917" lon="6.64516">
        <ele>2676.93</ele>
        <time>2018-02-08T10:52:15Z</time>
      </trkpt>
      <trkpt lat="45.6292" lon="6.6452">
        <ele>2676.93</ele>
        <time>2018-02-08T10:52:46Z</time>
      </trkpt>
      <trkpt lat="45.62919" lon="6.64516">
        <ele>2676.93</ele>
        <time>2018-02-08T10:53:07Z</time>
      </trkpt>
      <trkpt lat="45.62916" lon="6.64513">
        <ele>2676.93</ele>
        <time>2018-02-08T10:53:21Z</time>
      </trkpt>
      <trkpt lat="45.62915" lon="6.64511">
        <ele>2678.37</ele>
        <time>2018-02-08T10:53:35Z</time>
      </trkpt>
      <trkpt lat="45.62919" lon="6.64511">
        <ele>2679.33</ele>
        <time>2018-02-08T10:53:52Z</time>
      </trkpt>
      <trkpt lat="45.62919" lon="6.6451">
        <ele>2679.33</ele>
        <time>2018-02-08T10:54:07Z</time>
      </trkpt>
      <trkpt lat="45.62919" lon="6.64511">
        <ele>2680.29</ele>
        <time>2018-02-08T10:54:21Z</time>
      </trkpt>
      <trkpt lat="45.62919" lon="6.64512">
        <ele>2680.29</ele>
        <time>2018-02-08T10:54:45Z</time>
      </trkpt>
      <trkpt lat="45.62916" lon="6.64509">
        <ele>2680.29</ele>
        <time>2018-02-08T10:55:06Z</time>
      </trkpt>
      <trkpt lat="45.62915" lon="6.64509">
        <ele>2679.81</ele>
        <time>2018-02-08T10:55:25Z</time>
      </trkpt>
      <trkpt lat="45.62914" lon="6.64509">
        <ele>2679.81</ele>
        <time>2018-02-08T10:55:47Z</time>
      </trkpt>
      <trkpt lat="45.62913" lon="6.64506">
        <ele>2680.29</ele>
        <time>2018-02-08T10:56:08Z</time>
      </trkpt>
      <trkpt lat="45.62916" lon="6.6451">
        <ele>2679.33</ele>
        <time>2018-02-08T10:56:18Z</time>
      </trkpt>
      <trkpt lat="45.62918" lon="6.64509">
        <ele>2679.81</ele>
        <time>2018-02-08T10:56:38Z</time>
      </trkpt>
      <trkpt lat="45.62918" lon="6.64512">
        <ele>2679.33</ele>
        <time>2018-02-08T10:57:03Z</time>
      </trkpt>
      <trkpt lat="45.62917" lon="6.64512">
        <ele>2679.33</ele>
        <time>2018-02-08T10:57:31Z</time>
      </trkpt>
      <trkpt lat="45.62916" lon="6.64514">
        <ele>2679.33</ele>
        <time>2018-02-08T10:57:49Z</time>
      </trkpt>
      <trkpt lat="45.6292" lon="6.64513">
        <ele>2679.81</ele>
        <time>2018-02-08T10:58:15Z</time>
      </trkpt>
      <trkpt lat="45.62916" lon="6.645">
        <ele>2679.81</ele>
        <time>2018-02-08T10:58:49Z</time>
      </trkpt>
      <trkpt lat="45.6291" lon="6.64496">
        <ele>2679.33</ele>
        <time>2018-02-08T10:59:22Z</time>
      </trkpt>
      <trkpt lat="45.62909" lon="6.64497">
        <ele>2679.33</ele>
        <time>2018-02-08T10:59:55Z</time>
      </trkpt>
      <trkpt lat="45.62906" lon="6.64497">
        <ele>2679.33</ele>
        <time>2018-02-08T11:00:28Z</time>
      </trkpt>
      <trkpt lat="45.62909" lon="6.64499">
        <ele>2678.37</ele>
        <time>2018-02-08T11:01:04Z</time>
      </trkpt>
      <trkpt lat="45.62916" lon="6.64506">
        <ele>2679.81</ele>
        <time>2018-02-08T11:01:15Z</time>
      </trkpt>
      <trkpt lat="45.62913" lon="6.64502">
        <ele>2680.29</ele>
        <time>2018-02-08T11:01:32Z</time>
      </trkpt>
      <trkpt lat="45.62912" lon="6.64506">
        <ele>2680.29</ele>
        <time>2018-02-08T11:01:52Z</time>
      </trkpt>
      <trkpt lat="45.62913" lon="6.64506">
        <ele>2680.29</ele>
        <time>2018-02-08T11:02:06Z</time>
      </trkpt>
      <trkpt lat="45.62911" lon="6.64505">
        <ele>2681.73</ele>
        <time>2018-02-08T11:02:22Z</time>
      </trkpt>
      <trkpt lat="45.6291" lon="6.64502">
        <ele>2683.66</ele>
        <time>2018-02-08T11:02:36Z</time>
      </trkpt>
      <trkpt lat="45.62909" lon="6.64501">
        <ele>2684.14</ele>
        <time>2018-02-08T11:02:47Z</time>
      </trkpt>
      <trkpt lat="45.62909" lon="6.64501">
        <ele>2684.62</ele>
        <time>2018-02-08T11:03:07Z</time>
      </trkpt>
      <trkpt lat="45.62907" lon="6.64501">
        <ele>2686.06</ele>
        <time>2018-02-08T11:03:21Z</time>
      </trkpt>
      <trkpt lat="45.62905" lon="6.64498">
        <ele>2687.5</ele>
        <time>2018-02-08T11:03:36Z</time>
      </trkpt>
      <trkpt lat="45.62905" lon="6.64495">
        <ele>2688.94</ele>
        <time>2018-02-08T11:03:51Z</time>
      </trkpt>
      <trkpt lat="45.62903" lon="6.64492">
        <ele>2689.91</ele>
        <time>2018-02-08T11:04:08Z</time>
      </trkpt>
      <trkpt lat="45.62901" lon="6.64493">
        <ele>2690.39</ele>
        <time>2018-02-08T11:04:25Z</time>
      </trkpt>
      <trkpt lat="45.629" lon="6.64494">
        <ele>2691.83</ele>
        <time>2018-02-08T11:04:42Z</time>
      </trkpt>
      <trkpt lat="45.62898" lon="6.64493">
        <ele>2693.27</ele>
        <time>2018-02-08T11:04:56Z</time>
      </trkpt>
      <trkpt lat="45.62897" lon="6.6449">
        <ele>2694.71</ele>
        <time>2018-02-08T11:05:16Z</time>
      </trkpt>
      <trkpt lat="45.62895" lon="6.64489">
        <ele>2695.67</ele>
        <time>2018-02-08T11:05:27Z</time>
      </trkpt>
      <trkpt lat="45.62894" lon="6.64484">
        <ele>2696.64</ele>
        <time>2018-02-08T11:05:41Z</time>
      </trkpt>
      <trkpt lat="45.62894" lon="6.64479">
        <ele>2698.08</ele>
        <time>2018-02-08T11:05:56Z</time>
      </trkpt>
      <trkpt lat="45.62896" lon="6.64478">
        <ele>2699.52</ele>
        <time>2018-02-08T11:06:12Z</time>
      </trkpt>
      <trkpt lat="45.62894" lon="6.64475">
        <ele>2700</ele>
        <time>2018-02-08T11:06:31Z</time>
      </trkpt>
      <trkpt lat="45.62894" lon="6.64474">
        <ele>2701.44</ele>
        <time>2018-02-08T11:06:35Z</time>
      </trkpt>
      <trkpt lat="45.62896" lon="6.64472">
        <ele>2702.88</ele>
        <time>2018-02-08T11:06:50Z</time>
      </trkpt>
      <trkpt lat="45.62895" lon="6.64473">
        <ele>2703.36</ele>
        <time>2018-02-08T11:07:10Z</time>
      </trkpt>
      <trkpt lat="45.62894" lon="6.64472">
        <ele>2705.29</ele>
        <time>2018-02-08T11:07:26Z</time>
      </trkpt>
      <trkpt lat="45.62894" lon="6.64474">
        <ele>2705.77</ele>
        <time>2018-02-08T11:07:50Z</time>
      </trkpt>
      <trkpt lat="45.62893" lon="6.6447">
        <ele>2707.69</ele>
        <time>2018-02-08T11:08:03Z</time>
      </trkpt>
      <trkpt lat="45.62892" lon="6.64465">
        <ele>2709.13</ele>
        <time>2018-02-08T11:08:16Z</time>
      </trkpt>
      <trkpt lat="45.62892" lon="6.6446">
        <ele>2710.57</ele>
        <time>2018-02-08T11:08:32Z</time>
      </trkpt>
      <trkpt lat="45.62892" lon="6.64457">
        <ele>2712.98</ele>
        <time>2018-02-08T11:08:51Z</time>
      </trkpt>
      <trkpt lat="45.62893" lon="6.64456">
        <ele>2713.46</ele>
        <time>2018-02-08T11:09:05Z</time>
      </trkpt>
      <trkpt lat="45.62892" lon="6.64454">
        <ele>2714.42</ele>
        <time>2018-02-08T11:09:30Z</time>
      </trkpt>
      <trkpt lat="45.62894" lon="6.6445">
        <ele>2715.86</ele>
        <time>2018-02-08T11:09:43Z</time>
      </trkpt>
      <trkpt lat="45.62894" lon="6.64447">
        <ele>2717.3</ele>
        <time>2018-02-08T11:09:57Z</time>
      </trkpt>
      <trkpt lat="45.62894" lon="6.64449">
        <ele>2718.75</ele>
        <time>2018-02-08T11:10:16Z</time>
      </trkpt>
      <trkpt lat="45.62895" lon="6.64445">
        <ele>2719.71</ele>
        <time>2018-02-08T11:10:34Z</time>
      </trkpt>
      <trkpt lat="45.62894" lon="6.64443">
        <ele>2721.63</ele>
        <time>2018-02-08T11:10:52Z</time>
      </trkpt>
      <trkpt lat="45.62894" lon="6.64443">
        <ele>2722.59</ele>
        <time>2018-02-08T11:11:05Z</time>
      </trkpt>
      <trkpt lat="45.62893" lon="6.64442">
        <ele>2724.51</ele>
        <time>2018-02-08T11:11:22Z</time>
      </trkpt>
      <trkpt lat="45.62893" lon="6.64441">
        <ele>2724.99</ele>
        <time>2018-02-08T11:11:43Z</time>
      </trkpt>
      <trkpt lat="45.62889" lon="6.64439">
        <ele>2726.44</ele>
        <time>2018-02-08T11:11:57Z</time>
      </trkpt>
      <trkpt lat="45.62888" lon="6.64434">
        <ele>2727.88</ele>
        <time>2018-02-08T11:12:10Z</time>
      </trkpt>
      <trkpt lat="45.62889" lon="6.64429">
        <ele>2727.4</ele>
        <time>2018-02-08T11:12:23Z</time>
      </trkpt>
      <trkpt lat="45.62895" lon="6.64428">
        <ele>2728.36</ele>
        <time>2018-02-08T11:12:38Z</time>
      </trkpt>
      <trkpt lat="45.62898" lon="6.64425">
        <ele>2729.32</ele>
        <time>2018-02-08T11:12:57Z</time>
      </trkpt>
      <trkpt lat="45.62898" lon="6.64429">
        <ele>2729.32</ele>
        <time>2018-02-08T11:13:09Z</time>
      </trkpt>
      <trkpt lat="45.62897" lon="6.64427">
        <ele>2728.84</ele>
        <time>2018-02-08T11:13:21Z</time>
      </trkpt>
      <trkpt lat="45.62897" lon="6.64428">
        <ele>2728.84</ele>
        <time>2018-02-08T11:13:39Z</time>
      </trkpt>
      <trkpt lat="45.62897" lon="6.64426">
        <ele>2728.36</ele>
        <time>2018-02-08T11:13:59Z</time>
      </trkpt>
      <trkpt lat="45.62898" lon="6.64426">
        <ele>2728.36</ele>
        <time>2018-02-08T11:14:23Z</time>
      </trkpt>
      <trkpt lat="45.62899" lon="6.64426">
        <ele>2728.36</ele>
        <time>2018-02-08T11:15:03Z</time>
      </trkpt>
      <trkpt lat="45.62899" lon="6.64431">
        <ele>2728.84</ele>
        <time>2018-02-08T11:15:29Z</time>
      </trkpt>
      <trkpt lat="45.62898" lon="6.64427">
        <ele>2728.36</ele>
        <time>2018-02-08T11:15:48Z</time>
      </trkpt>
      <trkpt lat="45.62897" lon="6.64428">
        <ele>2728.36</ele>
        <time>2018-02-08T11:16:07Z</time>
      </trkpt>
      <trkpt lat="45.62896" lon="6.64427">
        <ele>2727.88</ele>
        <time>2018-02-08T11:16:33Z</time>
      </trkpt>
      <trkpt lat="45.62896" lon="6.64429">
        <ele>2728.36</ele>
        <time>2018-02-08T11:17:09Z</time>
      </trkpt>
      <trkpt lat="45.62893" lon="6.64427">
        <ele>2727.4</ele>
        <time>2018-02-08T11:17:43Z</time>
      </trkpt>
      <trkpt lat="45.62899" lon="6.6443">
        <ele>2726.92</ele>
        <time>2018-02-08T11:18:19Z</time>
      </trkpt>
      <trkpt lat="45.62898" lon="6.64425">
        <ele>2726.92</ele>
        <time>2018-02-08T11:18:56Z</time>
      </trkpt>
      <trkpt lat="45.62899" lon="6.64422">
        <ele>2726.92</ele>
        <time>2018-02-08T11:19:37Z</time>
      </trkpt>
      <trkpt lat="45.629" lon="6.64425">
        <ele>2727.4</ele>
        <time>2018-02-08T11:20:08Z</time>
      </trkpt>
      <trkpt lat="45.62899" lon="6.64428">
        <ele>2727.4</ele>
        <time>2018-02-08T11:20:44Z</time>
      </trkpt>
      <trkpt lat="45.62896" lon="6.64429">
        <ele>2726.92</ele>
        <time>2018-02-08T11:21:20Z</time>
      </trkpt>
      <trkpt lat="45.62895" lon="6.64427">
        <ele>2726.92</ele>
        <time>2018-02-08T11:21:57Z</time>
      </trkpt>
      <trkpt lat="45.62897" lon="6.64428">
        <ele>2726.92</ele>
        <time>2018-02-08T11:22:19Z</time>
      </trkpt>
      <trkpt lat="45.62898" lon="6.64427">
        <ele>2726.92</ele>
        <time>2018-02-08T11:22:53Z</time>
      </trkpt>
      <trkpt lat="45.62889" lon="6.64434">
        <ele>2727.4</ele>
        <time>2018-02-08T11:23:27Z</time>
      </trkpt>
      <trkpt lat="45.62892" lon="6.64433">
        <ele>2726.92</ele>
        <time>2018-02-08T11:24:04Z</time>
      </trkpt>
      <trkpt lat="45.62894" lon="6.64431">
        <ele>2726.92</ele>
        <time>2018-02-08T11:24:39Z</time>
      </trkpt>
      <trkpt lat="45.62897" lon="6.64428">
        <ele>2726.92</ele>
        <time>2018-02-08T11:25:09Z</time>
      </trkpt>
      <trkpt lat="45.62896" lon="6.64427">
        <ele>2726.92</ele>
        <time>2018-02-08T11:25:46Z</time>
      </trkpt>
      <trkpt lat="45.62897" lon="6.64427">
        <ele>2726.92</ele>
        <time>2018-02-08T11:26:14Z</time>
      </trkpt>
      <trkpt lat="45.62895" lon="6.64427">
        <ele>2726.92</ele>
        <time>2018-02-08T11:26:45Z</time>
      </trkpt>
      <trkpt lat="45.62896" lon="6.64427">
        <ele>2726.44</ele>
        <time>2018-02-08T11:27:11Z</time>
      </trkpt>
      <trkpt lat="45.62899" lon="6.64427">
        <ele>2726.92</ele>
        <time>2018-02-08T11:27:42Z</time>
      </trkpt>
      <trkpt lat="45.629" lon="6.64427">
        <ele>2725.96</ele>
        <time>2018-02-08T11:28:10Z</time>
      </trkpt>
      <trkpt lat="45.62901" lon="6.64426">
        <ele>2726.44</ele>
        <time>2018-02-08T11:28:42Z</time>
      </trkpt>
      <trkpt lat="45.62901" lon="6.64427">
        <ele>2726.44</ele>
        <time>2018-02-08T11:29:11Z</time>
      </trkpt>
      <trkpt lat="45.62899" lon="6.64426">
        <ele>2725.96</ele>
        <time>2018-02-08T11:29:36Z</time>
      </trkpt>
      <trkpt lat="45.629" lon="6.64427">
        <ele>2726.44</ele>
        <time>2018-02-08T11:29:57Z</time>
      </trkpt>
      <trkpt lat="45.62899" lon="6.64425">
        <ele>2725.96</ele>
        <time>2018-02-08T11:30:32Z</time>
      </trkpt>
      <trkpt lat="45.62897" lon="6.64425">
        <ele>2725.96</ele>
        <time>2018-02-08T11:30:58Z</time>
      </trkpt>
      <trkpt lat="45.62898" lon="6.64428">
        <ele>2725.96</ele>
        <time>2018-02-08T11:31:19Z</time>
      </trkpt>
      <trkpt lat="45.62898" lon="6.64433">
        <ele>2726.44</ele>
        <time>2018-02-08T11:31:44Z</time>
      </trkpt>
      <trkpt lat="45.62897" lon="6.64433">
        <ele>2726.92</ele>
        <time>2018-02-08T11:32:14Z</time>
      </trkpt>
      <trkpt lat="45.62896" lon="6.64428">
        <ele>2726.44</ele>
        <time>2018-02-08T11:32:43Z</time>
      </trkpt>
      <trkpt lat="45.62895" lon="6.64429">
        <ele>2726.44</ele>
        <time>2018-02-08T11:33:16Z</time>
      </trkpt>
      <trkpt lat="45.62894" lon="6.64431">
        <ele>2725.48</ele>
        <time>2018-02-08T11:33:44Z</time>
      </trkpt>
      <trkpt lat="45.62895" lon="6.64429">
        <ele>2725.48</ele>
        <time>2018-02-08T11:34:13Z</time>
      </trkpt>
      <trkpt lat="45.62896" lon="6.6443">
        <ele>2725.48</ele>
        <time>2018-02-08T11:34:49Z</time>
      </trkpt>
      <trkpt lat="45.62898" lon="6.64428">
        <ele>2725.48</ele>
        <time>2018-02-08T11:35:26Z</time>
      </trkpt>
      <trkpt lat="45.62896" lon="6.64431">
        <ele>2725.48</ele>
        <time>2018-02-08T11:36:00Z</time>
      </trkpt>
      <trkpt lat="45.62898" lon="6.64429">
        <ele>2724.99</ele>
        <time>2018-02-08T11:36:31Z</time>
      </trkpt>
      <trkpt lat="45.62899" lon="6.6443">
        <ele>2725.48</ele>
        <time>2018-02-08T11:37:05Z</time>
      </trkpt>
      <trkpt lat="45.62898" lon="6.64432">
        <ele>2725.48</ele>
        <time>2018-02-08T11:37:29Z</time>
      </trkpt>
      <trkpt lat="45.62897" lon="6.64431">
        <ele>2724.99</ele>
        <time>2018-02-08T11:37:55Z</time>
      </trkpt>
      <trkpt lat="45.62897" lon="6.64431">
        <ele>2724.51</ele>
        <time>2018-02-08T11:38:26Z</time>
      </trkpt>
      <trkpt lat="45.62898" lon="6.64432">
        <ele>2724.99</ele>
        <time>2018-02-08T11:38:53Z</time>
      </trkpt>
      <trkpt lat="45.62897" lon="6.64434">
        <ele>2724.51</ele>
        <time>2018-02-08T11:39:26Z</time>
      </trkpt>
      <trkpt lat="45.62896" lon="6.64432">
        <ele>2724.51</ele>
        <time>2018-02-08T11:39:54Z</time>
      </trkpt>
      <trkpt lat="45.62897" lon="6.64434">
        <ele>2725.48</ele>
        <time>2018-02-08T11:40:27Z</time>
      </trkpt>
      <trkpt lat="45.62898" lon="6.64431">
        <ele>2725.48</ele>
        <time>2018-02-08T11:40:56Z</time>
      </trkpt>
      <trkpt lat="45.62898" lon="6.6443">
        <ele>2724.99</ele>
        <time>2018-02-08T11:41:17Z</time>
      </trkpt>
      <trkpt lat="45.62899" lon="6.64431">
        <ele>2724.99</ele>
        <time>2018-02-08T11:41:41Z</time>
      </trkpt>
      <trkpt lat="45.62897" lon="6.64431">
        <ele>2724.99</ele>
        <time>2018-02-08T11:42:10Z</time>
      </trkpt>
      <trkpt lat="45.62897" lon="6.64429">
        <ele>2724.51</ele>
        <time>2018-02-08T11:42:50Z</time>
      </trkpt>
      <trkpt lat="45.62896" lon="6.64431">
        <ele>2724.51</ele>
        <time>2018-02-08T11:43:15Z</time>
      </trkpt>
      <trkpt lat="45.62898" lon="6.64431">
        <ele>2724.51</ele>
        <time>2018-02-08T11:43:48Z</time>
      </trkpt>
      <trkpt lat="45.62897" lon="6.64432">
        <ele>2724.51</ele>
        <time>2018-02-08T11:44:16Z</time>
      </trkpt>
      <trkpt lat="45.62897" lon="6.64433">
        <ele>2724.51</ele>
        <time>2018-02-08T11:44:50Z</time>
      </trkpt>
      <trkpt lat="45.62899" lon="6.64428">
        <ele>2724.51</ele>
        <time>2018-02-08T11:45:20Z</time>
      </trkpt>
      <trkpt lat="45.629" lon="6.64426">
        <ele>2724.51</ele>
        <time>2018-02-08T11:45:55Z</time>
      </trkpt>
      <trkpt lat="45.62901" lon="6.64428">
        <ele>2724.99</ele>
        <time>2018-02-08T11:46:46Z</time>
      </trkpt>
      <trkpt lat="45.62899" lon="6.64427">
        <ele>2724.51</ele>
        <time>2018-02-08T11:47:28Z</time>
      </trkpt>
      <trkpt lat="45.62898" lon="6.64427">
        <ele>2724.51</ele>
        <time>2018-02-08T11:48:03Z</time>
      </trkpt>
      <trkpt lat="45.62899" lon="6.64426">
        <ele>2724.99</ele>
        <time>2018-02-08T11:48:40Z</time>
      </trkpt>
      <trkpt lat="45.62899" lon="6.64426">
        <ele>2724.51</ele>
        <time>2018-02-08T11:49:18Z</time>
      </trkpt>
      <trkpt lat="45.629" lon="6.64427">
        <ele>2724.99</ele>
        <time>2018-02-08T11:49:55Z</time>
      </trkpt>
      <trkpt lat="45.62899" lon="6.64428">
        <ele>2724.99</ele>
        <time>2018-02-08T11:50:38Z</time>
      </trkpt>
      <trkpt lat="45.62898" lon="6.64426">
        <ele>2724.99</ele>
        <time>2018-02-08T11:51:11Z</time>
      </trkpt>
      <trkpt lat="45.62898" lon="6.6443">
        <ele>2724.99</ele>
        <time>2018-02-08T11:51:40Z</time>
      </trkpt>
      <trkpt lat="45.62897" lon="6.64427">
        <ele>2724.99</ele>
        <time>2018-02-08T11:52:06Z</time>
      </trkpt>
      <trkpt lat="45.62896" lon="6.64425">
        <ele>2724.99</ele>
        <time>2018-02-08T11:52:40Z</time>
      </trkpt>
      <trkpt lat="45.62898" lon="6.64424">
        <ele>2724.99</ele>
        <time>2018-02-08T11:53:27Z</time>
      </trkpt>
      <trkpt lat="45.62902" lon="6.64429">
        <ele>2725.48</ele>
        <time>2018-02-08T11:53:58Z</time>
      </trkpt>
      <trkpt lat="45.629" lon="6.64428">
        <ele>2725.48</ele>
        <time>2018-02-08T11:54:30Z</time>
      </trkpt>
      <trkpt lat="45.629" lon="6.6443">
        <ele>2726.44</ele>
        <time>2018-02-08T11:54:52Z</time>
      </trkpt>
      <trkpt lat="45.629" lon="6.64429">
        <ele>2726.44</ele>
        <time>2018-02-08T11:55:18Z</time>
      </trkpt>
      <trkpt lat="45.62901" lon="6.64429">
        <ele>2726.44</ele>
        <time>2018-02-08T11:55:36Z</time>
      </trkpt>
      <trkpt lat="45.62902" lon="6.64429">
        <ele>2726.92</ele>
        <time>2018-02-08T11:55:56Z</time>
      </trkpt>
      <trkpt lat="45.62901" lon="6.6443">
        <ele>2727.4</ele>
        <time>2018-02-08T11:56:20Z</time>
      </trkpt>
      <trkpt lat="45.62901" lon="6.64429">
        <ele>2726.44</ele>
        <time>2018-02-08T11:56:44Z</time>
      </trkpt>
      <trkpt lat="45.62899" lon="6.64427">
        <ele>2726.44</ele>
        <time>2018-02-08T11:56:57Z</time>
      </trkpt>
      <trkpt lat="45.62889" lon="6.64434">
        <ele>2723.55</ele>
        <time>2018-02-08T11:57:04Z</time>
      </trkpt>
      <trkpt lat="45.62888" lon="6.64432">
        <ele>2724.03</ele>
        <time>2018-02-08T11:57:29Z</time>
      </trkpt>
      <trkpt lat="45.62889" lon="6.64434">
        <ele>2724.51</ele>
        <time>2018-02-08T11:57:58Z</time>
      </trkpt>
      <trkpt lat="45.62888" lon="6.64433">
        <ele>2724.03</ele>
        <time>2018-02-08T11:58:15Z</time>
      </trkpt>
      <trkpt lat="45.62881" lon="6.64421">
        <ele>2720.67</ele>
        <time>2018-02-08T11:58:20Z</time>
      </trkpt>
      <trkpt lat="45.6288" lon="6.64418">
        <ele>2720.67</ele>
        <time>2018-02-08T11:58:21Z</time>
      </trkpt>
      <trkpt lat="45.62878" lon="6.64414">
        <ele>2719.23</ele>
        <time>2018-02-08T11:58:22Z</time>
      </trkpt>
      <trkpt lat="45.62863" lon="6.64395">
        <ele>2714.42</ele>
        <time>2018-02-08T11:58:25Z</time>
      </trkpt>
      <trkpt lat="45.62854" lon="6.64386">
        <ele>2716.82</ele>
        <time>2018-02-08T11:58:31Z</time>
      </trkpt>
      <trkpt lat="45.62851" lon="6.64385">
        <ele>2717.78</ele>
        <time>2018-02-08T11:58:44Z</time>
      </trkpt>
      <trkpt lat="45.62847" lon="6.6438">
        <ele>2717.3</ele>
        <time>2018-02-08T11:58:53Z</time>
      </trkpt>
      <trkpt lat="45.62848" lon="6.64362">
        <ele>2713.46</ele>
        <time>2018-02-08T11:58:59Z</time>
      </trkpt>
      <trkpt lat="45.62831" lon="6.6435">
        <ele>2712.98</ele>
        <time>2018-02-08T11:59:06Z</time>
      </trkpt>
      <trkpt lat="45.62827" lon="6.64342">
        <ele>2709.61</ele>
        <time>2018-02-08T11:59:09Z</time>
      </trkpt>
      <trkpt lat="45.62825" lon="6.64341">
        <ele>2710.09</ele>
        <time>2018-02-08T11:59:10Z</time>
      </trkpt>
      <trkpt lat="45.6281" lon="6.64333">
        <ele>2707.21</ele>
        <time>2018-02-08T11:59:15Z</time>
      </trkpt>
      <trkpt lat="45.62803" lon="6.64327">
        <ele>2706.73</ele>
        <time>2018-02-08T11:59:17Z</time>
      </trkpt>
      <trkpt lat="45.62793" lon="6.64298">
        <ele>2704.33</ele>
        <time>2018-02-08T11:59:25Z</time>
      </trkpt>
      <trkpt lat="45.62796" lon="6.64294">
        <ele>2704.33</ele>
        <time>2018-02-08T11:59:34Z</time>
      </trkpt>
      <trkpt lat="45.62798" lon="6.64295">
        <ele>2704.33</ele>
        <time>2018-02-08T11:59:47Z</time>
      </trkpt>
      <trkpt lat="45.62804" lon="6.64297">
        <ele>2702.4</ele>
        <time>2018-02-08T11:59:49Z</time>
      </trkpt>
      <trkpt lat="45.62814" lon="6.64301">
        <ele>2701.92</ele>
        <time>2018-02-08T11:59:51Z</time>
      </trkpt>
      <trkpt lat="45.62819" lon="6.64288">
        <ele>2700.48</ele>
        <time>2018-02-08T11:59:54Z</time>
      </trkpt>
      <trkpt lat="45.62819" lon="6.64282">
        <ele>2700</ele>
        <time>2018-02-08T11:59:55Z</time>
      </trkpt>
      <trkpt lat="45.62837" lon="6.64279">
        <ele>2694.71</ele>
        <time>2018-02-08T12:00:00Z</time>
      </trkpt>
      <trkpt lat="45.62846" lon="6.6428">
        <ele>2694.23</ele>
        <time>2018-02-08T12:00:03Z</time>
      </trkpt>
      <trkpt lat="45.62844" lon="6.64261">
        <ele>2689.91</ele>
        <time>2018-02-08T12:00:07Z</time>
      </trkpt>
      <trkpt lat="45.62839" lon="6.64251">
        <ele>2688.94</ele>
        <time>2018-02-08T12:00:09Z</time>
      </trkpt>
      <trkpt lat="45.62838" lon="6.64232">
        <ele>2685.58</ele>
        <time>2018-02-08T12:00:12Z</time>
      </trkpt>
      <trkpt lat="45.62838" lon="6.64227">
        <ele>2685.58</ele>
        <time>2018-02-08T12:00:13Z</time>
      </trkpt>
      <trkpt lat="45.62852" lon="6.64221">
        <ele>2679.81</ele>
        <time>2018-02-08T12:00:17Z</time>
      </trkpt>
      <trkpt lat="45.62859" lon="6.64202">
        <ele>2675.49</ele>
        <time>2018-02-08T12:00:20Z</time>
      </trkpt>
      <trkpt lat="45.62863" lon="6.64202">
        <ele>2675.49</ele>
        <time>2018-02-08T12:00:21Z</time>
      </trkpt>
      <trkpt lat="45.62872" lon="6.64204">
        <ele>2672.12</ele>
        <time>2018-02-08T12:00:23Z</time>
      </trkpt>
      <trkpt lat="45.62878" lon="6.64198">
        <ele>2667.8</ele>
        <time>2018-02-08T12:00:24Z</time>
      </trkpt>
      <trkpt lat="45.62881" lon="6.64187">
        <ele>2663.95</ele>
        <time>2018-02-08T12:00:26Z</time>
      </trkpt>
      <trkpt lat="45.62895" lon="6.64183">
        <ele>2660.11</ele>
        <time>2018-02-08T12:00:29Z</time>
      </trkpt>
      <trkpt lat="45.62898" lon="6.64177">
        <ele>2656.74</ele>
        <time>2018-02-08T12:00:30Z</time>
      </trkpt>
      <trkpt lat="45.629" lon="6.64165">
        <ele>2653.38</ele>
        <time>2018-02-08T12:00:32Z</time>
      </trkpt>
      <trkpt lat="45.62913" lon="6.64167">
        <ele>2650.01</ele>
        <time>2018-02-08T12:00:35Z</time>
      </trkpt>
      <trkpt lat="45.62917" lon="6.64163">
        <ele>2646.65</ele>
        <time>2018-02-08T12:00:36Z</time>
      </trkpt>
      <trkpt lat="45.62923" lon="6.64153">
        <ele>2643.28</ele>
        <time>2018-02-08T12:00:38Z</time>
      </trkpt>
      <trkpt lat="45.62926" lon="6.64156">
        <ele>2639.92</ele>
        <time>2018-02-08T12:00:41Z</time>
      </trkpt>
      <trkpt lat="45.62927" lon="6.64156">
        <ele>2639.44</ele>
        <time>2018-02-08T12:00:42Z</time>
      </trkpt>
      <trkpt lat="45.62931" lon="6.64144">
        <ele>2637.03</ele>
        <time>2018-02-08T12:00:47Z</time>
      </trkpt>
      <trkpt lat="45.62935" lon="6.64146">
        <ele>2635.11</ele>
        <time>2018-02-08T12:00:50Z</time>
      </trkpt>
      <trkpt lat="45.62935" lon="6.64148">
        <ele>2635.11</ele>
        <time>2018-02-08T12:01:02Z</time>
      </trkpt>
      <trkpt lat="45.6295" lon="6.64167">
        <ele>2631.75</ele>
        <time>2018-02-08T12:01:07Z</time>
      </trkpt>
      <trkpt lat="45.62955" lon="6.64166">
        <ele>2631.27</ele>
        <time>2018-02-08T12:01:08Z</time>
      </trkpt>
      <trkpt lat="45.62956" lon="6.64155">
        <ele>2626.94</ele>
        <time>2018-02-08T12:01:10Z</time>
      </trkpt>
      <trkpt lat="45.62953" lon="6.64148">
        <ele>2625.98</ele>
        <time>2018-02-08T12:01:12Z</time>
      </trkpt>
      <trkpt lat="45.62949" lon="6.64135">
        <ele>2625.98</ele>
        <time>2018-02-08T12:01:23Z</time>
      </trkpt>
      <trkpt lat="45.62948" lon="6.64136">
        <ele>2625.98</ele>
        <time>2018-02-08T12:01:42Z</time>
      </trkpt>
      <trkpt lat="45.62948" lon="6.64137">
        <ele>2625.98</ele>
        <time>2018-02-08T12:02:01Z</time>
      </trkpt>
      <trkpt lat="45.62945" lon="6.64127">
        <ele>2625.98</ele>
        <time>2018-02-08T12:02:14Z</time>
      </trkpt>
      <trkpt lat="45.62937" lon="6.64109">
        <ele>2622.61</ele>
        <time>2018-02-08T12:02:23Z</time>
      </trkpt>
      <trkpt lat="45.62936" lon="6.64103">
        <ele>2622.61</ele>
        <time>2018-02-08T12:02:25Z</time>
      </trkpt>
      <trkpt lat="45.62946" lon="6.64105">
        <ele>2618.29</ele>
        <time>2018-02-08T12:02:29Z</time>
      </trkpt>
      <trkpt lat="45.62947" lon="6.64102">
        <ele>2613.96</ele>
        <time>2018-02-08T12:02:31Z</time>
      </trkpt>
      <trkpt lat="45.62947" lon="6.641">
        <ele>2613.48</ele>
        <time>2018-02-08T12:02:35Z</time>
      </trkpt>
      <trkpt lat="45.62947" lon="6.64087">
        <ele>2610.12</ele>
        <time>2018-02-08T12:02:40Z</time>
      </trkpt>
      <trkpt lat="45.62948" lon="6.64082">
        <ele>2608.67</ele>
        <time>2018-02-08T12:02:51Z</time>
      </trkpt>
      <trkpt lat="45.62948" lon="6.64078">
        <ele>2608.67</ele>
        <time>2018-02-08T12:03:04Z</time>
      </trkpt>
      <trkpt lat="45.62952" lon="6.64079">
        <ele>2608.19</ele>
        <time>2018-02-08T12:03:06Z</time>
      </trkpt>
      <trkpt lat="45.62954" lon="6.64082">
        <ele>2604.35</ele>
        <time>2018-02-08T12:03:07Z</time>
      </trkpt>
      <trkpt lat="45.62958" lon="6.64078">
        <ele>2600.02</ele>
        <time>2018-02-08T12:03:09Z</time>
      </trkpt>
      <trkpt lat="45.62963" lon="6.64068">
        <ele>2595.22</ele>
        <time>2018-02-08T12:03:13Z</time>
      </trkpt>
      <trkpt lat="45.62965" lon="6.64072">
        <ele>2593.29</ele>
        <time>2018-02-08T12:03:15Z</time>
      </trkpt>
      <trkpt lat="45.62968" lon="6.64078">
        <ele>2592.33</ele>
        <time>2018-02-08T12:03:17Z</time>
      </trkpt>
      <trkpt lat="45.62973" lon="6.64076">
        <ele>2588.01</ele>
        <time>2018-02-08T12:03:20Z</time>
      </trkpt>
      <trkpt lat="45.62972" lon="6.64074">
        <ele>2587.53</ele>
        <time>2018-02-08T12:03:36Z</time>
      </trkpt>
      <trkpt lat="45.62972" lon="6.64074">
        <ele>2588.01</ele>
        <time>2018-02-08T12:03:44Z</time>
      </trkpt>
      <trkpt lat="45.62973" lon="6.64062">
        <ele>2585.12</ele>
        <time>2018-02-08T12:03:48Z</time>
      </trkpt>
      <trkpt lat="45.62975" lon="6.64054">
        <ele>2583.68</ele>
        <time>2018-02-08T12:03:51Z</time>
      </trkpt>
      <trkpt lat="45.62984" lon="6.6406">
        <ele>2577.91</ele>
        <time>2018-02-08T12:03:54Z</time>
      </trkpt>
      <trkpt lat="45.6299" lon="6.64072">
        <ele>2575.03</ele>
        <time>2018-02-08T12:03:57Z</time>
      </trkpt>
      <trkpt lat="45.62997" lon="6.64067">
        <ele>2570.7</ele>
        <time>2018-02-08T12:03:59Z</time>
      </trkpt>
      <trkpt lat="45.62997" lon="6.64057">
        <ele>2567.34</ele>
        <time>2018-02-08T12:04:01Z</time>
      </trkpt>
      <trkpt lat="45.63003" lon="6.64055">
        <ele>2563.49</ele>
        <time>2018-02-08T12:04:04Z</time>
      </trkpt>
      <trkpt lat="45.63006" lon="6.64066">
        <ele>2560.13</ele>
        <time>2018-02-08T12:04:08Z</time>
      </trkpt>
      <trkpt lat="45.63011" lon="6.64072">
        <ele>2559.17</ele>
        <time>2018-02-08T12:04:13Z</time>
      </trkpt>
      <trkpt lat="45.6302" lon="6.64061">
        <ele>2551.96</ele>
        <time>2018-02-08T12:04:16Z</time>
      </trkpt>
      <trkpt lat="45.63018" lon="6.64053">
        <ele>2550.03</ele>
        <time>2018-02-08T12:04:18Z</time>
      </trkpt>
      <trkpt lat="45.63014" lon="6.64046">
        <ele>2549.07</ele>
        <time>2018-02-08T12:04:26Z</time>
      </trkpt>
      <trkpt lat="45.63016" lon="6.64034">
        <ele>2546.67</ele>
        <time>2018-02-08T12:04:31Z</time>
      </trkpt>
      <trkpt lat="45.63025" lon="6.64039">
        <ele>2543.31</ele>
        <time>2018-02-08T12:04:35Z</time>
      </trkpt>
      <trkpt lat="45.63026" lon="6.64043">
        <ele>2540.42</ele>
        <time>2018-02-08T12:04:37Z</time>
      </trkpt>
      <trkpt lat="45.6303" lon="6.64039">
        <ele>2537.06</ele>
        <time>2018-02-08T12:04:40Z</time>
      </trkpt>
      <trkpt lat="45.6303" lon="6.64036">
        <ele>2535.61</ele>
        <time>2018-02-08T12:04:42Z</time>
      </trkpt>
      <trkpt lat="45.63034" lon="6.64023">
        <ele>2532.25</ele>
        <time>2018-02-08T12:04:57Z</time>
      </trkpt>
      <trkpt lat="45.63034" lon="6.64021">
        <ele>2532.25</ele>
        <time>2018-02-08T12:04:58Z</time>
      </trkpt>
      <trkpt lat="45.63035" lon="6.64018">
        <ele>2532.25</ele>
        <time>2018-02-08T12:04:59Z</time>
      </trkpt>
      <trkpt lat="45.63042" lon="6.64023">
        <ele>2527.92</ele>
        <time>2018-02-08T12:05:02Z</time>
      </trkpt>
      <trkpt lat="45.63048" lon="6.64016">
        <ele>2522.16</ele>
        <time>2018-02-08T12:05:05Z</time>
      </trkpt>
      <trkpt lat="45.63056" lon="6.64018">
        <ele>2517.35</ele>
        <time>2018-02-08T12:05:09Z</time>
      </trkpt>
      <trkpt lat="45.63056" lon="6.64019">
        <ele>2516.39</ele>
        <time>2018-02-08T12:05:11Z</time>
      </trkpt>
      <trkpt lat="45.63057" lon="6.64022">
        <ele>2515.91</ele>
        <time>2018-02-08T12:05:28Z</time>
      </trkpt>
      <trkpt lat="45.63065" lon="6.64035">
        <ele>2513.02</ele>
        <time>2018-02-08T12:05:34Z</time>
      </trkpt>
      <trkpt lat="45.63074" lon="6.64025">
        <ele>2506.77</ele>
        <time>2018-02-08T12:05:37Z</time>
      </trkpt>
      <trkpt lat="45.63072" lon="6.64017">
        <ele>2505.33</ele>
        <time>2018-02-08T12:05:39Z</time>
      </trkpt>
      <trkpt lat="45.6308" lon="6.64016">
        <ele>2501.49</ele>
        <time>2018-02-08T12:05:43Z</time>
      </trkpt>
      <trkpt lat="45.63086" lon="6.64022">
        <ele>2498.12</ele>
        <time>2018-02-08T12:05:46Z</time>
      </trkpt>
      <trkpt lat="45.63089" lon="6.64012">
        <ele>2493.32</ele>
        <time>2018-02-08T12:05:48Z</time>
      </trkpt>
      <trkpt lat="45.63086" lon="6.64001">
        <ele>2490.43</ele>
        <time>2018-02-08T12:05:51Z</time>
      </trkpt>
      <trkpt lat="45.63086" lon="6.6399">
        <ele>2488.51</ele>
        <time>2018-02-08T12:05:55Z</time>
      </trkpt>
      <trkpt lat="45.63084" lon="6.63986">
        <ele>2488.51</ele>
        <time>2018-02-08T12:06:09Z</time>
      </trkpt>
      <trkpt lat="45.6309" lon="6.63982">
        <ele>2485.15</ele>
        <time>2018-02-08T12:06:12Z</time>
      </trkpt>
      <trkpt lat="45.63092" lon="6.63986">
        <ele>2483.22</ele>
        <time>2018-02-08T12:06:13Z</time>
      </trkpt>
      <trkpt lat="45.63096" lon="6.63993">
        <ele>2482.26</ele>
        <time>2018-02-08T12:06:16Z</time>
      </trkpt>
      <trkpt lat="45.63103" lon="6.63989">
        <ele>2477.45</ele>
        <time>2018-02-08T12:06:19Z</time>
      </trkpt>
      <trkpt lat="45.63104" lon="6.63982">
        <ele>2474.57</ele>
        <time>2018-02-08T12:06:21Z</time>
      </trkpt>
      <trkpt lat="45.63103" lon="6.63979">
        <ele>2475.05</ele>
        <time>2018-02-08T12:06:33Z</time>
      </trkpt>
      <trkpt lat="45.63103" lon="6.63975">
        <ele>2474.57</ele>
        <time>2018-02-08T12:06:44Z</time>
      </trkpt>
      <trkpt lat="45.63103" lon="6.63973">
        <ele>2475.05</ele>
        <time>2018-02-08T12:07:08Z</time>
      </trkpt>
      <trkpt lat="45.63111" lon="6.63972">
        <ele>2470.24</ele>
        <time>2018-02-08T12:07:13Z</time>
      </trkpt>
      <trkpt lat="45.6311" lon="6.63973">
        <ele>2469.28</ele>
        <time>2018-02-08T12:07:15Z</time>
      </trkpt>
      <trkpt lat="45.63111" lon="6.63975">
        <ele>2469.28</ele>
        <time>2018-02-08T12:07:37Z</time>
      </trkpt>
      <trkpt lat="45.63109" lon="6.63974">
        <ele>2469.76</ele>
        <time>2018-02-08T12:08:07Z</time>
      </trkpt>
      <trkpt lat="45.63111" lon="6.63974">
        <ele>2469.28</ele>
        <time>2018-02-08T12:08:27Z</time>
      </trkpt>
      <trkpt lat="45.63122" lon="6.63981">
        <ele>2464.96</ele>
        <time>2018-02-08T12:08:33Z</time>
      </trkpt>
      <trkpt lat="45.63125" lon="6.63975">
        <ele>2461.59</ele>
        <time>2018-02-08T12:08:34Z</time>
      </trkpt>
      <trkpt lat="45.63134" lon="6.63967">
        <ele>2457.75</ele>
        <time>2018-02-08T12:08:38Z</time>
      </trkpt>
      <trkpt lat="45.63136" lon="6.63973">
        <ele>2455.82</ele>
        <time>2018-02-08T12:08:39Z</time>
      </trkpt>
      <trkpt lat="45.63138" lon="6.63983">
        <ele>2453.42</ele>
        <time>2018-02-08T12:08:41Z</time>
      </trkpt>
      <trkpt lat="45.63145" lon="6.63982">
        <ele>2448.13</ele>
        <time>2018-02-08T12:08:43Z</time>
      </trkpt>
      <trkpt lat="45.63147" lon="6.63969">
        <ele>2445.25</ele>
        <time>2018-02-08T12:08:45Z</time>
      </trkpt>
      <trkpt lat="45.63147" lon="6.63964">
        <ele>2445.73</ele>
        <time>2018-02-08T12:08:50Z</time>
      </trkpt>
      <trkpt lat="45.63154" lon="6.63946">
        <ele>2442.37</ele>
        <time>2018-02-08T12:08:55Z</time>
      </trkpt>
      <trkpt lat="45.63157" lon="6.63934">
        <ele>2440.44</ele>
        <time>2018-02-08T12:08:58Z</time>
      </trkpt>
      <trkpt lat="45.63158" lon="6.63931">
        <ele>2439.96</ele>
        <time>2018-02-08T12:08:59Z</time>
      </trkpt>
      <trkpt lat="45.63163" lon="6.63938">
        <ele>2436.12</ele>
        <time>2018-02-08T12:09:02Z</time>
      </trkpt>
      <trkpt lat="45.63171" lon="6.63932">
        <ele>2431.31</ele>
        <time>2018-02-08T12:09:05Z</time>
      </trkpt>
      <trkpt lat="45.63176" lon="6.63937">
        <ele>2427.95</ele>
        <time>2018-02-08T12:09:08Z</time>
      </trkpt>
      <trkpt lat="45.63182" lon="6.63943">
        <ele>2424.1</ele>
        <time>2018-02-08T12:09:11Z</time>
      </trkpt>
      <trkpt lat="45.63186" lon="6.63933">
        <ele>2420.26</ele>
        <time>2018-02-08T12:09:13Z</time>
      </trkpt>
      <trkpt lat="45.63194" lon="6.63938">
        <ele>2415.45</ele>
        <time>2018-02-08T12:09:17Z</time>
      </trkpt>
      <trkpt lat="45.63194" lon="6.63949">
        <ele>2414.01</ele>
        <time>2018-02-08T12:09:20Z</time>
      </trkpt>
      <trkpt lat="45.63203" lon="6.63939">
        <ele>2407.76</ele>
        <time>2018-02-08T12:09:23Z</time>
      </trkpt>
      <trkpt lat="45.63203" lon="6.63935">
        <ele>2407.76</ele>
        <time>2018-02-08T12:09:24Z</time>
      </trkpt>
      <trkpt lat="45.63214" lon="6.6393">
        <ele>2403.43</ele>
        <time>2018-02-08T12:09:29Z</time>
      </trkpt>
      <trkpt lat="45.63214" lon="6.63935">
        <ele>2401.51</ele>
        <time>2018-02-08T12:09:30Z</time>
      </trkpt>
      <trkpt lat="45.63214" lon="6.63941">
        <ele>2400.55</ele>
        <time>2018-02-08T12:09:32Z</time>
      </trkpt>
      <trkpt lat="45.63214" lon="6.63942">
        <ele>2400.55</ele>
        <time>2018-02-08T12:09:38Z</time>
      </trkpt>
      <trkpt lat="45.63223" lon="6.63934">
        <ele>2395.74</ele>
        <time>2018-02-08T12:09:42Z</time>
      </trkpt>
      <trkpt lat="45.63229" lon="6.63912">
        <ele>2392.38</ele>
        <time>2018-02-08T12:09:47Z</time>
      </trkpt>
      <trkpt lat="45.63237" lon="6.63919">
        <ele>2388.05</ele>
        <time>2018-02-08T12:09:50Z</time>
      </trkpt>
      <trkpt lat="45.63237" lon="6.63926">
        <ele>2386.61</ele>
        <time>2018-02-08T12:09:51Z</time>
      </trkpt>
      <trkpt lat="45.63238" lon="6.63942">
        <ele>2385.65</ele>
        <time>2018-02-08T12:09:54Z</time>
      </trkpt>
      <trkpt lat="45.63242" lon="6.6396">
        <ele>2383.73</ele>
        <time>2018-02-08T12:09:58Z</time>
      </trkpt>
      <trkpt lat="45.6325" lon="6.63977">
        <ele>2381.8</ele>
        <time>2018-02-08T12:10:02Z</time>
      </trkpt>
      <trkpt lat="45.63264" lon="6.64001">
        <ele>2378.44</ele>
        <time>2018-02-08T12:10:11Z</time>
      </trkpt>
      <trkpt lat="45.63268" lon="6.64006">
        <ele>2377</ele>
        <time>2018-02-08T12:10:14Z</time>
      </trkpt>
      <trkpt lat="45.63271" lon="6.64008">
        <ele>2377</ele>
        <time>2018-02-08T12:10:18Z</time>
      </trkpt>
      <trkpt lat="45.63272" lon="6.6401">
        <ele>2377</ele>
        <time>2018-02-08T12:10:34Z</time>
      </trkpt>
      <trkpt lat="45.63274" lon="6.64014">
        <ele>2377.48</ele>
        <time>2018-02-08T12:10:45Z</time>
      </trkpt>
      <trkpt lat="45.63273" lon="6.64018">
        <ele>2376.04</ele>
        <time>2018-02-08T12:11:02Z</time>
      </trkpt>
      <trkpt lat="45.6328" lon="6.64038">
        <ele>2374.59</ele>
        <time>2018-02-08T12:11:16Z</time>
      </trkpt>
      <trkpt lat="45.63286" lon="6.64048">
        <ele>2372.67</ele>
        <time>2018-02-08T12:11:20Z</time>
      </trkpt>
      <trkpt lat="45.63292" lon="6.64055">
        <ele>2371.23</ele>
        <time>2018-02-08T12:11:23Z</time>
      </trkpt>
      <trkpt lat="45.63296" lon="6.64056">
        <ele>2365.94</ele>
        <time>2018-02-08T12:11:26Z</time>
      </trkpt>
      <trkpt lat="45.63297" lon="6.64039">
        <ele>2364.98</ele>
        <time>2018-02-08T12:11:28Z</time>
      </trkpt>
      <trkpt lat="45.63307" lon="6.64046">
        <ele>2361.62</ele>
        <time>2018-02-08T12:11:32Z</time>
      </trkpt>
      <trkpt lat="45.6331" lon="6.64055">
        <ele>2360.65</ele>
        <time>2018-02-08T12:11:34Z</time>
      </trkpt>
      <trkpt lat="45.6332" lon="6.64072">
        <ele>2358.73</ele>
        <time>2018-02-08T12:11:39Z</time>
      </trkpt>
      <trkpt lat="45.6333" lon="6.64063">
        <ele>2350.56</ele>
        <time>2018-02-08T12:11:42Z</time>
      </trkpt>
      <trkpt lat="45.63329" lon="6.64049">
        <ele>2349.12</ele>
        <time>2018-02-08T12:11:44Z</time>
      </trkpt>
      <trkpt lat="45.63336" lon="6.64044">
        <ele>2347.68</ele>
        <time>2018-02-08T12:11:49Z</time>
      </trkpt>
      <trkpt lat="45.63337" lon="6.64049">
        <ele>2346.72</ele>
        <time>2018-02-08T12:11:50Z</time>
      </trkpt>
      <trkpt lat="45.63338" lon="6.64055">
        <ele>2345.27</ele>
        <time>2018-02-08T12:11:53Z</time>
      </trkpt>
      <trkpt lat="45.63339" lon="6.64056">
        <ele>2345.75</ele>
        <time>2018-02-08T12:11:55Z</time>
      </trkpt>
      <trkpt lat="45.63352" lon="6.64071">
        <ele>2341.91</ele>
        <time>2018-02-08T12:12:04Z</time>
      </trkpt>
      <trkpt lat="45.63355" lon="6.64074">
        <ele>2341.43</ele>
        <time>2018-02-08T12:12:05Z</time>
      </trkpt>
      <trkpt lat="45.63369" lon="6.64084">
        <ele>2339.99</ele>
        <time>2018-02-08T12:12:13Z</time>
      </trkpt>
      <trkpt lat="45.63368" lon="6.64073">
        <ele>2335.18</ele>
        <time>2018-02-08T12:12:17Z</time>
      </trkpt>
      <trkpt lat="45.63369" lon="6.64067">
        <ele>2334.7</ele>
        <time>2018-02-08T12:12:19Z</time>
      </trkpt>
      <trkpt lat="45.63374" lon="6.6407">
        <ele>2332.78</ele>
        <time>2018-02-08T12:12:21Z</time>
      </trkpt>
      <trkpt lat="45.63378" lon="6.64071">
        <ele>2332.3</ele>
        <time>2018-02-08T12:12:23Z</time>
      </trkpt>
      <trkpt lat="45.63379" lon="6.64062">
        <ele>2327.01</ele>
        <time>2018-02-08T12:12:26Z</time>
      </trkpt>
      <trkpt lat="45.63379" lon="6.64061">
        <ele>2326.53</ele>
        <time>2018-02-08T12:12:27Z</time>
      </trkpt>
      <trkpt lat="45.63386" lon="6.6406">
        <ele>2323.64</ele>
        <time>2018-02-08T12:12:32Z</time>
      </trkpt>
      <trkpt lat="45.63391" lon="6.64066">
        <ele>2322.2</ele>
        <time>2018-02-08T12:12:36Z</time>
      </trkpt>
      <trkpt lat="45.6339" lon="6.64066">
        <ele>2322.2</ele>
        <time>2018-02-08T12:12:39Z</time>
      </trkpt>
      <trkpt lat="45.634" lon="6.64077">
        <ele>2319.8</ele>
        <time>2018-02-08T12:12:47Z</time>
      </trkpt>
      <trkpt lat="45.63402" lon="6.64069">
        <ele>2315.95</ele>
        <time>2018-02-08T12:12:50Z</time>
      </trkpt>
      <trkpt lat="45.634" lon="6.64064">
        <ele>2314.99</ele>
        <time>2018-02-08T12:12:52Z</time>
      </trkpt>
      <trkpt lat="45.63407" lon="6.64064">
        <ele>2312.11</ele>
        <time>2018-02-08T12:12:57Z</time>
      </trkpt>
      <trkpt lat="45.63407" lon="6.64065">
        <ele>2312.11</ele>
        <time>2018-02-08T12:12:58Z</time>
      </trkpt>
      <trkpt lat="45.63408" lon="6.64067">
        <ele>2312.59</ele>
        <time>2018-02-08T12:13:14Z</time>
      </trkpt>
      <trkpt lat="45.63416" lon="6.64066">
        <ele>2307.78</ele>
        <time>2018-02-08T12:13:19Z</time>
      </trkpt>
      <trkpt lat="45.63415" lon="6.64051">
        <ele>2304.42</ele>
        <time>2018-02-08T12:13:24Z</time>
      </trkpt>
      <trkpt lat="45.63418" lon="6.64055">
        <ele>2302.49</ele>
        <time>2018-02-08T12:13:26Z</time>
      </trkpt>
      <trkpt lat="45.63419" lon="6.64058">
        <ele>2302.01</ele>
        <time>2018-02-08T12:13:27Z</time>
      </trkpt>
      <trkpt lat="45.63422" lon="6.64061">
        <ele>2301.53</ele>
        <time>2018-02-08T12:13:29Z</time>
      </trkpt>
      <trkpt lat="45.63427" lon="6.64052">
        <ele>2297.69</ele>
        <time>2018-02-08T12:13:32Z</time>
      </trkpt>
      <trkpt lat="45.63427" lon="6.64048">
        <ele>2296.25</ele>
        <time>2018-02-08T12:13:34Z</time>
      </trkpt>
      <trkpt lat="45.63435" lon="6.64057">
        <ele>2293.84</ele>
        <time>2018-02-08T12:13:38Z</time>
      </trkpt>
      <trkpt lat="45.63446" lon="6.64079">
        <ele>2291.44</ele>
        <time>2018-02-08T12:13:47Z</time>
      </trkpt>
      <trkpt lat="45.63452" lon="6.64088">
        <ele>2290</ele>
        <time>2018-02-08T12:13:50Z</time>
      </trkpt>
      <trkpt lat="45.63472" lon="6.64101">
        <ele>2287.11</ele>
        <time>2018-02-08T12:13:56Z</time>
      </trkpt>
      <trkpt lat="45.63477" lon="6.64103">
        <ele>2286.15</ele>
        <time>2018-02-08T12:13:58Z</time>
      </trkpt>
      <trkpt lat="45.63478" lon="6.64094">
        <ele>2282.79</ele>
        <time>2018-02-08T12:14:01Z</time>
      </trkpt>
      <trkpt lat="45.63483" lon="6.64083">
        <ele>2279.9</ele>
        <time>2018-02-08T12:14:04Z</time>
      </trkpt>
      <trkpt lat="45.63503" lon="6.64087">
        <ele>2277.02</ele>
        <time>2018-02-08T12:14:14Z</time>
      </trkpt>
      <trkpt lat="45.63509" lon="6.64085">
        <ele>2276.06</ele>
        <time>2018-02-08T12:14:19Z</time>
      </trkpt>
      <trkpt lat="45.63534" lon="6.64098">
        <ele>2273.66</ele>
        <time>2018-02-08T12:14:31Z</time>
      </trkpt>
      <trkpt lat="45.63536" lon="6.64099">
        <ele>2273.66</ele>
        <time>2018-02-08T12:14:32Z</time>
      </trkpt>
      <trkpt lat="45.63538" lon="6.64085">
        <ele>2269.33</ele>
        <time>2018-02-08T12:14:36Z</time>
      </trkpt>
      <trkpt lat="45.63536" lon="6.64081">
        <ele>2269.33</ele>
        <time>2018-02-08T12:14:37Z</time>
      </trkpt>
      <trkpt lat="45.63534" lon="6.64078">
        <ele>2268.85</ele>
        <time>2018-02-08T12:14:38Z</time>
      </trkpt>
      <trkpt lat="45.63525" lon="6.64067">
        <ele>2267.41</ele>
        <time>2018-02-08T12:14:43Z</time>
      </trkpt>
      <trkpt lat="45.63532" lon="6.64064">
        <ele>2266.45</ele>
        <time>2018-02-08T12:14:47Z</time>
      </trkpt>
      <trkpt lat="45.63563" lon="6.64076">
        <ele>2263.08</ele>
        <time>2018-02-08T12:14:57Z</time>
      </trkpt>
      <trkpt lat="45.63573" lon="6.64078">
        <ele>2261.16</ele>
        <time>2018-02-08T12:14:59Z</time>
      </trkpt>
      <trkpt lat="45.63582" lon="6.64078">
        <ele>2260.2</ele>
        <time>2018-02-08T12:15:01Z</time>
      </trkpt>
      <trkpt lat="45.63613" lon="6.64071">
        <ele>2257.31</ele>
        <time>2018-02-08T12:15:12Z</time>
      </trkpt>
      <trkpt lat="45.63639" lon="6.6406">
        <ele>2253.95</ele>
        <time>2018-02-08T12:15:19Z</time>
      </trkpt>
      <trkpt lat="45.63653" lon="6.6405">
        <ele>2252.03</ele>
        <time>2018-02-08T12:15:23Z</time>
      </trkpt>
      <trkpt lat="45.63679" lon="6.64026">
        <ele>2248.66</ele>
        <time>2018-02-08T12:15:32Z</time>
      </trkpt>
      <trkpt lat="45.63684" lon="6.6402">
        <ele>2248.18</ele>
        <time>2018-02-08T12:15:42Z</time>
      </trkpt>
      <trkpt lat="45.63682" lon="6.6402">
        <ele>2248.18</ele>
        <time>2018-02-08T12:15:59Z</time>
      </trkpt>
      <trkpt lat="45.63682" lon="6.64021">
        <ele>2249.14</ele>
        <time>2018-02-08T12:16:14Z</time>
      </trkpt>
      <trkpt lat="45.63682" lon="6.64022">
        <ele>2248.18</ele>
        <time>2018-02-08T12:16:32Z</time>
      </trkpt>
      <trkpt lat="45.63682" lon="6.64023">
        <ele>2248.66</ele>
        <time>2018-02-08T12:16:52Z</time>
      </trkpt>
      <trkpt lat="45.63681" lon="6.64022">
        <ele>2248.18</ele>
        <time>2018-02-08T12:17:15Z</time>
      </trkpt>
      <trkpt lat="45.63682" lon="6.64022">
        <ele>2248.66</ele>
        <time>2018-02-08T12:17:31Z</time>
      </trkpt>
      <trkpt lat="45.63682" lon="6.64022">
        <ele>2248.66</ele>
        <time>2018-02-08T12:17:55Z</time>
      </trkpt>
      <trkpt lat="45.63682" lon="6.64021">
        <ele>2248.18</ele>
        <time>2018-02-08T12:18:09Z</time>
      </trkpt>
      <trkpt lat="45.63688" lon="6.6402">
        <ele>2248.18</ele>
        <time>2018-02-08T12:18:44Z</time>
      </trkpt>
      <trkpt lat="45.63686" lon="6.64022">
        <ele>2248.18</ele>
        <time>2018-02-08T12:19:22Z</time>
      </trkpt>
      <trkpt lat="45.63684" lon="6.64023">
        <ele>2248.66</ele>
        <time>2018-02-08T12:20:12Z</time>
      </trkpt>
      <trkpt lat="45.63686" lon="6.64023">
        <ele>2248.66</ele>
        <time>2018-02-08T12:20:50Z</time>
      </trkpt>
      <trkpt lat="45.63688" lon="6.64023">
        <ele>2248.66</ele>
        <time>2018-02-08T12:21:21Z</time>
      </trkpt>
      <trkpt lat="45.63691" lon="6.64024">
        <ele>2249.14</ele>
        <time>2018-02-08T12:21:42Z</time>
      </trkpt>
      <trkpt lat="45.63687" lon="6.64024">
        <ele>2249.14</ele>
        <time>2018-02-08T12:22:17Z</time>
      </trkpt>
      <trkpt lat="45.63687" lon="6.64026">
        <ele>2249.62</ele>
        <time>2018-02-08T12:22:55Z</time>
      </trkpt>
      <trkpt lat="45.63688" lon="6.64026">
        <ele>2249.62</ele>
        <time>2018-02-08T12:23:31Z</time>
      </trkpt>
      <trkpt lat="45.63686" lon="6.64023">
        <ele>2249.14</ele>
        <time>2018-02-08T12:24:03Z</time>
      </trkpt>
      <trkpt lat="45.63688" lon="6.64021">
        <ele>2249.62</ele>
        <time>2018-02-08T12:24:36Z</time>
      </trkpt>
      <trkpt lat="45.63686" lon="6.64023">
        <ele>2249.62</ele>
        <time>2018-02-08T12:25:02Z</time>
      </trkpt>
      <trkpt lat="45.63686" lon="6.64022">
        <ele>2249.62</ele>
        <time>2018-02-08T12:25:32Z</time>
      </trkpt>
      <trkpt lat="45.63687" lon="6.64022">
        <ele>2250.1</ele>
        <time>2018-02-08T12:25:59Z</time>
      </trkpt>
      <trkpt lat="45.63686" lon="6.64022">
        <ele>2250.1</ele>
        <time>2018-02-08T12:26:17Z</time>
      </trkpt>
      <trkpt lat="45.63685" lon="6.64023">
        <ele>2250.1</ele>
        <time>2018-02-08T12:26:39Z</time>
      </trkpt>
      <trkpt lat="45.63683" lon="6.64022">
        <ele>2250.1</ele>
        <time>2018-02-08T12:27:09Z</time>
      </trkpt>
      <trkpt lat="45.63683" lon="6.64022">
        <ele>2250.58</ele>
        <time>2018-02-08T12:27:46Z</time>
      </trkpt>
      <trkpt lat="45.63684" lon="6.64023">
        <ele>2250.1</ele>
        <time>2018-02-08T12:28:19Z</time>
      </trkpt>
      <trkpt lat="45.63683" lon="6.64023">
        <ele>2250.1</ele>
        <time>2018-02-08T12:28:47Z</time>
      </trkpt>
      <trkpt lat="45.63684" lon="6.64024">
        <ele>2252.03</ele>
        <time>2018-02-08T12:29:30Z</time>
      </trkpt>
      <trkpt lat="45.63682" lon="6.64023">
        <ele>2252.03</ele>
        <time>2018-02-08T12:29:48Z</time>
      </trkpt>
      <trkpt lat="45.63682" lon="6.64023">
        <ele>2252.03</ele>
        <time>2018-02-08T12:30:27Z</time>
      </trkpt>
      <trkpt lat="45.63683" lon="6.64025">
        <ele>2252.99</ele>
        <time>2018-02-08T12:31:04Z</time>
      </trkpt>
      <trkpt lat="45.63688" lon="6.64025">
        <ele>2253.95</ele>
        <time>2018-02-08T12:31:16Z</time>
      </trkpt>
      <trkpt lat="45.63695" lon="6.64023">
        <ele>2255.87</ele>
        <time>2018-02-08T12:31:28Z</time>
      </trkpt>
      <trkpt lat="45.63699" lon="6.64022">
        <ele>2257.79</ele>
        <time>2018-02-08T12:31:42Z</time>
      </trkpt>
      <trkpt lat="45.63703" lon="6.64025">
        <ele>2259.24</ele>
        <time>2018-02-08T12:31:55Z</time>
      </trkpt>
      <trkpt lat="45.63706" lon="6.64027">
        <ele>2259.24</ele>
        <time>2018-02-08T12:32:13Z</time>
      </trkpt>
      <trkpt lat="45.63699" lon="6.64038">
        <ele>2259.72</ele>
        <time>2018-02-08T12:32:26Z</time>
      </trkpt>
      <trkpt lat="45.63693" lon="6.64046">
        <ele>2262.12</ele>
        <time>2018-02-08T12:32:40Z</time>
      </trkpt>
      <trkpt lat="45.63685" lon="6.64058">
        <ele>2264.52</ele>
        <time>2018-02-08T12:33:01Z</time>
      </trkpt>
      <trkpt lat="45.63678" lon="6.64065">
        <ele>2266.45</ele>
        <time>2018-02-08T12:33:15Z</time>
      </trkpt>
      <trkpt lat="45.63672" lon="6.64072">
        <ele>2268.85</ele>
        <time>2018-02-08T12:33:31Z</time>
      </trkpt>
      <trkpt lat="45.63665" lon="6.64081">
        <ele>2270.77</ele>
        <time>2018-02-08T12:33:48Z</time>
      </trkpt>
      <trkpt lat="45.63663" lon="6.64087">
        <ele>2272.69</ele>
        <time>2018-02-08T12:34:01Z</time>
      </trkpt>
      <trkpt lat="45.63666" lon="6.64094">
        <ele>2274.62</ele>
        <time>2018-02-08T12:34:14Z</time>
      </trkpt>
      <trkpt lat="45.63661" lon="6.64103">
        <ele>2276.06</ele>
        <time>2018-02-08T12:34:26Z</time>
      </trkpt>
      <trkpt lat="45.63658" lon="6.64104">
        <ele>2278.46</ele>
        <time>2018-02-08T12:34:40Z</time>
      </trkpt>
      <trkpt lat="45.63648" lon="6.64105">
        <ele>2279.9</ele>
        <time>2018-02-08T12:34:55Z</time>
      </trkpt>
      <trkpt lat="45.63644" lon="6.64109">
        <ele>2280.87</ele>
        <time>2018-02-08T12:35:09Z</time>
      </trkpt>
      <trkpt lat="45.63647" lon="6.64115">
        <ele>2282.79</ele>
        <time>2018-02-08T12:35:19Z</time>
      </trkpt>
      <trkpt lat="45.63644" lon="6.64122">
        <ele>2284.71</ele>
        <time>2018-02-08T12:35:31Z</time>
      </trkpt>
      <trkpt lat="45.6364" lon="6.64131">
        <ele>2286.63</ele>
        <time>2018-02-08T12:35:45Z</time>
      </trkpt>
      <trkpt lat="45.63638" lon="6.64138">
        <ele>2288.56</ele>
        <time>2018-02-08T12:35:58Z</time>
      </trkpt>
      <trkpt lat="45.63635" lon="6.64146">
        <ele>2290.96</ele>
        <time>2018-02-08T12:36:12Z</time>
      </trkpt>
      <trkpt lat="45.63639" lon="6.64156">
        <ele>2292.88</ele>
        <time>2018-02-08T12:36:24Z</time>
      </trkpt>
      <trkpt lat="45.63642" lon="6.64164">
        <ele>2293.36</ele>
        <time>2018-02-08T12:36:37Z</time>
      </trkpt>
      <trkpt lat="45.6365" lon="6.64174">
        <ele>2295.28</ele>
        <time>2018-02-08T12:36:51Z</time>
      </trkpt>
      <trkpt lat="45.63654" lon="6.64184">
        <ele>2296.25</ele>
        <time>2018-02-08T12:37:05Z</time>
      </trkpt>
      <trkpt lat="45.63658" lon="6.64199">
        <ele>2297.69</ele>
        <time>2018-02-08T12:37:20Z</time>
      </trkpt>
      <trkpt lat="45.6366" lon="6.64206">
        <ele>2298.65</ele>
        <time>2018-02-08T12:37:32Z</time>
      </trkpt>
      <trkpt lat="45.63662" lon="6.64223">
        <ele>2300.09</ele>
        <time>2018-02-08T12:37:50Z</time>
      </trkpt>
      <trkpt lat="45.63661" lon="6.64235">
        <ele>2302.01</ele>
        <time>2018-02-08T12:38:01Z</time>
      </trkpt>
      <trkpt lat="45.63659" lon="6.64245">
        <ele>2302.98</ele>
        <time>2018-02-08T12:38:16Z</time>
      </trkpt>
      <trkpt lat="45.63654" lon="6.64256">
        <ele>2304.9</ele>
        <time>2018-02-08T12:38:31Z</time>
      </trkpt>
      <trkpt lat="45.6365" lon="6.64271">
        <ele>2307.78</ele>
        <time>2018-02-08T12:38:49Z</time>
      </trkpt>
      <trkpt lat="45.63649" lon="6.6428">
        <ele>2309.22</ele>
        <time>2018-02-08T12:39:04Z</time>
      </trkpt>
      <trkpt lat="45.63648" lon="6.64294">
        <ele>2310.67</ele>
        <time>2018-02-08T12:39:19Z</time>
      </trkpt>
      <trkpt lat="45.63649" lon="6.64303">
        <ele>2312.59</ele>
        <time>2018-02-08T12:39:32Z</time>
      </trkpt>
      <trkpt lat="45.63645" lon="6.64316">
        <ele>2314.03</ele>
        <time>2018-02-08T12:39:48Z</time>
      </trkpt>
      <trkpt lat="45.63643" lon="6.64329">
        <ele>2315.95</ele>
        <time>2018-02-08T12:40:05Z</time>
      </trkpt>
      <trkpt lat="45.63641" lon="6.64338">
        <ele>2317.4</ele>
        <time>2018-02-08T12:40:21Z</time>
      </trkpt>
      <trkpt lat="45.63641" lon="6.64349">
        <ele>2319.32</ele>
        <time>2018-02-08T12:40:35Z</time>
      </trkpt>
      <trkpt lat="45.63643" lon="6.64364">
        <ele>2321.72</ele>
        <time>2018-02-08T12:40:54Z</time>
      </trkpt>
      <trkpt lat="45.63646" lon="6.64375">
        <ele>2323.64</ele>
        <time>2018-02-08T12:41:09Z</time>
      </trkpt>
      <trkpt lat="45.63648" lon="6.64383">
        <ele>2324.61</ele>
        <time>2018-02-08T12:41:24Z</time>
      </trkpt>
      <trkpt lat="45.6365" lon="6.64392">
        <ele>2326.53</ele>
        <time>2018-02-08T12:41:39Z</time>
      </trkpt>
      <trkpt lat="45.63654" lon="6.64398">
        <ele>2328.45</ele>
        <time>2018-02-08T12:41:51Z</time>
      </trkpt>
      <trkpt lat="45.63653" lon="6.64402">
        <ele>2329.89</ele>
        <time>2018-02-08T12:42:03Z</time>
      </trkpt>
      <trkpt lat="45.63646" lon="6.64403">
        <ele>2330.85</ele>
        <time>2018-02-08T12:42:15Z</time>
      </trkpt>
      <trkpt lat="45.63638" lon="6.64403">
        <ele>2332.78</ele>
        <time>2018-02-08T12:42:31Z</time>
      </trkpt>
      <trkpt lat="45.6363" lon="6.64401">
        <ele>2335.18</ele>
        <time>2018-02-08T12:42:48Z</time>
      </trkpt>
      <trkpt lat="45.63625" lon="6.64407">
        <ele>2337.58</ele>
        <time>2018-02-08T12:43:03Z</time>
      </trkpt>
      <trkpt lat="45.63631" lon="6.64413">
        <ele>2339.02</ele>
        <time>2018-02-08T12:43:17Z</time>
      </trkpt>
      <trkpt lat="45.63636" lon="6.64424">
        <ele>2340.95</ele>
        <time>2018-02-08T12:43:34Z</time>
      </trkpt>
      <trkpt lat="45.63642" lon="6.64431">
        <ele>2341.91</ele>
        <time>2018-02-08T12:43:49Z</time>
      </trkpt>
      <trkpt lat="45.63648" lon="6.6444">
        <ele>2343.83</ele>
        <time>2018-02-08T12:44:05Z</time>
      </trkpt>
      <trkpt lat="45.63652" lon="6.64447">
        <ele>2345.27</ele>
        <time>2018-02-08T12:44:19Z</time>
      </trkpt>
      <trkpt lat="45.63657" lon="6.64457">
        <ele>2347.68</ele>
        <time>2018-02-08T12:44:34Z</time>
      </trkpt>
      <trkpt lat="45.63662" lon="6.64463">
        <ele>2348.64</ele>
        <time>2018-02-08T12:44:49Z</time>
      </trkpt>
      <trkpt lat="45.63665" lon="6.64468">
        <ele>2350.08</ele>
        <time>2018-02-08T12:44:57Z</time>
      </trkpt>
      <trkpt lat="45.6367" lon="6.64474">
        <ele>2351.52</ele>
        <time>2018-02-08T12:45:12Z</time>
      </trkpt>
      <trkpt lat="45.63676" lon="6.64481">
        <ele>2353.93</ele>
        <time>2018-02-08T12:45:29Z</time>
      </trkpt>
      <trkpt lat="45.63673" lon="6.64486">
        <ele>2355.85</ele>
        <time>2018-02-08T12:45:44Z</time>
      </trkpt>
      <trkpt lat="45.63666" lon="6.64489">
        <ele>2357.29</ele>
        <time>2018-02-08T12:45:59Z</time>
      </trkpt>
      <trkpt lat="45.63657" lon="6.64492">
        <ele>2358.25</ele>
        <time>2018-02-08T12:46:14Z</time>
      </trkpt>
      <trkpt lat="45.63656" lon="6.64491">
        <ele>2360.17</ele>
        <time>2018-02-08T12:46:27Z</time>
      </trkpt>
      <trkpt lat="45.63661" lon="6.64499">
        <ele>2360.65</ele>
        <time>2018-02-08T12:46:41Z</time>
      </trkpt>
      <trkpt lat="45.63669" lon="6.64507">
        <ele>2362.58</ele>
        <time>2018-02-08T12:46:58Z</time>
      </trkpt>
      <trkpt lat="45.63673" lon="6.64513">
        <ele>2364.5</ele>
        <time>2018-02-08T12:47:09Z</time>
      </trkpt>
      <trkpt lat="45.6368" lon="6.64516">
        <ele>2365.46</ele>
        <time>2018-02-08T12:47:23Z</time>
      </trkpt>
      <trkpt lat="45.63681" lon="6.64522">
        <ele>2366.9</ele>
        <time>2018-02-08T12:47:37Z</time>
      </trkpt>
      <trkpt lat="45.63677" lon="6.6453">
        <ele>2369.31</ele>
        <time>2018-02-08T12:47:54Z</time>
      </trkpt>
      <trkpt lat="45.63682" lon="6.64536">
        <ele>2370.75</ele>
        <time>2018-02-08T12:48:07Z</time>
      </trkpt>
      <trkpt lat="45.63689" lon="6.64535">
        <ele>2372.67</ele>
        <time>2018-02-08T12:48:22Z</time>
      </trkpt>
      <trkpt lat="45.63696" lon="6.64535">
        <ele>2374.59</ele>
        <time>2018-02-08T12:48:40Z</time>
      </trkpt>
      <trkpt lat="45.63699" lon="6.64544">
        <ele>2375.55</ele>
        <time>2018-02-08T12:48:52Z</time>
      </trkpt>
      <trkpt lat="45.63701" lon="6.64554">
        <ele>2376.52</ele>
        <time>2018-02-08T12:49:06Z</time>
      </trkpt>
      <trkpt lat="45.63702" lon="6.64558">
        <ele>2378.44</ele>
        <time>2018-02-08T12:49:19Z</time>
      </trkpt>
      <trkpt lat="45.6371" lon="6.64553">
        <ele>2379.4</ele>
        <time>2018-02-08T12:49:36Z</time>
      </trkpt>
      <trkpt lat="45.63718" lon="6.64551">
        <ele>2380.36</ele>
        <time>2018-02-08T12:49:50Z</time>
      </trkpt>
      <trkpt lat="45.63725" lon="6.64551">
        <ele>2382.76</ele>
        <time>2018-02-08T12:50:04Z</time>
      </trkpt>
      <trkpt lat="45.6373" lon="6.6455">
        <ele>2383.73</ele>
        <time>2018-02-08T12:50:22Z</time>
      </trkpt>
      <trkpt lat="45.63736" lon="6.64551">
        <ele>2384.69</ele>
        <time>2018-02-08T12:50:35Z</time>
      </trkpt>
      <trkpt lat="45.63744" lon="6.64549">
        <ele>2386.13</ele>
        <time>2018-02-08T12:50:52Z</time>
      </trkpt>
      <trkpt lat="45.63748" lon="6.64552">
        <ele>2387.09</ele>
        <time>2018-02-08T12:51:03Z</time>
      </trkpt>
      <trkpt lat="45.6375" lon="6.6456">
        <ele>2389.01</ele>
        <time>2018-02-08T12:51:15Z</time>
      </trkpt>
      <trkpt lat="45.63752" lon="6.64558">
        <ele>2389.97</ele>
        <time>2018-02-08T12:51:25Z</time>
      </trkpt>
      <trkpt lat="45.63757" lon="6.64554">
        <ele>2391.42</ele>
        <time>2018-02-08T12:51:39Z</time>
      </trkpt>
      <trkpt lat="45.63759" lon="6.64555">
        <ele>2391.9</ele>
        <time>2018-02-08T12:51:44Z</time>
      </trkpt>
      <trkpt lat="45.63762" lon="6.6456">
        <ele>2393.82</ele>
        <time>2018-02-08T12:51:57Z</time>
      </trkpt>
      <trkpt lat="45.63765" lon="6.64565">
        <ele>2395.26</ele>
        <time>2018-02-08T12:52:10Z</time>
      </trkpt>
      <trkpt lat="45.63766" lon="6.64562">
        <ele>2396.7</ele>
        <time>2018-02-08T12:52:22Z</time>
      </trkpt>
      <trkpt lat="45.63771" lon="6.64564">
        <ele>2398.63</ele>
        <time>2018-02-08T12:52:36Z</time>
      </trkpt>
      <trkpt lat="45.63773" lon="6.6457">
        <ele>2400.07</ele>
        <time>2018-02-08T12:52:50Z</time>
      </trkpt>
      <trkpt lat="45.63774" lon="6.64577">
        <ele>2401.99</ele>
        <time>2018-02-08T12:53:01Z</time>
      </trkpt>
      <trkpt lat="45.63776" lon="6.6458">
        <ele>2403.43</ele>
        <time>2018-02-08T12:53:12Z</time>
      </trkpt>
      <trkpt lat="45.63783" lon="6.64575">
        <ele>2404.88</ele>
        <time>2018-02-08T12:53:27Z</time>
      </trkpt>
      <trkpt lat="45.6379" lon="6.64575">
        <ele>2405.36</ele>
        <time>2018-02-08T12:53:40Z</time>
      </trkpt>
      <trkpt lat="45.63794" lon="6.64578">
        <ele>2406.8</ele>
        <time>2018-02-08T12:53:56Z</time>
      </trkpt>
      <trkpt lat="45.63794" lon="6.64585">
        <ele>2408.72</ele>
        <time>2018-02-08T12:54:11Z</time>
      </trkpt>
      <trkpt lat="45.63796" lon="6.64597">
        <ele>2410.64</ele>
        <time>2018-02-08T12:54:27Z</time>
      </trkpt>
      <trkpt lat="45.63796" lon="6.6459">
        <ele>2411.6</ele>
        <time>2018-02-08T12:54:40Z</time>
      </trkpt>
      <trkpt lat="45.63801" lon="6.64588">
        <ele>2413.53</ele>
        <time>2018-02-08T12:54:57Z</time>
      </trkpt>
      <trkpt lat="45.638" lon="6.64594">
        <ele>2414.97</ele>
        <time>2018-02-08T12:55:10Z</time>
      </trkpt>
      <trkpt lat="45.63798" lon="6.64606">
        <ele>2416.41</ele>
        <time>2018-02-08T12:55:26Z</time>
      </trkpt>
      <trkpt lat="45.638" lon="6.64601">
        <ele>2416.41</ele>
        <time>2018-02-08T12:55:39Z</time>
      </trkpt>
      <trkpt lat="45.63807" lon="6.64594">
        <ele>2418.81</ele>
        <time>2018-02-08T12:55:54Z</time>
      </trkpt>
      <trkpt lat="45.6381" lon="6.64599">
        <ele>2420.26</ele>
        <time>2018-02-08T12:56:08Z</time>
      </trkpt>
      <trkpt lat="45.63809" lon="6.64607">
        <ele>2421.22</ele>
        <time>2018-02-08T12:56:22Z</time>
      </trkpt>
      <trkpt lat="45.63808" lon="6.64618">
        <ele>2422.66</ele>
        <time>2018-02-08T12:56:36Z</time>
      </trkpt>
      <trkpt lat="45.63809" lon="6.64617">
        <ele>2423.62</ele>
        <time>2018-02-08T12:56:49Z</time>
      </trkpt>
      <trkpt lat="45.63816" lon="6.64608">
        <ele>2425.06</ele>
        <time>2018-02-08T12:57:03Z</time>
      </trkpt>
      <trkpt lat="45.63823" lon="6.64604">
        <ele>2425.06</ele>
        <time>2018-02-08T12:57:15Z</time>
      </trkpt>
      <trkpt lat="45.63828" lon="6.64607">
        <ele>2426.5</ele>
        <time>2018-02-08T12:57:27Z</time>
      </trkpt>
      <trkpt lat="45.63824" lon="6.64612">
        <ele>2426.99</ele>
        <time>2018-02-08T12:57:40Z</time>
      </trkpt>
      <trkpt lat="45.63821" lon="6.64618">
        <ele>2428.91</ele>
        <time>2018-02-08T12:57:53Z</time>
      </trkpt>
      <trkpt lat="45.6382" lon="6.64633">
        <ele>2430.35</ele>
        <time>2018-02-08T12:58:10Z</time>
      </trkpt>
      <trkpt lat="45.63822" lon="6.64628">
        <ele>2430.83</ele>
        <time>2018-02-08T12:58:21Z</time>
      </trkpt>
      <trkpt lat="45.63828" lon="6.64622">
        <ele>2433.23</ele>
        <time>2018-02-08T12:58:37Z</time>
      </trkpt>
      <trkpt lat="45.63834" lon="6.64618">
        <ele>2434.68</ele>
        <time>2018-02-08T12:58:49Z</time>
      </trkpt>
      <trkpt lat="45.63838" lon="6.64621">
        <ele>2435.64</ele>
        <time>2018-02-08T12:59:04Z</time>
      </trkpt>
      <trkpt lat="45.63836" lon="6.64631">
        <ele>2438.04</ele>
        <time>2018-02-08T12:59:18Z</time>
      </trkpt>
      <trkpt lat="45.63835" lon="6.64641">
        <ele>2439.48</ele>
        <time>2018-02-08T12:59:34Z</time>
      </trkpt>
      <trkpt lat="45.63834" lon="6.64645">
        <ele>2440.44</ele>
        <time>2018-02-08T12:59:47Z</time>
      </trkpt>
      <trkpt lat="45.6384" lon="6.64644">
        <ele>2441.41</ele>
        <time>2018-02-08T13:00:03Z</time>
      </trkpt>
      <trkpt lat="45.63846" lon="6.64644">
        <ele>2443.81</ele>
        <time>2018-02-08T13:00:16Z</time>
      </trkpt>
      <trkpt lat="45.63851" lon="6.64645">
        <ele>2445.25</ele>
        <time>2018-02-08T13:00:30Z</time>
      </trkpt>
      <trkpt lat="45.63857" lon="6.64651">
        <ele>2445.73</ele>
        <time>2018-02-08T13:00:45Z</time>
      </trkpt>
      <trkpt lat="45.63858" lon="6.6466">
        <ele>2447.17</ele>
        <time>2018-02-08T13:01:02Z</time>
      </trkpt>
      <trkpt lat="45.6385" lon="6.64666">
        <ele>2449.1</ele>
        <time>2018-02-08T13:01:15Z</time>
      </trkpt>
      <trkpt lat="45.63845" lon="6.6467">
        <ele>2451.5</ele>
        <time>2018-02-08T13:01:31Z</time>
      </trkpt>
      <trkpt lat="45.63844" lon="6.64678">
        <ele>2452.46</ele>
        <time>2018-02-08T13:01:47Z</time>
      </trkpt>
      <trkpt lat="45.63847" lon="6.64687">
        <ele>2454.86</ele>
        <time>2018-02-08T13:02:00Z</time>
      </trkpt>
      <trkpt lat="45.63851" lon="6.64685">
        <ele>2456.31</ele>
        <time>2018-02-08T13:02:14Z</time>
      </trkpt>
      <trkpt lat="45.63858" lon="6.64688">
        <ele>2458.23</ele>
        <time>2018-02-08T13:02:30Z</time>
      </trkpt>
      <trkpt lat="45.63856" lon="6.64692">
        <ele>2460.15</ele>
        <time>2018-02-08T13:02:41Z</time>
      </trkpt>
      <trkpt lat="45.63857" lon="6.64701">
        <ele>2461.11</ele>
        <time>2018-02-08T13:02:57Z</time>
      </trkpt>
      <trkpt lat="45.63861" lon="6.64698">
        <ele>2463.04</ele>
        <time>2018-02-08T13:03:10Z</time>
      </trkpt>
      <trkpt lat="45.63866" lon="6.64694">
        <ele>2464.48</ele>
        <time>2018-02-08T13:03:25Z</time>
      </trkpt>
      <trkpt lat="45.63869" lon="6.64699">
        <ele>2465.92</ele>
        <time>2018-02-08T13:03:39Z</time>
      </trkpt>
      <trkpt lat="45.63871" lon="6.64701">
        <ele>2465.92</ele>
        <time>2018-02-08T13:03:54Z</time>
      </trkpt>
      <trkpt lat="45.63877" lon="6.64706">
        <ele>2468.32</ele>
        <time>2018-02-08T13:04:08Z</time>
      </trkpt>
      <trkpt lat="45.63874" lon="6.64708">
        <ele>2468.8</ele>
        <time>2018-02-08T13:04:19Z</time>
      </trkpt>
      <trkpt lat="45.6387" lon="6.64715">
        <ele>2470.73</ele>
        <time>2018-02-08T13:04:36Z</time>
      </trkpt>
      <trkpt lat="45.63866" lon="6.64721">
        <ele>2472.65</ele>
        <time>2018-02-08T13:04:49Z</time>
      </trkpt>
      <trkpt lat="45.63865" lon="6.64731">
        <ele>2474.09</ele>
        <time>2018-02-08T13:05:05Z</time>
      </trkpt>
      <trkpt lat="45.63867" lon="6.64734">
        <ele>2475.53</ele>
        <time>2018-02-08T13:05:19Z</time>
      </trkpt>
      <trkpt lat="45.6387" lon="6.64732">
        <ele>2476.97</ele>
        <time>2018-02-08T13:05:32Z</time>
      </trkpt>
      <trkpt lat="45.63875" lon="6.6473">
        <ele>2478.42</ele>
        <time>2018-02-08T13:05:47Z</time>
      </trkpt>
      <trkpt lat="45.63875" lon="6.6473">
        <ele>2478.9</ele>
        <time>2018-02-08T13:05:48Z</time>
      </trkpt>
      <trkpt lat="45.63882" lon="6.64732">
        <ele>2480.34</ele>
        <time>2018-02-08T13:06:04Z</time>
      </trkpt>
      <trkpt lat="45.6389" lon="6.64734">
        <ele>2481.3</ele>
        <time>2018-02-08T13:06:18Z</time>
      </trkpt>
      <trkpt lat="45.63897" lon="6.64735">
        <ele>2483.7</ele>
        <time>2018-02-08T13:06:35Z</time>
      </trkpt>
      <trkpt lat="45.63905" lon="6.64735">
        <ele>2485.15</ele>
        <time>2018-02-08T13:06:50Z</time>
      </trkpt>
      <trkpt lat="45.63907" lon="6.64738">
        <ele>2487.07</ele>
        <time>2018-02-08T13:07:04Z</time>
      </trkpt>
      <trkpt lat="45.63902" lon="6.64742">
        <ele>2488.03</ele>
        <time>2018-02-08T13:07:20Z</time>
      </trkpt>
      <trkpt lat="45.63897" lon="6.64747">
        <ele>2489.47</ele>
        <time>2018-02-08T13:07:33Z</time>
      </trkpt>
      <trkpt lat="45.63898" lon="6.64748">
        <ele>2490.91</ele>
        <time>2018-02-08T13:07:46Z</time>
      </trkpt>
      <trkpt lat="45.63905" lon="6.64751">
        <ele>2491.87</ele>
        <time>2018-02-08T13:08:02Z</time>
      </trkpt>
      <trkpt lat="45.63911" lon="6.64751">
        <ele>2493.8</ele>
        <time>2018-02-08T13:08:17Z</time>
      </trkpt>
      <trkpt lat="45.63911" lon="6.64754">
        <ele>2494.76</ele>
        <time>2018-02-08T13:08:29Z</time>
      </trkpt>
      <trkpt lat="45.63906" lon="6.64759">
        <ele>2497.16</ele>
        <time>2018-02-08T13:08:43Z</time>
      </trkpt>
      <trkpt lat="45.63905" lon="6.64769">
        <ele>2499.08</ele>
        <time>2018-02-08T13:08:58Z</time>
      </trkpt>
      <trkpt lat="45.63912" lon="6.64767">
        <ele>2501.01</ele>
        <time>2018-02-08T13:09:12Z</time>
      </trkpt>
      <trkpt lat="45.63913" lon="6.6477">
        <ele>2501.49</ele>
        <time>2018-02-08T13:09:24Z</time>
      </trkpt>
      <trkpt lat="45.6391" lon="6.64779">
        <ele>2502.93</ele>
        <time>2018-02-08T13:09:38Z</time>
      </trkpt>
      <trkpt lat="45.63906" lon="6.64789">
        <ele>2504.37</ele>
        <time>2018-02-08T13:09:54Z</time>
      </trkpt>
      <trkpt lat="45.63904" lon="6.64795">
        <ele>2505.33</ele>
        <time>2018-02-08T13:10:08Z</time>
      </trkpt>
      <trkpt lat="45.63905" lon="6.64796">
        <ele>2505.81</ele>
        <time>2018-02-08T13:10:32Z</time>
      </trkpt>
      <trkpt lat="45.63905" lon="6.64794">
        <ele>2505.81</ele>
        <time>2018-02-08T13:10:51Z</time>
      </trkpt>
      <trkpt lat="45.63904" lon="6.64797">
        <ele>2505.33</ele>
        <time>2018-02-08T13:11:10Z</time>
      </trkpt>
      <trkpt lat="45.63904" lon="6.64798">
        <ele>2505.33</ele>
        <time>2018-02-08T13:11:27Z</time>
      </trkpt>
      <trkpt lat="45.63903" lon="6.64797">
        <ele>2505.33</ele>
        <time>2018-02-08T13:11:41Z</time>
      </trkpt>
      <trkpt lat="45.63905" lon="6.64808">
        <ele>2506.77</ele>
        <time>2018-02-08T13:11:54Z</time>
      </trkpt>
      <trkpt lat="45.63909" lon="6.6482">
        <ele>2508.22</ele>
        <time>2018-02-08T13:12:09Z</time>
      </trkpt>
      <trkpt lat="45.63911" lon="6.64817">
        <ele>2509.66</ele>
        <time>2018-02-08T13:12:19Z</time>
      </trkpt>
      <trkpt lat="45.63914" lon="6.6481">
        <ele>2511.1</ele>
        <time>2018-02-08T13:12:33Z</time>
      </trkpt>
      <trkpt lat="45.63917" lon="6.64806">
        <ele>2513.5</ele>
        <time>2018-02-08T13:12:46Z</time>
      </trkpt>
      <trkpt lat="45.63921" lon="6.64809">
        <ele>2514.47</ele>
        <time>2018-02-08T13:13:00Z</time>
      </trkpt>
      <trkpt lat="45.63924" lon="6.64818">
        <ele>2516.39</ele>
        <time>2018-02-08T13:13:13Z</time>
      </trkpt>
      <trkpt lat="45.63927" lon="6.64827">
        <ele>2518.79</ele>
        <time>2018-02-08T13:13:27Z</time>
      </trkpt>
      <trkpt lat="45.63931" lon="6.64836">
        <ele>2520.23</ele>
        <time>2018-02-08T13:13:43Z</time>
      </trkpt>
      <trkpt lat="45.63933" lon="6.6484">
        <ele>2519.27</ele>
        <time>2018-02-08T13:13:49Z</time>
      </trkpt>
      <trkpt lat="45.63941" lon="6.64857">
        <ele>2518.79</ele>
        <time>2018-02-08T13:14:05Z</time>
      </trkpt>
      <trkpt lat="45.63945" lon="6.64866">
        <ele>2519.75</ele>
        <time>2018-02-08T13:14:19Z</time>
      </trkpt>
      <trkpt lat="45.63945" lon="6.64868">
        <ele>2519.75</ele>
        <time>2018-02-08T13:14:39Z</time>
      </trkpt>
      <trkpt lat="45.63945" lon="6.64878">
        <ele>2520.71</ele>
        <time>2018-02-08T13:14:52Z</time>
      </trkpt>
      <trkpt lat="45.63948" lon="6.64893">
        <ele>2521.68</ele>
        <time>2018-02-08T13:15:08Z</time>
      </trkpt>
      <trkpt lat="45.63953" lon="6.64905">
        <ele>2522.16</ele>
        <time>2018-02-08T13:15:23Z</time>
      </trkpt>
      <trkpt lat="45.63954" lon="6.64914">
        <ele>2523.6</ele>
        <time>2018-02-08T13:15:36Z</time>
      </trkpt>
      <trkpt lat="45.63956" lon="6.6492">
        <ele>2525.04</ele>
        <time>2018-02-08T13:15:48Z</time>
      </trkpt>
      <trkpt lat="45.63957" lon="6.64927">
        <ele>2527.44</ele>
        <time>2018-02-08T13:16:02Z</time>
      </trkpt>
      <trkpt lat="45.63958" lon="6.64934">
        <ele>2528.89</ele>
        <time>2018-02-08T13:16:16Z</time>
      </trkpt>
      <trkpt lat="45.63958" lon="6.64935">
        <ele>2529.37</ele>
        <time>2018-02-08T13:16:29Z</time>
      </trkpt>
      <trkpt lat="45.63959" lon="6.64941">
        <ele>2530.81</ele>
        <time>2018-02-08T13:16:46Z</time>
      </trkpt>
      <trkpt lat="45.63961" lon="6.64945">
        <ele>2531.77</ele>
        <time>2018-02-08T13:16:59Z</time>
      </trkpt>
      <trkpt lat="45.63961" lon="6.64954">
        <ele>2534.17</ele>
        <time>2018-02-08T13:17:12Z</time>
      </trkpt>
      <trkpt lat="45.63962" lon="6.64966">
        <ele>2533.69</ele>
        <time>2018-02-08T13:17:26Z</time>
      </trkpt>
      <trkpt lat="45.63957" lon="6.6498">
        <ele>2533.69</ele>
        <time>2018-02-08T13:17:42Z</time>
      </trkpt>
      <trkpt lat="45.63953" lon="6.65">
        <ele>2533.21</ele>
        <time>2018-02-08T13:18:02Z</time>
      </trkpt>
      <trkpt lat="45.6395" lon="6.65012">
        <ele>2533.69</ele>
        <time>2018-02-08T13:18:15Z</time>
      </trkpt>
      <trkpt lat="45.63944" lon="6.65019">
        <ele>2535.13</ele>
        <time>2018-02-08T13:18:29Z</time>
      </trkpt>
      <trkpt lat="45.63935" lon="6.65025">
        <ele>2536.1</ele>
        <time>2018-02-08T13:18:44Z</time>
      </trkpt>
      <trkpt lat="45.63925" lon="6.65026">
        <ele>2536.58</ele>
        <time>2018-02-08T13:18:59Z</time>
      </trkpt>
      <trkpt lat="45.63918" lon="6.65022">
        <ele>2537.06</ele>
        <time>2018-02-08T13:19:13Z</time>
      </trkpt>
      <trkpt lat="45.63907" lon="6.65023">
        <ele>2538.5</ele>
        <time>2018-02-08T13:19:33Z</time>
      </trkpt>
      <trkpt lat="45.63902" lon="6.65025">
        <ele>2540.42</ele>
        <time>2018-02-08T13:19:47Z</time>
      </trkpt>
      <trkpt lat="45.63908" lon="6.65032">
        <ele>2542.34</ele>
        <time>2018-02-08T13:20:03Z</time>
      </trkpt>
      <trkpt lat="45.63914" lon="6.65039">
        <ele>2544.27</ele>
        <time>2018-02-08T13:20:19Z</time>
      </trkpt>
      <trkpt lat="45.63918" lon="6.65044">
        <ele>2545.23</ele>
        <time>2018-02-08T13:20:29Z</time>
      </trkpt>
      <trkpt lat="45.63908" lon="6.65047">
        <ele>2546.19</ele>
        <time>2018-02-08T13:20:44Z</time>
      </trkpt>
      <trkpt lat="45.63901" lon="6.65048">
        <ele>2547.63</ele>
        <time>2018-02-08T13:20:58Z</time>
      </trkpt>
      <trkpt lat="45.63901" lon="6.65049">
        <ele>2549.07</ele>
        <time>2018-02-08T13:21:13Z</time>
      </trkpt>
      <trkpt lat="45.63905" lon="6.65054">
        <ele>2549.55</ele>
        <time>2018-02-08T13:21:24Z</time>
      </trkpt>
      <trkpt lat="45.63909" lon="6.65058">
        <ele>2551.48</ele>
        <time>2018-02-08T13:21:36Z</time>
      </trkpt>
      <trkpt lat="45.63914" lon="6.65064">
        <ele>2552.92</ele>
        <time>2018-02-08T13:21:50Z</time>
      </trkpt>
      <trkpt lat="45.6392" lon="6.65067">
        <ele>2554.84</ele>
        <time>2018-02-08T13:22:04Z</time>
      </trkpt>
      <trkpt lat="45.63917" lon="6.6507">
        <ele>2555.32</ele>
        <time>2018-02-08T13:22:17Z</time>
      </trkpt>
      <trkpt lat="45.63911" lon="6.65073">
        <ele>2556.28</ele>
        <time>2018-02-08T13:22:32Z</time>
      </trkpt>
      <trkpt lat="45.63906" lon="6.65077">
        <ele>2557.73</ele>
        <time>2018-02-08T13:22:46Z</time>
      </trkpt>
      <trkpt lat="45.63899" lon="6.6508">
        <ele>2559.65</ele>
        <time>2018-02-08T13:23:01Z</time>
      </trkpt>
      <trkpt lat="45.63898" lon="6.65081">
        <ele>2560.13</ele>
        <time>2018-02-08T13:23:04Z</time>
      </trkpt>
      <trkpt lat="45.63892" lon="6.65082">
        <ele>2561.57</ele>
        <time>2018-02-08T13:23:19Z</time>
      </trkpt>
      <trkpt lat="45.63899" lon="6.6508">
        <ele>2562.05</ele>
        <time>2018-02-08T13:23:37Z</time>
      </trkpt>
      <trkpt lat="45.63903" lon="6.65085">
        <ele>2563.49</ele>
        <time>2018-02-08T13:23:52Z</time>
      </trkpt>
      <trkpt lat="45.63909" lon="6.65091">
        <ele>2564.45</ele>
        <time>2018-02-08T13:24:08Z</time>
      </trkpt>
      <trkpt lat="45.63915" lon="6.65095">
        <ele>2566.86</ele>
        <time>2018-02-08T13:24:22Z</time>
      </trkpt>
      <trkpt lat="45.63917" lon="6.65097">
        <ele>2567.82</ele>
        <time>2018-02-08T13:24:34Z</time>
      </trkpt>
      <trkpt lat="45.63914" lon="6.651">
        <ele>2568.78</ele>
        <time>2018-02-08T13:24:48Z</time>
      </trkpt>
      <trkpt lat="45.63908" lon="6.65104">
        <ele>2569.26</ele>
        <time>2018-02-08T13:25:00Z</time>
      </trkpt>
      <trkpt lat="45.63906" lon="6.65105">
        <ele>2569.74</ele>
        <time>2018-02-08T13:25:16Z</time>
      </trkpt>
      <trkpt lat="45.63907" lon="6.65107">
        <ele>2569.74</ele>
        <time>2018-02-08T13:25:38Z</time>
      </trkpt>
      <trkpt lat="45.63906" lon="6.65101">
        <ele>2569.74</ele>
        <time>2018-02-08T13:26:04Z</time>
      </trkpt>
      <trkpt lat="45.63908" lon="6.65103">
        <ele>2570.22</ele>
        <time>2018-02-08T13:26:20Z</time>
      </trkpt>
      <trkpt lat="45.63906" lon="6.65111">
        <ele>2569.26</ele>
        <time>2018-02-08T13:26:41Z</time>
      </trkpt>
      <trkpt lat="45.63904" lon="6.65116">
        <ele>2569.26</ele>
        <time>2018-02-08T13:27:11Z</time>
      </trkpt>
      <trkpt lat="45.63901" lon="6.65112">
        <ele>2569.26</ele>
        <time>2018-02-08T13:27:36Z</time>
      </trkpt>
      <trkpt lat="45.6391" lon="6.65109">
        <ele>2570.22</ele>
        <time>2018-02-08T13:27:59Z</time>
      </trkpt>
      <trkpt lat="45.6391" lon="6.6511">
        <ele>2569.74</ele>
        <time>2018-02-08T13:28:21Z</time>
      </trkpt>
      <trkpt lat="45.6391" lon="6.65098">
        <ele>2569.74</ele>
        <time>2018-02-08T13:28:44Z</time>
      </trkpt>
      <trkpt lat="45.63901" lon="6.65097">
        <ele>2569.26</ele>
        <time>2018-02-08T13:29:12Z</time>
      </trkpt>
      <trkpt lat="45.63902" lon="6.65106">
        <ele>2569.74</ele>
        <time>2018-02-08T13:29:36Z</time>
      </trkpt>
      <trkpt lat="45.63901" lon="6.65105">
        <ele>2569.74</ele>
        <time>2018-02-08T13:29:57Z</time>
      </trkpt>
      <trkpt lat="45.63907" lon="6.65105">
        <ele>2569.74</ele>
        <time>2018-02-08T13:30:20Z</time>
      </trkpt>
      <trkpt lat="45.63913" lon="6.65095">
        <ele>2569.74</ele>
        <time>2018-02-08T13:30:40Z</time>
      </trkpt>
      <trkpt lat="45.63915" lon="6.6509">
        <ele>2569.74</ele>
        <time>2018-02-08T13:30:59Z</time>
      </trkpt>
      <trkpt lat="45.63897" lon="6.65096">
        <ele>2569.26</ele>
        <time>2018-02-08T13:31:16Z</time>
      </trkpt>
      <trkpt lat="45.63904" lon="6.65098">
        <ele>2569.74</ele>
        <time>2018-02-08T13:31:38Z</time>
      </trkpt>
      <trkpt lat="45.63906" lon="6.65097">
        <ele>2569.74</ele>
        <time>2018-02-08T13:32:01Z</time>
      </trkpt>
      <trkpt lat="45.63909" lon="6.65099">
        <ele>2569.26</ele>
        <time>2018-02-08T13:32:22Z</time>
      </trkpt>
      <trkpt lat="45.63897" lon="6.65104">
        <ele>2569.26</ele>
        <time>2018-02-08T13:32:44Z</time>
      </trkpt>
      <trkpt lat="45.63898" lon="6.65103">
        <ele>2568.78</ele>
        <time>2018-02-08T13:33:10Z</time>
      </trkpt>
      <trkpt lat="45.63905" lon="6.65104">
        <ele>2570.22</ele>
        <time>2018-02-08T13:33:33Z</time>
      </trkpt>
      <trkpt lat="45.63905" lon="6.65106">
        <ele>2570.22</ele>
        <time>2018-02-08T13:33:57Z</time>
      </trkpt>
      <trkpt lat="45.63904" lon="6.65106">
        <ele>2570.22</ele>
        <time>2018-02-08T13:34:18Z</time>
      </trkpt>
      <trkpt lat="45.63905" lon="6.65106">
        <ele>2570.7</ele>
        <time>2018-02-08T13:34:32Z</time>
      </trkpt>
      <trkpt lat="45.63899" lon="6.65104">
        <ele>2570.7</ele>
        <time>2018-02-08T13:34:43Z</time>
      </trkpt>
      <trkpt lat="45.63893" lon="6.65105">
        <ele>2572.14</ele>
        <time>2018-02-08T13:34:58Z</time>
      </trkpt>
      <trkpt lat="45.63894" lon="6.65109">
        <ele>2572.63</ele>
        <time>2018-02-08T13:35:12Z</time>
      </trkpt>
      <trkpt lat="45.63887" lon="6.65107">
        <ele>2573.11</ele>
        <time>2018-02-08T13:35:33Z</time>
      </trkpt>
      <trkpt lat="45.63889" lon="6.65111">
        <ele>2574.55</ele>
        <time>2018-02-08T13:35:46Z</time>
      </trkpt>
      <trkpt lat="45.63899" lon="6.65116">
        <ele>2575.51</ele>
        <time>2018-02-08T13:36:04Z</time>
      </trkpt>
      <trkpt lat="45.63898" lon="6.65116">
        <ele>2575.99</ele>
        <time>2018-02-08T13:36:22Z</time>
      </trkpt>
      <trkpt lat="45.63906" lon="6.65119">
        <ele>2577.43</ele>
        <time>2018-02-08T13:36:37Z</time>
      </trkpt>
      <trkpt lat="45.63907" lon="6.65118">
        <ele>2578.39</ele>
        <time>2018-02-08T13:36:53Z</time>
      </trkpt>
      <trkpt lat="45.6391" lon="6.6512">
        <ele>2579.35</ele>
        <time>2018-02-08T13:37:10Z</time>
      </trkpt>
      <trkpt lat="45.63911" lon="6.65121">
        <ele>2578.87</ele>
        <time>2018-02-08T13:37:31Z</time>
      </trkpt>
      <trkpt lat="45.63912" lon="6.65121">
        <ele>2579.84</ele>
        <time>2018-02-08T13:37:49Z</time>
      </trkpt>
      <trkpt lat="45.63914" lon="6.65121">
        <ele>2579.35</ele>
        <time>2018-02-08T13:38:08Z</time>
      </trkpt>
      <trkpt lat="45.63915" lon="6.65121">
        <ele>2579.35</ele>
        <time>2018-02-08T13:38:29Z</time>
      </trkpt>
      <trkpt lat="45.63918" lon="6.65121">
        <ele>2579.84</ele>
        <time>2018-02-08T13:38:49Z</time>
      </trkpt>
      <trkpt lat="45.63917" lon="6.65122">
        <ele>2580.32</ele>
        <time>2018-02-08T13:39:10Z</time>
      </trkpt>
      <trkpt lat="45.63918" lon="6.65122">
        <ele>2580.32</ele>
        <time>2018-02-08T13:39:30Z</time>
      </trkpt>
      <trkpt lat="45.63919" lon="6.65121">
        <ele>2580.32</ele>
        <time>2018-02-08T13:39:45Z</time>
      </trkpt>
      <trkpt lat="45.6392" lon="6.65119">
        <ele>2579.84</ele>
        <time>2018-02-08T13:40:04Z</time>
      </trkpt>
      <trkpt lat="45.63919" lon="6.65126">
        <ele>2580.32</ele>
        <time>2018-02-08T13:40:17Z</time>
      </trkpt>
      <trkpt lat="45.63914" lon="6.65131">
        <ele>2582.24</ele>
        <time>2018-02-08T13:40:29Z</time>
      </trkpt>
      <trkpt lat="45.63912" lon="6.65133">
        <ele>2582.72</ele>
        <time>2018-02-08T13:40:44Z</time>
      </trkpt>
      <trkpt lat="45.63913" lon="6.65133">
        <ele>2582.24</ele>
        <time>2018-02-08T13:41:02Z</time>
      </trkpt>
      <trkpt lat="45.63913" lon="6.6513">
        <ele>2581.76</ele>
        <time>2018-02-08T13:41:14Z</time>
      </trkpt>
      <trkpt lat="45.63913" lon="6.65128">
        <ele>2581.28</ele>
        <time>2018-02-08T13:41:31Z</time>
      </trkpt>
      <trkpt lat="45.63912" lon="6.65133">
        <ele>2581.28</ele>
        <time>2018-02-08T13:41:44Z</time>
      </trkpt>
      <trkpt lat="45.6391" lon="6.6513">
        <ele>2581.28</ele>
        <time>2018-02-08T13:42:18Z</time>
      </trkpt>
      <trkpt lat="45.63912" lon="6.65131">
        <ele>2580.8</ele>
        <time>2018-02-08T13:43:02Z</time>
      </trkpt>
      <trkpt lat="45.6391" lon="6.65131">
        <ele>2580.8</ele>
        <time>2018-02-08T13:43:45Z</time>
      </trkpt>
      <trkpt lat="45.63912" lon="6.65132">
        <ele>2580.32</ele>
        <time>2018-02-08T13:44:26Z</time>
      </trkpt>
      <trkpt lat="45.63911" lon="6.65132">
        <ele>2580.32</ele>
        <time>2018-02-08T13:45:05Z</time>
      </trkpt>
      <trkpt lat="45.63913" lon="6.65131">
        <ele>2579.84</ele>
        <time>2018-02-08T13:45:43Z</time>
      </trkpt>
      <trkpt lat="45.63914" lon="6.65131">
        <ele>2579.84</ele>
        <time>2018-02-08T13:46:24Z</time>
      </trkpt>
      <trkpt lat="45.63913" lon="6.65132">
        <ele>2579.84</ele>
        <time>2018-02-08T13:46:56Z</time>
      </trkpt>
      <trkpt lat="45.63913" lon="6.6513">
        <ele>2578.87</ele>
        <time>2018-02-08T13:47:35Z</time>
      </trkpt>
      <trkpt lat="45.63915" lon="6.65131">
        <ele>2578.87</ele>
        <time>2018-02-08T13:48:07Z</time>
      </trkpt>
      <trkpt lat="45.63914" lon="6.65131">
        <ele>2579.35</ele>
        <time>2018-02-08T13:48:57Z</time>
      </trkpt>
      <trkpt lat="45.63913" lon="6.65131">
        <ele>2578.39</ele>
        <time>2018-02-08T13:49:35Z</time>
      </trkpt>
      <trkpt lat="45.63909" lon="6.6513">
        <ele>2578.87</ele>
        <time>2018-02-08T13:50:18Z</time>
      </trkpt>
      <trkpt lat="45.63909" lon="6.65129">
        <ele>2578.87</ele>
        <time>2018-02-08T13:50:59Z</time>
      </trkpt>
      <trkpt lat="45.6391" lon="6.6513">
        <ele>2578.87</ele>
        <time>2018-02-08T13:51:03Z</time>
      </trkpt>
      <trkpt lat="45.63913" lon="6.65132">
        <ele>2579.35</ele>
        <time>2018-02-08T13:51:15Z</time>
      </trkpt>
      <trkpt lat="45.63914" lon="6.65132">
        <ele>2579.84</ele>
        <time>2018-02-08T13:51:33Z</time>
      </trkpt>
      <trkpt lat="45.63914" lon="6.65134">
        <ele>2579.35</ele>
        <time>2018-02-08T13:51:54Z</time>
      </trkpt>
      <trkpt lat="45.63914" lon="6.65135">
        <ele>2579.35</ele>
        <time>2018-02-08T13:52:15Z</time>
      </trkpt>
      <trkpt lat="45.63914" lon="6.65134">
        <ele>2579.35</ele>
        <time>2018-02-08T13:52:34Z</time>
      </trkpt>
      <trkpt lat="45.63915" lon="6.65136">
        <ele>2578.87</ele>
        <time>2018-02-08T13:52:56Z</time>
      </trkpt>
      <trkpt lat="45.63915" lon="6.65133">
        <ele>2579.35</ele>
        <time>2018-02-08T13:53:16Z</time>
      </trkpt>
      <trkpt lat="45.63914" lon="6.65137">
        <ele>2577.91</ele>
        <time>2018-02-08T13:53:37Z</time>
      </trkpt>
      <trkpt lat="45.63912" lon="6.6514">
        <ele>2576.95</ele>
        <time>2018-02-08T13:53:40Z</time>
      </trkpt>
      <trkpt lat="45.63908" lon="6.65142">
        <ele>2575.51</ele>
        <time>2018-02-08T13:53:41Z</time>
      </trkpt>
      <trkpt lat="45.63903" lon="6.65144">
        <ele>2574.07</ele>
        <time>2018-02-08T13:53:42Z</time>
      </trkpt>
      <trkpt lat="45.63901" lon="6.65143">
        <ele>2573.59</ele>
        <time>2018-02-08T13:53:47Z</time>
      </trkpt>
      <trkpt lat="45.63902" lon="6.65144">
        <ele>2572.63</ele>
        <time>2018-02-08T13:53:50Z</time>
      </trkpt>
      <trkpt lat="45.63903" lon="6.65147">
        <ele>2572.14</ele>
        <time>2018-02-08T13:53:51Z</time>
      </trkpt>
      <trkpt lat="45.63909" lon="6.6515">
        <ele>2569.26</ele>
        <time>2018-02-08T13:53:53Z</time>
      </trkpt>
      <trkpt lat="45.6391" lon="6.65151">
        <ele>2567.82</ele>
        <time>2018-02-08T13:53:56Z</time>
      </trkpt>
      <trkpt lat="45.63911" lon="6.65152">
        <ele>2567.82</ele>
        <time>2018-02-08T13:53:57Z</time>
      </trkpt>
      <trkpt lat="45.63913" lon="6.65154">
        <ele>2567.34</ele>
        <time>2018-02-08T13:53:58Z</time>
      </trkpt>
      <trkpt lat="45.63915" lon="6.65155">
        <ele>2565.9</ele>
        <time>2018-02-08T13:53:59Z</time>
      </trkpt>
      <trkpt lat="45.63916" lon="6.65156">
        <ele>2564.93</ele>
        <time>2018-02-08T13:54:00Z</time>
      </trkpt>
      <trkpt lat="45.63926" lon="6.65162">
        <ele>2562.05</ele>
        <time>2018-02-08T13:54:03Z</time>
      </trkpt>
      <trkpt lat="45.6393" lon="6.65162">
        <ele>2559.65</ele>
        <time>2018-02-08T13:54:04Z</time>
      </trkpt>
      <trkpt lat="45.63932" lon="6.65162">
        <ele>2558.69</ele>
        <time>2018-02-08T13:54:05Z</time>
      </trkpt>
      <trkpt lat="45.63933" lon="6.65163">
        <ele>2558.69</ele>
        <time>2018-02-08T13:54:06Z</time>
      </trkpt>
      <trkpt lat="45.63935" lon="6.65169">
        <ele>2556.76</ele>
        <time>2018-02-08T13:54:12Z</time>
      </trkpt>
      <trkpt lat="45.63929" lon="6.65173">
        <ele>2553.88</ele>
        <time>2018-02-08T13:54:14Z</time>
      </trkpt>
      <trkpt lat="45.63926" lon="6.65173">
        <ele>2552.92</ele>
        <time>2018-02-08T13:54:16Z</time>
      </trkpt>
      <trkpt lat="45.63927" lon="6.65172">
        <ele>2552.92</ele>
        <time>2018-02-08T13:54:34Z</time>
      </trkpt>
      <trkpt lat="45.63931" lon="6.65179">
        <ele>2550.03</ele>
        <time>2018-02-08T13:54:38Z</time>
      </trkpt>
      <trkpt lat="45.63932" lon="6.65184">
        <ele>2549.07</ele>
        <time>2018-02-08T13:54:40Z</time>
      </trkpt>
      <trkpt lat="45.63928" lon="6.65189">
        <ele>2545.71</ele>
        <time>2018-02-08T13:54:42Z</time>
      </trkpt>
      <trkpt lat="45.63927" lon="6.65189">
        <ele>2545.71</ele>
        <time>2018-02-08T13:54:43Z</time>
      </trkpt>
      <trkpt lat="45.63927" lon="6.65189">
        <ele>2545.71</ele>
        <time>2018-02-08T13:54:45Z</time>
      </trkpt>
      <trkpt lat="45.63931" lon="6.65199">
        <ele>2541.38</ele>
        <time>2018-02-08T13:54:48Z</time>
      </trkpt>
      <trkpt lat="45.63939" lon="6.652">
        <ele>2538.98</ele>
        <time>2018-02-08T13:54:54Z</time>
      </trkpt>
      <trkpt lat="45.63939" lon="6.652">
        <ele>2538.98</ele>
        <time>2018-02-08T13:55:11Z</time>
      </trkpt>
      <trkpt lat="45.6394" lon="6.652">
        <ele>2538.5</ele>
        <time>2018-02-08T13:55:13Z</time>
      </trkpt>
      <trkpt lat="45.63945" lon="6.65203">
        <ele>2538.02</ele>
        <time>2018-02-08T13:55:16Z</time>
      </trkpt>
      <trkpt lat="45.63947" lon="6.65204">
        <ele>2537.54</ele>
        <time>2018-02-08T13:55:17Z</time>
      </trkpt>
      <trkpt lat="45.63949" lon="6.65206">
        <ele>2537.54</ele>
        <time>2018-02-08T13:55:18Z</time>
      </trkpt>
      <trkpt lat="45.63952" lon="6.65209">
        <ele>2537.06</ele>
        <time>2018-02-08T13:55:19Z</time>
      </trkpt>
      <trkpt lat="45.63958" lon="6.65213">
        <ele>2535.13</ele>
        <time>2018-02-08T13:55:22Z</time>
      </trkpt>
      <trkpt lat="45.63959" lon="6.65215">
        <ele>2534.65</ele>
        <time>2018-02-08T13:55:24Z</time>
      </trkpt>
      <trkpt lat="45.63958" lon="6.65219">
        <ele>2534.17</ele>
        <time>2018-02-08T13:55:25Z</time>
      </trkpt>
      <trkpt lat="45.63955" lon="6.65223">
        <ele>2532.25</ele>
        <time>2018-02-08T13:55:26Z</time>
      </trkpt>
      <trkpt lat="45.63947" lon="6.65224">
        <ele>2529.85</ele>
        <time>2018-02-08T13:55:28Z</time>
      </trkpt>
      <trkpt lat="45.6394" lon="6.65223">
        <ele>2529.85</ele>
        <time>2018-02-08T13:55:32Z</time>
      </trkpt>
      <trkpt lat="45.63939" lon="6.65226">
        <ele>2526.48</ele>
        <time>2018-02-08T13:55:36Z</time>
      </trkpt>
      <trkpt lat="45.6394" lon="6.65224">
        <ele>2526.96</ele>
        <time>2018-02-08T13:55:52Z</time>
      </trkpt>
      <trkpt lat="45.63942" lon="6.65226">
        <ele>2525.52</ele>
        <time>2018-02-08T13:56:11Z</time>
      </trkpt>
      <trkpt lat="45.63943" lon="6.65227">
        <ele>2526</ele>
        <time>2018-02-08T13:56:12Z</time>
      </trkpt>
      <trkpt lat="45.6395" lon="6.65235">
        <ele>2524.56</ele>
        <time>2018-02-08T13:56:19Z</time>
      </trkpt>
      <trkpt lat="45.63952" lon="6.65237">
        <ele>2524.56</ele>
        <time>2018-02-08T13:56:21Z</time>
      </trkpt>
      <trkpt lat="45.63953" lon="6.65241">
        <ele>2524.08</ele>
        <time>2018-02-08T13:56:23Z</time>
      </trkpt>
      <trkpt lat="45.63953" lon="6.65245">
        <ele>2523.6</ele>
        <time>2018-02-08T13:56:24Z</time>
      </trkpt>
      <trkpt lat="45.63951" lon="6.65247">
        <ele>2522.64</ele>
        <time>2018-02-08T13:56:25Z</time>
      </trkpt>
      <trkpt lat="45.63945" lon="6.65247">
        <ele>2521.19</ele>
        <time>2018-02-08T13:56:35Z</time>
      </trkpt>
      <trkpt lat="45.63942" lon="6.65249">
        <ele>2521.19</ele>
        <time>2018-02-08T13:57:01Z</time>
      </trkpt>
      <trkpt lat="45.63943" lon="6.65246">
        <ele>2521.19</ele>
        <time>2018-02-08T13:57:32Z</time>
      </trkpt>
      <trkpt lat="45.63944" lon="6.65246">
        <ele>2521.19</ele>
        <time>2018-02-08T13:57:53Z</time>
      </trkpt>
      <trkpt lat="45.63943" lon="6.65247">
        <ele>2521.19</ele>
        <time>2018-02-08T13:58:08Z</time>
      </trkpt>
      <trkpt lat="45.63951" lon="6.65254">
        <ele>2519.27</ele>
        <time>2018-02-08T13:58:18Z</time>
      </trkpt>
      <trkpt lat="45.63955" lon="6.65253">
        <ele>2519.27</ele>
        <time>2018-02-08T13:58:42Z</time>
      </trkpt>
      <trkpt lat="45.63953" lon="6.65253">
        <ele>2519.27</ele>
        <time>2018-02-08T13:59:06Z</time>
      </trkpt>
      <trkpt lat="45.63954" lon="6.65252">
        <ele>2518.31</ele>
        <time>2018-02-08T13:59:40Z</time>
      </trkpt>
      <trkpt lat="45.63954" lon="6.65252">
        <ele>2518.79</ele>
        <time>2018-02-08T14:00:04Z</time>
      </trkpt>
      <trkpt lat="45.63955" lon="6.65255">
        <ele>2518.31</ele>
        <time>2018-02-08T14:00:16Z</time>
      </trkpt>
      <trkpt lat="45.63952" lon="6.65255">
        <ele>2518.31</ele>
        <time>2018-02-08T14:00:33Z</time>
      </trkpt>
      <trkpt lat="45.63954" lon="6.65259">
        <ele>2518.31</ele>
        <time>2018-02-08T14:00:52Z</time>
      </trkpt>
      <trkpt lat="45.63955" lon="6.65257">
        <ele>2518.79</ele>
        <time>2018-02-08T14:00:56Z</time>
      </trkpt>
      <trkpt lat="45.63958" lon="6.65254">
        <ele>2517.35</ele>
        <time>2018-02-08T14:01:01Z</time>
      </trkpt>
      <trkpt lat="45.63962" lon="6.65256">
        <ele>2514.95</ele>
        <time>2018-02-08T14:01:07Z</time>
      </trkpt>
      <trkpt lat="45.63969" lon="6.65258">
        <ele>2511.58</ele>
        <time>2018-02-08T14:01:12Z</time>
      </trkpt>
      <trkpt lat="45.63971" lon="6.65261">
        <ele>2508.7</ele>
        <time>2018-02-08T14:01:29Z</time>
      </trkpt>
      <trkpt lat="45.63969" lon="6.65271">
        <ele>2506.29</ele>
        <time>2018-02-08T14:01:40Z</time>
      </trkpt>
      <trkpt lat="45.63966" lon="6.65274">
        <ele>2502.93</ele>
        <time>2018-02-08T14:01:41Z</time>
      </trkpt>
      <trkpt lat="45.63965" lon="6.65274">
        <ele>2502.45</ele>
        <time>2018-02-08T14:01:49Z</time>
      </trkpt>
      <trkpt lat="45.63967" lon="6.65274">
        <ele>2501.97</ele>
        <time>2018-02-08T14:02:04Z</time>
      </trkpt>
      <trkpt lat="45.63968" lon="6.65278">
        <ele>2501.49</ele>
        <time>2018-02-08T14:02:09Z</time>
      </trkpt>
      <trkpt lat="45.6397" lon="6.6528">
        <ele>2500.53</ele>
        <time>2018-02-08T14:02:10Z</time>
      </trkpt>
      <trkpt lat="45.63973" lon="6.65282">
        <ele>2498.6</ele>
        <time>2018-02-08T14:02:11Z</time>
      </trkpt>
      <trkpt lat="45.63975" lon="6.65282">
        <ele>2497.64</ele>
        <time>2018-02-08T14:02:12Z</time>
      </trkpt>
      <trkpt lat="45.63978" lon="6.65284">
        <ele>2496.2</ele>
        <time>2018-02-08T14:02:15Z</time>
      </trkpt>
      <trkpt lat="45.6398" lon="6.65285">
        <ele>2495.24</ele>
        <time>2018-02-08T14:02:16Z</time>
      </trkpt>
      <trkpt lat="45.63982" lon="6.65287">
        <ele>2493.32</ele>
        <time>2018-02-08T14:02:19Z</time>
      </trkpt>
      <trkpt lat="45.6398" lon="6.65292">
        <ele>2491.87</ele>
        <time>2018-02-08T14:02:20Z</time>
      </trkpt>
      <trkpt lat="45.63978" lon="6.65295">
        <ele>2491.39</ele>
        <time>2018-02-08T14:02:21Z</time>
      </trkpt>
      <trkpt lat="45.63976" lon="6.65296">
        <ele>2489.47</ele>
        <time>2018-02-08T14:02:23Z</time>
      </trkpt>
      <trkpt lat="45.63976" lon="6.65299">
        <ele>2488.51</ele>
        <time>2018-02-08T14:02:35Z</time>
      </trkpt>
      <trkpt lat="45.63977" lon="6.65301">
        <ele>2488.51</ele>
        <time>2018-02-08T14:02:36Z</time>
      </trkpt>
      <trkpt lat="45.6398" lon="6.65303">
        <ele>2486.59</ele>
        <time>2018-02-08T14:02:37Z</time>
      </trkpt>
      <trkpt lat="45.63982" lon="6.65304">
        <ele>2484.66</ele>
        <time>2018-02-08T14:02:38Z</time>
      </trkpt>
      <trkpt lat="45.63984" lon="6.65303">
        <ele>2484.18</ele>
        <time>2018-02-08T14:02:39Z</time>
      </trkpt>
      <trkpt lat="45.63985" lon="6.65303">
        <ele>2484.18</ele>
        <time>2018-02-08T14:02:40Z</time>
      </trkpt>
      <trkpt lat="45.63989" lon="6.65299">
        <ele>2484.18</ele>
        <time>2018-02-08T14:02:51Z</time>
      </trkpt>
      <trkpt lat="45.6399" lon="6.653">
        <ele>2483.7</ele>
        <time>2018-02-08T14:02:52Z</time>
      </trkpt>
      <trkpt lat="45.63992" lon="6.65302">
        <ele>2482.74</ele>
        <time>2018-02-08T14:02:53Z</time>
      </trkpt>
      <trkpt lat="45.63996" lon="6.65304">
        <ele>2479.86</ele>
        <time>2018-02-08T14:02:59Z</time>
      </trkpt>
      <trkpt lat="45.6399" lon="6.65315">
        <ele>2476.01</ele>
        <time>2018-02-08T14:03:02Z</time>
      </trkpt>
      <trkpt lat="45.63986" lon="6.65317">
        <ele>2475.05</ele>
        <time>2018-02-08T14:03:04Z</time>
      </trkpt>
      <trkpt lat="45.63989" lon="6.65323">
        <ele>2470.73</ele>
        <time>2018-02-08T14:03:08Z</time>
      </trkpt>
      <trkpt lat="45.6399" lon="6.65322">
        <ele>2471.21</ele>
        <time>2018-02-08T14:03:09Z</time>
      </trkpt>
      <trkpt lat="45.63991" lon="6.6532">
        <ele>2470.24</ele>
        <time>2018-02-08T14:03:18Z</time>
      </trkpt>
      <trkpt lat="45.63998" lon="6.65324">
        <ele>2466.88</ele>
        <time>2018-02-08T14:03:22Z</time>
      </trkpt>
      <trkpt lat="45.63998" lon="6.65328">
        <ele>2466.4</ele>
        <time>2018-02-08T14:03:23Z</time>
      </trkpt>
      <trkpt lat="45.63994" lon="6.65334">
        <ele>2463.04</ele>
        <time>2018-02-08T14:03:25Z</time>
      </trkpt>
      <trkpt lat="45.63993" lon="6.65334">
        <ele>2462.07</ele>
        <time>2018-02-08T14:03:27Z</time>
      </trkpt>
      <trkpt lat="45.63993" lon="6.65336">
        <ele>2461.11</ele>
        <time>2018-02-08T14:03:29Z</time>
      </trkpt>
      <trkpt lat="45.64" lon="6.6534">
        <ele>2457.75</ele>
        <time>2018-02-08T14:03:32Z</time>
      </trkpt>
      <trkpt lat="45.64" lon="6.65335">
        <ele>2457.27</ele>
        <time>2018-02-08T14:03:41Z</time>
      </trkpt>
      <trkpt lat="45.63999" lon="6.65334">
        <ele>2456.79</ele>
        <time>2018-02-08T14:03:44Z</time>
      </trkpt>
      <trkpt lat="45.63998" lon="6.65346">
        <ele>2452.94</ele>
        <time>2018-02-08T14:03:48Z</time>
      </trkpt>
      <trkpt lat="45.63997" lon="6.65348">
        <ele>2451.98</ele>
        <time>2018-02-08T14:03:49Z</time>
      </trkpt>
      <trkpt lat="45.64002" lon="6.65354">
        <ele>2448.13</ele>
        <time>2018-02-08T14:03:52Z</time>
      </trkpt>
      <trkpt lat="45.64008" lon="6.65352">
        <ele>2446.21</ele>
        <time>2018-02-08T14:03:54Z</time>
      </trkpt>
      <trkpt lat="45.64007" lon="6.65348">
        <ele>2446.21</ele>
        <time>2018-02-08T14:04:06Z</time>
      </trkpt>
      <trkpt lat="45.64007" lon="6.6536">
        <ele>2441.41</ele>
        <time>2018-02-08T14:04:11Z</time>
      </trkpt>
      <trkpt lat="45.64006" lon="6.65369">
        <ele>2438.04</ele>
        <time>2018-02-08T14:04:15Z</time>
      </trkpt>
      <trkpt lat="45.64013" lon="6.65371">
        <ele>2434.68</ele>
        <time>2018-02-08T14:04:17Z</time>
      </trkpt>
      <trkpt lat="45.64015" lon="6.6537">
        <ele>2434.68</ele>
        <time>2018-02-08T14:04:18Z</time>
      </trkpt>
      <trkpt lat="45.64016" lon="6.6537">
        <ele>2434.68</ele>
        <time>2018-02-08T14:04:19Z</time>
      </trkpt>
      <trkpt lat="45.64018" lon="6.6538">
        <ele>2430.83</ele>
        <time>2018-02-08T14:04:24Z</time>
      </trkpt>
      <trkpt lat="45.64012" lon="6.65385">
        <ele>2428.91</ele>
        <time>2018-02-08T14:04:36Z</time>
      </trkpt>
      <trkpt lat="45.64007" lon="6.65392">
        <ele>2426.99</ele>
        <time>2018-02-08T14:04:43Z</time>
      </trkpt>
      <trkpt lat="45.6401" lon="6.65401">
        <ele>2425.06</ele>
        <time>2018-02-08T14:04:46Z</time>
      </trkpt>
      <trkpt lat="45.64018" lon="6.65396">
        <ele>2422.18</ele>
        <time>2018-02-08T14:04:48Z</time>
      </trkpt>
      <trkpt lat="45.64025" lon="6.65394">
        <ele>2421.22</ele>
        <time>2018-02-08T14:04:51Z</time>
      </trkpt>
      <trkpt lat="45.64021" lon="6.65406">
        <ele>2416.89</ele>
        <time>2018-02-08T14:04:54Z</time>
      </trkpt>
      <trkpt lat="45.64016" lon="6.65411">
        <ele>2415.93</ele>
        <time>2018-02-08T14:04:56Z</time>
      </trkpt>
      <trkpt lat="45.64019" lon="6.65417">
        <ele>2410.64</ele>
        <time>2018-02-08T14:04:59Z</time>
      </trkpt>
      <trkpt lat="45.64021" lon="6.65416">
        <ele>2410.16</ele>
        <time>2018-02-08T14:05:00Z</time>
      </trkpt>
      <trkpt lat="45.64029" lon="6.65415">
        <ele>2410.16</ele>
        <time>2018-02-08T14:05:11Z</time>
      </trkpt>
      <trkpt lat="45.64038" lon="6.6542">
        <ele>2408.72</ele>
        <time>2018-02-08T14:05:15Z</time>
      </trkpt>
      <trkpt lat="45.64034" lon="6.65434">
        <ele>2404.39</ele>
        <time>2018-02-08T14:05:18Z</time>
      </trkpt>
      <trkpt lat="45.64031" lon="6.65437">
        <ele>2403.91</ele>
        <time>2018-02-08T14:05:19Z</time>
      </trkpt>
      <trkpt lat="45.64024" lon="6.65443">
        <ele>2402.47</ele>
        <time>2018-02-08T14:05:21Z</time>
      </trkpt>
      <trkpt lat="45.64031" lon="6.65462">
        <ele>2395.74</ele>
        <time>2018-02-08T14:05:25Z</time>
      </trkpt>
      <trkpt lat="45.64021" lon="6.65477">
        <ele>2392.38</ele>
        <time>2018-02-08T14:05:28Z</time>
      </trkpt>
      <trkpt lat="45.64017" lon="6.65475">
        <ele>2390.94</ele>
        <time>2018-02-08T14:05:29Z</time>
      </trkpt>
      <trkpt lat="45.64014" lon="6.65474">
        <ele>2389.97</ele>
        <time>2018-02-08T14:05:31Z</time>
      </trkpt>
      <trkpt lat="45.64015" lon="6.65476">
        <ele>2390.94</ele>
        <time>2018-02-08T14:05:39Z</time>
      </trkpt>
      <trkpt lat="45.64006" lon="6.65503">
        <ele>2388.05</ele>
        <time>2018-02-08T14:05:45Z</time>
      </trkpt>
      <trkpt lat="45.63999" lon="6.65526">
        <ele>2384.69</ele>
        <time>2018-02-08T14:05:48Z</time>
      </trkpt>
      <trkpt lat="45.63997" lon="6.65533">
        <ele>2383.25</ele>
        <time>2018-02-08T14:05:49Z</time>
      </trkpt>
      <trkpt lat="45.63993" lon="6.65548">
        <ele>2381.32</ele>
        <time>2018-02-08T14:05:52Z</time>
      </trkpt>
      <trkpt lat="45.63991" lon="6.65562">
        <ele>2379.88</ele>
        <time>2018-02-08T14:05:54Z</time>
      </trkpt>
      <trkpt lat="45.63982" lon="6.65592">
        <ele>2373.63</ele>
        <time>2018-02-08T14:05:58Z</time>
      </trkpt>
      <trkpt lat="45.63975" lon="6.65615">
        <ele>2371.71</ele>
        <time>2018-02-08T14:06:02Z</time>
      </trkpt>
      <trkpt lat="45.63969" lon="6.65628">
        <ele>2369.31</ele>
        <time>2018-02-08T14:06:05Z</time>
      </trkpt>
      <trkpt lat="45.63967" lon="6.6563">
        <ele>2369.31</ele>
        <time>2018-02-08T14:06:06Z</time>
      </trkpt>
      <trkpt lat="45.63971" lon="6.65636">
        <ele>2365.46</ele>
        <time>2018-02-08T14:06:10Z</time>
      </trkpt>
      <trkpt lat="45.63977" lon="6.65649">
        <ele>2361.62</ele>
        <time>2018-02-08T14:06:13Z</time>
      </trkpt>
      <trkpt lat="45.63973" lon="6.65657">
        <ele>2358.25</ele>
        <time>2018-02-08T14:06:15Z</time>
      </trkpt>
      <trkpt lat="45.6397" lon="6.6566">
        <ele>2358.73</ele>
        <time>2018-02-08T14:06:23Z</time>
      </trkpt>
      <trkpt lat="45.63967" lon="6.65674">
        <ele>2356.81</ele>
        <time>2018-02-08T14:06:26Z</time>
      </trkpt>
      <trkpt lat="45.6396" lon="6.65688">
        <ele>2352.96</ele>
        <time>2018-02-08T14:06:28Z</time>
      </trkpt>
      <trkpt lat="45.63953" lon="6.65722">
        <ele>2348.16</ele>
        <time>2018-02-08T14:06:33Z</time>
      </trkpt>
      <trkpt lat="45.63951" lon="6.65734">
        <ele>2347.68</ele>
        <time>2018-02-08T14:06:35Z</time>
      </trkpt>
      <trkpt lat="45.63947" lon="6.65745">
        <ele>2345.27</ele>
        <time>2018-02-08T14:06:42Z</time>
      </trkpt>
      <trkpt lat="45.63947" lon="6.65745">
        <ele>2344.79</ele>
        <time>2018-02-08T14:06:44Z</time>
      </trkpt>
      <trkpt lat="45.6394" lon="6.65769">
        <ele>2341.43</ele>
        <time>2018-02-08T14:06:50Z</time>
      </trkpt>
      <trkpt lat="45.63938" lon="6.65772">
        <ele>2341.43</ele>
        <time>2018-02-08T14:06:51Z</time>
      </trkpt>
      <trkpt lat="45.63933" lon="6.65778">
        <ele>2339.51</ele>
        <time>2018-02-08T14:06:57Z</time>
      </trkpt>
      <trkpt lat="45.6393" lon="6.65784">
        <ele>2339.51</ele>
        <time>2018-02-08T14:07:00Z</time>
      </trkpt>
      <trkpt lat="45.63936" lon="6.6579">
        <ele>2335.66</ele>
        <time>2018-02-08T14:07:03Z</time>
      </trkpt>
      <trkpt lat="45.63946" lon="6.65794">
        <ele>2331.81</ele>
        <time>2018-02-08T14:07:05Z</time>
      </trkpt>
      <trkpt lat="45.63949" lon="6.65797">
        <ele>2332.3</ele>
        <time>2018-02-08T14:07:06Z</time>
      </trkpt>
      <trkpt lat="45.63956" lon="6.65815">
        <ele>2331.81</ele>
        <time>2018-02-08T14:07:10Z</time>
      </trkpt>
      <trkpt lat="45.63959" lon="6.65835">
        <ele>2330.37</ele>
        <time>2018-02-08T14:07:15Z</time>
      </trkpt>
      <trkpt lat="45.6395" lon="6.6584">
        <ele>2328.93</ele>
        <time>2018-02-08T14:07:22Z</time>
      </trkpt>
      <trkpt lat="45.6395" lon="6.65839">
        <ele>2329.41</ele>
        <time>2018-02-08T14:07:53Z</time>
      </trkpt>
      <trkpt lat="45.6395" lon="6.65839">
        <ele>2328.93</ele>
        <time>2018-02-08T14:08:18Z</time>
      </trkpt>
      <trkpt lat="45.6395" lon="6.65839">
        <ele>2328.45</ele>
        <time>2018-02-08T14:08:43Z</time>
      </trkpt>
      <trkpt lat="45.63949" lon="6.65839">
        <ele>2328.45</ele>
        <time>2018-02-08T14:08:48Z</time>
      </trkpt>
      <trkpt lat="45.6394" lon="6.65834">
        <ele>2327.97</ele>
        <time>2018-02-08T14:08:52Z</time>
      </trkpt>
      <trkpt lat="45.63931" lon="6.65843">
        <ele>2325.09</ele>
        <time>2018-02-08T14:08:55Z</time>
      </trkpt>
      <trkpt lat="45.63912" lon="6.65847">
        <ele>2319.32</ele>
        <time>2018-02-08T14:08:58Z</time>
      </trkpt>
      <trkpt lat="45.63898" lon="6.6585">
        <ele>2316.43</ele>
        <time>2018-02-08T14:09:00Z</time>
      </trkpt>
      <trkpt lat="45.63883" lon="6.65855">
        <ele>2314.03</ele>
        <time>2018-02-08T14:09:02Z</time>
      </trkpt>
      <trkpt lat="45.6387" lon="6.65858">
        <ele>2312.59</ele>
        <time>2018-02-08T14:09:05Z</time>
      </trkpt>
      <trkpt lat="45.63853" lon="6.65877">
        <ele>2308.74</ele>
        <time>2018-02-08T14:09:09Z</time>
      </trkpt>
      <trkpt lat="45.63846" lon="6.65894">
        <ele>2306.82</ele>
        <time>2018-02-08T14:09:12Z</time>
      </trkpt>
      <trkpt lat="45.63837" lon="6.65921">
        <ele>2304.42</ele>
        <time>2018-02-08T14:09:19Z</time>
      </trkpt>
      <trkpt lat="45.63831" lon="6.6592">
        <ele>2303.46</ele>
        <time>2018-02-08T14:09:29Z</time>
      </trkpt>
      <trkpt lat="45.63828" lon="6.6592">
        <ele>2302.98</ele>
        <time>2018-02-08T14:09:47Z</time>
      </trkpt>
      <trkpt lat="45.63829" lon="6.65921">
        <ele>2302.49</ele>
        <time>2018-02-08T14:10:06Z</time>
      </trkpt>
      <trkpt lat="45.63812" lon="6.65921">
        <ele>2300.57</ele>
        <time>2018-02-08T14:10:17Z</time>
      </trkpt>
      <trkpt lat="45.63805" lon="6.65919">
        <ele>2299.13</ele>
        <time>2018-02-08T14:10:20Z</time>
      </trkpt>
      <trkpt lat="45.638" lon="6.65917">
        <ele>2298.17</ele>
        <time>2018-02-08T14:10:23Z</time>
      </trkpt>
      <trkpt lat="45.63804" lon="6.65934">
        <ele>2292.88</ele>
        <time>2018-02-08T14:10:27Z</time>
      </trkpt>
      <trkpt lat="45.63812" lon="6.65941">
        <ele>2291.92</ele>
        <time>2018-02-08T14:10:29Z</time>
      </trkpt>
      <trkpt lat="45.63813" lon="6.65949">
        <ele>2290</ele>
        <time>2018-02-08T14:10:35Z</time>
      </trkpt>
      <trkpt lat="45.63811" lon="6.65948">
        <ele>2290</ele>
        <time>2018-02-08T14:10:36Z</time>
      </trkpt>
      <trkpt lat="45.63809" lon="6.65946">
        <ele>2289.52</ele>
        <time>2018-02-08T14:10:37Z</time>
      </trkpt>
      <trkpt lat="45.63799" lon="6.65939">
        <ele>2288.56</ele>
        <time>2018-02-08T14:10:50Z</time>
      </trkpt>
      <trkpt lat="45.63792" lon="6.65935">
        <ele>2289.04</ele>
        <time>2018-02-08T14:11:04Z</time>
      </trkpt>
      <trkpt lat="45.63784" lon="6.65927">
        <ele>2288.08</ele>
        <time>2018-02-08T14:11:19Z</time>
      </trkpt>
      <trkpt lat="45.63768" lon="6.65916">
        <ele>2286.15</ele>
        <time>2018-02-08T14:11:27Z</time>
      </trkpt>
      <trkpt lat="45.6376" lon="6.65913">
        <ele>2283.27</ele>
        <time>2018-02-08T14:11:33Z</time>
      </trkpt>
      <trkpt lat="45.6376" lon="6.65913">
        <ele>2283.75</ele>
        <time>2018-02-08T14:11:39Z</time>
      </trkpt>
      <trkpt lat="45.63761" lon="6.65919">
        <ele>2282.79</ele>
        <time>2018-02-08T14:11:41Z</time>
      </trkpt>
      <trkpt lat="45.63768" lon="6.65928">
        <ele>2278.94</ele>
        <time>2018-02-08T14:11:43Z</time>
      </trkpt>
      <trkpt lat="45.63777" lon="6.65941">
        <ele>2277.02</ele>
        <time>2018-02-08T14:11:46Z</time>
      </trkpt>
      <trkpt lat="45.63785" lon="6.6596">
        <ele>2275.58</ele>
        <time>2018-02-08T14:11:54Z</time>
      </trkpt>
      <trkpt lat="45.63787" lon="6.65962">
        <ele>2273.66</ele>
        <time>2018-02-08T14:12:01Z</time>
      </trkpt>
      <trkpt lat="45.63793" lon="6.65976">
        <ele>2271.73</ele>
        <time>2018-02-08T14:12:12Z</time>
      </trkpt>
      <trkpt lat="45.63802" lon="6.65997">
        <ele>2267.89</ele>
        <time>2018-02-08T14:12:17Z</time>
      </trkpt>
      <trkpt lat="45.63803" lon="6.65998">
        <ele>2267.89</ele>
        <time>2018-02-08T14:12:18Z</time>
      </trkpt>
      <trkpt lat="45.63805" lon="6.66004">
        <ele>2266.93</ele>
        <time>2018-02-08T14:12:21Z</time>
      </trkpt>
      <trkpt lat="45.63802" lon="6.66011">
        <ele>2265</ele>
        <time>2018-02-08T14:12:24Z</time>
      </trkpt>
      <trkpt lat="45.63801" lon="6.66012">
        <ele>2262.12</ele>
        <time>2018-02-08T14:12:25Z</time>
      </trkpt>
      <trkpt lat="45.63799" lon="6.66008">
        <ele>2262.12</ele>
        <time>2018-02-08T14:12:39Z</time>
      </trkpt>
      <trkpt lat="45.63798" lon="6.66008">
        <ele>2262.6</ele>
        <time>2018-02-08T14:12:43Z</time>
      </trkpt>
      <trkpt lat="45.6379" lon="6.66004">
        <ele>2260.68</ele>
        <time>2018-02-08T14:12:47Z</time>
      </trkpt>
      <trkpt lat="45.63785" lon="6.65998">
        <ele>2258.75</ele>
        <time>2018-02-08T14:12:52Z</time>
      </trkpt>
      <trkpt lat="45.63782" lon="6.66006">
        <ele>2257.79</ele>
        <time>2018-02-08T14:12:54Z</time>
      </trkpt>
      <trkpt lat="45.63787" lon="6.66013">
        <ele>2253.95</ele>
        <time>2018-02-08T14:12:56Z</time>
      </trkpt>
      <trkpt lat="45.63789" lon="6.66016">
        <ele>2253.95</ele>
        <time>2018-02-08T14:12:57Z</time>
      </trkpt>
      <trkpt lat="45.63797" lon="6.66032">
        <ele>2251.54</ele>
        <time>2018-02-08T14:13:03Z</time>
      </trkpt>
      <trkpt lat="45.63799" lon="6.66037">
        <ele>2252.03</ele>
        <time>2018-02-08T14:13:05Z</time>
      </trkpt>
      <trkpt lat="45.6379" lon="6.66036">
        <ele>2247.22</ele>
        <time>2018-02-08T14:13:09Z</time>
      </trkpt>
      <trkpt lat="45.63788" lon="6.66034">
        <ele>2247.7</ele>
        <time>2018-02-08T14:13:10Z</time>
      </trkpt>
      <trkpt lat="45.63776" lon="6.66022">
        <ele>2245.78</ele>
        <time>2018-02-08T14:13:16Z</time>
      </trkpt>
      <trkpt lat="45.63776" lon="6.66035">
        <ele>2240.97</ele>
        <time>2018-02-08T14:13:19Z</time>
      </trkpt>
      <trkpt lat="45.63781" lon="6.66043">
        <ele>2239.53</ele>
        <time>2018-02-08T14:13:21Z</time>
      </trkpt>
      <trkpt lat="45.63784" lon="6.66048">
        <ele>2239.53</ele>
        <time>2018-02-08T14:13:34Z</time>
      </trkpt>
      <trkpt lat="45.63796" lon="6.66069">
        <ele>2236.16</ele>
        <time>2018-02-08T14:13:42Z</time>
      </trkpt>
      <trkpt lat="45.63801" lon="6.66077">
        <ele>2234.24</ele>
        <time>2018-02-08T14:13:45Z</time>
      </trkpt>
      <trkpt lat="45.63805" lon="6.66084">
        <ele>2234.24</ele>
        <time>2018-02-08T14:13:48Z</time>
      </trkpt>
      <trkpt lat="45.63802" lon="6.66091">
        <ele>2233.28</ele>
        <time>2018-02-08T14:13:50Z</time>
      </trkpt>
      <trkpt lat="45.63795" lon="6.66086">
        <ele>2229.43</ele>
        <time>2018-02-08T14:13:52Z</time>
      </trkpt>
      <trkpt lat="45.63792" lon="6.66084">
        <ele>2229.92</ele>
        <time>2018-02-08T14:13:53Z</time>
      </trkpt>
      <trkpt lat="45.6379" lon="6.66096">
        <ele>2224.63</ele>
        <time>2018-02-08T14:13:56Z</time>
      </trkpt>
      <trkpt lat="45.63793" lon="6.66102">
        <ele>2223.67</ele>
        <time>2018-02-08T14:13:57Z</time>
      </trkpt>
      <trkpt lat="45.63809" lon="6.66145">
        <ele>2220.3</ele>
        <time>2018-02-08T14:14:06Z</time>
      </trkpt>
      <trkpt lat="45.638" lon="6.6615">
        <ele>2216.94</ele>
        <time>2018-02-08T14:14:09Z</time>
      </trkpt>
      <trkpt lat="45.63793" lon="6.66139">
        <ele>2214.53</ele>
        <time>2018-02-08T14:14:11Z</time>
      </trkpt>
      <trkpt lat="45.63769" lon="6.6611">
        <ele>2211.65</ele>
        <time>2018-02-08T14:14:21Z</time>
      </trkpt>
      <trkpt lat="45.63768" lon="6.6613">
        <ele>2206.84</ele>
        <time>2018-02-08T14:14:25Z</time>
      </trkpt>
      <trkpt lat="45.63771" lon="6.66144">
        <ele>2205.4</ele>
        <time>2018-02-08T14:14:27Z</time>
      </trkpt>
      <trkpt lat="45.63773" lon="6.6616">
        <ele>2203.96</ele>
        <time>2018-02-08T14:14:30Z</time>
      </trkpt>
      <trkpt lat="45.6376" lon="6.66158">
        <ele>2199.63</ele>
        <time>2018-02-08T14:14:34Z</time>
      </trkpt>
      <trkpt lat="45.63757" lon="6.66153">
        <ele>2199.15</ele>
        <time>2018-02-08T14:14:35Z</time>
      </trkpt>
      <trkpt lat="45.63742" lon="6.66151">
        <ele>2195.31</ele>
        <time>2018-02-08T14:14:39Z</time>
      </trkpt>
      <trkpt lat="45.6374" lon="6.66167">
        <ele>2193.87</ele>
        <time>2018-02-08T14:14:43Z</time>
      </trkpt>
      <trkpt lat="45.63729" lon="6.6617">
        <ele>2188.58</ele>
        <time>2018-02-08T14:14:47Z</time>
      </trkpt>
      <trkpt lat="45.63729" lon="6.66166">
        <ele>2188.58</ele>
        <time>2018-02-08T14:14:48Z</time>
      </trkpt>
      <trkpt lat="45.63729" lon="6.66162">
        <ele>2188.58</ele>
        <time>2018-02-08T14:14:49Z</time>
      </trkpt>
      <trkpt lat="45.63716" lon="6.66142">
        <ele>2185.21</ele>
        <time>2018-02-08T14:14:55Z</time>
      </trkpt>
      <trkpt lat="45.6371" lon="6.66136">
        <ele>2184.73</ele>
        <time>2018-02-08T14:14:57Z</time>
      </trkpt>
      <trkpt lat="45.63705" lon="6.66156">
        <ele>2180.89</ele>
        <time>2018-02-08T14:15:01Z</time>
      </trkpt>
      <trkpt lat="45.637" lon="6.66169">
        <ele>2177.04</ele>
        <time>2018-02-08T14:15:05Z</time>
      </trkpt>
      <trkpt lat="45.63698" lon="6.66162">
        <ele>2175.6</ele>
        <time>2018-02-08T14:15:07Z</time>
      </trkpt>
      <trkpt lat="45.63694" lon="6.66156">
        <ele>2175.6</ele>
        <time>2018-02-08T14:15:10Z</time>
      </trkpt>
      <trkpt lat="45.6369" lon="6.66151">
        <ele>2175.6</ele>
        <time>2018-02-08T14:15:12Z</time>
      </trkpt>
      <trkpt lat="45.6368" lon="6.66155">
        <ele>2172.72</ele>
        <time>2018-02-08T14:15:15Z</time>
      </trkpt>
      <trkpt lat="45.63677" lon="6.66168">
        <ele>2169.83</ele>
        <time>2018-02-08T14:15:17Z</time>
      </trkpt>
      <trkpt lat="45.63675" lon="6.66167">
        <ele>2166.95</ele>
        <time>2018-02-08T14:15:18Z</time>
      </trkpt>
      <trkpt lat="45.63672" lon="6.66158">
        <ele>2165.99</ele>
        <time>2018-02-08T14:15:20Z</time>
      </trkpt>
      <trkpt lat="45.63666" lon="6.66144">
        <ele>2165.03</ele>
        <time>2018-02-08T14:15:23Z</time>
      </trkpt>
      <trkpt lat="45.63648" lon="6.66145">
        <ele>2161.18</ele>
        <time>2018-02-08T14:15:27Z</time>
      </trkpt>
      <trkpt lat="45.63624" lon="6.66163">
        <ele>2157.34</ele>
        <time>2018-02-08T14:15:31Z</time>
      </trkpt>
      <trkpt lat="45.63601" lon="6.6618">
        <ele>2153.49</ele>
        <time>2018-02-08T14:15:36Z</time>
      </trkpt>
      <trkpt lat="45.63595" lon="6.66184">
        <ele>2152.53</ele>
        <time>2018-02-08T14:15:38Z</time>
      </trkpt>
      <trkpt lat="45.63592" lon="6.66186">
        <ele>2153.49</ele>
        <time>2018-02-08T14:15:47Z</time>
      </trkpt>
      <trkpt lat="45.63587" lon="6.66185">
        <ele>2153.01</ele>
        <time>2018-02-08T14:16:00Z</time>
      </trkpt>
      <trkpt lat="45.63585" lon="6.66185">
        <ele>2152.05</ele>
        <time>2018-02-08T14:16:15Z</time>
      </trkpt>
      <trkpt lat="45.63578" lon="6.66185">
        <ele>2152.53</ele>
        <time>2018-02-08T14:16:25Z</time>
      </trkpt>
      <trkpt lat="45.63576" lon="6.66185">
        <ele>2152.05</ele>
        <time>2018-02-08T14:16:26Z</time>
      </trkpt>
      <trkpt lat="45.63575" lon="6.66185">
        <ele>2152.05</ele>
        <time>2018-02-08T14:16:27Z</time>
      </trkpt>
      <trkpt lat="45.63573" lon="6.66186">
        <ele>2152.53</ele>
        <time>2018-02-08T14:16:28Z</time>
      </trkpt>
      <trkpt lat="45.63572" lon="6.66187">
        <ele>2152.53</ele>
        <time>2018-02-08T14:16:29Z</time>
      </trkpt>
      <trkpt lat="45.63549" lon="6.6619">
        <ele>2151.09</ele>
        <time>2018-02-08T14:16:41Z</time>
      </trkpt>
      <trkpt lat="45.63543" lon="6.66185">
        <ele>2148.68</ele>
        <time>2018-02-08T14:16:44Z</time>
      </trkpt>
      <trkpt lat="45.6354" lon="6.66182">
        <ele>2148.2</ele>
        <time>2018-02-08T14:16:52Z</time>
      </trkpt>
      <trkpt lat="45.63523" lon="6.6615">
        <ele>2145.32</ele>
        <time>2018-02-08T14:17:01Z</time>
      </trkpt>
      <trkpt lat="45.63511" lon="6.66154">
        <ele>2141.47</ele>
        <time>2018-02-08T14:17:05Z</time>
      </trkpt>
      <trkpt lat="45.63507" lon="6.66177">
        <ele>2137.63</ele>
        <time>2018-02-08T14:17:08Z</time>
      </trkpt>
      <trkpt lat="45.63506" lon="6.66184">
        <ele>2137.63</ele>
        <time>2018-02-08T14:17:09Z</time>
      </trkpt>
      <trkpt lat="45.63498" lon="6.66206">
        <ele>2133.3</ele>
        <time>2018-02-08T14:17:12Z</time>
      </trkpt>
      <trkpt lat="45.63488" lon="6.66224">
        <ele>2128.02</ele>
        <time>2018-02-08T14:17:14Z</time>
      </trkpt>
      <trkpt lat="45.63466" lon="6.66249">
        <ele>2123.69</ele>
        <time>2018-02-08T14:17:18Z</time>
      </trkpt>
      <trkpt lat="45.63433" lon="6.66285">
        <ele>2121.29</ele>
        <time>2018-02-08T14:17:26Z</time>
      </trkpt>
      <trkpt lat="45.6342" lon="6.66297">
        <ele>2118.88</ele>
        <time>2018-02-08T14:17:29Z</time>
      </trkpt>
      <trkpt lat="45.63409" lon="6.66312">
        <ele>2116.48</ele>
        <time>2018-02-08T14:17:33Z</time>
      </trkpt>
      <trkpt lat="45.63396" lon="6.66331">
        <ele>2114.08</ele>
        <time>2018-02-08T14:17:38Z</time>
      </trkpt>
      <trkpt lat="45.63394" lon="6.66335">
        <ele>2113.6</ele>
        <time>2018-02-08T14:17:39Z</time>
      </trkpt>
      <trkpt lat="45.63393" lon="6.66338">
        <ele>2113.6</ele>
        <time>2018-02-08T14:17:40Z</time>
      </trkpt>
      <trkpt lat="45.6339" lon="6.66337">
        <ele>2113.12</ele>
        <time>2018-02-08T14:17:41Z</time>
      </trkpt>
      <trkpt lat="45.63388" lon="6.66332">
        <ele>2112.15</ele>
        <time>2018-02-08T14:17:42Z</time>
      </trkpt>
      <trkpt lat="45.63387" lon="6.66326">
        <ele>2110.71</ele>
        <time>2018-02-08T14:17:43Z</time>
      </trkpt>
      <trkpt lat="45.63387" lon="6.66318">
        <ele>2110.23</ele>
        <time>2018-02-08T14:17:44Z</time>
      </trkpt>
      <trkpt lat="45.63387" lon="6.66284">
        <ele>2107.35</ele>
        <time>2018-02-08T14:17:51Z</time>
      </trkpt>
      <trkpt lat="45.63378" lon="6.66289">
        <ele>2104.94</ele>
        <time>2018-02-08T14:17:55Z</time>
      </trkpt>
      <trkpt lat="45.63376" lon="6.66295">
        <ele>2104.46</ele>
        <time>2018-02-08T14:17:56Z</time>
      </trkpt>
      <trkpt lat="45.6337" lon="6.66314">
        <ele>2102.06</ele>
        <time>2018-02-08T14:17:59Z</time>
      </trkpt>
      <trkpt lat="45.63364" lon="6.66338">
        <ele>2100.14</ele>
        <time>2018-02-08T14:18:03Z</time>
      </trkpt>
      <trkpt lat="45.63363" lon="6.66343">
        <ele>2099.18</ele>
        <time>2018-02-08T14:18:04Z</time>
      </trkpt>
      <trkpt lat="45.63362" lon="6.66348">
        <ele>2098.7</ele>
        <time>2018-02-08T14:18:05Z</time>
      </trkpt>
      <trkpt lat="45.63362" lon="6.66351">
        <ele>2098.7</ele>
        <time>2018-02-08T14:18:06Z</time>
      </trkpt>
      <trkpt lat="45.63361" lon="6.66352">
        <ele>2098.7</ele>
        <time>2018-02-08T14:18:07Z</time>
      </trkpt>
      <trkpt lat="45.63358" lon="6.66339">
        <ele>2097.73</ele>
        <time>2018-02-08T14:18:10Z</time>
      </trkpt>
      <trkpt lat="45.63351" lon="6.66336">
        <ele>2093.89</ele>
        <time>2018-02-08T14:18:14Z</time>
      </trkpt>
      <trkpt lat="45.63352" lon="6.66344">
        <ele>2092.93</ele>
        <time>2018-02-08T14:18:16Z</time>
      </trkpt>
      <trkpt lat="45.63352" lon="6.66346">
        <ele>2093.41</ele>
        <time>2018-02-08T14:18:18Z</time>
      </trkpt>
      <trkpt lat="45.63342" lon="6.66322">
        <ele>2090.52</ele>
        <time>2018-02-08T14:18:26Z</time>
      </trkpt>
      <trkpt lat="45.63339" lon="6.66327">
        <ele>2089.08</ele>
        <time>2018-02-08T14:18:28Z</time>
      </trkpt>
      <trkpt lat="45.63328" lon="6.66343">
        <ele>2087.16</ele>
        <time>2018-02-08T14:18:34Z</time>
      </trkpt>
      <trkpt lat="45.63316" lon="6.66349">
        <ele>2086.68</ele>
        <time>2018-02-08T14:18:37Z</time>
      </trkpt>
      <trkpt lat="45.63315" lon="6.6636">
        <ele>2085.24</ele>
        <time>2018-02-08T14:18:40Z</time>
      </trkpt>
      <trkpt lat="45.63315" lon="6.66364">
        <ele>2085.24</ele>
        <time>2018-02-08T14:18:41Z</time>
      </trkpt>
      <trkpt lat="45.63305" lon="6.66378">
        <ele>2082.35</ele>
        <time>2018-02-08T14:18:46Z</time>
      </trkpt>
      <trkpt lat="45.63293" lon="6.66386">
        <ele>2077.55</ele>
        <time>2018-02-08T14:18:50Z</time>
      </trkpt>
      <trkpt lat="45.63294" lon="6.66391">
        <ele>2078.03</ele>
        <time>2018-02-08T14:18:51Z</time>
      </trkpt>
      <trkpt lat="45.63296" lon="6.66395">
        <ele>2078.03</ele>
        <time>2018-02-08T14:19:02Z</time>
      </trkpt>
      <trkpt lat="45.63276" lon="6.66384">
        <ele>2075.62</ele>
        <time>2018-02-08T14:19:10Z</time>
      </trkpt>
      <trkpt lat="45.63262" lon="6.66387">
        <ele>2071.78</ele>
        <time>2018-02-08T14:19:15Z</time>
      </trkpt>
      <trkpt lat="45.6326" lon="6.66393">
        <ele>2070.82</ele>
        <time>2018-02-08T14:19:16Z</time>
      </trkpt>
      <trkpt lat="45.63257" lon="6.66412">
        <ele>2069.38</ele>
        <time>2018-02-08T14:19:20Z</time>
      </trkpt>
      <trkpt lat="45.63257" lon="6.66419">
        <ele>2068.89</ele>
        <time>2018-02-08T14:19:22Z</time>
      </trkpt>
      <trkpt lat="45.6325" lon="6.66435">
        <ele>2064.57</ele>
        <time>2018-02-08T14:19:27Z</time>
      </trkpt>
      <trkpt lat="45.63254" lon="6.6644">
        <ele>2063.13</ele>
        <time>2018-02-08T14:19:29Z</time>
      </trkpt>
      <trkpt lat="45.63263" lon="6.66453">
        <ele>2061.2</ele>
        <time>2018-02-08T14:19:33Z</time>
      </trkpt>
      <trkpt lat="45.63278" lon="6.66496">
        <ele>2059.28</ele>
        <time>2018-02-08T14:19:43Z</time>
      </trkpt>
      <trkpt lat="45.63278" lon="6.66504">
        <ele>2058.32</ele>
        <time>2018-02-08T14:19:45Z</time>
      </trkpt>
      <trkpt lat="45.63272" lon="6.6651">
        <ele>2056.88</ele>
        <time>2018-02-08T14:19:47Z</time>
      </trkpt>
      <trkpt lat="45.63267" lon="6.66507">
        <ele>2054.96</ele>
        <time>2018-02-08T14:19:48Z</time>
      </trkpt>
      <trkpt lat="45.6326" lon="6.665">
        <ele>2054.47</ele>
        <time>2018-02-08T14:19:50Z</time>
      </trkpt>
      <trkpt lat="45.63234" lon="6.66494">
        <ele>2050.15</ele>
        <time>2018-02-08T14:20:00Z</time>
      </trkpt>
      <trkpt lat="45.63234" lon="6.66512">
        <ele>2048.23</ele>
        <time>2018-02-08T14:20:04Z</time>
      </trkpt>
      <trkpt lat="45.63238" lon="6.66522">
        <ele>2047.26</ele>
        <time>2018-02-08T14:20:06Z</time>
      </trkpt>
      <trkpt lat="45.6324" lon="6.66528">
        <ele>2046.3</ele>
        <time>2018-02-08T14:20:07Z</time>
      </trkpt>
      <trkpt lat="45.6324" lon="6.66533">
        <ele>2045.82</ele>
        <time>2018-02-08T14:20:08Z</time>
      </trkpt>
      <trkpt lat="45.63238" lon="6.66539">
        <ele>2045.34</ele>
        <time>2018-02-08T14:20:09Z</time>
      </trkpt>
      <trkpt lat="45.63234" lon="6.66542">
        <ele>2044.38</ele>
        <time>2018-02-08T14:20:10Z</time>
      </trkpt>
      <trkpt lat="45.6323" lon="6.66546">
        <ele>2043.42</ele>
        <time>2018-02-08T14:20:11Z</time>
      </trkpt>
      <trkpt lat="45.63228" lon="6.66553">
        <ele>2041.98</ele>
        <time>2018-02-08T14:20:12Z</time>
      </trkpt>
      <trkpt lat="45.63228" lon="6.66559">
        <ele>2040.54</ele>
        <time>2018-02-08T14:20:13Z</time>
      </trkpt>
      <trkpt lat="45.63228" lon="6.66567">
        <ele>2040.05</ele>
        <time>2018-02-08T14:20:14Z</time>
      </trkpt>
      <trkpt lat="45.63229" lon="6.66574">
        <ele>2040.05</ele>
        <time>2018-02-08T14:20:15Z</time>
      </trkpt>
      <trkpt lat="45.63231" lon="6.66599">
        <ele>2036.21</ele>
        <time>2018-02-08T14:20:18Z</time>
      </trkpt>
      <trkpt lat="45.63231" lon="6.66607">
        <ele>2036.21</ele>
        <time>2018-02-08T14:20:19Z</time>
      </trkpt>
      <trkpt lat="45.63231" lon="6.66616">
        <ele>2035.73</ele>
        <time>2018-02-08T14:20:20Z</time>
      </trkpt>
      <trkpt lat="45.63229" lon="6.66622">
        <ele>2034.77</ele>
        <time>2018-02-08T14:20:21Z</time>
      </trkpt>
      <trkpt lat="45.63224" lon="6.66627">
        <ele>2034.77</ele>
        <time>2018-02-08T14:20:22Z</time>
      </trkpt>
      <trkpt lat="45.63219" lon="6.66631">
        <ele>2035.73</ele>
        <time>2018-02-08T14:20:23Z</time>
      </trkpt>
      <trkpt lat="45.63215" lon="6.66634">
        <ele>2034.77</ele>
        <time>2018-02-08T14:20:24Z</time>
      </trkpt>
      <trkpt lat="45.6321" lon="6.66638">
        <ele>2034.77</ele>
        <time>2018-02-08T14:20:25Z</time>
      </trkpt>
      <trkpt lat="45.63207" lon="6.66643">
        <ele>2033.33</ele>
        <time>2018-02-08T14:20:26Z</time>
      </trkpt>
      <trkpt lat="45.63207" lon="6.66648">
        <ele>2032.84</ele>
        <time>2018-02-08T14:20:27Z</time>
      </trkpt>
      <trkpt lat="45.63198" lon="6.66684">
        <ele>2032.36</ele>
        <time>2018-02-08T14:20:39Z</time>
      </trkpt>
      <trkpt lat="45.63197" lon="6.66687">
        <ele>2032.84</ele>
        <time>2018-02-08T14:20:40Z</time>
      </trkpt>
      <trkpt lat="45.63194" lon="6.66697">
        <ele>2030.92</ele>
        <time>2018-02-08T14:20:43Z</time>
      </trkpt>
      <trkpt lat="45.63194" lon="6.66697">
        <ele>2029.96</ele>
        <time>2018-02-08T14:20:45Z</time>
      </trkpt>
      <trkpt lat="45.63197" lon="6.6671">
        <ele>2028.52</ele>
        <time>2018-02-08T14:20:51Z</time>
      </trkpt>
      <trkpt lat="45.63201" lon="6.66738">
        <ele>2022.75</ele>
        <time>2018-02-08T14:20:54Z</time>
      </trkpt>
      <trkpt lat="45.63202" lon="6.66759">
        <ele>2020.35</ele>
        <time>2018-02-08T14:20:56Z</time>
      </trkpt>
      <trkpt lat="45.63203" lon="6.66788">
        <ele>2019.87</ele>
        <time>2018-02-08T14:20:59Z</time>
      </trkpt>
      <trkpt lat="45.63204" lon="6.66795">
        <ele>2018.91</ele>
        <time>2018-02-08T14:21:00Z</time>
      </trkpt>
      <trkpt lat="45.63208" lon="6.66827">
        <ele>2017.46</ele>
        <time>2018-02-08T14:21:04Z</time>
      </trkpt>
      <trkpt lat="45.63209" lon="6.66844">
        <ele>2016.02</ele>
        <time>2018-02-08T14:21:06Z</time>
      </trkpt>
      <trkpt lat="45.63208" lon="6.66852">
        <ele>2014.58</ele>
        <time>2018-02-08T14:21:07Z</time>
      </trkpt>
      <trkpt lat="45.63205" lon="6.66858">
        <ele>2014.1</ele>
        <time>2018-02-08T14:21:08Z</time>
      </trkpt>
      <trkpt lat="45.632" lon="6.66862">
        <ele>2013.14</ele>
        <time>2018-02-08T14:21:09Z</time>
      </trkpt>
      <trkpt lat="45.63195" lon="6.66865">
        <ele>2013.62</ele>
        <time>2018-02-08T14:21:10Z</time>
      </trkpt>
      <trkpt lat="45.63186" lon="6.66873">
        <ele>2012.66</ele>
        <time>2018-02-08T14:21:12Z</time>
      </trkpt>
      <trkpt lat="45.63186" lon="6.66877">
        <ele>2012.18</ele>
        <time>2018-02-08T14:21:13Z</time>
      </trkpt>
      <trkpt lat="45.63188" lon="6.66882">
        <ele>2011.22</ele>
        <time>2018-02-08T14:21:14Z</time>
      </trkpt>
      <trkpt lat="45.63193" lon="6.66893">
        <ele>2010.73</ele>
        <time>2018-02-08T14:21:16Z</time>
      </trkpt>
      <trkpt lat="45.63209" lon="6.66915">
        <ele>2009.77</ele>
        <time>2018-02-08T14:21:25Z</time>
      </trkpt>
      <trkpt lat="45.63209" lon="6.66913">
        <ele>2008.81</ele>
        <time>2018-02-08T14:21:39Z</time>
      </trkpt>
      <trkpt lat="45.63206" lon="6.66914">
        <ele>2009.29</ele>
        <time>2018-02-08T14:22:00Z</time>
      </trkpt>
      <trkpt lat="45.63207" lon="6.66913">
        <ele>2008.33</ele>
        <time>2018-02-08T14:22:18Z</time>
      </trkpt>
      <trkpt lat="45.6321" lon="6.66912">
        <ele>2009.29</ele>
        <time>2018-02-08T14:22:34Z</time>
      </trkpt>
      <trkpt lat="45.6321" lon="6.66912">
        <ele>2009.77</ele>
        <time>2018-02-08T14:22:52Z</time>
      </trkpt>
    </trkseg>
  </trk>
  <trk>
    <name><![CDATA[LES PARS BALME]]></name>
    <trkseg>
      <trkpt lat="45.59175" lon="6.67094">
        <ele>1411.35</ele>
        <time>2018-02-06T07:47:42Z</time>
      </trkpt>
      <trkpt lat="45.59175" lon="6.67095">
        <ele>1411.35</ele>
        <time>2018-02-06T07:47:43Z</time>
      </trkpt>
      <trkpt lat="45.59177" lon="6.67092">
        <ele>1411.83</ele>
        <time>2018-02-06T07:48:01Z</time>
      </trkpt>
      <trkpt lat="45.59172" lon="6.67096">
        <ele>1411.35</ele>
        <time>2018-02-06T07:48:38Z</time>
      </trkpt>
      <trkpt lat="45.59176" lon="6.67094">
        <ele>1411.83</ele>
        <time>2018-02-06T07:49:11Z</time>
      </trkpt>
      <trkpt lat="45.59179" lon="6.67095">
        <ele>1413.28</ele>
        <time>2018-02-06T07:49:33Z</time>
      </trkpt>
      <trkpt lat="45.59179" lon="6.67095">
        <ele>1413.28</ele>
        <time>2018-02-06T07:49:48Z</time>
      </trkpt>
      <trkpt lat="45.59179" lon="6.67093">
        <ele>1413.28</ele>
        <time>2018-02-06T07:50:06Z</time>
      </trkpt>
      <trkpt lat="45.59177" lon="6.67093">
        <ele>1413.76</ele>
        <time>2018-02-06T07:50:24Z</time>
      </trkpt>
      <trkpt lat="45.59179" lon="6.67092">
        <ele>1413.76</ele>
        <time>2018-02-06T07:50:44Z</time>
      </trkpt>
      <trkpt lat="45.59179" lon="6.67092">
        <ele>1413.28</ele>
        <time>2018-02-06T07:51:00Z</time>
      </trkpt>
      <trkpt lat="45.59185" lon="6.67093">
        <ele>1413.28</ele>
        <time>2018-02-06T07:51:07Z</time>
      </trkpt>
      <trkpt lat="45.592" lon="6.67091">
        <ele>1414.24</ele>
        <time>2018-02-06T07:51:23Z</time>
      </trkpt>
      <trkpt lat="45.59212" lon="6.67085">
        <ele>1414.72</ele>
        <time>2018-02-06T07:51:39Z</time>
      </trkpt>
      <trkpt lat="45.59213" lon="6.67081">
        <ele>1414.72</ele>
        <time>2018-02-06T07:51:54Z</time>
      </trkpt>
      <trkpt lat="45.59214" lon="6.67081">
        <ele>1414.24</ele>
        <time>2018-02-06T07:52:20Z</time>
      </trkpt>
      <trkpt lat="45.59216" lon="6.6708">
        <ele>1413.76</ele>
        <time>2018-02-06T07:52:38Z</time>
      </trkpt>
      <trkpt lat="45.59216" lon="6.67078">
        <ele>1414.24</ele>
        <time>2018-02-06T07:52:55Z</time>
      </trkpt>
      <trkpt lat="45.59215" lon="6.67079">
        <ele>1414.72</ele>
        <time>2018-02-06T07:53:17Z</time>
      </trkpt>
      <trkpt lat="45.59216" lon="6.67078">
        <ele>1414.72</ele>
        <time>2018-02-06T07:53:30Z</time>
      </trkpt>
      <trkpt lat="45.59226" lon="6.67078">
        <ele>1414.72</ele>
        <time>2018-02-06T07:53:43Z</time>
      </trkpt>
      <trkpt lat="45.59239" lon="6.67078">
        <ele>1415.68</ele>
        <time>2018-02-06T07:53:57Z</time>
      </trkpt>
      <trkpt lat="45.59253" lon="6.67078">
        <ele>1414.72</ele>
        <time>2018-02-06T07:54:13Z</time>
      </trkpt>
      <trkpt lat="45.59262" lon="6.67075">
        <ele>1415.2</ele>
        <time>2018-02-06T07:54:26Z</time>
      </trkpt>
      <trkpt lat="45.59277" lon="6.67076">
        <ele>1415.68</ele>
        <time>2018-02-06T07:54:41Z</time>
      </trkpt>
      <trkpt lat="45.59292" lon="6.67074">
        <ele>1414.72</ele>
        <time>2018-02-06T07:54:58Z</time>
      </trkpt>
      <trkpt lat="45.59303" lon="6.67074">
        <ele>1415.68</ele>
        <time>2018-02-06T07:55:12Z</time>
      </trkpt>
      <trkpt lat="45.59316" lon="6.67073">
        <ele>1416.16</ele>
        <time>2018-02-06T07:55:26Z</time>
      </trkpt>
      <trkpt lat="45.59327" lon="6.67074">
        <ele>1416.64</ele>
        <time>2018-02-06T07:55:42Z</time>
      </trkpt>
      <trkpt lat="45.59335" lon="6.67078">
        <ele>1416.64</ele>
        <time>2018-02-06T07:55:53Z</time>
      </trkpt>
      <trkpt lat="45.59346" lon="6.67083">
        <ele>1416.64</ele>
        <time>2018-02-06T07:56:07Z</time>
      </trkpt>
      <trkpt lat="45.59347" lon="6.67083">
        <ele>1416.16</ele>
        <time>2018-02-06T07:56:08Z</time>
      </trkpt>
      <trkpt lat="45.59357" lon="6.67083">
        <ele>1416.16</ele>
        <time>2018-02-06T07:56:20Z</time>
      </trkpt>
      <trkpt lat="45.59368" lon="6.67081">
        <ele>1416.64</ele>
        <time>2018-02-06T07:56:32Z</time>
      </trkpt>
      <trkpt lat="45.5938" lon="6.67077">
        <ele>1416.64</ele>
        <time>2018-02-06T07:56:45Z</time>
      </trkpt>
      <trkpt lat="45.59391" lon="6.67074">
        <ele>1417.12</ele>
        <time>2018-02-06T07:56:57Z</time>
      </trkpt>
      <trkpt lat="45.59403" lon="6.67066">
        <ele>1418.08</ele>
        <time>2018-02-06T07:57:13Z</time>
      </trkpt>
      <trkpt lat="45.59414" lon="6.67056">
        <ele>1419.04</ele>
        <time>2018-02-06T07:57:30Z</time>
      </trkpt>
      <trkpt lat="45.59425" lon="6.67047">
        <ele>1420</ele>
        <time>2018-02-06T07:57:46Z</time>
      </trkpt>
      <trkpt lat="45.59437" lon="6.6704">
        <ele>1420.49</ele>
        <time>2018-02-06T07:58:02Z</time>
      </trkpt>
      <trkpt lat="45.59448" lon="6.67038">
        <ele>1421.45</ele>
        <time>2018-02-06T07:58:18Z</time>
      </trkpt>
      <trkpt lat="45.59458" lon="6.67033">
        <ele>1422.89</ele>
        <time>2018-02-06T07:58:33Z</time>
      </trkpt>
      <trkpt lat="45.59467" lon="6.67028">
        <ele>1423.85</ele>
        <time>2018-02-06T07:58:47Z</time>
      </trkpt>
      <trkpt lat="45.59477" lon="6.67019">
        <ele>1423.85</ele>
        <time>2018-02-06T07:59:03Z</time>
      </trkpt>
      <trkpt lat="45.59488" lon="6.6701">
        <ele>1424.81</ele>
        <time>2018-02-06T07:59:20Z</time>
      </trkpt>
      <trkpt lat="45.59499" lon="6.67003">
        <ele>1425.29</ele>
        <time>2018-02-06T07:59:37Z</time>
      </trkpt>
      <trkpt lat="45.59507" lon="6.66997">
        <ele>1425.77</ele>
        <time>2018-02-06T07:59:50Z</time>
      </trkpt>
      <trkpt lat="45.59518" lon="6.66994">
        <ele>1426.25</ele>
        <time>2018-02-06T08:00:06Z</time>
      </trkpt>
      <trkpt lat="45.59527" lon="6.66994">
        <ele>1427.21</ele>
        <time>2018-02-06T08:00:19Z</time>
      </trkpt>
      <trkpt lat="45.59539" lon="6.66995">
        <ele>1427.7</ele>
        <time>2018-02-06T08:00:35Z</time>
      </trkpt>
      <trkpt lat="45.59549" lon="6.66994">
        <ele>1428.66</ele>
        <time>2018-02-06T08:00:49Z</time>
      </trkpt>
      <trkpt lat="45.5956" lon="6.66997">
        <ele>1429.62</ele>
        <time>2018-02-06T08:01:06Z</time>
      </trkpt>
      <trkpt lat="45.5957" lon="6.66996">
        <ele>1430.1</ele>
        <time>2018-02-06T08:01:20Z</time>
      </trkpt>
      <trkpt lat="45.59581" lon="6.66996">
        <ele>1431.54</ele>
        <time>2018-02-06T08:01:35Z</time>
      </trkpt>
      <trkpt lat="45.59592" lon="6.66998">
        <ele>1432.5</ele>
        <time>2018-02-06T08:01:50Z</time>
      </trkpt>
      <trkpt lat="45.59602" lon="6.67003">
        <ele>1432.98</ele>
        <time>2018-02-06T08:02:05Z</time>
      </trkpt>
      <trkpt lat="45.59613" lon="6.67009">
        <ele>1433.46</ele>
        <time>2018-02-06T08:02:21Z</time>
      </trkpt>
      <trkpt lat="45.59616" lon="6.6701">
        <ele>1434.42</ele>
        <time>2018-02-06T08:02:26Z</time>
      </trkpt>
      <trkpt lat="45.59624" lon="6.67013">
        <ele>1434.91</ele>
        <time>2018-02-06T08:02:38Z</time>
      </trkpt>
      <trkpt lat="45.59635" lon="6.67012">
        <ele>1435.87</ele>
        <time>2018-02-06T08:02:54Z</time>
      </trkpt>
      <trkpt lat="45.59642" lon="6.67">
        <ele>1436.83</ele>
        <time>2018-02-06T08:03:08Z</time>
      </trkpt>
      <trkpt lat="45.59642" lon="6.66986">
        <ele>1438.27</ele>
        <time>2018-02-06T08:03:21Z</time>
      </trkpt>
      <trkpt lat="45.59639" lon="6.66972">
        <ele>1438.75</ele>
        <time>2018-02-06T08:03:36Z</time>
      </trkpt>
      <trkpt lat="45.59634" lon="6.66959">
        <ele>1440.19</ele>
        <time>2018-02-06T08:03:50Z</time>
      </trkpt>
      <trkpt lat="45.59633" lon="6.66942">
        <ele>1441.15</ele>
        <time>2018-02-06T08:04:05Z</time>
      </trkpt>
      <trkpt lat="45.59634" lon="6.66925">
        <ele>1442.6</ele>
        <time>2018-02-06T08:04:20Z</time>
      </trkpt>
      <trkpt lat="45.59636" lon="6.6691">
        <ele>1444.52</ele>
        <time>2018-02-06T08:04:35Z</time>
      </trkpt>
      <trkpt lat="45.59636" lon="6.66892">
        <ele>1444.52</ele>
        <time>2018-02-06T08:04:51Z</time>
      </trkpt>
      <trkpt lat="45.59638" lon="6.66874">
        <ele>1445.96</ele>
        <time>2018-02-06T08:05:08Z</time>
      </trkpt>
      <trkpt lat="45.59638" lon="6.66859">
        <ele>1447.88</ele>
        <time>2018-02-06T08:05:22Z</time>
      </trkpt>
      <trkpt lat="45.59638" lon="6.66842">
        <ele>1448.84</ele>
        <time>2018-02-06T08:05:38Z</time>
      </trkpt>
      <trkpt lat="45.59632" lon="6.66832">
        <ele>1449.81</ele>
        <time>2018-02-06T08:05:51Z</time>
      </trkpt>
      <trkpt lat="45.59623" lon="6.66821">
        <ele>1451.25</ele>
        <time>2018-02-06T08:06:06Z</time>
      </trkpt>
      <trkpt lat="45.59615" lon="6.6681">
        <ele>1451.73</ele>
        <time>2018-02-06T08:06:20Z</time>
      </trkpt>
      <trkpt lat="45.59604" lon="6.66797">
        <ele>1453.65</ele>
        <time>2018-02-06T08:06:39Z</time>
      </trkpt>
      <trkpt lat="45.59597" lon="6.66783">
        <ele>1454.61</ele>
        <time>2018-02-06T08:06:54Z</time>
      </trkpt>
      <trkpt lat="45.59603" lon="6.66775">
        <ele>1456.53</ele>
        <time>2018-02-06T08:07:07Z</time>
      </trkpt>
      <trkpt lat="45.59612" lon="6.66775">
        <ele>1457.5</ele>
        <time>2018-02-06T08:07:20Z</time>
      </trkpt>
      <trkpt lat="45.59624" lon="6.66774">
        <ele>1458.94</ele>
        <time>2018-02-06T08:07:37Z</time>
      </trkpt>
      <trkpt lat="45.59638" lon="6.66772">
        <ele>1460.86</ele>
        <time>2018-02-06T08:07:55Z</time>
      </trkpt>
      <trkpt lat="45.5965" lon="6.66771">
        <ele>1461.82</ele>
        <time>2018-02-06T08:08:11Z</time>
      </trkpt>
      <trkpt lat="45.59662" lon="6.6677">
        <ele>1463.74</ele>
        <time>2018-02-06T08:08:27Z</time>
      </trkpt>
      <trkpt lat="45.59673" lon="6.66771">
        <ele>1464.23</ele>
        <time>2018-02-06T08:08:41Z</time>
      </trkpt>
      <trkpt lat="45.59682" lon="6.66779">
        <ele>1465.67</ele>
        <time>2018-02-06T08:08:54Z</time>
      </trkpt>
      <trkpt lat="45.59692" lon="6.66786">
        <ele>1466.63</ele>
        <time>2018-02-06T08:09:09Z</time>
      </trkpt>
      <trkpt lat="45.59702" lon="6.66794">
        <ele>1467.59</ele>
        <time>2018-02-06T08:09:22Z</time>
      </trkpt>
      <trkpt lat="45.59706" lon="6.66798">
        <ele>1468.55</ele>
        <time>2018-02-06T08:09:28Z</time>
      </trkpt>
      <trkpt lat="45.59717" lon="6.66806">
        <ele>1469.51</ele>
        <time>2018-02-06T08:09:44Z</time>
      </trkpt>
      <trkpt lat="45.59724" lon="6.66815">
        <ele>1470.47</ele>
        <time>2018-02-06T08:09:56Z</time>
      </trkpt>
      <trkpt lat="45.5973" lon="6.66828">
        <ele>1471.92</ele>
        <time>2018-02-06T08:10:11Z</time>
      </trkpt>
      <trkpt lat="45.59733" lon="6.66833">
        <ele>1472.88</ele>
        <time>2018-02-06T08:10:17Z</time>
      </trkpt>
      <trkpt lat="45.59733" lon="6.66853">
        <ele>1473.36</ele>
        <time>2018-02-06T08:10:34Z</time>
      </trkpt>
      <trkpt lat="45.59734" lon="6.66874">
        <ele>1475.28</ele>
        <time>2018-02-06T08:10:52Z</time>
      </trkpt>
      <trkpt lat="45.59735" lon="6.66892">
        <ele>1476.24</ele>
        <time>2018-02-06T08:11:06Z</time>
      </trkpt>
      <trkpt lat="45.59735" lon="6.66905">
        <ele>1477.68</ele>
        <time>2018-02-06T08:11:19Z</time>
      </trkpt>
      <trkpt lat="45.59737" lon="6.66921">
        <ele>1478.65</ele>
        <time>2018-02-06T08:11:35Z</time>
      </trkpt>
      <trkpt lat="45.59742" lon="6.66935">
        <ele>1480.09</ele>
        <time>2018-02-06T08:11:50Z</time>
      </trkpt>
      <trkpt lat="45.59744" lon="6.66938">
        <ele>1480.09</ele>
        <time>2018-02-06T08:11:53Z</time>
      </trkpt>
      <trkpt lat="45.59754" lon="6.66949">
        <ele>1481.53</ele>
        <time>2018-02-06T08:12:11Z</time>
      </trkpt>
      <trkpt lat="45.59766" lon="6.6695">
        <ele>1482.97</ele>
        <time>2018-02-06T08:12:27Z</time>
      </trkpt>
      <trkpt lat="45.59777" lon="6.66953">
        <ele>1484.89</ele>
        <time>2018-02-06T08:12:42Z</time>
      </trkpt>
      <trkpt lat="45.59782" lon="6.66952">
        <ele>1484.89</ele>
        <time>2018-02-06T08:12:48Z</time>
      </trkpt>
      <trkpt lat="45.59794" lon="6.6695">
        <ele>1486.34</ele>
        <time>2018-02-06T08:13:04Z</time>
      </trkpt>
      <trkpt lat="45.59807" lon="6.66949">
        <ele>1487.3</ele>
        <time>2018-02-06T08:13:20Z</time>
      </trkpt>
      <trkpt lat="45.59815" lon="6.66947">
        <ele>1487.78</ele>
        <time>2018-02-06T08:13:30Z</time>
      </trkpt>
      <trkpt lat="45.59828" lon="6.66946">
        <ele>1489.22</ele>
        <time>2018-02-06T08:13:46Z</time>
      </trkpt>
      <trkpt lat="45.5984" lon="6.66944">
        <ele>1490.66</ele>
        <time>2018-02-06T08:14:01Z</time>
      </trkpt>
      <trkpt lat="45.59855" lon="6.66942">
        <ele>1492.58</ele>
        <time>2018-02-06T08:14:19Z</time>
      </trkpt>
      <trkpt lat="45.59867" lon="6.66945">
        <ele>1493.55</ele>
        <time>2018-02-06T08:14:36Z</time>
      </trkpt>
      <trkpt lat="45.59879" lon="6.66952">
        <ele>1495.47</ele>
        <time>2018-02-06T08:14:51Z</time>
      </trkpt>
      <trkpt lat="45.59888" lon="6.66964">
        <ele>1496.43</ele>
        <time>2018-02-06T08:15:06Z</time>
      </trkpt>
      <trkpt lat="45.59889" lon="6.66966">
        <ele>1496.43</ele>
        <time>2018-02-06T08:15:09Z</time>
      </trkpt>
      <trkpt lat="45.59899" lon="6.66976">
        <ele>1496.91</ele>
        <time>2018-02-06T08:15:23Z</time>
      </trkpt>
      <trkpt lat="45.59904" lon="6.66985">
        <ele>1497.87</ele>
        <time>2018-02-06T08:15:34Z</time>
      </trkpt>
      <trkpt lat="45.59914" lon="6.66997">
        <ele>1499.31</ele>
        <time>2018-02-06T08:15:50Z</time>
      </trkpt>
      <trkpt lat="45.59926" lon="6.67005">
        <ele>1500.76</ele>
        <time>2018-02-06T08:16:06Z</time>
      </trkpt>
      <trkpt lat="45.59937" lon="6.67012">
        <ele>1502.2</ele>
        <time>2018-02-06T08:16:20Z</time>
      </trkpt>
      <trkpt lat="45.5994" lon="6.67014">
        <ele>1503.16</ele>
        <time>2018-02-06T08:16:26Z</time>
      </trkpt>
      <trkpt lat="45.59951" lon="6.67017">
        <ele>1504.6</ele>
        <time>2018-02-06T08:16:41Z</time>
      </trkpt>
      <trkpt lat="45.5996" lon="6.67019">
        <ele>1505.56</ele>
        <time>2018-02-06T08:16:55Z</time>
      </trkpt>
      <trkpt lat="45.59972" lon="6.67019">
        <ele>1507</ele>
        <time>2018-02-06T08:17:10Z</time>
      </trkpt>
      <trkpt lat="45.59976" lon="6.6702">
        <ele>1507.48</ele>
        <time>2018-02-06T08:17:16Z</time>
      </trkpt>
      <trkpt lat="45.59988" lon="6.6702">
        <ele>1508.93</ele>
        <time>2018-02-06T08:17:32Z</time>
      </trkpt>
      <trkpt lat="45.59999" lon="6.67022">
        <ele>1509.89</ele>
        <time>2018-02-06T08:17:46Z</time>
      </trkpt>
      <trkpt lat="45.6001" lon="6.67026">
        <ele>1511.33</ele>
        <time>2018-02-06T08:17:58Z</time>
      </trkpt>
      <trkpt lat="45.60023" lon="6.67032">
        <ele>1512.77</ele>
        <time>2018-02-06T08:18:13Z</time>
      </trkpt>
      <trkpt lat="45.60025" lon="6.67033">
        <ele>1513.25</ele>
        <time>2018-02-06T08:18:16Z</time>
      </trkpt>
      <trkpt lat="45.60035" lon="6.67042">
        <ele>1514.69</ele>
        <time>2018-02-06T08:18:30Z</time>
      </trkpt>
      <trkpt lat="45.60042" lon="6.67054">
        <ele>1515.18</ele>
        <time>2018-02-06T08:18:44Z</time>
      </trkpt>
      <trkpt lat="45.60049" lon="6.67062">
        <ele>1516.14</ele>
        <time>2018-02-06T08:18:54Z</time>
      </trkpt>
      <trkpt lat="45.6005" lon="6.67064">
        <ele>1516.62</ele>
        <time>2018-02-06T08:18:56Z</time>
      </trkpt>
      <trkpt lat="45.60055" lon="6.67078">
        <ele>1517.58</ele>
        <time>2018-02-06T08:19:11Z</time>
      </trkpt>
      <trkpt lat="45.60055" lon="6.67094">
        <ele>1518.54</ele>
        <time>2018-02-06T08:19:24Z</time>
      </trkpt>
      <trkpt lat="45.60058" lon="6.67112">
        <ele>1519.98</ele>
        <time>2018-02-06T08:19:39Z</time>
      </trkpt>
      <trkpt lat="45.6006" lon="6.67123">
        <ele>1520.46</ele>
        <time>2018-02-06T08:19:48Z</time>
      </trkpt>
      <trkpt lat="45.60065" lon="6.67133">
        <ele>1521.9</ele>
        <time>2018-02-06T08:20:00Z</time>
      </trkpt>
      <trkpt lat="45.60068" lon="6.67137">
        <ele>1522.39</ele>
        <time>2018-02-06T08:20:12Z</time>
      </trkpt>
      <trkpt lat="45.60071" lon="6.67138">
        <ele>1522.87</ele>
        <time>2018-02-06T08:20:23Z</time>
      </trkpt>
      <trkpt lat="45.60078" lon="6.67124">
        <ele>1525.27</ele>
        <time>2018-02-06T08:20:40Z</time>
      </trkpt>
      <trkpt lat="45.60083" lon="6.67112">
        <ele>1527.19</ele>
        <time>2018-02-06T08:20:55Z</time>
      </trkpt>
      <trkpt lat="45.60091" lon="6.67116">
        <ele>1529.11</ele>
        <time>2018-02-06T08:21:12Z</time>
      </trkpt>
      <trkpt lat="45.60097" lon="6.67127">
        <ele>1532</ele>
        <time>2018-02-06T08:21:27Z</time>
      </trkpt>
      <trkpt lat="45.60102" lon="6.67136">
        <ele>1533.92</ele>
        <time>2018-02-06T08:21:44Z</time>
      </trkpt>
      <trkpt lat="45.60112" lon="6.67125">
        <ele>1535.84</ele>
        <time>2018-02-06T08:22:01Z</time>
      </trkpt>
      <trkpt lat="45.6012" lon="6.67123">
        <ele>1537.77</ele>
        <time>2018-02-06T08:22:15Z</time>
      </trkpt>
      <trkpt lat="45.60127" lon="6.67134">
        <ele>1539.69</ele>
        <time>2018-02-06T08:22:32Z</time>
      </trkpt>
      <trkpt lat="45.60136" lon="6.67144">
        <ele>1541.61</ele>
        <time>2018-02-06T08:22:48Z</time>
      </trkpt>
      <trkpt lat="45.60144" lon="6.67132">
        <ele>1544.01</ele>
        <time>2018-02-06T08:23:04Z</time>
      </trkpt>
      <trkpt lat="45.60153" lon="6.67123">
        <ele>1546.42</ele>
        <time>2018-02-06T08:23:21Z</time>
      </trkpt>
      <trkpt lat="45.60161" lon="6.67119">
        <ele>1548.34</ele>
        <time>2018-02-06T08:23:35Z</time>
      </trkpt>
      <trkpt lat="45.60169" lon="6.67124">
        <ele>1550.26</ele>
        <time>2018-02-06T08:23:50Z</time>
      </trkpt>
      <trkpt lat="45.60177" lon="6.67126">
        <ele>1552.19</ele>
        <time>2018-02-06T08:24:04Z</time>
      </trkpt>
      <trkpt lat="45.60182" lon="6.67134">
        <ele>1554.59</ele>
        <time>2018-02-06T08:24:19Z</time>
      </trkpt>
      <trkpt lat="45.6019" lon="6.67126">
        <ele>1555.55</ele>
        <time>2018-02-06T08:24:32Z</time>
      </trkpt>
      <trkpt lat="45.60196" lon="6.67129">
        <ele>1557.95</ele>
        <time>2018-02-06T08:24:45Z</time>
      </trkpt>
      <trkpt lat="45.60203" lon="6.67126">
        <ele>1559.4</ele>
        <time>2018-02-06T08:24:58Z</time>
      </trkpt>
      <trkpt lat="45.60208" lon="6.67131">
        <ele>1560.84</ele>
        <time>2018-02-06T08:25:10Z</time>
      </trkpt>
      <trkpt lat="45.60215" lon="6.67132">
        <ele>1562.76</ele>
        <time>2018-02-06T08:25:23Z</time>
      </trkpt>
      <trkpt lat="45.60223" lon="6.67124">
        <ele>1564.68</ele>
        <time>2018-02-06T08:25:38Z</time>
      </trkpt>
      <trkpt lat="45.60229" lon="6.67121">
        <ele>1567.09</ele>
        <time>2018-02-06T08:25:52Z</time>
      </trkpt>
      <trkpt lat="45.60234" lon="6.67121">
        <ele>1569.01</ele>
        <time>2018-02-06T08:26:04Z</time>
      </trkpt>
      <trkpt lat="45.6024" lon="6.6713">
        <ele>1571.41</ele>
        <time>2018-02-06T08:26:19Z</time>
      </trkpt>
      <trkpt lat="45.60248" lon="6.67141">
        <ele>1572.85</ele>
        <time>2018-02-06T08:26:37Z</time>
      </trkpt>
      <trkpt lat="45.60256" lon="6.67138">
        <ele>1575.74</ele>
        <time>2018-02-06T08:26:53Z</time>
      </trkpt>
      <trkpt lat="45.60257" lon="6.67151">
        <ele>1577.18</ele>
        <time>2018-02-06T08:27:06Z</time>
      </trkpt>
      <trkpt lat="45.60259" lon="6.67165">
        <ele>1578.62</ele>
        <time>2018-02-06T08:27:21Z</time>
      </trkpt>
      <trkpt lat="45.6026" lon="6.67166">
        <ele>1579.1</ele>
        <time>2018-02-06T08:27:23Z</time>
      </trkpt>
      <trkpt lat="45.60264" lon="6.67178">
        <ele>1579.58</ele>
        <time>2018-02-06T08:27:33Z</time>
      </trkpt>
      <trkpt lat="45.60273" lon="6.67191">
        <ele>1581.03</ele>
        <time>2018-02-06T08:27:49Z</time>
      </trkpt>
      <trkpt lat="45.60283" lon="6.67208">
        <ele>1581.99</ele>
        <time>2018-02-06T08:28:05Z</time>
      </trkpt>
      <trkpt lat="45.60295" lon="6.67219">
        <ele>1582.95</ele>
        <time>2018-02-06T08:28:22Z</time>
      </trkpt>
      <trkpt lat="45.60306" lon="6.67229">
        <ele>1584.39</ele>
        <time>2018-02-06T08:28:38Z</time>
      </trkpt>
      <trkpt lat="45.60319" lon="6.67237">
        <ele>1586.31</ele>
        <time>2018-02-06T08:28:54Z</time>
      </trkpt>
      <trkpt lat="45.6033" lon="6.67245">
        <ele>1587.27</ele>
        <time>2018-02-06T08:29:09Z</time>
      </trkpt>
      <trkpt lat="45.60342" lon="6.67253">
        <ele>1588.72</ele>
        <time>2018-02-06T08:29:24Z</time>
      </trkpt>
      <trkpt lat="45.60355" lon="6.67259">
        <ele>1589.2</ele>
        <time>2018-02-06T08:29:39Z</time>
      </trkpt>
      <trkpt lat="45.60369" lon="6.67261">
        <ele>1589.2</ele>
        <time>2018-02-06T08:29:54Z</time>
      </trkpt>
      <trkpt lat="45.60379" lon="6.67268">
        <ele>1591.12</ele>
        <time>2018-02-06T08:30:08Z</time>
      </trkpt>
      <trkpt lat="45.60392" lon="6.67274">
        <ele>1593.04</ele>
        <time>2018-02-06T08:30:24Z</time>
      </trkpt>
      <trkpt lat="45.60406" lon="6.67277">
        <ele>1594.48</ele>
        <time>2018-02-06T08:30:40Z</time>
      </trkpt>
      <trkpt lat="45.60417" lon="6.67277">
        <ele>1596.41</ele>
        <time>2018-02-06T08:30:52Z</time>
      </trkpt>
      <trkpt lat="45.60428" lon="6.6728">
        <ele>1596.41</ele>
        <time>2018-02-06T08:31:06Z</time>
      </trkpt>
      <trkpt lat="45.60441" lon="6.6728">
        <ele>1597.85</ele>
        <time>2018-02-06T08:31:22Z</time>
      </trkpt>
      <trkpt lat="45.60449" lon="6.67282">
        <ele>1598.33</ele>
        <time>2018-02-06T08:31:36Z</time>
      </trkpt>
      <trkpt lat="45.6046" lon="6.67288">
        <ele>1597.85</ele>
        <time>2018-02-06T08:31:50Z</time>
      </trkpt>
      <trkpt lat="45.60472" lon="6.67295">
        <ele>1599.29</ele>
        <time>2018-02-06T08:32:05Z</time>
      </trkpt>
      <trkpt lat="45.60478" lon="6.67299">
        <ele>1600.73</ele>
        <time>2018-02-06T08:32:12Z</time>
      </trkpt>
      <trkpt lat="45.60489" lon="6.6731">
        <ele>1602.17</ele>
        <time>2018-02-06T08:32:28Z</time>
      </trkpt>
      <trkpt lat="45.605" lon="6.67323">
        <ele>1603.62</ele>
        <time>2018-02-06T08:32:45Z</time>
      </trkpt>
      <trkpt lat="45.6051" lon="6.67333">
        <ele>1605.06</ele>
        <time>2018-02-06T08:33:00Z</time>
      </trkpt>
      <trkpt lat="45.60519" lon="6.67341">
        <ele>1606.5</ele>
        <time>2018-02-06T08:33:13Z</time>
      </trkpt>
      <trkpt lat="45.60528" lon="6.67349">
        <ele>1606.98</ele>
        <time>2018-02-06T08:33:27Z</time>
      </trkpt>
      <trkpt lat="45.60539" lon="6.67358">
        <ele>1607.94</ele>
        <time>2018-02-06T08:33:42Z</time>
      </trkpt>
      <trkpt lat="45.6055" lon="6.6737">
        <ele>1609.86</ele>
        <time>2018-02-06T08:33:57Z</time>
      </trkpt>
      <trkpt lat="45.60559" lon="6.67378">
        <ele>1610.35</ele>
        <time>2018-02-06T08:34:10Z</time>
      </trkpt>
      <trkpt lat="45.6057" lon="6.67386">
        <ele>1611.31</ele>
        <time>2018-02-06T08:34:24Z</time>
      </trkpt>
      <trkpt lat="45.60572" lon="6.67386">
        <ele>1611.79</ele>
        <time>2018-02-06T08:34:35Z</time>
      </trkpt>
      <trkpt lat="45.60571" lon="6.67384">
        <ele>1610.83</ele>
        <time>2018-02-06T08:34:46Z</time>
      </trkpt>
      <trkpt lat="45.60576" lon="6.67387">
        <ele>1611.79</ele>
        <time>2018-02-06T08:35:04Z</time>
      </trkpt>
      <trkpt lat="45.60584" lon="6.6739">
        <ele>1612.75</ele>
        <time>2018-02-06T08:35:18Z</time>
      </trkpt>
      <trkpt lat="45.60596" lon="6.67393">
        <ele>1613.23</ele>
        <time>2018-02-06T08:35:32Z</time>
      </trkpt>
      <trkpt lat="45.60608" lon="6.67396">
        <ele>1616.11</ele>
        <time>2018-02-06T08:35:47Z</time>
      </trkpt>
      <trkpt lat="45.60618" lon="6.67392">
        <ele>1616.59</ele>
        <time>2018-02-06T08:36:01Z</time>
      </trkpt>
      <trkpt lat="45.60622" lon="6.6739">
        <ele>1618.04</ele>
        <time>2018-02-06T08:36:07Z</time>
      </trkpt>
      <trkpt lat="45.60634" lon="6.67386">
        <ele>1617.56</ele>
        <time>2018-02-06T08:36:22Z</time>
      </trkpt>
      <trkpt lat="45.60643" lon="6.67385">
        <ele>1617.56</ele>
        <time>2018-02-06T08:36:36Z</time>
      </trkpt>
      <trkpt lat="45.60654" lon="6.67387">
        <ele>1619</ele>
        <time>2018-02-06T08:36:50Z</time>
      </trkpt>
      <trkpt lat="45.60663" lon="6.67393">
        <ele>1618.04</ele>
        <time>2018-02-06T08:37:03Z</time>
      </trkpt>
      <trkpt lat="45.6067" lon="6.67397">
        <ele>1619.96</ele>
        <time>2018-02-06T08:37:15Z</time>
      </trkpt>
      <trkpt lat="45.60681" lon="6.67408">
        <ele>1620.44</ele>
        <time>2018-02-06T08:37:28Z</time>
      </trkpt>
      <trkpt lat="45.6069" lon="6.67419">
        <ele>1622.36</ele>
        <time>2018-02-06T08:37:44Z</time>
      </trkpt>
      <trkpt lat="45.60695" lon="6.67426">
        <ele>1622.36</ele>
        <time>2018-02-06T08:37:53Z</time>
      </trkpt>
      <trkpt lat="45.60705" lon="6.67439">
        <ele>1623.32</ele>
        <time>2018-02-06T08:38:10Z</time>
      </trkpt>
      <trkpt lat="45.60715" lon="6.67447">
        <ele>1624.77</ele>
        <time>2018-02-06T08:38:26Z</time>
      </trkpt>
      <trkpt lat="45.60725" lon="6.6746">
        <ele>1625.73</ele>
        <time>2018-02-06T08:38:41Z</time>
      </trkpt>
      <trkpt lat="45.60735" lon="6.67471">
        <ele>1627.17</ele>
        <time>2018-02-06T08:38:56Z</time>
      </trkpt>
      <trkpt lat="45.6074" lon="6.67474">
        <ele>1628.13</ele>
        <time>2018-02-06T08:39:07Z</time>
      </trkpt>
      <trkpt lat="45.6075" lon="6.67478">
        <ele>1629.57</ele>
        <time>2018-02-06T08:39:22Z</time>
      </trkpt>
      <trkpt lat="45.6076" lon="6.67483">
        <ele>1630.05</ele>
        <time>2018-02-06T08:39:35Z</time>
      </trkpt>
      <trkpt lat="45.60772" lon="6.6749">
        <ele>1631.01</ele>
        <time>2018-02-06T08:39:51Z</time>
      </trkpt>
      <trkpt lat="45.60774" lon="6.67491">
        <ele>1631.01</ele>
        <time>2018-02-06T08:39:53Z</time>
      </trkpt>
      <trkpt lat="45.60779" lon="6.67494">
        <ele>1629.57</ele>
        <time>2018-02-06T08:40:00Z</time>
      </trkpt>
      <trkpt lat="45.60781" lon="6.67494">
        <ele>1630.53</ele>
        <time>2018-02-06T08:40:02Z</time>
      </trkpt>
      <trkpt lat="45.60797" lon="6.67499">
        <ele>1631.01</ele>
        <time>2018-02-06T08:40:18Z</time>
      </trkpt>
      <trkpt lat="45.608" lon="6.67499">
        <ele>1632.46</ele>
        <time>2018-02-06T08:40:21Z</time>
      </trkpt>
      <trkpt lat="45.60814" lon="6.67503">
        <ele>1631.98</ele>
        <time>2018-02-06T08:40:38Z</time>
      </trkpt>
      <trkpt lat="45.60829" lon="6.67507">
        <ele>1632.94</ele>
        <time>2018-02-06T08:40:54Z</time>
      </trkpt>
      <trkpt lat="45.60838" lon="6.67512">
        <ele>1632.94</ele>
        <time>2018-02-06T08:41:03Z</time>
      </trkpt>
      <trkpt lat="45.60849" lon="6.67519">
        <ele>1633.9</ele>
        <time>2018-02-06T08:41:17Z</time>
      </trkpt>
      <trkpt lat="45.60853" lon="6.67521">
        <ele>1633.42</ele>
        <time>2018-02-06T08:41:21Z</time>
      </trkpt>
      <trkpt lat="45.60865" lon="6.67527">
        <ele>1632.94</ele>
        <time>2018-02-06T08:41:35Z</time>
      </trkpt>
      <trkpt lat="45.60878" lon="6.67535">
        <ele>1633.9</ele>
        <time>2018-02-06T08:41:49Z</time>
      </trkpt>
      <trkpt lat="45.60889" lon="6.67541">
        <ele>1634.86</ele>
        <time>2018-02-06T08:42:02Z</time>
      </trkpt>
      <trkpt lat="45.60901" lon="6.67546">
        <ele>1635.34</ele>
        <time>2018-02-06T08:42:15Z</time>
      </trkpt>
      <trkpt lat="45.60906" lon="6.67549">
        <ele>1634.38</ele>
        <time>2018-02-06T08:42:21Z</time>
      </trkpt>
      <trkpt lat="45.60918" lon="6.67557">
        <ele>1634.38</ele>
        <time>2018-02-06T08:42:35Z</time>
      </trkpt>
      <trkpt lat="45.6093" lon="6.67564">
        <ele>1635.82</ele>
        <time>2018-02-06T08:42:51Z</time>
      </trkpt>
      <trkpt lat="45.60942" lon="6.67573">
        <ele>1635.34</ele>
        <time>2018-02-06T08:43:05Z</time>
      </trkpt>
      <trkpt lat="45.60943" lon="6.67574">
        <ele>1635.34</ele>
        <time>2018-02-06T08:43:06Z</time>
      </trkpt>
      <trkpt lat="45.60951" lon="6.67579">
        <ele>1634.38</ele>
        <time>2018-02-06T08:43:15Z</time>
      </trkpt>
      <trkpt lat="45.60963" lon="6.67589">
        <ele>1633.9</ele>
        <time>2018-02-06T08:43:31Z</time>
      </trkpt>
      <trkpt lat="45.60974" lon="6.67601">
        <ele>1633.9</ele>
        <time>2018-02-06T08:43:45Z</time>
      </trkpt>
      <trkpt lat="45.60986" lon="6.67617">
        <ele>1634.38</ele>
        <time>2018-02-06T08:44:01Z</time>
      </trkpt>
      <trkpt lat="45.60993" lon="6.67628">
        <ele>1634.38</ele>
        <time>2018-02-06T08:44:14Z</time>
      </trkpt>
      <trkpt lat="45.61003" lon="6.6764">
        <ele>1635.82</ele>
        <time>2018-02-06T08:44:31Z</time>
      </trkpt>
      <trkpt lat="45.61009" lon="6.67647">
        <ele>1636.78</ele>
        <time>2018-02-06T08:44:39Z</time>
      </trkpt>
      <trkpt lat="45.61018" lon="6.67652">
        <ele>1638.7</ele>
        <time>2018-02-06T08:44:52Z</time>
      </trkpt>
      <trkpt lat="45.61027" lon="6.67657">
        <ele>1639.67</ele>
        <time>2018-02-06T08:45:06Z</time>
      </trkpt>
      <trkpt lat="45.61031" lon="6.67661">
        <ele>1640.63</ele>
        <time>2018-02-06T08:45:11Z</time>
      </trkpt>
      <trkpt lat="45.61037" lon="6.67664">
        <ele>1638.7</ele>
        <time>2018-02-06T08:45:18Z</time>
      </trkpt>
      <trkpt lat="45.61037" lon="6.67664">
        <ele>1639.19</ele>
        <time>2018-02-06T08:45:19Z</time>
      </trkpt>
      <trkpt lat="45.61049" lon="6.67668">
        <ele>1641.11</ele>
        <time>2018-02-06T08:45:32Z</time>
      </trkpt>
      <trkpt lat="45.61061" lon="6.67671">
        <ele>1640.63</ele>
        <time>2018-02-06T08:45:47Z</time>
      </trkpt>
      <trkpt lat="45.61074" lon="6.67673">
        <ele>1640.63</ele>
        <time>2018-02-06T08:46:03Z</time>
      </trkpt>
      <trkpt lat="45.61086" lon="6.67671">
        <ele>1642.07</ele>
        <time>2018-02-06T08:46:18Z</time>
      </trkpt>
      <trkpt lat="45.61098" lon="6.67671">
        <ele>1642.55</ele>
        <time>2018-02-06T08:46:33Z</time>
      </trkpt>
      <trkpt lat="45.61109" lon="6.67677">
        <ele>1644.47</ele>
        <time>2018-02-06T08:46:47Z</time>
      </trkpt>
      <trkpt lat="45.61116" lon="6.67676">
        <ele>1647.36</ele>
        <time>2018-02-06T08:46:58Z</time>
      </trkpt>
      <trkpt lat="45.61117" lon="6.67675">
        <ele>1647.84</ele>
        <time>2018-02-06T08:46:59Z</time>
      </trkpt>
      <trkpt lat="45.61119" lon="6.67675">
        <ele>1645.91</ele>
        <time>2018-02-06T08:47:03Z</time>
      </trkpt>
      <trkpt lat="45.61122" lon="6.67678">
        <ele>1644.47</ele>
        <time>2018-02-06T08:47:07Z</time>
      </trkpt>
      <trkpt lat="45.61128" lon="6.67689">
        <ele>1646.4</ele>
        <time>2018-02-06T08:47:23Z</time>
      </trkpt>
      <trkpt lat="45.6113" lon="6.67689">
        <ele>1647.84</ele>
        <time>2018-02-06T08:47:27Z</time>
      </trkpt>
      <trkpt lat="45.6114" lon="6.6769">
        <ele>1646.88</ele>
        <time>2018-02-06T08:47:37Z</time>
      </trkpt>
      <trkpt lat="45.61148" lon="6.67696">
        <ele>1646.88</ele>
        <time>2018-02-06T08:47:49Z</time>
      </trkpt>
      <trkpt lat="45.61156" lon="6.67697">
        <ele>1650.72</ele>
        <time>2018-02-06T08:48:07Z</time>
      </trkpt>
      <trkpt lat="45.61157" lon="6.67697">
        <ele>1650.72</ele>
        <time>2018-02-06T08:48:08Z</time>
      </trkpt>
      <trkpt lat="45.61166" lon="6.67701">
        <ele>1650.72</ele>
        <time>2018-02-06T08:48:21Z</time>
      </trkpt>
      <trkpt lat="45.61178" lon="6.67706">
        <ele>1649.76</ele>
        <time>2018-02-06T08:48:37Z</time>
      </trkpt>
      <trkpt lat="45.61184" lon="6.67704">
        <ele>1649.76</ele>
        <time>2018-02-06T08:48:51Z</time>
      </trkpt>
      <trkpt lat="45.61193" lon="6.6771">
        <ele>1650.72</ele>
        <time>2018-02-06T08:49:03Z</time>
      </trkpt>
      <trkpt lat="45.61204" lon="6.6771">
        <ele>1649.28</ele>
        <time>2018-02-06T08:49:18Z</time>
      </trkpt>
      <trkpt lat="45.61213" lon="6.67714">
        <ele>1648.8</ele>
        <time>2018-02-06T08:49:32Z</time>
      </trkpt>
      <trkpt lat="45.61225" lon="6.67718">
        <ele>1649.28</ele>
        <time>2018-02-06T08:49:46Z</time>
      </trkpt>
      <trkpt lat="45.61233" lon="6.6772">
        <ele>1649.28</ele>
        <time>2018-02-06T08:49:59Z</time>
      </trkpt>
      <trkpt lat="45.61234" lon="6.67725">
        <ele>1649.28</ele>
        <time>2018-02-06T08:50:04Z</time>
      </trkpt>
      <trkpt lat="45.61229" lon="6.67729">
        <ele>1647.84</ele>
        <time>2018-02-06T08:50:14Z</time>
      </trkpt>
      <trkpt lat="45.61235" lon="6.67734">
        <ele>1650.72</ele>
        <time>2018-02-06T08:50:26Z</time>
      </trkpt>
      <trkpt lat="45.61237" lon="6.67732">
        <ele>1647.36</ele>
        <time>2018-02-06T08:50:30Z</time>
      </trkpt>
      <trkpt lat="45.61238" lon="6.67732">
        <ele>1646.4</ele>
        <time>2018-02-06T08:50:32Z</time>
      </trkpt>
      <trkpt lat="45.61239" lon="6.67733">
        <ele>1645.43</ele>
        <time>2018-02-06T08:50:34Z</time>
      </trkpt>
      <trkpt lat="45.61246" lon="6.67739">
        <ele>1644.95</ele>
        <time>2018-02-06T08:50:47Z</time>
      </trkpt>
      <trkpt lat="45.61253" lon="6.67744">
        <ele>1645.91</ele>
        <time>2018-02-06T08:51:00Z</time>
      </trkpt>
      <trkpt lat="45.61262" lon="6.67738">
        <ele>1647.84</ele>
        <time>2018-02-06T08:51:16Z</time>
      </trkpt>
      <trkpt lat="45.61264" lon="6.67741">
        <ele>1648.32</ele>
        <time>2018-02-06T08:51:21Z</time>
      </trkpt>
      <trkpt lat="45.61274" lon="6.67747">
        <ele>1648.32</ele>
        <time>2018-02-06T08:51:34Z</time>
      </trkpt>
      <trkpt lat="45.61285" lon="6.67748">
        <ele>1649.28</ele>
        <time>2018-02-06T08:51:48Z</time>
      </trkpt>
      <trkpt lat="45.61295" lon="6.67747">
        <ele>1650.72</ele>
        <time>2018-02-06T08:52:03Z</time>
      </trkpt>
      <trkpt lat="45.61306" lon="6.67747">
        <ele>1651.2</ele>
        <time>2018-02-06T08:52:16Z</time>
      </trkpt>
      <trkpt lat="45.61313" lon="6.67743">
        <ele>1651.2</ele>
        <time>2018-02-06T08:52:26Z</time>
      </trkpt>
      <trkpt lat="45.61315" lon="6.67744">
        <ele>1651.2</ele>
        <time>2018-02-06T08:52:29Z</time>
      </trkpt>
      <trkpt lat="45.61325" lon="6.67758">
        <ele>1650.72</ele>
        <time>2018-02-06T08:52:46Z</time>
      </trkpt>
      <trkpt lat="45.61329" lon="6.67758">
        <ele>1651.68</ele>
        <time>2018-02-06T08:52:53Z</time>
      </trkpt>
      <trkpt lat="45.61342" lon="6.67766">
        <ele>1651.68</ele>
        <time>2018-02-06T08:53:08Z</time>
      </trkpt>
      <trkpt lat="45.61344" lon="6.67771">
        <ele>1652.16</ele>
        <time>2018-02-06T08:53:14Z</time>
      </trkpt>
      <trkpt lat="45.61352" lon="6.6778">
        <ele>1652.16</ele>
        <time>2018-02-06T08:53:32Z</time>
      </trkpt>
      <trkpt lat="45.61359" lon="6.67787">
        <ele>1652.64</ele>
        <time>2018-02-06T08:53:45Z</time>
      </trkpt>
      <trkpt lat="45.61371" lon="6.67785">
        <ele>1654.09</ele>
        <time>2018-02-06T08:53:59Z</time>
      </trkpt>
      <trkpt lat="45.61371" lon="6.67784">
        <ele>1654.57</ele>
        <time>2018-02-06T08:54:00Z</time>
      </trkpt>
      <trkpt lat="45.61386" lon="6.67783">
        <ele>1655.53</ele>
        <time>2018-02-06T08:54:17Z</time>
      </trkpt>
      <trkpt lat="45.61398" lon="6.67783">
        <ele>1656.49</ele>
        <time>2018-02-06T08:54:32Z</time>
      </trkpt>
      <trkpt lat="45.61409" lon="6.67781">
        <ele>1657.93</ele>
        <time>2018-02-06T08:54:47Z</time>
      </trkpt>
      <trkpt lat="45.6142" lon="6.6778">
        <ele>1657.45</ele>
        <time>2018-02-06T08:55:01Z</time>
      </trkpt>
      <trkpt lat="45.61431" lon="6.67781">
        <ele>1658.41</ele>
        <time>2018-02-06T08:55:16Z</time>
      </trkpt>
      <trkpt lat="45.61444" lon="6.6778">
        <ele>1659.37</ele>
        <time>2018-02-06T08:55:34Z</time>
      </trkpt>
      <trkpt lat="45.61451" lon="6.67779">
        <ele>1661.78</ele>
        <time>2018-02-06T08:55:43Z</time>
      </trkpt>
      <trkpt lat="45.61453" lon="6.67779">
        <ele>1661.78</ele>
        <time>2018-02-06T08:55:46Z</time>
      </trkpt>
      <trkpt lat="45.61467" lon="6.67783">
        <ele>1662.26</ele>
        <time>2018-02-06T08:56:01Z</time>
      </trkpt>
      <trkpt lat="45.6148" lon="6.67781">
        <ele>1663.22</ele>
        <time>2018-02-06T08:56:18Z</time>
      </trkpt>
      <trkpt lat="45.61491" lon="6.6778">
        <ele>1664.18</ele>
        <time>2018-02-06T08:56:33Z</time>
      </trkpt>
      <trkpt lat="45.61502" lon="6.67784">
        <ele>1665.14</ele>
        <time>2018-02-06T08:56:47Z</time>
      </trkpt>
      <trkpt lat="45.61501" lon="6.67784">
        <ele>1665.62</ele>
        <time>2018-02-06T08:57:02Z</time>
      </trkpt>
      <trkpt lat="45.61501" lon="6.67781">
        <ele>1665.14</ele>
        <time>2018-02-06T08:57:19Z</time>
      </trkpt>
      <trkpt lat="45.615" lon="6.67781">
        <ele>1663.7</ele>
        <time>2018-02-06T08:57:38Z</time>
      </trkpt>
      <trkpt lat="45.615" lon="6.67786">
        <ele>1663.7</ele>
        <time>2018-02-06T08:58:13Z</time>
      </trkpt>
      <trkpt lat="45.61501" lon="6.67784">
        <ele>1663.7</ele>
        <time>2018-02-06T08:58:39Z</time>
      </trkpt>
      <trkpt lat="45.61502" lon="6.67783">
        <ele>1664.66</ele>
        <time>2018-02-06T08:59:12Z</time>
      </trkpt>
      <trkpt lat="45.61504" lon="6.6778">
        <ele>1664.66</ele>
        <time>2018-02-06T08:59:44Z</time>
      </trkpt>
      <trkpt lat="45.61503" lon="6.67781">
        <ele>1665.14</ele>
        <time>2018-02-06T09:00:19Z</time>
      </trkpt>
      <trkpt lat="45.61505" lon="6.67782">
        <ele>1664.66</ele>
        <time>2018-02-06T09:00:54Z</time>
      </trkpt>
      <trkpt lat="45.61501" lon="6.67781">
        <ele>1665.14</ele>
        <time>2018-02-06T09:01:24Z</time>
      </trkpt>
      <trkpt lat="45.61503" lon="6.67786">
        <ele>1665.14</ele>
        <time>2018-02-06T09:01:57Z</time>
      </trkpt>
      <trkpt lat="45.61505" lon="6.67785">
        <ele>1664.66</ele>
        <time>2018-02-06T09:02:29Z</time>
      </trkpt>
      <trkpt lat="45.61506" lon="6.67787">
        <ele>1664.18</ele>
        <time>2018-02-06T09:03:04Z</time>
      </trkpt>
      <trkpt lat="45.61505" lon="6.67788">
        <ele>1664.18</ele>
        <time>2018-02-06T09:03:45Z</time>
      </trkpt>
      <trkpt lat="45.61506" lon="6.67788">
        <ele>1664.66</ele>
        <time>2018-02-06T09:04:16Z</time>
      </trkpt>
      <trkpt lat="45.61505" lon="6.67787">
        <ele>1664.18</ele>
        <time>2018-02-06T09:04:49Z</time>
      </trkpt>
      <trkpt lat="45.61502" lon="6.67787">
        <ele>1664.66</ele>
        <time>2018-02-06T09:05:18Z</time>
      </trkpt>
      <trkpt lat="45.61502" lon="6.67788">
        <ele>1664.18</ele>
        <time>2018-02-06T09:05:37Z</time>
      </trkpt>
      <trkpt lat="45.61502" lon="6.67786">
        <ele>1664.66</ele>
        <time>2018-02-06T09:06:11Z</time>
      </trkpt>
      <trkpt lat="45.61503" lon="6.67788">
        <ele>1665.62</ele>
        <time>2018-02-06T09:06:29Z</time>
      </trkpt>
      <trkpt lat="45.61504" lon="6.67783">
        <ele>1666.1</ele>
        <time>2018-02-06T09:06:45Z</time>
      </trkpt>
      <trkpt lat="45.61504" lon="6.67782">
        <ele>1666.1</ele>
        <time>2018-02-06T09:07:02Z</time>
      </trkpt>
      <trkpt lat="45.61505" lon="6.67782">
        <ele>1666.58</ele>
        <time>2018-02-06T09:07:26Z</time>
      </trkpt>
      <trkpt lat="45.61512" lon="6.67781">
        <ele>1666.58</ele>
        <time>2018-02-06T09:07:36Z</time>
      </trkpt>
      <trkpt lat="45.61519" lon="6.67782">
        <ele>1667.54</ele>
        <time>2018-02-06T09:07:45Z</time>
      </trkpt>
      <trkpt lat="45.61531" lon="6.67782">
        <ele>1667.54</ele>
        <time>2018-02-06T09:07:59Z</time>
      </trkpt>
      <trkpt lat="45.61544" lon="6.67781">
        <ele>1668.02</ele>
        <time>2018-02-06T09:08:14Z</time>
      </trkpt>
      <trkpt lat="45.61545" lon="6.67781">
        <ele>1668.02</ele>
        <time>2018-02-06T09:08:15Z</time>
      </trkpt>
      <trkpt lat="45.61555" lon="6.67782">
        <ele>1669.47</ele>
        <time>2018-02-06T09:08:27Z</time>
      </trkpt>
      <trkpt lat="45.61566" lon="6.67784">
        <ele>1671.87</ele>
        <time>2018-02-06T09:08:42Z</time>
      </trkpt>
      <trkpt lat="45.61579" lon="6.67787">
        <ele>1672.83</ele>
        <time>2018-02-06T09:08:57Z</time>
      </trkpt>
      <trkpt lat="45.61592" lon="6.67789">
        <ele>1675.23</ele>
        <time>2018-02-06T09:09:12Z</time>
      </trkpt>
      <trkpt lat="45.61593" lon="6.67789">
        <ele>1675.23</ele>
        <time>2018-02-06T09:09:13Z</time>
      </trkpt>
      <trkpt lat="45.61606" lon="6.67792">
        <ele>1675.72</ele>
        <time>2018-02-06T09:09:28Z</time>
      </trkpt>
      <trkpt lat="45.61608" lon="6.67793">
        <ele>1676.68</ele>
        <time>2018-02-06T09:09:31Z</time>
      </trkpt>
      <trkpt lat="45.6162" lon="6.67797">
        <ele>1676.2</ele>
        <time>2018-02-06T09:09:45Z</time>
      </trkpt>
      <trkpt lat="45.61632" lon="6.67796">
        <ele>1677.16</ele>
        <time>2018-02-06T09:10:00Z</time>
      </trkpt>
      <trkpt lat="45.61643" lon="6.67795">
        <ele>1678.12</ele>
        <time>2018-02-06T09:10:14Z</time>
      </trkpt>
      <trkpt lat="45.61656" lon="6.67795">
        <ele>1680.52</ele>
        <time>2018-02-06T09:10:30Z</time>
      </trkpt>
      <trkpt lat="45.61669" lon="6.67795">
        <ele>1681.96</ele>
        <time>2018-02-06T09:10:44Z</time>
      </trkpt>
      <trkpt lat="45.61672" lon="6.67795">
        <ele>1682.44</ele>
        <time>2018-02-06T09:10:47Z</time>
      </trkpt>
      <trkpt lat="45.61681" lon="6.67794">
        <ele>1682.44</ele>
        <time>2018-02-06T09:10:56Z</time>
      </trkpt>
      <trkpt lat="45.61697" lon="6.67793">
        <ele>1682.44</ele>
        <time>2018-02-06T09:11:13Z</time>
      </trkpt>
      <trkpt lat="45.61698" lon="6.67793">
        <ele>1682.44</ele>
        <time>2018-02-06T09:11:14Z</time>
      </trkpt>
      <trkpt lat="45.6171" lon="6.67792">
        <ele>1684.37</ele>
        <time>2018-02-06T09:11:29Z</time>
      </trkpt>
      <trkpt lat="45.61717" lon="6.67792">
        <ele>1686.29</ele>
        <time>2018-02-06T09:11:39Z</time>
      </trkpt>
      <trkpt lat="45.61725" lon="6.6779">
        <ele>1685.33</ele>
        <time>2018-02-06T09:11:53Z</time>
      </trkpt>
      <trkpt lat="45.61738" lon="6.67788">
        <ele>1686.77</ele>
        <time>2018-02-06T09:12:08Z</time>
      </trkpt>
      <trkpt lat="45.61741" lon="6.67787">
        <ele>1687.25</ele>
        <time>2018-02-06T09:12:11Z</time>
      </trkpt>
      <trkpt lat="45.61745" lon="6.67786">
        <ele>1687.73</ele>
        <time>2018-02-06T09:12:15Z</time>
      </trkpt>
      <trkpt lat="45.61756" lon="6.67787">
        <ele>1688.69</ele>
        <time>2018-02-06T09:12:29Z</time>
      </trkpt>
      <trkpt lat="45.61766" lon="6.67786">
        <ele>1690.14</ele>
        <time>2018-02-06T09:12:42Z</time>
      </trkpt>
      <trkpt lat="45.6178" lon="6.67785">
        <ele>1690.14</ele>
        <time>2018-02-06T09:12:56Z</time>
      </trkpt>
      <trkpt lat="45.61793" lon="6.67786">
        <ele>1691.58</ele>
        <time>2018-02-06T09:13:11Z</time>
      </trkpt>
      <trkpt lat="45.61806" lon="6.67785">
        <ele>1692.06</ele>
        <time>2018-02-06T09:13:27Z</time>
      </trkpt>
      <trkpt lat="45.61817" lon="6.67783">
        <ele>1693.98</ele>
        <time>2018-02-06T09:13:40Z</time>
      </trkpt>
      <trkpt lat="45.6183" lon="6.6778">
        <ele>1694.94</ele>
        <time>2018-02-06T09:13:55Z</time>
      </trkpt>
      <trkpt lat="45.61843" lon="6.67778">
        <ele>1696.38</ele>
        <time>2018-02-06T09:14:11Z</time>
      </trkpt>
      <trkpt lat="45.61855" lon="6.67775">
        <ele>1697.34</ele>
        <time>2018-02-06T09:14:26Z</time>
      </trkpt>
      <trkpt lat="45.61864" lon="6.67771">
        <ele>1696.86</ele>
        <time>2018-02-06T09:14:39Z</time>
      </trkpt>
      <trkpt lat="45.61872" lon="6.67772">
        <ele>1699.75</ele>
        <time>2018-02-06T09:14:51Z</time>
      </trkpt>
      <trkpt lat="45.61882" lon="6.67772">
        <ele>1700.23</ele>
        <time>2018-02-06T09:15:06Z</time>
      </trkpt>
      <trkpt lat="45.61887" lon="6.67772">
        <ele>1702.15</ele>
        <time>2018-02-06T09:15:12Z</time>
      </trkpt>
      <trkpt lat="45.61897" lon="6.67768">
        <ele>1701.67</ele>
        <time>2018-02-06T09:15:24Z</time>
      </trkpt>
      <trkpt lat="45.61906" lon="6.67763">
        <ele>1702.63</ele>
        <time>2018-02-06T09:15:37Z</time>
      </trkpt>
      <trkpt lat="45.61909" lon="6.67761">
        <ele>1704.07</ele>
        <time>2018-02-06T09:15:42Z</time>
      </trkpt>
      <trkpt lat="45.61919" lon="6.67757">
        <ele>1704.55</ele>
        <time>2018-02-06T09:15:55Z</time>
      </trkpt>
      <trkpt lat="45.6193" lon="6.67754">
        <ele>1705.04</ele>
        <time>2018-02-06T09:16:10Z</time>
      </trkpt>
      <trkpt lat="45.6194" lon="6.67751">
        <ele>1706.96</ele>
        <time>2018-02-06T09:16:25Z</time>
      </trkpt>
      <trkpt lat="45.61951" lon="6.6775">
        <ele>1708.88</ele>
        <time>2018-02-06T09:16:41Z</time>
      </trkpt>
      <trkpt lat="45.61964" lon="6.67748">
        <ele>1710.8</ele>
        <time>2018-02-06T09:17:00Z</time>
      </trkpt>
      <trkpt lat="45.61979" lon="6.67747">
        <ele>1713.21</ele>
        <time>2018-02-06T09:17:19Z</time>
      </trkpt>
      <trkpt lat="45.61988" lon="6.67751">
        <ele>1714.65</ele>
        <time>2018-02-06T09:17:35Z</time>
      </trkpt>
      <trkpt lat="45.61996" lon="6.67751">
        <ele>1715.61</ele>
        <time>2018-02-06T09:17:45Z</time>
      </trkpt>
      <trkpt lat="45.62007" lon="6.67756">
        <ele>1716.57</ele>
        <time>2018-02-06T09:18:01Z</time>
      </trkpt>
      <trkpt lat="45.62011" lon="6.67758">
        <ele>1717.53</ele>
        <time>2018-02-06T09:18:14Z</time>
      </trkpt>
      <trkpt lat="45.62011" lon="6.67756">
        <ele>1718.01</ele>
        <time>2018-02-06T09:18:22Z</time>
      </trkpt>
      <trkpt lat="45.62023" lon="6.67761">
        <ele>1718.97</ele>
        <time>2018-02-06T09:18:37Z</time>
      </trkpt>
      <trkpt lat="45.62035" lon="6.67765">
        <ele>1719.46</ele>
        <time>2018-02-06T09:18:50Z</time>
      </trkpt>
      <trkpt lat="45.62046" lon="6.67765">
        <ele>1720.42</ele>
        <time>2018-02-06T09:19:04Z</time>
      </trkpt>
      <trkpt lat="45.62058" lon="6.67764">
        <ele>1721.86</ele>
        <time>2018-02-06T09:19:19Z</time>
      </trkpt>
      <trkpt lat="45.62069" lon="6.67763">
        <ele>1722.82</ele>
        <time>2018-02-06T09:19:32Z</time>
      </trkpt>
      <trkpt lat="45.62072" lon="6.67763">
        <ele>1722.82</ele>
        <time>2018-02-06T09:19:35Z</time>
      </trkpt>
      <trkpt lat="45.62085" lon="6.67762">
        <ele>1723.3</ele>
        <time>2018-02-06T09:19:51Z</time>
      </trkpt>
      <trkpt lat="45.62097" lon="6.67765">
        <ele>1724.74</ele>
        <time>2018-02-06T09:20:06Z</time>
      </trkpt>
      <trkpt lat="45.62106" lon="6.67769">
        <ele>1727.15</ele>
        <time>2018-02-06T09:20:21Z</time>
      </trkpt>
      <trkpt lat="45.62119" lon="6.67769">
        <ele>1727.63</ele>
        <time>2018-02-06T09:20:36Z</time>
      </trkpt>
      <trkpt lat="45.62128" lon="6.67767">
        <ele>1730.03</ele>
        <time>2018-02-06T09:20:53Z</time>
      </trkpt>
      <trkpt lat="45.62139" lon="6.67764">
        <ele>1731.95</ele>
        <time>2018-02-06T09:21:07Z</time>
      </trkpt>
      <trkpt lat="45.62148" lon="6.67766">
        <ele>1733.39</ele>
        <time>2018-02-06T09:21:20Z</time>
      </trkpt>
      <trkpt lat="45.62155" lon="6.67766">
        <ele>1734.36</ele>
        <time>2018-02-06T09:21:32Z</time>
      </trkpt>
      <trkpt lat="45.62166" lon="6.67769">
        <ele>1736.76</ele>
        <time>2018-02-06T09:21:48Z</time>
      </trkpt>
      <trkpt lat="45.62174" lon="6.67772">
        <ele>1736.76</ele>
        <time>2018-02-06T09:22:00Z</time>
      </trkpt>
      <trkpt lat="45.62182" lon="6.67773">
        <ele>1738.68</ele>
        <time>2018-02-06T09:22:17Z</time>
      </trkpt>
      <trkpt lat="45.62193" lon="6.67776">
        <ele>1740.6</ele>
        <time>2018-02-06T09:22:35Z</time>
      </trkpt>
      <trkpt lat="45.62199" lon="6.67781">
        <ele>1741.08</ele>
        <time>2018-02-06T09:22:50Z</time>
      </trkpt>
      <trkpt lat="45.62203" lon="6.6779">
        <ele>1743.49</ele>
        <time>2018-02-06T09:23:03Z</time>
      </trkpt>
      <trkpt lat="45.62207" lon="6.67794">
        <ele>1744.45</ele>
        <time>2018-02-06T09:23:20Z</time>
      </trkpt>
      <trkpt lat="45.62205" lon="6.67792">
        <ele>1743.97</ele>
        <time>2018-02-06T09:23:32Z</time>
      </trkpt>
      <trkpt lat="45.62207" lon="6.67798">
        <ele>1743.49</ele>
        <time>2018-02-06T09:23:51Z</time>
      </trkpt>
      <trkpt lat="45.6221" lon="6.67791">
        <ele>1744.93</ele>
        <time>2018-02-06T09:24:07Z</time>
      </trkpt>
      <trkpt lat="45.6221" lon="6.6779">
        <ele>1745.41</ele>
        <time>2018-02-06T09:24:29Z</time>
      </trkpt>
      <trkpt lat="45.62215" lon="6.67798">
        <ele>1746.37</ele>
        <time>2018-02-06T09:24:43Z</time>
      </trkpt>
      <trkpt lat="45.62219" lon="6.678">
        <ele>1745.41</ele>
        <time>2018-02-06T09:24:47Z</time>
      </trkpt>
      <trkpt lat="45.62234" lon="6.67802">
        <ele>1744.45</ele>
        <time>2018-02-06T09:25:02Z</time>
      </trkpt>
      <trkpt lat="45.62246" lon="6.67805">
        <ele>1745.89</ele>
        <time>2018-02-06T09:25:16Z</time>
      </trkpt>
      <trkpt lat="45.62254" lon="6.6781">
        <ele>1748.29</ele>
        <time>2018-02-06T09:25:29Z</time>
      </trkpt>
      <trkpt lat="45.62264" lon="6.67813">
        <ele>1748.78</ele>
        <time>2018-02-06T09:25:43Z</time>
      </trkpt>
      <trkpt lat="45.62272" lon="6.6782">
        <ele>1750.22</ele>
        <time>2018-02-06T09:25:56Z</time>
      </trkpt>
      <trkpt lat="45.6228" lon="6.67822">
        <ele>1751.66</ele>
        <time>2018-02-06T09:26:08Z</time>
      </trkpt>
      <trkpt lat="45.62287" lon="6.67822">
        <ele>1753.1</ele>
        <time>2018-02-06T09:26:24Z</time>
      </trkpt>
      <trkpt lat="45.62296" lon="6.67822">
        <ele>1755.02</ele>
        <time>2018-02-06T09:26:38Z</time>
      </trkpt>
      <trkpt lat="45.62307" lon="6.67822">
        <ele>1758.39</ele>
        <time>2018-02-06T09:26:56Z</time>
      </trkpt>
      <trkpt lat="45.62317" lon="6.67822">
        <ele>1757.91</ele>
        <time>2018-02-06T09:27:10Z</time>
      </trkpt>
      <trkpt lat="45.62328" lon="6.67828">
        <ele>1759.83</ele>
        <time>2018-02-06T09:27:28Z</time>
      </trkpt>
      <trkpt lat="45.62335" lon="6.67834">
        <ele>1760.79</ele>
        <time>2018-02-06T09:27:44Z</time>
      </trkpt>
      <trkpt lat="45.62339" lon="6.67838">
        <ele>1761.27</ele>
        <time>2018-02-06T09:28:06Z</time>
      </trkpt>
      <trkpt lat="45.62337" lon="6.67839">
        <ele>1761.27</ele>
        <time>2018-02-06T09:28:27Z</time>
      </trkpt>
      <trkpt lat="45.62345" lon="6.67836">
        <ele>1762.71</ele>
        <time>2018-02-06T09:28:39Z</time>
      </trkpt>
      <trkpt lat="45.62354" lon="6.67838">
        <ele>1764.16</ele>
        <time>2018-02-06T09:28:51Z</time>
      </trkpt>
      <trkpt lat="45.62363" lon="6.67835">
        <ele>1766.08</ele>
        <time>2018-02-06T09:29:05Z</time>
      </trkpt>
      <trkpt lat="45.62371" lon="6.67828">
        <ele>1768</ele>
        <time>2018-02-06T09:29:17Z</time>
      </trkpt>
      <trkpt lat="45.62375" lon="6.67824">
        <ele>1768.48</ele>
        <time>2018-02-06T09:29:20Z</time>
      </trkpt>
      <trkpt lat="45.62384" lon="6.67824">
        <ele>1769.92</ele>
        <time>2018-02-06T09:29:32Z</time>
      </trkpt>
      <trkpt lat="45.62392" lon="6.67822">
        <ele>1770.89</ele>
        <time>2018-02-06T09:29:45Z</time>
      </trkpt>
      <trkpt lat="45.62399" lon="6.67816">
        <ele>1772.33</ele>
        <time>2018-02-06T09:29:58Z</time>
      </trkpt>
      <trkpt lat="45.6241" lon="6.67809">
        <ele>1772.81</ele>
        <time>2018-02-06T09:30:12Z</time>
      </trkpt>
      <trkpt lat="45.62419" lon="6.67804">
        <ele>1774.25</ele>
        <time>2018-02-06T09:30:24Z</time>
      </trkpt>
      <trkpt lat="45.62419" lon="6.67804">
        <ele>1774.25</ele>
        <time>2018-02-06T09:30:25Z</time>
      </trkpt>
      <trkpt lat="45.62429" lon="6.678">
        <ele>1775.69</ele>
        <time>2018-02-06T09:30:39Z</time>
      </trkpt>
      <trkpt lat="45.62437" lon="6.67801">
        <ele>1777.13</ele>
        <time>2018-02-06T09:30:51Z</time>
      </trkpt>
      <trkpt lat="45.62441" lon="6.678">
        <ele>1777.13</ele>
        <time>2018-02-06T09:30:57Z</time>
      </trkpt>
      <trkpt lat="45.62445" lon="6.67799">
        <ele>1777.61</ele>
        <time>2018-02-06T09:31:02Z</time>
      </trkpt>
      <trkpt lat="45.62448" lon="6.67798">
        <ele>1777.13</ele>
        <time>2018-02-06T09:31:06Z</time>
      </trkpt>
      <trkpt lat="45.62458" lon="6.67795">
        <ele>1778.58</ele>
        <time>2018-02-06T09:31:19Z</time>
      </trkpt>
      <trkpt lat="45.62468" lon="6.67789">
        <ele>1780.02</ele>
        <time>2018-02-06T09:31:34Z</time>
      </trkpt>
      <trkpt lat="45.62475" lon="6.67787">
        <ele>1780.02</ele>
        <time>2018-02-06T09:31:43Z</time>
      </trkpt>
      <trkpt lat="45.62486" lon="6.6778">
        <ele>1781.46</ele>
        <time>2018-02-06T09:31:59Z</time>
      </trkpt>
      <trkpt lat="45.62496" lon="6.67773">
        <ele>1782.9</ele>
        <time>2018-02-06T09:32:14Z</time>
      </trkpt>
      <trkpt lat="45.62502" lon="6.6777">
        <ele>1784.82</ele>
        <time>2018-02-06T09:32:28Z</time>
      </trkpt>
      <trkpt lat="45.62509" lon="6.67767">
        <ele>1785.79</ele>
        <time>2018-02-06T09:32:43Z</time>
      </trkpt>
      <trkpt lat="45.62518" lon="6.67758">
        <ele>1787.23</ele>
        <time>2018-02-06T09:32:57Z</time>
      </trkpt>
      <trkpt lat="45.62526" lon="6.67757">
        <ele>1787.71</ele>
        <time>2018-02-06T09:33:10Z</time>
      </trkpt>
      <trkpt lat="45.62533" lon="6.67751">
        <ele>1789.15</ele>
        <time>2018-02-06T09:33:21Z</time>
      </trkpt>
      <trkpt lat="45.62542" lon="6.67747">
        <ele>1790.11</ele>
        <time>2018-02-06T09:33:34Z</time>
      </trkpt>
      <trkpt lat="45.62551" lon="6.67741">
        <ele>1792.03</ele>
        <time>2018-02-06T09:33:51Z</time>
      </trkpt>
      <trkpt lat="45.62561" lon="6.67737">
        <ele>1793.48</ele>
        <time>2018-02-06T09:34:05Z</time>
      </trkpt>
      <trkpt lat="45.6257" lon="6.67734">
        <ele>1794.92</ele>
        <time>2018-02-06T09:34:18Z</time>
      </trkpt>
      <trkpt lat="45.6258" lon="6.6773">
        <ele>1795.88</ele>
        <time>2018-02-06T09:34:34Z</time>
      </trkpt>
      <trkpt lat="45.6259" lon="6.67727">
        <ele>1797.32</ele>
        <time>2018-02-06T09:34:51Z</time>
      </trkpt>
      <trkpt lat="45.62596" lon="6.67722">
        <ele>1798.76</ele>
        <time>2018-02-06T09:35:03Z</time>
      </trkpt>
      <trkpt lat="45.62604" lon="6.6772">
        <ele>1800.69</ele>
        <time>2018-02-06T09:35:16Z</time>
      </trkpt>
      <trkpt lat="45.62612" lon="6.67715">
        <ele>1802.13</ele>
        <time>2018-02-06T09:35:31Z</time>
      </trkpt>
      <trkpt lat="45.62624" lon="6.6771">
        <ele>1803.09</ele>
        <time>2018-02-06T09:35:45Z</time>
      </trkpt>
      <trkpt lat="45.62631" lon="6.67707">
        <ele>1805.01</ele>
        <time>2018-02-06T09:35:59Z</time>
      </trkpt>
      <trkpt lat="45.62638" lon="6.67705">
        <ele>1806.94</ele>
        <time>2018-02-06T09:36:13Z</time>
      </trkpt>
      <trkpt lat="45.62646" lon="6.67705">
        <ele>1809.34</ele>
        <time>2018-02-06T09:36:26Z</time>
      </trkpt>
      <trkpt lat="45.62654" lon="6.67698">
        <ele>1811.26</ele>
        <time>2018-02-06T09:36:41Z</time>
      </trkpt>
      <trkpt lat="45.62662" lon="6.67694">
        <ele>1812.7</ele>
        <time>2018-02-06T09:36:56Z</time>
      </trkpt>
      <trkpt lat="45.62672" lon="6.67689">
        <ele>1813.18</ele>
        <time>2018-02-06T09:37:11Z</time>
      </trkpt>
      <trkpt lat="45.62677" lon="6.6768">
        <ele>1814.15</ele>
        <time>2018-02-06T09:37:24Z</time>
      </trkpt>
      <trkpt lat="45.62684" lon="6.67676">
        <ele>1815.59</ele>
        <time>2018-02-06T09:37:37Z</time>
      </trkpt>
      <trkpt lat="45.62695" lon="6.67671">
        <ele>1817.03</ele>
        <time>2018-02-06T09:37:54Z</time>
      </trkpt>
      <trkpt lat="45.62704" lon="6.67669">
        <ele>1817.99</ele>
        <time>2018-02-06T09:38:06Z</time>
      </trkpt>
      <trkpt lat="45.62714" lon="6.67664">
        <ele>1819.43</ele>
        <time>2018-02-06T09:38:19Z</time>
      </trkpt>
      <trkpt lat="45.62723" lon="6.67662">
        <ele>1820.87</ele>
        <time>2018-02-06T09:38:35Z</time>
      </trkpt>
      <trkpt lat="45.62733" lon="6.6766">
        <ele>1823.28</ele>
        <time>2018-02-06T09:38:52Z</time>
      </trkpt>
      <trkpt lat="45.62742" lon="6.67654">
        <ele>1824.72</ele>
        <time>2018-02-06T09:39:08Z</time>
      </trkpt>
      <trkpt lat="45.6275" lon="6.6765">
        <ele>1825.68</ele>
        <time>2018-02-06T09:39:23Z</time>
      </trkpt>
      <trkpt lat="45.6276" lon="6.67651">
        <ele>1827.6</ele>
        <time>2018-02-06T09:39:38Z</time>
      </trkpt>
      <trkpt lat="45.6277" lon="6.67646">
        <ele>1829.53</ele>
        <time>2018-02-06T09:39:53Z</time>
      </trkpt>
      <trkpt lat="45.62779" lon="6.67645">
        <ele>1830.97</ele>
        <time>2018-02-06T09:40:07Z</time>
      </trkpt>
      <trkpt lat="45.62787" lon="6.6764">
        <ele>1832.89</ele>
        <time>2018-02-06T09:40:20Z</time>
      </trkpt>
      <trkpt lat="45.62794" lon="6.67636">
        <ele>1834.33</ele>
        <time>2018-02-06T09:40:34Z</time>
      </trkpt>
      <trkpt lat="45.62801" lon="6.67628">
        <ele>1835.29</ele>
        <time>2018-02-06T09:40:48Z</time>
      </trkpt>
      <trkpt lat="45.6281" lon="6.67622">
        <ele>1836.74</ele>
        <time>2018-02-06T09:41:01Z</time>
      </trkpt>
      <trkpt lat="45.62816" lon="6.67617">
        <ele>1839.14</ele>
        <time>2018-02-06T09:41:15Z</time>
      </trkpt>
      <trkpt lat="45.6282" lon="6.67613">
        <ele>1841.06</ele>
        <time>2018-02-06T09:41:22Z</time>
      </trkpt>
      <trkpt lat="45.62826" lon="6.67605">
        <ele>1840.1</ele>
        <time>2018-02-06T09:41:35Z</time>
      </trkpt>
      <trkpt lat="45.62833" lon="6.67596">
        <ele>1841.06</ele>
        <time>2018-02-06T09:41:48Z</time>
      </trkpt>
      <trkpt lat="45.62843" lon="6.67589">
        <ele>1842.5</ele>
        <time>2018-02-06T09:42:02Z</time>
      </trkpt>
      <trkpt lat="45.62849" lon="6.67585">
        <ele>1843.47</ele>
        <time>2018-02-06T09:42:12Z</time>
      </trkpt>
      <trkpt lat="45.62861" lon="6.67577">
        <ele>1844.43</ele>
        <time>2018-02-06T09:42:30Z</time>
      </trkpt>
      <trkpt lat="45.62871" lon="6.67574">
        <ele>1845.39</ele>
        <time>2018-02-06T09:42:43Z</time>
      </trkpt>
      <trkpt lat="45.62875" lon="6.67572">
        <ele>1845.87</ele>
        <time>2018-02-06T09:42:47Z</time>
      </trkpt>
      <trkpt lat="45.62885" lon="6.67563">
        <ele>1847.31</ele>
        <time>2018-02-06T09:43:02Z</time>
      </trkpt>
      <trkpt lat="45.62895" lon="6.67551">
        <ele>1847.31</ele>
        <time>2018-02-06T09:43:13Z</time>
      </trkpt>
      <trkpt lat="45.62903" lon="6.67534">
        <ele>1846.35</ele>
        <time>2018-02-06T09:43:27Z</time>
      </trkpt>
      <trkpt lat="45.62903" lon="6.67533">
        <ele>1846.35</ele>
        <time>2018-02-06T09:43:28Z</time>
      </trkpt>
      <trkpt lat="45.62906" lon="6.67518">
        <ele>1846.35</ele>
        <time>2018-02-06T09:43:39Z</time>
      </trkpt>
      <trkpt lat="45.6291" lon="6.67507">
        <ele>1847.31</ele>
        <time>2018-02-06T09:43:51Z</time>
      </trkpt>
      <trkpt lat="45.6292" lon="6.67499">
        <ele>1848.75</ele>
        <time>2018-02-06T09:44:08Z</time>
      </trkpt>
      <trkpt lat="45.62929" lon="6.67496">
        <ele>1850.68</ele>
        <time>2018-02-06T09:44:23Z</time>
      </trkpt>
      <trkpt lat="45.62936" lon="6.67488">
        <ele>1851.64</ele>
        <time>2018-02-06T09:44:35Z</time>
      </trkpt>
      <trkpt lat="45.62944" lon="6.67481">
        <ele>1852.6</ele>
        <time>2018-02-06T09:44:51Z</time>
      </trkpt>
      <trkpt lat="45.62953" lon="6.67475">
        <ele>1853.56</ele>
        <time>2018-02-06T09:45:07Z</time>
      </trkpt>
      <trkpt lat="45.62963" lon="6.6747">
        <ele>1855</ele>
        <time>2018-02-06T09:45:21Z</time>
      </trkpt>
      <trkpt lat="45.62972" lon="6.67462">
        <ele>1856.44</ele>
        <time>2018-02-06T09:45:39Z</time>
      </trkpt>
      <trkpt lat="45.62981" lon="6.67457">
        <ele>1857.4</ele>
        <time>2018-02-06T09:45:52Z</time>
      </trkpt>
      <trkpt lat="45.62987" lon="6.67453">
        <ele>1859.33</ele>
        <time>2018-02-06T09:46:07Z</time>
      </trkpt>
      <trkpt lat="45.62994" lon="6.67446">
        <ele>1860.29</ele>
        <time>2018-02-06T09:46:21Z</time>
      </trkpt>
      <trkpt lat="45.62997" lon="6.67442">
        <ele>1861.25</ele>
        <time>2018-02-06T09:46:26Z</time>
      </trkpt>
      <trkpt lat="45.63005" lon="6.67436">
        <ele>1861.73</ele>
        <time>2018-02-06T09:46:42Z</time>
      </trkpt>
      <trkpt lat="45.63012" lon="6.67428">
        <ele>1863.65</ele>
        <time>2018-02-06T09:46:55Z</time>
      </trkpt>
      <trkpt lat="45.63016" lon="6.67424">
        <ele>1864.13</ele>
        <time>2018-02-06T09:47:03Z</time>
      </trkpt>
      <trkpt lat="45.63024" lon="6.67419">
        <ele>1865.58</ele>
        <time>2018-02-06T09:47:15Z</time>
      </trkpt>
      <trkpt lat="45.63032" lon="6.67415">
        <ele>1867.02</ele>
        <time>2018-02-06T09:47:27Z</time>
      </trkpt>
      <trkpt lat="45.63039" lon="6.67415">
        <ele>1867.98</ele>
        <time>2018-02-06T09:47:41Z</time>
      </trkpt>
      <trkpt lat="45.63044" lon="6.67412">
        <ele>1869.9</ele>
        <time>2018-02-06T09:47:54Z</time>
      </trkpt>
      <trkpt lat="45.63053" lon="6.67417">
        <ele>1871.34</ele>
        <time>2018-02-06T09:48:11Z</time>
      </trkpt>
      <trkpt lat="45.6306" lon="6.6742">
        <ele>1872.79</ele>
        <time>2018-02-06T09:48:23Z</time>
      </trkpt>
      <trkpt lat="45.63065" lon="6.67421">
        <ele>1874.71</ele>
        <time>2018-02-06T09:48:36Z</time>
      </trkpt>
      <trkpt lat="45.63071" lon="6.67427">
        <ele>1876.63</ele>
        <time>2018-02-06T09:48:50Z</time>
      </trkpt>
      <trkpt lat="45.6308" lon="6.67419">
        <ele>1877.59</ele>
        <time>2018-02-06T09:49:05Z</time>
      </trkpt>
      <trkpt lat="45.63088" lon="6.67414">
        <ele>1878.55</ele>
        <time>2018-02-06T09:49:18Z</time>
      </trkpt>
      <trkpt lat="45.63095" lon="6.67408">
        <ele>1879.03</ele>
        <time>2018-02-06T09:49:33Z</time>
      </trkpt>
      <trkpt lat="45.63102" lon="6.67405">
        <ele>1880.96</ele>
        <time>2018-02-06T09:49:46Z</time>
      </trkpt>
      <trkpt lat="45.63111" lon="6.674">
        <ele>1882.4</ele>
        <time>2018-02-06T09:49:59Z</time>
      </trkpt>
      <trkpt lat="45.63119" lon="6.6739">
        <ele>1882.4</ele>
        <time>2018-02-06T09:50:15Z</time>
      </trkpt>
      <trkpt lat="45.63128" lon="6.67382">
        <ele>1882.88</ele>
        <time>2018-02-06T09:50:30Z</time>
      </trkpt>
      <trkpt lat="45.63134" lon="6.67375">
        <ele>1883.84</ele>
        <time>2018-02-06T09:50:43Z</time>
      </trkpt>
      <trkpt lat="45.63145" lon="6.67362">
        <ele>1885.28</ele>
        <time>2018-02-06T09:51:04Z</time>
      </trkpt>
      <trkpt lat="45.63148" lon="6.67356">
        <ele>1884.8</ele>
        <time>2018-02-06T09:51:11Z</time>
      </trkpt>
      <trkpt lat="45.63155" lon="6.67347">
        <ele>1886.24</ele>
        <time>2018-02-06T09:51:24Z</time>
      </trkpt>
      <trkpt lat="45.63161" lon="6.67336">
        <ele>1886.24</ele>
        <time>2018-02-06T09:51:36Z</time>
      </trkpt>
      <trkpt lat="45.63162" lon="6.67331">
        <ele>1887.69</ele>
        <time>2018-02-06T09:51:48Z</time>
      </trkpt>
      <trkpt lat="45.63161" lon="6.67333">
        <ele>1887.69</ele>
        <time>2018-02-06T09:52:10Z</time>
      </trkpt>
      <trkpt lat="45.63162" lon="6.67334">
        <ele>1887.69</ele>
        <time>2018-02-06T09:52:35Z</time>
      </trkpt>
      <trkpt lat="45.63162" lon="6.67324">
        <ele>1887.21</ele>
        <time>2018-02-06T09:52:55Z</time>
      </trkpt>
      <trkpt lat="45.63157" lon="6.67317">
        <ele>1887.69</ele>
        <time>2018-02-06T09:53:07Z</time>
      </trkpt>
      <trkpt lat="45.63154" lon="6.67313">
        <ele>1889.61</ele>
        <time>2018-02-06T09:53:21Z</time>
      </trkpt>
      <trkpt lat="45.63157" lon="6.67307">
        <ele>1891.05</ele>
        <time>2018-02-06T09:53:33Z</time>
      </trkpt>
      <trkpt lat="45.63157" lon="6.67303">
        <ele>1892.49</ele>
        <time>2018-02-06T09:53:46Z</time>
      </trkpt>
      <trkpt lat="45.63159" lon="6.67295">
        <ele>1894.42</ele>
        <time>2018-02-06T09:53:58Z</time>
      </trkpt>
      <trkpt lat="45.63164" lon="6.67292">
        <ele>1894.9</ele>
        <time>2018-02-06T09:54:10Z</time>
      </trkpt>
      <trkpt lat="45.63168" lon="6.67292">
        <ele>1897.3</ele>
        <time>2018-02-06T09:54:22Z</time>
      </trkpt>
      <trkpt lat="45.63171" lon="6.67291">
        <ele>1898.74</ele>
        <time>2018-02-06T09:54:34Z</time>
      </trkpt>
      <trkpt lat="45.63174" lon="6.67291">
        <ele>1899.7</ele>
        <time>2018-02-06T09:54:44Z</time>
      </trkpt>
      <trkpt lat="45.63179" lon="6.6729">
        <ele>1901.14</ele>
        <time>2018-02-06T09:54:58Z</time>
      </trkpt>
      <trkpt lat="45.63179" lon="6.67289">
        <ele>1902.59</ele>
        <time>2018-02-06T09:55:09Z</time>
      </trkpt>
      <trkpt lat="45.63176" lon="6.67283">
        <ele>1903.07</ele>
        <time>2018-02-06T09:55:24Z</time>
      </trkpt>
      <trkpt lat="45.63173" lon="6.67276">
        <ele>1904.03</ele>
        <time>2018-02-06T09:55:37Z</time>
      </trkpt>
      <trkpt lat="45.63169" lon="6.6727">
        <ele>1905.47</ele>
        <time>2018-02-06T09:55:51Z</time>
      </trkpt>
      <trkpt lat="45.63167" lon="6.67262">
        <ele>1906.91</ele>
        <time>2018-02-06T09:56:04Z</time>
      </trkpt>
      <trkpt lat="45.63163" lon="6.67257">
        <ele>1908.35</ele>
        <time>2018-02-06T09:56:17Z</time>
      </trkpt>
      <trkpt lat="45.6316" lon="6.67251">
        <ele>1909.8</ele>
        <time>2018-02-06T09:56:30Z</time>
      </trkpt>
      <trkpt lat="45.63158" lon="6.67247">
        <ele>1910.76</ele>
        <time>2018-02-06T09:56:42Z</time>
      </trkpt>
      <trkpt lat="45.63162" lon="6.67245">
        <ele>1911.24</ele>
        <time>2018-02-06T09:56:53Z</time>
      </trkpt>
      <trkpt lat="45.63168" lon="6.67247">
        <ele>1913.16</ele>
        <time>2018-02-06T09:57:07Z</time>
      </trkpt>
      <trkpt lat="45.63171" lon="6.67248">
        <ele>1914.12</ele>
        <time>2018-02-06T09:57:20Z</time>
      </trkpt>
      <trkpt lat="45.6317" lon="6.67244">
        <ele>1914.12</ele>
        <time>2018-02-06T09:57:34Z</time>
      </trkpt>
      <trkpt lat="45.63165" lon="6.67238">
        <ele>1915.08</ele>
        <time>2018-02-06T09:57:47Z</time>
      </trkpt>
      <trkpt lat="45.6316" lon="6.67232">
        <ele>1917.49</ele>
        <time>2018-02-06T09:58:00Z</time>
      </trkpt>
      <trkpt lat="45.63158" lon="6.67226">
        <ele>1918.45</ele>
        <time>2018-02-06T09:58:12Z</time>
      </trkpt>
      <trkpt lat="45.63161" lon="6.67225">
        <ele>1919.89</ele>
        <time>2018-02-06T09:58:23Z</time>
      </trkpt>
      <trkpt lat="45.63168" lon="6.67225">
        <ele>1921.33</ele>
        <time>2018-02-06T09:58:37Z</time>
      </trkpt>
      <trkpt lat="45.63166" lon="6.67224">
        <ele>1922.29</ele>
        <time>2018-02-06T09:58:52Z</time>
      </trkpt>
      <trkpt lat="45.63162" lon="6.67214">
        <ele>1924.22</ele>
        <time>2018-02-06T09:59:08Z</time>
      </trkpt>
      <trkpt lat="45.63159" lon="6.67207">
        <ele>1925.66</ele>
        <time>2018-02-06T09:59:21Z</time>
      </trkpt>
      <trkpt lat="45.63154" lon="6.67206">
        <ele>1927.1</ele>
        <time>2018-02-06T09:59:34Z</time>
      </trkpt>
      <trkpt lat="45.63158" lon="6.67199">
        <ele>1928.06</ele>
        <time>2018-02-06T09:59:48Z</time>
      </trkpt>
      <trkpt lat="45.63166" lon="6.67199">
        <ele>1929.98</ele>
        <time>2018-02-06T10:00:04Z</time>
      </trkpt>
      <trkpt lat="45.63172" lon="6.672">
        <ele>1931.43</ele>
        <time>2018-02-06T10:00:18Z</time>
      </trkpt>
      <trkpt lat="45.63174" lon="6.67201">
        <ele>1931.91</ele>
        <time>2018-02-06T10:00:31Z</time>
      </trkpt>
      <trkpt lat="45.63169" lon="6.67193">
        <ele>1933.35</ele>
        <time>2018-02-06T10:00:45Z</time>
      </trkpt>
      <trkpt lat="45.63165" lon="6.6719">
        <ele>1933.83</ele>
        <time>2018-02-06T10:00:57Z</time>
      </trkpt>
      <trkpt lat="45.63162" lon="6.67181">
        <ele>1934.79</ele>
        <time>2018-02-06T10:01:10Z</time>
      </trkpt>
      <trkpt lat="45.63159" lon="6.67177">
        <ele>1935.75</ele>
        <time>2018-02-06T10:01:23Z</time>
      </trkpt>
      <trkpt lat="45.63156" lon="6.67173">
        <ele>1936.71</ele>
        <time>2018-02-06T10:01:37Z</time>
      </trkpt>
      <trkpt lat="45.63158" lon="6.6717">
        <ele>1936.71</ele>
        <time>2018-02-06T10:02:09Z</time>
      </trkpt>
      <trkpt lat="45.63166" lon="6.67169">
        <ele>1937.67</ele>
        <time>2018-02-06T10:02:22Z</time>
      </trkpt>
      <trkpt lat="45.6317" lon="6.67172">
        <ele>1938.64</ele>
        <time>2018-02-06T10:02:28Z</time>
      </trkpt>
      <trkpt lat="45.6317" lon="6.67169">
        <ele>1940.08</ele>
        <time>2018-02-06T10:02:40Z</time>
      </trkpt>
      <trkpt lat="45.63164" lon="6.67158">
        <ele>1941.52</ele>
        <time>2018-02-06T10:02:55Z</time>
      </trkpt>
      <trkpt lat="45.63161" lon="6.67151">
        <ele>1942.96</ele>
        <time>2018-02-06T10:03:10Z</time>
      </trkpt>
      <trkpt lat="45.63166" lon="6.6715">
        <ele>1944.88</ele>
        <time>2018-02-06T10:03:22Z</time>
      </trkpt>
      <trkpt lat="45.63172" lon="6.67153">
        <ele>1946.81</ele>
        <time>2018-02-06T10:03:36Z</time>
      </trkpt>
      <trkpt lat="45.63167" lon="6.67144">
        <ele>1946.81</ele>
        <time>2018-02-06T10:03:50Z</time>
      </trkpt>
      <trkpt lat="45.63163" lon="6.67137">
        <ele>1948.25</ele>
        <time>2018-02-06T10:04:04Z</time>
      </trkpt>
      <trkpt lat="45.6316" lon="6.67133">
        <ele>1950.17</ele>
        <time>2018-02-06T10:04:15Z</time>
      </trkpt>
      <trkpt lat="45.63161" lon="6.67125">
        <ele>1951.61</ele>
        <time>2018-02-06T10:04:27Z</time>
      </trkpt>
      <trkpt lat="45.63165" lon="6.67119">
        <ele>1951.61</ele>
        <time>2018-02-06T10:04:41Z</time>
      </trkpt>
      <trkpt lat="45.63171" lon="6.67122">
        <ele>1954.5</ele>
        <time>2018-02-06T10:04:55Z</time>
      </trkpt>
      <trkpt lat="45.63171" lon="6.67121">
        <ele>1954.98</ele>
        <time>2018-02-06T10:05:10Z</time>
      </trkpt>
      <trkpt lat="45.63168" lon="6.6711">
        <ele>1956.42</ele>
        <time>2018-02-06T10:05:25Z</time>
      </trkpt>
      <trkpt lat="45.63164" lon="6.67104">
        <ele>1957.86</ele>
        <time>2018-02-06T10:05:38Z</time>
      </trkpt>
      <trkpt lat="45.63167" lon="6.67098">
        <ele>1959.3</ele>
        <time>2018-02-06T10:05:55Z</time>
      </trkpt>
      <trkpt lat="45.63173" lon="6.67101">
        <ele>1961.71</ele>
        <time>2018-02-06T10:06:10Z</time>
      </trkpt>
      <trkpt lat="45.63178" lon="6.67106">
        <ele>1963.15</ele>
        <time>2018-02-06T10:06:24Z</time>
      </trkpt>
      <trkpt lat="45.63177" lon="6.671">
        <ele>1963.63</ele>
        <time>2018-02-06T10:06:36Z</time>
      </trkpt>
      <trkpt lat="45.63173" lon="6.6709">
        <ele>1965.07</ele>
        <time>2018-02-06T10:06:52Z</time>
      </trkpt>
      <trkpt lat="45.63168" lon="6.67081">
        <ele>1966.03</ele>
        <time>2018-02-06T10:07:05Z</time>
      </trkpt>
      <trkpt lat="45.63165" lon="6.67084">
        <ele>1967.96</ele>
        <time>2018-02-06T10:07:16Z</time>
      </trkpt>
      <trkpt lat="45.63168" lon="6.67079">
        <ele>1967.96</ele>
        <time>2018-02-06T10:07:31Z</time>
      </trkpt>
      <trkpt lat="45.63173" lon="6.6708">
        <ele>1969.88</ele>
        <time>2018-02-06T10:07:45Z</time>
      </trkpt>
      <trkpt lat="45.63178" lon="6.67082">
        <ele>1970.84</ele>
        <time>2018-02-06T10:07:58Z</time>
      </trkpt>
      <trkpt lat="45.63183" lon="6.67086">
        <ele>1972.76</ele>
        <time>2018-02-06T10:08:11Z</time>
      </trkpt>
      <trkpt lat="45.63188" lon="6.67091">
        <ele>1974.2</ele>
        <time>2018-02-06T10:08:24Z</time>
      </trkpt>
      <trkpt lat="45.63186" lon="6.67081">
        <ele>1973.24</ele>
        <time>2018-02-06T10:08:40Z</time>
      </trkpt>
      <trkpt lat="45.63184" lon="6.67072">
        <ele>1975.65</ele>
        <time>2018-02-06T10:08:54Z</time>
      </trkpt>
      <trkpt lat="45.63182" lon="6.67063">
        <ele>1977.57</ele>
        <time>2018-02-06T10:09:09Z</time>
      </trkpt>
      <trkpt lat="45.6318" lon="6.67055">
        <ele>1979.49</ele>
        <time>2018-02-06T10:09:22Z</time>
      </trkpt>
      <trkpt lat="45.63179" lon="6.67046">
        <ele>1980.93</ele>
        <time>2018-02-06T10:09:35Z</time>
      </trkpt>
      <trkpt lat="45.63175" lon="6.67043">
        <ele>1981.41</ele>
        <time>2018-02-06T10:09:47Z</time>
      </trkpt>
      <trkpt lat="45.63171" lon="6.67039">
        <ele>1984.78</ele>
        <time>2018-02-06T10:10:01Z</time>
      </trkpt>
      <trkpt lat="45.63166" lon="6.67038">
        <ele>1985.74</ele>
        <time>2018-02-06T10:10:15Z</time>
      </trkpt>
      <trkpt lat="45.63168" lon="6.6703">
        <ele>1986.22</ele>
        <time>2018-02-06T10:10:31Z</time>
      </trkpt>
      <trkpt lat="45.63173" lon="6.67022">
        <ele>1987.18</ele>
        <time>2018-02-06T10:10:45Z</time>
      </trkpt>
      <trkpt lat="45.63177" lon="6.67016">
        <ele>1989.1</ele>
        <time>2018-02-06T10:10:58Z</time>
      </trkpt>
      <trkpt lat="45.63183" lon="6.6702">
        <ele>1990.55</ele>
        <time>2018-02-06T10:11:11Z</time>
      </trkpt>
      <trkpt lat="45.63189" lon="6.6702">
        <ele>1991.99</ele>
        <time>2018-02-06T10:11:24Z</time>
      </trkpt>
      <trkpt lat="45.63195" lon="6.67022">
        <ele>1993.43</ele>
        <time>2018-02-06T10:11:38Z</time>
      </trkpt>
      <trkpt lat="45.63194" lon="6.6702">
        <ele>1993.91</ele>
        <time>2018-02-06T10:11:52Z</time>
      </trkpt>
      <trkpt lat="45.63192" lon="6.67011">
        <ele>1994.87</ele>
        <time>2018-02-06T10:12:07Z</time>
      </trkpt>
      <trkpt lat="45.63186" lon="6.67004">
        <ele>1995.83</ele>
        <time>2018-02-06T10:12:22Z</time>
      </trkpt>
      <trkpt lat="45.63184" lon="6.66996">
        <ele>1999.2</ele>
        <time>2018-02-06T10:12:37Z</time>
      </trkpt>
      <trkpt lat="45.63179" lon="6.66991">
        <ele>1998.72</ele>
        <time>2018-02-06T10:12:52Z</time>
      </trkpt>
      <trkpt lat="45.63173" lon="6.66992">
        <ele>2000.16</ele>
        <time>2018-02-06T10:13:07Z</time>
      </trkpt>
      <trkpt lat="45.63172" lon="6.66989">
        <ele>2003.04</ele>
        <time>2018-02-06T10:13:11Z</time>
      </trkpt>
      <trkpt lat="45.63176" lon="6.66986">
        <ele>2003.52</ele>
        <time>2018-02-06T10:13:30Z</time>
      </trkpt>
      <trkpt lat="45.63177" lon="6.66982">
        <ele>2004.49</ele>
        <time>2018-02-06T10:13:36Z</time>
      </trkpt>
      <trkpt lat="45.63181" lon="6.66976">
        <ele>2005.93</ele>
        <time>2018-02-06T10:13:49Z</time>
      </trkpt>
      <trkpt lat="45.63187" lon="6.66975">
        <ele>2007.37</ele>
        <time>2018-02-06T10:14:04Z</time>
      </trkpt>
      <trkpt lat="45.63192" lon="6.66979">
        <ele>2008.33</ele>
        <time>2018-02-06T10:14:18Z</time>
      </trkpt>
      <trkpt lat="45.63189" lon="6.66972">
        <ele>2009.29</ele>
        <time>2018-02-06T10:14:31Z</time>
      </trkpt>
      <trkpt lat="45.63187" lon="6.66965">
        <ele>2011.22</ele>
        <time>2018-02-06T10:14:44Z</time>
      </trkpt>
      <trkpt lat="45.63184" lon="6.66956">
        <ele>2012.18</ele>
        <time>2018-02-06T10:14:57Z</time>
      </trkpt>
      <trkpt lat="45.6318" lon="6.66953">
        <ele>2015.54</ele>
        <time>2018-02-06T10:15:11Z</time>
      </trkpt>
      <trkpt lat="45.63179" lon="6.66953">
        <ele>2015.06</ele>
        <time>2018-02-06T10:15:12Z</time>
      </trkpt>
      <trkpt lat="45.63177" lon="6.6695">
        <ele>2016.5</ele>
        <time>2018-02-06T10:15:19Z</time>
      </trkpt>
      <trkpt lat="45.63176" lon="6.66942">
        <ele>2017.94</ele>
        <time>2018-02-06T10:15:31Z</time>
      </trkpt>
      <trkpt lat="45.63176" lon="6.66936">
        <ele>2019.39</ele>
        <time>2018-02-06T10:15:43Z</time>
      </trkpt>
      <trkpt lat="45.63174" lon="6.6693">
        <ele>2019.87</ele>
        <time>2018-02-06T10:15:55Z</time>
      </trkpt>
      <trkpt lat="45.63173" lon="6.66923">
        <ele>2021.31</ele>
        <time>2018-02-06T10:16:07Z</time>
      </trkpt>
      <trkpt lat="45.6317" lon="6.66915">
        <ele>2022.27</ele>
        <time>2018-02-06T10:16:20Z</time>
      </trkpt>
      <trkpt lat="45.63169" lon="6.66914">
        <ele>2023.23</ele>
        <time>2018-02-06T10:16:22Z</time>
      </trkpt>
      <trkpt lat="45.6317" lon="6.66907">
        <ele>2024.67</ele>
        <time>2018-02-06T10:16:36Z</time>
      </trkpt>
      <trkpt lat="45.63169" lon="6.66901">
        <ele>2026.12</ele>
        <time>2018-02-06T10:16:49Z</time>
      </trkpt>
      <trkpt lat="45.63173" lon="6.66893">
        <ele>2028.52</ele>
        <time>2018-02-06T10:17:03Z</time>
      </trkpt>
      <trkpt lat="45.63179" lon="6.66899">
        <ele>2031.4</ele>
        <time>2018-02-06T10:17:13Z</time>
      </trkpt>
      <trkpt lat="45.63188" lon="6.66906">
        <ele>2032.36</ele>
        <time>2018-02-06T10:17:27Z</time>
      </trkpt>
      <trkpt lat="45.63196" lon="6.66914">
        <ele>2031.88</ele>
        <time>2018-02-06T10:17:41Z</time>
      </trkpt>
      <trkpt lat="45.63199" lon="6.66918">
        <ele>2031.4</ele>
        <time>2018-02-06T10:17:47Z</time>
      </trkpt>
      <trkpt lat="45.63207" lon="6.66924">
        <ele>2031.88</ele>
        <time>2018-02-06T10:17:58Z</time>
      </trkpt>
      <trkpt lat="45.6321" lon="6.66925">
        <ele>2032.36</ele>
        <time>2018-02-06T10:18:03Z</time>
      </trkpt>
      <trkpt lat="45.63216" lon="6.66917">
        <ele>2034.77</ele>
        <time>2018-02-06T10:18:16Z</time>
      </trkpt>
      <trkpt lat="45.63216" lon="6.66916">
        <ele>2033.33</ele>
        <time>2018-02-06T10:18:34Z</time>
      </trkpt>
      <trkpt lat="45.63215" lon="6.66916">
        <ele>2031.4</ele>
        <time>2018-02-06T10:18:43Z</time>
      </trkpt>
      <trkpt lat="45.63215" lon="6.66914">
        <ele>2029.96</ele>
        <time>2018-02-06T10:19:03Z</time>
      </trkpt>
      <trkpt lat="45.63217" lon="6.66916">
        <ele>2030.92</ele>
        <time>2018-02-06T10:19:10Z</time>
      </trkpt>
      <trkpt lat="45.63219" lon="6.6691">
        <ele>2027.56</ele>
        <time>2018-02-06T10:19:21Z</time>
      </trkpt>
      <trkpt lat="45.63215" lon="6.66913">
        <ele>2025.64</ele>
        <time>2018-02-06T10:19:35Z</time>
      </trkpt>
      <trkpt lat="45.63208" lon="6.66923">
        <ele>2023.71</ele>
        <time>2018-02-06T10:20:10Z</time>
      </trkpt>
    </trkseg>
  </trk>
  <trk>
    <name><![CDATA[BALME LES PARS]]></name>
    <trkseg>
      <trkpt lat="45.63209" lon="6.66913">
        <ele>2019.39</ele>
        <time>2018-02-08T14:23:14Z</time>
      </trkpt>
      <trkpt lat="45.63209" lon="6.66913">
        <ele>2019.39</ele>
        <time>2018-02-08T14:23:15Z</time>
      </trkpt>
      <trkpt lat="45.63209" lon="6.66913">
        <ele>2017.46</ele>
        <time>2018-02-08T14:23:22Z</time>
      </trkpt>
      <trkpt lat="45.63208" lon="6.66914">
        <ele>2016.98</ele>
        <time>2018-02-08T14:23:55Z</time>
      </trkpt>
      <trkpt lat="45.63208" lon="6.66913">
        <ele>2016.98</ele>
        <time>2018-02-08T14:24:04Z</time>
      </trkpt>
      <trkpt lat="45.63207" lon="6.66912">
        <ele>2016.98</ele>
        <time>2018-02-08T14:24:32Z</time>
      </trkpt>
      <trkpt lat="45.63206" lon="6.66913">
        <ele>2016.02</ele>
        <time>2018-02-08T14:24:45Z</time>
      </trkpt>
      <trkpt lat="45.63204" lon="6.66912">
        <ele>2016.02</ele>
        <time>2018-02-08T14:25:12Z</time>
      </trkpt>
      <trkpt lat="45.63202" lon="6.6691">
        <ele>2016.02</ele>
        <time>2018-02-08T14:25:56Z</time>
      </trkpt>
      <trkpt lat="45.63202" lon="6.66909">
        <ele>2016.02</ele>
        <time>2018-02-08T14:26:36Z</time>
      </trkpt>
      <trkpt lat="45.63199" lon="6.66911">
        <ele>2016.5</ele>
        <time>2018-02-08T14:27:16Z</time>
      </trkpt>
      <trkpt lat="45.632" lon="6.6691">
        <ele>2016.5</ele>
        <time>2018-02-08T14:27:34Z</time>
      </trkpt>
      <trkpt lat="45.63198" lon="6.66903">
        <ele>2016.5</ele>
        <time>2018-02-08T14:28:05Z</time>
      </trkpt>
      <trkpt lat="45.63197" lon="6.66909">
        <ele>2016.5</ele>
        <time>2018-02-08T14:28:31Z</time>
      </trkpt>
      <trkpt lat="45.63201" lon="6.6691">
        <ele>2016.5</ele>
        <time>2018-02-08T14:29:03Z</time>
      </trkpt>
      <trkpt lat="45.63206" lon="6.6691">
        <ele>2016.98</ele>
        <time>2018-02-08T14:29:29Z</time>
      </trkpt>
      <trkpt lat="45.63204" lon="6.66908">
        <ele>2016.98</ele>
        <time>2018-02-08T14:29:56Z</time>
      </trkpt>
      <trkpt lat="45.63205" lon="6.66912">
        <ele>2016.98</ele>
        <time>2018-02-08T14:30:24Z</time>
      </trkpt>
      <trkpt lat="45.63204" lon="6.6691">
        <ele>2016.98</ele>
        <time>2018-02-08T14:30:49Z</time>
      </trkpt>
      <trkpt lat="45.63207" lon="6.66914">
        <ele>2016.98</ele>
        <time>2018-02-08T14:31:17Z</time>
      </trkpt>
      <trkpt lat="45.6321" lon="6.66915">
        <ele>2016.98</ele>
        <time>2018-02-08T14:31:43Z</time>
      </trkpt>
      <trkpt lat="45.63203" lon="6.66914">
        <ele>2016.5</ele>
        <time>2018-02-08T14:32:17Z</time>
      </trkpt>
      <trkpt lat="45.632" lon="6.66913">
        <ele>2016.5</ele>
        <time>2018-02-08T14:32:32Z</time>
      </trkpt>
      <trkpt lat="45.63201" lon="6.66912">
        <ele>2016.5</ele>
        <time>2018-02-08T14:32:54Z</time>
      </trkpt>
      <trkpt lat="45.63206" lon="6.66911">
        <ele>2016.5</ele>
        <time>2018-02-08T14:33:22Z</time>
      </trkpt>
      <trkpt lat="45.63206" lon="6.66912">
        <ele>2016.5</ele>
        <time>2018-02-08T14:33:47Z</time>
      </trkpt>
      <trkpt lat="45.63204" lon="6.6691">
        <ele>2017.46</ele>
        <time>2018-02-08T14:34:18Z</time>
      </trkpt>
      <trkpt lat="45.63205" lon="6.66911">
        <ele>2017.46</ele>
        <time>2018-02-08T14:34:35Z</time>
      </trkpt>
      <trkpt lat="45.63206" lon="6.66912">
        <ele>2018.43</ele>
        <time>2018-02-08T14:34:54Z</time>
      </trkpt>
      <trkpt lat="45.63205" lon="6.66913">
        <ele>2017.46</ele>
        <time>2018-02-08T14:35:22Z</time>
      </trkpt>
      <trkpt lat="45.63206" lon="6.66913">
        <ele>2017.46</ele>
        <time>2018-02-08T14:35:36Z</time>
      </trkpt>
      <trkpt lat="45.63207" lon="6.66912">
        <ele>2017.94</ele>
        <time>2018-02-08T14:35:49Z</time>
      </trkpt>
      <trkpt lat="45.63203" lon="6.66914">
        <ele>2017.46</ele>
        <time>2018-02-08T14:36:08Z</time>
      </trkpt>
      <trkpt lat="45.63204" lon="6.66913">
        <ele>2017.46</ele>
        <time>2018-02-08T14:36:24Z</time>
      </trkpt>
      <trkpt lat="45.63207" lon="6.66916">
        <ele>2017.94</ele>
        <time>2018-02-08T14:36:44Z</time>
      </trkpt>
      <trkpt lat="45.63205" lon="6.66916">
        <ele>2017.94</ele>
        <time>2018-02-08T14:37:06Z</time>
      </trkpt>
      <trkpt lat="45.63204" lon="6.66917">
        <ele>2016.98</ele>
        <time>2018-02-08T14:37:32Z</time>
      </trkpt>
      <trkpt lat="45.63202" lon="6.66912">
        <ele>2017.46</ele>
        <time>2018-02-08T14:38:00Z</time>
      </trkpt>
      <trkpt lat="45.63206" lon="6.66913">
        <ele>2017.46</ele>
        <time>2018-02-08T14:38:20Z</time>
      </trkpt>
      <trkpt lat="45.63205" lon="6.66915">
        <ele>2017.94</ele>
        <time>2018-02-08T14:38:49Z</time>
      </trkpt>
      <trkpt lat="45.63205" lon="6.66914">
        <ele>2017.94</ele>
        <time>2018-02-08T14:39:15Z</time>
      </trkpt>
      <trkpt lat="45.63205" lon="6.66915">
        <ele>2017.46</ele>
        <time>2018-02-08T14:39:37Z</time>
      </trkpt>
      <trkpt lat="45.63205" lon="6.66915">
        <ele>2017.46</ele>
        <time>2018-02-08T14:40:03Z</time>
      </trkpt>
      <trkpt lat="45.63206" lon="6.66916">
        <ele>2017.46</ele>
        <time>2018-02-08T14:40:28Z</time>
      </trkpt>
      <trkpt lat="45.63207" lon="6.66919">
        <ele>2017.46</ele>
        <time>2018-02-08T14:40:31Z</time>
      </trkpt>
      <trkpt lat="45.63206" lon="6.66922">
        <ele>2016.98</ele>
        <time>2018-02-08T14:40:32Z</time>
      </trkpt>
      <trkpt lat="45.63204" lon="6.66928">
        <ele>2016.5</ele>
        <time>2018-02-08T14:40:34Z</time>
      </trkpt>
      <trkpt lat="45.63204" lon="6.66931">
        <ele>2015.54</ele>
        <time>2018-02-08T14:40:35Z</time>
      </trkpt>
      <trkpt lat="45.63207" lon="6.66933">
        <ele>2014.58</ele>
        <time>2018-02-08T14:40:36Z</time>
      </trkpt>
      <trkpt lat="45.6321" lon="6.66936">
        <ele>2014.58</ele>
        <time>2018-02-08T14:40:37Z</time>
      </trkpt>
      <trkpt lat="45.63213" lon="6.66938">
        <ele>2014.1</ele>
        <time>2018-02-08T14:40:38Z</time>
      </trkpt>
      <trkpt lat="45.63225" lon="6.66947">
        <ele>2011.22</ele>
        <time>2018-02-08T14:40:41Z</time>
      </trkpt>
      <trkpt lat="45.63229" lon="6.6695">
        <ele>2010.25</ele>
        <time>2018-02-08T14:40:42Z</time>
      </trkpt>
      <trkpt lat="45.63234" lon="6.66954">
        <ele>2009.77</ele>
        <time>2018-02-08T14:40:43Z</time>
      </trkpt>
      <trkpt lat="45.63239" lon="6.66958">
        <ele>2008.81</ele>
        <time>2018-02-08T14:40:44Z</time>
      </trkpt>
      <trkpt lat="45.63244" lon="6.66961">
        <ele>2007.85</ele>
        <time>2018-02-08T14:40:45Z</time>
      </trkpt>
      <trkpt lat="45.63249" lon="6.66964">
        <ele>2006.41</ele>
        <time>2018-02-08T14:40:46Z</time>
      </trkpt>
      <trkpt lat="45.63254" lon="6.66969">
        <ele>2004.97</ele>
        <time>2018-02-08T14:40:47Z</time>
      </trkpt>
      <trkpt lat="45.63259" lon="6.66974">
        <ele>2004.49</ele>
        <time>2018-02-08T14:40:48Z</time>
      </trkpt>
      <trkpt lat="45.63264" lon="6.66977">
        <ele>2003.04</ele>
        <time>2018-02-08T14:40:49Z</time>
      </trkpt>
      <trkpt lat="45.63268" lon="6.66979">
        <ele>2002.08</ele>
        <time>2018-02-08T14:40:50Z</time>
      </trkpt>
      <trkpt lat="45.63271" lon="6.6698">
        <ele>2002.08</ele>
        <time>2018-02-08T14:40:51Z</time>
      </trkpt>
      <trkpt lat="45.6328" lon="6.66989">
        <ele>2001.6</ele>
        <time>2018-02-08T14:40:55Z</time>
      </trkpt>
      <trkpt lat="45.63283" lon="6.66993">
        <ele>2001.12</ele>
        <time>2018-02-08T14:40:56Z</time>
      </trkpt>
      <trkpt lat="45.63287" lon="6.66996">
        <ele>2000.16</ele>
        <time>2018-02-08T14:40:57Z</time>
      </trkpt>
      <trkpt lat="45.63297" lon="6.67003">
        <ele>1998.24</ele>
        <time>2018-02-08T14:40:59Z</time>
      </trkpt>
      <trkpt lat="45.63305" lon="6.67011">
        <ele>1997.28</ele>
        <time>2018-02-08T14:41:01Z</time>
      </trkpt>
      <trkpt lat="45.63309" lon="6.67015">
        <ele>1996.8</ele>
        <time>2018-02-08T14:41:02Z</time>
      </trkpt>
      <trkpt lat="45.63313" lon="6.67017">
        <ele>1996.32</ele>
        <time>2018-02-08T14:41:03Z</time>
      </trkpt>
      <trkpt lat="45.63331" lon="6.6703">
        <ele>1994.87</ele>
        <time>2018-02-08T14:41:09Z</time>
      </trkpt>
      <trkpt lat="45.63336" lon="6.6703">
        <ele>1994.87</ele>
        <time>2018-02-08T14:41:13Z</time>
      </trkpt>
      <trkpt lat="45.63352" lon="6.67033">
        <ele>1990.55</ele>
        <time>2018-02-08T14:41:17Z</time>
      </trkpt>
      <trkpt lat="45.63354" lon="6.67033">
        <ele>1991.03</ele>
        <time>2018-02-08T14:41:18Z</time>
      </trkpt>
      <trkpt lat="45.63356" lon="6.67035">
        <ele>1991.03</ele>
        <time>2018-02-08T14:41:20Z</time>
      </trkpt>
      <trkpt lat="45.63365" lon="6.67053">
        <ele>1988.14</ele>
        <time>2018-02-08T14:41:27Z</time>
      </trkpt>
      <trkpt lat="45.63355" lon="6.67049">
        <ele>1985.74</ele>
        <time>2018-02-08T14:41:31Z</time>
      </trkpt>
      <trkpt lat="45.63353" lon="6.67047">
        <ele>1985.26</ele>
        <time>2018-02-08T14:41:32Z</time>
      </trkpt>
      <trkpt lat="45.63356" lon="6.67058">
        <ele>1982.86</ele>
        <time>2018-02-08T14:41:36Z</time>
      </trkpt>
      <trkpt lat="45.63358" lon="6.67062">
        <ele>1982.86</ele>
        <time>2018-02-08T14:41:37Z</time>
      </trkpt>
      <trkpt lat="45.63362" lon="6.67072">
        <ele>1980.93</ele>
        <time>2018-02-08T14:41:40Z</time>
      </trkpt>
      <trkpt lat="45.63361" lon="6.67076">
        <ele>1980.45</ele>
        <time>2018-02-08T14:41:41Z</time>
      </trkpt>
      <trkpt lat="45.63354" lon="6.67077">
        <ele>1978.05</ele>
        <time>2018-02-08T14:41:43Z</time>
      </trkpt>
      <trkpt lat="45.6335" lon="6.67074">
        <ele>1977.09</ele>
        <time>2018-02-08T14:41:44Z</time>
      </trkpt>
      <trkpt lat="45.63347" lon="6.67071">
        <ele>1976.61</ele>
        <time>2018-02-08T14:41:45Z</time>
      </trkpt>
      <trkpt lat="45.63344" lon="6.67069">
        <ele>1975.65</ele>
        <time>2018-02-08T14:41:46Z</time>
      </trkpt>
      <trkpt lat="45.63342" lon="6.67067">
        <ele>1976.13</ele>
        <time>2018-02-08T14:41:47Z</time>
      </trkpt>
      <trkpt lat="45.6334" lon="6.67067">
        <ele>1975.65</ele>
        <time>2018-02-08T14:41:48Z</time>
      </trkpt>
      <trkpt lat="45.6334" lon="6.6707">
        <ele>1975.65</ele>
        <time>2018-02-08T14:41:49Z</time>
      </trkpt>
      <trkpt lat="45.63341" lon="6.67075">
        <ele>1974.69</ele>
        <time>2018-02-08T14:41:50Z</time>
      </trkpt>
      <trkpt lat="45.63344" lon="6.67079">
        <ele>1973.72</ele>
        <time>2018-02-08T14:41:51Z</time>
      </trkpt>
      <trkpt lat="45.63354" lon="6.671">
        <ele>1970.84</ele>
        <time>2018-02-08T14:41:56Z</time>
      </trkpt>
      <trkpt lat="45.63352" lon="6.67105">
        <ele>1969.4</ele>
        <time>2018-02-08T14:41:57Z</time>
      </trkpt>
      <trkpt lat="45.63349" lon="6.67107">
        <ele>1968.92</ele>
        <time>2018-02-08T14:41:58Z</time>
      </trkpt>
      <trkpt lat="45.63344" lon="6.67106">
        <ele>1967.48</ele>
        <time>2018-02-08T14:41:59Z</time>
      </trkpt>
      <trkpt lat="45.63339" lon="6.67104">
        <ele>1966.51</ele>
        <time>2018-02-08T14:42:00Z</time>
      </trkpt>
      <trkpt lat="45.63335" lon="6.67102">
        <ele>1966.51</ele>
        <time>2018-02-08T14:42:01Z</time>
      </trkpt>
      <trkpt lat="45.63332" lon="6.67101">
        <ele>1966.03</ele>
        <time>2018-02-08T14:42:02Z</time>
      </trkpt>
      <trkpt lat="45.63328" lon="6.67117">
        <ele>1962.67</ele>
        <time>2018-02-08T14:42:07Z</time>
      </trkpt>
      <trkpt lat="45.63337" lon="6.67129">
        <ele>1958.82</ele>
        <time>2018-02-08T14:42:13Z</time>
      </trkpt>
      <trkpt lat="45.63333" lon="6.6713">
        <ele>1959.3</ele>
        <time>2018-02-08T14:42:14Z</time>
      </trkpt>
      <trkpt lat="45.63318" lon="6.67132">
        <ele>1956.42</ele>
        <time>2018-02-08T14:42:19Z</time>
      </trkpt>
      <trkpt lat="45.63324" lon="6.67144">
        <ele>1953.06</ele>
        <time>2018-02-08T14:42:23Z</time>
      </trkpt>
      <trkpt lat="45.63326" lon="6.67144">
        <ele>1952.09</ele>
        <time>2018-02-08T14:42:24Z</time>
      </trkpt>
      <trkpt lat="45.63351" lon="6.67159">
        <ele>1948.73</ele>
        <time>2018-02-08T14:42:33Z</time>
      </trkpt>
      <trkpt lat="45.63338" lon="6.67169">
        <ele>1945.36</ele>
        <time>2018-02-08T14:42:38Z</time>
      </trkpt>
      <trkpt lat="45.63335" lon="6.6717">
        <ele>1945.36</ele>
        <time>2018-02-08T14:42:39Z</time>
      </trkpt>
      <trkpt lat="45.6332" lon="6.67169">
        <ele>1942.96</ele>
        <time>2018-02-08T14:42:44Z</time>
      </trkpt>
      <trkpt lat="45.63323" lon="6.67179">
        <ele>1940.08</ele>
        <time>2018-02-08T14:42:49Z</time>
      </trkpt>
      <trkpt lat="45.63338" lon="6.67192">
        <ele>1938.16</ele>
        <time>2018-02-08T14:42:57Z</time>
      </trkpt>
      <trkpt lat="45.63332" lon="6.67192">
        <ele>1936.23</ele>
        <time>2018-02-08T14:43:00Z</time>
      </trkpt>
      <trkpt lat="45.6333" lon="6.67192">
        <ele>1936.23</ele>
        <time>2018-02-08T14:43:03Z</time>
      </trkpt>
      <trkpt lat="45.63339" lon="6.67205">
        <ele>1932.39</ele>
        <time>2018-02-08T14:43:10Z</time>
      </trkpt>
      <trkpt lat="45.6335" lon="6.67232">
        <ele>1929.98</ele>
        <time>2018-02-08T14:43:17Z</time>
      </trkpt>
      <trkpt lat="45.63356" lon="6.67256">
        <ele>1927.1</ele>
        <time>2018-02-08T14:43:23Z</time>
      </trkpt>
      <trkpt lat="45.63363" lon="6.67289">
        <ele>1922.77</ele>
        <time>2018-02-08T14:43:29Z</time>
      </trkpt>
      <trkpt lat="45.63363" lon="6.67315">
        <ele>1922.29</ele>
        <time>2018-02-08T14:43:37Z</time>
      </trkpt>
      <trkpt lat="45.63362" lon="6.67317">
        <ele>1922.29</ele>
        <time>2018-02-08T14:43:59Z</time>
      </trkpt>
      <trkpt lat="45.6336" lon="6.67313">
        <ele>1922.29</ele>
        <time>2018-02-08T14:44:18Z</time>
      </trkpt>
      <trkpt lat="45.63362" lon="6.67315">
        <ele>1922.77</ele>
        <time>2018-02-08T14:44:37Z</time>
      </trkpt>
      <trkpt lat="45.63351" lon="6.67308">
        <ele>1919.89</ele>
        <time>2018-02-08T14:44:42Z</time>
      </trkpt>
      <trkpt lat="45.63339" lon="6.67281">
        <ele>1917.49</ele>
        <time>2018-02-08T14:44:50Z</time>
      </trkpt>
      <trkpt lat="45.6333" lon="6.67276">
        <ele>1915.08</ele>
        <time>2018-02-08T14:44:53Z</time>
      </trkpt>
      <trkpt lat="45.6331" lon="6.67258">
        <ele>1912.2</ele>
        <time>2018-02-08T14:45:02Z</time>
      </trkpt>
      <trkpt lat="45.63303" lon="6.67272">
        <ele>1908.83</ele>
        <time>2018-02-08T14:45:06Z</time>
      </trkpt>
      <trkpt lat="45.633" lon="6.67282">
        <ele>1907.87</ele>
        <time>2018-02-08T14:45:08Z</time>
      </trkpt>
      <trkpt lat="45.63289" lon="6.67285">
        <ele>1903.55</ele>
        <time>2018-02-08T14:45:11Z</time>
      </trkpt>
      <trkpt lat="45.63284" lon="6.67291">
        <ele>1902.11</ele>
        <time>2018-02-08T14:45:13Z</time>
      </trkpt>
      <trkpt lat="45.63268" lon="6.67301">
        <ele>1898.74</ele>
        <time>2018-02-08T14:45:18Z</time>
      </trkpt>
      <trkpt lat="45.63256" lon="6.67308">
        <ele>1895.86</ele>
        <time>2018-02-08T14:45:21Z</time>
      </trkpt>
      <trkpt lat="45.6325" lon="6.67321">
        <ele>1892.01</ele>
        <time>2018-02-08T14:45:24Z</time>
      </trkpt>
      <trkpt lat="45.63248" lon="6.67327">
        <ele>1891.53</ele>
        <time>2018-02-08T14:45:25Z</time>
      </trkpt>
      <trkpt lat="45.63237" lon="6.67341">
        <ele>1888.65</ele>
        <time>2018-02-08T14:45:28Z</time>
      </trkpt>
      <trkpt lat="45.63224" lon="6.67354">
        <ele>1888.17</ele>
        <time>2018-02-08T14:45:33Z</time>
      </trkpt>
      <trkpt lat="45.63208" lon="6.67352">
        <ele>1883.84</ele>
        <time>2018-02-08T14:45:38Z</time>
      </trkpt>
      <trkpt lat="45.63196" lon="6.67368">
        <ele>1880.48</ele>
        <time>2018-02-08T14:45:41Z</time>
      </trkpt>
      <trkpt lat="45.63186" lon="6.67378">
        <ele>1879.51</ele>
        <time>2018-02-08T14:45:47Z</time>
      </trkpt>
      <trkpt lat="45.63174" lon="6.67391">
        <ele>1877.59</ele>
        <time>2018-02-08T14:45:52Z</time>
      </trkpt>
      <trkpt lat="45.63159" lon="6.67371">
        <ele>1874.71</ele>
        <time>2018-02-08T14:45:58Z</time>
      </trkpt>
      <trkpt lat="45.63147" lon="6.67372">
        <ele>1872.3</ele>
        <time>2018-02-08T14:46:01Z</time>
      </trkpt>
      <trkpt lat="45.63128" lon="6.67382">
        <ele>1868.94</ele>
        <time>2018-02-08T14:46:05Z</time>
      </trkpt>
      <trkpt lat="45.63108" lon="6.67401">
        <ele>1866.54</ele>
        <time>2018-02-08T14:46:10Z</time>
      </trkpt>
      <trkpt lat="45.63102" lon="6.67411">
        <ele>1865.09</ele>
        <time>2018-02-08T14:46:12Z</time>
      </trkpt>
      <trkpt lat="45.63093" lon="6.67424">
        <ele>1863.65</ele>
        <time>2018-02-08T14:46:15Z</time>
      </trkpt>
      <trkpt lat="45.63078" lon="6.67422">
        <ele>1861.25</ele>
        <time>2018-02-08T14:46:19Z</time>
      </trkpt>
      <trkpt lat="45.6307" lon="6.67427">
        <ele>1859.33</ele>
        <time>2018-02-08T14:46:23Z</time>
      </trkpt>
      <trkpt lat="45.63054" lon="6.67455">
        <ele>1855.96</ele>
        <time>2018-02-08T14:46:29Z</time>
      </trkpt>
      <trkpt lat="45.63048" lon="6.67465">
        <ele>1854.52</ele>
        <time>2018-02-08T14:46:31Z</time>
      </trkpt>
      <trkpt lat="45.63038" lon="6.67479">
        <ele>1852.6</ele>
        <time>2018-02-08T14:46:34Z</time>
      </trkpt>
      <trkpt lat="45.63021" lon="6.6751">
        <ele>1850.19</ele>
        <time>2018-02-08T14:46:41Z</time>
      </trkpt>
      <trkpt lat="45.63017" lon="6.6751">
        <ele>1849.71</ele>
        <time>2018-02-08T14:46:42Z</time>
      </trkpt>
      <trkpt lat="45.63011" lon="6.67509">
        <ele>1848.75</ele>
        <time>2018-02-08T14:46:43Z</time>
      </trkpt>
      <trkpt lat="45.63006" lon="6.67511">
        <ele>1847.31</ele>
        <time>2018-02-08T14:46:44Z</time>
      </trkpt>
      <trkpt lat="45.63004" lon="6.67514">
        <ele>1846.83</ele>
        <time>2018-02-08T14:46:45Z</time>
      </trkpt>
      <trkpt lat="45.63003" lon="6.67516">
        <ele>1846.35</ele>
        <time>2018-02-08T14:46:46Z</time>
      </trkpt>
      <trkpt lat="45.63003" lon="6.67518">
        <ele>1845.87</ele>
        <time>2018-02-08T14:46:58Z</time>
      </trkpt>
      <trkpt lat="45.63004" lon="6.67516">
        <ele>1846.83</ele>
        <time>2018-02-08T14:47:15Z</time>
      </trkpt>
      <trkpt lat="45.63004" lon="6.67518">
        <ele>1846.83</ele>
        <time>2018-02-08T14:47:40Z</time>
      </trkpt>
      <trkpt lat="45.63004" lon="6.67517">
        <ele>1846.83</ele>
        <time>2018-02-08T14:48:06Z</time>
      </trkpt>
      <trkpt lat="45.63004" lon="6.67517">
        <ele>1847.31</ele>
        <time>2018-02-08T14:48:37Z</time>
      </trkpt>
      <trkpt lat="45.63004" lon="6.67517">
        <ele>1847.31</ele>
        <time>2018-02-08T14:49:07Z</time>
      </trkpt>
      <trkpt lat="45.63004" lon="6.67517">
        <ele>1847.31</ele>
        <time>2018-02-08T14:49:39Z</time>
      </trkpt>
      <trkpt lat="45.63005" lon="6.67518">
        <ele>1847.31</ele>
        <time>2018-02-08T14:50:02Z</time>
      </trkpt>
      <trkpt lat="45.63003" lon="6.6752">
        <ele>1847.31</ele>
        <time>2018-02-08T14:50:15Z</time>
      </trkpt>
      <trkpt lat="45.63001" lon="6.67521">
        <ele>1847.31</ele>
        <time>2018-02-08T14:50:16Z</time>
      </trkpt>
      <trkpt lat="45.62982" lon="6.67529">
        <ele>1843.95</ele>
        <time>2018-02-08T14:50:21Z</time>
      </trkpt>
      <trkpt lat="45.62964" lon="6.67539">
        <ele>1841.06</ele>
        <time>2018-02-08T14:50:25Z</time>
      </trkpt>
      <trkpt lat="45.62954" lon="6.67542">
        <ele>1840.1</ele>
        <time>2018-02-08T14:50:27Z</time>
      </trkpt>
      <trkpt lat="45.62935" lon="6.6755">
        <ele>1836.74</ele>
        <time>2018-02-08T14:50:31Z</time>
      </trkpt>
      <trkpt lat="45.62913" lon="6.67559">
        <ele>1832.89</ele>
        <time>2018-02-08T14:50:35Z</time>
      </trkpt>
      <trkpt lat="45.62893" lon="6.67565">
        <ele>1831.45</ele>
        <time>2018-02-08T14:50:39Z</time>
      </trkpt>
      <trkpt lat="45.62858" lon="6.67583">
        <ele>1828.08</ele>
        <time>2018-02-08T14:50:49Z</time>
      </trkpt>
      <trkpt lat="45.6285" lon="6.67587">
        <ele>1827.6</ele>
        <time>2018-02-08T14:50:51Z</time>
      </trkpt>
      <trkpt lat="45.62846" lon="6.6759">
        <ele>1826.64</ele>
        <time>2018-02-08T14:50:52Z</time>
      </trkpt>
      <trkpt lat="45.62842" lon="6.67593">
        <ele>1826.64</ele>
        <time>2018-02-08T14:50:53Z</time>
      </trkpt>
      <trkpt lat="45.62838" lon="6.67596">
        <ele>1826.16</ele>
        <time>2018-02-08T14:50:54Z</time>
      </trkpt>
      <trkpt lat="45.62835" lon="6.67599">
        <ele>1825.2</ele>
        <time>2018-02-08T14:50:55Z</time>
      </trkpt>
      <trkpt lat="45.62831" lon="6.67604">
        <ele>1825.2</ele>
        <time>2018-02-08T14:50:56Z</time>
      </trkpt>
      <trkpt lat="45.62828" lon="6.67608">
        <ele>1824.72</ele>
        <time>2018-02-08T14:50:57Z</time>
      </trkpt>
      <trkpt lat="45.62821" lon="6.67617">
        <ele>1823.76</ele>
        <time>2018-02-08T14:50:59Z</time>
      </trkpt>
      <trkpt lat="45.62799" lon="6.67642">
        <ele>1819.43</ele>
        <time>2018-02-08T14:51:04Z</time>
      </trkpt>
      <trkpt lat="45.62773" lon="6.67669">
        <ele>1816.07</ele>
        <time>2018-02-08T14:51:13Z</time>
      </trkpt>
      <trkpt lat="45.62749" lon="6.67684">
        <ele>1812.22</ele>
        <time>2018-02-08T14:51:18Z</time>
      </trkpt>
      <trkpt lat="45.6274" lon="6.67692">
        <ele>1810.78</ele>
        <time>2018-02-08T14:51:20Z</time>
      </trkpt>
      <trkpt lat="45.6273" lon="6.67699">
        <ele>1809.82</ele>
        <time>2018-02-08T14:51:22Z</time>
      </trkpt>
      <trkpt lat="45.6272" lon="6.67704">
        <ele>1808.86</ele>
        <time>2018-02-08T14:51:24Z</time>
      </trkpt>
      <trkpt lat="45.6271" lon="6.6771">
        <ele>1807.42</ele>
        <time>2018-02-08T14:51:26Z</time>
      </trkpt>
      <trkpt lat="45.6269" lon="6.67733">
        <ele>1804.05</ele>
        <time>2018-02-08T14:51:31Z</time>
      </trkpt>
      <trkpt lat="45.62663" lon="6.6775">
        <ele>1799.73</ele>
        <time>2018-02-08T14:51:36Z</time>
      </trkpt>
      <trkpt lat="45.62658" lon="6.67753">
        <ele>1799.24</ele>
        <time>2018-02-08T14:51:37Z</time>
      </trkpt>
      <trkpt lat="45.62633" lon="6.67762">
        <ele>1796.36</ele>
        <time>2018-02-08T14:51:41Z</time>
      </trkpt>
      <trkpt lat="45.6262" lon="6.67768">
        <ele>1793.96</ele>
        <time>2018-02-08T14:51:43Z</time>
      </trkpt>
      <trkpt lat="45.626" lon="6.67788">
        <ele>1792.52</ele>
        <time>2018-02-08T14:51:51Z</time>
      </trkpt>
      <trkpt lat="45.62587" lon="6.67797">
        <ele>1790.11</ele>
        <time>2018-02-08T14:51:55Z</time>
      </trkpt>
      <trkpt lat="45.62576" lon="6.67808">
        <ele>1788.67</ele>
        <time>2018-02-08T14:51:58Z</time>
      </trkpt>
      <trkpt lat="45.62565" lon="6.67821">
        <ele>1787.23</ele>
        <time>2018-02-08T14:52:02Z</time>
      </trkpt>
      <trkpt lat="45.62561" lon="6.67808">
        <ele>1785.31</ele>
        <time>2018-02-08T14:52:06Z</time>
      </trkpt>
      <trkpt lat="45.62562" lon="6.67798">
        <ele>1785.31</ele>
        <time>2018-02-08T14:52:08Z</time>
      </trkpt>
      <trkpt lat="45.62548" lon="6.67792">
        <ele>1780.5</ele>
        <time>2018-02-08T14:52:12Z</time>
      </trkpt>
      <trkpt lat="45.62534" lon="6.67803">
        <ele>1776.17</ele>
        <time>2018-02-08T14:52:15Z</time>
      </trkpt>
      <trkpt lat="45.62533" lon="6.67807">
        <ele>1776.17</ele>
        <time>2018-02-08T14:52:16Z</time>
      </trkpt>
      <trkpt lat="45.62514" lon="6.67827">
        <ele>1773.29</ele>
        <time>2018-02-08T14:52:22Z</time>
      </trkpt>
      <trkpt lat="45.625" lon="6.67839">
        <ele>1771.37</ele>
        <time>2018-02-08T14:52:25Z</time>
      </trkpt>
      <trkpt lat="45.62491" lon="6.67852">
        <ele>1769.92</ele>
        <time>2018-02-08T14:52:28Z</time>
      </trkpt>
      <trkpt lat="45.62487" lon="6.67856">
        <ele>1770.41</ele>
        <time>2018-02-08T14:52:32Z</time>
      </trkpt>
      <trkpt lat="45.62476" lon="6.67859">
        <ele>1768.96</ele>
        <time>2018-02-08T14:52:36Z</time>
      </trkpt>
      <trkpt lat="45.6246" lon="6.6787">
        <ele>1765.6</ele>
        <time>2018-02-08T14:52:40Z</time>
      </trkpt>
      <trkpt lat="45.62454" lon="6.67876">
        <ele>1765.12</ele>
        <time>2018-02-08T14:52:42Z</time>
      </trkpt>
      <trkpt lat="45.62442" lon="6.6789">
        <ele>1763.68</ele>
        <time>2018-02-08T14:52:48Z</time>
      </trkpt>
      <trkpt lat="45.62439" lon="6.6787">
        <ele>1761.27</ele>
        <time>2018-02-08T14:52:54Z</time>
      </trkpt>
      <trkpt lat="45.62441" lon="6.6786">
        <ele>1760.31</ele>
        <time>2018-02-08T14:52:58Z</time>
      </trkpt>
      <trkpt lat="45.62441" lon="6.6785">
        <ele>1759.83</ele>
        <time>2018-02-08T14:53:02Z</time>
      </trkpt>
      <trkpt lat="45.62432" lon="6.67826">
        <ele>1757.91</ele>
        <time>2018-02-08T14:53:08Z</time>
      </trkpt>
      <trkpt lat="45.62429" lon="6.67825">
        <ele>1756.95</ele>
        <time>2018-02-08T14:53:09Z</time>
      </trkpt>
      <trkpt lat="45.62427" lon="6.67826">
        <ele>1756.47</ele>
        <time>2018-02-08T14:53:10Z</time>
      </trkpt>
      <trkpt lat="45.62427" lon="6.67828">
        <ele>1755.5</ele>
        <time>2018-02-08T14:53:12Z</time>
      </trkpt>
      <trkpt lat="45.62423" lon="6.6783">
        <ele>1755.5</ele>
        <time>2018-02-08T14:53:18Z</time>
      </trkpt>
      <trkpt lat="45.62403" lon="6.67834">
        <ele>1753.1</ele>
        <time>2018-02-08T14:53:25Z</time>
      </trkpt>
      <trkpt lat="45.62397" lon="6.67834">
        <ele>1752.14</ele>
        <time>2018-02-08T14:53:27Z</time>
      </trkpt>
      <trkpt lat="45.62395" lon="6.67832">
        <ele>1751.18</ele>
        <time>2018-02-08T14:53:30Z</time>
      </trkpt>
      <trkpt lat="45.62392" lon="6.67835">
        <ele>1750.7</ele>
        <time>2018-02-08T14:53:32Z</time>
      </trkpt>
      <trkpt lat="45.62389" lon="6.67837">
        <ele>1750.22</ele>
        <time>2018-02-08T14:53:33Z</time>
      </trkpt>
      <trkpt lat="45.62368" lon="6.67847">
        <ele>1747.33</ele>
        <time>2018-02-08T14:53:39Z</time>
      </trkpt>
      <trkpt lat="45.62365" lon="6.67846">
        <ele>1746.85</ele>
        <time>2018-02-08T14:53:47Z</time>
      </trkpt>
      <trkpt lat="45.6235" lon="6.67851">
        <ele>1744.93</ele>
        <time>2018-02-08T14:53:51Z</time>
      </trkpt>
      <trkpt lat="45.62345" lon="6.67853">
        <ele>1743.97</ele>
        <time>2018-02-08T14:53:52Z</time>
      </trkpt>
      <trkpt lat="45.62341" lon="6.67856">
        <ele>1743.01</ele>
        <time>2018-02-08T14:53:53Z</time>
      </trkpt>
      <trkpt lat="45.62339" lon="6.6786">
        <ele>1742.53</ele>
        <time>2018-02-08T14:53:54Z</time>
      </trkpt>
      <trkpt lat="45.62337" lon="6.67863">
        <ele>1742.53</ele>
        <time>2018-02-08T14:53:55Z</time>
      </trkpt>
      <trkpt lat="45.62336" lon="6.67864">
        <ele>1742.53</ele>
        <time>2018-02-08T14:53:56Z</time>
      </trkpt>
      <trkpt lat="45.62338" lon="6.67865">
        <ele>1743.01</ele>
        <time>2018-02-08T14:54:08Z</time>
      </trkpt>
      <trkpt lat="45.62334" lon="6.67866">
        <ele>1742.53</ele>
        <time>2018-02-08T14:54:28Z</time>
      </trkpt>
      <trkpt lat="45.62331" lon="6.67857">
        <ele>1742.53</ele>
        <time>2018-02-08T14:54:31Z</time>
      </trkpt>
      <trkpt lat="45.62321" lon="6.67853">
        <ele>1738.2</ele>
        <time>2018-02-08T14:54:37Z</time>
      </trkpt>
      <trkpt lat="45.62313" lon="6.67846">
        <ele>1736.76</ele>
        <time>2018-02-08T14:54:43Z</time>
      </trkpt>
      <trkpt lat="45.62312" lon="6.67839">
        <ele>1736.28</ele>
        <time>2018-02-08T14:54:45Z</time>
      </trkpt>
      <trkpt lat="45.62299" lon="6.67828">
        <ele>1733.88</ele>
        <time>2018-02-08T14:54:55Z</time>
      </trkpt>
      <trkpt lat="45.62281" lon="6.67822">
        <ele>1732.43</ele>
        <time>2018-02-08T14:55:06Z</time>
      </trkpt>
      <trkpt lat="45.62258" lon="6.67808">
        <ele>1728.59</ele>
        <time>2018-02-08T14:55:14Z</time>
      </trkpt>
      <trkpt lat="45.62242" lon="6.67799">
        <ele>1726.18</ele>
        <time>2018-02-08T14:55:18Z</time>
      </trkpt>
      <trkpt lat="45.62225" lon="6.67801">
        <ele>1725.22</ele>
        <time>2018-02-08T14:55:22Z</time>
      </trkpt>
      <trkpt lat="45.62215" lon="6.67804">
        <ele>1725.22</ele>
        <time>2018-02-08T14:55:32Z</time>
      </trkpt>
      <trkpt lat="45.62217" lon="6.67805">
        <ele>1725.22</ele>
        <time>2018-02-08T14:56:03Z</time>
      </trkpt>
      <trkpt lat="45.62215" lon="6.67806">
        <ele>1724.74</ele>
        <time>2018-02-08T14:56:17Z</time>
      </trkpt>
      <trkpt lat="45.62215" lon="6.67805">
        <ele>1724.74</ele>
        <time>2018-02-08T14:56:26Z</time>
      </trkpt>
      <trkpt lat="45.62202" lon="6.6781">
        <ele>1722.82</ele>
        <time>2018-02-08T14:56:34Z</time>
      </trkpt>
      <trkpt lat="45.62198" lon="6.67806">
        <ele>1721.86</ele>
        <time>2018-02-08T14:56:36Z</time>
      </trkpt>
      <trkpt lat="45.62182" lon="6.67803">
        <ele>1718.97</ele>
        <time>2018-02-08T14:56:40Z</time>
      </trkpt>
      <trkpt lat="45.62175" lon="6.67798">
        <ele>1717.53</ele>
        <time>2018-02-08T14:56:42Z</time>
      </trkpt>
      <trkpt lat="45.62169" lon="6.6779">
        <ele>1717.05</ele>
        <time>2018-02-08T14:56:44Z</time>
      </trkpt>
      <trkpt lat="45.6214" lon="6.67782">
        <ele>1713.69</ele>
        <time>2018-02-08T14:56:54Z</time>
      </trkpt>
      <trkpt lat="45.6213" lon="6.67778">
        <ele>1711.76</ele>
        <time>2018-02-08T14:56:57Z</time>
      </trkpt>
      <trkpt lat="45.62113" lon="6.67777">
        <ele>1708.88</ele>
        <time>2018-02-08T14:57:00Z</time>
      </trkpt>
      <trkpt lat="45.62103" lon="6.67774">
        <ele>1707.92</ele>
        <time>2018-02-08T14:57:02Z</time>
      </trkpt>
      <trkpt lat="45.62089" lon="6.67768">
        <ele>1706</ele>
        <time>2018-02-08T14:57:05Z</time>
      </trkpt>
      <trkpt lat="45.62045" lon="6.6777">
        <ele>1701.67</ele>
        <time>2018-02-08T14:57:14Z</time>
      </trkpt>
      <trkpt lat="45.62034" lon="6.67769">
        <ele>1700.23</ele>
        <time>2018-02-08T14:57:16Z</time>
      </trkpt>
      <trkpt lat="45.6203" lon="6.67768">
        <ele>1700.23</ele>
        <time>2018-02-08T14:57:17Z</time>
      </trkpt>
      <trkpt lat="45.62001" lon="6.67758">
        <ele>1698.79</ele>
        <time>2018-02-08T14:57:25Z</time>
      </trkpt>
      <trkpt lat="45.61983" lon="6.6775">
        <ele>1695.9</ele>
        <time>2018-02-08T14:57:29Z</time>
      </trkpt>
      <trkpt lat="45.61962" lon="6.67749">
        <ele>1692.06</ele>
        <time>2018-02-08T14:57:35Z</time>
      </trkpt>
      <trkpt lat="45.61954" lon="6.6775">
        <ele>1691.1</ele>
        <time>2018-02-08T14:57:37Z</time>
      </trkpt>
      <trkpt lat="45.6193" lon="6.67751">
        <ele>1687.73</ele>
        <time>2018-02-08T14:57:42Z</time>
      </trkpt>
      <trkpt lat="45.61908" lon="6.67758">
        <ele>1685.33</ele>
        <time>2018-02-08T14:57:47Z</time>
      </trkpt>
      <trkpt lat="45.61885" lon="6.67763">
        <ele>1682.93</ele>
        <time>2018-02-08T14:57:52Z</time>
      </trkpt>
      <trkpt lat="45.61877" lon="6.67766">
        <ele>1681.48</ele>
        <time>2018-02-08T14:57:54Z</time>
      </trkpt>
      <trkpt lat="45.61863" lon="6.67768">
        <ele>1679.08</ele>
        <time>2018-02-08T14:57:58Z</time>
      </trkpt>
      <trkpt lat="45.61844" lon="6.67776">
        <ele>1675.72</ele>
        <time>2018-02-08T14:58:02Z</time>
      </trkpt>
      <trkpt lat="45.61805" lon="6.67782">
        <ele>1672.83</ele>
        <time>2018-02-08T14:58:11Z</time>
      </trkpt>
      <trkpt lat="45.6176" lon="6.67785">
        <ele>1669.95</ele>
        <time>2018-02-08T14:58:22Z</time>
      </trkpt>
      <trkpt lat="45.61722" lon="6.67789">
        <ele>1666.58</ele>
        <time>2018-02-08T14:58:32Z</time>
      </trkpt>
      <trkpt lat="45.61697" lon="6.67793">
        <ele>1663.7</ele>
        <time>2018-02-08T14:58:38Z</time>
      </trkpt>
      <trkpt lat="45.61656" lon="6.67794">
        <ele>1660.81</ele>
        <time>2018-02-08T14:58:49Z</time>
      </trkpt>
      <trkpt lat="45.61653" lon="6.67796">
        <ele>1660.81</ele>
        <time>2018-02-08T14:58:59Z</time>
      </trkpt>
      <trkpt lat="45.61653" lon="6.67796">
        <ele>1661.3</ele>
        <time>2018-02-08T14:59:18Z</time>
      </trkpt>
      <trkpt lat="45.61636" lon="6.67796">
        <ele>1659.37</ele>
        <time>2018-02-08T14:59:37Z</time>
      </trkpt>
      <trkpt lat="45.61627" lon="6.67796">
        <ele>1658.41</ele>
        <time>2018-02-08T14:59:39Z</time>
      </trkpt>
      <trkpt lat="45.61612" lon="6.67794">
        <ele>1657.93</ele>
        <time>2018-02-08T14:59:42Z</time>
      </trkpt>
      <trkpt lat="45.61599" lon="6.67791">
        <ele>1656.97</ele>
        <time>2018-02-08T14:59:45Z</time>
      </trkpt>
      <trkpt lat="45.61594" lon="6.6779">
        <ele>1656.97</ele>
        <time>2018-02-08T14:59:46Z</time>
      </trkpt>
      <trkpt lat="45.61566" lon="6.67784">
        <ele>1653.12</ele>
        <time>2018-02-08T14:59:51Z</time>
      </trkpt>
      <trkpt lat="45.61561" lon="6.67782">
        <ele>1653.12</ele>
        <time>2018-02-08T14:59:52Z</time>
      </trkpt>
      <trkpt lat="45.61536" lon="6.67781">
        <ele>1649.76</ele>
        <time>2018-02-08T14:59:56Z</time>
      </trkpt>
      <trkpt lat="45.61509" lon="6.67782">
        <ele>1646.88</ele>
        <time>2018-02-08T15:00:00Z</time>
      </trkpt>
      <trkpt lat="45.61468" lon="6.67781">
        <ele>1643.51</ele>
        <time>2018-02-08T15:00:07Z</time>
      </trkpt>
      <trkpt lat="45.61434" lon="6.67781">
        <ele>1640.63</ele>
        <time>2018-02-08T15:00:13Z</time>
      </trkpt>
      <trkpt lat="45.61422" lon="6.6778">
        <ele>1639.67</ele>
        <time>2018-02-08T15:00:15Z</time>
      </trkpt>
      <trkpt lat="45.61393" lon="6.67783">
        <ele>1638.22</ele>
        <time>2018-02-08T15:00:20Z</time>
      </trkpt>
      <trkpt lat="45.61376" lon="6.67786">
        <ele>1635.82</ele>
        <time>2018-02-08T15:00:23Z</time>
      </trkpt>
      <trkpt lat="45.61338" lon="6.67784">
        <ele>1632.94</ele>
        <time>2018-02-08T15:00:30Z</time>
      </trkpt>
      <trkpt lat="45.61332" lon="6.67782">
        <ele>1631.98</ele>
        <time>2018-02-08T15:00:31Z</time>
      </trkpt>
      <trkpt lat="45.61327" lon="6.6778">
        <ele>1631.49</ele>
        <time>2018-02-08T15:00:32Z</time>
      </trkpt>
      <trkpt lat="45.61322" lon="6.67777">
        <ele>1631.01</ele>
        <time>2018-02-08T15:00:33Z</time>
      </trkpt>
      <trkpt lat="45.61282" lon="6.67769">
        <ele>1630.05</ele>
        <time>2018-02-08T15:00:44Z</time>
      </trkpt>
      <trkpt lat="45.61256" lon="6.6777">
        <ele>1626.21</ele>
        <time>2018-02-08T15:00:51Z</time>
      </trkpt>
      <trkpt lat="45.6125" lon="6.6777">
        <ele>1625.25</ele>
        <time>2018-02-08T15:00:52Z</time>
      </trkpt>
      <trkpt lat="45.61246" lon="6.6777">
        <ele>1625.73</ele>
        <time>2018-02-08T15:00:53Z</time>
      </trkpt>
      <trkpt lat="45.61199" lon="6.67764">
        <ele>1622.84</ele>
        <time>2018-02-08T15:01:03Z</time>
      </trkpt>
      <trkpt lat="45.61164" lon="6.67756">
        <ele>1620.92</ele>
        <time>2018-02-08T15:01:15Z</time>
      </trkpt>
      <trkpt lat="45.61141" lon="6.67739">
        <ele>1620.44</ele>
        <time>2018-02-08T15:01:27Z</time>
      </trkpt>
      <trkpt lat="45.61136" lon="6.67728">
        <ele>1621.4</ele>
        <time>2018-02-08T15:01:39Z</time>
      </trkpt>
      <trkpt lat="45.61118" lon="6.67714">
        <ele>1619.96</ele>
        <time>2018-02-08T15:01:51Z</time>
      </trkpt>
      <trkpt lat="45.61105" lon="6.67711">
        <ele>1620.92</ele>
        <time>2018-02-08T15:02:05Z</time>
      </trkpt>
      <trkpt lat="45.61102" lon="6.67711">
        <ele>1621.88</ele>
        <time>2018-02-08T15:02:17Z</time>
      </trkpt>
      <trkpt lat="45.61097" lon="6.67708">
        <ele>1621.4</ele>
        <time>2018-02-08T15:02:25Z</time>
      </trkpt>
      <trkpt lat="45.61097" lon="6.67706">
        <ele>1621.4</ele>
        <time>2018-02-08T15:02:26Z</time>
      </trkpt>
      <trkpt lat="45.61096" lon="6.67703">
        <ele>1620.44</ele>
        <time>2018-02-08T15:02:31Z</time>
      </trkpt>
      <trkpt lat="45.61094" lon="6.67703">
        <ele>1619.96</ele>
        <time>2018-02-08T15:02:32Z</time>
      </trkpt>
      <trkpt lat="45.61094" lon="6.677">
        <ele>1620.44</ele>
        <time>2018-02-08T15:02:40Z</time>
      </trkpt>
      <trkpt lat="45.61093" lon="6.67699">
        <ele>1620.44</ele>
        <time>2018-02-08T15:02:41Z</time>
      </trkpt>
      <trkpt lat="45.61091" lon="6.67698">
        <ele>1620.92</ele>
        <time>2018-02-08T15:02:42Z</time>
      </trkpt>
      <trkpt lat="45.6109" lon="6.67697">
        <ele>1620.44</ele>
        <time>2018-02-08T15:02:43Z</time>
      </trkpt>
      <trkpt lat="45.61089" lon="6.67696">
        <ele>1620.44</ele>
        <time>2018-02-08T15:02:44Z</time>
      </trkpt>
      <trkpt lat="45.61087" lon="6.67696">
        <ele>1620.44</ele>
        <time>2018-02-08T15:02:45Z</time>
      </trkpt>
      <trkpt lat="45.61059" lon="6.67686">
        <ele>1619</ele>
        <time>2018-02-08T15:02:59Z</time>
      </trkpt>
      <trkpt lat="45.61037" lon="6.67677">
        <ele>1619</ele>
        <time>2018-02-08T15:03:13Z</time>
      </trkpt>
      <trkpt lat="45.61035" lon="6.67676">
        <ele>1619</ele>
        <time>2018-02-08T15:03:15Z</time>
      </trkpt>
      <trkpt lat="45.61032" lon="6.67673">
        <ele>1619.48</ele>
        <time>2018-02-08T15:03:18Z</time>
      </trkpt>
      <trkpt lat="45.61031" lon="6.67672">
        <ele>1619.48</ele>
        <time>2018-02-08T15:03:19Z</time>
      </trkpt>
      <trkpt lat="45.6103" lon="6.67671">
        <ele>1619.48</ele>
        <time>2018-02-08T15:03:20Z</time>
      </trkpt>
      <trkpt lat="45.61029" lon="6.6767">
        <ele>1619.48</ele>
        <time>2018-02-08T15:03:21Z</time>
      </trkpt>
      <trkpt lat="45.61028" lon="6.67669">
        <ele>1619.48</ele>
        <time>2018-02-08T15:03:22Z</time>
      </trkpt>
      <trkpt lat="45.61027" lon="6.67669">
        <ele>1619.48</ele>
        <time>2018-02-08T15:03:23Z</time>
      </trkpt>
      <trkpt lat="45.61017" lon="6.67659">
        <ele>1619.96</ele>
        <time>2018-02-08T15:03:36Z</time>
      </trkpt>
      <trkpt lat="45.61017" lon="6.67657">
        <ele>1619.96</ele>
        <time>2018-02-08T15:03:37Z</time>
      </trkpt>
      <trkpt lat="45.61016" lon="6.67656">
        <ele>1619.96</ele>
        <time>2018-02-08T15:03:38Z</time>
      </trkpt>
      <trkpt lat="45.61015" lon="6.67655">
        <ele>1619.96</ele>
        <time>2018-02-08T15:03:39Z</time>
      </trkpt>
      <trkpt lat="45.61014" lon="6.67655">
        <ele>1619.48</ele>
        <time>2018-02-08T15:03:40Z</time>
      </trkpt>
      <trkpt lat="45.61005" lon="6.67642">
        <ele>1619.96</ele>
        <time>2018-02-08T15:03:50Z</time>
      </trkpt>
      <trkpt lat="45.60982" lon="6.67609">
        <ele>1617.56</ele>
        <time>2018-02-08T15:04:03Z</time>
      </trkpt>
      <trkpt lat="45.60966" lon="6.6759">
        <ele>1617.56</ele>
        <time>2018-02-08T15:04:14Z</time>
      </trkpt>
      <trkpt lat="45.60944" lon="6.67572">
        <ele>1616.59</ele>
        <time>2018-02-08T15:04:30Z</time>
      </trkpt>
      <trkpt lat="45.60926" lon="6.67559">
        <ele>1616.59</ele>
        <time>2018-02-08T15:04:41Z</time>
      </trkpt>
      <trkpt lat="45.60896" lon="6.67542">
        <ele>1615.63</ele>
        <time>2018-02-08T15:04:55Z</time>
      </trkpt>
      <trkpt lat="45.60892" lon="6.67542">
        <ele>1616.59</ele>
        <time>2018-02-08T15:04:58Z</time>
      </trkpt>
      <trkpt lat="45.60889" lon="6.67541">
        <ele>1616.11</ele>
        <time>2018-02-08T15:05:00Z</time>
      </trkpt>
      <trkpt lat="45.60863" lon="6.67525">
        <ele>1615.63</ele>
        <time>2018-02-08T15:05:15Z</time>
      </trkpt>
      <trkpt lat="45.60824" lon="6.67504">
        <ele>1614.19</ele>
        <time>2018-02-08T15:05:34Z</time>
      </trkpt>
      <trkpt lat="45.60787" lon="6.67492">
        <ele>1613.23</ele>
        <time>2018-02-08T15:05:53Z</time>
      </trkpt>
      <trkpt lat="45.60785" lon="6.67492">
        <ele>1613.71</ele>
        <time>2018-02-08T15:05:54Z</time>
      </trkpt>
      <trkpt lat="45.60784" lon="6.67491">
        <ele>1613.71</ele>
        <time>2018-02-08T15:05:55Z</time>
      </trkpt>
      <trkpt lat="45.60774" lon="6.67486">
        <ele>1613.71</ele>
        <time>2018-02-08T15:06:05Z</time>
      </trkpt>
      <trkpt lat="45.60773" lon="6.67485">
        <ele>1613.23</ele>
        <time>2018-02-08T15:06:06Z</time>
      </trkpt>
      <trkpt lat="45.60771" lon="6.67485">
        <ele>1613.23</ele>
        <time>2018-02-08T15:06:07Z</time>
      </trkpt>
      <trkpt lat="45.6077" lon="6.67484">
        <ele>1613.71</ele>
        <time>2018-02-08T15:06:08Z</time>
      </trkpt>
      <trkpt lat="45.60769" lon="6.67484">
        <ele>1613.71</ele>
        <time>2018-02-08T15:06:09Z</time>
      </trkpt>
      <trkpt lat="45.60767" lon="6.67484">
        <ele>1613.23</ele>
        <time>2018-02-08T15:06:10Z</time>
      </trkpt>
      <trkpt lat="45.60738" lon="6.67471">
        <ele>1611.79</ele>
        <time>2018-02-08T15:06:23Z</time>
      </trkpt>
      <trkpt lat="45.60731" lon="6.67465">
        <ele>1610.35</ele>
        <time>2018-02-08T15:06:25Z</time>
      </trkpt>
      <trkpt lat="45.60727" lon="6.67461">
        <ele>1610.35</ele>
        <time>2018-02-08T15:06:26Z</time>
      </trkpt>
      <trkpt lat="45.6071" lon="6.67443">
        <ele>1608.42</ele>
        <time>2018-02-08T15:06:30Z</time>
      </trkpt>
      <trkpt lat="45.60697" lon="6.67428">
        <ele>1606.98</ele>
        <time>2018-02-08T15:06:33Z</time>
      </trkpt>
      <trkpt lat="45.60674" lon="6.67401">
        <ele>1605.06</ele>
        <time>2018-02-08T15:06:38Z</time>
      </trkpt>
      <trkpt lat="45.60669" lon="6.67397">
        <ele>1604.58</ele>
        <time>2018-02-08T15:06:39Z</time>
      </trkpt>
      <trkpt lat="45.60652" lon="6.67385">
        <ele>1602.17</ele>
        <time>2018-02-08T15:06:42Z</time>
      </trkpt>
      <trkpt lat="45.60646" lon="6.67383">
        <ele>1601.69</ele>
        <time>2018-02-08T15:06:43Z</time>
      </trkpt>
      <trkpt lat="45.6064" lon="6.67383">
        <ele>1601.21</ele>
        <time>2018-02-08T15:06:44Z</time>
      </trkpt>
      <trkpt lat="45.60627" lon="6.67386">
        <ele>1598.81</ele>
        <time>2018-02-08T15:06:46Z</time>
      </trkpt>
      <trkpt lat="45.60622" lon="6.67387">
        <ele>1598.33</ele>
        <time>2018-02-08T15:06:47Z</time>
      </trkpt>
      <trkpt lat="45.60617" lon="6.67388">
        <ele>1597.85</ele>
        <time>2018-02-08T15:06:48Z</time>
      </trkpt>
      <trkpt lat="45.60613" lon="6.6739">
        <ele>1597.37</ele>
        <time>2018-02-08T15:06:49Z</time>
      </trkpt>
      <trkpt lat="45.60596" lon="6.67392">
        <ele>1596.89</ele>
        <time>2018-02-08T15:06:58Z</time>
      </trkpt>
      <trkpt lat="45.60599" lon="6.67394">
        <ele>1596.89</ele>
        <time>2018-02-08T15:07:22Z</time>
      </trkpt>
      <trkpt lat="45.60599" lon="6.67395">
        <ele>1596.89</ele>
        <time>2018-02-08T15:07:49Z</time>
      </trkpt>
      <trkpt lat="45.60599" lon="6.67395">
        <ele>1596.41</ele>
        <time>2018-02-08T15:08:13Z</time>
      </trkpt>
      <trkpt lat="45.60598" lon="6.67395">
        <ele>1596.89</ele>
        <time>2018-02-08T15:08:40Z</time>
      </trkpt>
      <trkpt lat="45.60598" lon="6.67396">
        <ele>1596.89</ele>
        <time>2018-02-08T15:09:05Z</time>
      </trkpt>
      <trkpt lat="45.60596" lon="6.67394">
        <ele>1597.37</ele>
        <time>2018-02-08T15:09:15Z</time>
      </trkpt>
      <trkpt lat="45.60594" lon="6.67395">
        <ele>1597.37</ele>
        <time>2018-02-08T15:09:36Z</time>
      </trkpt>
      <trkpt lat="45.60593" lon="6.67395">
        <ele>1596.89</ele>
        <time>2018-02-08T15:09:37Z</time>
      </trkpt>
      <trkpt lat="45.60592" lon="6.67395">
        <ele>1596.89</ele>
        <time>2018-02-08T15:09:38Z</time>
      </trkpt>
      <trkpt lat="45.6059" lon="6.67393">
        <ele>1596.89</ele>
        <time>2018-02-08T15:09:39Z</time>
      </trkpt>
      <trkpt lat="45.60588" lon="6.67391">
        <ele>1596.41</ele>
        <time>2018-02-08T15:09:40Z</time>
      </trkpt>
      <trkpt lat="45.60551" lon="6.67372">
        <ele>1594</ele>
        <time>2018-02-08T15:09:51Z</time>
      </trkpt>
      <trkpt lat="45.60547" lon="6.67368">
        <ele>1593.52</ele>
        <time>2018-02-08T15:09:52Z</time>
      </trkpt>
      <trkpt lat="45.60515" lon="6.67339">
        <ele>1590.16</ele>
        <time>2018-02-08T15:09:59Z</time>
      </trkpt>
      <trkpt lat="45.60489" lon="6.67311">
        <ele>1586.79</ele>
        <time>2018-02-08T15:10:04Z</time>
      </trkpt>
      <trkpt lat="45.60472" lon="6.67295">
        <ele>1583.91</ele>
        <time>2018-02-08T15:10:07Z</time>
      </trkpt>
      <trkpt lat="45.60459" lon="6.67287">
        <ele>1583.43</ele>
        <time>2018-02-08T15:10:09Z</time>
      </trkpt>
      <trkpt lat="45.6044" lon="6.6728">
        <ele>1581.03</ele>
        <time>2018-02-08T15:10:12Z</time>
      </trkpt>
      <trkpt lat="45.60434" lon="6.67278">
        <ele>1581.03</ele>
        <time>2018-02-08T15:10:13Z</time>
      </trkpt>
      <trkpt lat="45.60427" lon="6.67278">
        <ele>1580.06</ele>
        <time>2018-02-08T15:10:14Z</time>
      </trkpt>
      <trkpt lat="45.60421" lon="6.67277">
        <ele>1579.1</ele>
        <time>2018-02-08T15:10:15Z</time>
      </trkpt>
      <trkpt lat="45.60415" lon="6.67277">
        <ele>1579.1</ele>
        <time>2018-02-08T15:10:16Z</time>
      </trkpt>
      <trkpt lat="45.60402" lon="6.67275">
        <ele>1577.66</ele>
        <time>2018-02-08T15:10:18Z</time>
      </trkpt>
      <trkpt lat="45.6039" lon="6.67273">
        <ele>1576.7</ele>
        <time>2018-02-08T15:10:20Z</time>
      </trkpt>
      <trkpt lat="45.60381" lon="6.67269">
        <ele>1575.74</ele>
        <time>2018-02-08T15:10:22Z</time>
      </trkpt>
      <trkpt lat="45.60359" lon="6.67259">
        <ele>1572.37</ele>
        <time>2018-02-08T15:10:26Z</time>
      </trkpt>
      <trkpt lat="45.6035" lon="6.67256">
        <ele>1572.37</ele>
        <time>2018-02-08T15:10:28Z</time>
      </trkpt>
      <trkpt lat="45.60345" lon="6.67254">
        <ele>1571.89</ele>
        <time>2018-02-08T15:10:29Z</time>
      </trkpt>
      <trkpt lat="45.6034" lon="6.67252">
        <ele>1571.89</ele>
        <time>2018-02-08T15:10:30Z</time>
      </trkpt>
      <trkpt lat="45.60298" lon="6.67222">
        <ele>1567.57</ele>
        <time>2018-02-08T15:10:39Z</time>
      </trkpt>
      <trkpt lat="45.60288" lon="6.67211">
        <ele>1566.12</ele>
        <time>2018-02-08T15:10:41Z</time>
      </trkpt>
      <trkpt lat="45.6028" lon="6.672">
        <ele>1565.16</ele>
        <time>2018-02-08T15:10:43Z</time>
      </trkpt>
      <trkpt lat="45.60277" lon="6.67195">
        <ele>1564.68</ele>
        <time>2018-02-08T15:10:44Z</time>
      </trkpt>
      <trkpt lat="45.60264" lon="6.67175">
        <ele>1563.24</ele>
        <time>2018-02-08T15:10:48Z</time>
      </trkpt>
      <trkpt lat="45.60262" lon="6.6717">
        <ele>1562.76</ele>
        <time>2018-02-08T15:10:49Z</time>
      </trkpt>
      <trkpt lat="45.6026" lon="6.67166">
        <ele>1562.76</ele>
        <time>2018-02-08T15:10:50Z</time>
      </trkpt>
      <trkpt lat="45.60258" lon="6.67162">
        <ele>1562.28</ele>
        <time>2018-02-08T15:10:51Z</time>
      </trkpt>
      <trkpt lat="45.60257" lon="6.67159">
        <ele>1562.28</ele>
        <time>2018-02-08T15:10:52Z</time>
      </trkpt>
      <trkpt lat="45.60252" lon="6.67154">
        <ele>1560.84</ele>
        <time>2018-02-08T15:10:54Z</time>
      </trkpt>
      <trkpt lat="45.6025" lon="6.67155">
        <ele>1559.88</ele>
        <time>2018-02-08T15:10:56Z</time>
      </trkpt>
      <trkpt lat="45.60242" lon="6.67152">
        <ele>1557.47</ele>
        <time>2018-02-08T15:11:00Z</time>
      </trkpt>
      <trkpt lat="45.60236" lon="6.67152">
        <ele>1554.59</ele>
        <time>2018-02-08T15:11:01Z</time>
      </trkpt>
      <trkpt lat="45.60232" lon="6.67154">
        <ele>1554.11</ele>
        <time>2018-02-08T15:11:02Z</time>
      </trkpt>
      <trkpt lat="45.6023" lon="6.67155">
        <ele>1553.63</ele>
        <time>2018-02-08T15:11:03Z</time>
      </trkpt>
      <trkpt lat="45.60228" lon="6.67155">
        <ele>1555.07</ele>
        <time>2018-02-08T15:11:04Z</time>
      </trkpt>
      <trkpt lat="45.60227" lon="6.67141">
        <ele>1553.15</ele>
        <time>2018-02-08T15:11:07Z</time>
      </trkpt>
      <trkpt lat="45.60229" lon="6.6713">
        <ele>1551.71</ele>
        <time>2018-02-08T15:11:10Z</time>
      </trkpt>
      <trkpt lat="45.60229" lon="6.67122">
        <ele>1551.22</ele>
        <time>2018-02-08T15:11:13Z</time>
      </trkpt>
      <trkpt lat="45.60221" lon="6.67131">
        <ele>1547.86</ele>
        <time>2018-02-08T15:11:18Z</time>
      </trkpt>
      <trkpt lat="45.60206" lon="6.67128">
        <ele>1544.5</ele>
        <time>2018-02-08T15:11:22Z</time>
      </trkpt>
      <trkpt lat="45.60196" lon="6.67129">
        <ele>1541.13</ele>
        <time>2018-02-08T15:11:25Z</time>
      </trkpt>
      <trkpt lat="45.60192" lon="6.67131">
        <ele>1540.65</ele>
        <time>2018-02-08T15:11:26Z</time>
      </trkpt>
      <trkpt lat="45.60189" lon="6.67128">
        <ele>1539.21</ele>
        <time>2018-02-08T15:11:27Z</time>
      </trkpt>
      <trkpt lat="45.60188" lon="6.67126">
        <ele>1539.21</ele>
        <time>2018-02-08T15:11:28Z</time>
      </trkpt>
      <trkpt lat="45.60186" lon="6.67123">
        <ele>1538.73</ele>
        <time>2018-02-08T15:11:29Z</time>
      </trkpt>
      <trkpt lat="45.60183" lon="6.67123">
        <ele>1538.73</ele>
        <time>2018-02-08T15:11:30Z</time>
      </trkpt>
      <trkpt lat="45.60181" lon="6.67125">
        <ele>1537.77</ele>
        <time>2018-02-08T15:11:31Z</time>
      </trkpt>
      <trkpt lat="45.6018" lon="6.67126">
        <ele>1535.84</ele>
        <time>2018-02-08T15:11:32Z</time>
      </trkpt>
      <trkpt lat="45.60178" lon="6.67126">
        <ele>1536.32</ele>
        <time>2018-02-08T15:11:33Z</time>
      </trkpt>
      <trkpt lat="45.60177" lon="6.67125">
        <ele>1535.84</ele>
        <time>2018-02-08T15:11:34Z</time>
      </trkpt>
      <trkpt lat="45.60175" lon="6.67123">
        <ele>1536.32</ele>
        <time>2018-02-08T15:11:35Z</time>
      </trkpt>
      <trkpt lat="45.60171" lon="6.67124">
        <ele>1536.32</ele>
        <time>2018-02-08T15:11:36Z</time>
      </trkpt>
      <trkpt lat="45.60167" lon="6.67124">
        <ele>1534.4</ele>
        <time>2018-02-08T15:11:37Z</time>
      </trkpt>
      <trkpt lat="45.60163" lon="6.67122">
        <ele>1532.96</ele>
        <time>2018-02-08T15:11:38Z</time>
      </trkpt>
      <trkpt lat="45.60154" lon="6.6712">
        <ele>1531.04</ele>
        <time>2018-02-08T15:11:40Z</time>
      </trkpt>
      <trkpt lat="45.60136" lon="6.67125">
        <ele>1526.23</ele>
        <time>2018-02-08T15:11:45Z</time>
      </trkpt>
      <trkpt lat="45.60124" lon="6.67121">
        <ele>1523.83</ele>
        <time>2018-02-08T15:11:48Z</time>
      </trkpt>
      <trkpt lat="45.60121" lon="6.67122">
        <ele>1522.39</ele>
        <time>2018-02-08T15:11:49Z</time>
      </trkpt>
      <trkpt lat="45.60099" lon="6.67122">
        <ele>1516.62</ele>
        <time>2018-02-08T15:11:55Z</time>
      </trkpt>
      <trkpt lat="45.6009" lon="6.67118">
        <ele>1513.73</ele>
        <time>2018-02-08T15:11:58Z</time>
      </trkpt>
      <trkpt lat="45.60086" lon="6.67121">
        <ele>1512.29</ele>
        <time>2018-02-08T15:12:02Z</time>
      </trkpt>
      <trkpt lat="45.60079" lon="6.67133">
        <ele>1509.41</ele>
        <time>2018-02-08T15:12:06Z</time>
      </trkpt>
      <trkpt lat="45.60068" lon="6.67144">
        <ele>1507.48</ele>
        <time>2018-02-08T15:12:14Z</time>
      </trkpt>
      <trkpt lat="45.60067" lon="6.67145">
        <ele>1507</ele>
        <time>2018-02-08T15:12:15Z</time>
      </trkpt>
      <trkpt lat="45.60064" lon="6.67147">
        <ele>1506.04</ele>
        <time>2018-02-08T15:12:17Z</time>
      </trkpt>
      <trkpt lat="45.60062" lon="6.67143">
        <ele>1506.04</ele>
        <time>2018-02-08T15:12:25Z</time>
      </trkpt>
      <trkpt lat="45.60061" lon="6.67139">
        <ele>1505.56</ele>
        <time>2018-02-08T15:12:40Z</time>
      </trkpt>
      <trkpt lat="45.60061" lon="6.67136">
        <ele>1506.04</ele>
        <time>2018-02-08T15:12:58Z</time>
      </trkpt>
      <trkpt lat="45.60061" lon="6.67131">
        <ele>1506.04</ele>
        <time>2018-02-08T15:13:21Z</time>
      </trkpt>
      <trkpt lat="45.60061" lon="6.67129">
        <ele>1506.04</ele>
        <time>2018-02-08T15:13:22Z</time>
      </trkpt>
      <trkpt lat="45.60056" lon="6.6709">
        <ele>1503.16</ele>
        <time>2018-02-08T15:13:34Z</time>
      </trkpt>
      <trkpt lat="45.60049" lon="6.67064">
        <ele>1500.76</ele>
        <time>2018-02-08T15:13:39Z</time>
      </trkpt>
      <trkpt lat="45.6003" lon="6.67034">
        <ele>1497.39</ele>
        <time>2018-02-08T15:13:46Z</time>
      </trkpt>
      <trkpt lat="45.60026" lon="6.67032">
        <ele>1496.91</ele>
        <time>2018-02-08T15:13:47Z</time>
      </trkpt>
      <trkpt lat="45.60007" lon="6.67024">
        <ele>1494.51</ele>
        <time>2018-02-08T15:13:51Z</time>
      </trkpt>
      <trkpt lat="45.60003" lon="6.67023">
        <ele>1494.51</ele>
        <time>2018-02-08T15:13:52Z</time>
      </trkpt>
      <trkpt lat="45.59991" lon="6.6702">
        <ele>1492.58</ele>
        <time>2018-02-08T15:13:55Z</time>
      </trkpt>
      <trkpt lat="45.59964" lon="6.67019">
        <ele>1489.7</ele>
        <time>2018-02-08T15:14:02Z</time>
      </trkpt>
      <trkpt lat="45.59937" lon="6.67015">
        <ele>1486.34</ele>
        <time>2018-02-08T15:14:09Z</time>
      </trkpt>
      <trkpt lat="45.59928" lon="6.6701">
        <ele>1486.34</ele>
        <time>2018-02-08T15:14:11Z</time>
      </trkpt>
      <trkpt lat="45.59908" lon="6.6699">
        <ele>1482.97</ele>
        <time>2018-02-08T15:14:17Z</time>
      </trkpt>
      <trkpt lat="45.59905" lon="6.66986">
        <ele>1482.97</ele>
        <time>2018-02-08T15:14:18Z</time>
      </trkpt>
      <trkpt lat="45.59901" lon="6.66982">
        <ele>1482.01</ele>
        <time>2018-02-08T15:14:19Z</time>
      </trkpt>
      <trkpt lat="45.59897" lon="6.66977">
        <ele>1481.53</ele>
        <time>2018-02-08T15:14:20Z</time>
      </trkpt>
      <trkpt lat="45.59884" lon="6.66959">
        <ele>1480.57</ele>
        <time>2018-02-08T15:14:24Z</time>
      </trkpt>
      <trkpt lat="45.5988" lon="6.66955">
        <ele>1480.09</ele>
        <time>2018-02-08T15:14:25Z</time>
      </trkpt>
      <trkpt lat="45.59872" lon="6.66948">
        <ele>1479.13</ele>
        <time>2018-02-08T15:14:27Z</time>
      </trkpt>
      <trkpt lat="45.59867" lon="6.66946">
        <ele>1478.65</ele>
        <time>2018-02-08T15:14:28Z</time>
      </trkpt>
      <trkpt lat="45.59863" lon="6.66945">
        <ele>1478.16</ele>
        <time>2018-02-08T15:14:29Z</time>
      </trkpt>
      <trkpt lat="45.59857" lon="6.66944">
        <ele>1477.2</ele>
        <time>2018-02-08T15:14:30Z</time>
      </trkpt>
      <trkpt lat="45.59852" lon="6.66944">
        <ele>1477.2</ele>
        <time>2018-02-08T15:14:31Z</time>
      </trkpt>
      <trkpt lat="45.59847" lon="6.66945">
        <ele>1476.24</ele>
        <time>2018-02-08T15:14:32Z</time>
      </trkpt>
      <trkpt lat="45.59841" lon="6.66945">
        <ele>1476.24</ele>
        <time>2018-02-08T15:14:33Z</time>
      </trkpt>
      <trkpt lat="45.59836" lon="6.66946">
        <ele>1474.32</ele>
        <time>2018-02-08T15:14:34Z</time>
      </trkpt>
      <trkpt lat="45.59831" lon="6.66946">
        <ele>1473.84</ele>
        <time>2018-02-08T15:14:35Z</time>
      </trkpt>
      <trkpt lat="45.59826" lon="6.66946">
        <ele>1473.84</ele>
        <time>2018-02-08T15:14:36Z</time>
      </trkpt>
      <trkpt lat="45.59821" lon="6.66947">
        <ele>1473.36</ele>
        <time>2018-02-08T15:14:37Z</time>
      </trkpt>
      <trkpt lat="45.59816" lon="6.66948">
        <ele>1473.36</ele>
        <time>2018-02-08T15:14:38Z</time>
      </trkpt>
      <trkpt lat="45.59812" lon="6.66949">
        <ele>1472.88</ele>
        <time>2018-02-08T15:14:39Z</time>
      </trkpt>
      <trkpt lat="45.59807" lon="6.66949">
        <ele>1471.92</ele>
        <time>2018-02-08T15:14:40Z</time>
      </trkpt>
      <trkpt lat="45.59802" lon="6.66949">
        <ele>1471.92</ele>
        <time>2018-02-08T15:14:41Z</time>
      </trkpt>
      <trkpt lat="45.59797" lon="6.66951">
        <ele>1471.44</ele>
        <time>2018-02-08T15:14:42Z</time>
      </trkpt>
      <trkpt lat="45.59793" lon="6.66952">
        <ele>1471.44</ele>
        <time>2018-02-08T15:14:43Z</time>
      </trkpt>
      <trkpt lat="45.59788" lon="6.66953">
        <ele>1469.51</ele>
        <time>2018-02-08T15:14:44Z</time>
      </trkpt>
      <trkpt lat="45.59783" lon="6.66953">
        <ele>1469.51</ele>
        <time>2018-02-08T15:14:45Z</time>
      </trkpt>
      <trkpt lat="45.59779" lon="6.66954">
        <ele>1468.55</ele>
        <time>2018-02-08T15:14:46Z</time>
      </trkpt>
      <trkpt lat="45.59769" lon="6.66954">
        <ele>1468.55</ele>
        <time>2018-02-08T15:14:48Z</time>
      </trkpt>
      <trkpt lat="45.59758" lon="6.66953">
        <ele>1467.59</ele>
        <time>2018-02-08T15:14:50Z</time>
      </trkpt>
      <trkpt lat="45.59753" lon="6.66951">
        <ele>1466.63</ele>
        <time>2018-02-08T15:14:51Z</time>
      </trkpt>
      <trkpt lat="45.59748" lon="6.66948">
        <ele>1465.67</ele>
        <time>2018-02-08T15:14:52Z</time>
      </trkpt>
      <trkpt lat="45.59744" lon="6.66944">
        <ele>1465.67</ele>
        <time>2018-02-08T15:14:53Z</time>
      </trkpt>
      <trkpt lat="45.5974" lon="6.66939">
        <ele>1464.71</ele>
        <time>2018-02-08T15:14:54Z</time>
      </trkpt>
      <trkpt lat="45.59737" lon="6.66934">
        <ele>1464.71</ele>
        <time>2018-02-08T15:14:55Z</time>
      </trkpt>
      <trkpt lat="45.59735" lon="6.66928">
        <ele>1463.74</ele>
        <time>2018-02-08T15:14:56Z</time>
      </trkpt>
      <trkpt lat="45.59734" lon="6.66922">
        <ele>1464.23</ele>
        <time>2018-02-08T15:14:57Z</time>
      </trkpt>
      <trkpt lat="45.59733" lon="6.66916">
        <ele>1463.26</ele>
        <time>2018-02-08T15:14:58Z</time>
      </trkpt>
      <trkpt lat="45.59732" lon="6.66909">
        <ele>1462.78</ele>
        <time>2018-02-08T15:14:59Z</time>
      </trkpt>
      <trkpt lat="45.59732" lon="6.66903">
        <ele>1462.78</ele>
        <time>2018-02-08T15:15:00Z</time>
      </trkpt>
      <trkpt lat="45.59732" lon="6.66898">
        <ele>1462.3</ele>
        <time>2018-02-08T15:15:01Z</time>
      </trkpt>
      <trkpt lat="45.59733" lon="6.66873">
        <ele>1460.38</ele>
        <time>2018-02-08T15:15:05Z</time>
      </trkpt>
      <trkpt lat="45.59732" lon="6.66859">
        <ele>1459.42</ele>
        <time>2018-02-08T15:15:07Z</time>
      </trkpt>
      <trkpt lat="45.59732" lon="6.66852">
        <ele>1457.98</ele>
        <time>2018-02-08T15:15:08Z</time>
      </trkpt>
      <trkpt lat="45.59732" lon="6.66845">
        <ele>1457.5</ele>
        <time>2018-02-08T15:15:09Z</time>
      </trkpt>
      <trkpt lat="45.59731" lon="6.66838">
        <ele>1457.5</ele>
        <time>2018-02-08T15:15:10Z</time>
      </trkpt>
      <trkpt lat="45.59729" lon="6.66831">
        <ele>1456.53</ele>
        <time>2018-02-08T15:15:11Z</time>
      </trkpt>
      <trkpt lat="45.59726" lon="6.66825">
        <ele>1456.05</ele>
        <time>2018-02-08T15:15:12Z</time>
      </trkpt>
      <trkpt lat="45.59723" lon="6.66819">
        <ele>1456.53</ele>
        <time>2018-02-08T15:15:13Z</time>
      </trkpt>
      <trkpt lat="45.5972" lon="6.66814">
        <ele>1455.57</ele>
        <time>2018-02-08T15:15:14Z</time>
      </trkpt>
      <trkpt lat="45.59708" lon="6.66801">
        <ele>1454.13</ele>
        <time>2018-02-08T15:15:17Z</time>
      </trkpt>
      <trkpt lat="45.59704" lon="6.66797">
        <ele>1453.17</ele>
        <time>2018-02-08T15:15:18Z</time>
      </trkpt>
      <trkpt lat="45.597" lon="6.66794">
        <ele>1452.69</ele>
        <time>2018-02-08T15:15:19Z</time>
      </trkpt>
      <trkpt lat="45.59691" lon="6.66787">
        <ele>1452.21</ele>
        <time>2018-02-08T15:15:21Z</time>
      </trkpt>
      <trkpt lat="45.59683" lon="6.66781">
        <ele>1450.77</ele>
        <time>2018-02-08T15:15:23Z</time>
      </trkpt>
      <trkpt lat="45.5968" lon="6.66778">
        <ele>1450.29</ele>
        <time>2018-02-08T15:15:24Z</time>
      </trkpt>
      <trkpt lat="45.59665" lon="6.6677">
        <ele>1448.36</ele>
        <time>2018-02-08T15:15:28Z</time>
      </trkpt>
      <trkpt lat="45.59661" lon="6.6677">
        <ele>1447.88</ele>
        <time>2018-02-08T15:15:29Z</time>
      </trkpt>
      <trkpt lat="45.59656" lon="6.66771">
        <ele>1447.4</ele>
        <time>2018-02-08T15:15:30Z</time>
      </trkpt>
      <trkpt lat="45.59652" lon="6.66772">
        <ele>1445.96</ele>
        <time>2018-02-08T15:15:31Z</time>
      </trkpt>
      <trkpt lat="45.59648" lon="6.66773">
        <ele>1445.96</ele>
        <time>2018-02-08T15:15:32Z</time>
      </trkpt>
      <trkpt lat="45.59628" lon="6.66776">
        <ele>1445</ele>
        <time>2018-02-08T15:15:36Z</time>
      </trkpt>
      <trkpt lat="45.59623" lon="6.66777">
        <ele>1444.52</ele>
        <time>2018-02-08T15:15:37Z</time>
      </trkpt>
      <trkpt lat="45.59618" lon="6.66777">
        <ele>1444.04</ele>
        <time>2018-02-08T15:15:38Z</time>
      </trkpt>
      <trkpt lat="45.59613" lon="6.66777">
        <ele>1442.6</ele>
        <time>2018-02-08T15:15:39Z</time>
      </trkpt>
      <trkpt lat="45.59609" lon="6.66778">
        <ele>1443.08</ele>
        <time>2018-02-08T15:15:40Z</time>
      </trkpt>
      <trkpt lat="45.59605" lon="6.66777">
        <ele>1441.15</ele>
        <time>2018-02-08T15:15:41Z</time>
      </trkpt>
      <trkpt lat="45.59602" lon="6.66776">
        <ele>1441.63</ele>
        <time>2018-02-08T15:15:42Z</time>
      </trkpt>
      <trkpt lat="45.59599" lon="6.66777">
        <ele>1441.15</ele>
        <time>2018-02-08T15:15:43Z</time>
      </trkpt>
      <trkpt lat="45.59597" lon="6.6678">
        <ele>1440.67</ele>
        <time>2018-02-08T15:15:44Z</time>
      </trkpt>
      <trkpt lat="45.59596" lon="6.66785">
        <ele>1439.71</ele>
        <time>2018-02-08T15:15:45Z</time>
      </trkpt>
      <trkpt lat="45.59597" lon="6.66789">
        <ele>1439.23</ele>
        <time>2018-02-08T15:15:46Z</time>
      </trkpt>
      <trkpt lat="45.596" lon="6.66794">
        <ele>1439.71</ele>
        <time>2018-02-08T15:15:47Z</time>
      </trkpt>
      <trkpt lat="45.59603" lon="6.66797">
        <ele>1438.75</ele>
        <time>2018-02-08T15:15:48Z</time>
      </trkpt>
      <trkpt lat="45.59606" lon="6.66801">
        <ele>1437.79</ele>
        <time>2018-02-08T15:15:49Z</time>
      </trkpt>
      <trkpt lat="45.5962" lon="6.66818">
        <ele>1436.35</ele>
        <time>2018-02-08T15:15:54Z</time>
      </trkpt>
      <trkpt lat="45.59624" lon="6.66821">
        <ele>1435.39</ele>
        <time>2018-02-08T15:15:55Z</time>
      </trkpt>
      <trkpt lat="45.59627" lon="6.66825">
        <ele>1435.39</ele>
        <time>2018-02-08T15:15:56Z</time>
      </trkpt>
      <trkpt lat="45.5963" lon="6.66829">
        <ele>1434.91</ele>
        <time>2018-02-08T15:15:57Z</time>
      </trkpt>
      <trkpt lat="45.59632" lon="6.66834">
        <ele>1434.42</ele>
        <time>2018-02-08T15:15:58Z</time>
      </trkpt>
      <trkpt lat="45.59634" lon="6.66839">
        <ele>1434.91</ele>
        <time>2018-02-08T15:15:59Z</time>
      </trkpt>
      <trkpt lat="45.59636" lon="6.66845">
        <ele>1434.42</ele>
        <time>2018-02-08T15:16:00Z</time>
      </trkpt>
      <trkpt lat="45.59637" lon="6.66851">
        <ele>1433.46</ele>
        <time>2018-02-08T15:16:01Z</time>
      </trkpt>
      <trkpt lat="45.59638" lon="6.66857">
        <ele>1432.98</ele>
        <time>2018-02-08T15:16:02Z</time>
      </trkpt>
      <trkpt lat="45.59638" lon="6.66864">
        <ele>1432.5</ele>
        <time>2018-02-08T15:16:03Z</time>
      </trkpt>
      <trkpt lat="45.59637" lon="6.6687">
        <ele>1432.02</ele>
        <time>2018-02-08T15:16:04Z</time>
      </trkpt>
      <trkpt lat="45.59636" lon="6.6689">
        <ele>1430.1</ele>
        <time>2018-02-08T15:16:07Z</time>
      </trkpt>
      <trkpt lat="45.59635" lon="6.66897">
        <ele>1430.1</ele>
        <time>2018-02-08T15:16:08Z</time>
      </trkpt>
      <trkpt lat="45.59635" lon="6.66903">
        <ele>1429.62</ele>
        <time>2018-02-08T15:16:09Z</time>
      </trkpt>
      <trkpt lat="45.59634" lon="6.6691">
        <ele>1428.66</ele>
        <time>2018-02-08T15:16:10Z</time>
      </trkpt>
      <trkpt lat="45.59634" lon="6.66916">
        <ele>1429.62</ele>
        <time>2018-02-08T15:16:11Z</time>
      </trkpt>
      <trkpt lat="45.59633" lon="6.66929">
        <ele>1428.66</ele>
        <time>2018-02-08T15:16:13Z</time>
      </trkpt>
      <trkpt lat="45.59634" lon="6.66937">
        <ele>1428.66</ele>
        <time>2018-02-08T15:16:14Z</time>
      </trkpt>
      <trkpt lat="45.59634" lon="6.66944">
        <ele>1427.21</ele>
        <time>2018-02-08T15:16:15Z</time>
      </trkpt>
      <trkpt lat="45.59634" lon="6.66951">
        <ele>1424.81</ele>
        <time>2018-02-08T15:16:16Z</time>
      </trkpt>
      <trkpt lat="45.59635" lon="6.66958">
        <ele>1426.73</ele>
        <time>2018-02-08T15:16:17Z</time>
      </trkpt>
      <trkpt lat="45.59636" lon="6.66965">
        <ele>1426.25</ele>
        <time>2018-02-08T15:16:18Z</time>
      </trkpt>
      <trkpt lat="45.59638" lon="6.66971">
        <ele>1425.29</ele>
        <time>2018-02-08T15:16:19Z</time>
      </trkpt>
      <trkpt lat="45.59641" lon="6.66983">
        <ele>1424.33</ele>
        <time>2018-02-08T15:16:21Z</time>
      </trkpt>
      <trkpt lat="45.59642" lon="6.66989">
        <ele>1423.85</ele>
        <time>2018-02-08T15:16:22Z</time>
      </trkpt>
      <trkpt lat="45.59643" lon="6.66996">
        <ele>1423.37</ele>
        <time>2018-02-08T15:16:23Z</time>
      </trkpt>
      <trkpt lat="45.59643" lon="6.67002">
        <ele>1422.89</ele>
        <time>2018-02-08T15:16:24Z</time>
      </trkpt>
      <trkpt lat="45.59642" lon="6.67009">
        <ele>1421.45</ele>
        <time>2018-02-08T15:16:25Z</time>
      </trkpt>
      <trkpt lat="45.59639" lon="6.67015">
        <ele>1420.97</ele>
        <time>2018-02-08T15:16:26Z</time>
      </trkpt>
      <trkpt lat="45.59635" lon="6.67018">
        <ele>1420.97</ele>
        <time>2018-02-08T15:16:27Z</time>
      </trkpt>
      <trkpt lat="45.5963" lon="6.67017">
        <ele>1420.49</ele>
        <time>2018-02-08T15:16:28Z</time>
      </trkpt>
      <trkpt lat="45.59626" lon="6.67016">
        <ele>1420</ele>
        <time>2018-02-08T15:16:29Z</time>
      </trkpt>
      <trkpt lat="45.59605" lon="6.67007">
        <ele>1419.04</ele>
        <time>2018-02-08T15:16:34Z</time>
      </trkpt>
      <trkpt lat="45.59601" lon="6.67004">
        <ele>1418.08</ele>
        <time>2018-02-08T15:16:35Z</time>
      </trkpt>
      <trkpt lat="45.59597" lon="6.67002">
        <ele>1418.56</ele>
        <time>2018-02-08T15:16:36Z</time>
      </trkpt>
      <trkpt lat="45.59593" lon="6.67">
        <ele>1418.08</ele>
        <time>2018-02-08T15:16:37Z</time>
      </trkpt>
      <trkpt lat="45.59588" lon="6.66999">
        <ele>1418.08</ele>
        <time>2018-02-08T15:16:38Z</time>
      </trkpt>
      <trkpt lat="45.59583" lon="6.66999">
        <ele>1417.12</ele>
        <time>2018-02-08T15:16:39Z</time>
      </trkpt>
      <trkpt lat="45.59578" lon="6.66999">
        <ele>1416.64</ele>
        <time>2018-02-08T15:16:40Z</time>
      </trkpt>
      <trkpt lat="45.59559" lon="6.67001">
        <ele>1416.16</ele>
        <time>2018-02-08T15:16:44Z</time>
      </trkpt>
      <trkpt lat="45.5953" lon="6.66995">
        <ele>1413.76</ele>
        <time>2018-02-08T15:16:50Z</time>
      </trkpt>
      <trkpt lat="45.59514" lon="6.66997">
        <ele>1412.31</ele>
        <time>2018-02-08T15:16:53Z</time>
      </trkpt>
      <trkpt lat="45.59509" lon="6.66999">
        <ele>1412.31</ele>
        <time>2018-02-08T15:16:54Z</time>
      </trkpt>
      <trkpt lat="45.59472" lon="6.67025">
        <ele>1408.95</ele>
        <time>2018-02-08T15:17:03Z</time>
      </trkpt>
      <trkpt lat="45.59433" lon="6.67044">
        <ele>1406.07</ele>
        <time>2018-02-08T15:17:13Z</time>
      </trkpt>
      <trkpt lat="45.59429" lon="6.67046">
        <ele>1406.07</ele>
        <time>2018-02-08T15:17:14Z</time>
      </trkpt>
      <trkpt lat="45.59425" lon="6.67049">
        <ele>1405.58</ele>
        <time>2018-02-08T15:17:15Z</time>
      </trkpt>
      <trkpt lat="45.59392" lon="6.67075">
        <ele>1403.18</ele>
        <time>2018-02-08T15:17:23Z</time>
      </trkpt>
      <trkpt lat="45.59388" lon="6.67076">
        <ele>1403.18</ele>
        <time>2018-02-08T15:17:24Z</time>
      </trkpt>
      <trkpt lat="45.59384" lon="6.67078">
        <ele>1402.7</ele>
        <time>2018-02-08T15:17:25Z</time>
      </trkpt>
      <trkpt lat="45.5936" lon="6.67082">
        <ele>1401.74</ele>
        <time>2018-02-08T15:17:33Z</time>
      </trkpt>
      <trkpt lat="45.5935" lon="6.67083">
        <ele>1401.74</ele>
        <time>2018-02-08T15:17:37Z</time>
      </trkpt>
      <trkpt lat="45.59349" lon="6.67083">
        <ele>1401.26</ele>
        <time>2018-02-08T15:17:38Z</time>
      </trkpt>
      <trkpt lat="45.59324" lon="6.67077">
        <ele>1401.26</ele>
        <time>2018-02-08T15:17:51Z</time>
      </trkpt>
      <trkpt lat="45.593" lon="6.67077">
        <ele>1401.26</ele>
        <time>2018-02-08T15:18:03Z</time>
      </trkpt>
      <trkpt lat="45.59278" lon="6.67081">
        <ele>1400.78</ele>
        <time>2018-02-08T15:18:14Z</time>
      </trkpt>
      <trkpt lat="45.59251" lon="6.67082">
        <ele>1400.78</ele>
        <time>2018-02-08T15:18:26Z</time>
      </trkpt>
      <trkpt lat="45.59231" lon="6.67083">
        <ele>1400.78</ele>
        <time>2018-02-08T15:18:38Z</time>
      </trkpt>
      <trkpt lat="45.59219" lon="6.67085">
        <ele>1400.3</ele>
        <time>2018-02-08T15:18:45Z</time>
      </trkpt>
      <trkpt lat="45.59201" lon="6.67093">
        <ele>1399.82</ele>
        <time>2018-02-08T15:18:57Z</time>
      </trkpt>
      <trkpt lat="45.59199" lon="6.67096">
        <ele>1399.82</ele>
        <time>2018-02-08T15:18:59Z</time>
      </trkpt>
      <trkpt lat="45.59191" lon="6.67102">
        <ele>1400.3</ele>
        <time>2018-02-08T15:19:09Z</time>
      </trkpt>
      <trkpt lat="45.59191" lon="6.67103">
        <ele>1399.82</ele>
        <time>2018-02-08T15:19:29Z</time>
      </trkpt>
      <trkpt lat="45.59191" lon="6.67103">
        <ele>1399.34</ele>
        <time>2018-02-08T15:19:49Z</time>
      </trkpt>
      <trkpt lat="45.59188" lon="6.67103">
        <ele>1400.3</ele>
        <time>2018-02-08T15:20:02Z</time>
      </trkpt>
      <trkpt lat="45.59183" lon="6.67101">
        <ele>1400.3</ele>
        <time>2018-02-08T15:20:07Z</time>
      </trkpt>
      <trkpt lat="45.59177" lon="6.67097">
        <ele>1399.82</ele>
        <time>2018-02-08T15:20:24Z</time>
      </trkpt>
      <trkpt lat="45.59178" lon="6.67096">
        <ele>1400.3</ele>
        <time>2018-02-08T15:20:38Z</time>
      </trkpt>
    </trkseg>
  </trk>
</gpx>